<?xml version="1.0" encoding="UTF-8" standalone="no" ?>
<gpx xmlns="http://www.topografix.com/GPX/1/1" xmlns:xsi="http://www.w3.org/2001/XMLSchema-instance" xsi:schemaLocation="http://www.topografix.com/GPX/1/1 http://www.topografix.com/GPX/1/1/gpx.xsd" version="1.1" creator="VisuGPX - https://www.visugpx.com">
  <metadata>
    <name>Au Breuil </name>
  </metadata>
  <trk>
    <name><![CDATA[Enregistré le 4 oct. 2022 13:03:09]]></name>
    <trkseg>
      <trkpt lat="45.83401" lon="4.70985">
        <ele>306.60648</ele>
        <time>2022-10-04T11:03:17.000Z</time>
      </trkpt>
      <trkpt lat="45.83404" lon="4.70986">
        <ele>306.67053</ele>
        <time>2022-10-04T11:03:24.000Z</time>
      </trkpt>
      <trkpt lat="45.83408" lon="4.70985">
        <ele>307.48129</ele>
        <time>2022-10-04T11:03:25.000Z</time>
      </trkpt>
      <trkpt lat="45.83412" lon="4.70985">
        <ele>307.72067</ele>
        <time>2022-10-04T11:03:26.000Z</time>
      </trkpt>
      <trkpt lat="45.83424" lon="4.70985">
        <ele>307.07574</ele>
        <time>2022-10-04T11:03:27.000Z</time>
      </trkpt>
      <trkpt lat="45.83429" lon="4.70988">
        <ele>306.63028</ele>
        <time>2022-10-04T11:03:28.000Z</time>
      </trkpt>
      <trkpt lat="45.83434" lon="4.7099">
        <ele>306.01004</ele>
        <time>2022-10-04T11:03:29.000Z</time>
      </trkpt>
      <trkpt lat="45.83439" lon="4.70989">
        <ele>305.47287</ele>
        <time>2022-10-04T11:03:30.000Z</time>
      </trkpt>
      <trkpt lat="45.83446" lon="4.70989">
        <ele>304.98035</ele>
        <time>2022-10-04T11:03:31.000Z</time>
      </trkpt>
      <trkpt lat="45.83451" lon="4.70988">
        <ele>304.59863</ele>
        <time>2022-10-04T11:03:32.000Z</time>
      </trkpt>
      <trkpt lat="45.83457" lon="4.70991">
        <ele>304.25098</ele>
        <time>2022-10-04T11:03:33.000Z</time>
      </trkpt>
      <trkpt lat="45.83463" lon="4.70991">
        <ele>304.04181</ele>
        <time>2022-10-04T11:03:34.000Z</time>
      </trkpt>
      <trkpt lat="45.8347" lon="4.7099">
        <ele>303.79987</ele>
        <time>2022-10-04T11:03:35.000Z</time>
      </trkpt>
      <trkpt lat="45.83475" lon="4.7099">
        <ele>303.57147</ele>
        <time>2022-10-04T11:03:36.000Z</time>
      </trkpt>
      <trkpt lat="45.83478" lon="4.70989">
        <ele>303.33719</ele>
        <time>2022-10-04T11:03:37.000Z</time>
      </trkpt>
      <trkpt lat="45.83484" lon="4.70991">
        <ele>303.18668</ele>
        <time>2022-10-04T11:03:38.000Z</time>
      </trkpt>
      <trkpt lat="45.83488" lon="4.70992">
        <ele>303.05722</ele>
        <time>2022-10-04T11:03:39.000Z</time>
      </trkpt>
      <trkpt lat="45.83493" lon="4.70991">
        <ele>302.93048</ele>
        <time>2022-10-04T11:03:40.000Z</time>
      </trkpt>
      <trkpt lat="45.835" lon="4.70992">
        <ele>302.76044</ele>
        <time>2022-10-04T11:03:41.000Z</time>
      </trkpt>
      <trkpt lat="45.83506" lon="4.70995">
        <ele>302.57324</ele>
        <time>2022-10-04T11:03:42.000Z</time>
      </trkpt>
      <trkpt lat="45.83511" lon="4.70995">
        <ele>302.16681</ele>
        <time>2022-10-04T11:03:43.000Z</time>
      </trkpt>
      <trkpt lat="45.83517" lon="4.70999">
        <ele>301.7442</ele>
        <time>2022-10-04T11:03:44.000Z</time>
      </trkpt>
      <trkpt lat="45.83523" lon="4.71003">
        <ele>301.15179</ele>
        <time>2022-10-04T11:03:45.000Z</time>
      </trkpt>
      <trkpt lat="45.83528" lon="4.71008">
        <ele>300.62997</ele>
        <time>2022-10-04T11:03:46.000Z</time>
      </trkpt>
      <trkpt lat="45.83534" lon="4.71012">
        <ele>300.29803</ele>
        <time>2022-10-04T11:03:47.000Z</time>
      </trkpt>
      <trkpt lat="45.83539" lon="4.71012">
        <ele>299.93811</ele>
        <time>2022-10-04T11:03:48.000Z</time>
      </trkpt>
      <trkpt lat="45.83545" lon="4.71016">
        <ele>299.60254</ele>
        <time>2022-10-04T11:03:49.000Z</time>
      </trkpt>
      <trkpt lat="45.8355" lon="4.71021">
        <ele>299.24698</ele>
        <time>2022-10-04T11:03:50.000Z</time>
      </trkpt>
      <trkpt lat="45.83557" lon="4.71025">
        <ele>298.95026</ele>
        <time>2022-10-04T11:03:51.000Z</time>
      </trkpt>
      <trkpt lat="45.83568" lon="4.71035">
        <ele>298.65997</ele>
        <time>2022-10-04T11:03:53.000Z</time>
      </trkpt>
      <trkpt lat="45.83574" lon="4.71039">
        <ele>298.40137</ele>
        <time>2022-10-04T11:03:54.000Z</time>
      </trkpt>
      <trkpt lat="45.83581" lon="4.71044">
        <ele>298.11053</ele>
        <time>2022-10-04T11:03:55.000Z</time>
      </trkpt>
      <trkpt lat="45.83586" lon="4.71049">
        <ele>297.84265</ele>
        <time>2022-10-04T11:03:56.000Z</time>
      </trkpt>
      <trkpt lat="45.83593" lon="4.71054">
        <ele>297.5726</ele>
        <time>2022-10-04T11:03:57.000Z</time>
      </trkpt>
      <trkpt lat="45.836" lon="4.71053">
        <ele>297.30188</ele>
        <time>2022-10-04T11:03:58.000Z</time>
      </trkpt>
      <trkpt lat="45.83606" lon="4.71056">
        <ele>297.03253</ele>
        <time>2022-10-04T11:03:59.000Z</time>
      </trkpt>
      <trkpt lat="45.83612" lon="4.71064">
        <ele>296.86456</ele>
        <time>2022-10-04T11:04:00.000Z</time>
      </trkpt>
      <trkpt lat="45.83618" lon="4.71069">
        <ele>296.58838</ele>
        <time>2022-10-04T11:04:01.000Z</time>
      </trkpt>
      <trkpt lat="45.83623" lon="4.71075">
        <ele>296.32657</ele>
        <time>2022-10-04T11:04:02.000Z</time>
      </trkpt>
      <trkpt lat="45.83628" lon="4.71082">
        <ele>296.08859</ele>
        <time>2022-10-04T11:04:03.000Z</time>
      </trkpt>
      <trkpt lat="45.83635" lon="4.71087">
        <ele>295.8985</ele>
        <time>2022-10-04T11:04:04.000Z</time>
      </trkpt>
      <trkpt lat="45.83643" lon="4.7109">
        <ele>295.68906</ele>
        <time>2022-10-04T11:04:05.000Z</time>
      </trkpt>
      <trkpt lat="45.8365" lon="4.71098">
        <ele>295.50409</ele>
        <time>2022-10-04T11:04:06.000Z</time>
      </trkpt>
      <trkpt lat="45.83657" lon="4.71105">
        <ele>295.30527</ele>
        <time>2022-10-04T11:04:07.000Z</time>
      </trkpt>
      <trkpt lat="45.83664" lon="4.71111">
        <ele>295.03516</ele>
        <time>2022-10-04T11:04:08.000Z</time>
      </trkpt>
      <trkpt lat="45.83671" lon="4.71117">
        <ele>294.73737</ele>
        <time>2022-10-04T11:04:09.000Z</time>
      </trkpt>
      <trkpt lat="45.83678" lon="4.71123">
        <ele>294.50858</ele>
        <time>2022-10-04T11:04:10.000Z</time>
      </trkpt>
      <trkpt lat="45.83684" lon="4.71128">
        <ele>294.36774</ele>
        <time>2022-10-04T11:04:11.000Z</time>
      </trkpt>
      <trkpt lat="45.83691" lon="4.71132">
        <ele>294.20242</ele>
        <time>2022-10-04T11:04:12.000Z</time>
      </trkpt>
      <trkpt lat="45.83695" lon="4.71137">
        <ele>293.9754</ele>
        <time>2022-10-04T11:04:13.000Z</time>
      </trkpt>
      <trkpt lat="45.837" lon="4.7114">
        <ele>293.72739</ele>
        <time>2022-10-04T11:04:14.000Z</time>
      </trkpt>
      <trkpt lat="45.837" lon="4.71148">
        <ele>293.466</ele>
        <time>2022-10-04T11:04:15.000Z</time>
      </trkpt>
      <trkpt lat="45.83699" lon="4.71154">
        <ele>293.21951</ele>
        <time>2022-10-04T11:04:16.000Z</time>
      </trkpt>
      <trkpt lat="45.83698" lon="4.7116">
        <ele>292.99173</ele>
        <time>2022-10-04T11:04:17.000Z</time>
      </trkpt>
      <trkpt lat="45.83698" lon="4.71168">
        <ele>292.67169</ele>
        <time>2022-10-04T11:04:18.000Z</time>
      </trkpt>
      <trkpt lat="45.83695" lon="4.71174">
        <ele>292.28287</ele>
        <time>2022-10-04T11:04:19.000Z</time>
      </trkpt>
      <trkpt lat="45.83696" lon="4.71181">
        <ele>291.78412</ele>
        <time>2022-10-04T11:04:20.000Z</time>
      </trkpt>
      <trkpt lat="45.83692" lon="4.7119">
        <ele>291.43146</ele>
        <time>2022-10-04T11:04:21.000Z</time>
      </trkpt>
      <trkpt lat="45.83688" lon="4.71197">
        <ele>291.14178</ele>
        <time>2022-10-04T11:04:22.000Z</time>
      </trkpt>
      <trkpt lat="45.83684" lon="4.71204">
        <ele>290.8591</ele>
        <time>2022-10-04T11:04:23.000Z</time>
      </trkpt>
      <trkpt lat="45.83684" lon="4.71213">
        <ele>290.54721</ele>
        <time>2022-10-04T11:04:24.000Z</time>
      </trkpt>
      <trkpt lat="45.83684" lon="4.71219">
        <ele>290.27005</ele>
        <time>2022-10-04T11:04:25.000Z</time>
      </trkpt>
      <trkpt lat="45.83683" lon="4.71226">
        <ele>289.96246</ele>
        <time>2022-10-04T11:04:26.000Z</time>
      </trkpt>
      <trkpt lat="45.83683" lon="4.71235">
        <ele>289.57245</ele>
        <time>2022-10-04T11:04:27.000Z</time>
      </trkpt>
      <trkpt lat="45.8368" lon="4.71244">
        <ele>289.1712</ele>
        <time>2022-10-04T11:04:28.000Z</time>
      </trkpt>
      <trkpt lat="45.83679" lon="4.71253">
        <ele>288.78555</ele>
        <time>2022-10-04T11:04:29.000Z</time>
      </trkpt>
      <trkpt lat="45.83676" lon="4.7126">
        <ele>288.41907</ele>
        <time>2022-10-04T11:04:30.000Z</time>
      </trkpt>
      <trkpt lat="45.83674" lon="4.71268">
        <ele>287.94788</ele>
        <time>2022-10-04T11:04:31.000Z</time>
      </trkpt>
      <trkpt lat="45.83671" lon="4.71276">
        <ele>287.45306</ele>
        <time>2022-10-04T11:04:32.000Z</time>
      </trkpt>
      <trkpt lat="45.83669" lon="4.71284">
        <ele>286.93219</ele>
        <time>2022-10-04T11:04:33.000Z</time>
      </trkpt>
      <trkpt lat="45.83668" lon="4.71291">
        <ele>286.43188</ele>
        <time>2022-10-04T11:04:34.000Z</time>
      </trkpt>
      <trkpt lat="45.83667" lon="4.71297">
        <ele>285.98672</ele>
        <time>2022-10-04T11:04:35.000Z</time>
      </trkpt>
      <trkpt lat="45.83665" lon="4.71304">
        <ele>285.59491</ele>
        <time>2022-10-04T11:04:36.000Z</time>
      </trkpt>
      <trkpt lat="45.83663" lon="4.71313">
        <ele>285.23621</ele>
        <time>2022-10-04T11:04:37.000Z</time>
      </trkpt>
      <trkpt lat="45.83661" lon="4.7132">
        <ele>284.79941</ele>
        <time>2022-10-04T11:04:38.000Z</time>
      </trkpt>
      <trkpt lat="45.83659" lon="4.71328">
        <ele>284.33588</ele>
        <time>2022-10-04T11:04:39.000Z</time>
      </trkpt>
      <trkpt lat="45.83659" lon="4.71334">
        <ele>283.8837</ele>
        <time>2022-10-04T11:04:40.000Z</time>
      </trkpt>
      <trkpt lat="45.83661" lon="4.71339">
        <ele>283.43332</ele>
        <time>2022-10-04T11:04:41.000Z</time>
      </trkpt>
      <trkpt lat="45.83652" lon="4.7135">
        <ele>282.86484</ele>
        <time>2022-10-04T11:04:42.000Z</time>
      </trkpt>
      <trkpt lat="45.83647" lon="4.71354">
        <ele>282.38873</ele>
        <time>2022-10-04T11:04:43.000Z</time>
      </trkpt>
      <trkpt lat="45.83639" lon="4.71354">
        <ele>281.84393</ele>
        <time>2022-10-04T11:04:44.000Z</time>
      </trkpt>
      <trkpt lat="45.83636" lon="4.71355">
        <ele>281.37851</ele>
        <time>2022-10-04T11:04:45.000Z</time>
      </trkpt>
      <trkpt lat="45.83633" lon="4.7135">
        <ele>281.01248</ele>
        <time>2022-10-04T11:04:46.000Z</time>
      </trkpt>
      <trkpt lat="45.83629" lon="4.71349">
        <ele>280.74835</ele>
        <time>2022-10-04T11:04:47.000Z</time>
      </trkpt>
      <trkpt lat="45.83626" lon="4.71347">
        <ele>280.51608</ele>
        <time>2022-10-04T11:04:48.000Z</time>
      </trkpt>
      <trkpt lat="45.83624" lon="4.71345">
        <ele>280.35739</ele>
        <time>2022-10-04T11:04:49.000Z</time>
      </trkpt>
      <trkpt lat="45.83622" lon="4.71343">
        <ele>280.17551</ele>
        <time>2022-10-04T11:04:50.000Z</time>
      </trkpt>
      <trkpt lat="45.83619" lon="4.71341">
        <ele>280.12689</ele>
        <time>2022-10-04T11:04:51.000Z</time>
      </trkpt>
      <trkpt lat="45.83616" lon="4.71338">
        <ele>280.07022</ele>
        <time>2022-10-04T11:04:52.000Z</time>
      </trkpt>
      <trkpt lat="45.83614" lon="4.71336">
        <ele>280.10394</ele>
        <time>2022-10-04T11:04:53.000Z</time>
      </trkpt>
      <trkpt lat="45.83612" lon="4.71335">
        <ele>280.14023</ele>
        <time>2022-10-04T11:04:54.000Z</time>
      </trkpt>
      <trkpt lat="45.8361" lon="4.71335">
        <ele>280.14069</ele>
        <time>2022-10-04T11:04:55.000Z</time>
      </trkpt>
      <trkpt lat="45.83608" lon="4.71338">
        <ele>280.20483</ele>
        <time>2022-10-04T11:04:57.000Z</time>
      </trkpt>
      <trkpt lat="45.83607" lon="4.71342">
        <ele>280.11209</ele>
        <time>2022-10-04T11:04:59.000Z</time>
      </trkpt>
      <trkpt lat="45.83607" lon="4.71347">
        <ele>280.26663</ele>
        <time>2022-10-04T11:05:01.000Z</time>
      </trkpt>
      <trkpt lat="45.83608" lon="4.71349">
        <ele>280.48346</ele>
        <time>2022-10-04T11:05:05.000Z</time>
      </trkpt>
      <trkpt lat="45.83607" lon="4.71351">
        <ele>280.57571</ele>
        <time>2022-10-04T11:06:41.000Z</time>
      </trkpt>
      <trkpt lat="45.83605" lon="4.71353">
        <ele>280.81647</ele>
        <time>2022-10-04T11:06:46.000Z</time>
      </trkpt>
      <trkpt lat="45.83607" lon="4.71357">
        <ele>281.30466</ele>
        <time>2022-10-04T11:06:48.000Z</time>
      </trkpt>
      <trkpt lat="45.83609" lon="4.71358">
        <ele>281.69095</ele>
        <time>2022-10-04T11:06:49.000Z</time>
      </trkpt>
      <trkpt lat="45.83611" lon="4.71359">
        <ele>282.06219</ele>
        <time>2022-10-04T11:06:51.000Z</time>
      </trkpt>
      <trkpt lat="45.83615" lon="4.71358">
        <ele>282.38763</ele>
        <time>2022-10-04T11:06:53.000Z</time>
      </trkpt>
      <trkpt lat="45.83618" lon="4.71358">
        <ele>282.68417</ele>
        <time>2022-10-04T11:06:55.000Z</time>
      </trkpt>
      <trkpt lat="45.83622" lon="4.71356">
        <ele>282.88748</ele>
        <time>2022-10-04T11:06:57.000Z</time>
      </trkpt>
      <trkpt lat="45.83624" lon="4.71353">
        <ele>283.22104</ele>
        <time>2022-10-04T11:06:58.000Z</time>
      </trkpt>
      <trkpt lat="45.83625" lon="4.71349">
        <ele>283.50824</ele>
        <time>2022-10-04T11:06:59.000Z</time>
      </trkpt>
      <trkpt lat="45.83627" lon="4.71346">
        <ele>283.81973</ele>
        <time>2022-10-04T11:07:00.000Z</time>
      </trkpt>
      <trkpt lat="45.83628" lon="4.71345">
        <ele>284.01584</ele>
        <time>2022-10-04T11:07:01.000Z</time>
      </trkpt>
      <trkpt lat="45.83632" lon="4.71347">
        <ele>284.15753</ele>
        <time>2022-10-04T11:07:03.000Z</time>
      </trkpt>
      <trkpt lat="45.83635" lon="4.71349">
        <ele>284.21454</ele>
        <time>2022-10-04T11:07:04.000Z</time>
      </trkpt>
      <trkpt lat="45.83637" lon="4.71352">
        <ele>284.20111</ele>
        <time>2022-10-04T11:07:05.000Z</time>
      </trkpt>
      <trkpt lat="45.83639" lon="4.71354">
        <ele>284.19626</ele>
        <time>2022-10-04T11:07:06.000Z</time>
      </trkpt>
      <trkpt lat="45.83642" lon="4.71356">
        <ele>284.13419</ele>
        <time>2022-10-04T11:07:07.000Z</time>
      </trkpt>
      <trkpt lat="45.83644" lon="4.71356">
        <ele>284.25504</ele>
        <time>2022-10-04T11:07:08.000Z</time>
      </trkpt>
      <trkpt lat="45.83647" lon="4.71356">
        <ele>284.30453</ele>
        <time>2022-10-04T11:07:09.000Z</time>
      </trkpt>
      <trkpt lat="45.83649" lon="4.71357">
        <ele>284.36829</ele>
        <time>2022-10-04T11:07:10.000Z</time>
      </trkpt>
      <trkpt lat="45.83652" lon="4.71357">
        <ele>284.50397</ele>
        <time>2022-10-04T11:07:11.000Z</time>
      </trkpt>
      <trkpt lat="45.83654" lon="4.71356">
        <ele>284.49487</ele>
        <time>2022-10-04T11:07:12.000Z</time>
      </trkpt>
      <trkpt lat="45.83657" lon="4.71354">
        <ele>284.30649</ele>
        <time>2022-10-04T11:07:13.000Z</time>
      </trkpt>
      <trkpt lat="45.83659" lon="4.7135">
        <ele>284.13068</ele>
        <time>2022-10-04T11:07:14.000Z</time>
      </trkpt>
      <trkpt lat="45.83661" lon="4.71345">
        <ele>284.03677</ele>
        <time>2022-10-04T11:07:15.000Z</time>
      </trkpt>
      <trkpt lat="45.83662" lon="4.7134">
        <ele>283.8996</ele>
        <time>2022-10-04T11:07:16.000Z</time>
      </trkpt>
      <trkpt lat="45.83664" lon="4.71334">
        <ele>283.69534</ele>
        <time>2022-10-04T11:07:17.000Z</time>
      </trkpt>
      <trkpt lat="45.83665" lon="4.71329">
        <ele>283.56409</ele>
        <time>2022-10-04T11:07:18.000Z</time>
      </trkpt>
      <trkpt lat="45.83666" lon="4.71324">
        <ele>283.35953</ele>
        <time>2022-10-04T11:07:19.000Z</time>
      </trkpt>
      <trkpt lat="45.83667" lon="4.71319">
        <ele>283.17996</ele>
        <time>2022-10-04T11:07:20.000Z</time>
      </trkpt>
      <trkpt lat="45.83669" lon="4.71314">
        <ele>282.98361</ele>
        <time>2022-10-04T11:07:21.000Z</time>
      </trkpt>
      <trkpt lat="45.8367" lon="4.71308">
        <ele>282.85602</ele>
        <time>2022-10-04T11:07:22.000Z</time>
      </trkpt>
      <trkpt lat="45.83671" lon="4.71303">
        <ele>282.80606</ele>
        <time>2022-10-04T11:07:23.000Z</time>
      </trkpt>
      <trkpt lat="45.83672" lon="4.71298">
        <ele>282.7807</ele>
        <time>2022-10-04T11:07:24.000Z</time>
      </trkpt>
      <trkpt lat="45.83673" lon="4.71292">
        <ele>282.73389</ele>
        <time>2022-10-04T11:07:25.000Z</time>
      </trkpt>
      <trkpt lat="45.83674" lon="4.71287">
        <ele>282.67316</ele>
        <time>2022-10-04T11:07:26.000Z</time>
      </trkpt>
      <trkpt lat="45.83675" lon="4.71282">
        <ele>282.58551</ele>
        <time>2022-10-04T11:07:27.000Z</time>
      </trkpt>
      <trkpt lat="45.83676" lon="4.71277">
        <ele>282.46442</ele>
        <time>2022-10-04T11:07:28.000Z</time>
      </trkpt>
      <trkpt lat="45.83677" lon="4.71272">
        <ele>282.37958</ele>
        <time>2022-10-04T11:07:29.000Z</time>
      </trkpt>
      <trkpt lat="45.83679" lon="4.71267">
        <ele>282.26602</ele>
        <time>2022-10-04T11:07:30.000Z</time>
      </trkpt>
      <trkpt lat="45.8368" lon="4.71262">
        <ele>282.23596</ele>
        <time>2022-10-04T11:07:31.000Z</time>
      </trkpt>
      <trkpt lat="45.83682" lon="4.71257">
        <ele>282.20621</ele>
        <time>2022-10-04T11:07:32.000Z</time>
      </trkpt>
      <trkpt lat="45.83683" lon="4.71253">
        <ele>282.21271</ele>
        <time>2022-10-04T11:07:33.000Z</time>
      </trkpt>
      <trkpt lat="45.83684" lon="4.71247">
        <ele>282.19565</ele>
        <time>2022-10-04T11:07:34.000Z</time>
      </trkpt>
      <trkpt lat="45.83685" lon="4.71242">
        <ele>282.24362</ele>
        <time>2022-10-04T11:07:35.000Z</time>
      </trkpt>
      <trkpt lat="45.83686" lon="4.71236">
        <ele>282.33932</ele>
        <time>2022-10-04T11:07:36.000Z</time>
      </trkpt>
      <trkpt lat="45.83687" lon="4.71231">
        <ele>282.4523</ele>
        <time>2022-10-04T11:07:37.000Z</time>
      </trkpt>
      <trkpt lat="45.83688" lon="4.71225">
        <ele>282.50772</ele>
        <time>2022-10-04T11:07:38.000Z</time>
      </trkpt>
      <trkpt lat="45.83689" lon="4.71219">
        <ele>282.55362</ele>
        <time>2022-10-04T11:07:39.000Z</time>
      </trkpt>
      <trkpt lat="45.8369" lon="4.71213">
        <ele>282.55661</ele>
        <time>2022-10-04T11:07:40.000Z</time>
      </trkpt>
      <trkpt lat="45.83691" lon="4.71208">
        <ele>282.54196</ele>
        <time>2022-10-04T11:07:41.000Z</time>
      </trkpt>
      <trkpt lat="45.83692" lon="4.71203">
        <ele>282.53546</ele>
        <time>2022-10-04T11:07:42.000Z</time>
      </trkpt>
      <trkpt lat="45.83694" lon="4.71198">
        <ele>282.50568</ele>
        <time>2022-10-04T11:07:43.000Z</time>
      </trkpt>
      <trkpt lat="45.83695" lon="4.71193">
        <ele>282.58478</ele>
        <time>2022-10-04T11:07:44.000Z</time>
      </trkpt>
      <trkpt lat="45.83697" lon="4.71188">
        <ele>282.73544</ele>
        <time>2022-10-04T11:07:45.000Z</time>
      </trkpt>
      <trkpt lat="45.83699" lon="4.71184">
        <ele>282.87311</ele>
        <time>2022-10-04T11:07:46.000Z</time>
      </trkpt>
      <trkpt lat="45.83701" lon="4.71179">
        <ele>282.99261</ele>
        <time>2022-10-04T11:07:47.000Z</time>
      </trkpt>
      <trkpt lat="45.83703" lon="4.71174">
        <ele>283.10968</ele>
        <time>2022-10-04T11:07:48.000Z</time>
      </trkpt>
      <trkpt lat="45.83705" lon="4.7117">
        <ele>283.21683</ele>
        <time>2022-10-04T11:07:49.000Z</time>
      </trkpt>
      <trkpt lat="45.83708" lon="4.71166">
        <ele>283.34241</ele>
        <time>2022-10-04T11:07:50.000Z</time>
      </trkpt>
      <trkpt lat="45.83711" lon="4.71162">
        <ele>283.40656</ele>
        <time>2022-10-04T11:07:51.000Z</time>
      </trkpt>
      <trkpt lat="45.83714" lon="4.71158">
        <ele>283.43445</ele>
        <time>2022-10-04T11:07:52.000Z</time>
      </trkpt>
      <trkpt lat="45.83716" lon="4.71154">
        <ele>283.48737</ele>
        <time>2022-10-04T11:07:53.000Z</time>
      </trkpt>
      <trkpt lat="45.83718" lon="4.71149">
        <ele>283.59045</ele>
        <time>2022-10-04T11:07:54.000Z</time>
      </trkpt>
      <trkpt lat="45.83719" lon="4.71145">
        <ele>283.63705</ele>
        <time>2022-10-04T11:07:55.000Z</time>
      </trkpt>
      <trkpt lat="45.83721" lon="4.7114">
        <ele>283.66617</ele>
        <time>2022-10-04T11:07:56.000Z</time>
      </trkpt>
      <trkpt lat="45.83724" lon="4.71135">
        <ele>283.70239</ele>
        <time>2022-10-04T11:07:57.000Z</time>
      </trkpt>
      <trkpt lat="45.83726" lon="4.71131">
        <ele>283.77026</ele>
        <time>2022-10-04T11:07:58.000Z</time>
      </trkpt>
      <trkpt lat="45.83728" lon="4.71126">
        <ele>283.86679</ele>
        <time>2022-10-04T11:07:59.000Z</time>
      </trkpt>
      <trkpt lat="45.8373" lon="4.71121">
        <ele>284.00119</ele>
        <time>2022-10-04T11:08:00.000Z</time>
      </trkpt>
      <trkpt lat="45.83732" lon="4.71117">
        <ele>284.17438</ele>
        <time>2022-10-04T11:08:01.000Z</time>
      </trkpt>
      <trkpt lat="45.83734" lon="4.71113">
        <ele>284.2269</ele>
        <time>2022-10-04T11:08:02.000Z</time>
      </trkpt>
      <trkpt lat="45.83737" lon="4.71109">
        <ele>284.3194</ele>
        <time>2022-10-04T11:08:03.000Z</time>
      </trkpt>
      <trkpt lat="45.83739" lon="4.71105">
        <ele>284.35895</ele>
        <time>2022-10-04T11:08:04.000Z</time>
      </trkpt>
      <trkpt lat="45.83742" lon="4.71101">
        <ele>284.40381</ele>
        <time>2022-10-04T11:08:05.000Z</time>
      </trkpt>
      <trkpt lat="45.83744" lon="4.71096">
        <ele>284.50934</ele>
        <time>2022-10-04T11:08:06.000Z</time>
      </trkpt>
      <trkpt lat="45.83747" lon="4.71091">
        <ele>284.65253</ele>
        <time>2022-10-04T11:08:07.000Z</time>
      </trkpt>
      <trkpt lat="45.8375" lon="4.71087">
        <ele>284.8642</ele>
        <time>2022-10-04T11:08:08.000Z</time>
      </trkpt>
      <trkpt lat="45.83753" lon="4.71082">
        <ele>285.00409</ele>
        <time>2022-10-04T11:08:09.000Z</time>
      </trkpt>
      <trkpt lat="45.83755" lon="4.71077">
        <ele>285.1532</ele>
        <time>2022-10-04T11:08:10.000Z</time>
      </trkpt>
      <trkpt lat="45.83758" lon="4.71072">
        <ele>285.33893</ele>
        <time>2022-10-04T11:08:11.000Z</time>
      </trkpt>
      <trkpt lat="45.8376" lon="4.71067">
        <ele>285.48334</ele>
        <time>2022-10-04T11:08:12.000Z</time>
      </trkpt>
      <trkpt lat="45.83763" lon="4.71062">
        <ele>285.55362</ele>
        <time>2022-10-04T11:08:13.000Z</time>
      </trkpt>
      <trkpt lat="45.83767" lon="4.71058">
        <ele>285.60434</ele>
        <time>2022-10-04T11:08:14.000Z</time>
      </trkpt>
      <trkpt lat="45.8377" lon="4.71054">
        <ele>285.65573</ele>
        <time>2022-10-04T11:08:15.000Z</time>
      </trkpt>
      <trkpt lat="45.83773" lon="4.7105">
        <ele>285.67123</ele>
        <time>2022-10-04T11:08:16.000Z</time>
      </trkpt>
      <trkpt lat="45.83777" lon="4.71047">
        <ele>285.72476</ele>
        <time>2022-10-04T11:08:17.000Z</time>
      </trkpt>
      <trkpt lat="45.8378" lon="4.7104">
        <ele>285.81064</ele>
        <time>2022-10-04T11:08:18.000Z</time>
      </trkpt>
      <trkpt lat="45.83783" lon="4.71034">
        <ele>285.81732</ele>
        <time>2022-10-04T11:08:19.000Z</time>
      </trkpt>
      <trkpt lat="45.83786" lon="4.71028">
        <ele>285.80548</ele>
        <time>2022-10-04T11:08:20.000Z</time>
      </trkpt>
      <trkpt lat="45.83789" lon="4.71024">
        <ele>285.76971</ele>
        <time>2022-10-04T11:08:21.000Z</time>
      </trkpt>
      <trkpt lat="45.83791" lon="4.71019">
        <ele>285.80344</ele>
        <time>2022-10-04T11:08:22.000Z</time>
      </trkpt>
      <trkpt lat="45.83795" lon="4.71014">
        <ele>285.77472</ele>
        <time>2022-10-04T11:08:23.000Z</time>
      </trkpt>
      <trkpt lat="45.83798" lon="4.71008">
        <ele>285.6817</ele>
        <time>2022-10-04T11:08:24.000Z</time>
      </trkpt>
      <trkpt lat="45.83801" lon="4.71002">
        <ele>285.51669</ele>
        <time>2022-10-04T11:08:25.000Z</time>
      </trkpt>
      <trkpt lat="45.83805" lon="4.70997">
        <ele>285.29999</ele>
        <time>2022-10-04T11:08:26.000Z</time>
      </trkpt>
      <trkpt lat="45.83807" lon="4.70992">
        <ele>285.08231</ele>
        <time>2022-10-04T11:08:27.000Z</time>
      </trkpt>
      <trkpt lat="45.8381" lon="4.70987">
        <ele>284.78134</ele>
        <time>2022-10-04T11:08:28.000Z</time>
      </trkpt>
      <trkpt lat="45.83813" lon="4.7098">
        <ele>284.58926</ele>
        <time>2022-10-04T11:08:29.000Z</time>
      </trkpt>
      <trkpt lat="45.83815" lon="4.70978">
        <ele>284.41455</ele>
        <time>2022-10-04T11:08:30.000Z</time>
      </trkpt>
      <trkpt lat="45.83818" lon="4.70973">
        <ele>284.19455</ele>
        <time>2022-10-04T11:08:31.000Z</time>
      </trkpt>
      <trkpt lat="45.8382" lon="4.70967">
        <ele>283.93845</ele>
        <time>2022-10-04T11:08:32.000Z</time>
      </trkpt>
      <trkpt lat="45.83824" lon="4.70962">
        <ele>283.73907</ele>
        <time>2022-10-04T11:08:33.000Z</time>
      </trkpt>
      <trkpt lat="45.83827" lon="4.70956">
        <ele>283.53131</ele>
        <time>2022-10-04T11:08:34.000Z</time>
      </trkpt>
      <trkpt lat="45.83831" lon="4.7095">
        <ele>283.34171</ele>
        <time>2022-10-04T11:08:35.000Z</time>
      </trkpt>
      <trkpt lat="45.83835" lon="4.70943">
        <ele>283.11584</ele>
        <time>2022-10-04T11:08:36.000Z</time>
      </trkpt>
      <trkpt lat="45.83838" lon="4.70938">
        <ele>282.92593</ele>
        <time>2022-10-04T11:08:37.000Z</time>
      </trkpt>
      <trkpt lat="45.83842" lon="4.70933">
        <ele>282.65747</ele>
        <time>2022-10-04T11:08:38.000Z</time>
      </trkpt>
      <trkpt lat="45.83846" lon="4.70927">
        <ele>282.52292</ele>
        <time>2022-10-04T11:08:39.000Z</time>
      </trkpt>
      <trkpt lat="45.83849" lon="4.70921">
        <ele>282.42709</ele>
        <time>2022-10-04T11:08:40.000Z</time>
      </trkpt>
      <trkpt lat="45.83851" lon="4.70916">
        <ele>282.34503</ele>
        <time>2022-10-04T11:08:41.000Z</time>
      </trkpt>
      <trkpt lat="45.83855" lon="4.70911">
        <ele>282.28448</ele>
        <time>2022-10-04T11:08:42.000Z</time>
      </trkpt>
      <trkpt lat="45.83858" lon="4.70904">
        <ele>282.30048</ele>
        <time>2022-10-04T11:08:43.000Z</time>
      </trkpt>
      <trkpt lat="45.83861" lon="4.709">
        <ele>282.33728</ele>
        <time>2022-10-04T11:08:44.000Z</time>
      </trkpt>
      <trkpt lat="45.83864" lon="4.70893">
        <ele>282.47623</ele>
        <time>2022-10-04T11:08:45.000Z</time>
      </trkpt>
      <trkpt lat="45.83867" lon="4.70888">
        <ele>282.66202</ele>
        <time>2022-10-04T11:08:46.000Z</time>
      </trkpt>
      <trkpt lat="45.8387" lon="4.70883">
        <ele>282.79996</ele>
        <time>2022-10-04T11:08:47.000Z</time>
      </trkpt>
      <trkpt lat="45.83872" lon="4.70878">
        <ele>282.86838</ele>
        <time>2022-10-04T11:08:48.000Z</time>
      </trkpt>
      <trkpt lat="45.83875" lon="4.70873">
        <ele>282.95404</ele>
        <time>2022-10-04T11:08:49.000Z</time>
      </trkpt>
      <trkpt lat="45.83876" lon="4.70868">
        <ele>282.92667</ele>
        <time>2022-10-04T11:08:50.000Z</time>
      </trkpt>
      <trkpt lat="45.83879" lon="4.70862">
        <ele>282.89508</ele>
        <time>2022-10-04T11:08:51.000Z</time>
      </trkpt>
      <trkpt lat="45.83882" lon="4.70856">
        <ele>282.98584</ele>
        <time>2022-10-04T11:08:52.000Z</time>
      </trkpt>
      <trkpt lat="45.83887" lon="4.70852">
        <ele>283.16138</ele>
        <time>2022-10-04T11:08:53.000Z</time>
      </trkpt>
      <trkpt lat="45.83888" lon="4.70846">
        <ele>283.31332</ele>
        <time>2022-10-04T11:08:54.000Z</time>
      </trkpt>
      <trkpt lat="45.83893" lon="4.70839">
        <ele>283.49127</ele>
        <time>2022-10-04T11:08:55.000Z</time>
      </trkpt>
      <trkpt lat="45.83898" lon="4.70834">
        <ele>283.70749</ele>
        <time>2022-10-04T11:08:56.000Z</time>
      </trkpt>
      <trkpt lat="45.83903" lon="4.70824">
        <ele>283.81323</ele>
        <time>2022-10-04T11:08:57.000Z</time>
      </trkpt>
      <trkpt lat="45.83906" lon="4.70818">
        <ele>283.96786</ele>
        <time>2022-10-04T11:08:58.000Z</time>
      </trkpt>
      <trkpt lat="45.83912" lon="4.70812">
        <ele>284.11609</ele>
        <time>2022-10-04T11:08:59.000Z</time>
      </trkpt>
      <trkpt lat="45.83917" lon="4.70804">
        <ele>284.25397</ele>
        <time>2022-10-04T11:09:00.000Z</time>
      </trkpt>
      <trkpt lat="45.8392" lon="4.70798">
        <ele>284.37686</ele>
        <time>2022-10-04T11:09:01.000Z</time>
      </trkpt>
      <trkpt lat="45.83923" lon="4.70788">
        <ele>284.4834</ele>
        <time>2022-10-04T11:09:02.000Z</time>
      </trkpt>
      <trkpt lat="45.83925" lon="4.70781">
        <ele>284.53064</ele>
        <time>2022-10-04T11:09:03.000Z</time>
      </trkpt>
      <trkpt lat="45.83928" lon="4.70773">
        <ele>284.63568</ele>
        <time>2022-10-04T11:09:04.000Z</time>
      </trkpt>
      <trkpt lat="45.83928" lon="4.70765">
        <ele>284.70294</ele>
        <time>2022-10-04T11:09:05.000Z</time>
      </trkpt>
      <trkpt lat="45.8393" lon="4.70757">
        <ele>284.72961</ele>
        <time>2022-10-04T11:09:06.000Z</time>
      </trkpt>
      <trkpt lat="45.83932" lon="4.7075">
        <ele>284.83917</ele>
        <time>2022-10-04T11:09:07.000Z</time>
      </trkpt>
      <trkpt lat="45.83934" lon="4.70741">
        <ele>285.01727</ele>
        <time>2022-10-04T11:09:08.000Z</time>
      </trkpt>
      <trkpt lat="45.83935" lon="4.70734">
        <ele>285.13605</ele>
        <time>2022-10-04T11:09:09.000Z</time>
      </trkpt>
      <trkpt lat="45.83936" lon="4.70725">
        <ele>285.32019</ele>
        <time>2022-10-04T11:09:10.000Z</time>
      </trkpt>
      <trkpt lat="45.83937" lon="4.70717">
        <ele>285.50876</ele>
        <time>2022-10-04T11:09:11.000Z</time>
      </trkpt>
      <trkpt lat="45.83938" lon="4.70709">
        <ele>285.68597</ele>
        <time>2022-10-04T11:09:12.000Z</time>
      </trkpt>
      <trkpt lat="45.83937" lon="4.707">
        <ele>285.76907</ele>
        <time>2022-10-04T11:09:13.000Z</time>
      </trkpt>
      <trkpt lat="45.83938" lon="4.70691">
        <ele>285.91034</ele>
        <time>2022-10-04T11:09:14.000Z</time>
      </trkpt>
      <trkpt lat="45.83938" lon="4.70681">
        <ele>286.03848</ele>
        <time>2022-10-04T11:09:15.000Z</time>
      </trkpt>
      <trkpt lat="45.83938" lon="4.70673">
        <ele>286.21408</ele>
        <time>2022-10-04T11:09:16.000Z</time>
      </trkpt>
      <trkpt lat="45.83938" lon="4.70663">
        <ele>286.48889</ele>
        <time>2022-10-04T11:09:17.000Z</time>
      </trkpt>
      <trkpt lat="45.83937" lon="4.70655">
        <ele>286.72861</ele>
        <time>2022-10-04T11:09:18.000Z</time>
      </trkpt>
      <trkpt lat="45.83936" lon="4.70646">
        <ele>286.90192</ele>
        <time>2022-10-04T11:09:19.000Z</time>
      </trkpt>
      <trkpt lat="45.83936" lon="4.70636">
        <ele>286.99927</ele>
        <time>2022-10-04T11:09:20.000Z</time>
      </trkpt>
      <trkpt lat="45.83936" lon="4.70629">
        <ele>287.02213</ele>
        <time>2022-10-04T11:09:21.000Z</time>
      </trkpt>
      <trkpt lat="45.83937" lon="4.70619">
        <ele>287.07025</ele>
        <time>2022-10-04T11:09:22.000Z</time>
      </trkpt>
      <trkpt lat="45.83937" lon="4.70608">
        <ele>287.09265</ele>
        <time>2022-10-04T11:09:23.000Z</time>
      </trkpt>
      <trkpt lat="45.83936" lon="4.70599">
        <ele>287.06909</ele>
        <time>2022-10-04T11:09:24.000Z</time>
      </trkpt>
      <trkpt lat="45.83935" lon="4.7059">
        <ele>287.02762</ele>
        <time>2022-10-04T11:09:25.000Z</time>
      </trkpt>
      <trkpt lat="45.83934" lon="4.70581">
        <ele>286.97174</ele>
        <time>2022-10-04T11:09:26.000Z</time>
      </trkpt>
      <trkpt lat="45.83935" lon="4.70573">
        <ele>286.74011</ele>
        <time>2022-10-04T11:09:27.000Z</time>
      </trkpt>
      <trkpt lat="45.83934" lon="4.70564">
        <ele>286.48813</ele>
        <time>2022-10-04T11:09:28.000Z</time>
      </trkpt>
      <trkpt lat="45.83935" lon="4.70555">
        <ele>286.21606</ele>
        <time>2022-10-04T11:09:29.000Z</time>
      </trkpt>
      <trkpt lat="45.83935" lon="4.70546">
        <ele>285.90735</ele>
        <time>2022-10-04T11:09:30.000Z</time>
      </trkpt>
      <trkpt lat="45.83934" lon="4.70537">
        <ele>285.66608</ele>
        <time>2022-10-04T11:09:31.000Z</time>
      </trkpt>
      <trkpt lat="45.83934" lon="4.70528">
        <ele>285.44031</ele>
        <time>2022-10-04T11:09:32.000Z</time>
      </trkpt>
      <trkpt lat="45.83934" lon="4.70518">
        <ele>285.19421</ele>
        <time>2022-10-04T11:09:33.000Z</time>
      </trkpt>
      <trkpt lat="45.83934" lon="4.70509">
        <ele>284.95346</ele>
        <time>2022-10-04T11:09:34.000Z</time>
      </trkpt>
      <trkpt lat="45.83934" lon="4.70501">
        <ele>284.69443</ele>
        <time>2022-10-04T11:09:35.000Z</time>
      </trkpt>
      <trkpt lat="45.83934" lon="4.70493">
        <ele>284.35501</ele>
        <time>2022-10-04T11:09:36.000Z</time>
      </trkpt>
      <trkpt lat="45.83934" lon="4.70484">
        <ele>283.9588</ele>
        <time>2022-10-04T11:09:37.000Z</time>
      </trkpt>
      <trkpt lat="45.83933" lon="4.70475">
        <ele>283.63495</ele>
        <time>2022-10-04T11:09:38.000Z</time>
      </trkpt>
      <trkpt lat="45.83932" lon="4.70467">
        <ele>283.33661</ele>
        <time>2022-10-04T11:09:39.000Z</time>
      </trkpt>
      <trkpt lat="45.83932" lon="4.70457">
        <ele>283.14468</ele>
        <time>2022-10-04T11:09:40.000Z</time>
      </trkpt>
      <trkpt lat="45.83931" lon="4.70448">
        <ele>283.05835</ele>
        <time>2022-10-04T11:09:41.000Z</time>
      </trkpt>
      <trkpt lat="45.83931" lon="4.70439">
        <ele>282.9581</ele>
        <time>2022-10-04T11:09:42.000Z</time>
      </trkpt>
      <trkpt lat="45.83931" lon="4.7043">
        <ele>282.91302</ele>
        <time>2022-10-04T11:09:43.000Z</time>
      </trkpt>
      <trkpt lat="45.8393" lon="4.70419">
        <ele>282.84473</ele>
        <time>2022-10-04T11:09:44.000Z</time>
      </trkpt>
      <trkpt lat="45.83929" lon="4.70409">
        <ele>282.76489</ele>
        <time>2022-10-04T11:09:45.000Z</time>
      </trkpt>
      <trkpt lat="45.83928" lon="4.70401">
        <ele>282.72659</ele>
        <time>2022-10-04T11:09:46.000Z</time>
      </trkpt>
      <trkpt lat="45.83926" lon="4.70391">
        <ele>282.75687</ele>
        <time>2022-10-04T11:09:47.000Z</time>
      </trkpt>
      <trkpt lat="45.83924" lon="4.70382">
        <ele>282.80695</ele>
        <time>2022-10-04T11:09:48.000Z</time>
      </trkpt>
      <trkpt lat="45.83922" lon="4.70372">
        <ele>282.91339</ele>
        <time>2022-10-04T11:09:49.000Z</time>
      </trkpt>
      <trkpt lat="45.8392" lon="4.70363">
        <ele>282.99945</ele>
        <time>2022-10-04T11:09:50.000Z</time>
      </trkpt>
      <trkpt lat="45.83918" lon="4.70354">
        <ele>283.01743</ele>
        <time>2022-10-04T11:09:51.000Z</time>
      </trkpt>
      <trkpt lat="45.83915" lon="4.70343">
        <ele>283.01035</ele>
        <time>2022-10-04T11:09:52.000Z</time>
      </trkpt>
      <trkpt lat="45.83913" lon="4.70335">
        <ele>282.9816</ele>
        <time>2022-10-04T11:09:53.000Z</time>
      </trkpt>
      <trkpt lat="45.8391" lon="4.70326">
        <ele>282.8829</ele>
        <time>2022-10-04T11:09:54.000Z</time>
      </trkpt>
      <trkpt lat="45.83908" lon="4.70316">
        <ele>282.77591</ele>
        <time>2022-10-04T11:09:55.000Z</time>
      </trkpt>
      <trkpt lat="45.83905" lon="4.70305">
        <ele>282.69305</ele>
        <time>2022-10-04T11:09:56.000Z</time>
      </trkpt>
      <trkpt lat="45.83903" lon="4.70296">
        <ele>282.59128</ele>
        <time>2022-10-04T11:09:57.000Z</time>
      </trkpt>
      <trkpt lat="45.83901" lon="4.7029">
        <ele>282.39911</ele>
        <time>2022-10-04T11:09:58.000Z</time>
      </trkpt>
      <trkpt lat="45.83898" lon="4.70279">
        <ele>282.17426</ele>
        <time>2022-10-04T11:09:59.000Z</time>
      </trkpt>
      <trkpt lat="45.83895" lon="4.70268">
        <ele>281.94379</ele>
        <time>2022-10-04T11:10:00.000Z</time>
      </trkpt>
      <trkpt lat="45.83892" lon="4.70256">
        <ele>281.64401</ele>
        <time>2022-10-04T11:10:01.000Z</time>
      </trkpt>
      <trkpt lat="45.83888" lon="4.70246">
        <ele>281.36398</ele>
        <time>2022-10-04T11:10:02.000Z</time>
      </trkpt>
      <trkpt lat="45.83885" lon="4.70235">
        <ele>281.14328</ele>
        <time>2022-10-04T11:10:03.000Z</time>
      </trkpt>
      <trkpt lat="45.83882" lon="4.70224">
        <ele>280.96558</ele>
        <time>2022-10-04T11:10:04.000Z</time>
      </trkpt>
      <trkpt lat="45.8388" lon="4.70213">
        <ele>280.81879</ele>
        <time>2022-10-04T11:10:05.000Z</time>
      </trkpt>
      <trkpt lat="45.83879" lon="4.70203">
        <ele>280.62299</ele>
        <time>2022-10-04T11:10:06.000Z</time>
      </trkpt>
      <trkpt lat="45.83877" lon="4.70191">
        <ele>280.47784</ele>
        <time>2022-10-04T11:10:07.000Z</time>
      </trkpt>
      <trkpt lat="45.83876" lon="4.70181">
        <ele>280.31946</ele>
        <time>2022-10-04T11:10:08.000Z</time>
      </trkpt>
      <trkpt lat="45.83876" lon="4.70169">
        <ele>280.11304</ele>
        <time>2022-10-04T11:10:09.000Z</time>
      </trkpt>
      <trkpt lat="45.83878" lon="4.70158">
        <ele>279.97626</ele>
        <time>2022-10-04T11:10:10.000Z</time>
      </trkpt>
      <trkpt lat="45.83881" lon="4.70148">
        <ele>279.86282</ele>
        <time>2022-10-04T11:10:11.000Z</time>
      </trkpt>
      <trkpt lat="45.83885" lon="4.70137">
        <ele>279.80206</ele>
        <time>2022-10-04T11:10:12.000Z</time>
      </trkpt>
      <trkpt lat="45.83889" lon="4.70127">
        <ele>279.77499</ele>
        <time>2022-10-04T11:10:13.000Z</time>
      </trkpt>
      <trkpt lat="45.83894" lon="4.70117">
        <ele>279.7999</ele>
        <time>2022-10-04T11:10:14.000Z</time>
      </trkpt>
      <trkpt lat="45.83896" lon="4.70108">
        <ele>279.79767</ele>
        <time>2022-10-04T11:10:15.000Z</time>
      </trkpt>
      <trkpt lat="45.83901" lon="4.70099">
        <ele>279.76154</ele>
        <time>2022-10-04T11:10:16.000Z</time>
      </trkpt>
      <trkpt lat="45.83905" lon="4.70091">
        <ele>279.68597</ele>
        <time>2022-10-04T11:10:17.000Z</time>
      </trkpt>
      <trkpt lat="45.83911" lon="4.70081">
        <ele>279.64609</ele>
        <time>2022-10-04T11:10:18.000Z</time>
      </trkpt>
      <trkpt lat="45.83916" lon="4.70072">
        <ele>279.5762</ele>
        <time>2022-10-04T11:10:19.000Z</time>
      </trkpt>
      <trkpt lat="45.83921" lon="4.70065">
        <ele>279.47211</ele>
        <time>2022-10-04T11:10:20.000Z</time>
      </trkpt>
      <trkpt lat="45.83928" lon="4.70053">
        <ele>279.24945</ele>
        <time>2022-10-04T11:10:21.000Z</time>
      </trkpt>
      <trkpt lat="45.83933" lon="4.70046">
        <ele>279.01355</ele>
        <time>2022-10-04T11:10:22.000Z</time>
      </trkpt>
      <trkpt lat="45.83941" lon="4.70039">
        <ele>278.69592</ele>
        <time>2022-10-04T11:10:23.000Z</time>
      </trkpt>
      <trkpt lat="45.83948" lon="4.70034">
        <ele>278.27036</ele>
        <time>2022-10-04T11:10:24.000Z</time>
      </trkpt>
      <trkpt lat="45.83954" lon="4.70028">
        <ele>277.80328</ele>
        <time>2022-10-04T11:10:25.000Z</time>
      </trkpt>
      <trkpt lat="45.83961" lon="4.7002">
        <ele>277.35645</ele>
        <time>2022-10-04T11:10:26.000Z</time>
      </trkpt>
      <trkpt lat="45.83968" lon="4.70014">
        <ele>276.81754</ele>
        <time>2022-10-04T11:10:27.000Z</time>
      </trkpt>
      <trkpt lat="45.83974" lon="4.70009">
        <ele>276.22101</ele>
        <time>2022-10-04T11:10:28.000Z</time>
      </trkpt>
      <trkpt lat="45.8398" lon="4.70003">
        <ele>275.60419</ele>
        <time>2022-10-04T11:10:29.000Z</time>
      </trkpt>
      <trkpt lat="45.83988" lon="4.69998">
        <ele>274.94501</ele>
        <time>2022-10-04T11:10:30.000Z</time>
      </trkpt>
      <trkpt lat="45.83995" lon="4.69992">
        <ele>274.25055</ele>
        <time>2022-10-04T11:10:31.000Z</time>
      </trkpt>
      <trkpt lat="45.84002" lon="4.69986">
        <ele>273.45984</ele>
        <time>2022-10-04T11:10:32.000Z</time>
      </trkpt>
      <trkpt lat="45.84009" lon="4.69979">
        <ele>272.71683</ele>
        <time>2022-10-04T11:10:33.000Z</time>
      </trkpt>
      <trkpt lat="45.84016" lon="4.69974">
        <ele>271.94293</ele>
        <time>2022-10-04T11:10:34.000Z</time>
      </trkpt>
      <trkpt lat="45.84023" lon="4.69966">
        <ele>271.20145</ele>
        <time>2022-10-04T11:10:35.000Z</time>
      </trkpt>
      <trkpt lat="45.8403" lon="4.69961">
        <ele>270.52875</ele>
        <time>2022-10-04T11:10:36.000Z</time>
      </trkpt>
      <trkpt lat="45.84036" lon="4.69956">
        <ele>269.93045</ele>
        <time>2022-10-04T11:10:37.000Z</time>
      </trkpt>
      <trkpt lat="45.84043" lon="4.69952">
        <ele>269.34055</ele>
        <time>2022-10-04T11:10:38.000Z</time>
      </trkpt>
      <trkpt lat="45.8405" lon="4.69947">
        <ele>268.83575</ele>
        <time>2022-10-04T11:10:39.000Z</time>
      </trkpt>
      <trkpt lat="45.84056" lon="4.69942">
        <ele>268.28345</ele>
        <time>2022-10-04T11:10:40.000Z</time>
      </trkpt>
      <trkpt lat="45.84061" lon="4.69935">
        <ele>267.75464</ele>
        <time>2022-10-04T11:10:41.000Z</time>
      </trkpt>
      <trkpt lat="45.84067" lon="4.69929">
        <ele>267.18088</ele>
        <time>2022-10-04T11:10:42.000Z</time>
      </trkpt>
      <trkpt lat="45.84075" lon="4.69925">
        <ele>266.64029</ele>
        <time>2022-10-04T11:10:43.000Z</time>
      </trkpt>
      <trkpt lat="45.84082" lon="4.6992">
        <ele>266.16144</ele>
        <time>2022-10-04T11:10:44.000Z</time>
      </trkpt>
      <trkpt lat="45.8409" lon="4.69918">
        <ele>265.72137</ele>
        <time>2022-10-04T11:10:45.000Z</time>
      </trkpt>
      <trkpt lat="45.84097" lon="4.69913">
        <ele>265.25989</ele>
        <time>2022-10-04T11:10:46.000Z</time>
      </trkpt>
      <trkpt lat="45.84104" lon="4.69909">
        <ele>264.88449</ele>
        <time>2022-10-04T11:10:47.000Z</time>
      </trkpt>
      <trkpt lat="45.84111" lon="4.69905">
        <ele>264.56</ele>
        <time>2022-10-04T11:10:48.000Z</time>
      </trkpt>
      <trkpt lat="45.84119" lon="4.69899">
        <ele>264.3277</ele>
        <time>2022-10-04T11:10:49.000Z</time>
      </trkpt>
      <trkpt lat="45.84126" lon="4.69895">
        <ele>264.07605</ele>
        <time>2022-10-04T11:10:50.000Z</time>
      </trkpt>
      <trkpt lat="45.84133" lon="4.69892">
        <ele>263.85989</ele>
        <time>2022-10-04T11:10:51.000Z</time>
      </trkpt>
      <trkpt lat="45.8414" lon="4.69888">
        <ele>263.66605</ele>
        <time>2022-10-04T11:10:52.000Z</time>
      </trkpt>
      <trkpt lat="45.84146" lon="4.69889">
        <ele>263.30048</ele>
        <time>2022-10-04T11:10:53.000Z</time>
      </trkpt>
      <trkpt lat="45.84153" lon="4.69887">
        <ele>262.99631</ele>
        <time>2022-10-04T11:10:54.000Z</time>
      </trkpt>
      <trkpt lat="45.84161" lon="4.69886">
        <ele>262.72565</ele>
        <time>2022-10-04T11:10:55.000Z</time>
      </trkpt>
      <trkpt lat="45.8417" lon="4.69887">
        <ele>262.40085</ele>
        <time>2022-10-04T11:10:56.000Z</time>
      </trkpt>
      <trkpt lat="45.84177" lon="4.69884">
        <ele>262.04291</ele>
        <time>2022-10-04T11:10:57.000Z</time>
      </trkpt>
      <trkpt lat="45.84184" lon="4.69882">
        <ele>261.72223</ele>
        <time>2022-10-04T11:10:58.000Z</time>
      </trkpt>
      <trkpt lat="45.84192" lon="4.69878">
        <ele>261.40353</ele>
        <time>2022-10-04T11:10:59.000Z</time>
      </trkpt>
      <trkpt lat="45.84201" lon="4.69874">
        <ele>261.01346</ele>
        <time>2022-10-04T11:11:00.000Z</time>
      </trkpt>
      <trkpt lat="45.84209" lon="4.69871">
        <ele>260.77051</ele>
        <time>2022-10-04T11:11:01.000Z</time>
      </trkpt>
      <trkpt lat="45.84215" lon="4.69866">
        <ele>260.61295</ele>
        <time>2022-10-04T11:11:02.000Z</time>
      </trkpt>
      <trkpt lat="45.84221" lon="4.6986">
        <ele>260.46603</ele>
        <time>2022-10-04T11:11:03.000Z</time>
      </trkpt>
      <trkpt lat="45.84227" lon="4.69852">
        <ele>260.35065</ele>
        <time>2022-10-04T11:11:04.000Z</time>
      </trkpt>
      <trkpt lat="45.8423" lon="4.69843">
        <ele>260.15216</ele>
        <time>2022-10-04T11:11:05.000Z</time>
      </trkpt>
      <trkpt lat="45.84233" lon="4.69833">
        <ele>259.90652</ele>
        <time>2022-10-04T11:11:06.000Z</time>
      </trkpt>
      <trkpt lat="45.84234" lon="4.69823">
        <ele>259.64777</ele>
        <time>2022-10-04T11:11:07.000Z</time>
      </trkpt>
      <trkpt lat="45.84237" lon="4.69813">
        <ele>259.40906</ele>
        <time>2022-10-04T11:11:08.000Z</time>
      </trkpt>
      <trkpt lat="45.84242" lon="4.69806">
        <ele>259.15863</ele>
        <time>2022-10-04T11:11:09.000Z</time>
      </trkpt>
      <trkpt lat="45.8425" lon="4.69799">
        <ele>258.88605</ele>
        <time>2022-10-04T11:11:10.000Z</time>
      </trkpt>
      <trkpt lat="45.84259" lon="4.69798">
        <ele>258.5899</ele>
        <time>2022-10-04T11:11:11.000Z</time>
      </trkpt>
      <trkpt lat="45.84266" lon="4.69798">
        <ele>258.29803</ele>
        <time>2022-10-04T11:11:12.000Z</time>
      </trkpt>
      <trkpt lat="45.84271" lon="4.69804">
        <ele>257.99936</ele>
        <time>2022-10-04T11:11:13.000Z</time>
      </trkpt>
      <trkpt lat="45.84277" lon="4.69808">
        <ele>257.66968</ele>
        <time>2022-10-04T11:11:14.000Z</time>
      </trkpt>
      <trkpt lat="45.84285" lon="4.69814">
        <ele>257.37738</ele>
        <time>2022-10-04T11:11:15.000Z</time>
      </trkpt>
      <trkpt lat="45.84291" lon="4.69819">
        <ele>257.09027</ele>
        <time>2022-10-04T11:11:16.000Z</time>
      </trkpt>
      <trkpt lat="45.843" lon="4.69819">
        <ele>256.79968</ele>
        <time>2022-10-04T11:11:17.000Z</time>
      </trkpt>
      <trkpt lat="45.84308" lon="4.69819">
        <ele>256.52896</ele>
        <time>2022-10-04T11:11:18.000Z</time>
      </trkpt>
      <trkpt lat="45.84315" lon="4.69817">
        <ele>256.27509</ele>
        <time>2022-10-04T11:11:19.000Z</time>
      </trkpt>
      <trkpt lat="45.84323" lon="4.69816">
        <ele>256.16754</ele>
        <time>2022-10-04T11:11:20.000Z</time>
      </trkpt>
      <trkpt lat="45.84331" lon="4.69814">
        <ele>256.09579</ele>
        <time>2022-10-04T11:11:21.000Z</time>
      </trkpt>
      <trkpt lat="45.84337" lon="4.69809">
        <ele>255.97974</ele>
        <time>2022-10-04T11:11:22.000Z</time>
      </trkpt>
      <trkpt lat="45.84343" lon="4.69806">
        <ele>255.73335</ele>
        <time>2022-10-04T11:11:23.000Z</time>
      </trkpt>
      <trkpt lat="45.8435" lon="4.69799">
        <ele>255.52925</ele>
        <time>2022-10-04T11:11:24.000Z</time>
      </trkpt>
      <trkpt lat="45.84357" lon="4.69795">
        <ele>255.40146</ele>
        <time>2022-10-04T11:11:25.000Z</time>
      </trkpt>
      <trkpt lat="45.84362" lon="4.69788">
        <ele>255.33762</ele>
        <time>2022-10-04T11:11:26.000Z</time>
      </trkpt>
      <trkpt lat="45.84366" lon="4.69779">
        <ele>255.27295</ele>
        <time>2022-10-04T11:11:27.000Z</time>
      </trkpt>
      <trkpt lat="45.84372" lon="4.69778">
        <ele>255.07076</ele>
        <time>2022-10-04T11:11:28.000Z</time>
      </trkpt>
      <trkpt lat="45.84379" lon="4.69772">
        <ele>254.77422</ele>
        <time>2022-10-04T11:11:29.000Z</time>
      </trkpt>
      <trkpt lat="45.84387" lon="4.69769">
        <ele>254.50105</ele>
        <time>2022-10-04T11:11:30.000Z</time>
      </trkpt>
      <trkpt lat="45.84397" lon="4.69766">
        <ele>254.33064</ele>
        <time>2022-10-04T11:11:31.000Z</time>
      </trkpt>
      <trkpt lat="45.84405" lon="4.69764">
        <ele>254.1106</ele>
        <time>2022-10-04T11:11:32.000Z</time>
      </trkpt>
      <trkpt lat="45.84412" lon="4.69763">
        <ele>253.98015</ele>
        <time>2022-10-04T11:11:33.000Z</time>
      </trkpt>
      <trkpt lat="45.84421" lon="4.6976">
        <ele>253.79831</ele>
        <time>2022-10-04T11:11:34.000Z</time>
      </trkpt>
      <trkpt lat="45.84431" lon="4.6976">
        <ele>253.52596</ele>
        <time>2022-10-04T11:11:35.000Z</time>
      </trkpt>
      <trkpt lat="45.8444" lon="4.69759">
        <ele>253.24707</ele>
        <time>2022-10-04T11:11:36.000Z</time>
      </trkpt>
      <trkpt lat="45.84447" lon="4.69759">
        <ele>252.9073</ele>
        <time>2022-10-04T11:11:37.000Z</time>
      </trkpt>
      <trkpt lat="45.84456" lon="4.69758">
        <ele>252.43999</ele>
        <time>2022-10-04T11:11:38.000Z</time>
      </trkpt>
      <trkpt lat="45.84465" lon="4.69756">
        <ele>251.8615</ele>
        <time>2022-10-04T11:11:39.000Z</time>
      </trkpt>
      <trkpt lat="45.84472" lon="4.69755">
        <ele>251.2498</ele>
        <time>2022-10-04T11:11:40.000Z</time>
      </trkpt>
      <trkpt lat="45.8448" lon="4.69752">
        <ele>250.52605</ele>
        <time>2022-10-04T11:11:41.000Z</time>
      </trkpt>
      <trkpt lat="45.84488" lon="4.69752">
        <ele>249.75867</ele>
        <time>2022-10-04T11:11:42.000Z</time>
      </trkpt>
      <trkpt lat="45.84496" lon="4.69751">
        <ele>249.07893</ele>
        <time>2022-10-04T11:11:43.000Z</time>
      </trkpt>
      <trkpt lat="45.84505" lon="4.6975">
        <ele>248.35608</ele>
        <time>2022-10-04T11:11:44.000Z</time>
      </trkpt>
      <trkpt lat="45.84513" lon="4.69749">
        <ele>247.61836</ele>
        <time>2022-10-04T11:11:45.000Z</time>
      </trkpt>
      <trkpt lat="45.84521" lon="4.69748">
        <ele>246.82585</ele>
        <time>2022-10-04T11:11:46.000Z</time>
      </trkpt>
      <trkpt lat="45.8453" lon="4.69746">
        <ele>245.93575</ele>
        <time>2022-10-04T11:11:47.000Z</time>
      </trkpt>
      <trkpt lat="45.84537" lon="4.69743">
        <ele>245.18735</ele>
        <time>2022-10-04T11:11:48.000Z</time>
      </trkpt>
      <trkpt lat="45.84545" lon="4.69743">
        <ele>244.45203</ele>
        <time>2022-10-04T11:11:49.000Z</time>
      </trkpt>
      <trkpt lat="45.84553" lon="4.69742">
        <ele>243.75674</ele>
        <time>2022-10-04T11:11:50.000Z</time>
      </trkpt>
      <trkpt lat="45.84563" lon="4.69743">
        <ele>242.98576</ele>
        <time>2022-10-04T11:11:51.000Z</time>
      </trkpt>
      <trkpt lat="45.84571" lon="4.69741">
        <ele>242.28625</ele>
        <time>2022-10-04T11:11:52.000Z</time>
      </trkpt>
      <trkpt lat="45.8458" lon="4.6974">
        <ele>241.65698</ele>
        <time>2022-10-04T11:11:53.000Z</time>
      </trkpt>
      <trkpt lat="45.84589" lon="4.69741">
        <ele>241.0997</ele>
        <time>2022-10-04T11:11:54.000Z</time>
      </trkpt>
      <trkpt lat="45.84599" lon="4.6974">
        <ele>240.57829</ele>
        <time>2022-10-04T11:11:55.000Z</time>
      </trkpt>
      <trkpt lat="45.84608" lon="4.69739">
        <ele>240.09392</ele>
        <time>2022-10-04T11:11:56.000Z</time>
      </trkpt>
      <trkpt lat="45.84619" lon="4.69738">
        <ele>239.64182</ele>
        <time>2022-10-04T11:11:57.000Z</time>
      </trkpt>
      <trkpt lat="45.84631" lon="4.69736">
        <ele>239.17969</ele>
        <time>2022-10-04T11:11:58.000Z</time>
      </trkpt>
      <trkpt lat="45.84639" lon="4.69738">
        <ele>238.6915</ele>
        <time>2022-10-04T11:11:59.000Z</time>
      </trkpt>
      <trkpt lat="45.84649" lon="4.69738">
        <ele>238.28024</ele>
        <time>2022-10-04T11:12:00.000Z</time>
      </trkpt>
      <trkpt lat="45.8466" lon="4.69737">
        <ele>237.93954</ele>
        <time>2022-10-04T11:12:01.000Z</time>
      </trkpt>
      <trkpt lat="45.84663" lon="4.69739">
        <ele>237.51187</ele>
        <time>2022-10-04T11:12:02.000Z</time>
      </trkpt>
      <trkpt lat="45.84671" lon="4.6974">
        <ele>237.14783</ele>
        <time>2022-10-04T11:12:03.000Z</time>
      </trkpt>
      <trkpt lat="45.84678" lon="4.69738">
        <ele>236.72568</ele>
        <time>2022-10-04T11:12:04.000Z</time>
      </trkpt>
      <trkpt lat="45.84688" lon="4.69738">
        <ele>236.40457</ele>
        <time>2022-10-04T11:12:05.000Z</time>
      </trkpt>
      <trkpt lat="45.84695" lon="4.69741">
        <ele>236.20821</ele>
        <time>2022-10-04T11:12:06.000Z</time>
      </trkpt>
      <trkpt lat="45.84704" lon="4.69741">
        <ele>236.15878</ele>
        <time>2022-10-04T11:12:07.000Z</time>
      </trkpt>
      <trkpt lat="45.84713" lon="4.69738">
        <ele>236.19913</ele>
        <time>2022-10-04T11:12:08.000Z</time>
      </trkpt>
      <trkpt lat="45.84722" lon="4.69738">
        <ele>236.17793</ele>
        <time>2022-10-04T11:12:09.000Z</time>
      </trkpt>
      <trkpt lat="45.84729" lon="4.69736">
        <ele>236.18445</ele>
        <time>2022-10-04T11:12:10.000Z</time>
      </trkpt>
      <trkpt lat="45.84735" lon="4.69731">
        <ele>236.26595</ele>
        <time>2022-10-04T11:12:11.000Z</time>
      </trkpt>
      <trkpt lat="45.84742" lon="4.69723">
        <ele>236.32146</ele>
        <time>2022-10-04T11:12:12.000Z</time>
      </trkpt>
      <trkpt lat="45.84745" lon="4.69715">
        <ele>236.32718</ele>
        <time>2022-10-04T11:12:13.000Z</time>
      </trkpt>
      <trkpt lat="45.84748" lon="4.69707">
        <ele>236.23149</ele>
        <time>2022-10-04T11:12:14.000Z</time>
      </trkpt>
      <trkpt lat="45.84754" lon="4.69696">
        <ele>236.19931</ele>
        <time>2022-10-04T11:12:15.000Z</time>
      </trkpt>
      <trkpt lat="45.84761" lon="4.69685">
        <ele>236.18135</ele>
        <time>2022-10-04T11:12:16.000Z</time>
      </trkpt>
      <trkpt lat="45.84765" lon="4.69673">
        <ele>236.22537</ele>
        <time>2022-10-04T11:12:17.000Z</time>
      </trkpt>
      <trkpt lat="45.84769" lon="4.69663">
        <ele>236.41939</ele>
        <time>2022-10-04T11:12:18.000Z</time>
      </trkpt>
      <trkpt lat="45.84775" lon="4.69653">
        <ele>236.75757</ele>
        <time>2022-10-04T11:12:19.000Z</time>
      </trkpt>
      <trkpt lat="45.84777" lon="4.69642">
        <ele>236.97102</ele>
        <time>2022-10-04T11:12:20.000Z</time>
      </trkpt>
      <trkpt lat="45.84783" lon="4.6963">
        <ele>237.04895</ele>
        <time>2022-10-04T11:12:21.000Z</time>
      </trkpt>
      <trkpt lat="45.84788" lon="4.6962">
        <ele>237.18594</ele>
        <time>2022-10-04T11:12:22.000Z</time>
      </trkpt>
      <trkpt lat="45.84793" lon="4.69611">
        <ele>237.31075</ele>
        <time>2022-10-04T11:12:23.000Z</time>
      </trkpt>
      <trkpt lat="45.84803" lon="4.69614">
        <ele>237.48389</ele>
        <time>2022-10-04T11:12:24.000Z</time>
      </trkpt>
      <trkpt lat="45.84809" lon="4.69614">
        <ele>237.44829</ele>
        <time>2022-10-04T11:12:25.000Z</time>
      </trkpt>
      <trkpt lat="45.84817" lon="4.69614">
        <ele>237.26225</ele>
        <time>2022-10-04T11:12:26.000Z</time>
      </trkpt>
      <trkpt lat="45.84826" lon="4.69613">
        <ele>236.95879</ele>
        <time>2022-10-04T11:12:27.000Z</time>
      </trkpt>
      <trkpt lat="45.84835" lon="4.69612">
        <ele>236.54109</ele>
        <time>2022-10-04T11:12:28.000Z</time>
      </trkpt>
      <trkpt lat="45.84843" lon="4.6961">
        <ele>236.24155</ele>
        <time>2022-10-04T11:12:29.000Z</time>
      </trkpt>
      <trkpt lat="45.84852" lon="4.69606">
        <ele>235.94695</ele>
        <time>2022-10-04T11:12:30.000Z</time>
      </trkpt>
      <trkpt lat="45.84861" lon="4.69605">
        <ele>235.54916</ele>
        <time>2022-10-04T11:12:31.000Z</time>
      </trkpt>
      <trkpt lat="45.84869" lon="4.69598">
        <ele>235.12704</ele>
        <time>2022-10-04T11:12:32.000Z</time>
      </trkpt>
      <trkpt lat="45.84877" lon="4.69594">
        <ele>234.74956</ele>
        <time>2022-10-04T11:12:33.000Z</time>
      </trkpt>
      <trkpt lat="45.84886" lon="4.69586">
        <ele>234.49626</ele>
        <time>2022-10-04T11:12:34.000Z</time>
      </trkpt>
      <trkpt lat="45.8489" lon="4.69576">
        <ele>234.11423</ele>
        <time>2022-10-04T11:12:35.000Z</time>
      </trkpt>
      <trkpt lat="45.84896" lon="4.69567">
        <ele>233.67329</ele>
        <time>2022-10-04T11:12:36.000Z</time>
      </trkpt>
      <trkpt lat="45.84903" lon="4.69559">
        <ele>233.14693</ele>
        <time>2022-10-04T11:12:37.000Z</time>
      </trkpt>
      <trkpt lat="45.84908" lon="4.69549">
        <ele>232.53833</ele>
        <time>2022-10-04T11:12:38.000Z</time>
      </trkpt>
      <trkpt lat="45.84914" lon="4.69541">
        <ele>231.86845</ele>
        <time>2022-10-04T11:12:39.000Z</time>
      </trkpt>
      <trkpt lat="45.84921" lon="4.69533">
        <ele>231.28447</ele>
        <time>2022-10-04T11:12:40.000Z</time>
      </trkpt>
      <trkpt lat="45.84927" lon="4.69524">
        <ele>230.84485</ele>
        <time>2022-10-04T11:12:41.000Z</time>
      </trkpt>
      <trkpt lat="45.84932" lon="4.69513">
        <ele>230.39851</ele>
        <time>2022-10-04T11:12:42.000Z</time>
      </trkpt>
      <trkpt lat="45.84937" lon="4.69503">
        <ele>229.96895</ele>
        <time>2022-10-04T11:12:43.000Z</time>
      </trkpt>
      <trkpt lat="45.84942" lon="4.69493">
        <ele>229.56425</ele>
        <time>2022-10-04T11:12:44.000Z</time>
      </trkpt>
      <trkpt lat="45.84948" lon="4.69487">
        <ele>229.3168</ele>
        <time>2022-10-04T11:12:45.000Z</time>
      </trkpt>
      <trkpt lat="45.84952" lon="4.69476">
        <ele>229.12222</ele>
        <time>2022-10-04T11:12:46.000Z</time>
      </trkpt>
      <trkpt lat="45.84957" lon="4.69467">
        <ele>228.89099</ele>
        <time>2022-10-04T11:12:47.000Z</time>
      </trkpt>
      <trkpt lat="45.84962" lon="4.69457">
        <ele>228.6165</ele>
        <time>2022-10-04T11:12:48.000Z</time>
      </trkpt>
      <trkpt lat="45.84966" lon="4.69446">
        <ele>228.29089</ele>
        <time>2022-10-04T11:12:49.000Z</time>
      </trkpt>
      <trkpt lat="45.84971" lon="4.69436">
        <ele>227.95535</ele>
        <time>2022-10-04T11:12:50.000Z</time>
      </trkpt>
      <trkpt lat="45.84976" lon="4.69426">
        <ele>227.63936</ele>
        <time>2022-10-04T11:12:51.000Z</time>
      </trkpt>
      <trkpt lat="45.84981" lon="4.69416">
        <ele>227.27713</ele>
        <time>2022-10-04T11:12:52.000Z</time>
      </trkpt>
      <trkpt lat="45.84986" lon="4.69404">
        <ele>226.88416</ele>
        <time>2022-10-04T11:12:53.000Z</time>
      </trkpt>
      <trkpt lat="45.84989" lon="4.69394">
        <ele>226.39835</ele>
        <time>2022-10-04T11:12:54.000Z</time>
      </trkpt>
      <trkpt lat="45.84993" lon="4.69385">
        <ele>225.88071</ele>
        <time>2022-10-04T11:12:55.000Z</time>
      </trkpt>
      <trkpt lat="45.84997" lon="4.69375">
        <ele>225.27222</ele>
        <time>2022-10-04T11:12:56.000Z</time>
      </trkpt>
      <trkpt lat="45.85001" lon="4.69365">
        <ele>224.7251</ele>
        <time>2022-10-04T11:12:57.000Z</time>
      </trkpt>
      <trkpt lat="45.85004" lon="4.69355">
        <ele>224.16147</ele>
        <time>2022-10-04T11:12:58.000Z</time>
      </trkpt>
      <trkpt lat="45.85007" lon="4.69341">
        <ele>223.60617</ele>
        <time>2022-10-04T11:12:59.000Z</time>
      </trkpt>
      <trkpt lat="45.85007" lon="4.69329">
        <ele>223.07027</ele>
        <time>2022-10-04T11:13:00.000Z</time>
      </trkpt>
      <trkpt lat="45.8501" lon="4.69316">
        <ele>222.47168</ele>
        <time>2022-10-04T11:13:01.000Z</time>
      </trkpt>
      <trkpt lat="45.8501" lon="4.69303">
        <ele>222.00652</ele>
        <time>2022-10-04T11:13:02.000Z</time>
      </trkpt>
      <trkpt lat="45.85009" lon="4.69291">
        <ele>221.49292</ele>
        <time>2022-10-04T11:13:03.000Z</time>
      </trkpt>
      <trkpt lat="45.85008" lon="4.69278">
        <ele>220.97778</ele>
        <time>2022-10-04T11:13:04.000Z</time>
      </trkpt>
      <trkpt lat="45.85007" lon="4.69265">
        <ele>220.42441</ele>
        <time>2022-10-04T11:13:05.000Z</time>
      </trkpt>
      <trkpt lat="45.85005" lon="4.69252">
        <ele>219.95706</ele>
        <time>2022-10-04T11:13:06.000Z</time>
      </trkpt>
      <trkpt lat="45.85003" lon="4.69239">
        <ele>219.54617</ele>
        <time>2022-10-04T11:13:07.000Z</time>
      </trkpt>
      <trkpt lat="45.84999" lon="4.69228">
        <ele>219.22974</ele>
        <time>2022-10-04T11:13:08.000Z</time>
      </trkpt>
      <trkpt lat="45.84996" lon="4.69217">
        <ele>218.88335</ele>
        <time>2022-10-04T11:13:09.000Z</time>
      </trkpt>
      <trkpt lat="45.84993" lon="4.69205">
        <ele>218.59415</ele>
        <time>2022-10-04T11:13:10.000Z</time>
      </trkpt>
      <trkpt lat="45.84988" lon="4.69195">
        <ele>218.33508</ele>
        <time>2022-10-04T11:13:11.000Z</time>
      </trkpt>
      <trkpt lat="45.84984" lon="4.69183">
        <ele>218.17278</ele>
        <time>2022-10-04T11:13:12.000Z</time>
      </trkpt>
      <trkpt lat="45.8498" lon="4.69171">
        <ele>218.01389</ele>
        <time>2022-10-04T11:13:13.000Z</time>
      </trkpt>
      <trkpt lat="45.84977" lon="4.6916">
        <ele>217.91463</ele>
        <time>2022-10-04T11:13:14.000Z</time>
      </trkpt>
      <trkpt lat="45.84974" lon="4.69147">
        <ele>217.87338</ele>
        <time>2022-10-04T11:13:15.000Z</time>
      </trkpt>
      <trkpt lat="45.8497" lon="4.69136">
        <ele>217.98103</ele>
        <time>2022-10-04T11:13:16.000Z</time>
      </trkpt>
      <trkpt lat="45.84967" lon="4.69124">
        <ele>218.11877</ele>
        <time>2022-10-04T11:13:17.000Z</time>
      </trkpt>
      <trkpt lat="45.84964" lon="4.69112">
        <ele>218.32535</ele>
        <time>2022-10-04T11:13:18.000Z</time>
      </trkpt>
      <trkpt lat="45.84961" lon="4.69103">
        <ele>218.54211</ele>
        <time>2022-10-04T11:13:19.000Z</time>
      </trkpt>
      <trkpt lat="45.84956" lon="4.69092">
        <ele>218.73323</ele>
        <time>2022-10-04T11:13:20.000Z</time>
      </trkpt>
      <trkpt lat="45.84953" lon="4.69082">
        <ele>218.95251</ele>
        <time>2022-10-04T11:13:21.000Z</time>
      </trkpt>
      <trkpt lat="45.84949" lon="4.69069">
        <ele>219.11819</ele>
        <time>2022-10-04T11:13:22.000Z</time>
      </trkpt>
      <trkpt lat="45.84946" lon="4.69057">
        <ele>219.23763</ele>
        <time>2022-10-04T11:13:23.000Z</time>
      </trkpt>
      <trkpt lat="45.8494" lon="4.69047">
        <ele>219.39612</ele>
        <time>2022-10-04T11:13:24.000Z</time>
      </trkpt>
      <trkpt lat="45.84937" lon="4.69035">
        <ele>219.57413</ele>
        <time>2022-10-04T11:13:25.000Z</time>
      </trkpt>
      <trkpt lat="45.84933" lon="4.69023">
        <ele>219.67322</ele>
        <time>2022-10-04T11:13:26.000Z</time>
      </trkpt>
      <trkpt lat="45.84931" lon="4.69011">
        <ele>219.67871</ele>
        <time>2022-10-04T11:13:27.000Z</time>
      </trkpt>
      <trkpt lat="45.84928" lon="4.68999">
        <ele>219.62163</ele>
        <time>2022-10-04T11:13:28.000Z</time>
      </trkpt>
      <trkpt lat="45.84924" lon="4.68987">
        <ele>219.59904</ele>
        <time>2022-10-04T11:13:29.000Z</time>
      </trkpt>
      <trkpt lat="45.84922" lon="4.68975">
        <ele>219.44873</ele>
        <time>2022-10-04T11:13:30.000Z</time>
      </trkpt>
      <trkpt lat="45.84919" lon="4.68963">
        <ele>219.26241</ele>
        <time>2022-10-04T11:13:31.000Z</time>
      </trkpt>
      <trkpt lat="45.84916" lon="4.68951">
        <ele>219.02605</ele>
        <time>2022-10-04T11:13:32.000Z</time>
      </trkpt>
      <trkpt lat="45.84911" lon="4.6894">
        <ele>218.75461</ele>
        <time>2022-10-04T11:13:33.000Z</time>
      </trkpt>
      <trkpt lat="45.84908" lon="4.68929">
        <ele>218.47173</ele>
        <time>2022-10-04T11:13:34.000Z</time>
      </trkpt>
      <trkpt lat="45.84906" lon="4.68917">
        <ele>218.25168</ele>
        <time>2022-10-04T11:13:35.000Z</time>
      </trkpt>
      <trkpt lat="45.84903" lon="4.68908">
        <ele>218.04568</ele>
        <time>2022-10-04T11:13:36.000Z</time>
      </trkpt>
      <trkpt lat="45.84901" lon="4.68901">
        <ele>217.87015</ele>
        <time>2022-10-04T11:13:37.000Z</time>
      </trkpt>
      <trkpt lat="45.84904" lon="4.68893">
        <ele>217.65439</ele>
        <time>2022-10-04T11:13:38.000Z</time>
      </trkpt>
      <trkpt lat="45.84906" lon="4.68888">
        <ele>217.43051</ele>
        <time>2022-10-04T11:13:39.000Z</time>
      </trkpt>
      <trkpt lat="45.84908" lon="4.68882">
        <ele>217.16011</ele>
        <time>2022-10-04T11:13:40.000Z</time>
      </trkpt>
      <trkpt lat="45.8491" lon="4.68877">
        <ele>216.87527</ele>
        <time>2022-10-04T11:13:41.000Z</time>
      </trkpt>
      <trkpt lat="45.84914" lon="4.68873">
        <ele>216.582</ele>
        <time>2022-10-04T11:13:42.000Z</time>
      </trkpt>
      <trkpt lat="45.84919" lon="4.68869">
        <ele>216.37766</ele>
        <time>2022-10-04T11:13:43.000Z</time>
      </trkpt>
      <trkpt lat="45.84924" lon="4.68864">
        <ele>216.11777</ele>
        <time>2022-10-04T11:13:44.000Z</time>
      </trkpt>
      <trkpt lat="45.84928" lon="4.68861">
        <ele>215.80574</ele>
        <time>2022-10-04T11:13:45.000Z</time>
      </trkpt>
      <trkpt lat="45.84933" lon="4.68857">
        <ele>215.5052</ele>
        <time>2022-10-04T11:13:46.000Z</time>
      </trkpt>
      <trkpt lat="45.84938" lon="4.68852">
        <ele>215.31955</ele>
        <time>2022-10-04T11:13:47.000Z</time>
      </trkpt>
      <trkpt lat="45.84943" lon="4.68849">
        <ele>215.17253</ele>
        <time>2022-10-04T11:13:48.000Z</time>
      </trkpt>
      <trkpt lat="45.84947" lon="4.68845">
        <ele>215.09261</ele>
        <time>2022-10-04T11:13:49.000Z</time>
      </trkpt>
      <trkpt lat="45.84952" lon="4.68841">
        <ele>215.1171</ele>
        <time>2022-10-04T11:13:50.000Z</time>
      </trkpt>
      <trkpt lat="45.84957" lon="4.68837">
        <ele>215.1792</ele>
        <time>2022-10-04T11:13:51.000Z</time>
      </trkpt>
      <trkpt lat="45.84962" lon="4.68833">
        <ele>215.27124</ele>
        <time>2022-10-04T11:13:52.000Z</time>
      </trkpt>
      <trkpt lat="45.84967" lon="4.68827">
        <ele>215.39905</ele>
        <time>2022-10-04T11:13:53.000Z</time>
      </trkpt>
      <trkpt lat="45.84971" lon="4.68823">
        <ele>215.4519</ele>
        <time>2022-10-04T11:13:54.000Z</time>
      </trkpt>
      <trkpt lat="45.84976" lon="4.68817">
        <ele>215.46545</ele>
        <time>2022-10-04T11:13:55.000Z</time>
      </trkpt>
      <trkpt lat="45.84981" lon="4.68812">
        <ele>215.48991</ele>
        <time>2022-10-04T11:13:56.000Z</time>
      </trkpt>
      <trkpt lat="45.84985" lon="4.68805">
        <ele>215.43498</ele>
        <time>2022-10-04T11:13:57.000Z</time>
      </trkpt>
      <trkpt lat="45.84989" lon="4.68799">
        <ele>215.3652</ele>
        <time>2022-10-04T11:13:58.000Z</time>
      </trkpt>
      <trkpt lat="45.84993" lon="4.68792">
        <ele>215.28206</ele>
        <time>2022-10-04T11:13:59.000Z</time>
      </trkpt>
      <trkpt lat="45.84997" lon="4.68786">
        <ele>215.23091</ele>
        <time>2022-10-04T11:14:00.000Z</time>
      </trkpt>
      <trkpt lat="45.85002" lon="4.68779">
        <ele>215.22221</ele>
        <time>2022-10-04T11:14:01.000Z</time>
      </trkpt>
      <trkpt lat="45.85005" lon="4.68772">
        <ele>215.21452</ele>
        <time>2022-10-04T11:14:02.000Z</time>
      </trkpt>
      <trkpt lat="45.85009" lon="4.68766">
        <ele>215.18633</ele>
        <time>2022-10-04T11:14:03.000Z</time>
      </trkpt>
      <trkpt lat="45.85013" lon="4.68758">
        <ele>215.17363</ele>
        <time>2022-10-04T11:14:04.000Z</time>
      </trkpt>
      <trkpt lat="45.85016" lon="4.68752">
        <ele>215.20528</ele>
        <time>2022-10-04T11:14:05.000Z</time>
      </trkpt>
      <trkpt lat="45.85019" lon="4.68745">
        <ele>215.18599</ele>
        <time>2022-10-04T11:14:06.000Z</time>
      </trkpt>
      <trkpt lat="45.85022" lon="4.68738">
        <ele>215.17758</ele>
        <time>2022-10-04T11:14:07.000Z</time>
      </trkpt>
      <trkpt lat="45.85025" lon="4.68731">
        <ele>215.16171</ele>
        <time>2022-10-04T11:14:08.000Z</time>
      </trkpt>
      <trkpt lat="45.85029" lon="4.68725">
        <ele>215.10889</ele>
        <time>2022-10-04T11:14:09.000Z</time>
      </trkpt>
      <trkpt lat="45.85032" lon="4.68718">
        <ele>215.01164</ele>
        <time>2022-10-04T11:14:10.000Z</time>
      </trkpt>
      <trkpt lat="45.85035" lon="4.68712">
        <ele>214.91397</ele>
        <time>2022-10-04T11:14:11.000Z</time>
      </trkpt>
      <trkpt lat="45.85038" lon="4.68705">
        <ele>214.80074</ele>
        <time>2022-10-04T11:14:12.000Z</time>
      </trkpt>
      <trkpt lat="45.85041" lon="4.68698">
        <ele>214.73178</ele>
        <time>2022-10-04T11:14:13.000Z</time>
      </trkpt>
      <trkpt lat="45.85044" lon="4.6869">
        <ele>214.74271</ele>
        <time>2022-10-04T11:14:14.000Z</time>
      </trkpt>
      <trkpt lat="45.85044" lon="4.68687">
        <ele>214.66885</ele>
        <time>2022-10-04T11:14:15.000Z</time>
      </trkpt>
      <trkpt lat="45.85046" lon="4.68678">
        <ele>214.48982</ele>
        <time>2022-10-04T11:14:16.000Z</time>
      </trkpt>
      <trkpt lat="45.8505" lon="4.68671">
        <ele>214.38004</ele>
        <time>2022-10-04T11:14:17.000Z</time>
      </trkpt>
      <trkpt lat="45.85051" lon="4.68664">
        <ele>214.26688</ele>
        <time>2022-10-04T11:14:18.000Z</time>
      </trkpt>
      <trkpt lat="45.85052" lon="4.68657">
        <ele>214.13052</ele>
        <time>2022-10-04T11:14:19.000Z</time>
      </trkpt>
      <trkpt lat="45.85054" lon="4.68651">
        <ele>213.99753</ele>
        <time>2022-10-04T11:14:20.000Z</time>
      </trkpt>
      <trkpt lat="45.85055" lon="4.68645">
        <ele>213.89568</ele>
        <time>2022-10-04T11:14:21.000Z</time>
      </trkpt>
      <trkpt lat="45.85059" lon="4.68638">
        <ele>213.77487</ele>
        <time>2022-10-04T11:14:22.000Z</time>
      </trkpt>
      <trkpt lat="45.85063" lon="4.68633">
        <ele>213.58809</ele>
        <time>2022-10-04T11:14:23.000Z</time>
      </trkpt>
      <trkpt lat="45.85066" lon="4.68625">
        <ele>213.48059</ele>
        <time>2022-10-04T11:14:24.000Z</time>
      </trkpt>
      <trkpt lat="45.85068" lon="4.68621">
        <ele>213.35286</ele>
        <time>2022-10-04T11:14:25.000Z</time>
      </trkpt>
      <trkpt lat="45.85071" lon="4.68614">
        <ele>213.27866</ele>
        <time>2022-10-04T11:14:26.000Z</time>
      </trkpt>
      <trkpt lat="45.85073" lon="4.68607">
        <ele>213.23872</ele>
        <time>2022-10-04T11:14:27.000Z</time>
      </trkpt>
      <trkpt lat="45.85076" lon="4.686">
        <ele>213.2076</ele>
        <time>2022-10-04T11:14:28.000Z</time>
      </trkpt>
      <trkpt lat="45.85079" lon="4.68591">
        <ele>213.19893</ele>
        <time>2022-10-04T11:14:29.000Z</time>
      </trkpt>
      <trkpt lat="45.85081" lon="4.68584">
        <ele>213.16878</ele>
        <time>2022-10-04T11:14:30.000Z</time>
      </trkpt>
      <trkpt lat="45.85084" lon="4.68579">
        <ele>213.14597</ele>
        <time>2022-10-04T11:14:31.000Z</time>
      </trkpt>
      <trkpt lat="45.85085" lon="4.68573">
        <ele>213.1637</ele>
        <time>2022-10-04T11:14:32.000Z</time>
      </trkpt>
      <trkpt lat="45.85089" lon="4.68567">
        <ele>213.10742</ele>
        <time>2022-10-04T11:14:33.000Z</time>
      </trkpt>
      <trkpt lat="45.85093" lon="4.68558">
        <ele>213.06741</ele>
        <time>2022-10-04T11:14:34.000Z</time>
      </trkpt>
      <trkpt lat="45.85095" lon="4.68552">
        <ele>213.09387</ele>
        <time>2022-10-04T11:14:35.000Z</time>
      </trkpt>
      <trkpt lat="45.85097" lon="4.68548">
        <ele>213.20023</ele>
        <time>2022-10-04T11:14:36.000Z</time>
      </trkpt>
      <trkpt lat="45.851" lon="4.68543">
        <ele>213.21249</ele>
        <time>2022-10-04T11:14:37.000Z</time>
      </trkpt>
      <trkpt lat="45.85103" lon="4.68538">
        <ele>213.2043</ele>
        <time>2022-10-04T11:14:38.000Z</time>
      </trkpt>
      <trkpt lat="45.85108" lon="4.68531">
        <ele>213.10925</ele>
        <time>2022-10-04T11:14:39.000Z</time>
      </trkpt>
      <trkpt lat="45.85111" lon="4.68524">
        <ele>212.98543</ele>
        <time>2022-10-04T11:14:40.000Z</time>
      </trkpt>
      <trkpt lat="45.85116" lon="4.68516">
        <ele>212.79861</ele>
        <time>2022-10-04T11:14:41.000Z</time>
      </trkpt>
      <trkpt lat="45.85119" lon="4.68509">
        <ele>212.63716</ele>
        <time>2022-10-04T11:14:42.000Z</time>
      </trkpt>
      <trkpt lat="45.85123" lon="4.68502">
        <ele>212.54048</ele>
        <time>2022-10-04T11:14:43.000Z</time>
      </trkpt>
      <trkpt lat="45.85127" lon="4.68496">
        <ele>212.3533</ele>
        <time>2022-10-04T11:14:44.000Z</time>
      </trkpt>
      <trkpt lat="45.85131" lon="4.68487">
        <ele>212.15244</ele>
        <time>2022-10-04T11:14:45.000Z</time>
      </trkpt>
      <trkpt lat="45.85135" lon="4.68481">
        <ele>211.92769</ele>
        <time>2022-10-04T11:14:46.000Z</time>
      </trkpt>
      <trkpt lat="45.85139" lon="4.68475">
        <ele>211.71475</ele>
        <time>2022-10-04T11:14:47.000Z</time>
      </trkpt>
      <trkpt lat="45.85142" lon="4.68467">
        <ele>211.48288</ele>
        <time>2022-10-04T11:14:48.000Z</time>
      </trkpt>
      <trkpt lat="45.85147" lon="4.6846">
        <ele>211.14275</ele>
        <time>2022-10-04T11:14:49.000Z</time>
      </trkpt>
      <trkpt lat="45.85151" lon="4.68453">
        <ele>210.84512</ele>
        <time>2022-10-04T11:14:50.000Z</time>
      </trkpt>
      <trkpt lat="45.85154" lon="4.68446">
        <ele>210.51375</ele>
        <time>2022-10-04T11:14:51.000Z</time>
      </trkpt>
      <trkpt lat="45.85158" lon="4.68439">
        <ele>210.17793</ele>
        <time>2022-10-04T11:14:52.000Z</time>
      </trkpt>
      <trkpt lat="45.85161" lon="4.68434">
        <ele>209.85583</ele>
        <time>2022-10-04T11:14:53.000Z</time>
      </trkpt>
      <trkpt lat="45.85165" lon="4.68428">
        <ele>209.50443</ele>
        <time>2022-10-04T11:14:54.000Z</time>
      </trkpt>
      <trkpt lat="45.85169" lon="4.68423">
        <ele>209.15239</ele>
        <time>2022-10-04T11:14:55.000Z</time>
      </trkpt>
      <trkpt lat="45.85173" lon="4.6842">
        <ele>208.77734</ele>
        <time>2022-10-04T11:14:56.000Z</time>
      </trkpt>
      <trkpt lat="45.85177" lon="4.68413">
        <ele>208.58292</ele>
        <time>2022-10-04T11:14:57.000Z</time>
      </trkpt>
      <trkpt lat="45.8518" lon="4.68406">
        <ele>208.47855</ele>
        <time>2022-10-04T11:14:58.000Z</time>
      </trkpt>
      <trkpt lat="45.85185" lon="4.68401">
        <ele>208.4678</ele>
        <time>2022-10-04T11:14:59.000Z</time>
      </trkpt>
      <trkpt lat="45.85189" lon="4.68394">
        <ele>208.48589</ele>
        <time>2022-10-04T11:15:00.000Z</time>
      </trkpt>
      <trkpt lat="45.85192" lon="4.68387">
        <ele>208.56079</ele>
        <time>2022-10-04T11:15:01.000Z</time>
      </trkpt>
      <trkpt lat="45.85197" lon="4.68381">
        <ele>208.63782</ele>
        <time>2022-10-04T11:15:02.000Z</time>
      </trkpt>
      <trkpt lat="45.85201" lon="4.68372">
        <ele>208.70467</ele>
        <time>2022-10-04T11:15:03.000Z</time>
      </trkpt>
      <trkpt lat="45.85206" lon="4.68363">
        <ele>208.83078</ele>
        <time>2022-10-04T11:15:04.000Z</time>
      </trkpt>
      <trkpt lat="45.8521" lon="4.68356">
        <ele>208.97478</ele>
        <time>2022-10-04T11:15:05.000Z</time>
      </trkpt>
      <trkpt lat="45.85213" lon="4.6835">
        <ele>209.14172</ele>
        <time>2022-10-04T11:15:06.000Z</time>
      </trkpt>
      <trkpt lat="45.85217" lon="4.68342">
        <ele>209.27249</ele>
        <time>2022-10-04T11:15:07.000Z</time>
      </trkpt>
      <trkpt lat="45.85222" lon="4.68338">
        <ele>209.41158</ele>
        <time>2022-10-04T11:15:08.000Z</time>
      </trkpt>
      <trkpt lat="45.85226" lon="4.68332">
        <ele>209.6158</ele>
        <time>2022-10-04T11:15:09.000Z</time>
      </trkpt>
      <trkpt lat="45.85231" lon="4.68325">
        <ele>209.79282</ele>
        <time>2022-10-04T11:15:10.000Z</time>
      </trkpt>
      <trkpt lat="45.85236" lon="4.68317">
        <ele>209.94434</ele>
        <time>2022-10-04T11:15:11.000Z</time>
      </trkpt>
      <trkpt lat="45.8524" lon="4.6831">
        <ele>210.08176</ele>
        <time>2022-10-04T11:15:12.000Z</time>
      </trkpt>
      <trkpt lat="45.85246" lon="4.68303">
        <ele>210.23233</ele>
        <time>2022-10-04T11:15:13.000Z</time>
      </trkpt>
      <trkpt lat="45.8525" lon="4.68294">
        <ele>210.35861</ele>
        <time>2022-10-04T11:15:14.000Z</time>
      </trkpt>
      <trkpt lat="45.85255" lon="4.68286">
        <ele>210.52206</ele>
        <time>2022-10-04T11:15:15.000Z</time>
      </trkpt>
      <trkpt lat="45.85259" lon="4.6828">
        <ele>210.66663</ele>
        <time>2022-10-04T11:15:16.000Z</time>
      </trkpt>
      <trkpt lat="45.85264" lon="4.68273">
        <ele>210.66402</ele>
        <time>2022-10-04T11:15:17.000Z</time>
      </trkpt>
      <trkpt lat="45.85268" lon="4.68266">
        <ele>210.60226</ele>
        <time>2022-10-04T11:15:18.000Z</time>
      </trkpt>
      <trkpt lat="45.85273" lon="4.68259">
        <ele>210.53235</ele>
        <time>2022-10-04T11:15:19.000Z</time>
      </trkpt>
      <trkpt lat="45.85278" lon="4.68251">
        <ele>210.43149</ele>
        <time>2022-10-04T11:15:20.000Z</time>
      </trkpt>
      <trkpt lat="45.85282" lon="4.68244">
        <ele>210.26022</ele>
        <time>2022-10-04T11:15:21.000Z</time>
      </trkpt>
      <trkpt lat="45.85286" lon="4.68236">
        <ele>210.09525</ele>
        <time>2022-10-04T11:15:22.000Z</time>
      </trkpt>
      <trkpt lat="45.85291" lon="4.68227">
        <ele>209.9064</ele>
        <time>2022-10-04T11:15:23.000Z</time>
      </trkpt>
      <trkpt lat="45.85296" lon="4.6822">
        <ele>209.6279</ele>
        <time>2022-10-04T11:15:24.000Z</time>
      </trkpt>
      <trkpt lat="45.85301" lon="4.68213">
        <ele>209.34891</ele>
        <time>2022-10-04T11:15:25.000Z</time>
      </trkpt>
      <trkpt lat="45.85307" lon="4.68205">
        <ele>209.06058</ele>
        <time>2022-10-04T11:15:26.000Z</time>
      </trkpt>
      <trkpt lat="45.85313" lon="4.68199">
        <ele>208.76437</ele>
        <time>2022-10-04T11:15:27.000Z</time>
      </trkpt>
      <trkpt lat="45.85319" lon="4.68193">
        <ele>208.47844</ele>
        <time>2022-10-04T11:15:28.000Z</time>
      </trkpt>
      <trkpt lat="45.85326" lon="4.68186">
        <ele>208.18582</ele>
        <time>2022-10-04T11:15:29.000Z</time>
      </trkpt>
      <trkpt lat="45.85332" lon="4.68178">
        <ele>207.92459</ele>
        <time>2022-10-04T11:15:30.000Z</time>
      </trkpt>
      <trkpt lat="45.85338" lon="4.68171">
        <ele>207.71802</ele>
        <time>2022-10-04T11:15:31.000Z</time>
      </trkpt>
      <trkpt lat="45.85344" lon="4.68163">
        <ele>207.46506</ele>
        <time>2022-10-04T11:15:32.000Z</time>
      </trkpt>
      <trkpt lat="45.85349" lon="4.68156">
        <ele>207.1945</ele>
        <time>2022-10-04T11:15:33.000Z</time>
      </trkpt>
      <trkpt lat="45.85356" lon="4.68148">
        <ele>206.96683</ele>
        <time>2022-10-04T11:15:34.000Z</time>
      </trkpt>
      <trkpt lat="45.85362" lon="4.68141">
        <ele>206.70659</ele>
        <time>2022-10-04T11:15:35.000Z</time>
      </trkpt>
      <trkpt lat="45.85368" lon="4.68133">
        <ele>206.44136</ele>
        <time>2022-10-04T11:15:36.000Z</time>
      </trkpt>
      <trkpt lat="45.85374" lon="4.68126">
        <ele>206.24129</ele>
        <time>2022-10-04T11:15:37.000Z</time>
      </trkpt>
      <trkpt lat="45.85381" lon="4.6812">
        <ele>205.97705</ele>
        <time>2022-10-04T11:15:38.000Z</time>
      </trkpt>
      <trkpt lat="45.85388" lon="4.68111">
        <ele>205.75687</ele>
        <time>2022-10-04T11:15:39.000Z</time>
      </trkpt>
      <trkpt lat="45.85394" lon="4.68103">
        <ele>205.57161</ele>
        <time>2022-10-04T11:15:40.000Z</time>
      </trkpt>
      <trkpt lat="45.85402" lon="4.68096">
        <ele>205.42538</ele>
        <time>2022-10-04T11:15:41.000Z</time>
      </trkpt>
      <trkpt lat="45.85409" lon="4.68088">
        <ele>205.25269</ele>
        <time>2022-10-04T11:15:42.000Z</time>
      </trkpt>
      <trkpt lat="45.85416" lon="4.68082">
        <ele>205.04863</ele>
        <time>2022-10-04T11:15:43.000Z</time>
      </trkpt>
      <trkpt lat="45.85421" lon="4.68074">
        <ele>204.84444</ele>
        <time>2022-10-04T11:15:44.000Z</time>
      </trkpt>
      <trkpt lat="45.85427" lon="4.68067">
        <ele>204.63655</ele>
        <time>2022-10-04T11:15:45.000Z</time>
      </trkpt>
      <trkpt lat="45.85435" lon="4.6806">
        <ele>204.42212</ele>
        <time>2022-10-04T11:15:46.000Z</time>
      </trkpt>
      <trkpt lat="45.85441" lon="4.68051">
        <ele>204.23134</ele>
        <time>2022-10-04T11:15:47.000Z</time>
      </trkpt>
      <trkpt lat="45.8545" lon="4.68045">
        <ele>204.05948</ele>
        <time>2022-10-04T11:15:48.000Z</time>
      </trkpt>
      <trkpt lat="45.85457" lon="4.68037">
        <ele>203.88174</ele>
        <time>2022-10-04T11:15:49.000Z</time>
      </trkpt>
      <trkpt lat="45.85464" lon="4.68027">
        <ele>203.68738</ele>
        <time>2022-10-04T11:15:50.000Z</time>
      </trkpt>
      <trkpt lat="45.85471" lon="4.68022">
        <ele>203.40285</ele>
        <time>2022-10-04T11:15:51.000Z</time>
      </trkpt>
      <trkpt lat="45.85479" lon="4.68019">
        <ele>203.20959</ele>
        <time>2022-10-04T11:15:52.000Z</time>
      </trkpt>
      <trkpt lat="45.85486" lon="4.68014">
        <ele>202.98946</ele>
        <time>2022-10-04T11:15:53.000Z</time>
      </trkpt>
      <trkpt lat="45.85492" lon="4.68004">
        <ele>202.71339</ele>
        <time>2022-10-04T11:15:54.000Z</time>
      </trkpt>
      <trkpt lat="45.85497" lon="4.67996">
        <ele>202.45125</ele>
        <time>2022-10-04T11:15:55.000Z</time>
      </trkpt>
      <trkpt lat="45.85503" lon="4.67988">
        <ele>202.23863</ele>
        <time>2022-10-04T11:15:56.000Z</time>
      </trkpt>
      <trkpt lat="45.85511" lon="4.67982">
        <ele>202.04727</ele>
        <time>2022-10-04T11:15:57.000Z</time>
      </trkpt>
      <trkpt lat="45.85517" lon="4.67975">
        <ele>201.92729</ele>
        <time>2022-10-04T11:15:58.000Z</time>
      </trkpt>
      <trkpt lat="45.85523" lon="4.67967">
        <ele>201.7683</ele>
        <time>2022-10-04T11:15:59.000Z</time>
      </trkpt>
      <trkpt lat="45.8553" lon="4.6796">
        <ele>201.57629</ele>
        <time>2022-10-04T11:16:00.000Z</time>
      </trkpt>
      <trkpt lat="45.85536" lon="4.67955">
        <ele>201.41594</ele>
        <time>2022-10-04T11:16:01.000Z</time>
      </trkpt>
      <trkpt lat="45.85541" lon="4.67947">
        <ele>201.23766</ele>
        <time>2022-10-04T11:16:02.000Z</time>
      </trkpt>
      <trkpt lat="45.85548" lon="4.67943">
        <ele>201.18008</ele>
        <time>2022-10-04T11:16:03.000Z</time>
      </trkpt>
      <trkpt lat="45.85554" lon="4.67937">
        <ele>201.17967</ele>
        <time>2022-10-04T11:16:04.000Z</time>
      </trkpt>
      <trkpt lat="45.8556" lon="4.67931">
        <ele>201.23866</ele>
        <time>2022-10-04T11:16:05.000Z</time>
      </trkpt>
      <trkpt lat="45.85566" lon="4.67928">
        <ele>201.27127</ele>
        <time>2022-10-04T11:16:06.000Z</time>
      </trkpt>
      <trkpt lat="45.85572" lon="4.67926">
        <ele>201.27106</ele>
        <time>2022-10-04T11:16:07.000Z</time>
      </trkpt>
      <trkpt lat="45.85577" lon="4.67921">
        <ele>201.25139</ele>
        <time>2022-10-04T11:16:08.000Z</time>
      </trkpt>
      <trkpt lat="45.8558" lon="4.67914">
        <ele>201.28111</ele>
        <time>2022-10-04T11:16:09.000Z</time>
      </trkpt>
      <trkpt lat="45.85578" lon="4.67909">
        <ele>201.25458</ele>
        <time>2022-10-04T11:16:10.000Z</time>
      </trkpt>
      <trkpt lat="45.85577" lon="4.67902">
        <ele>201.25795</ele>
        <time>2022-10-04T11:16:11.000Z</time>
      </trkpt>
      <trkpt lat="45.85576" lon="4.67896">
        <ele>201.13185</ele>
        <time>2022-10-04T11:16:12.000Z</time>
      </trkpt>
      <trkpt lat="45.85576" lon="4.67887">
        <ele>201.06622</ele>
        <time>2022-10-04T11:16:13.000Z</time>
      </trkpt>
      <trkpt lat="45.85575" lon="4.67878">
        <ele>201.02242</ele>
        <time>2022-10-04T11:16:14.000Z</time>
      </trkpt>
      <trkpt lat="45.85574" lon="4.6787">
        <ele>200.96448</ele>
        <time>2022-10-04T11:16:15.000Z</time>
      </trkpt>
      <trkpt lat="45.85574" lon="4.67861">
        <ele>200.97183</ele>
        <time>2022-10-04T11:16:16.000Z</time>
      </trkpt>
      <trkpt lat="45.85575" lon="4.67851">
        <ele>200.98427</ele>
        <time>2022-10-04T11:16:17.000Z</time>
      </trkpt>
      <trkpt lat="45.85575" lon="4.67843">
        <ele>201.05147</ele>
        <time>2022-10-04T11:16:18.000Z</time>
      </trkpt>
      <trkpt lat="45.85578" lon="4.67835">
        <ele>201.07533</ele>
        <time>2022-10-04T11:16:19.000Z</time>
      </trkpt>
      <trkpt lat="45.8558" lon="4.67825">
        <ele>201.12694</ele>
        <time>2022-10-04T11:16:20.000Z</time>
      </trkpt>
      <trkpt lat="45.85582" lon="4.67816">
        <ele>201.13531</ele>
        <time>2022-10-04T11:16:21.000Z</time>
      </trkpt>
      <trkpt lat="45.85583" lon="4.67807">
        <ele>201.20554</ele>
        <time>2022-10-04T11:16:22.000Z</time>
      </trkpt>
      <trkpt lat="45.85585" lon="4.67799">
        <ele>201.23351</ele>
        <time>2022-10-04T11:16:23.000Z</time>
      </trkpt>
      <trkpt lat="45.85587" lon="4.6779">
        <ele>201.23412</ele>
        <time>2022-10-04T11:16:24.000Z</time>
      </trkpt>
      <trkpt lat="45.8559" lon="4.67782">
        <ele>201.1889</ele>
        <time>2022-10-04T11:16:25.000Z</time>
      </trkpt>
      <trkpt lat="45.85593" lon="4.67774">
        <ele>201.21381</ele>
        <time>2022-10-04T11:16:26.000Z</time>
      </trkpt>
      <trkpt lat="45.85597" lon="4.67767">
        <ele>201.21213</ele>
        <time>2022-10-04T11:16:27.000Z</time>
      </trkpt>
      <trkpt lat="45.85601" lon="4.67762">
        <ele>201.10326</ele>
        <time>2022-10-04T11:16:28.000Z</time>
      </trkpt>
      <trkpt lat="45.85605" lon="4.67756">
        <ele>200.892</ele>
        <time>2022-10-04T11:16:29.000Z</time>
      </trkpt>
      <trkpt lat="45.8561" lon="4.67748">
        <ele>200.7037</ele>
        <time>2022-10-04T11:16:30.000Z</time>
      </trkpt>
      <trkpt lat="45.85636" lon="4.67706">
        <ele>200.66962</ele>
        <time>2022-10-04T11:16:36.000Z</time>
      </trkpt>
      <trkpt lat="45.85642" lon="4.67704">
        <ele>200.63583</ele>
        <time>2022-10-04T11:16:37.000Z</time>
      </trkpt>
      <trkpt lat="45.85647" lon="4.67697">
        <ele>200.62547</ele>
        <time>2022-10-04T11:16:38.000Z</time>
      </trkpt>
      <trkpt lat="45.85649" lon="4.67692">
        <ele>200.52905</ele>
        <time>2022-10-04T11:16:39.000Z</time>
      </trkpt>
      <trkpt lat="45.85653" lon="4.67685">
        <ele>200.44455</ele>
        <time>2022-10-04T11:16:40.000Z</time>
      </trkpt>
      <trkpt lat="45.85658" lon="4.67679">
        <ele>200.30313</ele>
        <time>2022-10-04T11:16:41.000Z</time>
      </trkpt>
      <trkpt lat="45.85663" lon="4.67674">
        <ele>200.08218</ele>
        <time>2022-10-04T11:16:42.000Z</time>
      </trkpt>
      <trkpt lat="45.85669" lon="4.6767">
        <ele>199.81927</ele>
        <time>2022-10-04T11:16:43.000Z</time>
      </trkpt>
      <trkpt lat="45.85675" lon="4.67667">
        <ele>199.59676</ele>
        <time>2022-10-04T11:16:44.000Z</time>
      </trkpt>
      <trkpt lat="45.8568" lon="4.67663">
        <ele>199.3869</ele>
        <time>2022-10-04T11:16:45.000Z</time>
      </trkpt>
      <trkpt lat="45.85686" lon="4.6766">
        <ele>199.17639</ele>
        <time>2022-10-04T11:16:46.000Z</time>
      </trkpt>
      <trkpt lat="45.85691" lon="4.67655">
        <ele>198.96735</ele>
        <time>2022-10-04T11:16:47.000Z</time>
      </trkpt>
      <trkpt lat="45.85697" lon="4.67649">
        <ele>198.73393</ele>
        <time>2022-10-04T11:16:48.000Z</time>
      </trkpt>
      <trkpt lat="45.85703" lon="4.67645">
        <ele>198.5455</ele>
        <time>2022-10-04T11:16:49.000Z</time>
      </trkpt>
      <trkpt lat="45.85708" lon="4.67641">
        <ele>198.35953</ele>
        <time>2022-10-04T11:16:50.000Z</time>
      </trkpt>
      <trkpt lat="45.85714" lon="4.67638">
        <ele>198.12442</ele>
        <time>2022-10-04T11:16:51.000Z</time>
      </trkpt>
      <trkpt lat="45.85719" lon="4.67637">
        <ele>197.91388</ele>
        <time>2022-10-04T11:16:52.000Z</time>
      </trkpt>
      <trkpt lat="45.85725" lon="4.67632">
        <ele>197.83792</ele>
        <time>2022-10-04T11:16:53.000Z</time>
      </trkpt>
      <trkpt lat="45.85731" lon="4.67628">
        <ele>197.92665</ele>
        <time>2022-10-04T11:16:54.000Z</time>
      </trkpt>
      <trkpt lat="45.85738" lon="4.67625">
        <ele>198.14847</ele>
        <time>2022-10-04T11:16:55.000Z</time>
      </trkpt>
      <trkpt lat="45.85744" lon="4.67621">
        <ele>198.26091</ele>
        <time>2022-10-04T11:16:56.000Z</time>
      </trkpt>
      <trkpt lat="45.8575" lon="4.67617">
        <ele>198.40881</ele>
        <time>2022-10-04T11:16:57.000Z</time>
      </trkpt>
      <trkpt lat="45.85755" lon="4.67614">
        <ele>198.49966</ele>
        <time>2022-10-04T11:16:58.000Z</time>
      </trkpt>
      <trkpt lat="45.85761" lon="4.67609">
        <ele>198.73083</ele>
        <time>2022-10-04T11:16:59.000Z</time>
      </trkpt>
      <trkpt lat="45.85766" lon="4.67605">
        <ele>198.97</ele>
        <time>2022-10-04T11:17:00.000Z</time>
      </trkpt>
      <trkpt lat="45.85771" lon="4.67602">
        <ele>199.17097</ele>
        <time>2022-10-04T11:17:01.000Z</time>
      </trkpt>
      <trkpt lat="45.85777" lon="4.67596">
        <ele>199.43411</ele>
        <time>2022-10-04T11:17:02.000Z</time>
      </trkpt>
      <trkpt lat="45.85781" lon="4.67589">
        <ele>199.67711</ele>
        <time>2022-10-04T11:17:03.000Z</time>
      </trkpt>
      <trkpt lat="45.85788" lon="4.67584">
        <ele>199.92845</ele>
        <time>2022-10-04T11:17:04.000Z</time>
      </trkpt>
      <trkpt lat="45.85791" lon="4.67581">
        <ele>200.13359</ele>
        <time>2022-10-04T11:17:05.000Z</time>
      </trkpt>
      <trkpt lat="45.85796" lon="4.67575">
        <ele>200.40121</ele>
        <time>2022-10-04T11:17:06.000Z</time>
      </trkpt>
      <trkpt lat="45.858" lon="4.67567">
        <ele>200.67142</ele>
        <time>2022-10-04T11:17:07.000Z</time>
      </trkpt>
      <trkpt lat="45.85805" lon="4.67561">
        <ele>200.92276</ele>
        <time>2022-10-04T11:17:08.000Z</time>
      </trkpt>
      <trkpt lat="45.85811" lon="4.67557">
        <ele>201.16318</ele>
        <time>2022-10-04T11:17:09.000Z</time>
      </trkpt>
      <trkpt lat="45.85816" lon="4.67552">
        <ele>201.37711</ele>
        <time>2022-10-04T11:17:10.000Z</time>
      </trkpt>
      <trkpt lat="45.85822" lon="4.67547">
        <ele>201.6069</ele>
        <time>2022-10-04T11:17:11.000Z</time>
      </trkpt>
      <trkpt lat="45.85825" lon="4.67542">
        <ele>201.92776</ele>
        <time>2022-10-04T11:17:12.000Z</time>
      </trkpt>
      <trkpt lat="45.85828" lon="4.67535">
        <ele>202.17729</ele>
        <time>2022-10-04T11:17:13.000Z</time>
      </trkpt>
      <trkpt lat="45.85831" lon="4.67526">
        <ele>202.31926</ele>
        <time>2022-10-04T11:17:14.000Z</time>
      </trkpt>
      <trkpt lat="45.85833" lon="4.67519">
        <ele>202.3387</ele>
        <time>2022-10-04T11:17:15.000Z</time>
      </trkpt>
      <trkpt lat="45.85837" lon="4.67512">
        <ele>202.38646</ele>
        <time>2022-10-04T11:17:16.000Z</time>
      </trkpt>
      <trkpt lat="45.85842" lon="4.67509">
        <ele>202.4221</ele>
        <time>2022-10-04T11:17:17.000Z</time>
      </trkpt>
      <trkpt lat="45.85846" lon="4.67504">
        <ele>202.58879</ele>
        <time>2022-10-04T11:17:18.000Z</time>
      </trkpt>
      <trkpt lat="45.85849" lon="4.67497">
        <ele>202.83989</ele>
        <time>2022-10-04T11:17:19.000Z</time>
      </trkpt>
      <trkpt lat="45.85852" lon="4.6749">
        <ele>203.09308</ele>
        <time>2022-10-04T11:17:20.000Z</time>
      </trkpt>
      <trkpt lat="45.85855" lon="4.67484">
        <ele>203.39697</ele>
        <time>2022-10-04T11:17:21.000Z</time>
      </trkpt>
      <trkpt lat="45.85857" lon="4.67476">
        <ele>203.68649</ele>
        <time>2022-10-04T11:17:22.000Z</time>
      </trkpt>
      <trkpt lat="45.8586" lon="4.6747">
        <ele>203.83801</ele>
        <time>2022-10-04T11:17:23.000Z</time>
      </trkpt>
      <trkpt lat="45.85862" lon="4.67461">
        <ele>203.99045</ele>
        <time>2022-10-04T11:17:24.000Z</time>
      </trkpt>
      <trkpt lat="45.85863" lon="4.67453">
        <ele>204.16132</ele>
        <time>2022-10-04T11:17:25.000Z</time>
      </trkpt>
      <trkpt lat="45.85864" lon="4.67444">
        <ele>204.34723</ele>
        <time>2022-10-04T11:17:26.000Z</time>
      </trkpt>
      <trkpt lat="45.85864" lon="4.67432">
        <ele>204.54941</ele>
        <time>2022-10-04T11:17:27.000Z</time>
      </trkpt>
      <trkpt lat="45.85867" lon="4.67428">
        <ele>204.6819</ele>
        <time>2022-10-04T11:17:28.000Z</time>
      </trkpt>
      <trkpt lat="45.85868" lon="4.67418">
        <ele>204.75345</ele>
        <time>2022-10-04T11:17:29.000Z</time>
      </trkpt>
      <trkpt lat="45.85868" lon="4.6741">
        <ele>204.86861</ele>
        <time>2022-10-04T11:17:30.000Z</time>
      </trkpt>
      <trkpt lat="45.8587" lon="4.674">
        <ele>204.97238</ele>
        <time>2022-10-04T11:17:31.000Z</time>
      </trkpt>
      <trkpt lat="45.85871" lon="4.67391">
        <ele>205.02161</ele>
        <time>2022-10-04T11:17:32.000Z</time>
      </trkpt>
      <trkpt lat="45.85872" lon="4.67382">
        <ele>205.09123</ele>
        <time>2022-10-04T11:17:33.000Z</time>
      </trkpt>
      <trkpt lat="45.85873" lon="4.67374">
        <ele>205.19698</ele>
        <time>2022-10-04T11:17:34.000Z</time>
      </trkpt>
      <trkpt lat="45.85874" lon="4.67367">
        <ele>205.29626</ele>
        <time>2022-10-04T11:17:35.000Z</time>
      </trkpt>
      <trkpt lat="45.85875" lon="4.67359">
        <ele>205.27971</ele>
        <time>2022-10-04T11:17:36.000Z</time>
      </trkpt>
      <trkpt lat="45.85876" lon="4.6735">
        <ele>205.28304</ele>
        <time>2022-10-04T11:17:37.000Z</time>
      </trkpt>
      <trkpt lat="45.85876" lon="4.67341">
        <ele>205.22617</ele>
        <time>2022-10-04T11:17:38.000Z</time>
      </trkpt>
      <trkpt lat="45.85877" lon="4.67332">
        <ele>205.00737</ele>
        <time>2022-10-04T11:17:39.000Z</time>
      </trkpt>
      <trkpt lat="45.85879" lon="4.67322">
        <ele>204.83952</ele>
        <time>2022-10-04T11:17:40.000Z</time>
      </trkpt>
      <trkpt lat="45.8588" lon="4.67313">
        <ele>204.61913</ele>
        <time>2022-10-04T11:17:41.000Z</time>
      </trkpt>
      <trkpt lat="45.85881" lon="4.67304">
        <ele>204.39253</ele>
        <time>2022-10-04T11:17:42.000Z</time>
      </trkpt>
      <trkpt lat="45.85882" lon="4.67295">
        <ele>204.31308</ele>
        <time>2022-10-04T11:17:43.000Z</time>
      </trkpt>
      <trkpt lat="45.85883" lon="4.67286">
        <ele>204.20425</ele>
        <time>2022-10-04T11:17:44.000Z</time>
      </trkpt>
      <trkpt lat="45.85884" lon="4.67277">
        <ele>204.11635</ele>
        <time>2022-10-04T11:17:45.000Z</time>
      </trkpt>
      <trkpt lat="45.85885" lon="4.67268">
        <ele>203.95821</ele>
        <time>2022-10-04T11:17:46.000Z</time>
      </trkpt>
      <trkpt lat="45.85885" lon="4.67258">
        <ele>203.72166</ele>
        <time>2022-10-04T11:17:47.000Z</time>
      </trkpt>
      <trkpt lat="45.85885" lon="4.67249">
        <ele>203.54449</ele>
        <time>2022-10-04T11:17:48.000Z</time>
      </trkpt>
      <trkpt lat="45.85886" lon="4.6724">
        <ele>203.38545</ele>
        <time>2022-10-04T11:17:49.000Z</time>
      </trkpt>
      <trkpt lat="45.85886" lon="4.6723">
        <ele>203.25766</ele>
        <time>2022-10-04T11:17:50.000Z</time>
      </trkpt>
      <trkpt lat="45.85888" lon="4.67221">
        <ele>203.12439</ele>
        <time>2022-10-04T11:17:51.000Z</time>
      </trkpt>
      <trkpt lat="45.85889" lon="4.67213">
        <ele>202.98889</ele>
        <time>2022-10-04T11:17:52.000Z</time>
      </trkpt>
      <trkpt lat="45.8589" lon="4.67205">
        <ele>202.83752</ele>
        <time>2022-10-04T11:17:53.000Z</time>
      </trkpt>
      <trkpt lat="45.85891" lon="4.67195">
        <ele>202.64841</ele>
        <time>2022-10-04T11:17:54.000Z</time>
      </trkpt>
      <trkpt lat="45.85892" lon="4.67186">
        <ele>202.47479</ele>
        <time>2022-10-04T11:17:55.000Z</time>
      </trkpt>
      <trkpt lat="45.85892" lon="4.67176">
        <ele>202.39059</ele>
        <time>2022-10-04T11:17:56.000Z</time>
      </trkpt>
      <trkpt lat="45.85893" lon="4.67167">
        <ele>202.38626</ele>
        <time>2022-10-04T11:17:57.000Z</time>
      </trkpt>
      <trkpt lat="45.85894" lon="4.67158">
        <ele>202.3493</ele>
        <time>2022-10-04T11:17:58.000Z</time>
      </trkpt>
      <trkpt lat="45.85894" lon="4.67151">
        <ele>202.36435</ele>
        <time>2022-10-04T11:17:59.000Z</time>
      </trkpt>
      <trkpt lat="45.85895" lon="4.67142">
        <ele>202.36801</ele>
        <time>2022-10-04T11:18:00.000Z</time>
      </trkpt>
      <trkpt lat="45.85896" lon="4.67134">
        <ele>202.35451</ele>
        <time>2022-10-04T11:18:01.000Z</time>
      </trkpt>
      <trkpt lat="45.85896" lon="4.67126">
        <ele>202.37607</ele>
        <time>2022-10-04T11:18:02.000Z</time>
      </trkpt>
      <trkpt lat="45.85896" lon="4.67116">
        <ele>202.41718</ele>
        <time>2022-10-04T11:18:03.000Z</time>
      </trkpt>
      <trkpt lat="45.85897" lon="4.67107">
        <ele>202.47012</ele>
        <time>2022-10-04T11:18:04.000Z</time>
      </trkpt>
      <trkpt lat="45.85898" lon="4.67099">
        <ele>202.51677</ele>
        <time>2022-10-04T11:18:05.000Z</time>
      </trkpt>
      <trkpt lat="45.85899" lon="4.67092">
        <ele>202.53775</ele>
        <time>2022-10-04T11:18:06.000Z</time>
      </trkpt>
      <trkpt lat="45.859" lon="4.67085">
        <ele>202.55421</ele>
        <time>2022-10-04T11:18:07.000Z</time>
      </trkpt>
      <trkpt lat="45.85903" lon="4.67076">
        <ele>202.62173</ele>
        <time>2022-10-04T11:18:08.000Z</time>
      </trkpt>
      <trkpt lat="45.85905" lon="4.67067">
        <ele>202.69296</ele>
        <time>2022-10-04T11:18:09.000Z</time>
      </trkpt>
      <trkpt lat="45.85906" lon="4.67059">
        <ele>202.72659</ele>
        <time>2022-10-04T11:18:10.000Z</time>
      </trkpt>
      <trkpt lat="45.85907" lon="4.6705">
        <ele>202.78276</ele>
        <time>2022-10-04T11:18:11.000Z</time>
      </trkpt>
      <trkpt lat="45.85908" lon="4.67043">
        <ele>202.82095</ele>
        <time>2022-10-04T11:18:12.000Z</time>
      </trkpt>
      <trkpt lat="45.8591" lon="4.67034">
        <ele>202.89383</ele>
        <time>2022-10-04T11:18:13.000Z</time>
      </trkpt>
      <trkpt lat="45.85911" lon="4.67026">
        <ele>202.96686</ele>
        <time>2022-10-04T11:18:14.000Z</time>
      </trkpt>
      <trkpt lat="45.85912" lon="4.67019">
        <ele>203.01022</ele>
        <time>2022-10-04T11:18:15.000Z</time>
      </trkpt>
      <trkpt lat="45.85914" lon="4.6701">
        <ele>203.0578</ele>
        <time>2022-10-04T11:18:16.000Z</time>
      </trkpt>
      <trkpt lat="45.85917" lon="4.67003">
        <ele>203.04672</ele>
        <time>2022-10-04T11:18:17.000Z</time>
      </trkpt>
      <trkpt lat="45.85921" lon="4.66997">
        <ele>202.99007</ele>
        <time>2022-10-04T11:18:18.000Z</time>
      </trkpt>
      <trkpt lat="45.85924" lon="4.66992">
        <ele>202.93887</ele>
        <time>2022-10-04T11:18:19.000Z</time>
      </trkpt>
      <trkpt lat="45.85927" lon="4.66987">
        <ele>202.8723</ele>
        <time>2022-10-04T11:18:20.000Z</time>
      </trkpt>
      <trkpt lat="45.8593" lon="4.66982">
        <ele>202.82619</ele>
        <time>2022-10-04T11:18:21.000Z</time>
      </trkpt>
      <trkpt lat="45.85932" lon="4.66975">
        <ele>202.74637</ele>
        <time>2022-10-04T11:18:22.000Z</time>
      </trkpt>
      <trkpt lat="45.85931" lon="4.66967">
        <ele>202.64293</ele>
        <time>2022-10-04T11:18:23.000Z</time>
      </trkpt>
      <trkpt lat="45.85929" lon="4.66959">
        <ele>202.57457</ele>
        <time>2022-10-04T11:18:24.000Z</time>
      </trkpt>
      <trkpt lat="45.85925" lon="4.66951">
        <ele>202.51057</ele>
        <time>2022-10-04T11:18:25.000Z</time>
      </trkpt>
      <trkpt lat="45.85924" lon="4.66943">
        <ele>202.46515</ele>
        <time>2022-10-04T11:18:26.000Z</time>
      </trkpt>
      <trkpt lat="45.85924" lon="4.66934">
        <ele>202.40184</ele>
        <time>2022-10-04T11:18:27.000Z</time>
      </trkpt>
      <trkpt lat="45.85926" lon="4.66926">
        <ele>202.36789</ele>
        <time>2022-10-04T11:18:28.000Z</time>
      </trkpt>
      <trkpt lat="45.85928" lon="4.66918">
        <ele>202.36874</ele>
        <time>2022-10-04T11:18:29.000Z</time>
      </trkpt>
      <trkpt lat="45.85929" lon="4.66908">
        <ele>202.34286</ele>
        <time>2022-10-04T11:18:30.000Z</time>
      </trkpt>
      <trkpt lat="45.85931" lon="4.66901">
        <ele>202.30963</ele>
        <time>2022-10-04T11:18:31.000Z</time>
      </trkpt>
      <trkpt lat="45.85933" lon="4.66893">
        <ele>202.28532</ele>
        <time>2022-10-04T11:18:32.000Z</time>
      </trkpt>
      <trkpt lat="45.85935" lon="4.66885">
        <ele>202.26601</ele>
        <time>2022-10-04T11:18:33.000Z</time>
      </trkpt>
      <trkpt lat="45.85937" lon="4.66877">
        <ele>202.25357</ele>
        <time>2022-10-04T11:18:34.000Z</time>
      </trkpt>
      <trkpt lat="45.85939" lon="4.66869">
        <ele>202.30414</ele>
        <time>2022-10-04T11:18:35.000Z</time>
      </trkpt>
      <trkpt lat="45.85941" lon="4.66861">
        <ele>202.35983</ele>
        <time>2022-10-04T11:18:36.000Z</time>
      </trkpt>
      <trkpt lat="45.85942" lon="4.66853">
        <ele>202.47488</ele>
        <time>2022-10-04T11:18:37.000Z</time>
      </trkpt>
      <trkpt lat="45.85945" lon="4.66845">
        <ele>202.64606</ele>
        <time>2022-10-04T11:18:38.000Z</time>
      </trkpt>
      <trkpt lat="45.85947" lon="4.66836">
        <ele>202.75845</ele>
        <time>2022-10-04T11:18:39.000Z</time>
      </trkpt>
      <trkpt lat="45.8595" lon="4.66828">
        <ele>202.87296</ele>
        <time>2022-10-04T11:18:40.000Z</time>
      </trkpt>
      <trkpt lat="45.85953" lon="4.66821">
        <ele>203.00725</ele>
        <time>2022-10-04T11:18:41.000Z</time>
      </trkpt>
      <trkpt lat="45.85955" lon="4.66813">
        <ele>203.09981</ele>
        <time>2022-10-04T11:18:42.000Z</time>
      </trkpt>
      <trkpt lat="45.85956" lon="4.66805">
        <ele>203.19669</ele>
        <time>2022-10-04T11:18:43.000Z</time>
      </trkpt>
      <trkpt lat="45.85959" lon="4.66797">
        <ele>203.22935</ele>
        <time>2022-10-04T11:18:44.000Z</time>
      </trkpt>
      <trkpt lat="45.85961" lon="4.66788">
        <ele>203.19688</ele>
        <time>2022-10-04T11:18:45.000Z</time>
      </trkpt>
      <trkpt lat="45.85964" lon="4.66781">
        <ele>203.1713</ele>
        <time>2022-10-04T11:18:46.000Z</time>
      </trkpt>
      <trkpt lat="45.85967" lon="4.66773">
        <ele>203.26411</ele>
        <time>2022-10-04T11:18:47.000Z</time>
      </trkpt>
      <trkpt lat="45.8597" lon="4.66766">
        <ele>203.27327</ele>
        <time>2022-10-04T11:18:48.000Z</time>
      </trkpt>
      <trkpt lat="45.85974" lon="4.6676">
        <ele>203.25667</ele>
        <time>2022-10-04T11:18:49.000Z</time>
      </trkpt>
      <trkpt lat="45.85976" lon="4.66752">
        <ele>203.26245</ele>
        <time>2022-10-04T11:18:50.000Z</time>
      </trkpt>
      <trkpt lat="45.85979" lon="4.66745">
        <ele>203.34714</ele>
        <time>2022-10-04T11:18:51.000Z</time>
      </trkpt>
      <trkpt lat="45.85982" lon="4.66738">
        <ele>203.46684</ele>
        <time>2022-10-04T11:18:52.000Z</time>
      </trkpt>
      <trkpt lat="45.85983" lon="4.66731">
        <ele>203.59634</ele>
        <time>2022-10-04T11:18:53.000Z</time>
      </trkpt>
      <trkpt lat="45.85985" lon="4.66725">
        <ele>203.78204</ele>
        <time>2022-10-04T11:18:54.000Z</time>
      </trkpt>
      <trkpt lat="45.8599" lon="4.66718">
        <ele>203.93103</ele>
        <time>2022-10-04T11:18:55.000Z</time>
      </trkpt>
      <trkpt lat="45.85992" lon="4.66712">
        <ele>204.07648</ele>
        <time>2022-10-04T11:18:56.000Z</time>
      </trkpt>
      <trkpt lat="45.85996" lon="4.66706">
        <ele>204.14728</ele>
        <time>2022-10-04T11:18:57.000Z</time>
      </trkpt>
      <trkpt lat="45.86" lon="4.667">
        <ele>204.21863</ele>
        <time>2022-10-04T11:18:58.000Z</time>
      </trkpt>
      <trkpt lat="45.86003" lon="4.66693">
        <ele>204.39368</ele>
        <time>2022-10-04T11:18:59.000Z</time>
      </trkpt>
      <trkpt lat="45.86007" lon="4.66688">
        <ele>204.54855</ele>
        <time>2022-10-04T11:19:00.000Z</time>
      </trkpt>
      <trkpt lat="45.86011" lon="4.66683">
        <ele>204.68855</ele>
        <time>2022-10-04T11:19:01.000Z</time>
      </trkpt>
      <trkpt lat="45.86016" lon="4.66676">
        <ele>204.78952</ele>
        <time>2022-10-04T11:19:02.000Z</time>
      </trkpt>
      <trkpt lat="45.86021" lon="4.6667">
        <ele>204.88786</ele>
        <time>2022-10-04T11:19:03.000Z</time>
      </trkpt>
      <trkpt lat="45.86024" lon="4.66665">
        <ele>205.02715</ele>
        <time>2022-10-04T11:19:04.000Z</time>
      </trkpt>
      <trkpt lat="45.86028" lon="4.6666">
        <ele>205.17781</ele>
        <time>2022-10-04T11:19:05.000Z</time>
      </trkpt>
      <trkpt lat="45.8603" lon="4.66655">
        <ele>205.2847</ele>
        <time>2022-10-04T11:19:06.000Z</time>
      </trkpt>
      <trkpt lat="45.86036" lon="4.66652">
        <ele>205.32671</ele>
        <time>2022-10-04T11:19:07.000Z</time>
      </trkpt>
      <trkpt lat="45.86041" lon="4.66646">
        <ele>205.41985</ele>
        <time>2022-10-04T11:19:08.000Z</time>
      </trkpt>
      <trkpt lat="45.86047" lon="4.66642">
        <ele>205.60591</ele>
        <time>2022-10-04T11:19:09.000Z</time>
      </trkpt>
      <trkpt lat="45.86052" lon="4.66638">
        <ele>205.79807</ele>
        <time>2022-10-04T11:19:10.000Z</time>
      </trkpt>
      <trkpt lat="45.86057" lon="4.66632">
        <ele>205.92815</ele>
        <time>2022-10-04T11:19:11.000Z</time>
      </trkpt>
      <trkpt lat="45.86062" lon="4.66626">
        <ele>205.97141</ele>
        <time>2022-10-04T11:19:12.000Z</time>
      </trkpt>
      <trkpt lat="45.86067" lon="4.66622">
        <ele>206.0376</ele>
        <time>2022-10-04T11:19:13.000Z</time>
      </trkpt>
      <trkpt lat="45.86072" lon="4.66617">
        <ele>206.03293</ele>
        <time>2022-10-04T11:19:14.000Z</time>
      </trkpt>
      <trkpt lat="45.86078" lon="4.66612">
        <ele>206.07132</ele>
        <time>2022-10-04T11:19:15.000Z</time>
      </trkpt>
      <trkpt lat="45.86083" lon="4.66609">
        <ele>206.10623</ele>
        <time>2022-10-04T11:19:16.000Z</time>
      </trkpt>
      <trkpt lat="45.86088" lon="4.66605">
        <ele>206.13074</ele>
        <time>2022-10-04T11:19:17.000Z</time>
      </trkpt>
      <trkpt lat="45.86093" lon="4.66601">
        <ele>206.22864</ele>
        <time>2022-10-04T11:19:18.000Z</time>
      </trkpt>
      <trkpt lat="45.861" lon="4.66598">
        <ele>206.23677</ele>
        <time>2022-10-04T11:19:19.000Z</time>
      </trkpt>
      <trkpt lat="45.86105" lon="4.66595">
        <ele>206.26425</ele>
        <time>2022-10-04T11:19:20.000Z</time>
      </trkpt>
      <trkpt lat="45.86111" lon="4.66596">
        <ele>206.24324</ele>
        <time>2022-10-04T11:19:21.000Z</time>
      </trkpt>
      <trkpt lat="45.86118" lon="4.66593">
        <ele>206.31711</ele>
        <time>2022-10-04T11:19:22.000Z</time>
      </trkpt>
      <trkpt lat="45.86124" lon="4.66591">
        <ele>206.34758</ele>
        <time>2022-10-04T11:19:23.000Z</time>
      </trkpt>
      <trkpt lat="45.86127" lon="4.66586">
        <ele>206.39909</ele>
        <time>2022-10-04T11:19:24.000Z</time>
      </trkpt>
      <trkpt lat="45.8613" lon="4.66583">
        <ele>206.55042</ele>
        <time>2022-10-04T11:19:25.000Z</time>
      </trkpt>
      <trkpt lat="45.86136" lon="4.66578">
        <ele>206.82056</ele>
        <time>2022-10-04T11:19:26.000Z</time>
      </trkpt>
      <trkpt lat="45.86138" lon="4.6657">
        <ele>207.11528</ele>
        <time>2022-10-04T11:19:27.000Z</time>
      </trkpt>
      <trkpt lat="45.86141" lon="4.66563">
        <ele>207.38687</ele>
        <time>2022-10-04T11:19:28.000Z</time>
      </trkpt>
      <trkpt lat="45.86145" lon="4.66557">
        <ele>207.58183</ele>
        <time>2022-10-04T11:19:29.000Z</time>
      </trkpt>
      <trkpt lat="45.86151" lon="4.66552">
        <ele>207.778</ele>
        <time>2022-10-04T11:19:30.000Z</time>
      </trkpt>
      <trkpt lat="45.86154" lon="4.66546">
        <ele>207.96951</ele>
        <time>2022-10-04T11:19:31.000Z</time>
      </trkpt>
      <trkpt lat="45.86157" lon="4.6654">
        <ele>208.13225</ele>
        <time>2022-10-04T11:19:32.000Z</time>
      </trkpt>
      <trkpt lat="45.86159" lon="4.66534">
        <ele>208.23026</ele>
        <time>2022-10-04T11:19:33.000Z</time>
      </trkpt>
      <trkpt lat="45.86165" lon="4.6653">
        <ele>208.3364</ele>
        <time>2022-10-04T11:19:34.000Z</time>
      </trkpt>
      <trkpt lat="45.8617" lon="4.66523">
        <ele>208.34378</ele>
        <time>2022-10-04T11:19:35.000Z</time>
      </trkpt>
      <trkpt lat="45.86175" lon="4.66517">
        <ele>208.34055</ele>
        <time>2022-10-04T11:19:36.000Z</time>
      </trkpt>
      <trkpt lat="45.86178" lon="4.66508">
        <ele>208.45337</ele>
        <time>2022-10-04T11:19:37.000Z</time>
      </trkpt>
      <trkpt lat="45.86181" lon="4.66499">
        <ele>208.52669</ele>
        <time>2022-10-04T11:19:38.000Z</time>
      </trkpt>
      <trkpt lat="45.86184" lon="4.66492">
        <ele>208.5809</ele>
        <time>2022-10-04T11:19:39.000Z</time>
      </trkpt>
      <trkpt lat="45.8619" lon="4.66485">
        <ele>208.58293</ele>
        <time>2022-10-04T11:19:40.000Z</time>
      </trkpt>
      <trkpt lat="45.86195" lon="4.66477">
        <ele>208.65662</ele>
        <time>2022-10-04T11:19:41.000Z</time>
      </trkpt>
      <trkpt lat="45.86195" lon="4.66474">
        <ele>208.629</ele>
        <time>2022-10-04T11:19:42.000Z</time>
      </trkpt>
      <trkpt lat="45.862" lon="4.66468">
        <ele>208.5507</ele>
        <time>2022-10-04T11:19:43.000Z</time>
      </trkpt>
      <trkpt lat="45.86205" lon="4.66462">
        <ele>208.47787</ele>
        <time>2022-10-04T11:19:44.000Z</time>
      </trkpt>
      <trkpt lat="45.86207" lon="4.66455">
        <ele>208.25833</ele>
        <time>2022-10-04T11:19:45.000Z</time>
      </trkpt>
      <trkpt lat="45.8621" lon="4.66448">
        <ele>207.95535</ele>
        <time>2022-10-04T11:19:46.000Z</time>
      </trkpt>
      <trkpt lat="45.86214" lon="4.66444">
        <ele>207.62961</ele>
        <time>2022-10-04T11:19:47.000Z</time>
      </trkpt>
      <trkpt lat="45.86219" lon="4.66439">
        <ele>207.35213</ele>
        <time>2022-10-04T11:19:48.000Z</time>
      </trkpt>
      <trkpt lat="45.86222" lon="4.66432">
        <ele>207.06218</ele>
        <time>2022-10-04T11:19:49.000Z</time>
      </trkpt>
      <trkpt lat="45.86226" lon="4.66425">
        <ele>206.79456</ele>
        <time>2022-10-04T11:19:50.000Z</time>
      </trkpt>
      <trkpt lat="45.86229" lon="4.66418">
        <ele>206.54436</ele>
        <time>2022-10-04T11:19:51.000Z</time>
      </trkpt>
      <trkpt lat="45.86233" lon="4.66411">
        <ele>206.38628</ele>
        <time>2022-10-04T11:19:52.000Z</time>
      </trkpt>
      <trkpt lat="45.86238" lon="4.66404">
        <ele>206.29716</ele>
        <time>2022-10-04T11:19:53.000Z</time>
      </trkpt>
      <trkpt lat="45.86241" lon="4.66399">
        <ele>206.27893</ele>
        <time>2022-10-04T11:19:54.000Z</time>
      </trkpt>
      <trkpt lat="45.86245" lon="4.66392">
        <ele>206.31844</ele>
        <time>2022-10-04T11:19:55.000Z</time>
      </trkpt>
      <trkpt lat="45.86247" lon="4.66384">
        <ele>206.39359</ele>
        <time>2022-10-04T11:19:56.000Z</time>
      </trkpt>
      <trkpt lat="45.86251" lon="4.66374">
        <ele>206.28958</ele>
        <time>2022-10-04T11:19:57.000Z</time>
      </trkpt>
      <trkpt lat="45.86255" lon="4.66371">
        <ele>206.11372</ele>
        <time>2022-10-04T11:19:58.000Z</time>
      </trkpt>
      <trkpt lat="45.86259" lon="4.66365">
        <ele>206.10535</ele>
        <time>2022-10-04T11:19:59.000Z</time>
      </trkpt>
      <trkpt lat="45.86264" lon="4.6636">
        <ele>206.09282</ele>
        <time>2022-10-04T11:20:00.000Z</time>
      </trkpt>
      <trkpt lat="45.86269" lon="4.66353">
        <ele>206.07968</ele>
        <time>2022-10-04T11:20:01.000Z</time>
      </trkpt>
      <trkpt lat="45.86274" lon="4.66347">
        <ele>206.1279</ele>
        <time>2022-10-04T11:20:02.000Z</time>
      </trkpt>
      <trkpt lat="45.86278" lon="4.66342">
        <ele>206.22913</ele>
        <time>2022-10-04T11:20:03.000Z</time>
      </trkpt>
      <trkpt lat="45.86283" lon="4.66336">
        <ele>206.36336</ele>
        <time>2022-10-04T11:20:04.000Z</time>
      </trkpt>
      <trkpt lat="45.86286" lon="4.66329">
        <ele>206.57881</ele>
        <time>2022-10-04T11:20:05.000Z</time>
      </trkpt>
      <trkpt lat="45.8629" lon="4.66324">
        <ele>206.82437</ele>
        <time>2022-10-04T11:20:06.000Z</time>
      </trkpt>
      <trkpt lat="45.86294" lon="4.66317">
        <ele>207.04146</ele>
        <time>2022-10-04T11:20:07.000Z</time>
      </trkpt>
      <trkpt lat="45.86299" lon="4.66312">
        <ele>207.19736</ele>
        <time>2022-10-04T11:20:08.000Z</time>
      </trkpt>
      <trkpt lat="45.86302" lon="4.66308">
        <ele>207.35149</ele>
        <time>2022-10-04T11:20:09.000Z</time>
      </trkpt>
      <trkpt lat="45.86307" lon="4.66304">
        <ele>207.48172</ele>
        <time>2022-10-04T11:20:10.000Z</time>
      </trkpt>
      <trkpt lat="45.86311" lon="4.66301">
        <ele>207.63652</ele>
        <time>2022-10-04T11:20:11.000Z</time>
      </trkpt>
      <trkpt lat="45.86314" lon="4.66295">
        <ele>207.8262</ele>
        <time>2022-10-04T11:20:12.000Z</time>
      </trkpt>
      <trkpt lat="45.86319" lon="4.66291">
        <ele>207.90881</ele>
        <time>2022-10-04T11:20:13.000Z</time>
      </trkpt>
      <trkpt lat="45.86324" lon="4.66286">
        <ele>207.98746</ele>
        <time>2022-10-04T11:20:14.000Z</time>
      </trkpt>
      <trkpt lat="45.86329" lon="4.66283">
        <ele>208.09924</ele>
        <time>2022-10-04T11:20:15.000Z</time>
      </trkpt>
      <trkpt lat="45.86334" lon="4.6628">
        <ele>208.17171</ele>
        <time>2022-10-04T11:20:16.000Z</time>
      </trkpt>
      <trkpt lat="45.86339" lon="4.66276">
        <ele>208.32639</ele>
        <time>2022-10-04T11:20:17.000Z</time>
      </trkpt>
      <trkpt lat="45.86343" lon="4.66273">
        <ele>208.43965</ele>
        <time>2022-10-04T11:20:18.000Z</time>
      </trkpt>
      <trkpt lat="45.86348" lon="4.66268">
        <ele>208.40279</ele>
        <time>2022-10-04T11:20:19.000Z</time>
      </trkpt>
      <trkpt lat="45.86353" lon="4.66264">
        <ele>208.36771</ele>
        <time>2022-10-04T11:20:20.000Z</time>
      </trkpt>
      <trkpt lat="45.86357" lon="4.6626">
        <ele>208.33711</ele>
        <time>2022-10-04T11:20:21.000Z</time>
      </trkpt>
      <trkpt lat="45.86362" lon="4.66257">
        <ele>208.33366</ele>
        <time>2022-10-04T11:20:22.000Z</time>
      </trkpt>
      <trkpt lat="45.86366" lon="4.66252">
        <ele>208.39375</ele>
        <time>2022-10-04T11:20:23.000Z</time>
      </trkpt>
      <trkpt lat="45.86371" lon="4.66248">
        <ele>208.45288</ele>
        <time>2022-10-04T11:20:24.000Z</time>
      </trkpt>
      <trkpt lat="45.86376" lon="4.66245">
        <ele>208.5258</ele>
        <time>2022-10-04T11:20:25.000Z</time>
      </trkpt>
      <trkpt lat="45.86383" lon="4.66242">
        <ele>208.58804</ele>
        <time>2022-10-04T11:20:26.000Z</time>
      </trkpt>
      <trkpt lat="45.86389" lon="4.66239">
        <ele>208.68991</ele>
        <time>2022-10-04T11:20:27.000Z</time>
      </trkpt>
      <trkpt lat="45.86394" lon="4.66239">
        <ele>208.74924</ele>
        <time>2022-10-04T11:20:28.000Z</time>
      </trkpt>
      <trkpt lat="45.864" lon="4.66236">
        <ele>208.81931</ele>
        <time>2022-10-04T11:20:29.000Z</time>
      </trkpt>
      <trkpt lat="45.86405" lon="4.66234">
        <ele>208.85608</ele>
        <time>2022-10-04T11:20:30.000Z</time>
      </trkpt>
      <trkpt lat="45.86411" lon="4.66232">
        <ele>208.85059</ele>
        <time>2022-10-04T11:20:31.000Z</time>
      </trkpt>
      <trkpt lat="45.86415" lon="4.6623">
        <ele>208.72188</ele>
        <time>2022-10-04T11:20:32.000Z</time>
      </trkpt>
      <trkpt lat="45.8642" lon="4.6623">
        <ele>208.62573</ele>
        <time>2022-10-04T11:20:33.000Z</time>
      </trkpt>
      <trkpt lat="45.86425" lon="4.66227">
        <ele>208.53708</ele>
        <time>2022-10-04T11:20:34.000Z</time>
      </trkpt>
      <trkpt lat="45.86431" lon="4.66224">
        <ele>208.44876</ele>
        <time>2022-10-04T11:20:35.000Z</time>
      </trkpt>
      <trkpt lat="45.86436" lon="4.66221">
        <ele>208.42847</ele>
        <time>2022-10-04T11:20:36.000Z</time>
      </trkpt>
      <trkpt lat="45.86441" lon="4.66219">
        <ele>208.43623</ele>
        <time>2022-10-04T11:20:37.000Z</time>
      </trkpt>
      <trkpt lat="45.86446" lon="4.66217">
        <ele>208.52856</ele>
        <time>2022-10-04T11:20:38.000Z</time>
      </trkpt>
      <trkpt lat="45.86452" lon="4.66216">
        <ele>208.61089</ele>
        <time>2022-10-04T11:20:39.000Z</time>
      </trkpt>
      <trkpt lat="45.86457" lon="4.66215">
        <ele>208.69763</ele>
        <time>2022-10-04T11:20:40.000Z</time>
      </trkpt>
      <trkpt lat="45.86462" lon="4.66213">
        <ele>208.8125</ele>
        <time>2022-10-04T11:20:41.000Z</time>
      </trkpt>
      <trkpt lat="45.86467" lon="4.66213">
        <ele>208.93381</ele>
        <time>2022-10-04T11:20:42.000Z</time>
      </trkpt>
      <trkpt lat="45.86472" lon="4.6621">
        <ele>209.02592</ele>
        <time>2022-10-04T11:20:43.000Z</time>
      </trkpt>
      <trkpt lat="45.86477" lon="4.66208">
        <ele>209.05264</ele>
        <time>2022-10-04T11:20:44.000Z</time>
      </trkpt>
      <trkpt lat="45.86483" lon="4.66207">
        <ele>209.04488</ele>
        <time>2022-10-04T11:20:45.000Z</time>
      </trkpt>
      <trkpt lat="45.86488" lon="4.66205">
        <ele>209.01157</ele>
        <time>2022-10-04T11:20:46.000Z</time>
      </trkpt>
      <trkpt lat="45.86492" lon="4.66202">
        <ele>208.95451</ele>
        <time>2022-10-04T11:20:47.000Z</time>
      </trkpt>
      <trkpt lat="45.86497" lon="4.66199">
        <ele>208.99536</ele>
        <time>2022-10-04T11:20:48.000Z</time>
      </trkpt>
      <trkpt lat="45.86503" lon="4.66198">
        <ele>209.0822</ele>
        <time>2022-10-04T11:20:49.000Z</time>
      </trkpt>
      <trkpt lat="45.86508" lon="4.66196">
        <ele>209.20378</ele>
        <time>2022-10-04T11:20:50.000Z</time>
      </trkpt>
      <trkpt lat="45.86513" lon="4.66196">
        <ele>209.30215</ele>
        <time>2022-10-04T11:20:51.000Z</time>
      </trkpt>
      <trkpt lat="45.86519" lon="4.66191">
        <ele>209.48218</ele>
        <time>2022-10-04T11:20:52.000Z</time>
      </trkpt>
      <trkpt lat="45.86524" lon="4.66188">
        <ele>209.64322</ele>
        <time>2022-10-04T11:20:53.000Z</time>
      </trkpt>
      <trkpt lat="45.86529" lon="4.66185">
        <ele>209.76651</ele>
        <time>2022-10-04T11:20:54.000Z</time>
      </trkpt>
      <trkpt lat="45.86534" lon="4.66181">
        <ele>209.91562</ele>
        <time>2022-10-04T11:20:55.000Z</time>
      </trkpt>
      <trkpt lat="45.86541" lon="4.66179">
        <ele>210.06064</ele>
        <time>2022-10-04T11:20:56.000Z</time>
      </trkpt>
      <trkpt lat="45.86542" lon="4.66174">
        <ele>210.17119</ele>
        <time>2022-10-04T11:20:57.000Z</time>
      </trkpt>
      <trkpt lat="45.86542" lon="4.66169">
        <ele>210.21606</ele>
        <time>2022-10-04T11:20:58.000Z</time>
      </trkpt>
      <trkpt lat="45.86545" lon="4.66167">
        <ele>210.23213</ele>
        <time>2022-10-04T11:20:59.000Z</time>
      </trkpt>
      <trkpt lat="45.86551" lon="4.66164">
        <ele>210.18045</ele>
        <time>2022-10-04T11:21:00.000Z</time>
      </trkpt>
      <trkpt lat="45.86555" lon="4.66158">
        <ele>210.08084</ele>
        <time>2022-10-04T11:21:01.000Z</time>
      </trkpt>
      <trkpt lat="45.86559" lon="4.66155">
        <ele>209.95682</ele>
        <time>2022-10-04T11:21:02.000Z</time>
      </trkpt>
      <trkpt lat="45.86565" lon="4.6615">
        <ele>209.89951</ele>
        <time>2022-10-04T11:21:03.000Z</time>
      </trkpt>
      <trkpt lat="45.86569" lon="4.66145">
        <ele>209.92302</ele>
        <time>2022-10-04T11:21:04.000Z</time>
      </trkpt>
      <trkpt lat="45.86573" lon="4.66141">
        <ele>209.99687</ele>
        <time>2022-10-04T11:21:05.000Z</time>
      </trkpt>
      <trkpt lat="45.86578" lon="4.66136">
        <ele>210.01448</ele>
        <time>2022-10-04T11:21:06.000Z</time>
      </trkpt>
      <trkpt lat="45.86582" lon="4.6613">
        <ele>210.04675</ele>
        <time>2022-10-04T11:21:07.000Z</time>
      </trkpt>
      <trkpt lat="45.86588" lon="4.66127">
        <ele>210.07491</ele>
        <time>2022-10-04T11:21:08.000Z</time>
      </trkpt>
      <trkpt lat="45.86594" lon="4.66123">
        <ele>210.08003</ele>
        <time>2022-10-04T11:21:09.000Z</time>
      </trkpt>
      <trkpt lat="45.86598" lon="4.6612">
        <ele>210.04317</ele>
        <time>2022-10-04T11:21:10.000Z</time>
      </trkpt>
      <trkpt lat="45.86603" lon="4.66114">
        <ele>209.96574</ele>
        <time>2022-10-04T11:21:11.000Z</time>
      </trkpt>
      <trkpt lat="45.86608" lon="4.66111">
        <ele>209.88301</ele>
        <time>2022-10-04T11:21:12.000Z</time>
      </trkpt>
      <trkpt lat="45.86612" lon="4.66105">
        <ele>209.87349</ele>
        <time>2022-10-04T11:21:13.000Z</time>
      </trkpt>
      <trkpt lat="45.86615" lon="4.661">
        <ele>209.85921</ele>
        <time>2022-10-04T11:21:14.000Z</time>
      </trkpt>
      <trkpt lat="45.8662" lon="4.66097">
        <ele>209.76126</ele>
        <time>2022-10-04T11:21:15.000Z</time>
      </trkpt>
      <trkpt lat="45.86625" lon="4.66094">
        <ele>209.63301</ele>
        <time>2022-10-04T11:21:16.000Z</time>
      </trkpt>
      <trkpt lat="45.86632" lon="4.66095">
        <ele>209.54659</ele>
        <time>2022-10-04T11:21:17.000Z</time>
      </trkpt>
      <trkpt lat="45.86637" lon="4.66091">
        <ele>209.49113</ele>
        <time>2022-10-04T11:21:18.000Z</time>
      </trkpt>
      <trkpt lat="45.86642" lon="4.66091">
        <ele>209.43159</ele>
        <time>2022-10-04T11:21:19.000Z</time>
      </trkpt>
      <trkpt lat="45.86647" lon="4.66089">
        <ele>209.49268</ele>
        <time>2022-10-04T11:21:20.000Z</time>
      </trkpt>
      <trkpt lat="45.86653" lon="4.66089">
        <ele>209.58875</ele>
        <time>2022-10-04T11:21:21.000Z</time>
      </trkpt>
      <trkpt lat="45.86657" lon="4.66086">
        <ele>209.65108</ele>
        <time>2022-10-04T11:21:22.000Z</time>
      </trkpt>
      <trkpt lat="45.86661" lon="4.66085">
        <ele>209.69731</ele>
        <time>2022-10-04T11:21:23.000Z</time>
      </trkpt>
      <trkpt lat="45.86666" lon="4.66083">
        <ele>209.76428</ele>
        <time>2022-10-04T11:21:24.000Z</time>
      </trkpt>
      <trkpt lat="45.8667" lon="4.66081">
        <ele>209.88602</ele>
        <time>2022-10-04T11:21:25.000Z</time>
      </trkpt>
      <trkpt lat="45.86676" lon="4.66081">
        <ele>210.07097</ele>
        <time>2022-10-04T11:21:26.000Z</time>
      </trkpt>
      <trkpt lat="45.86681" lon="4.6608">
        <ele>210.21713</ele>
        <time>2022-10-04T11:21:27.000Z</time>
      </trkpt>
      <trkpt lat="45.86685" lon="4.66078">
        <ele>210.34079</ele>
        <time>2022-10-04T11:21:28.000Z</time>
      </trkpt>
      <trkpt lat="45.8669" lon="4.66075">
        <ele>210.45906</ele>
        <time>2022-10-04T11:21:29.000Z</time>
      </trkpt>
      <trkpt lat="45.86698" lon="4.66075">
        <ele>210.61272</ele>
        <time>2022-10-04T11:21:30.000Z</time>
      </trkpt>
      <trkpt lat="45.86701" lon="4.66073">
        <ele>210.86072</ele>
        <time>2022-10-04T11:21:31.000Z</time>
      </trkpt>
      <trkpt lat="45.86705" lon="4.6607">
        <ele>211.13211</ele>
        <time>2022-10-04T11:21:32.000Z</time>
      </trkpt>
      <trkpt lat="45.86709" lon="4.66066">
        <ele>211.40967</ele>
        <time>2022-10-04T11:21:33.000Z</time>
      </trkpt>
      <trkpt lat="45.86712" lon="4.66062">
        <ele>211.64775</ele>
        <time>2022-10-04T11:21:34.000Z</time>
      </trkpt>
      <trkpt lat="45.86719" lon="4.66059">
        <ele>211.89922</ele>
        <time>2022-10-04T11:21:35.000Z</time>
      </trkpt>
      <trkpt lat="45.86721" lon="4.66052">
        <ele>212.08936</ele>
        <time>2022-10-04T11:21:36.000Z</time>
      </trkpt>
      <trkpt lat="45.86729" lon="4.66054">
        <ele>212.23196</ele>
        <time>2022-10-04T11:21:37.000Z</time>
      </trkpt>
      <trkpt lat="45.86735" lon="4.6605">
        <ele>212.42374</ele>
        <time>2022-10-04T11:21:38.000Z</time>
      </trkpt>
      <trkpt lat="45.86738" lon="4.66049">
        <ele>212.6855</ele>
        <time>2022-10-04T11:21:39.000Z</time>
      </trkpt>
      <trkpt lat="45.86745" lon="4.66048">
        <ele>212.85953</ele>
        <time>2022-10-04T11:21:40.000Z</time>
      </trkpt>
      <trkpt lat="45.86749" lon="4.66041">
        <ele>213.01653</ele>
        <time>2022-10-04T11:21:41.000Z</time>
      </trkpt>
      <trkpt lat="45.86753" lon="4.66036">
        <ele>213.23145</ele>
        <time>2022-10-04T11:21:42.000Z</time>
      </trkpt>
      <trkpt lat="45.86756" lon="4.66031">
        <ele>213.35312</ele>
        <time>2022-10-04T11:21:43.000Z</time>
      </trkpt>
      <trkpt lat="45.86761" lon="4.66029">
        <ele>213.38986</ele>
        <time>2022-10-04T11:21:44.000Z</time>
      </trkpt>
      <trkpt lat="45.86765" lon="4.66023">
        <ele>213.40694</ele>
        <time>2022-10-04T11:21:45.000Z</time>
      </trkpt>
      <trkpt lat="45.86769" lon="4.66022">
        <ele>213.38057</ele>
        <time>2022-10-04T11:21:46.000Z</time>
      </trkpt>
      <trkpt lat="45.86772" lon="4.66012">
        <ele>213.41287</ele>
        <time>2022-10-04T11:21:47.000Z</time>
      </trkpt>
      <trkpt lat="45.86774" lon="4.66009">
        <ele>213.37228</ele>
        <time>2022-10-04T11:21:48.000Z</time>
      </trkpt>
      <trkpt lat="45.8678" lon="4.66004">
        <ele>213.3217</ele>
        <time>2022-10-04T11:21:49.000Z</time>
      </trkpt>
      <trkpt lat="45.86784" lon="4.65995">
        <ele>213.29599</ele>
        <time>2022-10-04T11:21:50.000Z</time>
      </trkpt>
      <trkpt lat="45.86788" lon="4.6599">
        <ele>213.26062</ele>
        <time>2022-10-04T11:21:51.000Z</time>
      </trkpt>
      <trkpt lat="45.86794" lon="4.6599">
        <ele>213.13809</ele>
        <time>2022-10-04T11:21:52.000Z</time>
      </trkpt>
      <trkpt lat="45.86797" lon="4.65985">
        <ele>213.01877</ele>
        <time>2022-10-04T11:21:53.000Z</time>
      </trkpt>
      <trkpt lat="45.86802" lon="4.65977">
        <ele>212.96257</ele>
        <time>2022-10-04T11:21:54.000Z</time>
      </trkpt>
      <trkpt lat="45.86804" lon="4.65973">
        <ele>212.86569</ele>
        <time>2022-10-04T11:21:55.000Z</time>
      </trkpt>
      <trkpt lat="45.86806" lon="4.65965">
        <ele>212.83926</ele>
        <time>2022-10-04T11:21:56.000Z</time>
      </trkpt>
      <trkpt lat="45.8681" lon="4.65958">
        <ele>212.80679</ele>
        <time>2022-10-04T11:21:57.000Z</time>
      </trkpt>
      <trkpt lat="45.86813" lon="4.6595">
        <ele>212.70674</ele>
        <time>2022-10-04T11:21:58.000Z</time>
      </trkpt>
      <trkpt lat="45.86816" lon="4.65944">
        <ele>212.61121</ele>
        <time>2022-10-04T11:21:59.000Z</time>
      </trkpt>
      <trkpt lat="45.8682" lon="4.65936">
        <ele>212.5387</ele>
        <time>2022-10-04T11:22:00.000Z</time>
      </trkpt>
      <trkpt lat="45.86824" lon="4.65931">
        <ele>212.48262</ele>
        <time>2022-10-04T11:22:01.000Z</time>
      </trkpt>
      <trkpt lat="45.86828" lon="4.65923">
        <ele>212.4239</ele>
        <time>2022-10-04T11:22:02.000Z</time>
      </trkpt>
      <trkpt lat="45.86832" lon="4.65916">
        <ele>212.43413</ele>
        <time>2022-10-04T11:22:03.000Z</time>
      </trkpt>
      <trkpt lat="45.86836" lon="4.65909">
        <ele>212.4731</ele>
        <time>2022-10-04T11:22:04.000Z</time>
      </trkpt>
      <trkpt lat="45.8684" lon="4.65904">
        <ele>212.45512</ele>
        <time>2022-10-04T11:22:05.000Z</time>
      </trkpt>
      <trkpt lat="45.86843" lon="4.65896">
        <ele>212.60437</ele>
        <time>2022-10-04T11:22:06.000Z</time>
      </trkpt>
      <trkpt lat="45.86847" lon="4.65888">
        <ele>212.80237</ele>
        <time>2022-10-04T11:22:07.000Z</time>
      </trkpt>
      <trkpt lat="45.8685" lon="4.65882">
        <ele>213.009</ele>
        <time>2022-10-04T11:22:08.000Z</time>
      </trkpt>
      <trkpt lat="45.86854" lon="4.65876">
        <ele>213.20068</ele>
        <time>2022-10-04T11:22:09.000Z</time>
      </trkpt>
      <trkpt lat="45.86858" lon="4.65867">
        <ele>213.4106</ele>
        <time>2022-10-04T11:22:10.000Z</time>
      </trkpt>
      <trkpt lat="45.86862" lon="4.65858">
        <ele>213.60107</ele>
        <time>2022-10-04T11:22:11.000Z</time>
      </trkpt>
      <trkpt lat="45.86865" lon="4.65852">
        <ele>213.90141</ele>
        <time>2022-10-04T11:22:12.000Z</time>
      </trkpt>
      <trkpt lat="45.86866" lon="4.65843">
        <ele>214.12839</ele>
        <time>2022-10-04T11:22:13.000Z</time>
      </trkpt>
      <trkpt lat="45.8687" lon="4.65834">
        <ele>214.29195</ele>
        <time>2022-10-04T11:22:14.000Z</time>
      </trkpt>
      <trkpt lat="45.86871" lon="4.65824">
        <ele>214.47571</ele>
        <time>2022-10-04T11:22:15.000Z</time>
      </trkpt>
      <trkpt lat="45.86874" lon="4.65816">
        <ele>214.67656</ele>
        <time>2022-10-04T11:22:16.000Z</time>
      </trkpt>
      <trkpt lat="45.86876" lon="4.65807">
        <ele>214.92117</ele>
        <time>2022-10-04T11:22:17.000Z</time>
      </trkpt>
      <trkpt lat="45.86877" lon="4.658">
        <ele>215.15266</ele>
        <time>2022-10-04T11:22:18.000Z</time>
      </trkpt>
      <trkpt lat="45.86879" lon="4.65791">
        <ele>215.39717</ele>
        <time>2022-10-04T11:22:19.000Z</time>
      </trkpt>
      <trkpt lat="45.86881" lon="4.65782">
        <ele>215.67892</ele>
        <time>2022-10-04T11:22:20.000Z</time>
      </trkpt>
      <trkpt lat="45.86882" lon="4.65773">
        <ele>215.96228</ele>
        <time>2022-10-04T11:22:21.000Z</time>
      </trkpt>
      <trkpt lat="45.86885" lon="4.65764">
        <ele>216.24918</ele>
        <time>2022-10-04T11:22:22.000Z</time>
      </trkpt>
      <trkpt lat="45.86888" lon="4.65754">
        <ele>216.46301</ele>
        <time>2022-10-04T11:22:23.000Z</time>
      </trkpt>
      <trkpt lat="45.86891" lon="4.65746">
        <ele>216.59343</ele>
        <time>2022-10-04T11:22:24.000Z</time>
      </trkpt>
      <trkpt lat="45.86891" lon="4.65736">
        <ele>216.70761</ele>
        <time>2022-10-04T11:22:25.000Z</time>
      </trkpt>
      <trkpt lat="45.86891" lon="4.65727">
        <ele>216.74553</ele>
        <time>2022-10-04T11:22:26.000Z</time>
      </trkpt>
      <trkpt lat="45.86891" lon="4.65718">
        <ele>216.79813</ele>
        <time>2022-10-04T11:22:27.000Z</time>
      </trkpt>
      <trkpt lat="45.86891" lon="4.6571">
        <ele>216.82947</ele>
        <time>2022-10-04T11:22:28.000Z</time>
      </trkpt>
      <trkpt lat="45.8689" lon="4.65699">
        <ele>216.8912</ele>
        <time>2022-10-04T11:22:29.000Z</time>
      </trkpt>
      <trkpt lat="45.86893" lon="4.65692">
        <ele>216.7601</ele>
        <time>2022-10-04T11:22:30.000Z</time>
      </trkpt>
      <trkpt lat="45.86895" lon="4.65681">
        <ele>216.62463</ele>
        <time>2022-10-04T11:22:31.000Z</time>
      </trkpt>
      <trkpt lat="45.86896" lon="4.65668">
        <ele>216.43118</ele>
        <time>2022-10-04T11:22:32.000Z</time>
      </trkpt>
      <trkpt lat="45.86897" lon="4.6566">
        <ele>216.1917</ele>
        <time>2022-10-04T11:22:33.000Z</time>
      </trkpt>
      <trkpt lat="45.86897" lon="4.65652">
        <ele>215.9296</ele>
        <time>2022-10-04T11:22:34.000Z</time>
      </trkpt>
      <trkpt lat="45.86897" lon="4.65642">
        <ele>215.769</ele>
        <time>2022-10-04T11:22:35.000Z</time>
      </trkpt>
      <trkpt lat="45.86895" lon="4.65635">
        <ele>215.52478</ele>
        <time>2022-10-04T11:22:36.000Z</time>
      </trkpt>
      <trkpt lat="45.86897" lon="4.65625">
        <ele>215.25252</ele>
        <time>2022-10-04T11:22:37.000Z</time>
      </trkpt>
      <trkpt lat="45.86898" lon="4.65613">
        <ele>215.02328</ele>
        <time>2022-10-04T11:22:38.000Z</time>
      </trkpt>
      <trkpt lat="45.869" lon="4.65602">
        <ele>214.83151</ele>
        <time>2022-10-04T11:22:39.000Z</time>
      </trkpt>
      <trkpt lat="45.86902" lon="4.65592">
        <ele>214.63277</ele>
        <time>2022-10-04T11:22:40.000Z</time>
      </trkpt>
      <trkpt lat="45.86906" lon="4.65582">
        <ele>214.35757</ele>
        <time>2022-10-04T11:22:41.000Z</time>
      </trkpt>
      <trkpt lat="45.86906" lon="4.65571">
        <ele>214.17245</ele>
        <time>2022-10-04T11:22:42.000Z</time>
      </trkpt>
      <trkpt lat="45.86909" lon="4.65562">
        <ele>214.12881</ele>
        <time>2022-10-04T11:22:43.000Z</time>
      </trkpt>
      <trkpt lat="45.86912" lon="4.65552">
        <ele>214.09183</ele>
        <time>2022-10-04T11:22:44.000Z</time>
      </trkpt>
      <trkpt lat="45.86917" lon="4.65543">
        <ele>214.01802</ele>
        <time>2022-10-04T11:22:45.000Z</time>
      </trkpt>
      <trkpt lat="45.86921" lon="4.65532">
        <ele>213.91708</ele>
        <time>2022-10-04T11:22:46.000Z</time>
      </trkpt>
      <trkpt lat="45.86924" lon="4.65523">
        <ele>213.69485</ele>
        <time>2022-10-04T11:22:47.000Z</time>
      </trkpt>
      <trkpt lat="45.86929" lon="4.65513">
        <ele>213.52615</ele>
        <time>2022-10-04T11:22:48.000Z</time>
      </trkpt>
      <trkpt lat="45.86934" lon="4.65504">
        <ele>213.29936</ele>
        <time>2022-10-04T11:22:49.000Z</time>
      </trkpt>
      <trkpt lat="45.86938" lon="4.65497">
        <ele>213.20309</ele>
        <time>2022-10-04T11:22:50.000Z</time>
      </trkpt>
      <trkpt lat="45.86942" lon="4.65488">
        <ele>213.10828</ele>
        <time>2022-10-04T11:22:51.000Z</time>
      </trkpt>
      <trkpt lat="45.86946" lon="4.65481">
        <ele>213.04062</ele>
        <time>2022-10-04T11:22:52.000Z</time>
      </trkpt>
      <trkpt lat="45.86952" lon="4.65475">
        <ele>212.96158</ele>
        <time>2022-10-04T11:22:53.000Z</time>
      </trkpt>
      <trkpt lat="45.86957" lon="4.65468">
        <ele>212.91013</ele>
        <time>2022-10-04T11:22:54.000Z</time>
      </trkpt>
      <trkpt lat="45.86963" lon="4.6546">
        <ele>212.7832</ele>
        <time>2022-10-04T11:22:55.000Z</time>
      </trkpt>
      <trkpt lat="45.86967" lon="4.65449">
        <ele>212.6993</ele>
        <time>2022-10-04T11:22:56.000Z</time>
      </trkpt>
      <trkpt lat="45.86973" lon="4.65447">
        <ele>212.55063</ele>
        <time>2022-10-04T11:22:57.000Z</time>
      </trkpt>
      <trkpt lat="45.86977" lon="4.65439">
        <ele>212.41806</ele>
        <time>2022-10-04T11:22:58.000Z</time>
      </trkpt>
      <trkpt lat="45.86983" lon="4.65435">
        <ele>212.18694</ele>
        <time>2022-10-04T11:22:59.000Z</time>
      </trkpt>
      <trkpt lat="45.86988" lon="4.65427">
        <ele>211.87997</ele>
        <time>2022-10-04T11:23:00.000Z</time>
      </trkpt>
      <trkpt lat="45.86994" lon="4.65425">
        <ele>211.61491</ele>
        <time>2022-10-04T11:23:01.000Z</time>
      </trkpt>
      <trkpt lat="45.86999" lon="4.65415">
        <ele>211.24072</ele>
        <time>2022-10-04T11:23:02.000Z</time>
      </trkpt>
      <trkpt lat="45.87005" lon="4.6541">
        <ele>210.82524</ele>
        <time>2022-10-04T11:23:03.000Z</time>
      </trkpt>
      <trkpt lat="45.87011" lon="4.65405">
        <ele>210.46402</ele>
        <time>2022-10-04T11:23:04.000Z</time>
      </trkpt>
      <trkpt lat="45.87017" lon="4.65403">
        <ele>210.16333</ele>
        <time>2022-10-04T11:23:05.000Z</time>
      </trkpt>
      <trkpt lat="45.87023" lon="4.654">
        <ele>209.79138</ele>
        <time>2022-10-04T11:23:06.000Z</time>
      </trkpt>
      <trkpt lat="45.87027" lon="4.65396">
        <ele>209.40091</ele>
        <time>2022-10-04T11:23:07.000Z</time>
      </trkpt>
      <trkpt lat="45.87031" lon="4.65386">
        <ele>209.00778</ele>
        <time>2022-10-04T11:23:08.000Z</time>
      </trkpt>
      <trkpt lat="45.87035" lon="4.65377">
        <ele>208.6156</ele>
        <time>2022-10-04T11:23:09.000Z</time>
      </trkpt>
      <trkpt lat="45.87039" lon="4.65366">
        <ele>208.29712</ele>
        <time>2022-10-04T11:23:10.000Z</time>
      </trkpt>
      <trkpt lat="45.87042" lon="4.65356">
        <ele>208.05576</ele>
        <time>2022-10-04T11:23:11.000Z</time>
      </trkpt>
      <trkpt lat="45.87047" lon="4.65348">
        <ele>207.8571</ele>
        <time>2022-10-04T11:23:12.000Z</time>
      </trkpt>
      <trkpt lat="45.87052" lon="4.65341">
        <ele>207.85727</ele>
        <time>2022-10-04T11:23:13.000Z</time>
      </trkpt>
      <trkpt lat="45.87055" lon="4.65331">
        <ele>207.85229</ele>
        <time>2022-10-04T11:23:14.000Z</time>
      </trkpt>
      <trkpt lat="45.87061" lon="4.65326">
        <ele>207.80183</ele>
        <time>2022-10-04T11:23:15.000Z</time>
      </trkpt>
      <trkpt lat="45.87066" lon="4.65318">
        <ele>207.7397</ele>
        <time>2022-10-04T11:23:16.000Z</time>
      </trkpt>
      <trkpt lat="45.8707" lon="4.65313">
        <ele>207.6722</ele>
        <time>2022-10-04T11:23:17.000Z</time>
      </trkpt>
      <trkpt lat="45.87072" lon="4.65306">
        <ele>207.55008</ele>
        <time>2022-10-04T11:23:18.000Z</time>
      </trkpt>
      <trkpt lat="45.87076" lon="4.65298">
        <ele>207.4344</ele>
        <time>2022-10-04T11:23:19.000Z</time>
      </trkpt>
      <trkpt lat="45.87078" lon="4.65288">
        <ele>207.5455</ele>
        <time>2022-10-04T11:23:20.000Z</time>
      </trkpt>
      <trkpt lat="45.87081" lon="4.6528">
        <ele>207.68002</ele>
        <time>2022-10-04T11:23:21.000Z</time>
      </trkpt>
      <trkpt lat="45.87084" lon="4.65274">
        <ele>207.76404</ele>
        <time>2022-10-04T11:23:22.000Z</time>
      </trkpt>
      <trkpt lat="45.87089" lon="4.65272">
        <ele>207.79105</ele>
        <time>2022-10-04T11:23:23.000Z</time>
      </trkpt>
      <trkpt lat="45.87093" lon="4.65268">
        <ele>207.81082</ele>
        <time>2022-10-04T11:23:24.000Z</time>
      </trkpt>
      <trkpt lat="45.87098" lon="4.65259">
        <ele>207.75854</ele>
        <time>2022-10-04T11:23:25.000Z</time>
      </trkpt>
      <trkpt lat="45.87099" lon="4.6525">
        <ele>207.78647</ele>
        <time>2022-10-04T11:23:26.000Z</time>
      </trkpt>
      <trkpt lat="45.87102" lon="4.6524">
        <ele>207.85774</ele>
        <time>2022-10-04T11:23:27.000Z</time>
      </trkpt>
      <trkpt lat="45.87106" lon="4.65233">
        <ele>207.94112</ele>
        <time>2022-10-04T11:23:28.000Z</time>
      </trkpt>
      <trkpt lat="45.87111" lon="4.65223">
        <ele>208.04968</ele>
        <time>2022-10-04T11:23:29.000Z</time>
      </trkpt>
      <trkpt lat="45.87115" lon="4.65215">
        <ele>208.10782</ele>
        <time>2022-10-04T11:23:30.000Z</time>
      </trkpt>
      <trkpt lat="45.87117" lon="4.65208">
        <ele>208.08476</ele>
        <time>2022-10-04T11:23:31.000Z</time>
      </trkpt>
      <trkpt lat="45.87121" lon="4.65203">
        <ele>207.9622</ele>
        <time>2022-10-04T11:23:32.000Z</time>
      </trkpt>
      <trkpt lat="45.87124" lon="4.65194">
        <ele>207.67191</ele>
        <time>2022-10-04T11:23:33.000Z</time>
      </trkpt>
      <trkpt lat="45.87128" lon="4.65188">
        <ele>207.42212</ele>
        <time>2022-10-04T11:23:34.000Z</time>
      </trkpt>
      <trkpt lat="45.87132" lon="4.65181">
        <ele>207.29008</ele>
        <time>2022-10-04T11:23:35.000Z</time>
      </trkpt>
      <trkpt lat="45.87135" lon="4.65174">
        <ele>207.23657</ele>
        <time>2022-10-04T11:23:36.000Z</time>
      </trkpt>
      <trkpt lat="45.87138" lon="4.65168">
        <ele>207.34714</ele>
        <time>2022-10-04T11:23:37.000Z</time>
      </trkpt>
      <trkpt lat="45.87141" lon="4.65161">
        <ele>207.46225</ele>
        <time>2022-10-04T11:23:38.000Z</time>
      </trkpt>
      <trkpt lat="45.87145" lon="4.65155">
        <ele>207.61174</ele>
        <time>2022-10-04T11:23:39.000Z</time>
      </trkpt>
      <trkpt lat="45.87165" lon="4.6512">
        <ele>207.68069</ele>
        <time>2022-10-04T11:23:44.000Z</time>
      </trkpt>
      <trkpt lat="45.87168" lon="4.65115">
        <ele>207.76389</ele>
        <time>2022-10-04T11:23:45.000Z</time>
      </trkpt>
      <trkpt lat="45.87171" lon="4.65109">
        <ele>207.93362</ele>
        <time>2022-10-04T11:23:46.000Z</time>
      </trkpt>
      <trkpt lat="45.87174" lon="4.65104">
        <ele>208.1095</ele>
        <time>2022-10-04T11:23:47.000Z</time>
      </trkpt>
      <trkpt lat="45.87179" lon="4.65097">
        <ele>208.30693</ele>
        <time>2022-10-04T11:23:48.000Z</time>
      </trkpt>
      <trkpt lat="45.87182" lon="4.65089">
        <ele>208.53125</ele>
        <time>2022-10-04T11:23:49.000Z</time>
      </trkpt>
      <trkpt lat="45.87186" lon="4.65082">
        <ele>208.73193</ele>
        <time>2022-10-04T11:23:50.000Z</time>
      </trkpt>
      <trkpt lat="45.87189" lon="4.65075">
        <ele>208.96431</ele>
        <time>2022-10-04T11:23:51.000Z</time>
      </trkpt>
      <trkpt lat="45.87194" lon="4.65068">
        <ele>209.16008</ele>
        <time>2022-10-04T11:23:52.000Z</time>
      </trkpt>
      <trkpt lat="45.87199" lon="4.65064">
        <ele>209.40707</ele>
        <time>2022-10-04T11:23:53.000Z</time>
      </trkpt>
      <trkpt lat="45.87203" lon="4.65059">
        <ele>209.60947</ele>
        <time>2022-10-04T11:23:54.000Z</time>
      </trkpt>
      <trkpt lat="45.87207" lon="4.65052">
        <ele>209.74785</ele>
        <time>2022-10-04T11:23:55.000Z</time>
      </trkpt>
      <trkpt lat="45.87211" lon="4.65045">
        <ele>209.81442</ele>
        <time>2022-10-04T11:23:56.000Z</time>
      </trkpt>
      <trkpt lat="45.87215" lon="4.65038">
        <ele>209.98044</ele>
        <time>2022-10-04T11:23:57.000Z</time>
      </trkpt>
      <trkpt lat="45.87218" lon="4.65031">
        <ele>210.1478</ele>
        <time>2022-10-04T11:23:58.000Z</time>
      </trkpt>
      <trkpt lat="45.87224" lon="4.65028">
        <ele>210.32895</ele>
        <time>2022-10-04T11:23:59.000Z</time>
      </trkpt>
      <trkpt lat="45.87228" lon="4.6502">
        <ele>210.40276</ele>
        <time>2022-10-04T11:24:00.000Z</time>
      </trkpt>
      <trkpt lat="45.87232" lon="4.65013">
        <ele>210.42993</ele>
        <time>2022-10-04T11:24:01.000Z</time>
      </trkpt>
      <trkpt lat="45.87236" lon="4.65007">
        <ele>210.53891</ele>
        <time>2022-10-04T11:24:02.000Z</time>
      </trkpt>
      <trkpt lat="45.87239" lon="4.65002">
        <ele>210.71582</ele>
        <time>2022-10-04T11:24:03.000Z</time>
      </trkpt>
      <trkpt lat="45.87244" lon="4.64995">
        <ele>210.85852</ele>
        <time>2022-10-04T11:24:04.000Z</time>
      </trkpt>
      <trkpt lat="45.87247" lon="4.64989">
        <ele>211.00455</ele>
        <time>2022-10-04T11:24:05.000Z</time>
      </trkpt>
      <trkpt lat="45.87251" lon="4.64981">
        <ele>211.14795</ele>
        <time>2022-10-04T11:24:06.000Z</time>
      </trkpt>
      <trkpt lat="45.87256" lon="4.64975">
        <ele>211.31633</ele>
        <time>2022-10-04T11:24:07.000Z</time>
      </trkpt>
      <trkpt lat="45.8726" lon="4.6497">
        <ele>211.39737</ele>
        <time>2022-10-04T11:24:08.000Z</time>
      </trkpt>
      <trkpt lat="45.87264" lon="4.64966">
        <ele>211.42915</ele>
        <time>2022-10-04T11:24:09.000Z</time>
      </trkpt>
      <trkpt lat="45.87267" lon="4.6496">
        <ele>211.46538</ele>
        <time>2022-10-04T11:24:10.000Z</time>
      </trkpt>
      <trkpt lat="45.87272" lon="4.64954">
        <ele>211.48335</ele>
        <time>2022-10-04T11:24:11.000Z</time>
      </trkpt>
      <trkpt lat="45.87275" lon="4.64947">
        <ele>211.56906</ele>
        <time>2022-10-04T11:24:12.000Z</time>
      </trkpt>
      <trkpt lat="45.87279" lon="4.6494">
        <ele>211.58032</ele>
        <time>2022-10-04T11:24:13.000Z</time>
      </trkpt>
      <trkpt lat="45.87284" lon="4.64935">
        <ele>211.62949</ele>
        <time>2022-10-04T11:24:14.000Z</time>
      </trkpt>
      <trkpt lat="45.87289" lon="4.64927">
        <ele>211.7731</ele>
        <time>2022-10-04T11:24:15.000Z</time>
      </trkpt>
      <trkpt lat="45.87292" lon="4.64921">
        <ele>212.01437</ele>
        <time>2022-10-04T11:24:16.000Z</time>
      </trkpt>
      <trkpt lat="45.87295" lon="4.64915">
        <ele>212.298</ele>
        <time>2022-10-04T11:24:17.000Z</time>
      </trkpt>
      <trkpt lat="45.873" lon="4.6491">
        <ele>212.60831</ele>
        <time>2022-10-04T11:24:18.000Z</time>
      </trkpt>
      <trkpt lat="45.87304" lon="4.64905">
        <ele>212.82901</ele>
        <time>2022-10-04T11:24:19.000Z</time>
      </trkpt>
      <trkpt lat="45.8731" lon="4.64903">
        <ele>213.15337</ele>
        <time>2022-10-04T11:24:20.000Z</time>
      </trkpt>
      <trkpt lat="45.87313" lon="4.64896">
        <ele>213.49533</ele>
        <time>2022-10-04T11:24:21.000Z</time>
      </trkpt>
      <trkpt lat="45.87316" lon="4.64888">
        <ele>213.84018</ele>
        <time>2022-10-04T11:24:22.000Z</time>
      </trkpt>
      <trkpt lat="45.87319" lon="4.64882">
        <ele>214.06494</ele>
        <time>2022-10-04T11:24:23.000Z</time>
      </trkpt>
      <trkpt lat="45.87324" lon="4.64876">
        <ele>214.24911</ele>
        <time>2022-10-04T11:24:24.000Z</time>
      </trkpt>
      <trkpt lat="45.87328" lon="4.6487">
        <ele>214.38887</ele>
        <time>2022-10-04T11:24:25.000Z</time>
      </trkpt>
      <trkpt lat="45.87332" lon="4.64866">
        <ele>214.46609</ele>
        <time>2022-10-04T11:24:26.000Z</time>
      </trkpt>
      <trkpt lat="45.87336" lon="4.64858">
        <ele>214.53928</ele>
        <time>2022-10-04T11:24:27.000Z</time>
      </trkpt>
      <trkpt lat="45.8734" lon="4.64852">
        <ele>214.69394</ele>
        <time>2022-10-04T11:24:28.000Z</time>
      </trkpt>
      <trkpt lat="45.87343" lon="4.64845">
        <ele>214.9041</ele>
        <time>2022-10-04T11:24:29.000Z</time>
      </trkpt>
      <trkpt lat="45.87347" lon="4.64839">
        <ele>215.09439</ele>
        <time>2022-10-04T11:24:30.000Z</time>
      </trkpt>
      <trkpt lat="45.87351" lon="4.64832">
        <ele>215.20613</ele>
        <time>2022-10-04T11:24:31.000Z</time>
      </trkpt>
      <trkpt lat="45.87355" lon="4.64826">
        <ele>215.32625</ele>
        <time>2022-10-04T11:24:32.000Z</time>
      </trkpt>
      <trkpt lat="45.87358" lon="4.6482">
        <ele>215.4882</ele>
        <time>2022-10-04T11:24:33.000Z</time>
      </trkpt>
      <trkpt lat="45.87362" lon="4.64814">
        <ele>215.61653</ele>
        <time>2022-10-04T11:24:34.000Z</time>
      </trkpt>
      <trkpt lat="45.87366" lon="4.64809">
        <ele>215.75882</ele>
        <time>2022-10-04T11:24:35.000Z</time>
      </trkpt>
      <trkpt lat="45.8737" lon="4.64803">
        <ele>215.92281</ele>
        <time>2022-10-04T11:24:36.000Z</time>
      </trkpt>
      <trkpt lat="45.87375" lon="4.64797">
        <ele>216.01175</ele>
        <time>2022-10-04T11:24:37.000Z</time>
      </trkpt>
      <trkpt lat="45.87379" lon="4.64791">
        <ele>216.07809</ele>
        <time>2022-10-04T11:24:38.000Z</time>
      </trkpt>
      <trkpt lat="45.87383" lon="4.64785">
        <ele>216.14478</ele>
        <time>2022-10-04T11:24:39.000Z</time>
      </trkpt>
      <trkpt lat="45.87387" lon="4.64779">
        <ele>216.15388</ele>
        <time>2022-10-04T11:24:40.000Z</time>
      </trkpt>
      <trkpt lat="45.87391" lon="4.64772">
        <ele>216.06509</ele>
        <time>2022-10-04T11:24:41.000Z</time>
      </trkpt>
      <trkpt lat="45.87395" lon="4.64766">
        <ele>215.87578</ele>
        <time>2022-10-04T11:24:42.000Z</time>
      </trkpt>
      <trkpt lat="45.87399" lon="4.64758">
        <ele>215.64839</ele>
        <time>2022-10-04T11:24:43.000Z</time>
      </trkpt>
      <trkpt lat="45.87403" lon="4.64752">
        <ele>215.3801</ele>
        <time>2022-10-04T11:24:44.000Z</time>
      </trkpt>
      <trkpt lat="45.87408" lon="4.64748">
        <ele>215.06522</ele>
        <time>2022-10-04T11:24:45.000Z</time>
      </trkpt>
      <trkpt lat="45.87411" lon="4.64742">
        <ele>214.76836</ele>
        <time>2022-10-04T11:24:46.000Z</time>
      </trkpt>
      <trkpt lat="45.87415" lon="4.64736">
        <ele>214.52209</ele>
        <time>2022-10-04T11:24:47.000Z</time>
      </trkpt>
      <trkpt lat="45.87419" lon="4.64731">
        <ele>214.25668</ele>
        <time>2022-10-04T11:24:48.000Z</time>
      </trkpt>
      <trkpt lat="45.87423" lon="4.64725">
        <ele>214.01257</ele>
        <time>2022-10-04T11:24:49.000Z</time>
      </trkpt>
      <trkpt lat="45.87428" lon="4.64718">
        <ele>213.78845</ele>
        <time>2022-10-04T11:24:50.000Z</time>
      </trkpt>
      <trkpt lat="45.87432" lon="4.64712">
        <ele>213.6189</ele>
        <time>2022-10-04T11:24:51.000Z</time>
      </trkpt>
      <trkpt lat="45.87435" lon="4.64706">
        <ele>213.44751</ele>
        <time>2022-10-04T11:24:52.000Z</time>
      </trkpt>
      <trkpt lat="45.87439" lon="4.647">
        <ele>213.2872</ele>
        <time>2022-10-04T11:24:53.000Z</time>
      </trkpt>
      <trkpt lat="45.87443" lon="4.64694">
        <ele>213.16177</ele>
        <time>2022-10-04T11:24:54.000Z</time>
      </trkpt>
      <trkpt lat="45.87447" lon="4.64687">
        <ele>213.00598</ele>
        <time>2022-10-04T11:24:55.000Z</time>
      </trkpt>
      <trkpt lat="45.87451" lon="4.6468">
        <ele>212.8477</ele>
        <time>2022-10-04T11:24:56.000Z</time>
      </trkpt>
      <trkpt lat="45.87456" lon="4.64674">
        <ele>212.64847</ele>
        <time>2022-10-04T11:24:57.000Z</time>
      </trkpt>
      <trkpt lat="45.87459" lon="4.64668">
        <ele>212.4144</ele>
        <time>2022-10-04T11:24:58.000Z</time>
      </trkpt>
      <trkpt lat="45.87462" lon="4.64661">
        <ele>212.2135</ele>
        <time>2022-10-04T11:24:59.000Z</time>
      </trkpt>
      <trkpt lat="45.87466" lon="4.64655">
        <ele>212.0321</ele>
        <time>2022-10-04T11:25:00.000Z</time>
      </trkpt>
      <trkpt lat="45.8747" lon="4.64649">
        <ele>211.88272</ele>
        <time>2022-10-04T11:25:01.000Z</time>
      </trkpt>
      <trkpt lat="45.87474" lon="4.64643">
        <ele>211.74301</ele>
        <time>2022-10-04T11:25:02.000Z</time>
      </trkpt>
      <trkpt lat="45.87477" lon="4.64637">
        <ele>211.71916</ele>
        <time>2022-10-04T11:25:03.000Z</time>
      </trkpt>
      <trkpt lat="45.87481" lon="4.64629">
        <ele>211.77664</ele>
        <time>2022-10-04T11:25:04.000Z</time>
      </trkpt>
      <trkpt lat="45.87486" lon="4.64622">
        <ele>211.88126</ele>
        <time>2022-10-04T11:25:05.000Z</time>
      </trkpt>
      <trkpt lat="45.87489" lon="4.64616">
        <ele>212.01572</ele>
        <time>2022-10-04T11:25:06.000Z</time>
      </trkpt>
      <trkpt lat="45.87492" lon="4.64608">
        <ele>212.10312</ele>
        <time>2022-10-04T11:25:07.000Z</time>
      </trkpt>
      <trkpt lat="45.87494" lon="4.64602">
        <ele>212.21008</ele>
        <time>2022-10-04T11:25:08.000Z</time>
      </trkpt>
      <trkpt lat="45.87498" lon="4.64594">
        <ele>212.31714</ele>
        <time>2022-10-04T11:25:09.000Z</time>
      </trkpt>
      <trkpt lat="45.87502" lon="4.6459">
        <ele>212.41507</ele>
        <time>2022-10-04T11:25:10.000Z</time>
      </trkpt>
      <trkpt lat="45.87506" lon="4.64585">
        <ele>212.5376</ele>
        <time>2022-10-04T11:25:11.000Z</time>
      </trkpt>
      <trkpt lat="45.87509" lon="4.64581">
        <ele>212.53964</ele>
        <time>2022-10-04T11:25:12.000Z</time>
      </trkpt>
      <trkpt lat="45.87513" lon="4.64575">
        <ele>212.49284</ele>
        <time>2022-10-04T11:25:13.000Z</time>
      </trkpt>
      <trkpt lat="45.87517" lon="4.64568">
        <ele>212.41458</ele>
        <time>2022-10-04T11:25:14.000Z</time>
      </trkpt>
      <trkpt lat="45.8752" lon="4.64559">
        <ele>212.32576</ele>
        <time>2022-10-04T11:25:15.000Z</time>
      </trkpt>
      <trkpt lat="45.87523" lon="4.64552">
        <ele>212.21542</ele>
        <time>2022-10-04T11:25:16.000Z</time>
      </trkpt>
      <trkpt lat="45.87527" lon="4.64546">
        <ele>212.12448</ele>
        <time>2022-10-04T11:25:17.000Z</time>
      </trkpt>
      <trkpt lat="45.8753" lon="4.6454">
        <ele>212.03677</ele>
        <time>2022-10-04T11:25:18.000Z</time>
      </trkpt>
      <trkpt lat="45.87534" lon="4.64534">
        <ele>211.91609</ele>
        <time>2022-10-04T11:25:19.000Z</time>
      </trkpt>
      <trkpt lat="45.87538" lon="4.64528">
        <ele>211.78772</ele>
        <time>2022-10-04T11:25:20.000Z</time>
      </trkpt>
      <trkpt lat="45.87541" lon="4.64522">
        <ele>211.65105</ele>
        <time>2022-10-04T11:25:21.000Z</time>
      </trkpt>
      <trkpt lat="45.87544" lon="4.64515">
        <ele>211.55794</ele>
        <time>2022-10-04T11:25:22.000Z</time>
      </trkpt>
      <trkpt lat="45.87549" lon="4.64509">
        <ele>211.40701</ele>
        <time>2022-10-04T11:25:23.000Z</time>
      </trkpt>
      <trkpt lat="45.87552" lon="4.64503">
        <ele>211.2262</ele>
        <time>2022-10-04T11:25:24.000Z</time>
      </trkpt>
      <trkpt lat="45.87556" lon="4.64496">
        <ele>211.00317</ele>
        <time>2022-10-04T11:25:25.000Z</time>
      </trkpt>
      <trkpt lat="45.87559" lon="4.6449">
        <ele>210.71439</ele>
        <time>2022-10-04T11:25:26.000Z</time>
      </trkpt>
      <trkpt lat="45.87563" lon="4.64484">
        <ele>210.452</ele>
        <time>2022-10-04T11:25:27.000Z</time>
      </trkpt>
      <trkpt lat="45.87566" lon="4.64477">
        <ele>210.17615</ele>
        <time>2022-10-04T11:25:28.000Z</time>
      </trkpt>
      <trkpt lat="45.87569" lon="4.64471">
        <ele>209.85722</ele>
        <time>2022-10-04T11:25:29.000Z</time>
      </trkpt>
      <trkpt lat="45.87573" lon="4.64465">
        <ele>209.54773</ele>
        <time>2022-10-04T11:25:30.000Z</time>
      </trkpt>
      <trkpt lat="45.87577" lon="4.64459">
        <ele>209.28716</ele>
        <time>2022-10-04T11:25:31.000Z</time>
      </trkpt>
      <trkpt lat="45.87582" lon="4.64452">
        <ele>209.16064</ele>
        <time>2022-10-04T11:25:32.000Z</time>
      </trkpt>
      <trkpt lat="45.87586" lon="4.64446">
        <ele>209.07256</ele>
        <time>2022-10-04T11:25:33.000Z</time>
      </trkpt>
      <trkpt lat="45.87589" lon="4.64439">
        <ele>209.04541</ele>
        <time>2022-10-04T11:25:34.000Z</time>
      </trkpt>
      <trkpt lat="45.87593" lon="4.64435">
        <ele>208.98862</ele>
        <time>2022-10-04T11:25:35.000Z</time>
      </trkpt>
      <trkpt lat="45.87596" lon="4.6443">
        <ele>208.93022</ele>
        <time>2022-10-04T11:25:36.000Z</time>
      </trkpt>
      <trkpt lat="45.87601" lon="4.64425">
        <ele>208.90364</ele>
        <time>2022-10-04T11:25:37.000Z</time>
      </trkpt>
      <trkpt lat="45.87606" lon="4.64421">
        <ele>208.86502</ele>
        <time>2022-10-04T11:25:38.000Z</time>
      </trkpt>
      <trkpt lat="45.87609" lon="4.64413">
        <ele>208.88469</ele>
        <time>2022-10-04T11:25:39.000Z</time>
      </trkpt>
      <trkpt lat="45.87611" lon="4.64405">
        <ele>208.91377</ele>
        <time>2022-10-04T11:25:40.000Z</time>
      </trkpt>
      <trkpt lat="45.87613" lon="4.644">
        <ele>208.95096</ele>
        <time>2022-10-04T11:25:41.000Z</time>
      </trkpt>
      <trkpt lat="45.87618" lon="4.64394">
        <ele>208.99747</ele>
        <time>2022-10-04T11:25:42.000Z</time>
      </trkpt>
      <trkpt lat="45.87621" lon="4.64387">
        <ele>209.01236</ele>
        <time>2022-10-04T11:25:43.000Z</time>
      </trkpt>
      <trkpt lat="45.87624" lon="4.64381">
        <ele>209.08012</ele>
        <time>2022-10-04T11:25:44.000Z</time>
      </trkpt>
      <trkpt lat="45.87628" lon="4.64376">
        <ele>209.21541</ele>
        <time>2022-10-04T11:25:45.000Z</time>
      </trkpt>
      <trkpt lat="45.87632" lon="4.64369">
        <ele>209.39803</ele>
        <time>2022-10-04T11:25:46.000Z</time>
      </trkpt>
      <trkpt lat="45.87636" lon="4.64365">
        <ele>209.60542</ele>
        <time>2022-10-04T11:25:47.000Z</time>
      </trkpt>
      <trkpt lat="45.8764" lon="4.64357">
        <ele>209.83481</ele>
        <time>2022-10-04T11:25:48.000Z</time>
      </trkpt>
      <trkpt lat="45.87644" lon="4.64348">
        <ele>210.04004</ele>
        <time>2022-10-04T11:25:49.000Z</time>
      </trkpt>
      <trkpt lat="45.87647" lon="4.64339">
        <ele>210.31279</ele>
        <time>2022-10-04T11:25:50.000Z</time>
      </trkpt>
      <trkpt lat="45.87651" lon="4.64331">
        <ele>210.569</ele>
        <time>2022-10-04T11:25:51.000Z</time>
      </trkpt>
      <trkpt lat="45.87655" lon="4.64324">
        <ele>210.75693</ele>
        <time>2022-10-04T11:25:52.000Z</time>
      </trkpt>
      <trkpt lat="45.8766" lon="4.64318">
        <ele>210.97018</ele>
        <time>2022-10-04T11:25:53.000Z</time>
      </trkpt>
      <trkpt lat="45.87664" lon="4.64311">
        <ele>211.14136</ele>
        <time>2022-10-04T11:25:54.000Z</time>
      </trkpt>
      <trkpt lat="45.87668" lon="4.64303">
        <ele>211.33908</ele>
        <time>2022-10-04T11:25:55.000Z</time>
      </trkpt>
      <trkpt lat="45.87672" lon="4.64297">
        <ele>211.54866</ele>
        <time>2022-10-04T11:25:56.000Z</time>
      </trkpt>
      <trkpt lat="45.87676" lon="4.64291">
        <ele>211.72226</ele>
        <time>2022-10-04T11:25:57.000Z</time>
      </trkpt>
      <trkpt lat="45.87681" lon="4.64286">
        <ele>211.88057</ele>
        <time>2022-10-04T11:25:58.000Z</time>
      </trkpt>
      <trkpt lat="45.87685" lon="4.64281">
        <ele>212.01657</ele>
        <time>2022-10-04T11:25:59.000Z</time>
      </trkpt>
      <trkpt lat="45.87688" lon="4.64275">
        <ele>212.11397</ele>
        <time>2022-10-04T11:26:00.000Z</time>
      </trkpt>
      <trkpt lat="45.87694" lon="4.64269">
        <ele>212.2395</ele>
        <time>2022-10-04T11:26:01.000Z</time>
      </trkpt>
      <trkpt lat="45.87698" lon="4.64263">
        <ele>212.33887</ele>
        <time>2022-10-04T11:26:02.000Z</time>
      </trkpt>
      <trkpt lat="45.87702" lon="4.64256">
        <ele>212.53525</ele>
        <time>2022-10-04T11:26:03.000Z</time>
      </trkpt>
      <trkpt lat="45.87707" lon="4.64248">
        <ele>212.63559</ele>
        <time>2022-10-04T11:26:04.000Z</time>
      </trkpt>
      <trkpt lat="45.87711" lon="4.64242">
        <ele>212.7236</ele>
        <time>2022-10-04T11:26:05.000Z</time>
      </trkpt>
      <trkpt lat="45.87714" lon="4.64235">
        <ele>212.85483</ele>
        <time>2022-10-04T11:26:06.000Z</time>
      </trkpt>
      <trkpt lat="45.87718" lon="4.64227">
        <ele>212.90677</ele>
        <time>2022-10-04T11:26:07.000Z</time>
      </trkpt>
      <trkpt lat="45.87721" lon="4.6422">
        <ele>212.91743</ele>
        <time>2022-10-04T11:26:08.000Z</time>
      </trkpt>
      <trkpt lat="45.87726" lon="4.64215">
        <ele>212.99136</ele>
        <time>2022-10-04T11:26:09.000Z</time>
      </trkpt>
      <trkpt lat="45.8773" lon="4.64209">
        <ele>213.01057</ele>
        <time>2022-10-04T11:26:10.000Z</time>
      </trkpt>
      <trkpt lat="45.87732" lon="4.64204">
        <ele>212.99973</ele>
        <time>2022-10-04T11:26:11.000Z</time>
      </trkpt>
      <trkpt lat="45.87735" lon="4.64197">
        <ele>213.0488</ele>
        <time>2022-10-04T11:26:12.000Z</time>
      </trkpt>
      <trkpt lat="45.87739" lon="4.64191">
        <ele>213.08528</ele>
        <time>2022-10-04T11:26:13.000Z</time>
      </trkpt>
      <trkpt lat="45.87743" lon="4.64185">
        <ele>213.11655</ele>
        <time>2022-10-04T11:26:14.000Z</time>
      </trkpt>
      <trkpt lat="45.87748" lon="4.64179">
        <ele>213.10229</ele>
        <time>2022-10-04T11:26:15.000Z</time>
      </trkpt>
      <trkpt lat="45.87753" lon="4.64171">
        <ele>213.1541</ele>
        <time>2022-10-04T11:26:16.000Z</time>
      </trkpt>
      <trkpt lat="45.87757" lon="4.64163">
        <ele>213.18755</ele>
        <time>2022-10-04T11:26:17.000Z</time>
      </trkpt>
      <trkpt lat="45.87762" lon="4.64155">
        <ele>213.21176</ele>
        <time>2022-10-04T11:26:18.000Z</time>
      </trkpt>
      <trkpt lat="45.87766" lon="4.64148">
        <ele>213.20212</ele>
        <time>2022-10-04T11:26:19.000Z</time>
      </trkpt>
      <trkpt lat="45.87769" lon="4.64141">
        <ele>213.132</ele>
        <time>2022-10-04T11:26:20.000Z</time>
      </trkpt>
      <trkpt lat="45.87773" lon="4.64135">
        <ele>213.01262</ele>
        <time>2022-10-04T11:26:21.000Z</time>
      </trkpt>
      <trkpt lat="45.87776" lon="4.64129">
        <ele>212.8759</ele>
        <time>2022-10-04T11:26:22.000Z</time>
      </trkpt>
      <trkpt lat="45.87779" lon="4.64123">
        <ele>212.7305</ele>
        <time>2022-10-04T11:26:23.000Z</time>
      </trkpt>
      <trkpt lat="45.87783" lon="4.64117">
        <ele>212.64746</ele>
        <time>2022-10-04T11:26:24.000Z</time>
      </trkpt>
      <trkpt lat="45.87787" lon="4.64109">
        <ele>212.63577</ele>
        <time>2022-10-04T11:26:25.000Z</time>
      </trkpt>
      <trkpt lat="45.87791" lon="4.64103">
        <ele>212.61873</ele>
        <time>2022-10-04T11:26:26.000Z</time>
      </trkpt>
      <trkpt lat="45.87795" lon="4.64096">
        <ele>212.66312</ele>
        <time>2022-10-04T11:26:27.000Z</time>
      </trkpt>
      <trkpt lat="45.87798" lon="4.6409">
        <ele>212.71167</ele>
        <time>2022-10-04T11:26:28.000Z</time>
      </trkpt>
      <trkpt lat="45.87803" lon="4.64086">
        <ele>212.72319</ele>
        <time>2022-10-04T11:26:29.000Z</time>
      </trkpt>
      <trkpt lat="45.87806" lon="4.64079">
        <ele>212.74394</ele>
        <time>2022-10-04T11:26:30.000Z</time>
      </trkpt>
      <trkpt lat="45.87811" lon="4.64072">
        <ele>212.79089</ele>
        <time>2022-10-04T11:26:31.000Z</time>
      </trkpt>
      <trkpt lat="45.87815" lon="4.64065">
        <ele>212.78976</ele>
        <time>2022-10-04T11:26:32.000Z</time>
      </trkpt>
      <trkpt lat="45.87819" lon="4.64058">
        <ele>212.73914</ele>
        <time>2022-10-04T11:26:33.000Z</time>
      </trkpt>
      <trkpt lat="45.87823" lon="4.64051">
        <ele>212.73662</ele>
        <time>2022-10-04T11:26:34.000Z</time>
      </trkpt>
      <trkpt lat="45.87827" lon="4.64044">
        <ele>212.81462</ele>
        <time>2022-10-04T11:26:35.000Z</time>
      </trkpt>
      <trkpt lat="45.87831" lon="4.64038">
        <ele>212.7989</ele>
        <time>2022-10-04T11:26:36.000Z</time>
      </trkpt>
      <trkpt lat="45.87835" lon="4.64032">
        <ele>212.82051</ele>
        <time>2022-10-04T11:26:37.000Z</time>
      </trkpt>
      <trkpt lat="45.87838" lon="4.64025">
        <ele>212.92244</ele>
        <time>2022-10-04T11:26:38.000Z</time>
      </trkpt>
      <trkpt lat="45.87843" lon="4.64019">
        <ele>213.02377</ele>
        <time>2022-10-04T11:26:39.000Z</time>
      </trkpt>
      <trkpt lat="45.87846" lon="4.64012">
        <ele>213.11197</ele>
        <time>2022-10-04T11:26:40.000Z</time>
      </trkpt>
      <trkpt lat="45.87852" lon="4.64006">
        <ele>213.17395</ele>
        <time>2022-10-04T11:26:41.000Z</time>
      </trkpt>
      <trkpt lat="45.87857" lon="4.63999">
        <ele>213.21928</ele>
        <time>2022-10-04T11:26:42.000Z</time>
      </trkpt>
      <trkpt lat="45.87861" lon="4.63992">
        <ele>213.24141</ele>
        <time>2022-10-04T11:26:43.000Z</time>
      </trkpt>
      <trkpt lat="45.87865" lon="4.63987">
        <ele>213.23689</ele>
        <time>2022-10-04T11:26:44.000Z</time>
      </trkpt>
      <trkpt lat="45.87868" lon="4.6398">
        <ele>213.15222</ele>
        <time>2022-10-04T11:26:45.000Z</time>
      </trkpt>
      <trkpt lat="45.87872" lon="4.63974">
        <ele>213.08252</ele>
        <time>2022-10-04T11:26:46.000Z</time>
      </trkpt>
      <trkpt lat="45.87875" lon="4.63968">
        <ele>212.98369</ele>
        <time>2022-10-04T11:26:47.000Z</time>
      </trkpt>
      <trkpt lat="45.87877" lon="4.6396">
        <ele>212.97665</ele>
        <time>2022-10-04T11:26:48.000Z</time>
      </trkpt>
      <trkpt lat="45.87882" lon="4.63957">
        <ele>213.06575</ele>
        <time>2022-10-04T11:26:49.000Z</time>
      </trkpt>
      <trkpt lat="45.87887" lon="4.6395">
        <ele>213.12837</ele>
        <time>2022-10-04T11:26:50.000Z</time>
      </trkpt>
      <trkpt lat="45.87892" lon="4.63944">
        <ele>213.19058</ele>
        <time>2022-10-04T11:26:51.000Z</time>
      </trkpt>
      <trkpt lat="45.87896" lon="4.63938">
        <ele>213.21049</ele>
        <time>2022-10-04T11:26:52.000Z</time>
      </trkpt>
      <trkpt lat="45.879" lon="4.63933">
        <ele>213.26865</ele>
        <time>2022-10-04T11:26:53.000Z</time>
      </trkpt>
      <trkpt lat="45.87905" lon="4.63926">
        <ele>213.27121</ele>
        <time>2022-10-04T11:26:54.000Z</time>
      </trkpt>
      <trkpt lat="45.87907" lon="4.63917">
        <ele>213.18997</ele>
        <time>2022-10-04T11:26:55.000Z</time>
      </trkpt>
      <trkpt lat="45.87911" lon="4.6391">
        <ele>213.18217</ele>
        <time>2022-10-04T11:26:56.000Z</time>
      </trkpt>
      <trkpt lat="45.87916" lon="4.63903">
        <ele>213.14954</ele>
        <time>2022-10-04T11:26:57.000Z</time>
      </trkpt>
      <trkpt lat="45.8792" lon="4.63897">
        <ele>213.09367</ele>
        <time>2022-10-04T11:26:58.000Z</time>
      </trkpt>
      <trkpt lat="45.87924" lon="4.63891">
        <ele>213.15964</ele>
        <time>2022-10-04T11:26:59.000Z</time>
      </trkpt>
      <trkpt lat="45.87928" lon="4.63884">
        <ele>213.34453</ele>
        <time>2022-10-04T11:27:00.000Z</time>
      </trkpt>
      <trkpt lat="45.87933" lon="4.63877">
        <ele>213.62338</ele>
        <time>2022-10-04T11:27:01.000Z</time>
      </trkpt>
      <trkpt lat="45.87936" lon="4.63872">
        <ele>213.96387</ele>
        <time>2022-10-04T11:27:02.000Z</time>
      </trkpt>
      <trkpt lat="45.87941" lon="4.63865">
        <ele>214.30014</ele>
        <time>2022-10-04T11:27:03.000Z</time>
      </trkpt>
      <trkpt lat="45.87946" lon="4.6386">
        <ele>214.60172</ele>
        <time>2022-10-04T11:27:04.000Z</time>
      </trkpt>
      <trkpt lat="45.8795" lon="4.63853">
        <ele>214.98099</ele>
        <time>2022-10-04T11:27:05.000Z</time>
      </trkpt>
      <trkpt lat="45.87954" lon="4.63846">
        <ele>215.22025</ele>
        <time>2022-10-04T11:27:06.000Z</time>
      </trkpt>
      <trkpt lat="45.87958" lon="4.63839">
        <ele>215.43782</ele>
        <time>2022-10-04T11:27:07.000Z</time>
      </trkpt>
      <trkpt lat="45.87961" lon="4.63832">
        <ele>215.54529</ele>
        <time>2022-10-04T11:27:08.000Z</time>
      </trkpt>
      <trkpt lat="45.87965" lon="4.63826">
        <ele>215.57755</ele>
        <time>2022-10-04T11:27:09.000Z</time>
      </trkpt>
      <trkpt lat="45.87969" lon="4.6382">
        <ele>215.65935</ele>
        <time>2022-10-04T11:27:10.000Z</time>
      </trkpt>
      <trkpt lat="45.87972" lon="4.63813">
        <ele>215.71188</ele>
        <time>2022-10-04T11:27:11.000Z</time>
      </trkpt>
      <trkpt lat="45.87976" lon="4.63807">
        <ele>215.84953</ele>
        <time>2022-10-04T11:27:12.000Z</time>
      </trkpt>
      <trkpt lat="45.87981" lon="4.638">
        <ele>215.96086</ele>
        <time>2022-10-04T11:27:13.000Z</time>
      </trkpt>
      <trkpt lat="45.87984" lon="4.63794">
        <ele>216.17136</ele>
        <time>2022-10-04T11:27:14.000Z</time>
      </trkpt>
      <trkpt lat="45.87987" lon="4.63787">
        <ele>216.44077</ele>
        <time>2022-10-04T11:27:15.000Z</time>
      </trkpt>
      <trkpt lat="45.8799" lon="4.6378">
        <ele>216.70776</ele>
        <time>2022-10-04T11:27:16.000Z</time>
      </trkpt>
      <trkpt lat="45.87994" lon="4.63773">
        <ele>217.01224</ele>
        <time>2022-10-04T11:27:17.000Z</time>
      </trkpt>
      <trkpt lat="45.87998" lon="4.63766">
        <ele>217.3295</ele>
        <time>2022-10-04T11:27:18.000Z</time>
      </trkpt>
      <trkpt lat="45.88003" lon="4.63761">
        <ele>217.55876</ele>
        <time>2022-10-04T11:27:19.000Z</time>
      </trkpt>
      <trkpt lat="45.88008" lon="4.63754">
        <ele>217.72224</ele>
        <time>2022-10-04T11:27:20.000Z</time>
      </trkpt>
      <trkpt lat="45.88012" lon="4.63749">
        <ele>217.84204</ele>
        <time>2022-10-04T11:27:21.000Z</time>
      </trkpt>
      <trkpt lat="45.88016" lon="4.63742">
        <ele>218.00986</ele>
        <time>2022-10-04T11:27:22.000Z</time>
      </trkpt>
      <trkpt lat="45.88019" lon="4.63736">
        <ele>218.20679</ele>
        <time>2022-10-04T11:27:23.000Z</time>
      </trkpt>
      <trkpt lat="45.88022" lon="4.63731">
        <ele>218.41599</ele>
        <time>2022-10-04T11:27:24.000Z</time>
      </trkpt>
      <trkpt lat="45.88026" lon="4.63725">
        <ele>218.53824</ele>
        <time>2022-10-04T11:27:25.000Z</time>
      </trkpt>
      <trkpt lat="45.8803" lon="4.63718">
        <ele>218.71426</ele>
        <time>2022-10-04T11:27:26.000Z</time>
      </trkpt>
      <trkpt lat="45.88034" lon="4.63711">
        <ele>218.8732</ele>
        <time>2022-10-04T11:27:27.000Z</time>
      </trkpt>
      <trkpt lat="45.88038" lon="4.63705">
        <ele>219.04619</ele>
        <time>2022-10-04T11:27:28.000Z</time>
      </trkpt>
      <trkpt lat="45.88041" lon="4.63698">
        <ele>219.18291</ele>
        <time>2022-10-04T11:27:29.000Z</time>
      </trkpt>
      <trkpt lat="45.88044" lon="4.63691">
        <ele>219.29353</ele>
        <time>2022-10-04T11:27:30.000Z</time>
      </trkpt>
      <trkpt lat="45.88046" lon="4.63684">
        <ele>219.40096</ele>
        <time>2022-10-04T11:27:31.000Z</time>
      </trkpt>
      <trkpt lat="45.8805" lon="4.63677">
        <ele>219.47673</ele>
        <time>2022-10-04T11:27:32.000Z</time>
      </trkpt>
      <trkpt lat="45.88054" lon="4.6367">
        <ele>219.54012</ele>
        <time>2022-10-04T11:27:33.000Z</time>
      </trkpt>
      <trkpt lat="45.88058" lon="4.63664">
        <ele>219.57315</ele>
        <time>2022-10-04T11:27:34.000Z</time>
      </trkpt>
      <trkpt lat="45.88061" lon="4.63657">
        <ele>219.56963</ele>
        <time>2022-10-04T11:27:35.000Z</time>
      </trkpt>
      <trkpt lat="45.88065" lon="4.6365">
        <ele>219.507</ele>
        <time>2022-10-04T11:27:36.000Z</time>
      </trkpt>
      <trkpt lat="45.88069" lon="4.63643">
        <ele>219.43015</ele>
        <time>2022-10-04T11:27:37.000Z</time>
      </trkpt>
      <trkpt lat="45.88072" lon="4.63635">
        <ele>219.36153</ele>
        <time>2022-10-04T11:27:38.000Z</time>
      </trkpt>
      <trkpt lat="45.88076" lon="4.63627">
        <ele>219.2529</ele>
        <time>2022-10-04T11:27:39.000Z</time>
      </trkpt>
      <trkpt lat="45.8808" lon="4.6362">
        <ele>219.17197</ele>
        <time>2022-10-04T11:27:40.000Z</time>
      </trkpt>
      <trkpt lat="45.88082" lon="4.63612">
        <ele>219.13228</ele>
        <time>2022-10-04T11:27:41.000Z</time>
      </trkpt>
      <trkpt lat="45.88086" lon="4.63605">
        <ele>219.05496</ele>
        <time>2022-10-04T11:27:42.000Z</time>
      </trkpt>
      <trkpt lat="45.88089" lon="4.63597">
        <ele>218.92973</ele>
        <time>2022-10-04T11:27:43.000Z</time>
      </trkpt>
      <trkpt lat="45.88092" lon="4.63589">
        <ele>218.83308</ele>
        <time>2022-10-04T11:27:44.000Z</time>
      </trkpt>
      <trkpt lat="45.88094" lon="4.63582">
        <ele>218.69734</ele>
        <time>2022-10-04T11:27:45.000Z</time>
      </trkpt>
      <trkpt lat="45.88098" lon="4.63575">
        <ele>218.62651</ele>
        <time>2022-10-04T11:27:46.000Z</time>
      </trkpt>
      <trkpt lat="45.88099" lon="4.63566">
        <ele>218.60576</ele>
        <time>2022-10-04T11:27:47.000Z</time>
      </trkpt>
      <trkpt lat="45.88103" lon="4.63559">
        <ele>218.59502</ele>
        <time>2022-10-04T11:27:48.000Z</time>
      </trkpt>
      <trkpt lat="45.88105" lon="4.63552">
        <ele>218.61848</ele>
        <time>2022-10-04T11:27:49.000Z</time>
      </trkpt>
      <trkpt lat="45.88107" lon="4.63543">
        <ele>218.62737</ele>
        <time>2022-10-04T11:27:50.000Z</time>
      </trkpt>
      <trkpt lat="45.8811" lon="4.63536">
        <ele>218.60469</ele>
        <time>2022-10-04T11:27:51.000Z</time>
      </trkpt>
      <trkpt lat="45.88112" lon="4.63528">
        <ele>218.57822</ele>
        <time>2022-10-04T11:27:52.000Z</time>
      </trkpt>
      <trkpt lat="45.88114" lon="4.63521">
        <ele>218.59563</ele>
        <time>2022-10-04T11:27:53.000Z</time>
      </trkpt>
      <trkpt lat="45.88116" lon="4.63513">
        <ele>218.60538</ele>
        <time>2022-10-04T11:27:54.000Z</time>
      </trkpt>
      <trkpt lat="45.88118" lon="4.63506">
        <ele>218.61519</ele>
        <time>2022-10-04T11:27:55.000Z</time>
      </trkpt>
      <trkpt lat="45.8812" lon="4.63498">
        <ele>218.67276</ele>
        <time>2022-10-04T11:27:56.000Z</time>
      </trkpt>
      <trkpt lat="45.88124" lon="4.6349">
        <ele>218.7493</ele>
        <time>2022-10-04T11:27:57.000Z</time>
      </trkpt>
      <trkpt lat="45.88127" lon="4.63482">
        <ele>218.77243</ele>
        <time>2022-10-04T11:27:58.000Z</time>
      </trkpt>
      <trkpt lat="45.88128" lon="4.63475">
        <ele>218.87202</ele>
        <time>2022-10-04T11:27:59.000Z</time>
      </trkpt>
      <trkpt lat="45.8813" lon="4.63468">
        <ele>218.92461</ele>
        <time>2022-10-04T11:28:00.000Z</time>
      </trkpt>
      <trkpt lat="45.88133" lon="4.6346">
        <ele>218.92412</ele>
        <time>2022-10-04T11:28:01.000Z</time>
      </trkpt>
      <trkpt lat="45.88135" lon="4.63454">
        <ele>218.88435</ele>
        <time>2022-10-04T11:28:02.000Z</time>
      </trkpt>
      <trkpt lat="45.88136" lon="4.63447">
        <ele>218.82356</ele>
        <time>2022-10-04T11:28:03.000Z</time>
      </trkpt>
      <trkpt lat="45.88138" lon="4.6344">
        <ele>218.73347</ele>
        <time>2022-10-04T11:28:04.000Z</time>
      </trkpt>
      <trkpt lat="45.8814" lon="4.63433">
        <ele>218.69856</ele>
        <time>2022-10-04T11:28:05.000Z</time>
      </trkpt>
      <trkpt lat="45.88142" lon="4.63423">
        <ele>218.68176</ele>
        <time>2022-10-04T11:28:06.000Z</time>
      </trkpt>
      <trkpt lat="45.88144" lon="4.63415">
        <ele>218.70056</ele>
        <time>2022-10-04T11:28:07.000Z</time>
      </trkpt>
      <trkpt lat="45.88146" lon="4.63407">
        <ele>218.73093</ele>
        <time>2022-10-04T11:28:08.000Z</time>
      </trkpt>
      <trkpt lat="45.88146" lon="4.63399">
        <ele>218.83493</ele>
        <time>2022-10-04T11:28:09.000Z</time>
      </trkpt>
      <trkpt lat="45.88148" lon="4.6339">
        <ele>218.92728</ele>
        <time>2022-10-04T11:28:10.000Z</time>
      </trkpt>
      <trkpt lat="45.88149" lon="4.63382">
        <ele>219.04854</ele>
        <time>2022-10-04T11:28:11.000Z</time>
      </trkpt>
      <trkpt lat="45.88151" lon="4.63376">
        <ele>219.15495</ele>
        <time>2022-10-04T11:28:12.000Z</time>
      </trkpt>
      <trkpt lat="45.88152" lon="4.63369">
        <ele>219.20879</ele>
        <time>2022-10-04T11:28:13.000Z</time>
      </trkpt>
      <trkpt lat="45.88154" lon="4.63364">
        <ele>219.10461</ele>
        <time>2022-10-04T11:28:14.000Z</time>
      </trkpt>
      <trkpt lat="45.88156" lon="4.63356">
        <ele>219.06783</ele>
        <time>2022-10-04T11:28:15.000Z</time>
      </trkpt>
      <trkpt lat="45.88158" lon="4.63348">
        <ele>219.03296</ele>
        <time>2022-10-04T11:28:16.000Z</time>
      </trkpt>
      <trkpt lat="45.88159" lon="4.63339">
        <ele>218.9136</ele>
        <time>2022-10-04T11:28:17.000Z</time>
      </trkpt>
      <trkpt lat="45.88161" lon="4.6333">
        <ele>218.83488</ele>
        <time>2022-10-04T11:28:18.000Z</time>
      </trkpt>
      <trkpt lat="45.88164" lon="4.63321">
        <ele>218.68465</ele>
        <time>2022-10-04T11:28:19.000Z</time>
      </trkpt>
      <trkpt lat="45.88167" lon="4.63313">
        <ele>218.51765</ele>
        <time>2022-10-04T11:28:20.000Z</time>
      </trkpt>
      <trkpt lat="45.88168" lon="4.63305">
        <ele>218.38269</ele>
        <time>2022-10-04T11:28:21.000Z</time>
      </trkpt>
      <trkpt lat="45.88171" lon="4.63297">
        <ele>218.24918</ele>
        <time>2022-10-04T11:28:22.000Z</time>
      </trkpt>
      <trkpt lat="45.88173" lon="4.63288">
        <ele>218.149</ele>
        <time>2022-10-04T11:28:23.000Z</time>
      </trkpt>
      <trkpt lat="45.88175" lon="4.63282">
        <ele>218.11467</ele>
        <time>2022-10-04T11:28:24.000Z</time>
      </trkpt>
      <trkpt lat="45.88174" lon="4.63276">
        <ele>217.99173</ele>
        <time>2022-10-04T11:28:25.000Z</time>
      </trkpt>
      <trkpt lat="45.88176" lon="4.63268">
        <ele>217.85971</ele>
        <time>2022-10-04T11:28:26.000Z</time>
      </trkpt>
      <trkpt lat="45.88177" lon="4.63259">
        <ele>217.64799</ele>
        <time>2022-10-04T11:28:27.000Z</time>
      </trkpt>
      <trkpt lat="45.88179" lon="4.63253">
        <ele>217.4333</ele>
        <time>2022-10-04T11:28:28.000Z</time>
      </trkpt>
      <trkpt lat="45.88181" lon="4.63244">
        <ele>217.16641</ele>
        <time>2022-10-04T11:28:29.000Z</time>
      </trkpt>
      <trkpt lat="45.88183" lon="4.63234">
        <ele>216.89912</ele>
        <time>2022-10-04T11:28:30.000Z</time>
      </trkpt>
      <trkpt lat="45.88184" lon="4.63225">
        <ele>216.60527</ele>
        <time>2022-10-04T11:28:31.000Z</time>
      </trkpt>
      <trkpt lat="45.88187" lon="4.63217">
        <ele>216.35471</ele>
        <time>2022-10-04T11:28:32.000Z</time>
      </trkpt>
      <trkpt lat="45.88188" lon="4.63209">
        <ele>216.12112</ele>
        <time>2022-10-04T11:28:33.000Z</time>
      </trkpt>
      <trkpt lat="45.88189" lon="4.632">
        <ele>215.99704</ele>
        <time>2022-10-04T11:28:34.000Z</time>
      </trkpt>
      <trkpt lat="45.8819" lon="4.63189">
        <ele>215.88855</ele>
        <time>2022-10-04T11:28:35.000Z</time>
      </trkpt>
      <trkpt lat="45.8819" lon="4.63179">
        <ele>215.81648</ele>
        <time>2022-10-04T11:28:36.000Z</time>
      </trkpt>
      <trkpt lat="45.88191" lon="4.6317">
        <ele>215.77266</ele>
        <time>2022-10-04T11:28:37.000Z</time>
      </trkpt>
      <trkpt lat="45.88193" lon="4.63161">
        <ele>215.77315</ele>
        <time>2022-10-04T11:28:38.000Z</time>
      </trkpt>
      <trkpt lat="45.88195" lon="4.63153">
        <ele>215.8293</ele>
        <time>2022-10-04T11:28:39.000Z</time>
      </trkpt>
      <trkpt lat="45.88198" lon="4.63144">
        <ele>215.99692</ele>
        <time>2022-10-04T11:28:40.000Z</time>
      </trkpt>
      <trkpt lat="45.88201" lon="4.63137">
        <ele>216.12595</ele>
        <time>2022-10-04T11:28:41.000Z</time>
      </trkpt>
      <trkpt lat="45.88203" lon="4.63128">
        <ele>216.26651</ele>
        <time>2022-10-04T11:28:42.000Z</time>
      </trkpt>
      <trkpt lat="45.88205" lon="4.6312">
        <ele>216.39822</ele>
        <time>2022-10-04T11:28:43.000Z</time>
      </trkpt>
      <trkpt lat="45.88207" lon="4.63111">
        <ele>216.48361</ele>
        <time>2022-10-04T11:28:44.000Z</time>
      </trkpt>
      <trkpt lat="45.8821" lon="4.63103">
        <ele>216.69852</ele>
        <time>2022-10-04T11:28:45.000Z</time>
      </trkpt>
      <trkpt lat="45.88212" lon="4.63095">
        <ele>216.84175</ele>
        <time>2022-10-04T11:28:46.000Z</time>
      </trkpt>
      <trkpt lat="45.88214" lon="4.63087">
        <ele>217.0015</ele>
        <time>2022-10-04T11:28:47.000Z</time>
      </trkpt>
      <trkpt lat="45.88216" lon="4.63081">
        <ele>217.08231</ele>
        <time>2022-10-04T11:28:48.000Z</time>
      </trkpt>
      <trkpt lat="45.88219" lon="4.63073">
        <ele>217.1803</ele>
        <time>2022-10-04T11:28:49.000Z</time>
      </trkpt>
      <trkpt lat="45.88222" lon="4.63066">
        <ele>217.3278</ele>
        <time>2022-10-04T11:28:50.000Z</time>
      </trkpt>
      <trkpt lat="45.88224" lon="4.63058">
        <ele>217.56438</ele>
        <time>2022-10-04T11:28:51.000Z</time>
      </trkpt>
      <trkpt lat="45.88228" lon="4.63051">
        <ele>217.79288</ele>
        <time>2022-10-04T11:28:52.000Z</time>
      </trkpt>
      <trkpt lat="45.88232" lon="4.63042">
        <ele>218.0356</ele>
        <time>2022-10-04T11:28:53.000Z</time>
      </trkpt>
      <trkpt lat="45.88237" lon="4.63037">
        <ele>218.2355</ele>
        <time>2022-10-04T11:28:54.000Z</time>
      </trkpt>
      <trkpt lat="45.88239" lon="4.6303">
        <ele>218.36128</ele>
        <time>2022-10-04T11:28:55.000Z</time>
      </trkpt>
      <trkpt lat="45.88242" lon="4.63022">
        <ele>218.42966</ele>
        <time>2022-10-04T11:28:56.000Z</time>
      </trkpt>
      <trkpt lat="45.88246" lon="4.63016">
        <ele>218.51399</ele>
        <time>2022-10-04T11:28:57.000Z</time>
      </trkpt>
      <trkpt lat="45.88249" lon="4.63008">
        <ele>218.6093</ele>
        <time>2022-10-04T11:28:58.000Z</time>
      </trkpt>
      <trkpt lat="45.8825" lon="4.63">
        <ele>218.68291</ele>
        <time>2022-10-04T11:28:59.000Z</time>
      </trkpt>
      <trkpt lat="45.88251" lon="4.62991">
        <ele>218.73206</ele>
        <time>2022-10-04T11:29:00.000Z</time>
      </trkpt>
      <trkpt lat="45.88253" lon="4.62983">
        <ele>218.84799</ele>
        <time>2022-10-04T11:29:01.000Z</time>
      </trkpt>
      <trkpt lat="45.88255" lon="4.62976">
        <ele>219.00467</ele>
        <time>2022-10-04T11:29:02.000Z</time>
      </trkpt>
      <trkpt lat="45.88258" lon="4.62971">
        <ele>219.19583</ele>
        <time>2022-10-04T11:29:03.000Z</time>
      </trkpt>
      <trkpt lat="45.88261" lon="4.62967">
        <ele>219.35234</ele>
        <time>2022-10-04T11:29:04.000Z</time>
      </trkpt>
      <trkpt lat="45.88265" lon="4.62959">
        <ele>219.42061</ele>
        <time>2022-10-04T11:29:05.000Z</time>
      </trkpt>
      <trkpt lat="45.88269" lon="4.62953">
        <ele>219.53336</ele>
        <time>2022-10-04T11:29:06.000Z</time>
      </trkpt>
      <trkpt lat="45.88273" lon="4.62946">
        <ele>219.56987</ele>
        <time>2022-10-04T11:29:07.000Z</time>
      </trkpt>
      <trkpt lat="45.88276" lon="4.62941">
        <ele>219.67282</ele>
        <time>2022-10-04T11:29:08.000Z</time>
      </trkpt>
      <trkpt lat="45.88279" lon="4.62933">
        <ele>219.77031</ele>
        <time>2022-10-04T11:29:09.000Z</time>
      </trkpt>
      <trkpt lat="45.88283" lon="4.62926">
        <ele>219.86243</ele>
        <time>2022-10-04T11:29:10.000Z</time>
      </trkpt>
      <trkpt lat="45.88286" lon="4.6292">
        <ele>220.01205</ele>
        <time>2022-10-04T11:29:11.000Z</time>
      </trkpt>
      <trkpt lat="45.88292" lon="4.62914">
        <ele>220.09688</ele>
        <time>2022-10-04T11:29:12.000Z</time>
      </trkpt>
      <trkpt lat="45.88296" lon="4.62907">
        <ele>220.19998</ele>
        <time>2022-10-04T11:29:13.000Z</time>
      </trkpt>
      <trkpt lat="45.88301" lon="4.62901">
        <ele>220.3544</ele>
        <time>2022-10-04T11:29:14.000Z</time>
      </trkpt>
      <trkpt lat="45.88305" lon="4.62895">
        <ele>220.46591</ele>
        <time>2022-10-04T11:29:15.000Z</time>
      </trkpt>
      <trkpt lat="45.88309" lon="4.62888">
        <ele>220.59509</ele>
        <time>2022-10-04T11:29:16.000Z</time>
      </trkpt>
      <trkpt lat="45.88313" lon="4.62881">
        <ele>220.76054</ele>
        <time>2022-10-04T11:29:17.000Z</time>
      </trkpt>
      <trkpt lat="45.88319" lon="4.62877">
        <ele>220.78496</ele>
        <time>2022-10-04T11:29:18.000Z</time>
      </trkpt>
      <trkpt lat="45.88323" lon="4.62872">
        <ele>220.81206</ele>
        <time>2022-10-04T11:29:19.000Z</time>
      </trkpt>
      <trkpt lat="45.88325" lon="4.62863">
        <ele>220.79996</ele>
        <time>2022-10-04T11:29:20.000Z</time>
      </trkpt>
      <trkpt lat="45.88329" lon="4.62856">
        <ele>220.74678</ele>
        <time>2022-10-04T11:29:21.000Z</time>
      </trkpt>
      <trkpt lat="45.88331" lon="4.62849">
        <ele>220.68352</ele>
        <time>2022-10-04T11:29:22.000Z</time>
      </trkpt>
      <trkpt lat="45.88336" lon="4.62842">
        <ele>220.62143</ele>
        <time>2022-10-04T11:29:23.000Z</time>
      </trkpt>
      <trkpt lat="45.88339" lon="4.62834">
        <ele>220.57736</ele>
        <time>2022-10-04T11:29:24.000Z</time>
      </trkpt>
      <trkpt lat="45.88342" lon="4.62829">
        <ele>220.51595</ele>
        <time>2022-10-04T11:29:25.000Z</time>
      </trkpt>
      <trkpt lat="45.88347" lon="4.62822">
        <ele>220.46237</ele>
        <time>2022-10-04T11:29:26.000Z</time>
      </trkpt>
      <trkpt lat="45.88351" lon="4.62816">
        <ele>220.51624</ele>
        <time>2022-10-04T11:29:27.000Z</time>
      </trkpt>
      <trkpt lat="45.88356" lon="4.6281">
        <ele>220.60471</ele>
        <time>2022-10-04T11:29:28.000Z</time>
      </trkpt>
      <trkpt lat="45.88358" lon="4.62805">
        <ele>220.68564</ele>
        <time>2022-10-04T11:29:29.000Z</time>
      </trkpt>
      <trkpt lat="45.88361" lon="4.62798">
        <ele>220.72661</ele>
        <time>2022-10-04T11:29:30.000Z</time>
      </trkpt>
      <trkpt lat="45.88365" lon="4.62791">
        <ele>220.63423</ele>
        <time>2022-10-04T11:29:31.000Z</time>
      </trkpt>
      <trkpt lat="45.88369" lon="4.62783">
        <ele>220.61772</ele>
        <time>2022-10-04T11:29:32.000Z</time>
      </trkpt>
      <trkpt lat="45.88373" lon="4.62775">
        <ele>220.62125</ele>
        <time>2022-10-04T11:29:33.000Z</time>
      </trkpt>
      <trkpt lat="45.88376" lon="4.6277">
        <ele>220.69771</ele>
        <time>2022-10-04T11:29:34.000Z</time>
      </trkpt>
      <trkpt lat="45.8838" lon="4.62763">
        <ele>220.90201</ele>
        <time>2022-10-04T11:29:35.000Z</time>
      </trkpt>
      <trkpt lat="45.88383" lon="4.62756">
        <ele>221.09184</ele>
        <time>2022-10-04T11:29:36.000Z</time>
      </trkpt>
      <trkpt lat="45.88389" lon="4.6275">
        <ele>221.29831</ele>
        <time>2022-10-04T11:29:37.000Z</time>
      </trkpt>
      <trkpt lat="45.88392" lon="4.62742">
        <ele>221.56331</ele>
        <time>2022-10-04T11:29:38.000Z</time>
      </trkpt>
      <trkpt lat="45.88395" lon="4.62736">
        <ele>221.82532</ele>
        <time>2022-10-04T11:29:39.000Z</time>
      </trkpt>
      <trkpt lat="45.88397" lon="4.62728">
        <ele>222.17532</ele>
        <time>2022-10-04T11:29:40.000Z</time>
      </trkpt>
      <trkpt lat="45.88402" lon="4.6272">
        <ele>222.54846</ele>
        <time>2022-10-04T11:29:41.000Z</time>
      </trkpt>
      <trkpt lat="45.88405" lon="4.62713">
        <ele>222.91362</ele>
        <time>2022-10-04T11:29:42.000Z</time>
      </trkpt>
      <trkpt lat="45.88409" lon="4.62705">
        <ele>223.25247</ele>
        <time>2022-10-04T11:29:43.000Z</time>
      </trkpt>
      <trkpt lat="45.88412" lon="4.62699">
        <ele>223.57898</ele>
        <time>2022-10-04T11:29:44.000Z</time>
      </trkpt>
      <trkpt lat="45.88414" lon="4.62692">
        <ele>223.9034</ele>
        <time>2022-10-04T11:29:45.000Z</time>
      </trkpt>
      <trkpt lat="45.88417" lon="4.62684">
        <ele>224.24411</ele>
        <time>2022-10-04T11:29:46.000Z</time>
      </trkpt>
      <trkpt lat="45.8842" lon="4.62674">
        <ele>224.5448</ele>
        <time>2022-10-04T11:29:47.000Z</time>
      </trkpt>
      <trkpt lat="45.88424" lon="4.62667">
        <ele>224.8215</ele>
        <time>2022-10-04T11:29:48.000Z</time>
      </trkpt>
      <trkpt lat="45.88428" lon="4.62659">
        <ele>225.10893</ele>
        <time>2022-10-04T11:29:49.000Z</time>
      </trkpt>
      <trkpt lat="45.88432" lon="4.62651">
        <ele>225.38913</ele>
        <time>2022-10-04T11:29:50.000Z</time>
      </trkpt>
      <trkpt lat="45.88434" lon="4.62644">
        <ele>225.66772</ele>
        <time>2022-10-04T11:29:51.000Z</time>
      </trkpt>
      <trkpt lat="45.88436" lon="4.62635">
        <ele>225.87576</ele>
        <time>2022-10-04T11:29:52.000Z</time>
      </trkpt>
      <trkpt lat="45.88439" lon="4.62628">
        <ele>225.99155</ele>
        <time>2022-10-04T11:29:53.000Z</time>
      </trkpt>
      <trkpt lat="45.88442" lon="4.62618">
        <ele>226.05594</ele>
        <time>2022-10-04T11:29:54.000Z</time>
      </trkpt>
      <trkpt lat="45.88445" lon="4.6261">
        <ele>226.09244</ele>
        <time>2022-10-04T11:29:55.000Z</time>
      </trkpt>
      <trkpt lat="45.88447" lon="4.62601">
        <ele>226.08463</ele>
        <time>2022-10-04T11:29:56.000Z</time>
      </trkpt>
      <trkpt lat="45.8845" lon="4.62592">
        <ele>226.10782</ele>
        <time>2022-10-04T11:29:57.000Z</time>
      </trkpt>
      <trkpt lat="45.88452" lon="4.62586">
        <ele>226.06941</ele>
        <time>2022-10-04T11:29:58.000Z</time>
      </trkpt>
      <trkpt lat="45.88455" lon="4.62576">
        <ele>226.02112</ele>
        <time>2022-10-04T11:29:59.000Z</time>
      </trkpt>
      <trkpt lat="45.88459" lon="4.6257">
        <ele>225.87202</ele>
        <time>2022-10-04T11:30:00.000Z</time>
      </trkpt>
      <trkpt lat="45.88461" lon="4.62561">
        <ele>225.6727</ele>
        <time>2022-10-04T11:30:01.000Z</time>
      </trkpt>
      <trkpt lat="45.88463" lon="4.62554">
        <ele>225.43269</ele>
        <time>2022-10-04T11:30:02.000Z</time>
      </trkpt>
      <trkpt lat="45.88466" lon="4.62545">
        <ele>225.18405</ele>
        <time>2022-10-04T11:30:03.000Z</time>
      </trkpt>
      <trkpt lat="45.88468" lon="4.6254">
        <ele>224.93674</ele>
        <time>2022-10-04T11:30:04.000Z</time>
      </trkpt>
      <trkpt lat="45.8847" lon="4.6253">
        <ele>224.7366</ele>
        <time>2022-10-04T11:30:05.000Z</time>
      </trkpt>
      <trkpt lat="45.88472" lon="4.62521">
        <ele>224.55302</ele>
        <time>2022-10-04T11:30:06.000Z</time>
      </trkpt>
      <trkpt lat="45.88476" lon="4.62514">
        <ele>224.43265</ele>
        <time>2022-10-04T11:30:07.000Z</time>
      </trkpt>
      <trkpt lat="45.88481" lon="4.62508">
        <ele>224.36382</ele>
        <time>2022-10-04T11:30:08.000Z</time>
      </trkpt>
      <trkpt lat="45.88486" lon="4.62504">
        <ele>224.2153</ele>
        <time>2022-10-04T11:30:09.000Z</time>
      </trkpt>
      <trkpt lat="45.88488" lon="4.62496">
        <ele>224.18015</ele>
        <time>2022-10-04T11:30:10.000Z</time>
      </trkpt>
      <trkpt lat="45.8849" lon="4.62487">
        <ele>224.18729</ele>
        <time>2022-10-04T11:30:11.000Z</time>
      </trkpt>
      <trkpt lat="45.88491" lon="4.6248">
        <ele>224.15097</ele>
        <time>2022-10-04T11:30:12.000Z</time>
      </trkpt>
      <trkpt lat="45.88493" lon="4.62473">
        <ele>224.12495</ele>
        <time>2022-10-04T11:30:13.000Z</time>
      </trkpt>
      <trkpt lat="45.88497" lon="4.62465">
        <ele>224.08755</ele>
        <time>2022-10-04T11:30:14.000Z</time>
      </trkpt>
      <trkpt lat="45.88499" lon="4.62455">
        <ele>224.04639</ele>
        <time>2022-10-04T11:30:15.000Z</time>
      </trkpt>
      <trkpt lat="45.88502" lon="4.62446">
        <ele>224.10835</ele>
        <time>2022-10-04T11:30:16.000Z</time>
      </trkpt>
      <trkpt lat="45.88505" lon="4.62437">
        <ele>224.12354</ele>
        <time>2022-10-04T11:30:17.000Z</time>
      </trkpt>
      <trkpt lat="45.88508" lon="4.62428">
        <ele>224.23047</ele>
        <time>2022-10-04T11:30:18.000Z</time>
      </trkpt>
      <trkpt lat="45.88511" lon="4.6242">
        <ele>224.30319</ele>
        <time>2022-10-04T11:30:19.000Z</time>
      </trkpt>
      <trkpt lat="45.88514" lon="4.62411">
        <ele>224.36719</ele>
        <time>2022-10-04T11:30:20.000Z</time>
      </trkpt>
      <trkpt lat="45.88518" lon="4.62403">
        <ele>224.51648</ele>
        <time>2022-10-04T11:30:21.000Z</time>
      </trkpt>
      <trkpt lat="45.88521" lon="4.62395">
        <ele>224.6702</ele>
        <time>2022-10-04T11:30:22.000Z</time>
      </trkpt>
      <trkpt lat="45.88525" lon="4.62388">
        <ele>224.80911</ele>
        <time>2022-10-04T11:30:23.000Z</time>
      </trkpt>
      <trkpt lat="45.88527" lon="4.62381">
        <ele>224.93686</ele>
        <time>2022-10-04T11:30:24.000Z</time>
      </trkpt>
      <trkpt lat="45.8853" lon="4.6238">
        <ele>224.90439</ele>
        <time>2022-10-04T11:30:25.000Z</time>
      </trkpt>
      <trkpt lat="45.88532" lon="4.62371">
        <ele>224.77063</ele>
        <time>2022-10-04T11:30:26.000Z</time>
      </trkpt>
      <trkpt lat="45.88533" lon="4.62361">
        <ele>224.5356</ele>
        <time>2022-10-04T11:30:27.000Z</time>
      </trkpt>
      <trkpt lat="45.88534" lon="4.62353">
        <ele>224.25186</ele>
        <time>2022-10-04T11:30:28.000Z</time>
      </trkpt>
      <trkpt lat="45.8854" lon="4.62346">
        <ele>224.13754</ele>
        <time>2022-10-04T11:30:29.000Z</time>
      </trkpt>
      <trkpt lat="45.88542" lon="4.62337">
        <ele>223.96432</ele>
        <time>2022-10-04T11:30:30.000Z</time>
      </trkpt>
      <trkpt lat="45.88543" lon="4.6233">
        <ele>223.73367</ele>
        <time>2022-10-04T11:30:31.000Z</time>
      </trkpt>
      <trkpt lat="45.88544" lon="4.62326">
        <ele>223.45432</ele>
        <time>2022-10-04T11:30:32.000Z</time>
      </trkpt>
      <trkpt lat="45.88546" lon="4.62317">
        <ele>223.22256</ele>
        <time>2022-10-04T11:30:33.000Z</time>
      </trkpt>
      <trkpt lat="45.8855" lon="4.62309">
        <ele>222.9957</ele>
        <time>2022-10-04T11:30:34.000Z</time>
      </trkpt>
      <trkpt lat="45.88551" lon="4.623">
        <ele>222.82468</ele>
        <time>2022-10-04T11:30:35.000Z</time>
      </trkpt>
      <trkpt lat="45.88553" lon="4.62292">
        <ele>222.62495</ele>
        <time>2022-10-04T11:30:36.000Z</time>
      </trkpt>
      <trkpt lat="45.88555" lon="4.62284">
        <ele>222.39986</ele>
        <time>2022-10-04T11:30:37.000Z</time>
      </trkpt>
      <trkpt lat="45.8856" lon="4.62276">
        <ele>222.17412</ele>
        <time>2022-10-04T11:30:38.000Z</time>
      </trkpt>
      <trkpt lat="45.88562" lon="4.6227">
        <ele>221.9534</ele>
        <time>2022-10-04T11:30:39.000Z</time>
      </trkpt>
      <trkpt lat="45.88566" lon="4.62262">
        <ele>221.75497</ele>
        <time>2022-10-04T11:30:40.000Z</time>
      </trkpt>
      <trkpt lat="45.88567" lon="4.62254">
        <ele>221.53682</ele>
        <time>2022-10-04T11:30:41.000Z</time>
      </trkpt>
      <trkpt lat="45.88571" lon="4.62247">
        <ele>221.33914</ele>
        <time>2022-10-04T11:30:42.000Z</time>
      </trkpt>
      <trkpt lat="45.88574" lon="4.62239">
        <ele>221.1718</ele>
        <time>2022-10-04T11:30:43.000Z</time>
      </trkpt>
      <trkpt lat="45.88575" lon="4.62229">
        <ele>221.11435</ele>
        <time>2022-10-04T11:30:44.000Z</time>
      </trkpt>
      <trkpt lat="45.8858" lon="4.62224">
        <ele>221.19023</ele>
        <time>2022-10-04T11:30:45.000Z</time>
      </trkpt>
      <trkpt lat="45.88584" lon="4.62216">
        <ele>221.29953</ele>
        <time>2022-10-04T11:30:46.000Z</time>
      </trkpt>
      <trkpt lat="45.88588" lon="4.62209">
        <ele>221.48531</ele>
        <time>2022-10-04T11:30:47.000Z</time>
      </trkpt>
      <trkpt lat="45.88592" lon="4.62201">
        <ele>221.6813</ele>
        <time>2022-10-04T11:30:48.000Z</time>
      </trkpt>
      <trkpt lat="45.88596" lon="4.62195">
        <ele>221.77066</ele>
        <time>2022-10-04T11:30:49.000Z</time>
      </trkpt>
      <trkpt lat="45.88598" lon="4.62188">
        <ele>221.80144</ele>
        <time>2022-10-04T11:30:50.000Z</time>
      </trkpt>
      <trkpt lat="45.88602" lon="4.6218">
        <ele>221.8497</ele>
        <time>2022-10-04T11:30:51.000Z</time>
      </trkpt>
      <trkpt lat="45.88604" lon="4.62172">
        <ele>222.09541</ele>
        <time>2022-10-04T11:30:52.000Z</time>
      </trkpt>
      <trkpt lat="45.88607" lon="4.62165">
        <ele>222.40247</ele>
        <time>2022-10-04T11:30:53.000Z</time>
      </trkpt>
      <trkpt lat="45.88609" lon="4.62156">
        <ele>222.73035</ele>
        <time>2022-10-04T11:30:54.000Z</time>
      </trkpt>
      <trkpt lat="45.88611" lon="4.62147">
        <ele>222.97342</ele>
        <time>2022-10-04T11:30:55.000Z</time>
      </trkpt>
      <trkpt lat="45.88615" lon="4.62137">
        <ele>223.2382</ele>
        <time>2022-10-04T11:30:56.000Z</time>
      </trkpt>
      <trkpt lat="45.88617" lon="4.62128">
        <ele>223.56314</ele>
        <time>2022-10-04T11:30:57.000Z</time>
      </trkpt>
      <trkpt lat="45.88621" lon="4.62119">
        <ele>223.85884</ele>
        <time>2022-10-04T11:30:58.000Z</time>
      </trkpt>
      <trkpt lat="45.88624" lon="4.62113">
        <ele>224.17776</ele>
        <time>2022-10-04T11:30:59.000Z</time>
      </trkpt>
      <trkpt lat="45.88625" lon="4.62107">
        <ele>224.43156</ele>
        <time>2022-10-04T11:31:00.000Z</time>
      </trkpt>
      <trkpt lat="45.88627" lon="4.62098">
        <ele>224.76706</ele>
        <time>2022-10-04T11:31:01.000Z</time>
      </trkpt>
      <trkpt lat="45.8863" lon="4.62088">
        <ele>225.05139</ele>
        <time>2022-10-04T11:31:02.000Z</time>
      </trkpt>
      <trkpt lat="45.88634" lon="4.6208">
        <ele>225.34143</ele>
        <time>2022-10-04T11:31:03.000Z</time>
      </trkpt>
      <trkpt lat="45.88637" lon="4.62072">
        <ele>225.57077</ele>
        <time>2022-10-04T11:31:04.000Z</time>
      </trkpt>
      <trkpt lat="45.88641" lon="4.62064">
        <ele>225.86057</ele>
        <time>2022-10-04T11:31:05.000Z</time>
      </trkpt>
      <trkpt lat="45.88643" lon="4.62055">
        <ele>226.15971</ele>
        <time>2022-10-04T11:31:06.000Z</time>
      </trkpt>
      <trkpt lat="45.88645" lon="4.62046">
        <ele>226.43452</ele>
        <time>2022-10-04T11:31:07.000Z</time>
      </trkpt>
      <trkpt lat="45.88647" lon="4.62039">
        <ele>226.65918</ele>
        <time>2022-10-04T11:31:08.000Z</time>
      </trkpt>
      <trkpt lat="45.88649" lon="4.6203">
        <ele>226.90878</ele>
        <time>2022-10-04T11:31:09.000Z</time>
      </trkpt>
      <trkpt lat="45.88652" lon="4.62021">
        <ele>227.1716</ele>
        <time>2022-10-04T11:31:10.000Z</time>
      </trkpt>
      <trkpt lat="45.88655" lon="4.62014">
        <ele>227.42679</ele>
        <time>2022-10-04T11:31:11.000Z</time>
      </trkpt>
      <trkpt lat="45.88658" lon="4.62006">
        <ele>227.58894</ele>
        <time>2022-10-04T11:31:12.000Z</time>
      </trkpt>
      <trkpt lat="45.88661" lon="4.62">
        <ele>227.70891</ele>
        <time>2022-10-04T11:31:13.000Z</time>
      </trkpt>
      <trkpt lat="45.88661" lon="4.61991">
        <ele>227.759</ele>
        <time>2022-10-04T11:31:14.000Z</time>
      </trkpt>
      <trkpt lat="45.88664" lon="4.61986">
        <ele>227.75533</ele>
        <time>2022-10-04T11:31:15.000Z</time>
      </trkpt>
      <trkpt lat="45.88665" lon="4.61978">
        <ele>227.66922</ele>
        <time>2022-10-04T11:31:16.000Z</time>
      </trkpt>
      <trkpt lat="45.88668" lon="4.61971">
        <ele>227.48636</ele>
        <time>2022-10-04T11:31:17.000Z</time>
      </trkpt>
      <trkpt lat="45.88671" lon="4.61965">
        <ele>227.2784</ele>
        <time>2022-10-04T11:31:18.000Z</time>
      </trkpt>
      <trkpt lat="45.88675" lon="4.61959">
        <ele>227.04984</ele>
        <time>2022-10-04T11:31:19.000Z</time>
      </trkpt>
      <trkpt lat="45.88678" lon="4.61951">
        <ele>226.92476</ele>
        <time>2022-10-04T11:31:20.000Z</time>
      </trkpt>
      <trkpt lat="45.88681" lon="4.61944">
        <ele>226.67493</ele>
        <time>2022-10-04T11:31:21.000Z</time>
      </trkpt>
      <trkpt lat="45.88683" lon="4.61936">
        <ele>226.43015</ele>
        <time>2022-10-04T11:31:22.000Z</time>
      </trkpt>
      <trkpt lat="45.88687" lon="4.61929">
        <ele>226.2262</ele>
        <time>2022-10-04T11:31:23.000Z</time>
      </trkpt>
      <trkpt lat="45.88688" lon="4.61921">
        <ele>226.00533</ele>
        <time>2022-10-04T11:31:24.000Z</time>
      </trkpt>
      <trkpt lat="45.88689" lon="4.61914">
        <ele>225.746</ele>
        <time>2022-10-04T11:31:25.000Z</time>
      </trkpt>
      <trkpt lat="45.88691" lon="4.61907">
        <ele>225.50935</ele>
        <time>2022-10-04T11:31:26.000Z</time>
      </trkpt>
      <trkpt lat="45.88694" lon="4.619">
        <ele>225.29121</ele>
        <time>2022-10-04T11:31:27.000Z</time>
      </trkpt>
      <trkpt lat="45.88696" lon="4.61893">
        <ele>225.10396</ele>
        <time>2022-10-04T11:31:28.000Z</time>
      </trkpt>
      <trkpt lat="45.88697" lon="4.61885">
        <ele>224.89082</ele>
        <time>2022-10-04T11:31:29.000Z</time>
      </trkpt>
      <trkpt lat="45.88699" lon="4.61879">
        <ele>224.63635</ele>
        <time>2022-10-04T11:31:30.000Z</time>
      </trkpt>
      <trkpt lat="45.887" lon="4.61874">
        <ele>224.32133</ele>
        <time>2022-10-04T11:31:31.000Z</time>
      </trkpt>
      <trkpt lat="45.88703" lon="4.61868">
        <ele>224.1344</ele>
        <time>2022-10-04T11:31:32.000Z</time>
      </trkpt>
      <trkpt lat="45.88705" lon="4.61861">
        <ele>223.91284</ele>
        <time>2022-10-04T11:31:33.000Z</time>
      </trkpt>
      <trkpt lat="45.88708" lon="4.61852">
        <ele>223.72778</ele>
        <time>2022-10-04T11:31:34.000Z</time>
      </trkpt>
      <trkpt lat="45.8871" lon="4.61845">
        <ele>223.64717</ele>
        <time>2022-10-04T11:31:35.000Z</time>
      </trkpt>
      <trkpt lat="45.88712" lon="4.61839">
        <ele>223.53027</ele>
        <time>2022-10-04T11:31:36.000Z</time>
      </trkpt>
      <trkpt lat="45.88714" lon="4.61831">
        <ele>223.47672</ele>
        <time>2022-10-04T11:31:37.000Z</time>
      </trkpt>
      <trkpt lat="45.88717" lon="4.61824">
        <ele>223.4978</ele>
        <time>2022-10-04T11:31:38.000Z</time>
      </trkpt>
      <trkpt lat="45.8872" lon="4.61817">
        <ele>223.55115</ele>
        <time>2022-10-04T11:31:39.000Z</time>
      </trkpt>
      <trkpt lat="45.88723" lon="4.61814">
        <ele>223.58231</ele>
        <time>2022-10-04T11:31:40.000Z</time>
      </trkpt>
      <trkpt lat="45.88725" lon="4.61805">
        <ele>223.66301</ele>
        <time>2022-10-04T11:31:41.000Z</time>
      </trkpt>
      <trkpt lat="45.88727" lon="4.61799">
        <ele>223.80908</ele>
        <time>2022-10-04T11:31:42.000Z</time>
      </trkpt>
      <trkpt lat="45.88729" lon="4.61792">
        <ele>223.94666</ele>
        <time>2022-10-04T11:31:43.000Z</time>
      </trkpt>
      <trkpt lat="45.88731" lon="4.61783">
        <ele>224.10417</ele>
        <time>2022-10-04T11:31:44.000Z</time>
      </trkpt>
      <trkpt lat="45.88733" lon="4.61775">
        <ele>224.28687</ele>
        <time>2022-10-04T11:31:45.000Z</time>
      </trkpt>
      <trkpt lat="45.88735" lon="4.61767">
        <ele>224.465</ele>
        <time>2022-10-04T11:31:46.000Z</time>
      </trkpt>
      <trkpt lat="45.88738" lon="4.61759">
        <ele>224.72336</ele>
        <time>2022-10-04T11:31:47.000Z</time>
      </trkpt>
      <trkpt lat="45.88741" lon="4.61751">
        <ele>225.02534</ele>
        <time>2022-10-04T11:31:48.000Z</time>
      </trkpt>
      <trkpt lat="45.88744" lon="4.61744">
        <ele>225.37338</ele>
        <time>2022-10-04T11:31:49.000Z</time>
      </trkpt>
      <trkpt lat="45.88743" lon="4.61736">
        <ele>225.72165</ele>
        <time>2022-10-04T11:31:50.000Z</time>
      </trkpt>
      <trkpt lat="45.88743" lon="4.61728">
        <ele>226.13208</ele>
        <time>2022-10-04T11:31:51.000Z</time>
      </trkpt>
      <trkpt lat="45.88748" lon="4.61722">
        <ele>226.46941</ele>
        <time>2022-10-04T11:31:52.000Z</time>
      </trkpt>
      <trkpt lat="45.88752" lon="4.61715">
        <ele>226.80803</ele>
        <time>2022-10-04T11:31:53.000Z</time>
      </trkpt>
      <trkpt lat="45.88755" lon="4.6171">
        <ele>227.12727</ele>
        <time>2022-10-04T11:31:54.000Z</time>
      </trkpt>
      <trkpt lat="45.88757" lon="4.61702">
        <ele>227.41341</ele>
        <time>2022-10-04T11:31:55.000Z</time>
      </trkpt>
      <trkpt lat="45.8876" lon="4.61696">
        <ele>227.73698</ele>
        <time>2022-10-04T11:31:56.000Z</time>
      </trkpt>
      <trkpt lat="45.88762" lon="4.61689">
        <ele>228.01457</ele>
        <time>2022-10-04T11:31:57.000Z</time>
      </trkpt>
      <trkpt lat="45.88766" lon="4.6168">
        <ele>228.28951</ele>
        <time>2022-10-04T11:31:58.000Z</time>
      </trkpt>
      <trkpt lat="45.88767" lon="4.61674">
        <ele>228.53516</ele>
        <time>2022-10-04T11:31:59.000Z</time>
      </trkpt>
      <trkpt lat="45.8877" lon="4.61667">
        <ele>228.76486</ele>
        <time>2022-10-04T11:32:00.000Z</time>
      </trkpt>
      <trkpt lat="45.88773" lon="4.61659">
        <ele>228.95169</ele>
        <time>2022-10-04T11:32:01.000Z</time>
      </trkpt>
      <trkpt lat="45.88776" lon="4.61651">
        <ele>229.1115</ele>
        <time>2022-10-04T11:32:02.000Z</time>
      </trkpt>
      <trkpt lat="45.88779" lon="4.61643">
        <ele>229.25119</ele>
        <time>2022-10-04T11:32:03.000Z</time>
      </trkpt>
      <trkpt lat="45.88783" lon="4.61637">
        <ele>229.39224</ele>
        <time>2022-10-04T11:32:04.000Z</time>
      </trkpt>
      <trkpt lat="45.88785" lon="4.61631">
        <ele>229.45618</ele>
        <time>2022-10-04T11:32:05.000Z</time>
      </trkpt>
      <trkpt lat="45.88788" lon="4.61625">
        <ele>229.50552</ele>
        <time>2022-10-04T11:32:06.000Z</time>
      </trkpt>
      <trkpt lat="45.8879" lon="4.61617">
        <ele>229.51974</ele>
        <time>2022-10-04T11:32:07.000Z</time>
      </trkpt>
      <trkpt lat="45.88793" lon="4.61608">
        <ele>229.52249</ele>
        <time>2022-10-04T11:32:08.000Z</time>
      </trkpt>
      <trkpt lat="45.88796" lon="4.616">
        <ele>229.4919</ele>
        <time>2022-10-04T11:32:09.000Z</time>
      </trkpt>
      <trkpt lat="45.88799" lon="4.61594">
        <ele>229.42757</ele>
        <time>2022-10-04T11:32:10.000Z</time>
      </trkpt>
      <trkpt lat="45.888" lon="4.61587">
        <ele>229.33862</ele>
        <time>2022-10-04T11:32:11.000Z</time>
      </trkpt>
      <trkpt lat="45.88803" lon="4.61579">
        <ele>229.24773</ele>
        <time>2022-10-04T11:32:12.000Z</time>
      </trkpt>
      <trkpt lat="45.88805" lon="4.61571">
        <ele>229.19719</ele>
        <time>2022-10-04T11:32:13.000Z</time>
      </trkpt>
      <trkpt lat="45.88808" lon="4.61565">
        <ele>229.17749</ele>
        <time>2022-10-04T11:32:14.000Z</time>
      </trkpt>
      <trkpt lat="45.88811" lon="4.61557">
        <ele>229.13452</ele>
        <time>2022-10-04T11:32:15.000Z</time>
      </trkpt>
      <trkpt lat="45.88812" lon="4.61548">
        <ele>229.06473</ele>
        <time>2022-10-04T11:32:16.000Z</time>
      </trkpt>
      <trkpt lat="45.88815" lon="4.61541">
        <ele>229.09622</ele>
        <time>2022-10-04T11:32:17.000Z</time>
      </trkpt>
      <trkpt lat="45.88818" lon="4.61536">
        <ele>229.02229</ele>
        <time>2022-10-04T11:32:18.000Z</time>
      </trkpt>
      <trkpt lat="45.88821" lon="4.61531">
        <ele>229.00058</ele>
        <time>2022-10-04T11:32:19.000Z</time>
      </trkpt>
      <trkpt lat="45.88823" lon="4.61521">
        <ele>229.03311</ele>
        <time>2022-10-04T11:32:20.000Z</time>
      </trkpt>
      <trkpt lat="45.88827" lon="4.61514">
        <ele>229.0184</ele>
        <time>2022-10-04T11:32:21.000Z</time>
      </trkpt>
      <trkpt lat="45.8883" lon="4.61509">
        <ele>228.99638</ele>
        <time>2022-10-04T11:32:22.000Z</time>
      </trkpt>
      <trkpt lat="45.88833" lon="4.61502">
        <ele>228.9158</ele>
        <time>2022-10-04T11:32:23.000Z</time>
      </trkpt>
      <trkpt lat="45.88835" lon="4.61495">
        <ele>228.75835</ele>
        <time>2022-10-04T11:32:24.000Z</time>
      </trkpt>
      <trkpt lat="45.88838" lon="4.61489">
        <ele>228.64957</ele>
        <time>2022-10-04T11:32:25.000Z</time>
      </trkpt>
      <trkpt lat="45.88843" lon="4.61484">
        <ele>228.49234</ele>
        <time>2022-10-04T11:32:26.000Z</time>
      </trkpt>
      <trkpt lat="45.88846" lon="4.61476">
        <ele>228.25996</ele>
        <time>2022-10-04T11:32:27.000Z</time>
      </trkpt>
      <trkpt lat="45.88846" lon="4.61466">
        <ele>228.04883</ele>
        <time>2022-10-04T11:32:28.000Z</time>
      </trkpt>
      <trkpt lat="45.8885" lon="4.61461">
        <ele>227.80603</ele>
        <time>2022-10-04T11:32:29.000Z</time>
      </trkpt>
      <trkpt lat="45.88849" lon="4.61451">
        <ele>227.62122</ele>
        <time>2022-10-04T11:32:30.000Z</time>
      </trkpt>
      <trkpt lat="45.88851" lon="4.61443">
        <ele>227.46477</ele>
        <time>2022-10-04T11:32:31.000Z</time>
      </trkpt>
      <trkpt lat="45.88853" lon="4.61434">
        <ele>227.29057</ele>
        <time>2022-10-04T11:32:32.000Z</time>
      </trkpt>
      <trkpt lat="45.88855" lon="4.61427">
        <ele>227.10271</ele>
        <time>2022-10-04T11:32:33.000Z</time>
      </trkpt>
      <trkpt lat="45.88856" lon="4.61417">
        <ele>226.94849</ele>
        <time>2022-10-04T11:32:34.000Z</time>
      </trkpt>
      <trkpt lat="45.8886" lon="4.61409">
        <ele>226.81473</ele>
        <time>2022-10-04T11:32:35.000Z</time>
      </trkpt>
      <trkpt lat="45.88861" lon="4.614">
        <ele>226.74918</ele>
        <time>2022-10-04T11:32:36.000Z</time>
      </trkpt>
      <trkpt lat="45.88862" lon="4.61389">
        <ele>226.62236</ele>
        <time>2022-10-04T11:32:37.000Z</time>
      </trkpt>
      <trkpt lat="45.88865" lon="4.61379">
        <ele>226.60355</ele>
        <time>2022-10-04T11:32:38.000Z</time>
      </trkpt>
      <trkpt lat="45.88866" lon="4.6137">
        <ele>226.53452</ele>
        <time>2022-10-04T11:32:39.000Z</time>
      </trkpt>
      <trkpt lat="45.88866" lon="4.61363">
        <ele>226.38313</ele>
        <time>2022-10-04T11:32:40.000Z</time>
      </trkpt>
      <trkpt lat="45.88867" lon="4.61355">
        <ele>226.2574</ele>
        <time>2022-10-04T11:32:41.000Z</time>
      </trkpt>
      <trkpt lat="45.8887" lon="4.61346">
        <ele>226.15317</ele>
        <time>2022-10-04T11:32:42.000Z</time>
      </trkpt>
      <trkpt lat="45.88871" lon="4.61336">
        <ele>226.1447</ele>
        <time>2022-10-04T11:32:43.000Z</time>
      </trkpt>
      <trkpt lat="45.88873" lon="4.61326">
        <ele>226.22229</ele>
        <time>2022-10-04T11:32:44.000Z</time>
      </trkpt>
      <trkpt lat="45.88874" lon="4.61319">
        <ele>226.20773</ele>
        <time>2022-10-04T11:32:45.000Z</time>
      </trkpt>
      <trkpt lat="45.88874" lon="4.61311">
        <ele>226.2343</ele>
        <time>2022-10-04T11:32:46.000Z</time>
      </trkpt>
      <trkpt lat="45.88875" lon="4.61302">
        <ele>226.26433</ele>
        <time>2022-10-04T11:32:47.000Z</time>
      </trkpt>
      <trkpt lat="45.88876" lon="4.61294">
        <ele>226.26584</ele>
        <time>2022-10-04T11:32:48.000Z</time>
      </trkpt>
      <trkpt lat="45.8888" lon="4.61244">
        <ele>226.31499</ele>
        <time>2022-10-04T11:32:54.000Z</time>
      </trkpt>
      <trkpt lat="45.8888" lon="4.61234">
        <ele>226.39046</ele>
        <time>2022-10-04T11:32:55.000Z</time>
      </trkpt>
      <trkpt lat="45.88879" lon="4.61227">
        <ele>226.38289</ele>
        <time>2022-10-04T11:32:56.000Z</time>
      </trkpt>
      <trkpt lat="45.88881" lon="4.61218">
        <ele>226.31758</ele>
        <time>2022-10-04T11:32:57.000Z</time>
      </trkpt>
      <trkpt lat="45.88884" lon="4.61208">
        <ele>226.17349</ele>
        <time>2022-10-04T11:32:58.000Z</time>
      </trkpt>
      <trkpt lat="45.88884" lon="4.61199">
        <ele>226.0385</ele>
        <time>2022-10-04T11:32:59.000Z</time>
      </trkpt>
      <trkpt lat="45.88884" lon="4.6119">
        <ele>225.90718</ele>
        <time>2022-10-04T11:33:00.000Z</time>
      </trkpt>
      <trkpt lat="45.88883" lon="4.61182">
        <ele>225.77287</ele>
        <time>2022-10-04T11:33:01.000Z</time>
      </trkpt>
      <trkpt lat="45.88885" lon="4.61173">
        <ele>225.5936</ele>
        <time>2022-10-04T11:33:02.000Z</time>
      </trkpt>
      <trkpt lat="45.88885" lon="4.61164">
        <ele>225.35349</ele>
        <time>2022-10-04T11:33:03.000Z</time>
      </trkpt>
      <trkpt lat="45.88885" lon="4.61156">
        <ele>225.12456</ele>
        <time>2022-10-04T11:33:04.000Z</time>
      </trkpt>
      <trkpt lat="45.88885" lon="4.61147">
        <ele>224.92314</ele>
        <time>2022-10-04T11:33:05.000Z</time>
      </trkpt>
      <trkpt lat="45.88884" lon="4.6114">
        <ele>224.73112</ele>
        <time>2022-10-04T11:33:06.000Z</time>
      </trkpt>
      <trkpt lat="45.88884" lon="4.6113">
        <ele>224.51657</ele>
        <time>2022-10-04T11:33:07.000Z</time>
      </trkpt>
      <trkpt lat="45.88884" lon="4.61122">
        <ele>224.26765</ele>
        <time>2022-10-04T11:33:08.000Z</time>
      </trkpt>
      <trkpt lat="45.88883" lon="4.61113">
        <ele>223.98343</ele>
        <time>2022-10-04T11:33:09.000Z</time>
      </trkpt>
      <trkpt lat="45.88882" lon="4.61104">
        <ele>223.802</ele>
        <time>2022-10-04T11:33:10.000Z</time>
      </trkpt>
      <trkpt lat="45.88883" lon="4.61085">
        <ele>223.61674</ele>
        <time>2022-10-04T11:33:12.000Z</time>
      </trkpt>
      <trkpt lat="45.88886" lon="4.61077">
        <ele>223.42671</ele>
        <time>2022-10-04T11:33:13.000Z</time>
      </trkpt>
      <trkpt lat="45.88886" lon="4.61068">
        <ele>223.24527</ele>
        <time>2022-10-04T11:33:14.000Z</time>
      </trkpt>
      <trkpt lat="45.88888" lon="4.61058">
        <ele>223.04268</ele>
        <time>2022-10-04T11:33:15.000Z</time>
      </trkpt>
      <trkpt lat="45.88887" lon="4.61052">
        <ele>222.81339</ele>
        <time>2022-10-04T11:33:16.000Z</time>
      </trkpt>
      <trkpt lat="45.88888" lon="4.61043">
        <ele>222.71567</ele>
        <time>2022-10-04T11:33:17.000Z</time>
      </trkpt>
      <trkpt lat="45.88889" lon="4.61035">
        <ele>222.63318</ele>
        <time>2022-10-04T11:33:18.000Z</time>
      </trkpt>
      <trkpt lat="45.88889" lon="4.61026">
        <ele>222.70743</ele>
        <time>2022-10-04T11:33:19.000Z</time>
      </trkpt>
      <trkpt lat="45.88888" lon="4.61019">
        <ele>222.67586</ele>
        <time>2022-10-04T11:33:20.000Z</time>
      </trkpt>
      <trkpt lat="45.88888" lon="4.6101">
        <ele>222.62375</ele>
        <time>2022-10-04T11:33:21.000Z</time>
      </trkpt>
      <trkpt lat="45.88889" lon="4.61001">
        <ele>222.60954</ele>
        <time>2022-10-04T11:33:22.000Z</time>
      </trkpt>
      <trkpt lat="45.88889" lon="4.60994">
        <ele>222.61865</ele>
        <time>2022-10-04T11:33:23.000Z</time>
      </trkpt>
      <trkpt lat="45.88892" lon="4.60986">
        <ele>222.63318</ele>
        <time>2022-10-04T11:33:24.000Z</time>
      </trkpt>
      <trkpt lat="45.88893" lon="4.60976">
        <ele>222.62659</ele>
        <time>2022-10-04T11:33:25.000Z</time>
      </trkpt>
      <trkpt lat="45.88896" lon="4.60968">
        <ele>222.64462</ele>
        <time>2022-10-04T11:33:26.000Z</time>
      </trkpt>
      <trkpt lat="45.88897" lon="4.60961">
        <ele>222.69661</ele>
        <time>2022-10-04T11:33:27.000Z</time>
      </trkpt>
      <trkpt lat="45.88898" lon="4.60955">
        <ele>222.76653</ele>
        <time>2022-10-04T11:33:28.000Z</time>
      </trkpt>
      <trkpt lat="45.889" lon="4.60946">
        <ele>222.79106</ele>
        <time>2022-10-04T11:33:29.000Z</time>
      </trkpt>
      <trkpt lat="45.88902" lon="4.60942">
        <ele>222.68527</ele>
        <time>2022-10-04T11:33:30.000Z</time>
      </trkpt>
      <trkpt lat="45.88905" lon="4.60933">
        <ele>222.60945</ele>
        <time>2022-10-04T11:33:31.000Z</time>
      </trkpt>
      <trkpt lat="45.88908" lon="4.60926">
        <ele>222.55029</ele>
        <time>2022-10-04T11:33:32.000Z</time>
      </trkpt>
      <trkpt lat="45.88909" lon="4.6092">
        <ele>222.52583</ele>
        <time>2022-10-04T11:33:33.000Z</time>
      </trkpt>
      <trkpt lat="45.88911" lon="4.60912">
        <ele>222.54611</ele>
        <time>2022-10-04T11:33:34.000Z</time>
      </trkpt>
      <trkpt lat="45.88914" lon="4.60904">
        <ele>222.59258</ele>
        <time>2022-10-04T11:33:35.000Z</time>
      </trkpt>
      <trkpt lat="45.88917" lon="4.60896">
        <ele>222.63773</ele>
        <time>2022-10-04T11:33:36.000Z</time>
      </trkpt>
      <trkpt lat="45.88921" lon="4.6089">
        <ele>222.65695</ele>
        <time>2022-10-04T11:33:37.000Z</time>
      </trkpt>
      <trkpt lat="45.88923" lon="4.60883">
        <ele>222.78389</ele>
        <time>2022-10-04T11:33:38.000Z</time>
      </trkpt>
      <trkpt lat="45.88926" lon="4.60875">
        <ele>222.87456</ele>
        <time>2022-10-04T11:33:39.000Z</time>
      </trkpt>
      <trkpt lat="45.88929" lon="4.60869">
        <ele>223.01469</ele>
        <time>2022-10-04T11:33:40.000Z</time>
      </trkpt>
      <trkpt lat="45.88932" lon="4.60862">
        <ele>223.10384</ele>
        <time>2022-10-04T11:33:41.000Z</time>
      </trkpt>
      <trkpt lat="45.88935" lon="4.60853">
        <ele>223.17636</ele>
        <time>2022-10-04T11:33:42.000Z</time>
      </trkpt>
      <trkpt lat="45.88938" lon="4.60847">
        <ele>223.22478</ele>
        <time>2022-10-04T11:33:43.000Z</time>
      </trkpt>
      <trkpt lat="45.88941" lon="4.6084">
        <ele>223.28137</ele>
        <time>2022-10-04T11:33:44.000Z</time>
      </trkpt>
      <trkpt lat="45.88945" lon="4.60834">
        <ele>223.34961</ele>
        <time>2022-10-04T11:33:45.000Z</time>
      </trkpt>
      <trkpt lat="45.88948" lon="4.60827">
        <ele>223.38461</ele>
        <time>2022-10-04T11:33:46.000Z</time>
      </trkpt>
      <trkpt lat="45.8895" lon="4.60819">
        <ele>223.40617</ele>
        <time>2022-10-04T11:33:47.000Z</time>
      </trkpt>
      <trkpt lat="45.88953" lon="4.60812">
        <ele>223.43465</ele>
        <time>2022-10-04T11:33:48.000Z</time>
      </trkpt>
      <trkpt lat="45.88958" lon="4.60804">
        <ele>223.57437</ele>
        <time>2022-10-04T11:33:49.000Z</time>
      </trkpt>
      <trkpt lat="45.88961" lon="4.60796">
        <ele>223.87369</ele>
        <time>2022-10-04T11:33:50.000Z</time>
      </trkpt>
      <trkpt lat="45.88964" lon="4.6079">
        <ele>224.13745</ele>
        <time>2022-10-04T11:33:51.000Z</time>
      </trkpt>
      <trkpt lat="45.88967" lon="4.60782">
        <ele>224.4136</ele>
        <time>2022-10-04T11:33:52.000Z</time>
      </trkpt>
      <trkpt lat="45.88969" lon="4.60774">
        <ele>224.69498</ele>
        <time>2022-10-04T11:33:53.000Z</time>
      </trkpt>
      <trkpt lat="45.88971" lon="4.60768">
        <ele>224.87668</ele>
        <time>2022-10-04T11:33:54.000Z</time>
      </trkpt>
      <trkpt lat="45.88974" lon="4.60759">
        <ele>225.097</ele>
        <time>2022-10-04T11:33:55.000Z</time>
      </trkpt>
      <trkpt lat="45.88977" lon="4.60753">
        <ele>225.31628</ele>
        <time>2022-10-04T11:33:56.000Z</time>
      </trkpt>
      <trkpt lat="45.8898" lon="4.60745">
        <ele>225.60355</ele>
        <time>2022-10-04T11:33:57.000Z</time>
      </trkpt>
      <trkpt lat="45.88983" lon="4.60737">
        <ele>225.84795</ele>
        <time>2022-10-04T11:33:58.000Z</time>
      </trkpt>
      <trkpt lat="45.88986" lon="4.6073">
        <ele>226.06137</ele>
        <time>2022-10-04T11:33:59.000Z</time>
      </trkpt>
      <trkpt lat="45.88989" lon="4.60723">
        <ele>226.30261</ele>
        <time>2022-10-04T11:34:00.000Z</time>
      </trkpt>
      <trkpt lat="45.88991" lon="4.60715">
        <ele>226.604</ele>
        <time>2022-10-04T11:34:01.000Z</time>
      </trkpt>
      <trkpt lat="45.88994" lon="4.60709">
        <ele>226.84892</ele>
        <time>2022-10-04T11:34:02.000Z</time>
      </trkpt>
      <trkpt lat="45.88997" lon="4.60701">
        <ele>227.14078</ele>
        <time>2022-10-04T11:34:03.000Z</time>
      </trkpt>
      <trkpt lat="45.88998" lon="4.60695">
        <ele>227.4259</ele>
        <time>2022-10-04T11:34:04.000Z</time>
      </trkpt>
      <trkpt lat="45.89001" lon="4.6069">
        <ele>227.65361</ele>
        <time>2022-10-04T11:34:05.000Z</time>
      </trkpt>
      <trkpt lat="45.89003" lon="4.60681">
        <ele>227.94189</ele>
        <time>2022-10-04T11:34:06.000Z</time>
      </trkpt>
      <trkpt lat="45.89005" lon="4.60673">
        <ele>228.23877</ele>
        <time>2022-10-04T11:34:07.000Z</time>
      </trkpt>
      <trkpt lat="45.89008" lon="4.60666">
        <ele>228.49174</ele>
        <time>2022-10-04T11:34:08.000Z</time>
      </trkpt>
      <trkpt lat="45.8901" lon="4.60661">
        <ele>228.63098</ele>
        <time>2022-10-04T11:34:09.000Z</time>
      </trkpt>
      <trkpt lat="45.89011" lon="4.60654">
        <ele>228.74619</ele>
        <time>2022-10-04T11:34:10.000Z</time>
      </trkpt>
      <trkpt lat="45.89014" lon="4.60647">
        <ele>228.89824</ele>
        <time>2022-10-04T11:34:11.000Z</time>
      </trkpt>
      <trkpt lat="45.89018" lon="4.60641">
        <ele>229.04944</ele>
        <time>2022-10-04T11:34:12.000Z</time>
      </trkpt>
      <trkpt lat="45.8902" lon="4.60634">
        <ele>229.14554</ele>
        <time>2022-10-04T11:34:13.000Z</time>
      </trkpt>
      <trkpt lat="45.89023" lon="4.60624">
        <ele>229.29684</ele>
        <time>2022-10-04T11:34:14.000Z</time>
      </trkpt>
      <trkpt lat="45.89025" lon="4.60614">
        <ele>229.44633</ele>
        <time>2022-10-04T11:34:15.000Z</time>
      </trkpt>
      <trkpt lat="45.89026" lon="4.60606">
        <ele>229.62207</ele>
        <time>2022-10-04T11:34:16.000Z</time>
      </trkpt>
      <trkpt lat="45.89029" lon="4.60597">
        <ele>229.76152</ele>
        <time>2022-10-04T11:34:17.000Z</time>
      </trkpt>
      <trkpt lat="45.89032" lon="4.60589">
        <ele>229.87549</ele>
        <time>2022-10-04T11:34:18.000Z</time>
      </trkpt>
      <trkpt lat="45.89034" lon="4.6058">
        <ele>230.01303</ele>
        <time>2022-10-04T11:34:19.000Z</time>
      </trkpt>
      <trkpt lat="45.89036" lon="4.60571">
        <ele>230.16452</ele>
        <time>2022-10-04T11:34:20.000Z</time>
      </trkpt>
      <trkpt lat="45.89037" lon="4.60563">
        <ele>230.30591</ele>
        <time>2022-10-04T11:34:21.000Z</time>
      </trkpt>
      <trkpt lat="45.89039" lon="4.60556">
        <ele>230.40759</ele>
        <time>2022-10-04T11:34:22.000Z</time>
      </trkpt>
      <trkpt lat="45.89041" lon="4.60548">
        <ele>230.49423</ele>
        <time>2022-10-04T11:34:23.000Z</time>
      </trkpt>
      <trkpt lat="45.89042" lon="4.60538">
        <ele>230.63127</ele>
        <time>2022-10-04T11:34:24.000Z</time>
      </trkpt>
      <trkpt lat="45.89044" lon="4.60531">
        <ele>230.8387</ele>
        <time>2022-10-04T11:34:25.000Z</time>
      </trkpt>
      <trkpt lat="45.89045" lon="4.60522">
        <ele>231.03706</ele>
        <time>2022-10-04T11:34:26.000Z</time>
      </trkpt>
      <trkpt lat="45.89047" lon="4.60514">
        <ele>231.27312</ele>
        <time>2022-10-04T11:34:27.000Z</time>
      </trkpt>
      <trkpt lat="45.89048" lon="4.60506">
        <ele>231.53313</ele>
        <time>2022-10-04T11:34:28.000Z</time>
      </trkpt>
      <trkpt lat="45.8905" lon="4.60498">
        <ele>231.78757</ele>
        <time>2022-10-04T11:34:29.000Z</time>
      </trkpt>
      <trkpt lat="45.8905" lon="4.60489">
        <ele>232.03781</ele>
        <time>2022-10-04T11:34:30.000Z</time>
      </trkpt>
      <trkpt lat="45.89054" lon="4.60481">
        <ele>232.24924</ele>
        <time>2022-10-04T11:34:31.000Z</time>
      </trkpt>
      <trkpt lat="45.89055" lon="4.60472">
        <ele>232.44177</ele>
        <time>2022-10-04T11:34:32.000Z</time>
      </trkpt>
      <trkpt lat="45.89056" lon="4.60463">
        <ele>232.70462</ele>
        <time>2022-10-04T11:34:33.000Z</time>
      </trkpt>
      <trkpt lat="45.89058" lon="4.60455">
        <ele>232.92598</ele>
        <time>2022-10-04T11:34:34.000Z</time>
      </trkpt>
      <trkpt lat="45.8906" lon="4.60445">
        <ele>233.09497</ele>
        <time>2022-10-04T11:34:35.000Z</time>
      </trkpt>
      <trkpt lat="45.89061" lon="4.60437">
        <ele>233.2769</ele>
        <time>2022-10-04T11:34:36.000Z</time>
      </trkpt>
      <trkpt lat="45.89065" lon="4.60428">
        <ele>233.40079</ele>
        <time>2022-10-04T11:34:37.000Z</time>
      </trkpt>
      <trkpt lat="45.89066" lon="4.6042">
        <ele>233.57468</ele>
        <time>2022-10-04T11:34:38.000Z</time>
      </trkpt>
      <trkpt lat="45.89068" lon="4.60412">
        <ele>233.68985</ele>
        <time>2022-10-04T11:34:39.000Z</time>
      </trkpt>
      <trkpt lat="45.89069" lon="4.60403">
        <ele>233.81088</ele>
        <time>2022-10-04T11:34:40.000Z</time>
      </trkpt>
      <trkpt lat="45.8907" lon="4.60396">
        <ele>233.97092</ele>
        <time>2022-10-04T11:34:41.000Z</time>
      </trkpt>
      <trkpt lat="45.89074" lon="4.60387">
        <ele>234.20003</ele>
        <time>2022-10-04T11:34:42.000Z</time>
      </trkpt>
      <trkpt lat="45.89075" lon="4.6038">
        <ele>234.43291</ele>
        <time>2022-10-04T11:34:43.000Z</time>
      </trkpt>
      <trkpt lat="45.89076" lon="4.60372">
        <ele>234.69885</ele>
        <time>2022-10-04T11:34:44.000Z</time>
      </trkpt>
      <trkpt lat="45.89077" lon="4.60365">
        <ele>234.94763</ele>
        <time>2022-10-04T11:34:45.000Z</time>
      </trkpt>
      <trkpt lat="45.89079" lon="4.60356">
        <ele>235.15959</ele>
        <time>2022-10-04T11:34:46.000Z</time>
      </trkpt>
      <trkpt lat="45.89077" lon="4.60351">
        <ele>235.33089</ele>
        <time>2022-10-04T11:34:47.000Z</time>
      </trkpt>
      <trkpt lat="45.89077" lon="4.60346">
        <ele>235.49834</ele>
        <time>2022-10-04T11:34:48.000Z</time>
      </trkpt>
      <trkpt lat="45.89079" lon="4.60338">
        <ele>235.7052</ele>
        <time>2022-10-04T11:34:49.000Z</time>
      </trkpt>
      <trkpt lat="45.89081" lon="4.6033">
        <ele>235.96072</ele>
        <time>2022-10-04T11:34:50.000Z</time>
      </trkpt>
      <trkpt lat="45.89085" lon="4.6032">
        <ele>236.23056</ele>
        <time>2022-10-04T11:34:51.000Z</time>
      </trkpt>
      <trkpt lat="45.89083" lon="4.60315">
        <ele>236.55904</ele>
        <time>2022-10-04T11:34:52.000Z</time>
      </trkpt>
      <trkpt lat="45.89079" lon="4.60313">
        <ele>236.8306</ele>
        <time>2022-10-04T11:34:53.000Z</time>
      </trkpt>
      <trkpt lat="45.89078" lon="4.60309">
        <ele>237.05757</ele>
        <time>2022-10-04T11:34:54.000Z</time>
      </trkpt>
      <trkpt lat="45.8908" lon="4.60301">
        <ele>237.33257</ele>
        <time>2022-10-04T11:34:55.000Z</time>
      </trkpt>
      <trkpt lat="45.89082" lon="4.60292">
        <ele>237.58203</ele>
        <time>2022-10-04T11:34:56.000Z</time>
      </trkpt>
      <trkpt lat="45.89084" lon="4.60283">
        <ele>237.88802</ele>
        <time>2022-10-04T11:34:57.000Z</time>
      </trkpt>
      <trkpt lat="45.89089" lon="4.60272">
        <ele>238.06995</ele>
        <time>2022-10-04T11:34:58.000Z</time>
      </trkpt>
      <trkpt lat="45.89091" lon="4.60262">
        <ele>238.22873</ele>
        <time>2022-10-04T11:34:59.000Z</time>
      </trkpt>
      <trkpt lat="45.89089" lon="4.60256">
        <ele>238.43417</ele>
        <time>2022-10-04T11:35:00.000Z</time>
      </trkpt>
      <trkpt lat="45.8909" lon="4.60247">
        <ele>238.57947</ele>
        <time>2022-10-04T11:35:01.000Z</time>
      </trkpt>
      <trkpt lat="45.8909" lon="4.60238">
        <ele>238.74619</ele>
        <time>2022-10-04T11:35:02.000Z</time>
      </trkpt>
      <trkpt lat="45.8909" lon="4.60231">
        <ele>239.02885</ele>
        <time>2022-10-04T11:35:03.000Z</time>
      </trkpt>
      <trkpt lat="45.89093" lon="4.60221">
        <ele>239.23413</ele>
        <time>2022-10-04T11:35:04.000Z</time>
      </trkpt>
      <trkpt lat="45.89096" lon="4.60212">
        <ele>239.42038</ele>
        <time>2022-10-04T11:35:05.000Z</time>
      </trkpt>
      <trkpt lat="45.89099" lon="4.60203">
        <ele>239.55313</ele>
        <time>2022-10-04T11:35:06.000Z</time>
      </trkpt>
      <trkpt lat="45.891" lon="4.60193">
        <ele>239.66101</ele>
        <time>2022-10-04T11:35:07.000Z</time>
      </trkpt>
      <trkpt lat="45.89103" lon="4.60182">
        <ele>239.69926</ele>
        <time>2022-10-04T11:35:08.000Z</time>
      </trkpt>
      <trkpt lat="45.89106" lon="4.60174">
        <ele>239.64177</ele>
        <time>2022-10-04T11:35:09.000Z</time>
      </trkpt>
      <trkpt lat="45.89107" lon="4.60162">
        <ele>239.6416</ele>
        <time>2022-10-04T11:35:10.000Z</time>
      </trkpt>
      <trkpt lat="45.89109" lon="4.60152">
        <ele>239.59464</ele>
        <time>2022-10-04T11:35:11.000Z</time>
      </trkpt>
      <trkpt lat="45.89111" lon="4.60141">
        <ele>239.53061</ele>
        <time>2022-10-04T11:35:12.000Z</time>
      </trkpt>
      <trkpt lat="45.89112" lon="4.60131">
        <ele>239.39151</ele>
        <time>2022-10-04T11:35:13.000Z</time>
      </trkpt>
      <trkpt lat="45.89115" lon="4.60119">
        <ele>239.27274</ele>
        <time>2022-10-04T11:35:14.000Z</time>
      </trkpt>
      <trkpt lat="45.89117" lon="4.60108">
        <ele>239.11617</ele>
        <time>2022-10-04T11:35:15.000Z</time>
      </trkpt>
      <trkpt lat="45.89119" lon="4.60098">
        <ele>238.97034</ele>
        <time>2022-10-04T11:35:16.000Z</time>
      </trkpt>
      <trkpt lat="45.89122" lon="4.60085">
        <ele>238.79337</ele>
        <time>2022-10-04T11:35:17.000Z</time>
      </trkpt>
      <trkpt lat="45.89127" lon="4.60077">
        <ele>238.6335</ele>
        <time>2022-10-04T11:35:18.000Z</time>
      </trkpt>
      <trkpt lat="45.89132" lon="4.60067">
        <ele>238.55559</ele>
        <time>2022-10-04T11:35:19.000Z</time>
      </trkpt>
      <trkpt lat="45.89136" lon="4.60056">
        <ele>238.44913</ele>
        <time>2022-10-04T11:35:20.000Z</time>
      </trkpt>
      <trkpt lat="45.89141" lon="4.60044">
        <ele>238.3353</ele>
        <time>2022-10-04T11:35:21.000Z</time>
      </trkpt>
      <trkpt lat="45.89146" lon="4.60033">
        <ele>238.14763</ele>
        <time>2022-10-04T11:35:22.000Z</time>
      </trkpt>
      <trkpt lat="45.89152" lon="4.60024">
        <ele>237.88699</ele>
        <time>2022-10-04T11:35:23.000Z</time>
      </trkpt>
      <trkpt lat="45.89157" lon="4.60013">
        <ele>237.61008</ele>
        <time>2022-10-04T11:35:24.000Z</time>
      </trkpt>
      <trkpt lat="45.89162" lon="4.60001">
        <ele>237.35664</ele>
        <time>2022-10-04T11:35:25.000Z</time>
      </trkpt>
      <trkpt lat="45.89168" lon="4.5999">
        <ele>237.08755</ele>
        <time>2022-10-04T11:35:26.000Z</time>
      </trkpt>
      <trkpt lat="45.89175" lon="4.59979">
        <ele>236.85312</ele>
        <time>2022-10-04T11:35:27.000Z</time>
      </trkpt>
      <trkpt lat="45.89183" lon="4.59969">
        <ele>236.71516</ele>
        <time>2022-10-04T11:35:28.000Z</time>
      </trkpt>
      <trkpt lat="45.8919" lon="4.59958">
        <ele>236.7063</ele>
        <time>2022-10-04T11:35:29.000Z</time>
      </trkpt>
      <trkpt lat="45.89199" lon="4.59952">
        <ele>236.62369</ele>
        <time>2022-10-04T11:35:30.000Z</time>
      </trkpt>
      <trkpt lat="45.89206" lon="4.59941">
        <ele>236.63477</ele>
        <time>2022-10-04T11:35:31.000Z</time>
      </trkpt>
      <trkpt lat="45.89214" lon="4.59936">
        <ele>236.67725</ele>
        <time>2022-10-04T11:35:32.000Z</time>
      </trkpt>
      <trkpt lat="45.89221" lon="4.59928">
        <ele>236.79243</ele>
        <time>2022-10-04T11:35:33.000Z</time>
      </trkpt>
      <trkpt lat="45.89225" lon="4.5992">
        <ele>236.88937</ele>
        <time>2022-10-04T11:35:34.000Z</time>
      </trkpt>
      <trkpt lat="45.89228" lon="4.59911">
        <ele>236.85837</ele>
        <time>2022-10-04T11:35:35.000Z</time>
      </trkpt>
      <trkpt lat="45.89235" lon="4.59903">
        <ele>236.82718</ele>
        <time>2022-10-04T11:35:36.000Z</time>
      </trkpt>
      <trkpt lat="45.8924" lon="4.59894">
        <ele>236.78134</ele>
        <time>2022-10-04T11:35:37.000Z</time>
      </trkpt>
      <trkpt lat="45.89243" lon="4.59886">
        <ele>236.70219</ele>
        <time>2022-10-04T11:35:38.000Z</time>
      </trkpt>
      <trkpt lat="45.89248" lon="4.59879">
        <ele>236.49954</ele>
        <time>2022-10-04T11:35:39.000Z</time>
      </trkpt>
      <trkpt lat="45.89253" lon="4.59872">
        <ele>236.17834</ele>
        <time>2022-10-04T11:35:40.000Z</time>
      </trkpt>
      <trkpt lat="45.89259" lon="4.59864">
        <ele>235.78088</ele>
        <time>2022-10-04T11:35:41.000Z</time>
      </trkpt>
      <trkpt lat="45.89265" lon="4.59856">
        <ele>235.40617</ele>
        <time>2022-10-04T11:35:42.000Z</time>
      </trkpt>
      <trkpt lat="45.89267" lon="4.5985">
        <ele>234.95865</ele>
        <time>2022-10-04T11:35:43.000Z</time>
      </trkpt>
      <trkpt lat="45.89272" lon="4.59842">
        <ele>234.57431</ele>
        <time>2022-10-04T11:35:44.000Z</time>
      </trkpt>
      <trkpt lat="45.89278" lon="4.59834">
        <ele>234.18066</ele>
        <time>2022-10-04T11:35:45.000Z</time>
      </trkpt>
      <trkpt lat="45.8928" lon="4.59826">
        <ele>233.93042</ele>
        <time>2022-10-04T11:35:46.000Z</time>
      </trkpt>
      <trkpt lat="45.89284" lon="4.59819">
        <ele>233.65952</ele>
        <time>2022-10-04T11:35:47.000Z</time>
      </trkpt>
      <trkpt lat="45.8929" lon="4.59813">
        <ele>233.37662</ele>
        <time>2022-10-04T11:35:48.000Z</time>
      </trkpt>
      <trkpt lat="45.89298" lon="4.59805">
        <ele>233.04158</ele>
        <time>2022-10-04T11:35:49.000Z</time>
      </trkpt>
      <trkpt lat="45.89303" lon="4.59799">
        <ele>232.68062</ele>
        <time>2022-10-04T11:35:50.000Z</time>
      </trkpt>
      <trkpt lat="45.89308" lon="4.59792">
        <ele>232.34195</ele>
        <time>2022-10-04T11:35:51.000Z</time>
      </trkpt>
      <trkpt lat="45.89314" lon="4.59785">
        <ele>231.95467</ele>
        <time>2022-10-04T11:35:52.000Z</time>
      </trkpt>
      <trkpt lat="45.89322" lon="4.59777">
        <ele>231.41074</ele>
        <time>2022-10-04T11:35:53.000Z</time>
      </trkpt>
      <trkpt lat="45.89326" lon="4.59771">
        <ele>230.97733</ele>
        <time>2022-10-04T11:35:54.000Z</time>
      </trkpt>
      <trkpt lat="45.8933" lon="4.59764">
        <ele>230.71941</ele>
        <time>2022-10-04T11:35:55.000Z</time>
      </trkpt>
      <trkpt lat="45.89335" lon="4.59757">
        <ele>230.43462</ele>
        <time>2022-10-04T11:35:56.000Z</time>
      </trkpt>
      <trkpt lat="45.89337" lon="4.5975">
        <ele>230.13016</ele>
        <time>2022-10-04T11:35:57.000Z</time>
      </trkpt>
      <trkpt lat="45.89342" lon="4.59743">
        <ele>229.84297</ele>
        <time>2022-10-04T11:35:58.000Z</time>
      </trkpt>
      <trkpt lat="45.89346" lon="4.59736">
        <ele>229.59232</ele>
        <time>2022-10-04T11:35:59.000Z</time>
      </trkpt>
      <trkpt lat="45.8935" lon="4.5973">
        <ele>229.57832</ele>
        <time>2022-10-04T11:36:00.000Z</time>
      </trkpt>
      <trkpt lat="45.89355" lon="4.59724">
        <ele>229.71548</ele>
        <time>2022-10-04T11:36:01.000Z</time>
      </trkpt>
      <trkpt lat="45.89357" lon="4.59717">
        <ele>229.8501</ele>
        <time>2022-10-04T11:36:02.000Z</time>
      </trkpt>
      <trkpt lat="45.89362" lon="4.59711">
        <ele>230.01877</ele>
        <time>2022-10-04T11:36:03.000Z</time>
      </trkpt>
      <trkpt lat="45.89364" lon="4.59704">
        <ele>230.11057</ele>
        <time>2022-10-04T11:36:04.000Z</time>
      </trkpt>
      <trkpt lat="45.89368" lon="4.59699">
        <ele>230.18759</ele>
        <time>2022-10-04T11:36:05.000Z</time>
      </trkpt>
      <trkpt lat="45.89372" lon="4.59693">
        <ele>230.19717</ele>
        <time>2022-10-04T11:36:06.000Z</time>
      </trkpt>
      <trkpt lat="45.89379" lon="4.59687">
        <ele>230.19453</ele>
        <time>2022-10-04T11:36:07.000Z</time>
      </trkpt>
      <trkpt lat="45.89383" lon="4.59681">
        <ele>230.14841</ele>
        <time>2022-10-04T11:36:08.000Z</time>
      </trkpt>
      <trkpt lat="45.89388" lon="4.59676">
        <ele>230.11772</ele>
        <time>2022-10-04T11:36:09.000Z</time>
      </trkpt>
      <trkpt lat="45.89393" lon="4.59669">
        <ele>230.08322</ele>
        <time>2022-10-04T11:36:10.000Z</time>
      </trkpt>
      <trkpt lat="45.89398" lon="4.59663">
        <ele>229.91585</ele>
        <time>2022-10-04T11:36:11.000Z</time>
      </trkpt>
      <trkpt lat="45.89404" lon="4.59656">
        <ele>229.71445</ele>
        <time>2022-10-04T11:36:12.000Z</time>
      </trkpt>
      <trkpt lat="45.89408" lon="4.59649">
        <ele>229.731</ele>
        <time>2022-10-04T11:36:13.000Z</time>
      </trkpt>
      <trkpt lat="45.89411" lon="4.59644">
        <ele>229.72115</ele>
        <time>2022-10-04T11:36:14.000Z</time>
      </trkpt>
      <trkpt lat="45.89414" lon="4.59638">
        <ele>229.67334</ele>
        <time>2022-10-04T11:36:15.000Z</time>
      </trkpt>
      <trkpt lat="45.8942" lon="4.59633">
        <ele>229.70381</ele>
        <time>2022-10-04T11:36:16.000Z</time>
      </trkpt>
      <trkpt lat="45.89423" lon="4.59627">
        <ele>229.79826</ele>
        <time>2022-10-04T11:36:17.000Z</time>
      </trkpt>
      <trkpt lat="45.89427" lon="4.59621">
        <ele>230.02698</ele>
        <time>2022-10-04T11:36:18.000Z</time>
      </trkpt>
      <trkpt lat="45.8943" lon="4.59614">
        <ele>230.28975</ele>
        <time>2022-10-04T11:36:19.000Z</time>
      </trkpt>
      <trkpt lat="45.89436" lon="4.59607">
        <ele>230.353</ele>
        <time>2022-10-04T11:36:20.000Z</time>
      </trkpt>
      <trkpt lat="45.89439" lon="4.59599">
        <ele>230.29216</ele>
        <time>2022-10-04T11:36:21.000Z</time>
      </trkpt>
      <trkpt lat="45.89445" lon="4.59592">
        <ele>230.23502</ele>
        <time>2022-10-04T11:36:22.000Z</time>
      </trkpt>
      <trkpt lat="45.89451" lon="4.59587">
        <ele>230.19775</ele>
        <time>2022-10-04T11:36:23.000Z</time>
      </trkpt>
      <trkpt lat="45.89456" lon="4.59582">
        <ele>230.24121</ele>
        <time>2022-10-04T11:36:24.000Z</time>
      </trkpt>
      <trkpt lat="45.89459" lon="4.59576">
        <ele>230.34004</ele>
        <time>2022-10-04T11:36:25.000Z</time>
      </trkpt>
      <trkpt lat="45.89464" lon="4.59568">
        <ele>230.36325</ele>
        <time>2022-10-04T11:36:26.000Z</time>
      </trkpt>
      <trkpt lat="45.8947" lon="4.59566">
        <ele>230.41841</ele>
        <time>2022-10-04T11:36:27.000Z</time>
      </trkpt>
      <trkpt lat="45.89475" lon="4.5956">
        <ele>230.55733</ele>
        <time>2022-10-04T11:36:28.000Z</time>
      </trkpt>
      <trkpt lat="45.8948" lon="4.59555">
        <ele>230.76132</ele>
        <time>2022-10-04T11:36:29.000Z</time>
      </trkpt>
      <trkpt lat="45.89485" lon="4.59549">
        <ele>231.005</ele>
        <time>2022-10-04T11:36:30.000Z</time>
      </trkpt>
      <trkpt lat="45.8949" lon="4.59544">
        <ele>231.28287</ele>
        <time>2022-10-04T11:36:31.000Z</time>
      </trkpt>
      <trkpt lat="45.89495" lon="4.5954">
        <ele>231.61702</ele>
        <time>2022-10-04T11:36:32.000Z</time>
      </trkpt>
      <trkpt lat="45.895" lon="4.59534">
        <ele>231.96663</ele>
        <time>2022-10-04T11:36:33.000Z</time>
      </trkpt>
      <trkpt lat="45.89504" lon="4.59529">
        <ele>232.31418</ele>
        <time>2022-10-04T11:36:34.000Z</time>
      </trkpt>
      <trkpt lat="45.89509" lon="4.59523">
        <ele>232.6967</ele>
        <time>2022-10-04T11:36:35.000Z</time>
      </trkpt>
      <trkpt lat="45.89512" lon="4.59518">
        <ele>233.07878</ele>
        <time>2022-10-04T11:36:36.000Z</time>
      </trkpt>
      <trkpt lat="45.89516" lon="4.59514">
        <ele>233.37955</ele>
        <time>2022-10-04T11:36:37.000Z</time>
      </trkpt>
      <trkpt lat="45.8952" lon="4.59509">
        <ele>233.66272</ele>
        <time>2022-10-04T11:36:38.000Z</time>
      </trkpt>
      <trkpt lat="45.89524" lon="4.59504">
        <ele>233.99277</ele>
        <time>2022-10-04T11:36:39.000Z</time>
      </trkpt>
      <trkpt lat="45.89528" lon="4.59499">
        <ele>234.3457</ele>
        <time>2022-10-04T11:36:40.000Z</time>
      </trkpt>
      <trkpt lat="45.89532" lon="4.59494">
        <ele>234.77011</ele>
        <time>2022-10-04T11:36:41.000Z</time>
      </trkpt>
      <trkpt lat="45.89536" lon="4.59488">
        <ele>235.18918</ele>
        <time>2022-10-04T11:36:42.000Z</time>
      </trkpt>
      <trkpt lat="45.89539" lon="4.59483">
        <ele>235.57822</ele>
        <time>2022-10-04T11:36:43.000Z</time>
      </trkpt>
      <trkpt lat="45.89542" lon="4.59476">
        <ele>235.92068</ele>
        <time>2022-10-04T11:36:44.000Z</time>
      </trkpt>
      <trkpt lat="45.89545" lon="4.59471">
        <ele>236.21049</ele>
        <time>2022-10-04T11:36:45.000Z</time>
      </trkpt>
      <trkpt lat="45.89548" lon="4.59467">
        <ele>236.59677</ele>
        <time>2022-10-04T11:36:46.000Z</time>
      </trkpt>
      <trkpt lat="45.89552" lon="4.59459">
        <ele>236.95264</ele>
        <time>2022-10-04T11:36:47.000Z</time>
      </trkpt>
      <trkpt lat="45.89555" lon="4.59452">
        <ele>237.24385</ele>
        <time>2022-10-04T11:36:48.000Z</time>
      </trkpt>
      <trkpt lat="45.89559" lon="4.59445">
        <ele>237.4888</ele>
        <time>2022-10-04T11:36:49.000Z</time>
      </trkpt>
      <trkpt lat="45.89561" lon="4.59441">
        <ele>237.63376</ele>
        <time>2022-10-04T11:36:50.000Z</time>
      </trkpt>
      <trkpt lat="45.89564" lon="4.59434">
        <ele>237.80623</ele>
        <time>2022-10-04T11:36:51.000Z</time>
      </trkpt>
      <trkpt lat="45.89567" lon="4.5943">
        <ele>237.85501</ele>
        <time>2022-10-04T11:36:52.000Z</time>
      </trkpt>
      <trkpt lat="45.89571" lon="4.59422">
        <ele>237.83809</ele>
        <time>2022-10-04T11:36:53.000Z</time>
      </trkpt>
      <trkpt lat="45.89574" lon="4.59415">
        <ele>237.80486</ele>
        <time>2022-10-04T11:36:54.000Z</time>
      </trkpt>
      <trkpt lat="45.89578" lon="4.59408">
        <ele>237.6855</ele>
        <time>2022-10-04T11:36:55.000Z</time>
      </trkpt>
      <trkpt lat="45.89581" lon="4.594">
        <ele>237.54202</ele>
        <time>2022-10-04T11:36:56.000Z</time>
      </trkpt>
      <trkpt lat="45.89585" lon="4.59393">
        <ele>237.42468</ele>
        <time>2022-10-04T11:36:57.000Z</time>
      </trkpt>
      <trkpt lat="45.89586" lon="4.59384">
        <ele>237.29175</ele>
        <time>2022-10-04T11:36:58.000Z</time>
      </trkpt>
      <trkpt lat="45.89588" lon="4.59376">
        <ele>237.13191</ele>
        <time>2022-10-04T11:36:59.000Z</time>
      </trkpt>
      <trkpt lat="45.89592" lon="4.59374">
        <ele>236.82747</ele>
        <time>2022-10-04T11:37:00.000Z</time>
      </trkpt>
      <trkpt lat="45.89594" lon="4.59366">
        <ele>236.54208</ele>
        <time>2022-10-04T11:37:01.000Z</time>
      </trkpt>
      <trkpt lat="45.89596" lon="4.5936">
        <ele>236.27046</ele>
        <time>2022-10-04T11:37:02.000Z</time>
      </trkpt>
      <trkpt lat="45.89598" lon="4.59353">
        <ele>236.00586</ele>
        <time>2022-10-04T11:37:03.000Z</time>
      </trkpt>
      <trkpt lat="45.896" lon="4.59347">
        <ele>235.74272</ele>
        <time>2022-10-04T11:37:04.000Z</time>
      </trkpt>
      <trkpt lat="45.89603" lon="4.59341">
        <ele>235.50198</ele>
        <time>2022-10-04T11:37:05.000Z</time>
      </trkpt>
      <trkpt lat="45.89605" lon="4.59334">
        <ele>235.1857</ele>
        <time>2022-10-04T11:37:06.000Z</time>
      </trkpt>
      <trkpt lat="45.89606" lon="4.59327">
        <ele>234.91829</ele>
        <time>2022-10-04T11:37:07.000Z</time>
      </trkpt>
      <trkpt lat="45.89607" lon="4.5932">
        <ele>234.69009</ele>
        <time>2022-10-04T11:37:08.000Z</time>
      </trkpt>
      <trkpt lat="45.89609" lon="4.59315">
        <ele>234.38797</ele>
        <time>2022-10-04T11:37:09.000Z</time>
      </trkpt>
      <trkpt lat="45.8961" lon="4.59307">
        <ele>234.15356</ele>
        <time>2022-10-04T11:37:10.000Z</time>
      </trkpt>
      <trkpt lat="45.89614" lon="4.59302">
        <ele>233.92847</ele>
        <time>2022-10-04T11:37:11.000Z</time>
      </trkpt>
      <trkpt lat="45.89617" lon="4.59297">
        <ele>233.76831</ele>
        <time>2022-10-04T11:37:12.000Z</time>
      </trkpt>
      <trkpt lat="45.89619" lon="4.5929">
        <ele>233.61862</ele>
        <time>2022-10-04T11:37:13.000Z</time>
      </trkpt>
      <trkpt lat="45.89619" lon="4.59283">
        <ele>233.50049</ele>
        <time>2022-10-04T11:37:14.000Z</time>
      </trkpt>
      <trkpt lat="45.89621" lon="4.59279">
        <ele>233.42915</ele>
        <time>2022-10-04T11:37:15.000Z</time>
      </trkpt>
      <trkpt lat="45.8962" lon="4.59274">
        <ele>233.33907</ele>
        <time>2022-10-04T11:37:16.000Z</time>
      </trkpt>
      <trkpt lat="45.89625" lon="4.59267">
        <ele>233.23215</ele>
        <time>2022-10-04T11:37:17.000Z</time>
      </trkpt>
      <trkpt lat="45.89624" lon="4.59262">
        <ele>233.12373</ele>
        <time>2022-10-04T11:37:18.000Z</time>
      </trkpt>
      <trkpt lat="45.89625" lon="4.59257">
        <ele>232.95573</ele>
        <time>2022-10-04T11:37:19.000Z</time>
      </trkpt>
      <trkpt lat="45.89627" lon="4.59253">
        <ele>232.82175</ele>
        <time>2022-10-04T11:37:20.000Z</time>
      </trkpt>
      <trkpt lat="45.8963" lon="4.59249">
        <ele>232.64893</ele>
        <time>2022-10-04T11:37:21.000Z</time>
      </trkpt>
      <trkpt lat="45.89628" lon="4.59239">
        <ele>232.44998</ele>
        <time>2022-10-04T11:37:23.000Z</time>
      </trkpt>
      <trkpt lat="45.89631" lon="4.59232">
        <ele>232.29329</ele>
        <time>2022-10-04T11:37:24.000Z</time>
      </trkpt>
      <trkpt lat="45.89631" lon="4.59228">
        <ele>232.1407</ele>
        <time>2022-10-04T11:37:25.000Z</time>
      </trkpt>
      <trkpt lat="45.89633" lon="4.59224">
        <ele>231.99944</ele>
        <time>2022-10-04T11:37:26.000Z</time>
      </trkpt>
      <trkpt lat="45.89633" lon="4.5922">
        <ele>231.93916</ele>
        <time>2022-10-04T11:37:27.000Z</time>
      </trkpt>
      <trkpt lat="45.89636" lon="4.59215">
        <ele>231.87097</ele>
        <time>2022-10-04T11:37:28.000Z</time>
      </trkpt>
      <trkpt lat="45.89645" lon="4.59207">
        <ele>231.73808</ele>
        <time>2022-10-04T11:37:29.000Z</time>
      </trkpt>
      <trkpt lat="45.89643" lon="4.59205">
        <ele>231.66052</ele>
        <time>2022-10-04T11:37:31.000Z</time>
      </trkpt>
      <trkpt lat="45.89647" lon="4.59203">
        <ele>231.51624</ele>
        <time>2022-10-04T11:37:32.000Z</time>
      </trkpt>
      <trkpt lat="45.89645" lon="4.59201">
        <ele>231.39629</ele>
        <time>2022-10-04T11:37:33.000Z</time>
      </trkpt>
      <trkpt lat="45.89646" lon="4.59197">
        <ele>231.39383</ele>
        <time>2022-10-04T11:37:34.000Z</time>
      </trkpt>
      <trkpt lat="45.89646" lon="4.59191">
        <ele>231.37991</ele>
        <time>2022-10-04T11:37:36.000Z</time>
      </trkpt>
      <trkpt lat="45.89648" lon="4.5919">
        <ele>231.26057</ele>
        <time>2022-10-04T11:37:37.000Z</time>
      </trkpt>
      <trkpt lat="45.89649" lon="4.59186">
        <ele>231.10828</ele>
        <time>2022-10-04T11:37:38.000Z</time>
      </trkpt>
      <trkpt lat="45.89649" lon="4.59183">
        <ele>230.96835</ele>
        <time>2022-10-04T11:37:43.000Z</time>
      </trkpt>
      <trkpt lat="45.8965" lon="4.59181">
        <ele>230.91325</ele>
        <time>2022-10-04T11:37:53.000Z</time>
      </trkpt>
      <trkpt lat="45.89648" lon="4.59182">
        <ele>230.93649</ele>
        <time>2022-10-04T11:38:16.000Z</time>
      </trkpt>
      <trkpt lat="45.89645" lon="4.59183">
        <ele>231.01196</ele>
        <time>2022-10-04T11:38:21.000Z</time>
      </trkpt>
      <trkpt lat="45.89643" lon="4.59183">
        <ele>231.17331</ele>
        <time>2022-10-04T11:38:23.000Z</time>
      </trkpt>
      <trkpt lat="45.8964" lon="4.59187">
        <ele>231.41672</ele>
        <time>2022-10-04T11:38:25.000Z</time>
      </trkpt>
      <trkpt lat="45.89639" lon="4.5919">
        <ele>231.77487</ele>
        <time>2022-10-04T11:38:26.000Z</time>
      </trkpt>
      <trkpt lat="45.89639" lon="4.59193">
        <ele>232.04178</ele>
        <time>2022-10-04T11:38:27.000Z</time>
      </trkpt>
      <trkpt lat="45.89638" lon="4.59196">
        <ele>232.27414</ele>
        <time>2022-10-04T11:38:28.000Z</time>
      </trkpt>
      <trkpt lat="45.89637" lon="4.59199">
        <ele>232.48245</ele>
        <time>2022-10-04T11:38:29.000Z</time>
      </trkpt>
      <trkpt lat="45.89636" lon="4.59203">
        <ele>232.64438</ele>
        <time>2022-10-04T11:38:30.000Z</time>
      </trkpt>
      <trkpt lat="45.89635" lon="4.59207">
        <ele>232.74637</ele>
        <time>2022-10-04T11:38:31.000Z</time>
      </trkpt>
      <trkpt lat="45.89634" lon="4.5921">
        <ele>232.86772</ele>
        <time>2022-10-04T11:38:32.000Z</time>
      </trkpt>
      <trkpt lat="45.89634" lon="4.59213">
        <ele>232.80078</ele>
        <time>2022-10-04T11:38:33.000Z</time>
      </trkpt>
      <trkpt lat="45.89634" lon="4.59217">
        <ele>232.73035</ele>
        <time>2022-10-04T11:38:34.000Z</time>
      </trkpt>
      <trkpt lat="45.89634" lon="4.5922">
        <ele>232.62833</ele>
        <time>2022-10-04T11:38:35.000Z</time>
      </trkpt>
      <trkpt lat="45.89633" lon="4.59223">
        <ele>232.41898</ele>
        <time>2022-10-04T11:38:36.000Z</time>
      </trkpt>
      <trkpt lat="45.8963" lon="4.59224">
        <ele>232.21297</ele>
        <time>2022-10-04T11:38:38.000Z</time>
      </trkpt>
      <trkpt lat="45.89629" lon="4.59222">
        <ele>232.06287</ele>
        <time>2022-10-04T11:38:39.000Z</time>
      </trkpt>
      <trkpt lat="45.89629" lon="4.59219">
        <ele>231.91106</ele>
        <time>2022-10-04T11:38:40.000Z</time>
      </trkpt>
      <trkpt lat="45.89629" lon="4.59214">
        <ele>231.76382</ele>
        <time>2022-10-04T11:38:41.000Z</time>
      </trkpt>
      <trkpt lat="45.8963" lon="4.5921">
        <ele>231.57602</ele>
        <time>2022-10-04T11:38:42.000Z</time>
      </trkpt>
      <trkpt lat="45.89631" lon="4.59207">
        <ele>231.30424</ele>
        <time>2022-10-04T11:38:43.000Z</time>
      </trkpt>
      <trkpt lat="45.89632" lon="4.59203">
        <ele>231.07564</ele>
        <time>2022-10-04T11:38:44.000Z</time>
      </trkpt>
      <trkpt lat="45.89632" lon="4.59199">
        <ele>230.9502</ele>
        <time>2022-10-04T11:38:45.000Z</time>
      </trkpt>
      <trkpt lat="45.89633" lon="4.59197">
        <ele>230.77876</ele>
        <time>2022-10-04T11:38:46.000Z</time>
      </trkpt>
      <trkpt lat="45.89634" lon="4.59194">
        <ele>230.59209</ele>
        <time>2022-10-04T11:38:47.000Z</time>
      </trkpt>
      <trkpt lat="45.89635" lon="4.59192">
        <ele>230.5148</ele>
        <time>2022-10-04T11:38:48.000Z</time>
      </trkpt>
      <trkpt lat="45.89637" lon="4.59191">
        <ele>230.50859</ele>
        <time>2022-10-04T11:38:49.000Z</time>
      </trkpt>
      <trkpt lat="45.8964" lon="4.59191">
        <ele>230.5098</ele>
        <time>2022-10-04T11:38:50.000Z</time>
      </trkpt>
      <trkpt lat="45.89642" lon="4.5919">
        <ele>230.53532</ele>
        <time>2022-10-04T11:38:51.000Z</time>
      </trkpt>
      <trkpt lat="45.89644" lon="4.59189">
        <ele>230.60307</ele>
        <time>2022-10-04T11:38:52.000Z</time>
      </trkpt>
      <trkpt lat="45.89646" lon="4.59186">
        <ele>230.62027</ele>
        <time>2022-10-04T11:38:53.000Z</time>
      </trkpt>
      <trkpt lat="45.89648" lon="4.59183">
        <ele>230.82141</ele>
        <time>2022-10-04T11:38:54.000Z</time>
      </trkpt>
      <trkpt lat="45.89649" lon="4.5918">
        <ele>231.0726</ele>
        <time>2022-10-04T11:38:55.000Z</time>
      </trkpt>
      <trkpt lat="45.89651" lon="4.59178">
        <ele>231.33249</ele>
        <time>2022-10-04T11:38:56.000Z</time>
      </trkpt>
      <trkpt lat="45.89652" lon="4.59175">
        <ele>231.59924</ele>
        <time>2022-10-04T11:38:57.000Z</time>
      </trkpt>
      <trkpt lat="45.89651" lon="4.59172">
        <ele>231.95743</ele>
        <time>2022-10-04T11:39:20.000Z</time>
      </trkpt>
      <trkpt lat="45.89652" lon="4.59168">
        <ele>232.17464</ele>
        <time>2022-10-04T11:39:22.000Z</time>
      </trkpt>
      <trkpt lat="45.89653" lon="4.59162">
        <ele>232.46358</ele>
        <time>2022-10-04T11:39:24.000Z</time>
      </trkpt>
      <trkpt lat="45.89654" lon="4.59159">
        <ele>232.75017</ele>
        <time>2022-10-04T11:39:25.000Z</time>
      </trkpt>
      <trkpt lat="45.89655" lon="4.59155">
        <ele>233.02798</ele>
        <time>2022-10-04T11:39:26.000Z</time>
      </trkpt>
      <trkpt lat="45.89656" lon="4.59152">
        <ele>233.28242</ele>
        <time>2022-10-04T11:39:27.000Z</time>
      </trkpt>
      <trkpt lat="45.89658" lon="4.59149">
        <ele>233.45413</ele>
        <time>2022-10-04T11:39:28.000Z</time>
      </trkpt>
      <trkpt lat="45.89659" lon="4.59146">
        <ele>233.58102</ele>
        <time>2022-10-04T11:39:29.000Z</time>
      </trkpt>
      <trkpt lat="45.8966" lon="4.59143">
        <ele>233.73788</ele>
        <time>2022-10-04T11:39:30.000Z</time>
      </trkpt>
      <trkpt lat="45.89661" lon="4.5914">
        <ele>233.76311</ele>
        <time>2022-10-04T11:39:31.000Z</time>
      </trkpt>
      <trkpt lat="45.89663" lon="4.59136">
        <ele>233.70499</ele>
        <time>2022-10-04T11:39:32.000Z</time>
      </trkpt>
      <trkpt lat="45.89665" lon="4.59131">
        <ele>233.63374</ele>
        <time>2022-10-04T11:39:33.000Z</time>
      </trkpt>
      <trkpt lat="45.89667" lon="4.59126">
        <ele>233.62773</ele>
        <time>2022-10-04T11:39:34.000Z</time>
      </trkpt>
      <trkpt lat="45.8967" lon="4.59122">
        <ele>233.60226</ele>
        <time>2022-10-04T11:39:35.000Z</time>
      </trkpt>
      <trkpt lat="45.89673" lon="4.59117">
        <ele>233.57564</ele>
        <time>2022-10-04T11:39:36.000Z</time>
      </trkpt>
      <trkpt lat="45.89676" lon="4.59113">
        <ele>233.58081</ele>
        <time>2022-10-04T11:39:37.000Z</time>
      </trkpt>
      <trkpt lat="45.89678" lon="4.59109">
        <ele>233.50528</ele>
        <time>2022-10-04T11:39:38.000Z</time>
      </trkpt>
      <trkpt lat="45.89681" lon="4.59105">
        <ele>233.42525</ele>
        <time>2022-10-04T11:39:39.000Z</time>
      </trkpt>
      <trkpt lat="45.89683" lon="4.59101">
        <ele>233.28658</ele>
        <time>2022-10-04T11:39:40.000Z</time>
      </trkpt>
      <trkpt lat="45.89685" lon="4.59097">
        <ele>233.17911</ele>
        <time>2022-10-04T11:39:41.000Z</time>
      </trkpt>
      <trkpt lat="45.89687" lon="4.59092">
        <ele>233.01367</ele>
        <time>2022-10-04T11:39:42.000Z</time>
      </trkpt>
      <trkpt lat="45.89689" lon="4.59087">
        <ele>232.98267</ele>
        <time>2022-10-04T11:39:43.000Z</time>
      </trkpt>
      <trkpt lat="45.89692" lon="4.59082">
        <ele>232.87207</ele>
        <time>2022-10-04T11:39:44.000Z</time>
      </trkpt>
      <trkpt lat="45.89695" lon="4.59078">
        <ele>232.70479</ele>
        <time>2022-10-04T11:39:45.000Z</time>
      </trkpt>
      <trkpt lat="45.89697" lon="4.59073">
        <ele>232.49905</ele>
        <time>2022-10-04T11:39:46.000Z</time>
      </trkpt>
      <trkpt lat="45.89701" lon="4.59069">
        <ele>232.33134</ele>
        <time>2022-10-04T11:39:47.000Z</time>
      </trkpt>
      <trkpt lat="45.89704" lon="4.59065">
        <ele>232.18259</ele>
        <time>2022-10-04T11:39:48.000Z</time>
      </trkpt>
      <trkpt lat="45.89707" lon="4.5906">
        <ele>232.0275</ele>
        <time>2022-10-04T11:39:49.000Z</time>
      </trkpt>
      <trkpt lat="45.89711" lon="4.59055">
        <ele>231.81006</ele>
        <time>2022-10-04T11:39:50.000Z</time>
      </trkpt>
      <trkpt lat="45.89715" lon="4.5905">
        <ele>231.67386</ele>
        <time>2022-10-04T11:39:51.000Z</time>
      </trkpt>
      <trkpt lat="45.89718" lon="4.59044">
        <ele>231.58105</ele>
        <time>2022-10-04T11:39:52.000Z</time>
      </trkpt>
      <trkpt lat="45.8972" lon="4.59037">
        <ele>231.49507</ele>
        <time>2022-10-04T11:39:53.000Z</time>
      </trkpt>
      <trkpt lat="45.89721" lon="4.59031">
        <ele>231.35562</ele>
        <time>2022-10-04T11:39:54.000Z</time>
      </trkpt>
      <trkpt lat="45.89725" lon="4.59025">
        <ele>231.18295</ele>
        <time>2022-10-04T11:39:55.000Z</time>
      </trkpt>
      <trkpt lat="45.89728" lon="4.59021">
        <ele>231.02066</ele>
        <time>2022-10-04T11:39:56.000Z</time>
      </trkpt>
      <trkpt lat="45.8973" lon="4.59015">
        <ele>230.94402</ele>
        <time>2022-10-04T11:39:57.000Z</time>
      </trkpt>
      <trkpt lat="45.89733" lon="4.59008">
        <ele>230.95129</ele>
        <time>2022-10-04T11:39:58.000Z</time>
      </trkpt>
      <trkpt lat="45.89736" lon="4.59003">
        <ele>231.02771</ele>
        <time>2022-10-04T11:39:59.000Z</time>
      </trkpt>
      <trkpt lat="45.89739" lon="4.58999">
        <ele>231.11821</ele>
        <time>2022-10-04T11:40:00.000Z</time>
      </trkpt>
      <trkpt lat="45.89742" lon="4.58994">
        <ele>231.18155</ele>
        <time>2022-10-04T11:40:01.000Z</time>
      </trkpt>
      <trkpt lat="45.89745" lon="4.58988">
        <ele>231.1573</ele>
        <time>2022-10-04T11:40:02.000Z</time>
      </trkpt>
      <trkpt lat="45.89749" lon="4.58981">
        <ele>231.13728</ele>
        <time>2022-10-04T11:40:03.000Z</time>
      </trkpt>
      <trkpt lat="45.89753" lon="4.58974">
        <ele>231.17126</ele>
        <time>2022-10-04T11:40:04.000Z</time>
      </trkpt>
      <trkpt lat="45.89756" lon="4.58968">
        <ele>231.27457</ele>
        <time>2022-10-04T11:40:05.000Z</time>
      </trkpt>
      <trkpt lat="45.89761" lon="4.58963">
        <ele>231.42905</ele>
        <time>2022-10-04T11:40:06.000Z</time>
      </trkpt>
      <trkpt lat="45.89763" lon="4.58956">
        <ele>231.51724</ele>
        <time>2022-10-04T11:40:07.000Z</time>
      </trkpt>
      <trkpt lat="45.89767" lon="4.58951">
        <ele>231.63541</ele>
        <time>2022-10-04T11:40:08.000Z</time>
      </trkpt>
      <trkpt lat="45.8977" lon="4.58945">
        <ele>231.71089</ele>
        <time>2022-10-04T11:40:09.000Z</time>
      </trkpt>
      <trkpt lat="45.89773" lon="4.58939">
        <ele>231.81393</ele>
        <time>2022-10-04T11:40:10.000Z</time>
      </trkpt>
      <trkpt lat="45.89778" lon="4.58936">
        <ele>231.88155</ele>
        <time>2022-10-04T11:40:11.000Z</time>
      </trkpt>
      <trkpt lat="45.89782" lon="4.58931">
        <ele>231.93303</ele>
        <time>2022-10-04T11:40:12.000Z</time>
      </trkpt>
      <trkpt lat="45.89786" lon="4.58926">
        <ele>231.98685</ele>
        <time>2022-10-04T11:40:13.000Z</time>
      </trkpt>
      <trkpt lat="45.89791" lon="4.58922">
        <ele>232.06458</ele>
        <time>2022-10-04T11:40:14.000Z</time>
      </trkpt>
      <trkpt lat="45.89794" lon="4.58917">
        <ele>232.16035</ele>
        <time>2022-10-04T11:40:15.000Z</time>
      </trkpt>
      <trkpt lat="45.89798" lon="4.58913">
        <ele>232.24573</ele>
        <time>2022-10-04T11:40:16.000Z</time>
      </trkpt>
      <trkpt lat="45.89802" lon="4.5891">
        <ele>232.31583</ele>
        <time>2022-10-04T11:40:17.000Z</time>
      </trkpt>
      <trkpt lat="45.89806" lon="4.58905">
        <ele>232.36435</ele>
        <time>2022-10-04T11:40:18.000Z</time>
      </trkpt>
      <trkpt lat="45.89811" lon="4.589">
        <ele>232.45901</ele>
        <time>2022-10-04T11:40:19.000Z</time>
      </trkpt>
      <trkpt lat="45.89814" lon="4.58897">
        <ele>232.61418</ele>
        <time>2022-10-04T11:40:20.000Z</time>
      </trkpt>
      <trkpt lat="45.89818" lon="4.58893">
        <ele>232.76907</ele>
        <time>2022-10-04T11:40:21.000Z</time>
      </trkpt>
      <trkpt lat="45.89822" lon="4.58889">
        <ele>233.00073</ele>
        <time>2022-10-04T11:40:22.000Z</time>
      </trkpt>
      <trkpt lat="45.89825" lon="4.58886">
        <ele>233.2085</ele>
        <time>2022-10-04T11:40:23.000Z</time>
      </trkpt>
      <trkpt lat="45.89828" lon="4.58883">
        <ele>233.36673</ele>
        <time>2022-10-04T11:40:24.000Z</time>
      </trkpt>
      <trkpt lat="45.89831" lon="4.58882">
        <ele>233.46799</ele>
        <time>2022-10-04T11:40:25.000Z</time>
      </trkpt>
      <trkpt lat="45.89836" lon="4.58879">
        <ele>233.582</ele>
        <time>2022-10-04T11:40:26.000Z</time>
      </trkpt>
      <trkpt lat="45.8984" lon="4.58876">
        <ele>233.71951</ele>
        <time>2022-10-04T11:40:27.000Z</time>
      </trkpt>
      <trkpt lat="45.89845" lon="4.58873">
        <ele>233.84273</ele>
        <time>2022-10-04T11:40:28.000Z</time>
      </trkpt>
      <trkpt lat="45.89849" lon="4.5887">
        <ele>233.97896</ele>
        <time>2022-10-04T11:40:29.000Z</time>
      </trkpt>
      <trkpt lat="45.89852" lon="4.58867">
        <ele>234.08798</ele>
        <time>2022-10-04T11:40:30.000Z</time>
      </trkpt>
      <trkpt lat="45.89856" lon="4.58864">
        <ele>234.20918</ele>
        <time>2022-10-04T11:40:31.000Z</time>
      </trkpt>
      <trkpt lat="45.8986" lon="4.58861">
        <ele>234.35201</ele>
        <time>2022-10-04T11:40:32.000Z</time>
      </trkpt>
      <trkpt lat="45.89863" lon="4.58858">
        <ele>234.45346</ele>
        <time>2022-10-04T11:40:33.000Z</time>
      </trkpt>
      <trkpt lat="45.89866" lon="4.58857">
        <ele>234.54243</ele>
        <time>2022-10-04T11:40:34.000Z</time>
      </trkpt>
      <trkpt lat="45.89868" lon="4.58853">
        <ele>234.66861</ele>
        <time>2022-10-04T11:40:35.000Z</time>
      </trkpt>
      <trkpt lat="45.89871" lon="4.5885">
        <ele>234.78276</ele>
        <time>2022-10-04T11:40:36.000Z</time>
      </trkpt>
      <trkpt lat="45.89875" lon="4.58847">
        <ele>234.89639</ele>
        <time>2022-10-04T11:40:37.000Z</time>
      </trkpt>
      <trkpt lat="45.89879" lon="4.58844">
        <ele>235.04907</ele>
        <time>2022-10-04T11:40:38.000Z</time>
      </trkpt>
      <trkpt lat="45.89885" lon="4.58842">
        <ele>235.14444</ele>
        <time>2022-10-04T11:40:39.000Z</time>
      </trkpt>
      <trkpt lat="45.89889" lon="4.58839">
        <ele>235.23015</ele>
        <time>2022-10-04T11:40:40.000Z</time>
      </trkpt>
      <trkpt lat="45.89893" lon="4.58836">
        <ele>235.3459</ele>
        <time>2022-10-04T11:40:41.000Z</time>
      </trkpt>
      <trkpt lat="45.89897" lon="4.58831">
        <ele>235.45047</ele>
        <time>2022-10-04T11:40:42.000Z</time>
      </trkpt>
      <trkpt lat="45.899" lon="4.58827">
        <ele>235.60896</ele>
        <time>2022-10-04T11:40:43.000Z</time>
      </trkpt>
      <trkpt lat="45.89904" lon="4.58825">
        <ele>235.76299</ele>
        <time>2022-10-04T11:40:44.000Z</time>
      </trkpt>
      <trkpt lat="45.89908" lon="4.58824">
        <ele>235.93413</ele>
        <time>2022-10-04T11:40:45.000Z</time>
      </trkpt>
      <trkpt lat="45.89912" lon="4.58821">
        <ele>236.11015</ele>
        <time>2022-10-04T11:40:46.000Z</time>
      </trkpt>
      <trkpt lat="45.89916" lon="4.58818">
        <ele>236.29195</ele>
        <time>2022-10-04T11:40:47.000Z</time>
      </trkpt>
      <trkpt lat="45.8992" lon="4.58817">
        <ele>236.46838</ele>
        <time>2022-10-04T11:40:48.000Z</time>
      </trkpt>
      <trkpt lat="45.89925" lon="4.58814">
        <ele>236.69644</ele>
        <time>2022-10-04T11:40:49.000Z</time>
      </trkpt>
      <trkpt lat="45.89929" lon="4.58808">
        <ele>236.93222</ele>
        <time>2022-10-04T11:40:50.000Z</time>
      </trkpt>
      <trkpt lat="45.89934" lon="4.58806">
        <ele>237.15828</ele>
        <time>2022-10-04T11:40:51.000Z</time>
      </trkpt>
      <trkpt lat="45.89937" lon="4.58802">
        <ele>237.36491</ele>
        <time>2022-10-04T11:40:52.000Z</time>
      </trkpt>
      <trkpt lat="45.8994" lon="4.58796">
        <ele>237.69479</ele>
        <time>2022-10-04T11:40:53.000Z</time>
      </trkpt>
      <trkpt lat="45.89943" lon="4.58792">
        <ele>237.98413</ele>
        <time>2022-10-04T11:40:54.000Z</time>
      </trkpt>
      <trkpt lat="45.89947" lon="4.58787">
        <ele>238.23726</ele>
        <time>2022-10-04T11:40:55.000Z</time>
      </trkpt>
      <trkpt lat="45.89951" lon="4.58784">
        <ele>238.50069</ele>
        <time>2022-10-04T11:40:56.000Z</time>
      </trkpt>
      <trkpt lat="45.89955" lon="4.5878">
        <ele>238.74797</ele>
        <time>2022-10-04T11:40:57.000Z</time>
      </trkpt>
      <trkpt lat="45.89959" lon="4.58774">
        <ele>239.02927</ele>
        <time>2022-10-04T11:40:58.000Z</time>
      </trkpt>
      <trkpt lat="45.89962" lon="4.58769">
        <ele>239.26445</ele>
        <time>2022-10-04T11:40:59.000Z</time>
      </trkpt>
      <trkpt lat="45.89966" lon="4.58765">
        <ele>239.45279</ele>
        <time>2022-10-04T11:41:00.000Z</time>
      </trkpt>
      <trkpt lat="45.8997" lon="4.58761">
        <ele>239.57291</ele>
        <time>2022-10-04T11:41:01.000Z</time>
      </trkpt>
      <trkpt lat="45.89973" lon="4.58757">
        <ele>239.65889</ele>
        <time>2022-10-04T11:41:02.000Z</time>
      </trkpt>
      <trkpt lat="45.89976" lon="4.58752">
        <ele>239.70427</ele>
        <time>2022-10-04T11:41:03.000Z</time>
      </trkpt>
      <trkpt lat="45.89981" lon="4.58747">
        <ele>239.72754</ele>
        <time>2022-10-04T11:41:04.000Z</time>
      </trkpt>
      <trkpt lat="45.89986" lon="4.58744">
        <ele>239.73734</ele>
        <time>2022-10-04T11:41:05.000Z</time>
      </trkpt>
      <trkpt lat="45.89989" lon="4.58738">
        <ele>239.76399</ele>
        <time>2022-10-04T11:41:06.000Z</time>
      </trkpt>
      <trkpt lat="45.89993" lon="4.58732">
        <ele>239.80957</ele>
        <time>2022-10-04T11:41:07.000Z</time>
      </trkpt>
      <trkpt lat="45.89997" lon="4.58727">
        <ele>239.89465</ele>
        <time>2022-10-04T11:41:08.000Z</time>
      </trkpt>
      <trkpt lat="45.90001" lon="4.58723">
        <ele>239.86006</ele>
        <time>2022-10-04T11:41:09.000Z</time>
      </trkpt>
      <trkpt lat="45.90004" lon="4.58718">
        <ele>239.83951</ele>
        <time>2022-10-04T11:41:10.000Z</time>
      </trkpt>
      <trkpt lat="45.90008" lon="4.58713">
        <ele>239.8387</ele>
        <time>2022-10-04T11:41:11.000Z</time>
      </trkpt>
      <trkpt lat="45.90011" lon="4.58708">
        <ele>239.80746</ele>
        <time>2022-10-04T11:41:12.000Z</time>
      </trkpt>
      <trkpt lat="45.90016" lon="4.58703">
        <ele>239.66296</ele>
        <time>2022-10-04T11:41:13.000Z</time>
      </trkpt>
      <trkpt lat="45.90019" lon="4.58698">
        <ele>239.53586</ele>
        <time>2022-10-04T11:41:14.000Z</time>
      </trkpt>
      <trkpt lat="45.90022" lon="4.58693">
        <ele>239.44705</ele>
        <time>2022-10-04T11:41:15.000Z</time>
      </trkpt>
      <trkpt lat="45.90024" lon="4.58687">
        <ele>239.31528</ele>
        <time>2022-10-04T11:41:16.000Z</time>
      </trkpt>
      <trkpt lat="45.90028" lon="4.5868">
        <ele>239.27116</ele>
        <time>2022-10-04T11:41:17.000Z</time>
      </trkpt>
      <trkpt lat="45.90032" lon="4.58677">
        <ele>239.05945</ele>
        <time>2022-10-04T11:41:18.000Z</time>
      </trkpt>
      <trkpt lat="45.90034" lon="4.58671">
        <ele>238.86003</ele>
        <time>2022-10-04T11:41:19.000Z</time>
      </trkpt>
      <trkpt lat="45.90038" lon="4.58667">
        <ele>238.68869</ele>
        <time>2022-10-04T11:41:20.000Z</time>
      </trkpt>
      <trkpt lat="45.90042" lon="4.58662">
        <ele>238.59134</ele>
        <time>2022-10-04T11:41:21.000Z</time>
      </trkpt>
      <trkpt lat="45.90045" lon="4.58656">
        <ele>238.44914</ele>
        <time>2022-10-04T11:41:22.000Z</time>
      </trkpt>
      <trkpt lat="45.90047" lon="4.58651">
        <ele>238.29892</ele>
        <time>2022-10-04T11:41:23.000Z</time>
      </trkpt>
      <trkpt lat="45.90051" lon="4.58645">
        <ele>238.23853</ele>
        <time>2022-10-04T11:41:24.000Z</time>
      </trkpt>
      <trkpt lat="45.90055" lon="4.58641">
        <ele>238.17683</ele>
        <time>2022-10-04T11:41:25.000Z</time>
      </trkpt>
      <trkpt lat="45.9006" lon="4.58637">
        <ele>238.09782</ele>
        <time>2022-10-04T11:41:26.000Z</time>
      </trkpt>
      <trkpt lat="45.90063" lon="4.58633">
        <ele>237.98625</ele>
        <time>2022-10-04T11:41:27.000Z</time>
      </trkpt>
      <trkpt lat="45.90066" lon="4.58627">
        <ele>237.8759</ele>
        <time>2022-10-04T11:41:28.000Z</time>
      </trkpt>
      <trkpt lat="45.90069" lon="4.5862">
        <ele>237.82986</ele>
        <time>2022-10-04T11:41:29.000Z</time>
      </trkpt>
      <trkpt lat="45.90073" lon="4.58615">
        <ele>237.77434</ele>
        <time>2022-10-04T11:41:30.000Z</time>
      </trkpt>
      <trkpt lat="45.90076" lon="4.58608">
        <ele>237.71664</ele>
        <time>2022-10-04T11:41:31.000Z</time>
      </trkpt>
      <trkpt lat="45.9008" lon="4.58601">
        <ele>237.7083</ele>
        <time>2022-10-04T11:41:32.000Z</time>
      </trkpt>
      <trkpt lat="45.90083" lon="4.58595">
        <ele>237.69809</ele>
        <time>2022-10-04T11:41:33.000Z</time>
      </trkpt>
      <trkpt lat="45.90087" lon="4.5859">
        <ele>237.75623</ele>
        <time>2022-10-04T11:41:34.000Z</time>
      </trkpt>
      <trkpt lat="45.90091" lon="4.58584">
        <ele>237.82346</ele>
        <time>2022-10-04T11:41:35.000Z</time>
      </trkpt>
      <trkpt lat="45.90094" lon="4.5858">
        <ele>237.90585</ele>
        <time>2022-10-04T11:41:36.000Z</time>
      </trkpt>
      <trkpt lat="45.90097" lon="4.58575">
        <ele>237.91525</ele>
        <time>2022-10-04T11:41:37.000Z</time>
      </trkpt>
      <trkpt lat="45.901" lon="4.58568">
        <ele>238.06201</ele>
        <time>2022-10-04T11:41:38.000Z</time>
      </trkpt>
      <trkpt lat="45.90103" lon="4.58563">
        <ele>238.21492</ele>
        <time>2022-10-04T11:41:39.000Z</time>
      </trkpt>
      <trkpt lat="45.90106" lon="4.58557">
        <ele>238.3958</ele>
        <time>2022-10-04T11:41:40.000Z</time>
      </trkpt>
      <trkpt lat="45.9011" lon="4.58552">
        <ele>238.5022</ele>
        <time>2022-10-04T11:41:41.000Z</time>
      </trkpt>
      <trkpt lat="45.90113" lon="4.58546">
        <ele>238.75735</ele>
        <time>2022-10-04T11:41:42.000Z</time>
      </trkpt>
      <trkpt lat="45.90117" lon="4.5854">
        <ele>239.04834</ele>
        <time>2022-10-04T11:41:43.000Z</time>
      </trkpt>
      <trkpt lat="45.90121" lon="4.58534">
        <ele>239.285</ele>
        <time>2022-10-04T11:41:44.000Z</time>
      </trkpt>
      <trkpt lat="45.90124" lon="4.58529">
        <ele>239.49712</ele>
        <time>2022-10-04T11:41:45.000Z</time>
      </trkpt>
      <trkpt lat="45.90128" lon="4.58522">
        <ele>239.66586</ele>
        <time>2022-10-04T11:41:46.000Z</time>
      </trkpt>
      <trkpt lat="45.90129" lon="4.58516">
        <ele>239.9028</ele>
        <time>2022-10-04T11:41:47.000Z</time>
      </trkpt>
      <trkpt lat="45.90133" lon="4.58511">
        <ele>240.06534</ele>
        <time>2022-10-04T11:41:48.000Z</time>
      </trkpt>
      <trkpt lat="45.90136" lon="4.58505">
        <ele>240.2552</ele>
        <time>2022-10-04T11:41:49.000Z</time>
      </trkpt>
      <trkpt lat="45.9014" lon="4.585">
        <ele>240.48177</ele>
        <time>2022-10-04T11:41:50.000Z</time>
      </trkpt>
      <trkpt lat="45.90143" lon="4.58495">
        <ele>240.72591</ele>
        <time>2022-10-04T11:41:51.000Z</time>
      </trkpt>
      <trkpt lat="45.90146" lon="4.5849">
        <ele>240.90872</ele>
        <time>2022-10-04T11:41:52.000Z</time>
      </trkpt>
      <trkpt lat="45.9015" lon="4.58485">
        <ele>241.10965</ele>
        <time>2022-10-04T11:41:53.000Z</time>
      </trkpt>
      <trkpt lat="45.90153" lon="4.58479">
        <ele>241.27376</ele>
        <time>2022-10-04T11:41:54.000Z</time>
      </trkpt>
      <trkpt lat="45.90156" lon="4.58474">
        <ele>241.5112</ele>
        <time>2022-10-04T11:41:55.000Z</time>
      </trkpt>
      <trkpt lat="45.90159" lon="4.58467">
        <ele>241.81943</ele>
        <time>2022-10-04T11:41:56.000Z</time>
      </trkpt>
      <trkpt lat="45.90162" lon="4.58462">
        <ele>242.0842</ele>
        <time>2022-10-04T11:41:57.000Z</time>
      </trkpt>
      <trkpt lat="45.90166" lon="4.58456">
        <ele>242.3118</ele>
        <time>2022-10-04T11:41:58.000Z</time>
      </trkpt>
      <trkpt lat="45.9017" lon="4.5845">
        <ele>242.5146</ele>
        <time>2022-10-04T11:41:59.000Z</time>
      </trkpt>
      <trkpt lat="45.90174" lon="4.58444">
        <ele>242.70105</ele>
        <time>2022-10-04T11:42:00.000Z</time>
      </trkpt>
      <trkpt lat="45.90177" lon="4.58439">
        <ele>242.91557</ele>
        <time>2022-10-04T11:42:01.000Z</time>
      </trkpt>
      <trkpt lat="45.90179" lon="4.58433">
        <ele>243.07449</ele>
        <time>2022-10-04T11:42:02.000Z</time>
      </trkpt>
      <trkpt lat="45.90182" lon="4.58427">
        <ele>243.21744</ele>
        <time>2022-10-04T11:42:03.000Z</time>
      </trkpt>
      <trkpt lat="45.90185" lon="4.58422">
        <ele>243.31482</ele>
        <time>2022-10-04T11:42:04.000Z</time>
      </trkpt>
      <trkpt lat="45.9019" lon="4.58417">
        <ele>243.45491</ele>
        <time>2022-10-04T11:42:05.000Z</time>
      </trkpt>
      <trkpt lat="45.90194" lon="4.58411">
        <ele>243.58284</ele>
        <time>2022-10-04T11:42:06.000Z</time>
      </trkpt>
      <trkpt lat="45.90196" lon="4.58405">
        <ele>243.61923</ele>
        <time>2022-10-04T11:42:07.000Z</time>
      </trkpt>
      <trkpt lat="45.902" lon="4.58399">
        <ele>243.69011</ele>
        <time>2022-10-04T11:42:08.000Z</time>
      </trkpt>
      <trkpt lat="45.90202" lon="4.58392">
        <ele>243.73206</ele>
        <time>2022-10-04T11:42:09.000Z</time>
      </trkpt>
      <trkpt lat="45.90206" lon="4.58387">
        <ele>243.76651</ele>
        <time>2022-10-04T11:42:10.000Z</time>
      </trkpt>
      <trkpt lat="45.90211" lon="4.58382">
        <ele>243.78508</ele>
        <time>2022-10-04T11:42:11.000Z</time>
      </trkpt>
      <trkpt lat="45.90213" lon="4.58375">
        <ele>243.89229</ele>
        <time>2022-10-04T11:42:12.000Z</time>
      </trkpt>
      <trkpt lat="45.90216" lon="4.58368">
        <ele>243.95889</ele>
        <time>2022-10-04T11:42:13.000Z</time>
      </trkpt>
      <trkpt lat="45.9022" lon="4.58363">
        <ele>244.03105</ele>
        <time>2022-10-04T11:42:14.000Z</time>
      </trkpt>
      <trkpt lat="45.90224" lon="4.58359">
        <ele>244.0217</ele>
        <time>2022-10-04T11:42:15.000Z</time>
      </trkpt>
      <trkpt lat="45.90227" lon="4.58354">
        <ele>243.94849</ele>
        <time>2022-10-04T11:42:16.000Z</time>
      </trkpt>
      <trkpt lat="45.9023" lon="4.58348">
        <ele>243.88254</ele>
        <time>2022-10-04T11:42:17.000Z</time>
      </trkpt>
      <trkpt lat="45.90234" lon="4.58343">
        <ele>243.91789</ele>
        <time>2022-10-04T11:42:18.000Z</time>
      </trkpt>
      <trkpt lat="45.90238" lon="4.58339">
        <ele>243.9816</ele>
        <time>2022-10-04T11:42:19.000Z</time>
      </trkpt>
      <trkpt lat="45.90242" lon="4.58333">
        <ele>244.03389</ele>
        <time>2022-10-04T11:42:20.000Z</time>
      </trkpt>
      <trkpt lat="45.90244" lon="4.58327">
        <ele>244.12512</ele>
        <time>2022-10-04T11:42:21.000Z</time>
      </trkpt>
      <trkpt lat="45.90247" lon="4.58323">
        <ele>244.2011</ele>
        <time>2022-10-04T11:42:22.000Z</time>
      </trkpt>
      <trkpt lat="45.90251" lon="4.58319">
        <ele>244.2594</ele>
        <time>2022-10-04T11:42:23.000Z</time>
      </trkpt>
      <trkpt lat="45.90254" lon="4.58313">
        <ele>244.31546</ele>
        <time>2022-10-04T11:42:24.000Z</time>
      </trkpt>
      <trkpt lat="45.90256" lon="4.58307">
        <ele>244.37341</ele>
        <time>2022-10-04T11:42:25.000Z</time>
      </trkpt>
      <trkpt lat="45.90261" lon="4.583">
        <ele>244.41589</ele>
        <time>2022-10-04T11:42:26.000Z</time>
      </trkpt>
      <trkpt lat="45.90265" lon="4.58296">
        <ele>244.49734</ele>
        <time>2022-10-04T11:42:27.000Z</time>
      </trkpt>
      <trkpt lat="45.90266" lon="4.5829">
        <ele>244.61234</ele>
        <time>2022-10-04T11:42:28.000Z</time>
      </trkpt>
      <trkpt lat="45.9027" lon="4.58283">
        <ele>244.79045</ele>
        <time>2022-10-04T11:42:29.000Z</time>
      </trkpt>
      <trkpt lat="45.90273" lon="4.58278">
        <ele>244.9425</ele>
        <time>2022-10-04T11:42:30.000Z</time>
      </trkpt>
      <trkpt lat="45.90276" lon="4.58273">
        <ele>245.12878</ele>
        <time>2022-10-04T11:42:31.000Z</time>
      </trkpt>
      <trkpt lat="45.90279" lon="4.58267">
        <ele>245.15678</ele>
        <time>2022-10-04T11:42:32.000Z</time>
      </trkpt>
      <trkpt lat="45.90282" lon="4.58261">
        <ele>245.24313</ele>
        <time>2022-10-04T11:42:33.000Z</time>
      </trkpt>
      <trkpt lat="45.90286" lon="4.58255">
        <ele>245.26221</ele>
        <time>2022-10-04T11:42:34.000Z</time>
      </trkpt>
      <trkpt lat="45.90289" lon="4.5825">
        <ele>245.2305</ele>
        <time>2022-10-04T11:42:35.000Z</time>
      </trkpt>
      <trkpt lat="45.90292" lon="4.58245">
        <ele>245.27364</ele>
        <time>2022-10-04T11:42:36.000Z</time>
      </trkpt>
      <trkpt lat="45.90295" lon="4.58239">
        <ele>245.33911</ele>
        <time>2022-10-04T11:42:37.000Z</time>
      </trkpt>
      <trkpt lat="45.90299" lon="4.58232">
        <ele>245.35721</ele>
        <time>2022-10-04T11:42:38.000Z</time>
      </trkpt>
      <trkpt lat="45.90304" lon="4.58227">
        <ele>245.37149</ele>
        <time>2022-10-04T11:42:39.000Z</time>
      </trkpt>
      <trkpt lat="45.90307" lon="4.58222">
        <ele>245.40666</ele>
        <time>2022-10-04T11:42:40.000Z</time>
      </trkpt>
      <trkpt lat="45.9031" lon="4.58216">
        <ele>245.40852</ele>
        <time>2022-10-04T11:42:41.000Z</time>
      </trkpt>
      <trkpt lat="45.90312" lon="4.5821">
        <ele>245.3979</ele>
        <time>2022-10-04T11:42:42.000Z</time>
      </trkpt>
      <trkpt lat="45.90315" lon="4.58204">
        <ele>245.36577</ele>
        <time>2022-10-04T11:42:43.000Z</time>
      </trkpt>
      <trkpt lat="45.90318" lon="4.58199">
        <ele>245.39087</ele>
        <time>2022-10-04T11:42:44.000Z</time>
      </trkpt>
      <trkpt lat="45.90323" lon="4.58196">
        <ele>245.4093</ele>
        <time>2022-10-04T11:42:45.000Z</time>
      </trkpt>
      <trkpt lat="45.90326" lon="4.58192">
        <ele>245.43985</ele>
        <time>2022-10-04T11:42:46.000Z</time>
      </trkpt>
      <trkpt lat="45.90329" lon="4.58186">
        <ele>245.48799</ele>
        <time>2022-10-04T11:42:47.000Z</time>
      </trkpt>
      <trkpt lat="45.90331" lon="4.5818">
        <ele>245.55276</ele>
        <time>2022-10-04T11:42:48.000Z</time>
      </trkpt>
      <trkpt lat="45.90334" lon="4.58176">
        <ele>245.54764</ele>
        <time>2022-10-04T11:42:49.000Z</time>
      </trkpt>
      <trkpt lat="45.90336" lon="4.58169">
        <ele>245.51814</ele>
        <time>2022-10-04T11:42:50.000Z</time>
      </trkpt>
      <trkpt lat="45.90338" lon="4.58162">
        <ele>245.51553</ele>
        <time>2022-10-04T11:42:51.000Z</time>
      </trkpt>
      <trkpt lat="45.9034" lon="4.58156">
        <ele>245.60855</ele>
        <time>2022-10-04T11:42:52.000Z</time>
      </trkpt>
      <trkpt lat="45.90342" lon="4.5815">
        <ele>245.69099</ele>
        <time>2022-10-04T11:42:53.000Z</time>
      </trkpt>
      <trkpt lat="45.90346" lon="4.58147">
        <ele>245.80042</ele>
        <time>2022-10-04T11:42:54.000Z</time>
      </trkpt>
      <trkpt lat="45.90349" lon="4.58144">
        <ele>245.94722</ele>
        <time>2022-10-04T11:42:55.000Z</time>
      </trkpt>
      <trkpt lat="45.90353" lon="4.58136">
        <ele>246.03532</ele>
        <time>2022-10-04T11:42:56.000Z</time>
      </trkpt>
      <trkpt lat="45.90356" lon="4.58131">
        <ele>246.16281</ele>
        <time>2022-10-04T11:42:57.000Z</time>
      </trkpt>
      <trkpt lat="45.90359" lon="4.58125">
        <ele>246.30376</ele>
        <time>2022-10-04T11:42:58.000Z</time>
      </trkpt>
      <trkpt lat="45.90362" lon="4.5812">
        <ele>246.41202</ele>
        <time>2022-10-04T11:42:59.000Z</time>
      </trkpt>
      <trkpt lat="45.90364" lon="4.5811">
        <ele>246.46465</ele>
        <time>2022-10-04T11:43:00.000Z</time>
      </trkpt>
      <trkpt lat="45.90371" lon="4.58111">
        <ele>246.36494</ele>
        <time>2022-10-04T11:43:01.000Z</time>
      </trkpt>
      <trkpt lat="45.90374" lon="4.58105">
        <ele>246.27531</ele>
        <time>2022-10-04T11:43:02.000Z</time>
      </trkpt>
      <trkpt lat="45.9038" lon="4.58104">
        <ele>246.20235</ele>
        <time>2022-10-04T11:43:03.000Z</time>
      </trkpt>
      <trkpt lat="45.90384" lon="4.58101">
        <ele>246.02527</ele>
        <time>2022-10-04T11:43:04.000Z</time>
      </trkpt>
      <trkpt lat="45.90388" lon="4.58099">
        <ele>245.81013</ele>
        <time>2022-10-04T11:43:05.000Z</time>
      </trkpt>
      <trkpt lat="45.90393" lon="4.58093">
        <ele>245.6539</ele>
        <time>2022-10-04T11:43:06.000Z</time>
      </trkpt>
      <trkpt lat="45.90397" lon="4.5809">
        <ele>245.48514</ele>
        <time>2022-10-04T11:43:07.000Z</time>
      </trkpt>
      <trkpt lat="45.90402" lon="4.58087">
        <ele>245.25223</ele>
        <time>2022-10-04T11:43:08.000Z</time>
      </trkpt>
      <trkpt lat="45.90406" lon="4.58081">
        <ele>245.0289</ele>
        <time>2022-10-04T11:43:09.000Z</time>
      </trkpt>
      <trkpt lat="45.90411" lon="4.58076">
        <ele>244.82495</ele>
        <time>2022-10-04T11:43:10.000Z</time>
      </trkpt>
      <trkpt lat="45.90414" lon="4.58071">
        <ele>244.49614</ele>
        <time>2022-10-04T11:43:11.000Z</time>
      </trkpt>
      <trkpt lat="45.90418" lon="4.58067">
        <ele>244.20541</ele>
        <time>2022-10-04T11:43:12.000Z</time>
      </trkpt>
      <trkpt lat="45.90421" lon="4.58064">
        <ele>243.94368</ele>
        <time>2022-10-04T11:43:13.000Z</time>
      </trkpt>
      <trkpt lat="45.90426" lon="4.58062">
        <ele>243.72688</ele>
        <time>2022-10-04T11:43:14.000Z</time>
      </trkpt>
      <trkpt lat="45.90431" lon="4.58058">
        <ele>243.49983</ele>
        <time>2022-10-04T11:43:15.000Z</time>
      </trkpt>
      <trkpt lat="45.90434" lon="4.58054">
        <ele>243.32016</ele>
        <time>2022-10-04T11:43:16.000Z</time>
      </trkpt>
      <trkpt lat="45.90439" lon="4.58049">
        <ele>243.02779</ele>
        <time>2022-10-04T11:43:17.000Z</time>
      </trkpt>
      <trkpt lat="45.90442" lon="4.58045">
        <ele>242.69711</ele>
        <time>2022-10-04T11:43:18.000Z</time>
      </trkpt>
      <trkpt lat="45.90445" lon="4.5804">
        <ele>242.4351</ele>
        <time>2022-10-04T11:43:19.000Z</time>
      </trkpt>
      <trkpt lat="45.9045" lon="4.58037">
        <ele>242.16939</ele>
        <time>2022-10-04T11:43:20.000Z</time>
      </trkpt>
      <trkpt lat="45.90455" lon="4.58034">
        <ele>242.05081</ele>
        <time>2022-10-04T11:43:21.000Z</time>
      </trkpt>
      <trkpt lat="45.90456" lon="4.58028">
        <ele>241.8846</ele>
        <time>2022-10-04T11:43:22.000Z</time>
      </trkpt>
      <trkpt lat="45.90459" lon="4.58024">
        <ele>241.7139</ele>
        <time>2022-10-04T11:43:23.000Z</time>
      </trkpt>
      <trkpt lat="45.90465" lon="4.58021">
        <ele>241.61714</ele>
        <time>2022-10-04T11:43:24.000Z</time>
      </trkpt>
      <trkpt lat="45.90469" lon="4.58019">
        <ele>241.53304</ele>
        <time>2022-10-04T11:43:25.000Z</time>
      </trkpt>
      <trkpt lat="45.90474" lon="4.58017">
        <ele>241.35445</ele>
        <time>2022-10-04T11:43:26.000Z</time>
      </trkpt>
      <trkpt lat="45.90477" lon="4.58012">
        <ele>241.20825</ele>
        <time>2022-10-04T11:43:27.000Z</time>
      </trkpt>
      <trkpt lat="45.90483" lon="4.5801">
        <ele>241.00737</ele>
        <time>2022-10-04T11:43:28.000Z</time>
      </trkpt>
      <trkpt lat="45.90487" lon="4.58007">
        <ele>240.82881</ele>
        <time>2022-10-04T11:43:29.000Z</time>
      </trkpt>
      <trkpt lat="45.9049" lon="4.58003">
        <ele>240.60776</ele>
        <time>2022-10-04T11:43:30.000Z</time>
      </trkpt>
      <trkpt lat="45.90494" lon="4.58">
        <ele>240.40427</ele>
        <time>2022-10-04T11:43:31.000Z</time>
      </trkpt>
      <trkpt lat="45.90499" lon="4.57997">
        <ele>240.15373</ele>
        <time>2022-10-04T11:43:32.000Z</time>
      </trkpt>
      <trkpt lat="45.90502" lon="4.57992">
        <ele>239.86519</ele>
        <time>2022-10-04T11:43:33.000Z</time>
      </trkpt>
      <trkpt lat="45.90504" lon="4.57985">
        <ele>239.62703</ele>
        <time>2022-10-04T11:43:34.000Z</time>
      </trkpt>
      <trkpt lat="45.90508" lon="4.57981">
        <ele>239.41801</ele>
        <time>2022-10-04T11:43:35.000Z</time>
      </trkpt>
      <trkpt lat="45.90512" lon="4.57977">
        <ele>239.14929</ele>
        <time>2022-10-04T11:43:36.000Z</time>
      </trkpt>
      <trkpt lat="45.90515" lon="4.57972">
        <ele>238.94321</ele>
        <time>2022-10-04T11:43:37.000Z</time>
      </trkpt>
      <trkpt lat="45.90519" lon="4.57967">
        <ele>238.69299</ele>
        <time>2022-10-04T11:43:38.000Z</time>
      </trkpt>
      <trkpt lat="45.90521" lon="4.57962">
        <ele>238.41013</ele>
        <time>2022-10-04T11:43:39.000Z</time>
      </trkpt>
      <trkpt lat="45.90526" lon="4.57958">
        <ele>238.15108</ele>
        <time>2022-10-04T11:43:40.000Z</time>
      </trkpt>
      <trkpt lat="45.90529" lon="4.57954">
        <ele>237.92744</ele>
        <time>2022-10-04T11:43:41.000Z</time>
      </trkpt>
      <trkpt lat="45.90532" lon="4.57949">
        <ele>237.79846</ele>
        <time>2022-10-04T11:43:42.000Z</time>
      </trkpt>
      <trkpt lat="45.90536" lon="4.57944">
        <ele>237.69519</ele>
        <time>2022-10-04T11:43:43.000Z</time>
      </trkpt>
      <trkpt lat="45.90539" lon="4.5794">
        <ele>237.58545</ele>
        <time>2022-10-04T11:43:44.000Z</time>
      </trkpt>
      <trkpt lat="45.90546" lon="4.5794">
        <ele>237.42078</ele>
        <time>2022-10-04T11:43:45.000Z</time>
      </trkpt>
      <trkpt lat="45.90549" lon="4.57935">
        <ele>237.33252</ele>
        <time>2022-10-04T11:43:46.000Z</time>
      </trkpt>
      <trkpt lat="45.90552" lon="4.57928">
        <ele>237.24907</ele>
        <time>2022-10-04T11:43:47.000Z</time>
      </trkpt>
      <trkpt lat="45.90557" lon="4.57926">
        <ele>237.17476</ele>
        <time>2022-10-04T11:43:48.000Z</time>
      </trkpt>
      <trkpt lat="45.9056" lon="4.57921">
        <ele>237.10852</ele>
        <time>2022-10-04T11:43:49.000Z</time>
      </trkpt>
      <trkpt lat="45.90564" lon="4.57917">
        <ele>237.11894</ele>
        <time>2022-10-04T11:43:50.000Z</time>
      </trkpt>
      <trkpt lat="45.90568" lon="4.57912">
        <ele>237.15378</ele>
        <time>2022-10-04T11:43:51.000Z</time>
      </trkpt>
      <trkpt lat="45.9057" lon="4.57905">
        <ele>237.24551</ele>
        <time>2022-10-04T11:43:52.000Z</time>
      </trkpt>
      <trkpt lat="45.90574" lon="4.57902">
        <ele>237.30185</ele>
        <time>2022-10-04T11:43:53.000Z</time>
      </trkpt>
      <trkpt lat="45.90577" lon="4.57897">
        <ele>237.25163</ele>
        <time>2022-10-04T11:43:54.000Z</time>
      </trkpt>
      <trkpt lat="45.90582" lon="4.57892">
        <ele>237.1582</ele>
        <time>2022-10-04T11:43:55.000Z</time>
      </trkpt>
      <trkpt lat="45.90586" lon="4.5789">
        <ele>237.09077</ele>
        <time>2022-10-04T11:43:56.000Z</time>
      </trkpt>
      <trkpt lat="45.9059" lon="4.57885">
        <ele>237.00937</ele>
        <time>2022-10-04T11:43:57.000Z</time>
      </trkpt>
      <trkpt lat="45.9059" lon="4.57877">
        <ele>236.97781</ele>
        <time>2022-10-04T11:43:58.000Z</time>
      </trkpt>
      <trkpt lat="45.90595" lon="4.57876">
        <ele>236.90698</ele>
        <time>2022-10-04T11:43:59.000Z</time>
      </trkpt>
      <trkpt lat="45.90601" lon="4.5787">
        <ele>236.88635</ele>
        <time>2022-10-04T11:44:00.000Z</time>
      </trkpt>
      <trkpt lat="45.90607" lon="4.5787">
        <ele>236.83337</ele>
        <time>2022-10-04T11:44:01.000Z</time>
      </trkpt>
      <trkpt lat="45.90611" lon="4.57864">
        <ele>236.74092</ele>
        <time>2022-10-04T11:44:02.000Z</time>
      </trkpt>
      <trkpt lat="45.90614" lon="4.57858">
        <ele>236.66438</ele>
        <time>2022-10-04T11:44:03.000Z</time>
      </trkpt>
      <trkpt lat="45.90617" lon="4.57852">
        <ele>236.64253</ele>
        <time>2022-10-04T11:44:04.000Z</time>
      </trkpt>
      <trkpt lat="45.90619" lon="4.57846">
        <ele>236.72884</ele>
        <time>2022-10-04T11:44:05.000Z</time>
      </trkpt>
      <trkpt lat="45.90624" lon="4.57842">
        <ele>236.83228</ele>
        <time>2022-10-04T11:44:06.000Z</time>
      </trkpt>
      <trkpt lat="45.90627" lon="4.57837">
        <ele>236.88094</ele>
        <time>2022-10-04T11:44:07.000Z</time>
      </trkpt>
      <trkpt lat="45.90629" lon="4.57829">
        <ele>237.01616</ele>
        <time>2022-10-04T11:44:08.000Z</time>
      </trkpt>
      <trkpt lat="45.9063" lon="4.57821">
        <ele>237.19852</ele>
        <time>2022-10-04T11:44:09.000Z</time>
      </trkpt>
      <trkpt lat="45.90631" lon="4.57814">
        <ele>237.35371</ele>
        <time>2022-10-04T11:44:10.000Z</time>
      </trkpt>
      <trkpt lat="45.90633" lon="4.57807">
        <ele>237.57341</ele>
        <time>2022-10-04T11:44:11.000Z</time>
      </trkpt>
      <trkpt lat="45.90636" lon="4.578">
        <ele>237.81001</ele>
        <time>2022-10-04T11:44:12.000Z</time>
      </trkpt>
      <trkpt lat="45.9064" lon="4.57796">
        <ele>238.12546</ele>
        <time>2022-10-04T11:44:13.000Z</time>
      </trkpt>
      <trkpt lat="45.90643" lon="4.5779">
        <ele>238.5291</ele>
        <time>2022-10-04T11:44:14.000Z</time>
      </trkpt>
      <trkpt lat="45.90646" lon="4.57785">
        <ele>238.98788</ele>
        <time>2022-10-04T11:44:15.000Z</time>
      </trkpt>
      <trkpt lat="45.9065" lon="4.57782">
        <ele>239.40852</ele>
        <time>2022-10-04T11:44:16.000Z</time>
      </trkpt>
      <trkpt lat="45.90655" lon="4.57778">
        <ele>239.82822</ele>
        <time>2022-10-04T11:44:17.000Z</time>
      </trkpt>
      <trkpt lat="45.90657" lon="4.57773">
        <ele>240.22742</ele>
        <time>2022-10-04T11:44:18.000Z</time>
      </trkpt>
      <trkpt lat="45.9066" lon="4.57767">
        <ele>240.69901</ele>
        <time>2022-10-04T11:44:19.000Z</time>
      </trkpt>
      <trkpt lat="45.9066" lon="4.57761">
        <ele>241.20464</ele>
        <time>2022-10-04T11:44:20.000Z</time>
      </trkpt>
      <trkpt lat="45.9066" lon="4.57756">
        <ele>241.69942</ele>
        <time>2022-10-04T11:44:21.000Z</time>
      </trkpt>
      <trkpt lat="45.90658" lon="4.5775">
        <ele>242.15742</ele>
        <time>2022-10-04T11:44:22.000Z</time>
      </trkpt>
      <trkpt lat="45.90657" lon="4.57747">
        <ele>242.54721</ele>
        <time>2022-10-04T11:44:23.000Z</time>
      </trkpt>
      <trkpt lat="45.90657" lon="4.57741">
        <ele>242.94641</ele>
        <time>2022-10-04T11:44:24.000Z</time>
      </trkpt>
      <trkpt lat="45.90657" lon="4.57734">
        <ele>243.33267</ele>
        <time>2022-10-04T11:44:25.000Z</time>
      </trkpt>
      <trkpt lat="45.90659" lon="4.57727">
        <ele>243.65747</ele>
        <time>2022-10-04T11:44:26.000Z</time>
      </trkpt>
      <trkpt lat="45.9066" lon="4.57719">
        <ele>243.9323</ele>
        <time>2022-10-04T11:44:27.000Z</time>
      </trkpt>
      <trkpt lat="45.90661" lon="4.57713">
        <ele>244.16272</ele>
        <time>2022-10-04T11:44:28.000Z</time>
      </trkpt>
      <trkpt lat="45.90662" lon="4.57707">
        <ele>244.30086</ele>
        <time>2022-10-04T11:44:29.000Z</time>
      </trkpt>
      <trkpt lat="45.90663" lon="4.577">
        <ele>244.50371</ele>
        <time>2022-10-04T11:44:30.000Z</time>
      </trkpt>
      <trkpt lat="45.90666" lon="4.57691">
        <ele>244.65207</ele>
        <time>2022-10-04T11:44:31.000Z</time>
      </trkpt>
      <trkpt lat="45.90664" lon="4.57687">
        <ele>244.74747</ele>
        <time>2022-10-04T11:44:32.000Z</time>
      </trkpt>
      <trkpt lat="45.90665" lon="4.5768">
        <ele>244.80518</ele>
        <time>2022-10-04T11:44:33.000Z</time>
      </trkpt>
      <trkpt lat="45.90666" lon="4.57674">
        <ele>244.78889</ele>
        <time>2022-10-04T11:44:34.000Z</time>
      </trkpt>
      <trkpt lat="45.90666" lon="4.57669">
        <ele>244.69495</ele>
        <time>2022-10-04T11:44:35.000Z</time>
      </trkpt>
      <trkpt lat="45.90667" lon="4.57661">
        <ele>244.64172</ele>
        <time>2022-10-04T11:44:36.000Z</time>
      </trkpt>
      <trkpt lat="45.90669" lon="4.57653">
        <ele>244.54813</ele>
        <time>2022-10-04T11:44:37.000Z</time>
      </trkpt>
      <trkpt lat="45.90669" lon="4.57645">
        <ele>244.46736</ele>
        <time>2022-10-04T11:44:38.000Z</time>
      </trkpt>
      <trkpt lat="45.90671" lon="4.57636">
        <ele>244.44173</ele>
        <time>2022-10-04T11:44:39.000Z</time>
      </trkpt>
      <trkpt lat="45.9067" lon="4.57629">
        <ele>244.40427</ele>
        <time>2022-10-04T11:44:40.000Z</time>
      </trkpt>
      <trkpt lat="45.90672" lon="4.5762">
        <ele>244.40739</ele>
        <time>2022-10-04T11:44:41.000Z</time>
      </trkpt>
      <trkpt lat="45.90672" lon="4.5761">
        <ele>244.42603</ele>
        <time>2022-10-04T11:44:42.000Z</time>
      </trkpt>
      <trkpt lat="45.90673" lon="4.57603">
        <ele>244.50455</ele>
        <time>2022-10-04T11:44:43.000Z</time>
      </trkpt>
      <trkpt lat="45.90682" lon="4.57548">
        <ele>244.62346</ele>
        <time>2022-10-04T11:44:49.000Z</time>
      </trkpt>
      <trkpt lat="45.90684" lon="4.5754">
        <ele>244.72043</ele>
        <time>2022-10-04T11:44:50.000Z</time>
      </trkpt>
      <trkpt lat="45.90685" lon="4.57531">
        <ele>244.85811</ele>
        <time>2022-10-04T11:44:51.000Z</time>
      </trkpt>
      <trkpt lat="45.90686" lon="4.57521">
        <ele>245.0186</ele>
        <time>2022-10-04T11:44:52.000Z</time>
      </trkpt>
      <trkpt lat="45.90688" lon="4.57512">
        <ele>245.15988</ele>
        <time>2022-10-04T11:44:53.000Z</time>
      </trkpt>
      <trkpt lat="45.9069" lon="4.57503">
        <ele>245.31876</ele>
        <time>2022-10-04T11:44:54.000Z</time>
      </trkpt>
      <trkpt lat="45.90691" lon="4.57493">
        <ele>245.46284</ele>
        <time>2022-10-04T11:44:55.000Z</time>
      </trkpt>
      <trkpt lat="45.90693" lon="4.57484">
        <ele>245.58163</ele>
        <time>2022-10-04T11:44:56.000Z</time>
      </trkpt>
      <trkpt lat="45.90696" lon="4.57476">
        <ele>245.62088</ele>
        <time>2022-10-04T11:44:57.000Z</time>
      </trkpt>
      <trkpt lat="45.90699" lon="4.57466">
        <ele>245.59676</ele>
        <time>2022-10-04T11:44:58.000Z</time>
      </trkpt>
      <trkpt lat="45.90701" lon="4.57457">
        <ele>245.5706</ele>
        <time>2022-10-04T11:44:59.000Z</time>
      </trkpt>
      <trkpt lat="45.90702" lon="4.57447">
        <ele>245.60616</ele>
        <time>2022-10-04T11:45:00.000Z</time>
      </trkpt>
      <trkpt lat="45.90704" lon="4.57439">
        <ele>245.59763</ele>
        <time>2022-10-04T11:45:01.000Z</time>
      </trkpt>
      <trkpt lat="45.90706" lon="4.5743">
        <ele>245.65164</ele>
        <time>2022-10-04T11:45:02.000Z</time>
      </trkpt>
      <trkpt lat="45.90709" lon="4.57423">
        <ele>245.70901</ele>
        <time>2022-10-04T11:45:03.000Z</time>
      </trkpt>
      <trkpt lat="45.90713" lon="4.57417">
        <ele>245.66342</ele>
        <time>2022-10-04T11:45:04.000Z</time>
      </trkpt>
      <trkpt lat="45.90718" lon="4.57414">
        <ele>245.53023</ele>
        <time>2022-10-04T11:45:05.000Z</time>
      </trkpt>
      <trkpt lat="45.90719" lon="4.57408">
        <ele>245.37097</ele>
        <time>2022-10-04T11:45:06.000Z</time>
      </trkpt>
      <trkpt lat="45.90718" lon="4.57403">
        <ele>245.22653</ele>
        <time>2022-10-04T11:45:07.000Z</time>
      </trkpt>
      <trkpt lat="45.90714" lon="4.57399">
        <ele>245.0479</ele>
        <time>2022-10-04T11:45:08.000Z</time>
      </trkpt>
      <trkpt lat="45.90709" lon="4.57397">
        <ele>244.78943</ele>
        <time>2022-10-04T11:45:09.000Z</time>
      </trkpt>
      <trkpt lat="45.90704" lon="4.57395">
        <ele>244.5238</ele>
        <time>2022-10-04T11:45:10.000Z</time>
      </trkpt>
      <trkpt lat="45.90698" lon="4.57392">
        <ele>244.23367</ele>
        <time>2022-10-04T11:45:11.000Z</time>
      </trkpt>
      <trkpt lat="45.90693" lon="4.5739">
        <ele>244.03793</ele>
        <time>2022-10-04T11:45:12.000Z</time>
      </trkpt>
      <trkpt lat="45.90689" lon="4.57387">
        <ele>243.94156</ele>
        <time>2022-10-04T11:45:13.000Z</time>
      </trkpt>
      <trkpt lat="45.90685" lon="4.57386">
        <ele>243.82849</ele>
        <time>2022-10-04T11:45:14.000Z</time>
      </trkpt>
      <trkpt lat="45.90681" lon="4.57382">
        <ele>243.65341</ele>
        <time>2022-10-04T11:45:15.000Z</time>
      </trkpt>
      <trkpt lat="45.90677" lon="4.57378">
        <ele>243.50998</ele>
        <time>2022-10-04T11:45:16.000Z</time>
      </trkpt>
      <trkpt lat="45.90673" lon="4.57374">
        <ele>243.50229</ele>
        <time>2022-10-04T11:45:17.000Z</time>
      </trkpt>
      <trkpt lat="45.90669" lon="4.57371">
        <ele>243.55188</ele>
        <time>2022-10-04T11:45:18.000Z</time>
      </trkpt>
      <trkpt lat="45.90666" lon="4.57368">
        <ele>243.61368</ele>
        <time>2022-10-04T11:45:19.000Z</time>
      </trkpt>
      <trkpt lat="45.90662" lon="4.57364">
        <ele>243.73398</ele>
        <time>2022-10-04T11:45:20.000Z</time>
      </trkpt>
      <trkpt lat="45.90659" lon="4.57363">
        <ele>243.89189</ele>
        <time>2022-10-04T11:45:21.000Z</time>
      </trkpt>
      <trkpt lat="45.90655" lon="4.57361">
        <ele>244.02486</ele>
        <time>2022-10-04T11:45:22.000Z</time>
      </trkpt>
      <trkpt lat="45.90651" lon="4.57356">
        <ele>244.12883</ele>
        <time>2022-10-04T11:45:23.000Z</time>
      </trkpt>
      <trkpt lat="45.90647" lon="4.57352">
        <ele>244.23987</ele>
        <time>2022-10-04T11:45:24.000Z</time>
      </trkpt>
      <trkpt lat="45.90644" lon="4.57348">
        <ele>244.37759</ele>
        <time>2022-10-04T11:45:25.000Z</time>
      </trkpt>
      <trkpt lat="45.90639" lon="4.57345">
        <ele>244.53731</ele>
        <time>2022-10-04T11:45:26.000Z</time>
      </trkpt>
      <trkpt lat="45.90634" lon="4.57341">
        <ele>244.66924</ele>
        <time>2022-10-04T11:45:27.000Z</time>
      </trkpt>
      <trkpt lat="45.90631" lon="4.57341">
        <ele>244.83443</ele>
        <time>2022-10-04T11:45:28.000Z</time>
      </trkpt>
      <trkpt lat="45.90628" lon="4.57339">
        <ele>245.03801</ele>
        <time>2022-10-04T11:45:29.000Z</time>
      </trkpt>
      <trkpt lat="45.90624" lon="4.57335">
        <ele>245.24539</ele>
        <time>2022-10-04T11:45:30.000Z</time>
      </trkpt>
      <trkpt lat="45.9062" lon="4.57337">
        <ele>245.44962</ele>
        <time>2022-10-04T11:45:31.000Z</time>
      </trkpt>
      <trkpt lat="45.90614" lon="4.5733">
        <ele>245.58328</ele>
        <time>2022-10-04T11:45:32.000Z</time>
      </trkpt>
      <trkpt lat="45.90609" lon="4.57334">
        <ele>245.75851</ele>
        <time>2022-10-04T11:45:33.000Z</time>
      </trkpt>
      <trkpt lat="45.90605" lon="4.57338">
        <ele>245.84119</ele>
        <time>2022-10-04T11:45:34.000Z</time>
      </trkpt>
      <trkpt lat="45.906" lon="4.57341">
        <ele>245.94067</ele>
        <time>2022-10-04T11:45:35.000Z</time>
      </trkpt>
      <trkpt lat="45.90594" lon="4.5734">
        <ele>246.06216</ele>
        <time>2022-10-04T11:45:36.000Z</time>
      </trkpt>
      <trkpt lat="45.90589" lon="4.57339">
        <ele>246.19922</ele>
        <time>2022-10-04T11:45:37.000Z</time>
      </trkpt>
      <trkpt lat="45.90584" lon="4.57335">
        <ele>246.33777</ele>
        <time>2022-10-04T11:45:38.000Z</time>
      </trkpt>
      <trkpt lat="45.90579" lon="4.57331">
        <ele>246.56064</ele>
        <time>2022-10-04T11:45:39.000Z</time>
      </trkpt>
      <trkpt lat="45.90575" lon="4.57326">
        <ele>246.69995</ele>
        <time>2022-10-04T11:45:40.000Z</time>
      </trkpt>
      <trkpt lat="45.90572" lon="4.57319">
        <ele>246.80991</ele>
        <time>2022-10-04T11:45:41.000Z</time>
      </trkpt>
      <trkpt lat="45.9057" lon="4.57313">
        <ele>246.93698</ele>
        <time>2022-10-04T11:45:42.000Z</time>
      </trkpt>
      <trkpt lat="45.90566" lon="4.57307">
        <ele>247.02908</ele>
        <time>2022-10-04T11:45:43.000Z</time>
      </trkpt>
      <trkpt lat="45.90561" lon="4.57303">
        <ele>247.08098</ele>
        <time>2022-10-04T11:45:44.000Z</time>
      </trkpt>
      <trkpt lat="45.90557" lon="4.573">
        <ele>247.16098</ele>
        <time>2022-10-04T11:45:45.000Z</time>
      </trkpt>
      <trkpt lat="45.90553" lon="4.57301">
        <ele>247.22676</ele>
        <time>2022-10-04T11:45:46.000Z</time>
      </trkpt>
      <trkpt lat="45.9055" lon="4.57304">
        <ele>247.32486</ele>
        <time>2022-10-04T11:45:47.000Z</time>
      </trkpt>
      <trkpt lat="45.90547" lon="4.5731">
        <ele>247.45993</ele>
        <time>2022-10-04T11:45:48.000Z</time>
      </trkpt>
      <trkpt lat="45.90546" lon="4.57315">
        <ele>247.54663</ele>
        <time>2022-10-04T11:45:49.000Z</time>
      </trkpt>
      <trkpt lat="45.90544" lon="4.5732">
        <ele>247.63614</ele>
        <time>2022-10-04T11:45:50.000Z</time>
      </trkpt>
      <trkpt lat="45.90544" lon="4.57327">
        <ele>247.70691</ele>
        <time>2022-10-04T11:45:51.000Z</time>
      </trkpt>
      <trkpt lat="45.90543" lon="4.57333">
        <ele>247.6866</ele>
        <time>2022-10-04T11:45:52.000Z</time>
      </trkpt>
      <trkpt lat="45.9054" lon="4.57334">
        <ele>247.5782</ele>
        <time>2022-10-04T11:45:53.000Z</time>
      </trkpt>
      <trkpt lat="45.90538" lon="4.57336">
        <ele>247.59506</ele>
        <time>2022-10-04T11:45:54.000Z</time>
      </trkpt>
      <trkpt lat="45.90536" lon="4.57337">
        <ele>247.60709</ele>
        <time>2022-10-04T11:45:55.000Z</time>
      </trkpt>
      <trkpt lat="45.90534" lon="4.57337">
        <ele>247.59322</ele>
        <time>2022-10-04T11:45:56.000Z</time>
      </trkpt>
      <trkpt lat="45.90532" lon="4.57338">
        <ele>247.53162</ele>
        <time>2022-10-04T11:45:58.000Z</time>
      </trkpt>
      <trkpt lat="45.90532" lon="4.57335">
        <ele>247.48154</ele>
        <time>2022-10-04T11:46:01.000Z</time>
      </trkpt>
      <trkpt lat="45.90531" lon="4.57333">
        <ele>247.38425</ele>
        <time>2022-10-04T11:46:07.000Z</time>
      </trkpt>
      <trkpt lat="45.9053" lon="4.5733">
        <ele>247.32007</ele>
        <time>2022-10-04T11:47:16.000Z</time>
      </trkpt>
      <trkpt lat="45.90531" lon="4.57329">
        <ele>247.26384</ele>
        <time>2022-10-04T11:47:21.000Z</time>
      </trkpt>
      <trkpt lat="45.9053" lon="4.57328">
        <ele>247.30391</ele>
        <time>2022-10-04T11:47:40.000Z</time>
      </trkpt>
      <trkpt lat="45.90528" lon="4.57327">
        <ele>247.27563</ele>
        <time>2022-10-04T11:50:00.000Z</time>
      </trkpt>
      <trkpt lat="45.9053" lon="4.57329">
        <ele>247.41428</ele>
        <time>2022-10-04T11:52:42.000Z</time>
      </trkpt>
      <trkpt lat="45.90532" lon="4.5733">
        <ele>247.5157</ele>
        <time>2022-10-04T11:52:43.000Z</time>
      </trkpt>
      <trkpt lat="45.90534" lon="4.5733">
        <ele>247.56429</ele>
        <time>2022-10-04T11:52:44.000Z</time>
      </trkpt>
      <trkpt lat="45.90537" lon="4.5733">
        <ele>247.52583</ele>
        <time>2022-10-04T11:52:45.000Z</time>
      </trkpt>
      <trkpt lat="45.90541" lon="4.57329">
        <ele>247.35605</ele>
        <time>2022-10-04T11:52:46.000Z</time>
      </trkpt>
      <trkpt lat="45.90544" lon="4.57329">
        <ele>247.09558</ele>
        <time>2022-10-04T11:52:47.000Z</time>
      </trkpt>
      <trkpt lat="45.90547" lon="4.57329">
        <ele>246.94058</ele>
        <time>2022-10-04T11:52:48.000Z</time>
      </trkpt>
      <trkpt lat="45.9055" lon="4.57328">
        <ele>246.84248</ele>
        <time>2022-10-04T11:52:49.000Z</time>
      </trkpt>
      <trkpt lat="45.90553" lon="4.57328">
        <ele>246.81828</ele>
        <time>2022-10-04T11:52:50.000Z</time>
      </trkpt>
      <trkpt lat="45.90556" lon="4.57327">
        <ele>246.79187</ele>
        <time>2022-10-04T11:52:51.000Z</time>
      </trkpt>
      <trkpt lat="45.9056" lon="4.57326">
        <ele>246.77505</ele>
        <time>2022-10-04T11:52:52.000Z</time>
      </trkpt>
      <trkpt lat="45.90563" lon="4.57324">
        <ele>246.77689</ele>
        <time>2022-10-04T11:52:53.000Z</time>
      </trkpt>
      <trkpt lat="45.90566" lon="4.5732">
        <ele>246.82317</ele>
        <time>2022-10-04T11:52:54.000Z</time>
      </trkpt>
      <trkpt lat="45.90568" lon="4.57315">
        <ele>246.82967</ele>
        <time>2022-10-04T11:52:55.000Z</time>
      </trkpt>
      <trkpt lat="45.90568" lon="4.5731">
        <ele>246.71127</ele>
        <time>2022-10-04T11:52:56.000Z</time>
      </trkpt>
      <trkpt lat="45.90566" lon="4.57305">
        <ele>246.52373</ele>
        <time>2022-10-04T11:52:57.000Z</time>
      </trkpt>
      <trkpt lat="45.90563" lon="4.57302">
        <ele>246.31128</ele>
        <time>2022-10-04T11:52:58.000Z</time>
      </trkpt>
      <trkpt lat="45.90559" lon="4.57298">
        <ele>246.0854</ele>
        <time>2022-10-04T11:52:59.000Z</time>
      </trkpt>
      <trkpt lat="45.90555" lon="4.57296">
        <ele>245.77849</ele>
        <time>2022-10-04T11:53:00.000Z</time>
      </trkpt>
      <trkpt lat="45.90551" lon="4.57296">
        <ele>245.64767</ele>
        <time>2022-10-04T11:53:01.000Z</time>
      </trkpt>
      <trkpt lat="45.90547" lon="4.57297">
        <ele>245.44287</ele>
        <time>2022-10-04T11:53:02.000Z</time>
      </trkpt>
      <trkpt lat="45.90542" lon="4.57299">
        <ele>245.27322</ele>
        <time>2022-10-04T11:53:03.000Z</time>
      </trkpt>
      <trkpt lat="45.90538" lon="4.573">
        <ele>245.06384</ele>
        <time>2022-10-04T11:53:04.000Z</time>
      </trkpt>
      <trkpt lat="45.90535" lon="4.57301">
        <ele>244.92717</ele>
        <time>2022-10-04T11:53:05.000Z</time>
      </trkpt>
      <trkpt lat="45.90532" lon="4.57302">
        <ele>244.75288</ele>
        <time>2022-10-04T11:53:06.000Z</time>
      </trkpt>
      <trkpt lat="45.90529" lon="4.57301">
        <ele>244.6794</ele>
        <time>2022-10-04T11:53:07.000Z</time>
      </trkpt>
      <trkpt lat="45.90526" lon="4.573">
        <ele>244.52271</ele>
        <time>2022-10-04T11:53:08.000Z</time>
      </trkpt>
      <trkpt lat="45.90523" lon="4.57297">
        <ele>244.38867</ele>
        <time>2022-10-04T11:53:09.000Z</time>
      </trkpt>
      <trkpt lat="45.9052" lon="4.57295">
        <ele>244.32426</ele>
        <time>2022-10-04T11:53:10.000Z</time>
      </trkpt>
      <trkpt lat="45.90517" lon="4.57292">
        <ele>244.22099</ele>
        <time>2022-10-04T11:53:11.000Z</time>
      </trkpt>
      <trkpt lat="45.90514" lon="4.57289">
        <ele>244.15323</ele>
        <time>2022-10-04T11:53:12.000Z</time>
      </trkpt>
      <trkpt lat="45.90512" lon="4.57286">
        <ele>244.09526</ele>
        <time>2022-10-04T11:53:13.000Z</time>
      </trkpt>
      <trkpt lat="45.90509" lon="4.57282">
        <ele>244.00696</ele>
        <time>2022-10-04T11:53:14.000Z</time>
      </trkpt>
      <trkpt lat="45.90507" lon="4.57278">
        <ele>243.96272</ele>
        <time>2022-10-04T11:53:15.000Z</time>
      </trkpt>
      <trkpt lat="45.90504" lon="4.57274">
        <ele>244.02356</ele>
        <time>2022-10-04T11:53:16.000Z</time>
      </trkpt>
      <trkpt lat="45.90501" lon="4.5727">
        <ele>244.10971</ele>
        <time>2022-10-04T11:53:17.000Z</time>
      </trkpt>
      <trkpt lat="45.90499" lon="4.57266">
        <ele>244.20596</ele>
        <time>2022-10-04T11:53:18.000Z</time>
      </trkpt>
      <trkpt lat="45.90496" lon="4.57262">
        <ele>244.37451</ele>
        <time>2022-10-04T11:53:19.000Z</time>
      </trkpt>
      <trkpt lat="45.90494" lon="4.57258">
        <ele>244.52158</ele>
        <time>2022-10-04T11:53:20.000Z</time>
      </trkpt>
      <trkpt lat="45.90492" lon="4.57255">
        <ele>244.62094</ele>
        <time>2022-10-04T11:53:21.000Z</time>
      </trkpt>
      <trkpt lat="45.9049" lon="4.57251">
        <ele>244.62643</ele>
        <time>2022-10-04T11:53:22.000Z</time>
      </trkpt>
      <trkpt lat="45.90488" lon="4.57249">
        <ele>244.64429</ele>
        <time>2022-10-04T11:53:23.000Z</time>
      </trkpt>
      <trkpt lat="45.90485" lon="4.57246">
        <ele>244.63248</ele>
        <time>2022-10-04T11:53:24.000Z</time>
      </trkpt>
      <trkpt lat="45.90483" lon="4.57244">
        <ele>244.66985</ele>
        <time>2022-10-04T11:53:25.000Z</time>
      </trkpt>
      <trkpt lat="45.90482" lon="4.57242">
        <ele>244.87131</ele>
        <time>2022-10-04T11:53:26.000Z</time>
      </trkpt>
      <trkpt lat="45.9048" lon="4.57239">
        <ele>245.10905</ele>
        <time>2022-10-04T11:53:27.000Z</time>
      </trkpt>
      <trkpt lat="45.90478" lon="4.57237">
        <ele>245.31494</ele>
        <time>2022-10-04T11:53:28.000Z</time>
      </trkpt>
      <trkpt lat="45.90476" lon="4.57235">
        <ele>245.43784</ele>
        <time>2022-10-04T11:53:29.000Z</time>
      </trkpt>
      <trkpt lat="45.90473" lon="4.57232">
        <ele>245.51559</ele>
        <time>2022-10-04T11:53:30.000Z</time>
      </trkpt>
      <trkpt lat="45.9047" lon="4.5723">
        <ele>245.57974</ele>
        <time>2022-10-04T11:53:31.000Z</time>
      </trkpt>
      <trkpt lat="45.90467" lon="4.57227">
        <ele>245.58145</ele>
        <time>2022-10-04T11:53:32.000Z</time>
      </trkpt>
      <trkpt lat="45.90464" lon="4.57225">
        <ele>245.48152</ele>
        <time>2022-10-04T11:53:33.000Z</time>
      </trkpt>
      <trkpt lat="45.90461" lon="4.57222">
        <ele>245.41008</ele>
        <time>2022-10-04T11:53:34.000Z</time>
      </trkpt>
      <trkpt lat="45.90458" lon="4.5722">
        <ele>245.21243</ele>
        <time>2022-10-04T11:53:35.000Z</time>
      </trkpt>
      <trkpt lat="45.90455" lon="4.57217">
        <ele>244.94426</ele>
        <time>2022-10-04T11:53:36.000Z</time>
      </trkpt>
      <trkpt lat="45.90453" lon="4.57213">
        <ele>244.70377</ele>
        <time>2022-10-04T11:53:37.000Z</time>
      </trkpt>
      <trkpt lat="45.90451" lon="4.5721">
        <ele>244.53081</ele>
        <time>2022-10-04T11:53:38.000Z</time>
      </trkpt>
      <trkpt lat="45.90449" lon="4.57207">
        <ele>244.29868</ele>
        <time>2022-10-04T11:53:39.000Z</time>
      </trkpt>
      <trkpt lat="45.90447" lon="4.57204">
        <ele>244.13284</ele>
        <time>2022-10-04T11:53:40.000Z</time>
      </trkpt>
      <trkpt lat="45.90445" lon="4.57202">
        <ele>243.95386</ele>
        <time>2022-10-04T11:53:41.000Z</time>
      </trkpt>
      <trkpt lat="45.90442" lon="4.57199">
        <ele>243.759</ele>
        <time>2022-10-04T11:53:42.000Z</time>
      </trkpt>
      <trkpt lat="45.90438" lon="4.57196">
        <ele>243.54538</ele>
        <time>2022-10-04T11:53:43.000Z</time>
      </trkpt>
      <trkpt lat="45.90435" lon="4.57193">
        <ele>243.51228</ele>
        <time>2022-10-04T11:53:44.000Z</time>
      </trkpt>
      <trkpt lat="45.90432" lon="4.57189">
        <ele>243.44193</ele>
        <time>2022-10-04T11:53:45.000Z</time>
      </trkpt>
      <trkpt lat="45.9043" lon="4.57185">
        <ele>243.37688</ele>
        <time>2022-10-04T11:53:46.000Z</time>
      </trkpt>
      <trkpt lat="45.90427" lon="4.5718">
        <ele>243.37711</ele>
        <time>2022-10-04T11:53:47.000Z</time>
      </trkpt>
      <trkpt lat="45.90425" lon="4.57176">
        <ele>243.50728</ele>
        <time>2022-10-04T11:53:48.000Z</time>
      </trkpt>
      <trkpt lat="45.90423" lon="4.57171">
        <ele>243.73042</ele>
        <time>2022-10-04T11:53:49.000Z</time>
      </trkpt>
      <trkpt lat="45.90421" lon="4.57167">
        <ele>244.03108</ele>
        <time>2022-10-04T11:53:50.000Z</time>
      </trkpt>
      <trkpt lat="45.9042" lon="4.57163">
        <ele>244.41951</ele>
        <time>2022-10-04T11:53:51.000Z</time>
      </trkpt>
      <trkpt lat="45.90419" lon="4.57158">
        <ele>244.81551</ele>
        <time>2022-10-04T11:53:52.000Z</time>
      </trkpt>
      <trkpt lat="45.90417" lon="4.57154">
        <ele>245.29794</ele>
        <time>2022-10-04T11:53:53.000Z</time>
      </trkpt>
      <trkpt lat="45.90416" lon="4.57149">
        <ele>245.75479</ele>
        <time>2022-10-04T11:53:54.000Z</time>
      </trkpt>
      <trkpt lat="45.90416" lon="4.57145">
        <ele>246.33333</ele>
        <time>2022-10-04T11:53:55.000Z</time>
      </trkpt>
      <trkpt lat="45.90415" lon="4.5714">
        <ele>246.93538</ele>
        <time>2022-10-04T11:53:56.000Z</time>
      </trkpt>
      <trkpt lat="45.90414" lon="4.57135">
        <ele>247.53748</ele>
        <time>2022-10-04T11:53:57.000Z</time>
      </trkpt>
      <trkpt lat="45.90413" lon="4.57131">
        <ele>248.13953</ele>
        <time>2022-10-04T11:53:58.000Z</time>
      </trkpt>
      <trkpt lat="45.90412" lon="4.57127">
        <ele>248.73245</ele>
        <time>2022-10-04T11:53:59.000Z</time>
      </trkpt>
      <trkpt lat="45.90411" lon="4.57123">
        <ele>249.27756</ele>
        <time>2022-10-04T11:54:00.000Z</time>
      </trkpt>
      <trkpt lat="45.90411" lon="4.5712">
        <ele>249.85498</ele>
        <time>2022-10-04T11:54:01.000Z</time>
      </trkpt>
      <trkpt lat="45.9041" lon="4.57116">
        <ele>250.47952</ele>
        <time>2022-10-04T11:54:02.000Z</time>
      </trkpt>
      <trkpt lat="45.90409" lon="4.57112">
        <ele>251.04941</ele>
        <time>2022-10-04T11:54:03.000Z</time>
      </trkpt>
      <trkpt lat="45.90408" lon="4.57108">
        <ele>251.56326</ele>
        <time>2022-10-04T11:54:04.000Z</time>
      </trkpt>
      <trkpt lat="45.90407" lon="4.57103">
        <ele>252.06137</ele>
        <time>2022-10-04T11:54:05.000Z</time>
      </trkpt>
      <trkpt lat="45.90406" lon="4.57099">
        <ele>252.55942</ele>
        <time>2022-10-04T11:54:06.000Z</time>
      </trkpt>
      <trkpt lat="45.90405" lon="4.57094">
        <ele>253.03093</ele>
        <time>2022-10-04T11:54:07.000Z</time>
      </trkpt>
      <trkpt lat="45.90404" lon="4.5709">
        <ele>253.41023</ele>
        <time>2022-10-04T11:54:08.000Z</time>
      </trkpt>
      <trkpt lat="45.90403" lon="4.57087">
        <ele>253.74588</ele>
        <time>2022-10-04T11:54:09.000Z</time>
      </trkpt>
      <trkpt lat="45.90402" lon="4.57083">
        <ele>254.02432</ele>
        <time>2022-10-04T11:54:10.000Z</time>
      </trkpt>
      <trkpt lat="45.90401" lon="4.5708">
        <ele>254.28244</ele>
        <time>2022-10-04T11:54:11.000Z</time>
      </trkpt>
      <trkpt lat="45.904" lon="4.57076">
        <ele>254.55276</ele>
        <time>2022-10-04T11:54:12.000Z</time>
      </trkpt>
      <trkpt lat="45.90398" lon="4.57072">
        <ele>254.83292</ele>
        <time>2022-10-04T11:54:13.000Z</time>
      </trkpt>
      <trkpt lat="45.90397" lon="4.57068">
        <ele>255.18208</ele>
        <time>2022-10-04T11:54:14.000Z</time>
      </trkpt>
      <trkpt lat="45.90395" lon="4.57064">
        <ele>255.47433</ele>
        <time>2022-10-04T11:54:15.000Z</time>
      </trkpt>
      <trkpt lat="45.90393" lon="4.5706">
        <ele>255.8291</ele>
        <time>2022-10-04T11:54:16.000Z</time>
      </trkpt>
      <trkpt lat="45.90391" lon="4.57057">
        <ele>256.12616</ele>
        <time>2022-10-04T11:54:17.000Z</time>
      </trkpt>
      <trkpt lat="45.90389" lon="4.57053">
        <ele>256.36966</ele>
        <time>2022-10-04T11:54:18.000Z</time>
      </trkpt>
      <trkpt lat="45.90387" lon="4.57049">
        <ele>256.69061</ele>
        <time>2022-10-04T11:54:19.000Z</time>
      </trkpt>
      <trkpt lat="45.90386" lon="4.57046">
        <ele>257.03168</ele>
        <time>2022-10-04T11:54:20.000Z</time>
      </trkpt>
      <trkpt lat="45.90384" lon="4.57042">
        <ele>257.35114</ele>
        <time>2022-10-04T11:54:21.000Z</time>
      </trkpt>
      <trkpt lat="45.90383" lon="4.57037">
        <ele>257.69644</ele>
        <time>2022-10-04T11:54:22.000Z</time>
      </trkpt>
      <trkpt lat="45.90382" lon="4.57034">
        <ele>258.08127</ele>
        <time>2022-10-04T11:54:23.000Z</time>
      </trkpt>
      <trkpt lat="45.9038" lon="4.57031">
        <ele>258.50165</ele>
        <time>2022-10-04T11:54:24.000Z</time>
      </trkpt>
      <trkpt lat="45.90379" lon="4.57027">
        <ele>258.96298</ele>
        <time>2022-10-04T11:54:25.000Z</time>
      </trkpt>
      <trkpt lat="45.90378" lon="4.57023">
        <ele>259.39709</ele>
        <time>2022-10-04T11:54:26.000Z</time>
      </trkpt>
      <trkpt lat="45.90377" lon="4.5702">
        <ele>259.71106</ele>
        <time>2022-10-04T11:54:27.000Z</time>
      </trkpt>
      <trkpt lat="45.90376" lon="4.57016">
        <ele>260.03357</ele>
        <time>2022-10-04T11:54:28.000Z</time>
      </trkpt>
      <trkpt lat="45.90375" lon="4.57012">
        <ele>260.39688</ele>
        <time>2022-10-04T11:54:29.000Z</time>
      </trkpt>
      <trkpt lat="45.90375" lon="4.57008">
        <ele>260.79559</ele>
        <time>2022-10-04T11:54:30.000Z</time>
      </trkpt>
      <trkpt lat="45.90373" lon="4.57004">
        <ele>261.17853</ele>
        <time>2022-10-04T11:54:31.000Z</time>
      </trkpt>
      <trkpt lat="45.90372" lon="4.56999">
        <ele>261.63919</ele>
        <time>2022-10-04T11:54:32.000Z</time>
      </trkpt>
      <trkpt lat="45.9037" lon="4.56995">
        <ele>262.07062</ele>
        <time>2022-10-04T11:54:33.000Z</time>
      </trkpt>
      <trkpt lat="45.90369" lon="4.56991">
        <ele>262.43707</ele>
        <time>2022-10-04T11:54:34.000Z</time>
      </trkpt>
      <trkpt lat="45.90368" lon="4.56987">
        <ele>262.83698</ele>
        <time>2022-10-04T11:54:35.000Z</time>
      </trkpt>
      <trkpt lat="45.90367" lon="4.56982">
        <ele>263.21799</ele>
        <time>2022-10-04T11:54:36.000Z</time>
      </trkpt>
      <trkpt lat="45.90366" lon="4.56978">
        <ele>263.69653</ele>
        <time>2022-10-04T11:54:37.000Z</time>
      </trkpt>
      <trkpt lat="45.90365" lon="4.56973">
        <ele>264.18567</ele>
        <time>2022-10-04T11:54:38.000Z</time>
      </trkpt>
      <trkpt lat="45.90364" lon="4.5697">
        <ele>264.62259</ele>
        <time>2022-10-04T11:54:39.000Z</time>
      </trkpt>
      <trkpt lat="45.90363" lon="4.56966">
        <ele>265.01672</ele>
        <time>2022-10-04T11:54:40.000Z</time>
      </trkpt>
      <trkpt lat="45.90361" lon="4.56963">
        <ele>265.34506</ele>
        <time>2022-10-04T11:54:41.000Z</time>
      </trkpt>
      <trkpt lat="45.9036" lon="4.56959">
        <ele>265.63104</ele>
        <time>2022-10-04T11:54:42.000Z</time>
      </trkpt>
      <trkpt lat="45.90359" lon="4.56956">
        <ele>265.96603</ele>
        <time>2022-10-04T11:54:43.000Z</time>
      </trkpt>
      <trkpt lat="45.90358" lon="4.56952">
        <ele>266.2576</ele>
        <time>2022-10-04T11:54:44.000Z</time>
      </trkpt>
      <trkpt lat="45.90357" lon="4.56947">
        <ele>266.50391</ele>
        <time>2022-10-04T11:54:45.000Z</time>
      </trkpt>
      <trkpt lat="45.90356" lon="4.56943">
        <ele>266.75824</ele>
        <time>2022-10-04T11:54:46.000Z</time>
      </trkpt>
      <trkpt lat="45.90355" lon="4.5694">
        <ele>267.06381</ele>
        <time>2022-10-04T11:54:47.000Z</time>
      </trkpt>
      <trkpt lat="45.90353" lon="4.56937">
        <ele>267.38977</ele>
        <time>2022-10-04T11:54:48.000Z</time>
      </trkpt>
      <trkpt lat="45.90351" lon="4.56934">
        <ele>267.63507</ele>
        <time>2022-10-04T11:54:49.000Z</time>
      </trkpt>
      <trkpt lat="45.9035" lon="4.56931">
        <ele>267.90729</ele>
        <time>2022-10-04T11:54:50.000Z</time>
      </trkpt>
      <trkpt lat="45.90348" lon="4.56928">
        <ele>268.17099</ele>
        <time>2022-10-04T11:54:51.000Z</time>
      </trkpt>
      <trkpt lat="45.90345" lon="4.56925">
        <ele>268.32745</ele>
        <time>2022-10-04T11:54:52.000Z</time>
      </trkpt>
      <trkpt lat="45.90343" lon="4.56922">
        <ele>268.46005</ele>
        <time>2022-10-04T11:54:53.000Z</time>
      </trkpt>
      <trkpt lat="45.9034" lon="4.56918">
        <ele>268.66278</ele>
        <time>2022-10-04T11:54:54.000Z</time>
      </trkpt>
      <trkpt lat="45.90338" lon="4.56915">
        <ele>268.89838</ele>
        <time>2022-10-04T11:54:55.000Z</time>
      </trkpt>
      <trkpt lat="45.90336" lon="4.56912">
        <ele>269.14957</ele>
        <time>2022-10-04T11:54:56.000Z</time>
      </trkpt>
      <trkpt lat="45.90334" lon="4.56909">
        <ele>269.33603</ele>
        <time>2022-10-04T11:54:57.000Z</time>
      </trkpt>
      <trkpt lat="45.90332" lon="4.56905">
        <ele>269.4314</ele>
        <time>2022-10-04T11:54:58.000Z</time>
      </trkpt>
      <trkpt lat="45.9033" lon="4.56903">
        <ele>269.51685</ele>
        <time>2022-10-04T11:54:59.000Z</time>
      </trkpt>
      <trkpt lat="45.90327" lon="4.569">
        <ele>269.6264</ele>
        <time>2022-10-04T11:55:00.000Z</time>
      </trkpt>
      <trkpt lat="45.90325" lon="4.56898">
        <ele>269.80774</ele>
        <time>2022-10-04T11:55:01.000Z</time>
      </trkpt>
      <trkpt lat="45.90322" lon="4.56895">
        <ele>270.00613</ele>
        <time>2022-10-04T11:55:02.000Z</time>
      </trkpt>
      <trkpt lat="45.9032" lon="4.56893">
        <ele>270.13611</ele>
        <time>2022-10-04T11:55:03.000Z</time>
      </trkpt>
      <trkpt lat="45.90317" lon="4.5689">
        <ele>270.2309</ele>
        <time>2022-10-04T11:55:04.000Z</time>
      </trkpt>
      <trkpt lat="45.90314" lon="4.56888">
        <ele>270.34955</ele>
        <time>2022-10-04T11:55:05.000Z</time>
      </trkpt>
      <trkpt lat="45.90312" lon="4.56886">
        <ele>270.43246</ele>
        <time>2022-10-04T11:55:06.000Z</time>
      </trkpt>
      <trkpt lat="45.90309" lon="4.56884">
        <ele>270.56744</ele>
        <time>2022-10-04T11:55:07.000Z</time>
      </trkpt>
      <trkpt lat="45.90306" lon="4.56883">
        <ele>270.68423</ele>
        <time>2022-10-04T11:55:08.000Z</time>
      </trkpt>
      <trkpt lat="45.90303" lon="4.56881">
        <ele>270.82095</ele>
        <time>2022-10-04T11:55:09.000Z</time>
      </trkpt>
      <trkpt lat="45.90301" lon="4.5688">
        <ele>270.94769</ele>
        <time>2022-10-04T11:55:10.000Z</time>
      </trkpt>
      <trkpt lat="45.90298" lon="4.56878">
        <ele>271.08542</ele>
        <time>2022-10-04T11:55:11.000Z</time>
      </trkpt>
      <trkpt lat="45.90295" lon="4.56877">
        <ele>271.1994</ele>
        <time>2022-10-04T11:55:12.000Z</time>
      </trkpt>
      <trkpt lat="45.90293" lon="4.56876">
        <ele>271.37555</ele>
        <time>2022-10-04T11:55:13.000Z</time>
      </trkpt>
      <trkpt lat="45.90289" lon="4.56875">
        <ele>271.40677</ele>
        <time>2022-10-04T11:55:14.000Z</time>
      </trkpt>
      <trkpt lat="45.90286" lon="4.56875">
        <ele>271.31497</ele>
        <time>2022-10-04T11:55:15.000Z</time>
      </trkpt>
      <trkpt lat="45.90283" lon="4.56874">
        <ele>271.25037</ele>
        <time>2022-10-04T11:55:16.000Z</time>
      </trkpt>
      <trkpt lat="45.9028" lon="4.56873">
        <ele>271.20584</ele>
        <time>2022-10-04T11:55:17.000Z</time>
      </trkpt>
      <trkpt lat="45.90277" lon="4.56872">
        <ele>271.20917</ele>
        <time>2022-10-04T11:55:18.000Z</time>
      </trkpt>
      <trkpt lat="45.90274" lon="4.5687">
        <ele>271.19455</ele>
        <time>2022-10-04T11:55:19.000Z</time>
      </trkpt>
      <trkpt lat="45.90272" lon="4.56868">
        <ele>271.03564</ele>
        <time>2022-10-04T11:55:20.000Z</time>
      </trkpt>
      <trkpt lat="45.90269" lon="4.56866">
        <ele>270.88705</ele>
        <time>2022-10-04T11:55:21.000Z</time>
      </trkpt>
      <trkpt lat="45.90267" lon="4.56866">
        <ele>270.72012</ele>
        <time>2022-10-04T11:55:22.000Z</time>
      </trkpt>
      <trkpt lat="45.90265" lon="4.56866">
        <ele>270.53088</ele>
        <time>2022-10-04T11:55:23.000Z</time>
      </trkpt>
      <trkpt lat="45.90263" lon="4.56865">
        <ele>270.36969</ele>
        <time>2022-10-04T11:55:24.000Z</time>
      </trkpt>
      <trkpt lat="45.9026" lon="4.56864">
        <ele>270.23798</ele>
        <time>2022-10-04T11:55:25.000Z</time>
      </trkpt>
      <trkpt lat="45.90258" lon="4.56863">
        <ele>270.01889</ele>
        <time>2022-10-04T11:55:26.000Z</time>
      </trkpt>
      <trkpt lat="45.90255" lon="4.56861">
        <ele>269.80438</ele>
        <time>2022-10-04T11:55:27.000Z</time>
      </trkpt>
      <trkpt lat="45.90252" lon="4.56859">
        <ele>269.62231</ele>
        <time>2022-10-04T11:55:28.000Z</time>
      </trkpt>
      <trkpt lat="45.9025" lon="4.56858">
        <ele>269.46597</ele>
        <time>2022-10-04T11:55:29.000Z</time>
      </trkpt>
      <trkpt lat="45.90248" lon="4.56857">
        <ele>269.26956</ele>
        <time>2022-10-04T11:55:30.000Z</time>
      </trkpt>
      <trkpt lat="45.90246" lon="4.56855">
        <ele>269.10345</ele>
        <time>2022-10-04T11:55:31.000Z</time>
      </trkpt>
      <trkpt lat="45.90243" lon="4.56853">
        <ele>268.99341</ele>
        <time>2022-10-04T11:55:32.000Z</time>
      </trkpt>
      <trkpt lat="45.90241" lon="4.56851">
        <ele>268.86478</ele>
        <time>2022-10-04T11:55:33.000Z</time>
      </trkpt>
      <trkpt lat="45.90238" lon="4.56848">
        <ele>268.80731</ele>
        <time>2022-10-04T11:55:34.000Z</time>
      </trkpt>
      <trkpt lat="45.90236" lon="4.56846">
        <ele>268.8436</ele>
        <time>2022-10-04T11:55:35.000Z</time>
      </trkpt>
      <trkpt lat="45.90234" lon="4.56844">
        <ele>268.86856</ele>
        <time>2022-10-04T11:55:36.000Z</time>
      </trkpt>
      <trkpt lat="45.90232" lon="4.56841">
        <ele>268.93384</ele>
        <time>2022-10-04T11:55:37.000Z</time>
      </trkpt>
      <trkpt lat="45.9023" lon="4.56839">
        <ele>269.03494</ele>
        <time>2022-10-04T11:55:38.000Z</time>
      </trkpt>
      <trkpt lat="45.90228" lon="4.56836">
        <ele>269.12408</ele>
        <time>2022-10-04T11:55:39.000Z</time>
      </trkpt>
      <trkpt lat="45.90225" lon="4.56833">
        <ele>269.30466</ele>
        <time>2022-10-04T11:55:40.000Z</time>
      </trkpt>
      <trkpt lat="45.90223" lon="4.5683">
        <ele>269.40521</ele>
        <time>2022-10-04T11:55:41.000Z</time>
      </trkpt>
      <trkpt lat="45.90221" lon="4.56827">
        <ele>269.42444</ele>
        <time>2022-10-04T11:55:42.000Z</time>
      </trkpt>
      <trkpt lat="45.9022" lon="4.56824">
        <ele>269.48749</ele>
        <time>2022-10-04T11:55:43.000Z</time>
      </trkpt>
      <trkpt lat="45.90218" lon="4.56822">
        <ele>269.43842</ele>
        <time>2022-10-04T11:55:44.000Z</time>
      </trkpt>
      <trkpt lat="45.90216" lon="4.56818">
        <ele>269.37527</ele>
        <time>2022-10-04T11:55:45.000Z</time>
      </trkpt>
      <trkpt lat="45.90215" lon="4.56815">
        <ele>269.48245</ele>
        <time>2022-10-04T11:55:46.000Z</time>
      </trkpt>
      <trkpt lat="45.90213" lon="4.56812">
        <ele>269.49826</ele>
        <time>2022-10-04T11:55:47.000Z</time>
      </trkpt>
      <trkpt lat="45.90211" lon="4.56808">
        <ele>269.50113</ele>
        <time>2022-10-04T11:55:48.000Z</time>
      </trkpt>
      <trkpt lat="45.9021" lon="4.56805">
        <ele>269.5069</ele>
        <time>2022-10-04T11:55:49.000Z</time>
      </trkpt>
      <trkpt lat="45.90209" lon="4.56801">
        <ele>269.49667</ele>
        <time>2022-10-04T11:55:50.000Z</time>
      </trkpt>
      <trkpt lat="45.90207" lon="4.56797">
        <ele>269.46393</ele>
        <time>2022-10-04T11:55:51.000Z</time>
      </trkpt>
      <trkpt lat="45.90206" lon="4.56793">
        <ele>269.4841</ele>
        <time>2022-10-04T11:55:52.000Z</time>
      </trkpt>
      <trkpt lat="45.90204" lon="4.56789">
        <ele>269.48154</ele>
        <time>2022-10-04T11:55:53.000Z</time>
      </trkpt>
      <trkpt lat="45.90203" lon="4.56785">
        <ele>269.53198</ele>
        <time>2022-10-04T11:55:54.000Z</time>
      </trkpt>
      <trkpt lat="45.90201" lon="4.56782">
        <ele>269.63077</ele>
        <time>2022-10-04T11:55:55.000Z</time>
      </trkpt>
      <trkpt lat="45.90199" lon="4.56779">
        <ele>269.72629</ele>
        <time>2022-10-04T11:55:56.000Z</time>
      </trkpt>
      <trkpt lat="45.90198" lon="4.56776">
        <ele>269.74408</ele>
        <time>2022-10-04T11:55:57.000Z</time>
      </trkpt>
      <trkpt lat="45.90196" lon="4.56772">
        <ele>269.7457</ele>
        <time>2022-10-04T11:55:58.000Z</time>
      </trkpt>
      <trkpt lat="45.90195" lon="4.56768">
        <ele>269.81418</ele>
        <time>2022-10-04T11:55:59.000Z</time>
      </trkpt>
      <trkpt lat="45.90193" lon="4.56765">
        <ele>269.89926</ele>
        <time>2022-10-04T11:56:00.000Z</time>
      </trkpt>
      <trkpt lat="45.90191" lon="4.56761">
        <ele>269.98651</ele>
        <time>2022-10-04T11:56:01.000Z</time>
      </trkpt>
      <trkpt lat="45.90189" lon="4.56758">
        <ele>270.22556</ele>
        <time>2022-10-04T11:56:02.000Z</time>
      </trkpt>
      <trkpt lat="45.90188" lon="4.56754">
        <ele>270.50082</ele>
        <time>2022-10-04T11:56:03.000Z</time>
      </trkpt>
      <trkpt lat="45.90186" lon="4.5675">
        <ele>270.95395</ele>
        <time>2022-10-04T11:56:04.000Z</time>
      </trkpt>
      <trkpt lat="45.90184" lon="4.56747">
        <ele>271.36868</ele>
        <time>2022-10-04T11:56:05.000Z</time>
      </trkpt>
      <trkpt lat="45.90182" lon="4.56743">
        <ele>271.71942</ele>
        <time>2022-10-04T11:56:06.000Z</time>
      </trkpt>
      <trkpt lat="45.9018" lon="4.5674">
        <ele>272.12756</ele>
        <time>2022-10-04T11:56:07.000Z</time>
      </trkpt>
      <trkpt lat="45.90179" lon="4.56737">
        <ele>272.49805</ele>
        <time>2022-10-04T11:56:08.000Z</time>
      </trkpt>
      <trkpt lat="45.90177" lon="4.56733">
        <ele>272.90375</ele>
        <time>2022-10-04T11:56:09.000Z</time>
      </trkpt>
      <trkpt lat="45.90174" lon="4.5673">
        <ele>273.31216</ele>
        <time>2022-10-04T11:56:10.000Z</time>
      </trkpt>
      <trkpt lat="45.90172" lon="4.56726">
        <ele>273.68277</ele>
        <time>2022-10-04T11:56:11.000Z</time>
      </trkpt>
      <trkpt lat="45.9017" lon="4.56723">
        <ele>274.04486</ele>
        <time>2022-10-04T11:56:12.000Z</time>
      </trkpt>
      <trkpt lat="45.90168" lon="4.5672">
        <ele>274.4458</ele>
        <time>2022-10-04T11:56:13.000Z</time>
      </trkpt>
      <trkpt lat="45.90167" lon="4.56717">
        <ele>274.80927</ele>
        <time>2022-10-04T11:56:14.000Z</time>
      </trkpt>
      <trkpt lat="45.90165" lon="4.56714">
        <ele>275.12906</ele>
        <time>2022-10-04T11:56:15.000Z</time>
      </trkpt>
      <trkpt lat="45.90163" lon="4.56711">
        <ele>275.43027</ele>
        <time>2022-10-04T11:56:16.000Z</time>
      </trkpt>
      <trkpt lat="45.90161" lon="4.56708">
        <ele>275.71918</ele>
        <time>2022-10-04T11:56:17.000Z</time>
      </trkpt>
      <trkpt lat="45.90159" lon="4.56704">
        <ele>275.94427</ele>
        <time>2022-10-04T11:56:18.000Z</time>
      </trkpt>
      <trkpt lat="45.90158" lon="4.56701">
        <ele>276.10699</ele>
        <time>2022-10-04T11:56:19.000Z</time>
      </trkpt>
      <trkpt lat="45.90156" lon="4.56699">
        <ele>276.36301</ele>
        <time>2022-10-04T11:56:20.000Z</time>
      </trkpt>
      <trkpt lat="45.90155" lon="4.56696">
        <ele>276.7041</ele>
        <time>2022-10-04T11:56:21.000Z</time>
      </trkpt>
      <trkpt lat="45.90153" lon="4.56692">
        <ele>277.02536</ele>
        <time>2022-10-04T11:56:22.000Z</time>
      </trkpt>
      <trkpt lat="45.90152" lon="4.56689">
        <ele>277.33304</ele>
        <time>2022-10-04T11:56:23.000Z</time>
      </trkpt>
      <trkpt lat="45.90151" lon="4.56685">
        <ele>277.51144</ele>
        <time>2022-10-04T11:56:24.000Z</time>
      </trkpt>
      <trkpt lat="45.90149" lon="4.56682">
        <ele>277.70099</ele>
        <time>2022-10-04T11:56:25.000Z</time>
      </trkpt>
      <trkpt lat="45.90147" lon="4.56678">
        <ele>277.91156</ele>
        <time>2022-10-04T11:56:26.000Z</time>
      </trkpt>
      <trkpt lat="45.90145" lon="4.56675">
        <ele>278.11176</ele>
        <time>2022-10-04T11:56:27.000Z</time>
      </trkpt>
      <trkpt lat="45.90143" lon="4.56672">
        <ele>278.35352</ele>
        <time>2022-10-04T11:56:28.000Z</time>
      </trkpt>
      <trkpt lat="45.90141" lon="4.56669">
        <ele>278.47696</ele>
        <time>2022-10-04T11:56:29.000Z</time>
      </trkpt>
      <trkpt lat="45.9014" lon="4.56666">
        <ele>278.60681</ele>
        <time>2022-10-04T11:56:30.000Z</time>
      </trkpt>
      <trkpt lat="45.90137" lon="4.56663">
        <ele>278.78323</ele>
        <time>2022-10-04T11:56:31.000Z</time>
      </trkpt>
      <trkpt lat="45.90135" lon="4.5666">
        <ele>278.93369</ele>
        <time>2022-10-04T11:56:32.000Z</time>
      </trkpt>
      <trkpt lat="45.90133" lon="4.56656">
        <ele>279.03079</ele>
        <time>2022-10-04T11:56:33.000Z</time>
      </trkpt>
      <trkpt lat="45.9013" lon="4.56652">
        <ele>279.13519</ele>
        <time>2022-10-04T11:56:34.000Z</time>
      </trkpt>
      <trkpt lat="45.90127" lon="4.56648">
        <ele>279.25018</ele>
        <time>2022-10-04T11:56:35.000Z</time>
      </trkpt>
      <trkpt lat="45.90125" lon="4.56644">
        <ele>279.37564</ele>
        <time>2022-10-04T11:56:36.000Z</time>
      </trkpt>
      <trkpt lat="45.90122" lon="4.5664">
        <ele>279.5459</ele>
        <time>2022-10-04T11:56:37.000Z</time>
      </trkpt>
      <trkpt lat="45.9012" lon="4.56636">
        <ele>279.77817</ele>
        <time>2022-10-04T11:56:38.000Z</time>
      </trkpt>
      <trkpt lat="45.90117" lon="4.56632">
        <ele>280.0192</ele>
        <time>2022-10-04T11:56:39.000Z</time>
      </trkpt>
      <trkpt lat="45.90113" lon="4.56629">
        <ele>280.16266</ele>
        <time>2022-10-04T11:56:40.000Z</time>
      </trkpt>
      <trkpt lat="45.9011" lon="4.56626">
        <ele>280.2131</ele>
        <time>2022-10-04T11:56:41.000Z</time>
      </trkpt>
      <trkpt lat="45.90107" lon="4.56623">
        <ele>280.27118</ele>
        <time>2022-10-04T11:56:42.000Z</time>
      </trkpt>
      <trkpt lat="45.90104" lon="4.5662">
        <ele>280.32471</ele>
        <time>2022-10-04T11:56:43.000Z</time>
      </trkpt>
      <trkpt lat="45.90101" lon="4.56618">
        <ele>280.44446</ele>
        <time>2022-10-04T11:56:44.000Z</time>
      </trkpt>
      <trkpt lat="45.90098" lon="4.56615">
        <ele>280.55399</ele>
        <time>2022-10-04T11:56:45.000Z</time>
      </trkpt>
      <trkpt lat="45.90095" lon="4.56613">
        <ele>280.60504</ele>
        <time>2022-10-04T11:56:46.000Z</time>
      </trkpt>
      <trkpt lat="45.90092" lon="4.56612">
        <ele>280.61288</ele>
        <time>2022-10-04T11:56:47.000Z</time>
      </trkpt>
      <trkpt lat="45.90089" lon="4.56611">
        <ele>280.61115</ele>
        <time>2022-10-04T11:56:48.000Z</time>
      </trkpt>
      <trkpt lat="45.90086" lon="4.5661">
        <ele>280.68463</ele>
        <time>2022-10-04T11:56:49.000Z</time>
      </trkpt>
      <trkpt lat="45.90083" lon="4.56608">
        <ele>280.80585</ele>
        <time>2022-10-04T11:56:50.000Z</time>
      </trkpt>
      <trkpt lat="45.90079" lon="4.56607">
        <ele>280.87152</ele>
        <time>2022-10-04T11:56:51.000Z</time>
      </trkpt>
      <trkpt lat="45.90076" lon="4.56606">
        <ele>280.96484</ele>
        <time>2022-10-04T11:56:52.000Z</time>
      </trkpt>
      <trkpt lat="45.90072" lon="4.56605">
        <ele>281.10257</ele>
        <time>2022-10-04T11:56:53.000Z</time>
      </trkpt>
      <trkpt lat="45.90069" lon="4.56604">
        <ele>281.25171</ele>
        <time>2022-10-04T11:56:54.000Z</time>
      </trkpt>
      <trkpt lat="45.90066" lon="4.56604">
        <ele>281.36151</ele>
        <time>2022-10-04T11:56:55.000Z</time>
      </trkpt>
      <trkpt lat="45.90063" lon="4.56603">
        <ele>281.43033</ele>
        <time>2022-10-04T11:56:56.000Z</time>
      </trkpt>
      <trkpt lat="45.90059" lon="4.56602">
        <ele>281.50253</ele>
        <time>2022-10-04T11:56:57.000Z</time>
      </trkpt>
      <trkpt lat="45.90056" lon="4.56602">
        <ele>281.59238</ele>
        <time>2022-10-04T11:56:58.000Z</time>
      </trkpt>
      <trkpt lat="45.90052" lon="4.56601">
        <ele>281.71506</ele>
        <time>2022-10-04T11:56:59.000Z</time>
      </trkpt>
      <trkpt lat="45.90049" lon="4.566">
        <ele>281.85077</ele>
        <time>2022-10-04T11:57:00.000Z</time>
      </trkpt>
      <trkpt lat="45.90046" lon="4.56599">
        <ele>282.04636</ele>
        <time>2022-10-04T11:57:01.000Z</time>
      </trkpt>
      <trkpt lat="45.90042" lon="4.56598">
        <ele>282.21234</ele>
        <time>2022-10-04T11:57:02.000Z</time>
      </trkpt>
      <trkpt lat="45.90039" lon="4.56597">
        <ele>282.36078</ele>
        <time>2022-10-04T11:57:03.000Z</time>
      </trkpt>
      <trkpt lat="45.90036" lon="4.56596">
        <ele>282.49036</ele>
        <time>2022-10-04T11:57:04.000Z</time>
      </trkpt>
      <trkpt lat="45.90032" lon="4.56595">
        <ele>282.62738</ele>
        <time>2022-10-04T11:57:05.000Z</time>
      </trkpt>
      <trkpt lat="45.90028" lon="4.56594">
        <ele>282.82629</ele>
        <time>2022-10-04T11:57:06.000Z</time>
      </trkpt>
      <trkpt lat="45.90024" lon="4.56593">
        <ele>283.06589</ele>
        <time>2022-10-04T11:57:07.000Z</time>
      </trkpt>
      <trkpt lat="45.9002" lon="4.56591">
        <ele>283.29816</ele>
        <time>2022-10-04T11:57:08.000Z</time>
      </trkpt>
      <trkpt lat="45.90016" lon="4.5659">
        <ele>283.54794</ele>
        <time>2022-10-04T11:57:09.000Z</time>
      </trkpt>
      <trkpt lat="45.90013" lon="4.5659">
        <ele>283.69073</ele>
        <time>2022-10-04T11:57:10.000Z</time>
      </trkpt>
      <trkpt lat="45.9001" lon="4.56589">
        <ele>283.97955</ele>
        <time>2022-10-04T11:57:11.000Z</time>
      </trkpt>
      <trkpt lat="45.90007" lon="4.5659">
        <ele>284.20328</ele>
        <time>2022-10-04T11:57:12.000Z</time>
      </trkpt>
      <trkpt lat="45.90003" lon="4.5659">
        <ele>284.44101</ele>
        <time>2022-10-04T11:57:13.000Z</time>
      </trkpt>
      <trkpt lat="45.89999" lon="4.5659">
        <ele>284.67438</ele>
        <time>2022-10-04T11:57:14.000Z</time>
      </trkpt>
      <trkpt lat="45.89996" lon="4.5659">
        <ele>284.89771</ele>
        <time>2022-10-04T11:57:15.000Z</time>
      </trkpt>
      <trkpt lat="45.89992" lon="4.5659">
        <ele>285.14316</ele>
        <time>2022-10-04T11:57:16.000Z</time>
      </trkpt>
      <trkpt lat="45.89989" lon="4.56591">
        <ele>285.36346</ele>
        <time>2022-10-04T11:57:17.000Z</time>
      </trkpt>
      <trkpt lat="45.89985" lon="4.56593">
        <ele>285.52411</ele>
        <time>2022-10-04T11:57:18.000Z</time>
      </trkpt>
      <trkpt lat="45.89982" lon="4.56594">
        <ele>285.71442</ele>
        <time>2022-10-04T11:57:19.000Z</time>
      </trkpt>
      <trkpt lat="45.89979" lon="4.56596">
        <ele>285.89978</ele>
        <time>2022-10-04T11:57:20.000Z</time>
      </trkpt>
      <trkpt lat="45.89975" lon="4.56597">
        <ele>286.11194</ele>
        <time>2022-10-04T11:57:21.000Z</time>
      </trkpt>
      <trkpt lat="45.89972" lon="4.56599">
        <ele>286.34824</ele>
        <time>2022-10-04T11:57:22.000Z</time>
      </trkpt>
      <trkpt lat="45.89969" lon="4.56602">
        <ele>286.58179</ele>
        <time>2022-10-04T11:57:23.000Z</time>
      </trkpt>
      <trkpt lat="45.89966" lon="4.56605">
        <ele>286.88483</ele>
        <time>2022-10-04T11:57:24.000Z</time>
      </trkpt>
      <trkpt lat="45.89963" lon="4.56607">
        <ele>287.18774</ele>
        <time>2022-10-04T11:57:25.000Z</time>
      </trkpt>
      <trkpt lat="45.8996" lon="4.5661">
        <ele>287.40091</ele>
        <time>2022-10-04T11:57:26.000Z</time>
      </trkpt>
      <trkpt lat="45.89957" lon="4.56612">
        <ele>287.62582</ele>
        <time>2022-10-04T11:57:27.000Z</time>
      </trkpt>
      <trkpt lat="45.89955" lon="4.56614">
        <ele>287.89279</ele>
        <time>2022-10-04T11:57:28.000Z</time>
      </trkpt>
      <trkpt lat="45.89952" lon="4.56616">
        <ele>288.12787</ele>
        <time>2022-10-04T11:57:29.000Z</time>
      </trkpt>
      <trkpt lat="45.89949" lon="4.56618">
        <ele>288.43481</ele>
        <time>2022-10-04T11:57:30.000Z</time>
      </trkpt>
      <trkpt lat="45.89946" lon="4.56619">
        <ele>288.62451</ele>
        <time>2022-10-04T11:57:31.000Z</time>
      </trkpt>
      <trkpt lat="45.89944" lon="4.56621">
        <ele>288.78455</ele>
        <time>2022-10-04T11:57:32.000Z</time>
      </trkpt>
      <trkpt lat="45.89941" lon="4.56622">
        <ele>288.90063</ele>
        <time>2022-10-04T11:57:33.000Z</time>
      </trkpt>
      <trkpt lat="45.89938" lon="4.56624">
        <ele>288.996</ele>
        <time>2022-10-04T11:57:34.000Z</time>
      </trkpt>
      <trkpt lat="45.89935" lon="4.56625">
        <ele>289.14761</ele>
        <time>2022-10-04T11:57:35.000Z</time>
      </trkpt>
      <trkpt lat="45.89932" lon="4.56627">
        <ele>289.27325</ele>
        <time>2022-10-04T11:57:36.000Z</time>
      </trkpt>
      <trkpt lat="45.8993" lon="4.56628">
        <ele>289.41644</ele>
        <time>2022-10-04T11:57:37.000Z</time>
      </trkpt>
      <trkpt lat="45.89927" lon="4.56629">
        <ele>289.59015</ele>
        <time>2022-10-04T11:57:38.000Z</time>
      </trkpt>
      <trkpt lat="45.89925" lon="4.5663">
        <ele>289.71344</ele>
        <time>2022-10-04T11:57:39.000Z</time>
      </trkpt>
      <trkpt lat="45.89923" lon="4.5663">
        <ele>289.84625</ele>
        <time>2022-10-04T11:57:40.000Z</time>
      </trkpt>
      <trkpt lat="45.89921" lon="4.56631">
        <ele>289.91522</ele>
        <time>2022-10-04T11:57:41.000Z</time>
      </trkpt>
      <trkpt lat="45.8992" lon="4.56631">
        <ele>289.97531</ele>
        <time>2022-10-04T11:57:42.000Z</time>
      </trkpt>
      <trkpt lat="45.89917" lon="4.56632">
        <ele>289.97028</ele>
        <time>2022-10-04T11:57:44.000Z</time>
      </trkpt>
      <trkpt lat="45.89914" lon="4.5663">
        <ele>289.95273</ele>
        <time>2022-10-04T11:57:46.000Z</time>
      </trkpt>
      <trkpt lat="45.89911" lon="4.56628">
        <ele>289.89667</ele>
        <time>2022-10-04T11:57:48.000Z</time>
      </trkpt>
      <trkpt lat="45.89908" lon="4.56629">
        <ele>289.86774</ele>
        <time>2022-10-04T11:57:51.000Z</time>
      </trkpt>
      <trkpt lat="45.89907" lon="4.56632">
        <ele>289.86002</ele>
        <time>2022-10-04T11:57:53.000Z</time>
      </trkpt>
      <trkpt lat="45.89906" lon="4.56634">
        <ele>289.83972</ele>
        <time>2022-10-04T11:57:55.000Z</time>
      </trkpt>
      <trkpt lat="45.89906" lon="4.56631">
        <ele>289.90378</ele>
        <time>2022-10-04T11:58:00.000Z</time>
      </trkpt>
      <trkpt lat="45.89906" lon="4.56628">
        <ele>289.88065</ele>
        <time>2022-10-04T11:58:08.000Z</time>
      </trkpt>
      <trkpt lat="45.89908" lon="4.56628">
        <ele>289.76068</ele>
        <time>2022-10-04T11:58:54.000Z</time>
      </trkpt>
      <trkpt lat="45.89907" lon="4.56629">
        <ele>289.8056</ele>
        <time>2022-10-04T12:00:23.000Z</time>
      </trkpt>
      <trkpt lat="45.89905" lon="4.56628">
        <ele>289.69791</ele>
        <time>2022-10-04T12:00:28.000Z</time>
      </trkpt>
      <trkpt lat="45.89905" lon="4.5663">
        <ele>289.77405</ele>
        <time>2022-10-04T12:01:34.000Z</time>
      </trkpt>
      <trkpt lat="45.89904" lon="4.56633">
        <ele>289.94345</ele>
        <time>2022-10-04T12:01:39.000Z</time>
      </trkpt>
      <trkpt lat="45.89902" lon="4.56632">
        <ele>290.1806</ele>
        <time>2022-10-04T12:02:51.000Z</time>
      </trkpt>
      <trkpt lat="45.89903" lon="4.56629">
        <ele>290.34689</ele>
        <time>2022-10-04T12:02:58.000Z</time>
      </trkpt>
      <trkpt lat="45.89909" lon="4.56634">
        <ele>290.92084</ele>
        <time>2022-10-04T12:06:05.000Z</time>
      </trkpt>
      <trkpt lat="45.89911" lon="4.56636">
        <ele>291.47565</ele>
        <time>2022-10-04T12:06:08.000Z</time>
      </trkpt>
      <trkpt lat="45.89909" lon="4.56636">
        <ele>291.95734</ele>
        <time>2022-10-04T12:06:14.000Z</time>
      </trkpt>
      <trkpt lat="45.89911" lon="4.56636">
        <ele>292.5336</ele>
        <time>2022-10-04T12:06:28.000Z</time>
      </trkpt>
      <trkpt lat="45.89909" lon="4.56635">
        <ele>293.06659</ele>
        <time>2022-10-04T12:10:06.000Z</time>
      </trkpt>
      <trkpt lat="45.89909" lon="4.56632">
        <ele>293.38458</ele>
        <time>2022-10-04T12:10:29.000Z</time>
      </trkpt>
      <trkpt lat="45.89907" lon="4.56631">
        <ele>293.56281</ele>
        <time>2022-10-04T12:12:00.000Z</time>
      </trkpt>
      <trkpt lat="45.89906" lon="4.56633">
        <ele>293.87708</ele>
        <time>2022-10-04T12:14:40.000Z</time>
      </trkpt>
      <trkpt lat="45.89903" lon="4.56631">
        <ele>294.21198</ele>
        <time>2022-10-04T12:17:42.000Z</time>
      </trkpt>
      <trkpt lat="45.899" lon="4.56631">
        <ele>294.57489</ele>
        <time>2022-10-04T12:22:29.000Z</time>
      </trkpt>
      <trkpt lat="45.89897" lon="4.56633">
        <ele>294.91891</ele>
        <time>2022-10-04T12:22:30.000Z</time>
      </trkpt>
      <trkpt lat="45.89894" lon="4.56634">
        <ele>295.12735</ele>
        <time>2022-10-04T12:22:31.000Z</time>
      </trkpt>
      <trkpt lat="45.89891" lon="4.56634">
        <ele>295.39688</ele>
        <time>2022-10-04T12:22:32.000Z</time>
      </trkpt>
      <trkpt lat="45.89888" lon="4.56635">
        <ele>295.71988</ele>
        <time>2022-10-04T12:22:33.000Z</time>
      </trkpt>
      <trkpt lat="45.89885" lon="4.56636">
        <ele>295.90228</ele>
        <time>2022-10-04T12:22:34.000Z</time>
      </trkpt>
      <trkpt lat="45.89881" lon="4.56636">
        <ele>296.18936</ele>
        <time>2022-10-04T12:22:35.000Z</time>
      </trkpt>
      <trkpt lat="45.89878" lon="4.56637">
        <ele>296.25616</ele>
        <time>2022-10-04T12:22:36.000Z</time>
      </trkpt>
      <trkpt lat="45.89875" lon="4.56638">
        <ele>296.26138</ele>
        <time>2022-10-04T12:22:37.000Z</time>
      </trkpt>
      <trkpt lat="45.89872" lon="4.56639">
        <ele>296.23749</ele>
        <time>2022-10-04T12:22:38.000Z</time>
      </trkpt>
      <trkpt lat="45.89868" lon="4.56639">
        <ele>296.2991</ele>
        <time>2022-10-04T12:22:39.000Z</time>
      </trkpt>
      <trkpt lat="45.89864" lon="4.56639">
        <ele>295.99854</ele>
        <time>2022-10-04T12:22:40.000Z</time>
      </trkpt>
      <trkpt lat="45.8986" lon="4.5664">
        <ele>295.68561</ele>
        <time>2022-10-04T12:22:41.000Z</time>
      </trkpt>
      <trkpt lat="45.89856" lon="4.5664">
        <ele>295.48599</ele>
        <time>2022-10-04T12:22:42.000Z</time>
      </trkpt>
      <trkpt lat="45.89851" lon="4.5664">
        <ele>295.21786</ele>
        <time>2022-10-04T12:22:43.000Z</time>
      </trkpt>
      <trkpt lat="45.89847" lon="4.56641">
        <ele>294.99603</ele>
        <time>2022-10-04T12:22:44.000Z</time>
      </trkpt>
      <trkpt lat="45.89843" lon="4.56642">
        <ele>295.13602</ele>
        <time>2022-10-04T12:22:45.000Z</time>
      </trkpt>
      <trkpt lat="45.89839" lon="4.56642">
        <ele>295.28375</ele>
        <time>2022-10-04T12:22:46.000Z</time>
      </trkpt>
      <trkpt lat="45.89835" lon="4.56643">
        <ele>295.328</ele>
        <time>2022-10-04T12:22:47.000Z</time>
      </trkpt>
      <trkpt lat="45.89831" lon="4.56643">
        <ele>295.37692</ele>
        <time>2022-10-04T12:22:48.000Z</time>
      </trkpt>
      <trkpt lat="45.89827" lon="4.56644">
        <ele>295.33368</ele>
        <time>2022-10-04T12:22:49.000Z</time>
      </trkpt>
      <trkpt lat="45.89823" lon="4.56644">
        <ele>295.23587</ele>
        <time>2022-10-04T12:22:50.000Z</time>
      </trkpt>
      <trkpt lat="45.89819" lon="4.56644">
        <ele>295.19229</ele>
        <time>2022-10-04T12:22:51.000Z</time>
      </trkpt>
      <trkpt lat="45.89815" lon="4.56645">
        <ele>295.18878</ele>
        <time>2022-10-04T12:22:52.000Z</time>
      </trkpt>
      <trkpt lat="45.89811" lon="4.56644">
        <ele>295.13184</ele>
        <time>2022-10-04T12:22:53.000Z</time>
      </trkpt>
      <trkpt lat="45.89808" lon="4.56646">
        <ele>295.13123</ele>
        <time>2022-10-04T12:22:54.000Z</time>
      </trkpt>
      <trkpt lat="45.89804" lon="4.56647">
        <ele>295.14185</ele>
        <time>2022-10-04T12:22:55.000Z</time>
      </trkpt>
      <trkpt lat="45.89799" lon="4.56648">
        <ele>295.23218</ele>
        <time>2022-10-04T12:22:56.000Z</time>
      </trkpt>
      <trkpt lat="45.89795" lon="4.56649">
        <ele>295.19989</ele>
        <time>2022-10-04T12:22:57.000Z</time>
      </trkpt>
      <trkpt lat="45.8979" lon="4.56649">
        <ele>295.14264</ele>
        <time>2022-10-04T12:22:58.000Z</time>
      </trkpt>
      <trkpt lat="45.89786" lon="4.56649">
        <ele>295.08105</ele>
        <time>2022-10-04T12:22:59.000Z</time>
      </trkpt>
      <trkpt lat="45.89781" lon="4.5665">
        <ele>294.97275</ele>
        <time>2022-10-04T12:23:00.000Z</time>
      </trkpt>
      <trkpt lat="45.89778" lon="4.56649">
        <ele>294.88373</ele>
        <time>2022-10-04T12:23:01.000Z</time>
      </trkpt>
      <trkpt lat="45.89774" lon="4.5665">
        <ele>294.74274</ele>
        <time>2022-10-04T12:23:02.000Z</time>
      </trkpt>
      <trkpt lat="45.8977" lon="4.56651">
        <ele>294.59052</ele>
        <time>2022-10-04T12:23:03.000Z</time>
      </trkpt>
      <trkpt lat="45.89765" lon="4.56651">
        <ele>294.43759</ele>
        <time>2022-10-04T12:23:04.000Z</time>
      </trkpt>
      <trkpt lat="45.89761" lon="4.56651">
        <ele>294.16724</ele>
        <time>2022-10-04T12:23:05.000Z</time>
      </trkpt>
      <trkpt lat="45.89757" lon="4.56651">
        <ele>293.98236</ele>
        <time>2022-10-04T12:23:06.000Z</time>
      </trkpt>
      <trkpt lat="45.89753" lon="4.56651">
        <ele>293.8309</ele>
        <time>2022-10-04T12:23:07.000Z</time>
      </trkpt>
      <trkpt lat="45.89749" lon="4.56651">
        <ele>293.69388</ele>
        <time>2022-10-04T12:23:08.000Z</time>
      </trkpt>
      <trkpt lat="45.89745" lon="4.5665">
        <ele>293.58047</ele>
        <time>2022-10-04T12:23:09.000Z</time>
      </trkpt>
      <trkpt lat="45.89741" lon="4.56649">
        <ele>293.55197</ele>
        <time>2022-10-04T12:23:10.000Z</time>
      </trkpt>
      <trkpt lat="45.89737" lon="4.56648">
        <ele>293.53726</ele>
        <time>2022-10-04T12:23:11.000Z</time>
      </trkpt>
      <trkpt lat="45.89733" lon="4.56647">
        <ele>293.51953</ele>
        <time>2022-10-04T12:23:12.000Z</time>
      </trkpt>
      <trkpt lat="45.89729" lon="4.56645">
        <ele>293.59958</ele>
        <time>2022-10-04T12:23:13.000Z</time>
      </trkpt>
      <trkpt lat="45.89725" lon="4.56642">
        <ele>293.69464</ele>
        <time>2022-10-04T12:23:14.000Z</time>
      </trkpt>
      <trkpt lat="45.89721" lon="4.5664">
        <ele>293.86063</ele>
        <time>2022-10-04T12:23:15.000Z</time>
      </trkpt>
      <trkpt lat="45.89717" lon="4.56637">
        <ele>293.96173</ele>
        <time>2022-10-04T12:23:16.000Z</time>
      </trkpt>
      <trkpt lat="45.89714" lon="4.56633">
        <ele>294.12976</ele>
        <time>2022-10-04T12:23:17.000Z</time>
      </trkpt>
      <trkpt lat="45.89711" lon="4.5663">
        <ele>294.37015</ele>
        <time>2022-10-04T12:23:18.000Z</time>
      </trkpt>
      <trkpt lat="45.89707" lon="4.56626">
        <ele>294.59229</ele>
        <time>2022-10-04T12:23:19.000Z</time>
      </trkpt>
      <trkpt lat="45.89704" lon="4.56623">
        <ele>294.80087</ele>
        <time>2022-10-04T12:23:20.000Z</time>
      </trkpt>
      <trkpt lat="45.89701" lon="4.56619">
        <ele>295.03043</ele>
        <time>2022-10-04T12:23:21.000Z</time>
      </trkpt>
      <trkpt lat="45.89698" lon="4.56614">
        <ele>295.28522</ele>
        <time>2022-10-04T12:23:22.000Z</time>
      </trkpt>
      <trkpt lat="45.89695" lon="4.56609">
        <ele>295.60703</ele>
        <time>2022-10-04T12:23:23.000Z</time>
      </trkpt>
      <trkpt lat="45.89693" lon="4.56603">
        <ele>295.88165</ele>
        <time>2022-10-04T12:23:24.000Z</time>
      </trkpt>
      <trkpt lat="45.89691" lon="4.56598">
        <ele>296.16992</ele>
        <time>2022-10-04T12:23:25.000Z</time>
      </trkpt>
      <trkpt lat="45.89689" lon="4.56594">
        <ele>296.39423</ele>
        <time>2022-10-04T12:23:26.000Z</time>
      </trkpt>
      <trkpt lat="45.89687" lon="4.5659">
        <ele>296.6373</ele>
        <time>2022-10-04T12:23:27.000Z</time>
      </trkpt>
      <trkpt lat="45.89684" lon="4.56586">
        <ele>296.87335</ele>
        <time>2022-10-04T12:23:28.000Z</time>
      </trkpt>
      <trkpt lat="45.89682" lon="4.56583">
        <ele>297.00253</ele>
        <time>2022-10-04T12:23:29.000Z</time>
      </trkpt>
      <trkpt lat="45.8968" lon="4.56579">
        <ele>297.04031</ele>
        <time>2022-10-04T12:23:30.000Z</time>
      </trkpt>
      <trkpt lat="45.89677" lon="4.56574">
        <ele>296.91937</ele>
        <time>2022-10-04T12:23:31.000Z</time>
      </trkpt>
      <trkpt lat="45.89673" lon="4.5657">
        <ele>296.71075</ele>
        <time>2022-10-04T12:23:32.000Z</time>
      </trkpt>
      <trkpt lat="45.8967" lon="4.56566">
        <ele>296.42938</ele>
        <time>2022-10-04T12:23:33.000Z</time>
      </trkpt>
      <trkpt lat="45.89667" lon="4.56562">
        <ele>296.07025</ele>
        <time>2022-10-04T12:23:34.000Z</time>
      </trkpt>
      <trkpt lat="45.89665" lon="4.56558">
        <ele>295.65704</ele>
        <time>2022-10-04T12:23:35.000Z</time>
      </trkpt>
      <trkpt lat="45.89662" lon="4.56555">
        <ele>295.23123</ele>
        <time>2022-10-04T12:23:36.000Z</time>
      </trkpt>
      <trkpt lat="45.8966" lon="4.56552">
        <ele>294.80688</ele>
        <time>2022-10-04T12:23:37.000Z</time>
      </trkpt>
      <trkpt lat="45.89657" lon="4.5655">
        <ele>294.30429</ele>
        <time>2022-10-04T12:23:38.000Z</time>
      </trkpt>
      <trkpt lat="45.89653" lon="4.56549">
        <ele>293.75739</ele>
        <time>2022-10-04T12:23:39.000Z</time>
      </trkpt>
      <trkpt lat="45.8965" lon="4.56548">
        <ele>293.23221</ele>
        <time>2022-10-04T12:23:40.000Z</time>
      </trkpt>
      <trkpt lat="45.89647" lon="4.56549">
        <ele>292.72104</ele>
        <time>2022-10-04T12:23:41.000Z</time>
      </trkpt>
      <trkpt lat="45.89643" lon="4.5655">
        <ele>292.19696</ele>
        <time>2022-10-04T12:23:42.000Z</time>
      </trkpt>
      <trkpt lat="45.8964" lon="4.56553">
        <ele>291.66476</ele>
        <time>2022-10-04T12:23:43.000Z</time>
      </trkpt>
      <trkpt lat="45.89637" lon="4.56554">
        <ele>291.18225</ele>
        <time>2022-10-04T12:23:44.000Z</time>
      </trkpt>
      <trkpt lat="45.89635" lon="4.56556">
        <ele>290.74496</ele>
        <time>2022-10-04T12:23:45.000Z</time>
      </trkpt>
      <trkpt lat="45.89633" lon="4.56556">
        <ele>290.42297</ele>
        <time>2022-10-04T12:23:46.000Z</time>
      </trkpt>
      <trkpt lat="45.89631" lon="4.56557">
        <ele>290.04108</ele>
        <time>2022-10-04T12:23:47.000Z</time>
      </trkpt>
      <trkpt lat="45.89629" lon="4.56557">
        <ele>289.64972</ele>
        <time>2022-10-04T12:23:48.000Z</time>
      </trkpt>
      <trkpt lat="45.89626" lon="4.56557">
        <ele>289.35526</ele>
        <time>2022-10-04T12:23:49.000Z</time>
      </trkpt>
      <trkpt lat="45.89624" lon="4.56557">
        <ele>289.0412</ele>
        <time>2022-10-04T12:23:50.000Z</time>
      </trkpt>
      <trkpt lat="45.89621" lon="4.56557">
        <ele>288.89481</ele>
        <time>2022-10-04T12:23:51.000Z</time>
      </trkpt>
      <trkpt lat="45.89619" lon="4.56558">
        <ele>288.82709</ele>
        <time>2022-10-04T12:23:52.000Z</time>
      </trkpt>
      <trkpt lat="45.89616" lon="4.56558">
        <ele>288.79785</ele>
        <time>2022-10-04T12:23:53.000Z</time>
      </trkpt>
      <trkpt lat="45.89613" lon="4.56559">
        <ele>288.80695</ele>
        <time>2022-10-04T12:23:54.000Z</time>
      </trkpt>
      <trkpt lat="45.8961" lon="4.56559">
        <ele>288.8063</ele>
        <time>2022-10-04T12:23:55.000Z</time>
      </trkpt>
      <trkpt lat="45.89607" lon="4.5656">
        <ele>288.91489</ele>
        <time>2022-10-04T12:23:56.000Z</time>
      </trkpt>
      <trkpt lat="45.89604" lon="4.56561">
        <ele>289.01608</ele>
        <time>2022-10-04T12:23:57.000Z</time>
      </trkpt>
      <trkpt lat="45.896" lon="4.56561">
        <ele>289.12485</ele>
        <time>2022-10-04T12:23:58.000Z</time>
      </trkpt>
      <trkpt lat="45.89597" lon="4.56562">
        <ele>289.34088</ele>
        <time>2022-10-04T12:23:59.000Z</time>
      </trkpt>
      <trkpt lat="45.89594" lon="4.56562">
        <ele>289.59863</ele>
        <time>2022-10-04T12:24:00.000Z</time>
      </trkpt>
      <trkpt lat="45.8959" lon="4.56564">
        <ele>289.84772</ele>
        <time>2022-10-04T12:24:01.000Z</time>
      </trkpt>
      <trkpt lat="45.89587" lon="4.56565">
        <ele>290.21503</ele>
        <time>2022-10-04T12:24:02.000Z</time>
      </trkpt>
      <trkpt lat="45.89585" lon="4.56566">
        <ele>290.52283</ele>
        <time>2022-10-04T12:24:03.000Z</time>
      </trkpt>
      <trkpt lat="45.89582" lon="4.56566">
        <ele>290.77853</ele>
        <time>2022-10-04T12:24:04.000Z</time>
      </trkpt>
      <trkpt lat="45.89579" lon="4.56567">
        <ele>291.01068</ele>
        <time>2022-10-04T12:24:05.000Z</time>
      </trkpt>
      <trkpt lat="45.89576" lon="4.56568">
        <ele>291.25995</ele>
        <time>2022-10-04T12:24:06.000Z</time>
      </trkpt>
      <trkpt lat="45.89573" lon="4.56569">
        <ele>291.40561</ele>
        <time>2022-10-04T12:24:07.000Z</time>
      </trkpt>
      <trkpt lat="45.8957" lon="4.5657">
        <ele>291.55209</ele>
        <time>2022-10-04T12:24:08.000Z</time>
      </trkpt>
      <trkpt lat="45.89566" lon="4.56571">
        <ele>291.61456</ele>
        <time>2022-10-04T12:24:09.000Z</time>
      </trkpt>
      <trkpt lat="45.89562" lon="4.56572">
        <ele>291.67108</ele>
        <time>2022-10-04T12:24:10.000Z</time>
      </trkpt>
      <trkpt lat="45.89558" lon="4.56572">
        <ele>291.75909</ele>
        <time>2022-10-04T12:24:11.000Z</time>
      </trkpt>
      <trkpt lat="45.89554" lon="4.56573">
        <ele>291.8483</ele>
        <time>2022-10-04T12:24:12.000Z</time>
      </trkpt>
      <trkpt lat="45.8955" lon="4.56574">
        <ele>291.94849</ele>
        <time>2022-10-04T12:24:13.000Z</time>
      </trkpt>
      <trkpt lat="45.89546" lon="4.56575">
        <ele>291.97055</ele>
        <time>2022-10-04T12:24:14.000Z</time>
      </trkpt>
      <trkpt lat="45.89542" lon="4.56576">
        <ele>291.97067</ele>
        <time>2022-10-04T12:24:15.000Z</time>
      </trkpt>
      <trkpt lat="45.89537" lon="4.56576">
        <ele>291.91403</ele>
        <time>2022-10-04T12:24:16.000Z</time>
      </trkpt>
      <trkpt lat="45.89533" lon="4.56577">
        <ele>291.84912</ele>
        <time>2022-10-04T12:24:17.000Z</time>
      </trkpt>
      <trkpt lat="45.89529" lon="4.56578">
        <ele>291.79572</ele>
        <time>2022-10-04T12:24:18.000Z</time>
      </trkpt>
      <trkpt lat="45.89524" lon="4.56579">
        <ele>291.6965</ele>
        <time>2022-10-04T12:24:19.000Z</time>
      </trkpt>
      <trkpt lat="45.89519" lon="4.56579">
        <ele>291.53961</ele>
        <time>2022-10-04T12:24:20.000Z</time>
      </trkpt>
      <trkpt lat="45.89514" lon="4.5658">
        <ele>291.48715</ele>
        <time>2022-10-04T12:24:21.000Z</time>
      </trkpt>
      <trkpt lat="45.89507" lon="4.56582">
        <ele>291.32327</ele>
        <time>2022-10-04T12:24:22.000Z</time>
      </trkpt>
      <trkpt lat="45.89502" lon="4.56581">
        <ele>291.16766</ele>
        <time>2022-10-04T12:24:23.000Z</time>
      </trkpt>
      <trkpt lat="45.89496" lon="4.56582">
        <ele>290.99402</ele>
        <time>2022-10-04T12:24:24.000Z</time>
      </trkpt>
      <trkpt lat="45.89491" lon="4.56582">
        <ele>290.83545</ele>
        <time>2022-10-04T12:24:25.000Z</time>
      </trkpt>
      <trkpt lat="45.89487" lon="4.56583">
        <ele>290.66745</ele>
        <time>2022-10-04T12:24:26.000Z</time>
      </trkpt>
      <trkpt lat="45.89482" lon="4.56583">
        <ele>290.58917</ele>
        <time>2022-10-04T12:24:27.000Z</time>
      </trkpt>
      <trkpt lat="45.89476" lon="4.56583">
        <ele>290.52667</ele>
        <time>2022-10-04T12:24:28.000Z</time>
      </trkpt>
      <trkpt lat="45.89471" lon="4.56582">
        <ele>290.54309</ele>
        <time>2022-10-04T12:24:29.000Z</time>
      </trkpt>
      <trkpt lat="45.89465" lon="4.56583">
        <ele>290.65964</ele>
        <time>2022-10-04T12:24:30.000Z</time>
      </trkpt>
      <trkpt lat="45.8946" lon="4.56584">
        <ele>290.70111</ele>
        <time>2022-10-04T12:24:31.000Z</time>
      </trkpt>
      <trkpt lat="45.89454" lon="4.56584">
        <ele>290.75345</ele>
        <time>2022-10-04T12:24:32.000Z</time>
      </trkpt>
      <trkpt lat="45.89448" lon="4.56584">
        <ele>290.75464</ele>
        <time>2022-10-04T12:24:33.000Z</time>
      </trkpt>
      <trkpt lat="45.89443" lon="4.56584">
        <ele>290.7962</ele>
        <time>2022-10-04T12:24:34.000Z</time>
      </trkpt>
      <trkpt lat="45.89437" lon="4.56585">
        <ele>290.88632</ele>
        <time>2022-10-04T12:24:35.000Z</time>
      </trkpt>
      <trkpt lat="45.89431" lon="4.56587">
        <ele>290.96158</ele>
        <time>2022-10-04T12:24:36.000Z</time>
      </trkpt>
      <trkpt lat="45.89425" lon="4.56589">
        <ele>290.9975</ele>
        <time>2022-10-04T12:24:37.000Z</time>
      </trkpt>
      <trkpt lat="45.89418" lon="4.56591">
        <ele>290.97467</ele>
        <time>2022-10-04T12:24:38.000Z</time>
      </trkpt>
      <trkpt lat="45.89413" lon="4.56593">
        <ele>290.8638</ele>
        <time>2022-10-04T12:24:39.000Z</time>
      </trkpt>
      <trkpt lat="45.89406" lon="4.56594">
        <ele>290.72968</ele>
        <time>2022-10-04T12:24:40.000Z</time>
      </trkpt>
      <trkpt lat="45.89399" lon="4.56599">
        <ele>290.38736</ele>
        <time>2022-10-04T12:24:41.000Z</time>
      </trkpt>
      <trkpt lat="45.89392" lon="4.56603">
        <ele>290.04437</ele>
        <time>2022-10-04T12:24:42.000Z</time>
      </trkpt>
      <trkpt lat="45.89384" lon="4.56606">
        <ele>289.69089</ele>
        <time>2022-10-04T12:24:43.000Z</time>
      </trkpt>
      <trkpt lat="45.89376" lon="4.5661">
        <ele>289.40533</ele>
        <time>2022-10-04T12:24:44.000Z</time>
      </trkpt>
      <trkpt lat="45.89368" lon="4.56614">
        <ele>289.15656</ele>
        <time>2022-10-04T12:24:45.000Z</time>
      </trkpt>
      <trkpt lat="45.89361" lon="4.5662">
        <ele>288.87515</ele>
        <time>2022-10-04T12:24:46.000Z</time>
      </trkpt>
      <trkpt lat="45.89354" lon="4.56628">
        <ele>288.65271</ele>
        <time>2022-10-04T12:24:47.000Z</time>
      </trkpt>
      <trkpt lat="45.89346" lon="4.56634">
        <ele>288.46466</ele>
        <time>2022-10-04T12:24:48.000Z</time>
      </trkpt>
      <trkpt lat="45.8934" lon="4.56643">
        <ele>288.25668</ele>
        <time>2022-10-04T12:24:49.000Z</time>
      </trkpt>
      <trkpt lat="45.89333" lon="4.5665">
        <ele>288.06342</ele>
        <time>2022-10-04T12:24:50.000Z</time>
      </trkpt>
      <trkpt lat="45.89324" lon="4.56656">
        <ele>287.88965</ele>
        <time>2022-10-04T12:24:51.000Z</time>
      </trkpt>
      <trkpt lat="45.89315" lon="4.56659">
        <ele>287.64798</ele>
        <time>2022-10-04T12:24:52.000Z</time>
      </trkpt>
      <trkpt lat="45.89306" lon="4.56661">
        <ele>287.50433</ele>
        <time>2022-10-04T12:24:53.000Z</time>
      </trkpt>
      <trkpt lat="45.89297" lon="4.56664">
        <ele>287.24353</ele>
        <time>2022-10-04T12:24:54.000Z</time>
      </trkpt>
      <trkpt lat="45.89288" lon="4.56661">
        <ele>286.97165</ele>
        <time>2022-10-04T12:24:55.000Z</time>
      </trkpt>
      <trkpt lat="45.89279" lon="4.56659">
        <ele>286.59335</ele>
        <time>2022-10-04T12:24:56.000Z</time>
      </trkpt>
      <trkpt lat="45.89268" lon="4.56659">
        <ele>286.20291</ele>
        <time>2022-10-04T12:24:57.000Z</time>
      </trkpt>
      <trkpt lat="45.89258" lon="4.56657">
        <ele>285.76941</ele>
        <time>2022-10-04T12:24:58.000Z</time>
      </trkpt>
      <trkpt lat="45.89248" lon="4.56657">
        <ele>285.39227</ele>
        <time>2022-10-04T12:24:59.000Z</time>
      </trkpt>
      <trkpt lat="45.89238" lon="4.56655">
        <ele>285.04169</ele>
        <time>2022-10-04T12:25:00.000Z</time>
      </trkpt>
      <trkpt lat="45.89229" lon="4.5665">
        <ele>284.79059</ele>
        <time>2022-10-04T12:25:01.000Z</time>
      </trkpt>
      <trkpt lat="45.8922" lon="4.56649">
        <ele>284.5195</ele>
        <time>2022-10-04T12:25:02.000Z</time>
      </trkpt>
      <trkpt lat="45.89211" lon="4.56647">
        <ele>284.19577</ele>
        <time>2022-10-04T12:25:03.000Z</time>
      </trkpt>
      <trkpt lat="45.89203" lon="4.56647">
        <ele>283.86365</ele>
        <time>2022-10-04T12:25:04.000Z</time>
      </trkpt>
      <trkpt lat="45.89193" lon="4.56646">
        <ele>283.526</ele>
        <time>2022-10-04T12:25:05.000Z</time>
      </trkpt>
      <trkpt lat="45.89185" lon="4.56644">
        <ele>283.12811</ele>
        <time>2022-10-04T12:25:06.000Z</time>
      </trkpt>
      <trkpt lat="45.89176" lon="4.56645">
        <ele>282.76556</ele>
        <time>2022-10-04T12:25:07.000Z</time>
      </trkpt>
      <trkpt lat="45.89167" lon="4.56646">
        <ele>282.44293</ele>
        <time>2022-10-04T12:25:08.000Z</time>
      </trkpt>
      <trkpt lat="45.8916" lon="4.56645">
        <ele>282.1618</ele>
        <time>2022-10-04T12:25:09.000Z</time>
      </trkpt>
      <trkpt lat="45.89152" lon="4.56645">
        <ele>281.80093</ele>
        <time>2022-10-04T12:25:10.000Z</time>
      </trkpt>
      <trkpt lat="45.89144" lon="4.56644">
        <ele>281.44296</ele>
        <time>2022-10-04T12:25:11.000Z</time>
      </trkpt>
      <trkpt lat="45.89135" lon="4.56644">
        <ele>281.08203</ele>
        <time>2022-10-04T12:25:12.000Z</time>
      </trkpt>
      <trkpt lat="45.89128" lon="4.56644">
        <ele>280.67325</ele>
        <time>2022-10-04T12:25:13.000Z</time>
      </trkpt>
      <trkpt lat="45.89122" lon="4.56642">
        <ele>280.44827</ele>
        <time>2022-10-04T12:25:14.000Z</time>
      </trkpt>
      <trkpt lat="45.89117" lon="4.56639">
        <ele>280.25659</ele>
        <time>2022-10-04T12:25:15.000Z</time>
      </trkpt>
      <trkpt lat="45.89112" lon="4.56633">
        <ele>280.11658</ele>
        <time>2022-10-04T12:25:16.000Z</time>
      </trkpt>
      <trkpt lat="45.89109" lon="4.56626">
        <ele>280.07193</ele>
        <time>2022-10-04T12:25:17.000Z</time>
      </trkpt>
      <trkpt lat="45.89105" lon="4.56618">
        <ele>280.18237</ele>
        <time>2022-10-04T12:25:18.000Z</time>
      </trkpt>
      <trkpt lat="45.89102" lon="4.56611">
        <ele>280.22891</ele>
        <time>2022-10-04T12:25:19.000Z</time>
      </trkpt>
      <trkpt lat="45.89101" lon="4.56603">
        <ele>280.37457</ele>
        <time>2022-10-04T12:25:20.000Z</time>
      </trkpt>
      <trkpt lat="45.891" lon="4.56595">
        <ele>280.61295</ele>
        <time>2022-10-04T12:25:21.000Z</time>
      </trkpt>
      <trkpt lat="45.89098" lon="4.56587">
        <ele>280.87192</ele>
        <time>2022-10-04T12:25:22.000Z</time>
      </trkpt>
      <trkpt lat="45.89096" lon="4.5658">
        <ele>281.18585</ele>
        <time>2022-10-04T12:25:23.000Z</time>
      </trkpt>
      <trkpt lat="45.89095" lon="4.56571">
        <ele>281.50644</ele>
        <time>2022-10-04T12:25:24.000Z</time>
      </trkpt>
      <trkpt lat="45.89094" lon="4.56566">
        <ele>281.84927</ele>
        <time>2022-10-04T12:25:25.000Z</time>
      </trkpt>
      <trkpt lat="45.89093" lon="4.5656">
        <ele>282.22366</ele>
        <time>2022-10-04T12:25:26.000Z</time>
      </trkpt>
      <trkpt lat="45.89091" lon="4.56554">
        <ele>282.53015</ele>
        <time>2022-10-04T12:25:27.000Z</time>
      </trkpt>
      <trkpt lat="45.89088" lon="4.56549">
        <ele>282.83105</ele>
        <time>2022-10-04T12:25:28.000Z</time>
      </trkpt>
      <trkpt lat="45.89085" lon="4.56544">
        <ele>283.1293</ele>
        <time>2022-10-04T12:25:29.000Z</time>
      </trkpt>
      <trkpt lat="45.89082" lon="4.56538">
        <ele>283.40182</ele>
        <time>2022-10-04T12:25:30.000Z</time>
      </trkpt>
      <trkpt lat="45.89079" lon="4.56533">
        <ele>283.72552</ele>
        <time>2022-10-04T12:25:31.000Z</time>
      </trkpt>
      <trkpt lat="45.89077" lon="4.56529">
        <ele>284.04468</ele>
        <time>2022-10-04T12:25:32.000Z</time>
      </trkpt>
      <trkpt lat="45.89073" lon="4.56524">
        <ele>284.42084</ele>
        <time>2022-10-04T12:25:33.000Z</time>
      </trkpt>
      <trkpt lat="45.89069" lon="4.5652">
        <ele>284.77054</ele>
        <time>2022-10-04T12:25:34.000Z</time>
      </trkpt>
      <trkpt lat="45.89065" lon="4.56515">
        <ele>285.12805</ele>
        <time>2022-10-04T12:25:35.000Z</time>
      </trkpt>
      <trkpt lat="45.8906" lon="4.5651">
        <ele>285.45779</ele>
        <time>2022-10-04T12:25:36.000Z</time>
      </trkpt>
      <trkpt lat="45.89056" lon="4.56508">
        <ele>285.77936</ele>
        <time>2022-10-04T12:25:37.000Z</time>
      </trkpt>
      <trkpt lat="45.89052" lon="4.56504">
        <ele>286.04291</ele>
        <time>2022-10-04T12:25:38.000Z</time>
      </trkpt>
      <trkpt lat="45.89048" lon="4.565">
        <ele>286.41083</ele>
        <time>2022-10-04T12:25:39.000Z</time>
      </trkpt>
      <trkpt lat="45.89044" lon="4.56497">
        <ele>286.72842</ele>
        <time>2022-10-04T12:25:40.000Z</time>
      </trkpt>
      <trkpt lat="45.89041" lon="4.56494">
        <ele>286.94196</ele>
        <time>2022-10-04T12:25:41.000Z</time>
      </trkpt>
      <trkpt lat="45.89037" lon="4.56491">
        <ele>287.23422</ele>
        <time>2022-10-04T12:25:42.000Z</time>
      </trkpt>
      <trkpt lat="45.89034" lon="4.56487">
        <ele>287.45316</ele>
        <time>2022-10-04T12:25:43.000Z</time>
      </trkpt>
      <trkpt lat="45.89031" lon="4.56483">
        <ele>287.7193</ele>
        <time>2022-10-04T12:25:44.000Z</time>
      </trkpt>
      <trkpt lat="45.89028" lon="4.56478">
        <ele>287.94812</ele>
        <time>2022-10-04T12:25:45.000Z</time>
      </trkpt>
      <trkpt lat="45.89025" lon="4.56472">
        <ele>288.14069</ele>
        <time>2022-10-04T12:25:46.000Z</time>
      </trkpt>
      <trkpt lat="45.89021" lon="4.56469">
        <ele>288.35294</ele>
        <time>2022-10-04T12:25:47.000Z</time>
      </trkpt>
      <trkpt lat="45.89019" lon="4.56465">
        <ele>288.5574</ele>
        <time>2022-10-04T12:25:48.000Z</time>
      </trkpt>
      <trkpt lat="45.89015" lon="4.56462">
        <ele>288.77142</ele>
        <time>2022-10-04T12:25:49.000Z</time>
      </trkpt>
      <trkpt lat="45.89014" lon="4.56458">
        <ele>289.0134</ele>
        <time>2022-10-04T12:25:50.000Z</time>
      </trkpt>
      <trkpt lat="45.89011" lon="4.56452">
        <ele>289.2038</ele>
        <time>2022-10-04T12:25:51.000Z</time>
      </trkpt>
      <trkpt lat="45.89008" lon="4.56451">
        <ele>289.49542</ele>
        <time>2022-10-04T12:25:52.000Z</time>
      </trkpt>
      <trkpt lat="45.89005" lon="4.56447">
        <ele>289.71649</ele>
        <time>2022-10-04T12:25:53.000Z</time>
      </trkpt>
      <trkpt lat="45.89003" lon="4.56447">
        <ele>290.00507</ele>
        <time>2022-10-04T12:25:54.000Z</time>
      </trkpt>
      <trkpt lat="45.89" lon="4.56442">
        <ele>290.27811</ele>
        <time>2022-10-04T12:25:55.000Z</time>
      </trkpt>
      <trkpt lat="45.88995" lon="4.56438">
        <ele>290.63419</ele>
        <time>2022-10-04T12:25:56.000Z</time>
      </trkpt>
      <trkpt lat="45.88992" lon="4.56435">
        <ele>290.99048</ele>
        <time>2022-10-04T12:25:57.000Z</time>
      </trkpt>
      <trkpt lat="45.88988" lon="4.56433">
        <ele>291.28888</ele>
        <time>2022-10-04T12:25:58.000Z</time>
      </trkpt>
      <trkpt lat="45.88985" lon="4.56431">
        <ele>291.56281</ele>
        <time>2022-10-04T12:25:59.000Z</time>
      </trkpt>
      <trkpt lat="45.88982" lon="4.56429">
        <ele>291.73151</ele>
        <time>2022-10-04T12:26:00.000Z</time>
      </trkpt>
      <trkpt lat="45.88978" lon="4.56428">
        <ele>291.95471</ele>
        <time>2022-10-04T12:26:01.000Z</time>
      </trkpt>
      <trkpt lat="45.88975" lon="4.56427">
        <ele>292.10974</ele>
        <time>2022-10-04T12:26:02.000Z</time>
      </trkpt>
      <trkpt lat="45.88972" lon="4.56426">
        <ele>292.33624</ele>
        <time>2022-10-04T12:26:03.000Z</time>
      </trkpt>
      <trkpt lat="45.88969" lon="4.56426">
        <ele>292.5546</ele>
        <time>2022-10-04T12:26:04.000Z</time>
      </trkpt>
      <trkpt lat="45.88966" lon="4.56425">
        <ele>292.74164</ele>
        <time>2022-10-04T12:26:05.000Z</time>
      </trkpt>
      <trkpt lat="45.88963" lon="4.56424">
        <ele>292.94391</ele>
        <time>2022-10-04T12:26:06.000Z</time>
      </trkpt>
      <trkpt lat="45.88961" lon="4.56424">
        <ele>293.13391</ele>
        <time>2022-10-04T12:26:07.000Z</time>
      </trkpt>
      <trkpt lat="45.88958" lon="4.56425">
        <ele>293.16815</ele>
        <time>2022-10-04T12:26:08.000Z</time>
      </trkpt>
      <trkpt lat="45.88956" lon="4.56426">
        <ele>293.19684</ele>
        <time>2022-10-04T12:26:09.000Z</time>
      </trkpt>
      <trkpt lat="45.88954" lon="4.56427">
        <ele>293.32294</ele>
        <time>2022-10-04T12:26:10.000Z</time>
      </trkpt>
      <trkpt lat="45.88952" lon="4.56429">
        <ele>293.46579</ele>
        <time>2022-10-04T12:26:11.000Z</time>
      </trkpt>
      <trkpt lat="45.8895" lon="4.56431">
        <ele>293.52496</ele>
        <time>2022-10-04T12:26:12.000Z</time>
      </trkpt>
      <trkpt lat="45.88948" lon="4.56435">
        <ele>293.63715</ele>
        <time>2022-10-04T12:26:13.000Z</time>
      </trkpt>
      <trkpt lat="45.88945" lon="4.56438">
        <ele>293.55203</ele>
        <time>2022-10-04T12:26:14.000Z</time>
      </trkpt>
      <trkpt lat="45.88943" lon="4.5644">
        <ele>293.50861</ele>
        <time>2022-10-04T12:26:15.000Z</time>
      </trkpt>
      <trkpt lat="45.8894" lon="4.56443">
        <ele>293.46893</ele>
        <time>2022-10-04T12:26:16.000Z</time>
      </trkpt>
      <trkpt lat="45.88937" lon="4.56445">
        <ele>293.44827</ele>
        <time>2022-10-04T12:26:17.000Z</time>
      </trkpt>
      <trkpt lat="45.88933" lon="4.56446">
        <ele>293.50662</ele>
        <time>2022-10-04T12:26:18.000Z</time>
      </trkpt>
      <trkpt lat="45.88928" lon="4.56447">
        <ele>293.56281</ele>
        <time>2022-10-04T12:26:19.000Z</time>
      </trkpt>
      <trkpt lat="45.88925" lon="4.56447">
        <ele>293.75357</ele>
        <time>2022-10-04T12:26:20.000Z</time>
      </trkpt>
      <trkpt lat="45.88921" lon="4.56447">
        <ele>293.81354</ele>
        <time>2022-10-04T12:26:21.000Z</time>
      </trkpt>
      <trkpt lat="45.88917" lon="4.56448">
        <ele>293.87088</ele>
        <time>2022-10-04T12:26:22.000Z</time>
      </trkpt>
      <trkpt lat="45.88913" lon="4.56448">
        <ele>294.01642</ele>
        <time>2022-10-04T12:26:23.000Z</time>
      </trkpt>
      <trkpt lat="45.8891" lon="4.56448">
        <ele>294.10629</ele>
        <time>2022-10-04T12:26:24.000Z</time>
      </trkpt>
      <trkpt lat="45.88907" lon="4.56448">
        <ele>294.18222</ele>
        <time>2022-10-04T12:26:25.000Z</time>
      </trkpt>
      <trkpt lat="45.88904" lon="4.56447">
        <ele>294.30811</ele>
        <time>2022-10-04T12:26:26.000Z</time>
      </trkpt>
      <trkpt lat="45.88902" lon="4.56447">
        <ele>294.40359</ele>
        <time>2022-10-04T12:26:27.000Z</time>
      </trkpt>
      <trkpt lat="45.88899" lon="4.56446">
        <ele>294.51166</ele>
        <time>2022-10-04T12:26:28.000Z</time>
      </trkpt>
      <trkpt lat="45.88897" lon="4.56445">
        <ele>294.64313</ele>
        <time>2022-10-04T12:26:29.000Z</time>
      </trkpt>
      <trkpt lat="45.88895" lon="4.56444">
        <ele>294.75064</ele>
        <time>2022-10-04T12:26:30.000Z</time>
      </trkpt>
      <trkpt lat="45.88892" lon="4.56443">
        <ele>294.88998</ele>
        <time>2022-10-04T12:26:31.000Z</time>
      </trkpt>
      <trkpt lat="45.88889" lon="4.56442">
        <ele>295.0528</ele>
        <time>2022-10-04T12:26:32.000Z</time>
      </trkpt>
      <trkpt lat="45.88886" lon="4.5644">
        <ele>295.2168</ele>
        <time>2022-10-04T12:26:33.000Z</time>
      </trkpt>
      <trkpt lat="45.88884" lon="4.56438">
        <ele>295.50677</ele>
        <time>2022-10-04T12:26:34.000Z</time>
      </trkpt>
      <trkpt lat="45.88881" lon="4.56437">
        <ele>295.73004</ele>
        <time>2022-10-04T12:26:35.000Z</time>
      </trkpt>
      <trkpt lat="45.88878" lon="4.56436">
        <ele>295.98407</ele>
        <time>2022-10-04T12:26:36.000Z</time>
      </trkpt>
      <trkpt lat="45.88875" lon="4.56433">
        <ele>296.23126</ele>
        <time>2022-10-04T12:26:37.000Z</time>
      </trkpt>
      <trkpt lat="45.88872" lon="4.5643">
        <ele>296.52557</ele>
        <time>2022-10-04T12:26:38.000Z</time>
      </trkpt>
      <trkpt lat="45.88869" lon="4.56427">
        <ele>296.84567</ele>
        <time>2022-10-04T12:26:39.000Z</time>
      </trkpt>
      <trkpt lat="45.88866" lon="4.56423">
        <ele>297.11523</ele>
        <time>2022-10-04T12:26:40.000Z</time>
      </trkpt>
      <trkpt lat="45.88864" lon="4.56419">
        <ele>297.44342</ele>
        <time>2022-10-04T12:26:41.000Z</time>
      </trkpt>
      <trkpt lat="45.88862" lon="4.56415">
        <ele>297.6864</ele>
        <time>2022-10-04T12:26:42.000Z</time>
      </trkpt>
      <trkpt lat="45.88859" lon="4.56411">
        <ele>297.85971</ele>
        <time>2022-10-04T12:26:43.000Z</time>
      </trkpt>
      <trkpt lat="45.88857" lon="4.56407">
        <ele>298.0784</ele>
        <time>2022-10-04T12:26:44.000Z</time>
      </trkpt>
      <trkpt lat="45.88855" lon="4.56403">
        <ele>298.30988</ele>
        <time>2022-10-04T12:26:45.000Z</time>
      </trkpt>
      <trkpt lat="45.88853" lon="4.56399">
        <ele>298.51251</ele>
        <time>2022-10-04T12:26:46.000Z</time>
      </trkpt>
      <trkpt lat="45.88851" lon="4.56394">
        <ele>298.81137</ele>
        <time>2022-10-04T12:26:47.000Z</time>
      </trkpt>
      <trkpt lat="45.8885" lon="4.56389">
        <ele>299.28326</ele>
        <time>2022-10-04T12:26:48.000Z</time>
      </trkpt>
      <trkpt lat="45.88849" lon="4.56385">
        <ele>299.6843</ele>
        <time>2022-10-04T12:26:49.000Z</time>
      </trkpt>
      <trkpt lat="45.88849" lon="4.5638">
        <ele>300.11484</ele>
        <time>2022-10-04T12:26:50.000Z</time>
      </trkpt>
      <trkpt lat="45.88849" lon="4.56376">
        <ele>300.41443</ele>
        <time>2022-10-04T12:26:51.000Z</time>
      </trkpt>
      <trkpt lat="45.88849" lon="4.56372">
        <ele>300.76581</ele>
        <time>2022-10-04T12:26:52.000Z</time>
      </trkpt>
      <trkpt lat="45.88848" lon="4.56367">
        <ele>301.06979</ele>
        <time>2022-10-04T12:26:53.000Z</time>
      </trkpt>
      <trkpt lat="45.88848" lon="4.56362">
        <ele>301.37033</ele>
        <time>2022-10-04T12:26:54.000Z</time>
      </trkpt>
      <trkpt lat="45.88848" lon="4.56357">
        <ele>301.71048</ele>
        <time>2022-10-04T12:26:55.000Z</time>
      </trkpt>
      <trkpt lat="45.88847" lon="4.56351">
        <ele>301.98431</ele>
        <time>2022-10-04T12:26:56.000Z</time>
      </trkpt>
      <trkpt lat="45.88846" lon="4.56346">
        <ele>302.17059</ele>
        <time>2022-10-04T12:26:57.000Z</time>
      </trkpt>
      <trkpt lat="45.88845" lon="4.56341">
        <ele>302.29187</ele>
        <time>2022-10-04T12:26:58.000Z</time>
      </trkpt>
      <trkpt lat="45.88843" lon="4.56337">
        <ele>302.31387</ele>
        <time>2022-10-04T12:26:59.000Z</time>
      </trkpt>
      <trkpt lat="45.88842" lon="4.56332">
        <ele>302.36133</ele>
        <time>2022-10-04T12:27:00.000Z</time>
      </trkpt>
      <trkpt lat="45.88841" lon="4.56326">
        <ele>302.42267</ele>
        <time>2022-10-04T12:27:01.000Z</time>
      </trkpt>
      <trkpt lat="45.88841" lon="4.56321">
        <ele>302.63544</ele>
        <time>2022-10-04T12:27:02.000Z</time>
      </trkpt>
      <trkpt lat="45.8884" lon="4.56316">
        <ele>302.85577</ele>
        <time>2022-10-04T12:27:03.000Z</time>
      </trkpt>
      <trkpt lat="45.8884" lon="4.56311">
        <ele>303.03177</ele>
        <time>2022-10-04T12:27:04.000Z</time>
      </trkpt>
      <trkpt lat="45.88839" lon="4.56307">
        <ele>303.27582</ele>
        <time>2022-10-04T12:27:05.000Z</time>
      </trkpt>
      <trkpt lat="45.88837" lon="4.56304">
        <ele>303.63483</ele>
        <time>2022-10-04T12:27:06.000Z</time>
      </trkpt>
      <trkpt lat="45.88836" lon="4.563">
        <ele>303.85379</ele>
        <time>2022-10-04T12:27:07.000Z</time>
      </trkpt>
      <trkpt lat="45.88835" lon="4.56297">
        <ele>303.99823</ele>
        <time>2022-10-04T12:27:08.000Z</time>
      </trkpt>
      <trkpt lat="45.88834" lon="4.56293">
        <ele>304.14142</ele>
        <time>2022-10-04T12:27:09.000Z</time>
      </trkpt>
      <trkpt lat="45.88833" lon="4.5629">
        <ele>304.1889</ele>
        <time>2022-10-04T12:27:10.000Z</time>
      </trkpt>
      <trkpt lat="45.88833" lon="4.56287">
        <ele>304.34128</ele>
        <time>2022-10-04T12:27:11.000Z</time>
      </trkpt>
      <trkpt lat="45.88831" lon="4.56283">
        <ele>304.39148</ele>
        <time>2022-10-04T12:27:12.000Z</time>
      </trkpt>
      <trkpt lat="45.8883" lon="4.5628">
        <ele>304.49252</ele>
        <time>2022-10-04T12:27:13.000Z</time>
      </trkpt>
      <trkpt lat="45.8883" lon="4.56276">
        <ele>304.50287</ele>
        <time>2022-10-04T12:27:14.000Z</time>
      </trkpt>
      <trkpt lat="45.88829" lon="4.56272">
        <ele>304.56516</ele>
        <time>2022-10-04T12:27:15.000Z</time>
      </trkpt>
      <trkpt lat="45.88828" lon="4.56268">
        <ele>304.67929</ele>
        <time>2022-10-04T12:27:16.000Z</time>
      </trkpt>
      <trkpt lat="45.88827" lon="4.56264">
        <ele>304.86346</ele>
        <time>2022-10-04T12:27:17.000Z</time>
      </trkpt>
      <trkpt lat="45.88826" lon="4.5626">
        <ele>305.11093</ele>
        <time>2022-10-04T12:27:18.000Z</time>
      </trkpt>
      <trkpt lat="45.88825" lon="4.56256">
        <ele>305.40582</ele>
        <time>2022-10-04T12:27:19.000Z</time>
      </trkpt>
      <trkpt lat="45.88823" lon="4.56253">
        <ele>305.63019</ele>
        <time>2022-10-04T12:27:20.000Z</time>
      </trkpt>
      <trkpt lat="45.88822" lon="4.56249">
        <ele>305.83807</ele>
        <time>2022-10-04T12:27:21.000Z</time>
      </trkpt>
      <trkpt lat="45.8882" lon="4.56246">
        <ele>305.96298</ele>
        <time>2022-10-04T12:27:22.000Z</time>
      </trkpt>
      <trkpt lat="45.88819" lon="4.56243">
        <ele>306.14597</ele>
        <time>2022-10-04T12:27:23.000Z</time>
      </trkpt>
      <trkpt lat="45.88817" lon="4.5624">
        <ele>306.32828</ele>
        <time>2022-10-04T12:27:24.000Z</time>
      </trkpt>
      <trkpt lat="45.88815" lon="4.56236">
        <ele>306.41232</ele>
        <time>2022-10-04T12:27:25.000Z</time>
      </trkpt>
      <trkpt lat="45.88812" lon="4.56233">
        <ele>306.36285</ele>
        <time>2022-10-04T12:27:26.000Z</time>
      </trkpt>
      <trkpt lat="45.8881" lon="4.56229">
        <ele>306.4494</ele>
        <time>2022-10-04T12:27:27.000Z</time>
      </trkpt>
      <trkpt lat="45.88808" lon="4.56225">
        <ele>306.47577</ele>
        <time>2022-10-04T12:27:28.000Z</time>
      </trkpt>
      <trkpt lat="45.88806" lon="4.56221">
        <ele>306.57983</ele>
        <time>2022-10-04T12:27:29.000Z</time>
      </trkpt>
      <trkpt lat="45.88804" lon="4.56217">
        <ele>306.65604</ele>
        <time>2022-10-04T12:27:30.000Z</time>
      </trkpt>
      <trkpt lat="45.88802" lon="4.56214">
        <ele>306.61044</ele>
        <time>2022-10-04T12:27:31.000Z</time>
      </trkpt>
      <trkpt lat="45.888" lon="4.5621">
        <ele>306.69675</ele>
        <time>2022-10-04T12:27:32.000Z</time>
      </trkpt>
      <trkpt lat="45.88797" lon="4.56206">
        <ele>306.79523</ele>
        <time>2022-10-04T12:27:33.000Z</time>
      </trkpt>
      <trkpt lat="45.88795" lon="4.56202">
        <ele>306.90234</ele>
        <time>2022-10-04T12:27:34.000Z</time>
      </trkpt>
      <trkpt lat="45.88793" lon="4.56198">
        <ele>306.96515</ele>
        <time>2022-10-04T12:27:35.000Z</time>
      </trkpt>
      <trkpt lat="45.88791" lon="4.56195">
        <ele>306.94519</ele>
        <time>2022-10-04T12:27:36.000Z</time>
      </trkpt>
      <trkpt lat="45.88789" lon="4.56191">
        <ele>306.95029</ele>
        <time>2022-10-04T12:27:37.000Z</time>
      </trkpt>
      <trkpt lat="45.88787" lon="4.56188">
        <ele>306.89313</ele>
        <time>2022-10-04T12:27:38.000Z</time>
      </trkpt>
      <trkpt lat="45.88785" lon="4.56184">
        <ele>306.85245</ele>
        <time>2022-10-04T12:27:39.000Z</time>
      </trkpt>
      <trkpt lat="45.88782" lon="4.5618">
        <ele>306.82007</ele>
        <time>2022-10-04T12:27:40.000Z</time>
      </trkpt>
      <trkpt lat="45.8878" lon="4.56177">
        <ele>306.83521</ele>
        <time>2022-10-04T12:27:41.000Z</time>
      </trkpt>
      <trkpt lat="45.88778" lon="4.56173">
        <ele>306.89337</ele>
        <time>2022-10-04T12:27:42.000Z</time>
      </trkpt>
      <trkpt lat="45.88776" lon="4.5617">
        <ele>306.93198</ele>
        <time>2022-10-04T12:27:43.000Z</time>
      </trkpt>
      <trkpt lat="45.88774" lon="4.56166">
        <ele>306.94693</ele>
        <time>2022-10-04T12:27:44.000Z</time>
      </trkpt>
      <trkpt lat="45.88772" lon="4.56162">
        <ele>307.02533</ele>
        <time>2022-10-04T12:27:45.000Z</time>
      </trkpt>
      <trkpt lat="45.8877" lon="4.56159">
        <ele>307.20062</ele>
        <time>2022-10-04T12:27:46.000Z</time>
      </trkpt>
      <trkpt lat="45.88768" lon="4.56155">
        <ele>307.29486</ele>
        <time>2022-10-04T12:27:47.000Z</time>
      </trkpt>
      <trkpt lat="45.88766" lon="4.56152">
        <ele>307.45831</ele>
        <time>2022-10-04T12:27:48.000Z</time>
      </trkpt>
      <trkpt lat="45.88763" lon="4.56148">
        <ele>307.5871</ele>
        <time>2022-10-04T12:27:49.000Z</time>
      </trkpt>
      <trkpt lat="45.88761" lon="4.56143">
        <ele>307.72809</ele>
        <time>2022-10-04T12:27:50.000Z</time>
      </trkpt>
      <trkpt lat="45.88759" lon="4.56139">
        <ele>307.98877</ele>
        <time>2022-10-04T12:27:51.000Z</time>
      </trkpt>
      <trkpt lat="45.88757" lon="4.56134">
        <ele>308.18512</ele>
        <time>2022-10-04T12:27:52.000Z</time>
      </trkpt>
      <trkpt lat="45.88755" lon="4.56129">
        <ele>308.34595</ele>
        <time>2022-10-04T12:27:53.000Z</time>
      </trkpt>
      <trkpt lat="45.88753" lon="4.56125">
        <ele>308.59299</ele>
        <time>2022-10-04T12:27:54.000Z</time>
      </trkpt>
      <trkpt lat="45.88752" lon="4.5612">
        <ele>308.83878</ele>
        <time>2022-10-04T12:27:55.000Z</time>
      </trkpt>
      <trkpt lat="45.8875" lon="4.56115">
        <ele>309.16443</ele>
        <time>2022-10-04T12:27:56.000Z</time>
      </trkpt>
      <trkpt lat="45.88748" lon="4.56111">
        <ele>309.48566</ele>
        <time>2022-10-04T12:27:57.000Z</time>
      </trkpt>
      <trkpt lat="45.88746" lon="4.56106">
        <ele>309.81598</ele>
        <time>2022-10-04T12:27:58.000Z</time>
      </trkpt>
      <trkpt lat="45.88744" lon="4.56102">
        <ele>310.17474</ele>
        <time>2022-10-04T12:27:59.000Z</time>
      </trkpt>
      <trkpt lat="45.88742" lon="4.56098">
        <ele>310.50525</ele>
        <time>2022-10-04T12:28:00.000Z</time>
      </trkpt>
      <trkpt lat="45.88741" lon="4.56094">
        <ele>310.84256</ele>
        <time>2022-10-04T12:28:01.000Z</time>
      </trkpt>
      <trkpt lat="45.88739" lon="4.5609">
        <ele>311.22565</ele>
        <time>2022-10-04T12:28:02.000Z</time>
      </trkpt>
      <trkpt lat="45.88738" lon="4.56086">
        <ele>311.5282</ele>
        <time>2022-10-04T12:28:03.000Z</time>
      </trkpt>
      <trkpt lat="45.88736" lon="4.56082">
        <ele>311.90814</ele>
        <time>2022-10-04T12:28:04.000Z</time>
      </trkpt>
      <trkpt lat="45.88734" lon="4.56078">
        <ele>312.25098</ele>
        <time>2022-10-04T12:28:05.000Z</time>
      </trkpt>
      <trkpt lat="45.88732" lon="4.56074">
        <ele>312.54681</ele>
        <time>2022-10-04T12:28:06.000Z</time>
      </trkpt>
      <trkpt lat="45.88731" lon="4.56071">
        <ele>312.82932</ele>
        <time>2022-10-04T12:28:07.000Z</time>
      </trkpt>
      <trkpt lat="45.88729" lon="4.56067">
        <ele>313.09454</ele>
        <time>2022-10-04T12:28:08.000Z</time>
      </trkpt>
      <trkpt lat="45.88727" lon="4.56063">
        <ele>313.34836</ele>
        <time>2022-10-04T12:28:09.000Z</time>
      </trkpt>
      <trkpt lat="45.88725" lon="4.56059">
        <ele>313.65054</ele>
        <time>2022-10-04T12:28:10.000Z</time>
      </trkpt>
      <trkpt lat="45.88723" lon="4.56056">
        <ele>313.90277</ele>
        <time>2022-10-04T12:28:11.000Z</time>
      </trkpt>
      <trkpt lat="45.88721" lon="4.56052">
        <ele>314.10358</ele>
        <time>2022-10-04T12:28:12.000Z</time>
      </trkpt>
      <trkpt lat="45.88719" lon="4.56048">
        <ele>314.31653</ele>
        <time>2022-10-04T12:28:13.000Z</time>
      </trkpt>
      <trkpt lat="45.88717" lon="4.56044">
        <ele>314.49005</ele>
        <time>2022-10-04T12:28:14.000Z</time>
      </trkpt>
      <trkpt lat="45.88715" lon="4.56041">
        <ele>314.6243</ele>
        <time>2022-10-04T12:28:15.000Z</time>
      </trkpt>
      <trkpt lat="45.88713" lon="4.56038">
        <ele>314.7403</ele>
        <time>2022-10-04T12:28:16.000Z</time>
      </trkpt>
      <trkpt lat="45.88711" lon="4.56034">
        <ele>314.80188</ele>
        <time>2022-10-04T12:28:17.000Z</time>
      </trkpt>
      <trkpt lat="45.88709" lon="4.5603">
        <ele>314.82834</ele>
        <time>2022-10-04T12:28:18.000Z</time>
      </trkpt>
      <trkpt lat="45.88707" lon="4.56026">
        <ele>314.88373</ele>
        <time>2022-10-04T12:28:19.000Z</time>
      </trkpt>
      <trkpt lat="45.88705" lon="4.56022">
        <ele>315.01025</ele>
        <time>2022-10-04T12:28:20.000Z</time>
      </trkpt>
      <trkpt lat="45.88704" lon="4.56019">
        <ele>315.14108</ele>
        <time>2022-10-04T12:28:21.000Z</time>
      </trkpt>
      <trkpt lat="45.88702" lon="4.56015">
        <ele>315.21564</ele>
        <time>2022-10-04T12:28:22.000Z</time>
      </trkpt>
      <trkpt lat="45.887" lon="4.56012">
        <ele>315.31927</ele>
        <time>2022-10-04T12:28:23.000Z</time>
      </trkpt>
      <trkpt lat="45.88698" lon="4.56009">
        <ele>315.37772</ele>
        <time>2022-10-04T12:28:24.000Z</time>
      </trkpt>
      <trkpt lat="45.88696" lon="4.56006">
        <ele>315.47888</ele>
        <time>2022-10-04T12:28:25.000Z</time>
      </trkpt>
      <trkpt lat="45.88694" lon="4.56003">
        <ele>315.52591</ele>
        <time>2022-10-04T12:28:26.000Z</time>
      </trkpt>
      <trkpt lat="45.88691" lon="4.56">
        <ele>315.65097</ele>
        <time>2022-10-04T12:28:27.000Z</time>
      </trkpt>
      <trkpt lat="45.88689" lon="4.55997">
        <ele>315.78876</ele>
        <time>2022-10-04T12:28:28.000Z</time>
      </trkpt>
      <trkpt lat="45.88687" lon="4.55994">
        <ele>315.95007</ele>
        <time>2022-10-04T12:28:29.000Z</time>
      </trkpt>
      <trkpt lat="45.88685" lon="4.55991">
        <ele>316.09454</ele>
        <time>2022-10-04T12:28:30.000Z</time>
      </trkpt>
      <trkpt lat="45.88682" lon="4.55988">
        <ele>316.2753</ele>
        <time>2022-10-04T12:28:31.000Z</time>
      </trkpt>
      <trkpt lat="45.8868" lon="4.55985">
        <ele>316.47919</ele>
        <time>2022-10-04T12:28:32.000Z</time>
      </trkpt>
      <trkpt lat="45.88677" lon="4.55983">
        <ele>316.63586</ele>
        <time>2022-10-04T12:28:33.000Z</time>
      </trkpt>
      <trkpt lat="45.88675" lon="4.5598">
        <ele>316.80167</ele>
        <time>2022-10-04T12:28:34.000Z</time>
      </trkpt>
      <trkpt lat="45.88672" lon="4.55977">
        <ele>317.05753</ele>
        <time>2022-10-04T12:28:35.000Z</time>
      </trkpt>
      <trkpt lat="45.8867" lon="4.55975">
        <ele>317.28</ele>
        <time>2022-10-04T12:28:36.000Z</time>
      </trkpt>
      <trkpt lat="45.88668" lon="4.55972">
        <ele>317.52802</ele>
        <time>2022-10-04T12:28:37.000Z</time>
      </trkpt>
      <trkpt lat="45.88665" lon="4.55969">
        <ele>317.82489</ele>
        <time>2022-10-04T12:28:38.000Z</time>
      </trkpt>
      <trkpt lat="45.88663" lon="4.55967">
        <ele>318.09238</ele>
        <time>2022-10-04T12:28:39.000Z</time>
      </trkpt>
      <trkpt lat="45.8866" lon="4.55964">
        <ele>318.38629</ele>
        <time>2022-10-04T12:28:40.000Z</time>
      </trkpt>
      <trkpt lat="45.88658" lon="4.55961">
        <ele>318.60358</ele>
        <time>2022-10-04T12:28:41.000Z</time>
      </trkpt>
      <trkpt lat="45.88655" lon="4.55958">
        <ele>318.83871</ele>
        <time>2022-10-04T12:28:42.000Z</time>
      </trkpt>
      <trkpt lat="45.88652" lon="4.55955">
        <ele>319.08887</ele>
        <time>2022-10-04T12:28:43.000Z</time>
      </trkpt>
      <trkpt lat="45.8865" lon="4.55953">
        <ele>319.17798</ele>
        <time>2022-10-04T12:28:44.000Z</time>
      </trkpt>
      <trkpt lat="45.88647" lon="4.5595">
        <ele>319.28781</ele>
        <time>2022-10-04T12:28:45.000Z</time>
      </trkpt>
      <trkpt lat="45.88644" lon="4.55948">
        <ele>319.41016</ele>
        <time>2022-10-04T12:28:46.000Z</time>
      </trkpt>
      <trkpt lat="45.88642" lon="4.55945">
        <ele>319.50912</ele>
        <time>2022-10-04T12:28:47.000Z</time>
      </trkpt>
      <trkpt lat="45.88639" lon="4.55942">
        <ele>319.60336</ele>
        <time>2022-10-04T12:28:48.000Z</time>
      </trkpt>
      <trkpt lat="45.88637" lon="4.5594">
        <ele>319.6951</ele>
        <time>2022-10-04T12:28:49.000Z</time>
      </trkpt>
      <trkpt lat="45.88634" lon="4.55937">
        <ele>319.78607</ele>
        <time>2022-10-04T12:28:50.000Z</time>
      </trkpt>
      <trkpt lat="45.88632" lon="4.55934">
        <ele>319.86493</ele>
        <time>2022-10-04T12:28:51.000Z</time>
      </trkpt>
      <trkpt lat="45.88629" lon="4.55932">
        <ele>319.96851</ele>
        <time>2022-10-04T12:28:52.000Z</time>
      </trkpt>
      <trkpt lat="45.88627" lon="4.5593">
        <ele>320.11923</ele>
        <time>2022-10-04T12:28:53.000Z</time>
      </trkpt>
      <trkpt lat="45.88625" lon="4.55927">
        <ele>320.26801</ele>
        <time>2022-10-04T12:28:54.000Z</time>
      </trkpt>
      <trkpt lat="45.88622" lon="4.55925">
        <ele>320.37326</ele>
        <time>2022-10-04T12:28:55.000Z</time>
      </trkpt>
      <trkpt lat="45.88619" lon="4.55922">
        <ele>320.50519</ele>
        <time>2022-10-04T12:28:56.000Z</time>
      </trkpt>
      <trkpt lat="45.88616" lon="4.5592">
        <ele>320.67603</ele>
        <time>2022-10-04T12:28:57.000Z</time>
      </trkpt>
      <trkpt lat="45.88613" lon="4.55918">
        <ele>320.77423</ele>
        <time>2022-10-04T12:28:58.000Z</time>
      </trkpt>
      <trkpt lat="45.8861" lon="4.55915">
        <ele>320.86374</ele>
        <time>2022-10-04T12:28:59.000Z</time>
      </trkpt>
      <trkpt lat="45.88608" lon="4.55913">
        <ele>321.01611</ele>
        <time>2022-10-04T12:29:00.000Z</time>
      </trkpt>
      <trkpt lat="45.88605" lon="4.55912">
        <ele>321.25818</ele>
        <time>2022-10-04T12:29:01.000Z</time>
      </trkpt>
      <trkpt lat="45.88602" lon="4.55911">
        <ele>321.44879</ele>
        <time>2022-10-04T12:29:02.000Z</time>
      </trkpt>
      <trkpt lat="45.886" lon="4.55909">
        <ele>321.68005</ele>
        <time>2022-10-04T12:29:03.000Z</time>
      </trkpt>
      <trkpt lat="45.88597" lon="4.55907">
        <ele>322.04962</ele>
        <time>2022-10-04T12:29:04.000Z</time>
      </trkpt>
      <trkpt lat="45.88594" lon="4.55905">
        <ele>322.35016</ele>
        <time>2022-10-04T12:29:05.000Z</time>
      </trkpt>
      <trkpt lat="45.88592" lon="4.55903">
        <ele>322.73151</ele>
        <time>2022-10-04T12:29:06.000Z</time>
      </trkpt>
      <trkpt lat="45.88589" lon="4.559">
        <ele>323.11377</ele>
        <time>2022-10-04T12:29:07.000Z</time>
      </trkpt>
      <trkpt lat="45.88586" lon="4.55898">
        <ele>323.53452</ele>
        <time>2022-10-04T12:29:08.000Z</time>
      </trkpt>
      <trkpt lat="45.88583" lon="4.55895">
        <ele>323.99451</ele>
        <time>2022-10-04T12:29:09.000Z</time>
      </trkpt>
      <trkpt lat="45.8858" lon="4.55893">
        <ele>324.4256</ele>
        <time>2022-10-04T12:29:10.000Z</time>
      </trkpt>
      <trkpt lat="45.88577" lon="4.5589">
        <ele>324.87512</ele>
        <time>2022-10-04T12:29:11.000Z</time>
      </trkpt>
      <trkpt lat="45.88574" lon="4.55887">
        <ele>325.38629</ele>
        <time>2022-10-04T12:29:12.000Z</time>
      </trkpt>
      <trkpt lat="45.88571" lon="4.55885">
        <ele>325.92413</ele>
        <time>2022-10-04T12:29:13.000Z</time>
      </trkpt>
      <trkpt lat="45.88568" lon="4.55883">
        <ele>326.40338</ele>
        <time>2022-10-04T12:29:14.000Z</time>
      </trkpt>
      <trkpt lat="45.88565" lon="4.55881">
        <ele>326.88788</ele>
        <time>2022-10-04T12:29:15.000Z</time>
      </trkpt>
      <trkpt lat="45.88562" lon="4.55878">
        <ele>327.32382</ele>
        <time>2022-10-04T12:29:16.000Z</time>
      </trkpt>
      <trkpt lat="45.88559" lon="4.55876">
        <ele>327.67398</ele>
        <time>2022-10-04T12:29:17.000Z</time>
      </trkpt>
      <trkpt lat="45.88556" lon="4.55873">
        <ele>328.01596</ele>
        <time>2022-10-04T12:29:18.000Z</time>
      </trkpt>
      <trkpt lat="45.88553" lon="4.55871">
        <ele>328.35852</ele>
        <time>2022-10-04T12:29:19.000Z</time>
      </trkpt>
      <trkpt lat="45.8855" lon="4.55869">
        <ele>328.63129</ele>
        <time>2022-10-04T12:29:20.000Z</time>
      </trkpt>
      <trkpt lat="45.88547" lon="4.55867">
        <ele>328.78204</ele>
        <time>2022-10-04T12:29:21.000Z</time>
      </trkpt>
      <trkpt lat="45.88545" lon="4.55864">
        <ele>328.94958</ele>
        <time>2022-10-04T12:29:22.000Z</time>
      </trkpt>
      <trkpt lat="45.88542" lon="4.55862">
        <ele>329.08673</ele>
        <time>2022-10-04T12:29:23.000Z</time>
      </trkpt>
      <trkpt lat="45.88539" lon="4.5586">
        <ele>329.20673</ele>
        <time>2022-10-04T12:29:24.000Z</time>
      </trkpt>
      <trkpt lat="45.88536" lon="4.55858">
        <ele>329.44217</ele>
        <time>2022-10-04T12:29:25.000Z</time>
      </trkpt>
      <trkpt lat="45.88534" lon="4.55856">
        <ele>329.66742</ele>
        <time>2022-10-04T12:29:26.000Z</time>
      </trkpt>
      <trkpt lat="45.88531" lon="4.55855">
        <ele>329.84711</ele>
        <time>2022-10-04T12:29:27.000Z</time>
      </trkpt>
      <trkpt lat="45.88528" lon="4.55853">
        <ele>329.92255</ele>
        <time>2022-10-04T12:29:28.000Z</time>
      </trkpt>
      <trkpt lat="45.88525" lon="4.55851">
        <ele>329.92346</ele>
        <time>2022-10-04T12:29:29.000Z</time>
      </trkpt>
      <trkpt lat="45.88522" lon="4.55849">
        <ele>329.98102</ele>
        <time>2022-10-04T12:29:30.000Z</time>
      </trkpt>
      <trkpt lat="45.8852" lon="4.55846">
        <ele>330.00983</ele>
        <time>2022-10-04T12:29:31.000Z</time>
      </trkpt>
      <trkpt lat="45.88517" lon="4.55845">
        <ele>329.99069</ele>
        <time>2022-10-04T12:29:32.000Z</time>
      </trkpt>
      <trkpt lat="45.88514" lon="4.55843">
        <ele>329.95065</ele>
        <time>2022-10-04T12:29:33.000Z</time>
      </trkpt>
      <trkpt lat="45.88511" lon="4.55841">
        <ele>329.99396</ele>
        <time>2022-10-04T12:29:34.000Z</time>
      </trkpt>
      <trkpt lat="45.88509" lon="4.55838">
        <ele>329.98569</ele>
        <time>2022-10-04T12:29:35.000Z</time>
      </trkpt>
      <trkpt lat="45.88506" lon="4.55836">
        <ele>330.04874</ele>
        <time>2022-10-04T12:29:36.000Z</time>
      </trkpt>
      <trkpt lat="45.88503" lon="4.55834">
        <ele>330.10037</ele>
        <time>2022-10-04T12:29:37.000Z</time>
      </trkpt>
      <trkpt lat="45.885" lon="4.55832">
        <ele>330.24554</ele>
        <time>2022-10-04T12:29:38.000Z</time>
      </trkpt>
      <trkpt lat="45.88497" lon="4.5583">
        <ele>330.45859</ele>
        <time>2022-10-04T12:29:39.000Z</time>
      </trkpt>
      <trkpt lat="45.88494" lon="4.55829">
        <ele>330.62512</ele>
        <time>2022-10-04T12:29:40.000Z</time>
      </trkpt>
      <trkpt lat="45.88491" lon="4.55828">
        <ele>330.93475</ele>
        <time>2022-10-04T12:29:41.000Z</time>
      </trkpt>
      <trkpt lat="45.88487" lon="4.55827">
        <ele>331.13016</ele>
        <time>2022-10-04T12:29:42.000Z</time>
      </trkpt>
      <trkpt lat="45.88484" lon="4.55827">
        <ele>331.29514</ele>
        <time>2022-10-04T12:29:43.000Z</time>
      </trkpt>
      <trkpt lat="45.8848" lon="4.55827">
        <ele>331.42752</ele>
        <time>2022-10-04T12:29:44.000Z</time>
      </trkpt>
      <trkpt lat="45.88477" lon="4.55828">
        <ele>331.41522</ele>
        <time>2022-10-04T12:29:45.000Z</time>
      </trkpt>
      <trkpt lat="45.88473" lon="4.55828">
        <ele>331.24469</ele>
        <time>2022-10-04T12:29:46.000Z</time>
      </trkpt>
      <trkpt lat="45.8847" lon="4.55828">
        <ele>331.20245</ele>
        <time>2022-10-04T12:29:47.000Z</time>
      </trkpt>
      <trkpt lat="45.88467" lon="4.55827">
        <ele>331.18842</ele>
        <time>2022-10-04T12:29:48.000Z</time>
      </trkpt>
      <trkpt lat="45.88464" lon="4.55827">
        <ele>331.18204</ele>
        <time>2022-10-04T12:29:49.000Z</time>
      </trkpt>
      <trkpt lat="45.88461" lon="4.55826">
        <ele>331.16263</ele>
        <time>2022-10-04T12:29:50.000Z</time>
      </trkpt>
      <trkpt lat="45.88458" lon="4.55826">
        <ele>331.19412</ele>
        <time>2022-10-04T12:29:51.000Z</time>
      </trkpt>
      <trkpt lat="45.88455" lon="4.55826">
        <ele>331.32193</ele>
        <time>2022-10-04T12:29:52.000Z</time>
      </trkpt>
      <trkpt lat="45.88453" lon="4.55826">
        <ele>331.47211</ele>
        <time>2022-10-04T12:29:53.000Z</time>
      </trkpt>
      <trkpt lat="45.8845" lon="4.55826">
        <ele>331.67218</ele>
        <time>2022-10-04T12:29:54.000Z</time>
      </trkpt>
      <trkpt lat="45.88447" lon="4.55827">
        <ele>331.85858</ele>
        <time>2022-10-04T12:29:55.000Z</time>
      </trkpt>
      <trkpt lat="45.88444" lon="4.55827">
        <ele>331.95746</ele>
        <time>2022-10-04T12:29:56.000Z</time>
      </trkpt>
      <trkpt lat="45.8844" lon="4.55827">
        <ele>332.08969</ele>
        <time>2022-10-04T12:29:57.000Z</time>
      </trkpt>
      <trkpt lat="45.88437" lon="4.55826">
        <ele>332.22479</ele>
        <time>2022-10-04T12:29:58.000Z</time>
      </trkpt>
      <trkpt lat="45.88434" lon="4.55827">
        <ele>332.40826</ele>
        <time>2022-10-04T12:29:59.000Z</time>
      </trkpt>
      <trkpt lat="45.88432" lon="4.55827">
        <ele>332.55865</ele>
        <time>2022-10-04T12:30:00.000Z</time>
      </trkpt>
      <trkpt lat="45.88429" lon="4.55828">
        <ele>332.66708</ele>
        <time>2022-10-04T12:30:01.000Z</time>
      </trkpt>
      <trkpt lat="45.88426" lon="4.55828">
        <ele>332.8266</ele>
        <time>2022-10-04T12:30:02.000Z</time>
      </trkpt>
      <trkpt lat="45.88424" lon="4.55829">
        <ele>333.00595</ele>
        <time>2022-10-04T12:30:03.000Z</time>
      </trkpt>
      <trkpt lat="45.88421" lon="4.55829">
        <ele>333.32196</ele>
        <time>2022-10-04T12:30:04.000Z</time>
      </trkpt>
      <trkpt lat="45.88419" lon="4.5583">
        <ele>333.69919</ele>
        <time>2022-10-04T12:30:05.000Z</time>
      </trkpt>
      <trkpt lat="45.88416" lon="4.55831">
        <ele>334.18045</ele>
        <time>2022-10-04T12:30:06.000Z</time>
      </trkpt>
      <trkpt lat="45.88414" lon="4.55832">
        <ele>334.54849</ele>
        <time>2022-10-04T12:30:07.000Z</time>
      </trkpt>
      <trkpt lat="45.88411" lon="4.55833">
        <ele>334.93631</ele>
        <time>2022-10-04T12:30:08.000Z</time>
      </trkpt>
      <trkpt lat="45.88408" lon="4.55834">
        <ele>335.22778</ele>
        <time>2022-10-04T12:30:09.000Z</time>
      </trkpt>
      <trkpt lat="45.88405" lon="4.55835">
        <ele>335.49908</ele>
        <time>2022-10-04T12:30:10.000Z</time>
      </trkpt>
      <trkpt lat="45.88402" lon="4.55836">
        <ele>335.76514</ele>
        <time>2022-10-04T12:30:11.000Z</time>
      </trkpt>
      <trkpt lat="45.884" lon="4.55838">
        <ele>335.87103</ele>
        <time>2022-10-04T12:30:12.000Z</time>
      </trkpt>
      <trkpt lat="45.88397" lon="4.55839">
        <ele>335.92474</ele>
        <time>2022-10-04T12:30:13.000Z</time>
      </trkpt>
      <trkpt lat="45.88395" lon="4.55841">
        <ele>335.9476</ele>
        <time>2022-10-04T12:30:14.000Z</time>
      </trkpt>
      <trkpt lat="45.88392" lon="4.55843">
        <ele>335.96552</ele>
        <time>2022-10-04T12:30:15.000Z</time>
      </trkpt>
      <trkpt lat="45.8839" lon="4.55844">
        <ele>335.98877</ele>
        <time>2022-10-04T12:30:16.000Z</time>
      </trkpt>
      <trkpt lat="45.88387" lon="4.55846">
        <ele>336.02863</ele>
        <time>2022-10-04T12:30:17.000Z</time>
      </trkpt>
      <trkpt lat="45.88385" lon="4.55848">
        <ele>336.01346</ele>
        <time>2022-10-04T12:30:18.000Z</time>
      </trkpt>
      <trkpt lat="45.88383" lon="4.5585">
        <ele>335.85306</ele>
        <time>2022-10-04T12:30:19.000Z</time>
      </trkpt>
      <trkpt lat="45.88381" lon="4.55853">
        <ele>335.76199</ele>
        <time>2022-10-04T12:30:20.000Z</time>
      </trkpt>
      <trkpt lat="45.88379" lon="4.55855">
        <ele>335.61603</ele>
        <time>2022-10-04T12:30:21.000Z</time>
      </trkpt>
      <trkpt lat="45.88377" lon="4.55858">
        <ele>335.46396</ele>
        <time>2022-10-04T12:30:22.000Z</time>
      </trkpt>
      <trkpt lat="45.88375" lon="4.55861">
        <ele>335.33252</ele>
        <time>2022-10-04T12:30:23.000Z</time>
      </trkpt>
      <trkpt lat="45.88373" lon="4.55864">
        <ele>335.11691</ele>
        <time>2022-10-04T12:30:24.000Z</time>
      </trkpt>
      <trkpt lat="45.8837" lon="4.55866">
        <ele>334.89438</ele>
        <time>2022-10-04T12:30:25.000Z</time>
      </trkpt>
      <trkpt lat="45.88368" lon="4.55869">
        <ele>334.71295</ele>
        <time>2022-10-04T12:30:26.000Z</time>
      </trkpt>
      <trkpt lat="45.88366" lon="4.55871">
        <ele>334.49997</ele>
        <time>2022-10-04T12:30:27.000Z</time>
      </trkpt>
      <trkpt lat="45.88364" lon="4.55874">
        <ele>334.32147</ele>
        <time>2022-10-04T12:30:28.000Z</time>
      </trkpt>
      <trkpt lat="45.88362" lon="4.55876">
        <ele>334.15781</ele>
        <time>2022-10-04T12:30:29.000Z</time>
      </trkpt>
      <trkpt lat="45.88359" lon="4.55879">
        <ele>333.99408</ele>
        <time>2022-10-04T12:30:30.000Z</time>
      </trkpt>
      <trkpt lat="45.88358" lon="4.55882">
        <ele>333.82861</ele>
        <time>2022-10-04T12:30:31.000Z</time>
      </trkpt>
      <trkpt lat="45.88356" lon="4.55884">
        <ele>333.63214</ele>
        <time>2022-10-04T12:30:32.000Z</time>
      </trkpt>
      <trkpt lat="45.88353" lon="4.55887">
        <ele>333.4751</ele>
        <time>2022-10-04T12:30:33.000Z</time>
      </trkpt>
      <trkpt lat="45.88351" lon="4.55889">
        <ele>333.29242</ele>
        <time>2022-10-04T12:30:34.000Z</time>
      </trkpt>
      <trkpt lat="45.88349" lon="4.55891">
        <ele>333.17059</ele>
        <time>2022-10-04T12:30:35.000Z</time>
      </trkpt>
      <trkpt lat="45.88347" lon="4.55893">
        <ele>333.04529</ele>
        <time>2022-10-04T12:30:36.000Z</time>
      </trkpt>
      <trkpt lat="45.88344" lon="4.55896">
        <ele>332.89917</ele>
        <time>2022-10-04T12:30:37.000Z</time>
      </trkpt>
      <trkpt lat="45.88342" lon="4.55898">
        <ele>332.75854</ele>
        <time>2022-10-04T12:30:38.000Z</time>
      </trkpt>
      <trkpt lat="45.8834" lon="4.559">
        <ele>332.67029</ele>
        <time>2022-10-04T12:30:39.000Z</time>
      </trkpt>
      <trkpt lat="45.88338" lon="4.55902">
        <ele>332.56345</ele>
        <time>2022-10-04T12:30:40.000Z</time>
      </trkpt>
      <trkpt lat="45.88336" lon="4.55904">
        <ele>332.47049</ele>
        <time>2022-10-04T12:30:41.000Z</time>
      </trkpt>
      <trkpt lat="45.88334" lon="4.55906">
        <ele>332.40057</ele>
        <time>2022-10-04T12:30:42.000Z</time>
      </trkpt>
      <trkpt lat="45.88332" lon="4.55908">
        <ele>332.33694</ele>
        <time>2022-10-04T12:30:43.000Z</time>
      </trkpt>
      <trkpt lat="45.8833" lon="4.5591">
        <ele>332.34186</ele>
        <time>2022-10-04T12:30:44.000Z</time>
      </trkpt>
      <trkpt lat="45.88327" lon="4.55912">
        <ele>332.36316</ele>
        <time>2022-10-04T12:30:45.000Z</time>
      </trkpt>
      <trkpt lat="45.88325" lon="4.55914">
        <ele>332.31613</ele>
        <time>2022-10-04T12:30:46.000Z</time>
      </trkpt>
      <trkpt lat="45.88323" lon="4.55917">
        <ele>332.33148</ele>
        <time>2022-10-04T12:30:47.000Z</time>
      </trkpt>
      <trkpt lat="45.88321" lon="4.55919">
        <ele>332.32687</ele>
        <time>2022-10-04T12:30:48.000Z</time>
      </trkpt>
      <trkpt lat="45.88318" lon="4.55921">
        <ele>332.42407</ele>
        <time>2022-10-04T12:30:49.000Z</time>
      </trkpt>
      <trkpt lat="45.88316" lon="4.55924">
        <ele>332.47089</ele>
        <time>2022-10-04T12:30:50.000Z</time>
      </trkpt>
      <trkpt lat="45.88314" lon="4.55926">
        <ele>332.53333</ele>
        <time>2022-10-04T12:30:51.000Z</time>
      </trkpt>
      <trkpt lat="45.88312" lon="4.55929">
        <ele>332.63583</ele>
        <time>2022-10-04T12:30:52.000Z</time>
      </trkpt>
      <trkpt lat="45.8831" lon="4.55931">
        <ele>332.7381</ele>
        <time>2022-10-04T12:30:53.000Z</time>
      </trkpt>
      <trkpt lat="45.88307" lon="4.55933">
        <ele>332.86926</ele>
        <time>2022-10-04T12:30:54.000Z</time>
      </trkpt>
      <trkpt lat="45.88305" lon="4.55935">
        <ele>332.90179</ele>
        <time>2022-10-04T12:30:55.000Z</time>
      </trkpt>
      <trkpt lat="45.88303" lon="4.55938">
        <ele>332.99506</ele>
        <time>2022-10-04T12:30:56.000Z</time>
      </trkpt>
      <trkpt lat="45.883" lon="4.5594">
        <ele>333.05084</ele>
        <time>2022-10-04T12:30:57.000Z</time>
      </trkpt>
      <trkpt lat="45.88298" lon="4.55942">
        <ele>333.09137</ele>
        <time>2022-10-04T12:30:58.000Z</time>
      </trkpt>
      <trkpt lat="45.88295" lon="4.55945">
        <ele>333.12793</ele>
        <time>2022-10-04T12:30:59.000Z</time>
      </trkpt>
      <trkpt lat="45.88293" lon="4.55947">
        <ele>333.12799</ele>
        <time>2022-10-04T12:31:00.000Z</time>
      </trkpt>
      <trkpt lat="45.88291" lon="4.55949">
        <ele>333.13422</ele>
        <time>2022-10-04T12:31:01.000Z</time>
      </trkpt>
      <trkpt lat="45.88289" lon="4.55951">
        <ele>333.21002</ele>
        <time>2022-10-04T12:31:02.000Z</time>
      </trkpt>
      <trkpt lat="45.88286" lon="4.55953">
        <ele>333.27527</ele>
        <time>2022-10-04T12:31:03.000Z</time>
      </trkpt>
      <trkpt lat="45.88283" lon="4.55955">
        <ele>333.29791</ele>
        <time>2022-10-04T12:31:04.000Z</time>
      </trkpt>
      <trkpt lat="45.88281" lon="4.55957">
        <ele>333.24896</ele>
        <time>2022-10-04T12:31:05.000Z</time>
      </trkpt>
      <trkpt lat="45.88278" lon="4.55959">
        <ele>333.30368</ele>
        <time>2022-10-04T12:31:06.000Z</time>
      </trkpt>
      <trkpt lat="45.88276" lon="4.55961">
        <ele>333.3884</ele>
        <time>2022-10-04T12:31:07.000Z</time>
      </trkpt>
      <trkpt lat="45.88273" lon="4.55962">
        <ele>333.55157</ele>
        <time>2022-10-04T12:31:08.000Z</time>
      </trkpt>
      <trkpt lat="45.88271" lon="4.55963">
        <ele>333.75241</ele>
        <time>2022-10-04T12:31:09.000Z</time>
      </trkpt>
      <trkpt lat="45.88268" lon="4.55964">
        <ele>334.09683</ele>
        <time>2022-10-04T12:31:10.000Z</time>
      </trkpt>
      <trkpt lat="45.88266" lon="4.55965">
        <ele>334.414</ele>
        <time>2022-10-04T12:31:11.000Z</time>
      </trkpt>
      <trkpt lat="45.88263" lon="4.55966">
        <ele>334.70322</ele>
        <time>2022-10-04T12:31:12.000Z</time>
      </trkpt>
      <trkpt lat="45.88261" lon="4.55967">
        <ele>335.02777</ele>
        <time>2022-10-04T12:31:13.000Z</time>
      </trkpt>
      <trkpt lat="45.88259" lon="4.55968">
        <ele>335.35553</ele>
        <time>2022-10-04T12:31:14.000Z</time>
      </trkpt>
      <trkpt lat="45.88256" lon="4.55969">
        <ele>335.74838</ele>
        <time>2022-10-04T12:31:15.000Z</time>
      </trkpt>
      <trkpt lat="45.88253" lon="4.55971">
        <ele>336.16251</ele>
        <time>2022-10-04T12:31:16.000Z</time>
      </trkpt>
      <trkpt lat="45.88251" lon="4.55972">
        <ele>336.6568</ele>
        <time>2022-10-04T12:31:17.000Z</time>
      </trkpt>
      <trkpt lat="45.88248" lon="4.55974">
        <ele>337.17676</ele>
        <time>2022-10-04T12:31:18.000Z</time>
      </trkpt>
      <trkpt lat="45.88245" lon="4.55974">
        <ele>337.71661</ele>
        <time>2022-10-04T12:31:19.000Z</time>
      </trkpt>
      <trkpt lat="45.88242" lon="4.55975">
        <ele>338.21042</ele>
        <time>2022-10-04T12:31:20.000Z</time>
      </trkpt>
      <trkpt lat="45.88239" lon="4.55976">
        <ele>338.71448</ele>
        <time>2022-10-04T12:31:21.000Z</time>
      </trkpt>
      <trkpt lat="45.88236" lon="4.55977">
        <ele>339.18915</ele>
        <time>2022-10-04T12:31:22.000Z</time>
      </trkpt>
      <trkpt lat="45.88233" lon="4.55978">
        <ele>339.67719</ele>
        <time>2022-10-04T12:31:23.000Z</time>
      </trkpt>
      <trkpt lat="45.8823" lon="4.55978">
        <ele>340.13904</ele>
        <time>2022-10-04T12:31:24.000Z</time>
      </trkpt>
      <trkpt lat="45.88227" lon="4.55979">
        <ele>340.60419</ele>
        <time>2022-10-04T12:31:25.000Z</time>
      </trkpt>
      <trkpt lat="45.88224" lon="4.5598">
        <ele>340.92804</ele>
        <time>2022-10-04T12:31:26.000Z</time>
      </trkpt>
      <trkpt lat="45.88221" lon="4.5598">
        <ele>341.21494</ele>
        <time>2022-10-04T12:31:27.000Z</time>
      </trkpt>
      <trkpt lat="45.88218" lon="4.5598">
        <ele>341.40082</ele>
        <time>2022-10-04T12:31:28.000Z</time>
      </trkpt>
      <trkpt lat="45.88215" lon="4.5598">
        <ele>341.57315</ele>
        <time>2022-10-04T12:31:29.000Z</time>
      </trkpt>
      <trkpt lat="45.88212" lon="4.5598">
        <ele>341.70877</ele>
        <time>2022-10-04T12:31:30.000Z</time>
      </trkpt>
      <trkpt lat="45.88209" lon="4.5598">
        <ele>341.88959</ele>
        <time>2022-10-04T12:31:31.000Z</time>
      </trkpt>
      <trkpt lat="45.88206" lon="4.5598">
        <ele>342.15915</ele>
        <time>2022-10-04T12:31:32.000Z</time>
      </trkpt>
      <trkpt lat="45.88203" lon="4.5598">
        <ele>342.53683</ele>
        <time>2022-10-04T12:31:33.000Z</time>
      </trkpt>
      <trkpt lat="45.882" lon="4.55981">
        <ele>342.96893</ele>
        <time>2022-10-04T12:31:34.000Z</time>
      </trkpt>
      <trkpt lat="45.88197" lon="4.55981">
        <ele>343.41562</ele>
        <time>2022-10-04T12:31:35.000Z</time>
      </trkpt>
      <trkpt lat="45.88194" lon="4.5598">
        <ele>343.8493</ele>
        <time>2022-10-04T12:31:36.000Z</time>
      </trkpt>
      <trkpt lat="45.88191" lon="4.55979">
        <ele>344.24805</ele>
        <time>2022-10-04T12:31:37.000Z</time>
      </trkpt>
      <trkpt lat="45.88188" lon="4.55978">
        <ele>344.62006</ele>
        <time>2022-10-04T12:31:38.000Z</time>
      </trkpt>
      <trkpt lat="45.88185" lon="4.55978">
        <ele>344.95862</ele>
        <time>2022-10-04T12:31:39.000Z</time>
      </trkpt>
      <trkpt lat="45.88181" lon="4.55977">
        <ele>345.35681</ele>
        <time>2022-10-04T12:31:40.000Z</time>
      </trkpt>
      <trkpt lat="45.88179" lon="4.55976">
        <ele>345.75433</ele>
        <time>2022-10-04T12:31:41.000Z</time>
      </trkpt>
      <trkpt lat="45.88176" lon="4.55976">
        <ele>346.12653</ele>
        <time>2022-10-04T12:31:42.000Z</time>
      </trkpt>
      <trkpt lat="45.88173" lon="4.55975">
        <ele>346.45871</ele>
        <time>2022-10-04T12:31:43.000Z</time>
      </trkpt>
      <trkpt lat="45.8817" lon="4.55975">
        <ele>346.85382</ele>
        <time>2022-10-04T12:31:44.000Z</time>
      </trkpt>
      <trkpt lat="45.88167" lon="4.55974">
        <ele>347.27512</ele>
        <time>2022-10-04T12:31:45.000Z</time>
      </trkpt>
      <trkpt lat="45.88165" lon="4.55973">
        <ele>347.8649</ele>
        <time>2022-10-04T12:31:46.000Z</time>
      </trkpt>
      <trkpt lat="45.88162" lon="4.55973">
        <ele>348.45804</ele>
        <time>2022-10-04T12:31:47.000Z</time>
      </trkpt>
      <trkpt lat="45.88159" lon="4.55973">
        <ele>349.08261</ele>
        <time>2022-10-04T12:31:48.000Z</time>
      </trkpt>
      <trkpt lat="45.88156" lon="4.55973">
        <ele>349.63885</ele>
        <time>2022-10-04T12:31:49.000Z</time>
      </trkpt>
      <trkpt lat="45.88153" lon="4.55972">
        <ele>350.04608</ele>
        <time>2022-10-04T12:31:50.000Z</time>
      </trkpt>
      <trkpt lat="45.8815" lon="4.55972">
        <ele>350.40158</ele>
        <time>2022-10-04T12:31:51.000Z</time>
      </trkpt>
      <trkpt lat="45.88148" lon="4.55971">
        <ele>350.70218</ele>
        <time>2022-10-04T12:31:52.000Z</time>
      </trkpt>
      <trkpt lat="45.88145" lon="4.55971">
        <ele>350.80817</ele>
        <time>2022-10-04T12:31:53.000Z</time>
      </trkpt>
      <trkpt lat="45.88141" lon="4.5597">
        <ele>350.83563</ele>
        <time>2022-10-04T12:31:54.000Z</time>
      </trkpt>
      <trkpt lat="45.88138" lon="4.5597">
        <ele>350.90695</ele>
        <time>2022-10-04T12:31:55.000Z</time>
      </trkpt>
      <trkpt lat="45.88135" lon="4.5597">
        <ele>350.94662</ele>
        <time>2022-10-04T12:31:56.000Z</time>
      </trkpt>
      <trkpt lat="45.88132" lon="4.5597">
        <ele>351.00308</ele>
        <time>2022-10-04T12:31:57.000Z</time>
      </trkpt>
      <trkpt lat="45.88129" lon="4.5597">
        <ele>351.1109</ele>
        <time>2022-10-04T12:31:58.000Z</time>
      </trkpt>
      <trkpt lat="45.88126" lon="4.5597">
        <ele>351.18994</ele>
        <time>2022-10-04T12:31:59.000Z</time>
      </trkpt>
      <trkpt lat="45.88124" lon="4.5597">
        <ele>351.3201</ele>
        <time>2022-10-04T12:32:00.000Z</time>
      </trkpt>
      <trkpt lat="45.88121" lon="4.5597">
        <ele>351.46835</ele>
        <time>2022-10-04T12:32:01.000Z</time>
      </trkpt>
      <trkpt lat="45.88118" lon="4.5597">
        <ele>351.647</ele>
        <time>2022-10-04T12:32:02.000Z</time>
      </trkpt>
      <trkpt lat="45.88115" lon="4.55971">
        <ele>351.8154</ele>
        <time>2022-10-04T12:32:03.000Z</time>
      </trkpt>
      <trkpt lat="45.88112" lon="4.55971">
        <ele>351.88068</ele>
        <time>2022-10-04T12:32:04.000Z</time>
      </trkpt>
      <trkpt lat="45.8811" lon="4.55971">
        <ele>351.91653</ele>
        <time>2022-10-04T12:32:05.000Z</time>
      </trkpt>
      <trkpt lat="45.88107" lon="4.55971">
        <ele>351.79407</ele>
        <time>2022-10-04T12:32:06.000Z</time>
      </trkpt>
      <trkpt lat="45.88104" lon="4.55971">
        <ele>351.64493</ele>
        <time>2022-10-04T12:32:07.000Z</time>
      </trkpt>
      <trkpt lat="45.88102" lon="4.55971">
        <ele>351.48343</ele>
        <time>2022-10-04T12:32:08.000Z</time>
      </trkpt>
      <trkpt lat="45.88099" lon="4.55972">
        <ele>351.35983</ele>
        <time>2022-10-04T12:32:09.000Z</time>
      </trkpt>
      <trkpt lat="45.88096" lon="4.55972">
        <ele>351.28253</ele>
        <time>2022-10-04T12:32:10.000Z</time>
      </trkpt>
      <trkpt lat="45.88093" lon="4.55971">
        <ele>351.14078</ele>
        <time>2022-10-04T12:32:11.000Z</time>
      </trkpt>
      <trkpt lat="45.88091" lon="4.55971">
        <ele>351.10837</ele>
        <time>2022-10-04T12:32:12.000Z</time>
      </trkpt>
      <trkpt lat="45.88075" lon="4.55971">
        <ele>351.10031</ele>
        <time>2022-10-04T12:32:18.000Z</time>
      </trkpt>
      <trkpt lat="45.88073" lon="4.55972">
        <ele>351.09027</ele>
        <time>2022-10-04T12:32:19.000Z</time>
      </trkpt>
      <trkpt lat="45.88069" lon="4.55972">
        <ele>350.97556</ele>
        <time>2022-10-04T12:32:20.000Z</time>
      </trkpt>
      <trkpt lat="45.88066" lon="4.55973">
        <ele>350.84259</ele>
        <time>2022-10-04T12:32:21.000Z</time>
      </trkpt>
      <trkpt lat="45.88063" lon="4.55973">
        <ele>350.67303</ele>
        <time>2022-10-04T12:32:22.000Z</time>
      </trkpt>
      <trkpt lat="45.88059" lon="4.55974">
        <ele>350.41333</ele>
        <time>2022-10-04T12:32:23.000Z</time>
      </trkpt>
      <trkpt lat="45.88056" lon="4.55973">
        <ele>350.14249</ele>
        <time>2022-10-04T12:32:24.000Z</time>
      </trkpt>
      <trkpt lat="45.88053" lon="4.55973">
        <ele>349.87289</ele>
        <time>2022-10-04T12:32:25.000Z</time>
      </trkpt>
      <trkpt lat="45.8805" lon="4.55974">
        <ele>349.59134</ele>
        <time>2022-10-04T12:32:26.000Z</time>
      </trkpt>
      <trkpt lat="45.88047" lon="4.55974">
        <ele>349.2999</ele>
        <time>2022-10-04T12:32:27.000Z</time>
      </trkpt>
      <trkpt lat="45.88044" lon="4.55974">
        <ele>348.99442</ele>
        <time>2022-10-04T12:32:28.000Z</time>
      </trkpt>
      <trkpt lat="45.88041" lon="4.55974">
        <ele>348.78625</ele>
        <time>2022-10-04T12:32:29.000Z</time>
      </trkpt>
      <trkpt lat="45.88038" lon="4.55974">
        <ele>348.70102</ele>
        <time>2022-10-04T12:32:30.000Z</time>
      </trkpt>
      <trkpt lat="45.88035" lon="4.55974">
        <ele>348.66412</ele>
        <time>2022-10-04T12:32:31.000Z</time>
      </trkpt>
      <trkpt lat="45.88032" lon="4.55974">
        <ele>348.57245</ele>
        <time>2022-10-04T12:32:32.000Z</time>
      </trkpt>
      <trkpt lat="45.8803" lon="4.55975">
        <ele>348.34644</ele>
        <time>2022-10-04T12:32:33.000Z</time>
      </trkpt>
      <trkpt lat="45.88027" lon="4.55975">
        <ele>348.08899</ele>
        <time>2022-10-04T12:32:34.000Z</time>
      </trkpt>
      <trkpt lat="45.88024" lon="4.55975">
        <ele>347.9642</ele>
        <time>2022-10-04T12:32:35.000Z</time>
      </trkpt>
      <trkpt lat="45.88022" lon="4.55975">
        <ele>347.93259</ele>
        <time>2022-10-04T12:32:36.000Z</time>
      </trkpt>
      <trkpt lat="45.8802" lon="4.55975">
        <ele>347.81464</ele>
        <time>2022-10-04T12:32:37.000Z</time>
      </trkpt>
      <trkpt lat="45.88018" lon="4.55975">
        <ele>347.66696</ele>
        <time>2022-10-04T12:32:38.000Z</time>
      </trkpt>
      <trkpt lat="45.88016" lon="4.55975">
        <ele>347.17303</ele>
        <time>2022-10-04T12:32:39.000Z</time>
      </trkpt>
      <trkpt lat="45.88014" lon="4.55975">
        <ele>346.75232</ele>
        <time>2022-10-04T12:32:40.000Z</time>
      </trkpt>
      <trkpt lat="45.88011" lon="4.55974">
        <ele>346.36322</ele>
        <time>2022-10-04T12:32:41.000Z</time>
      </trkpt>
      <trkpt lat="45.88009" lon="4.55974">
        <ele>346.01736</ele>
        <time>2022-10-04T12:32:42.000Z</time>
      </trkpt>
      <trkpt lat="45.88006" lon="4.55974">
        <ele>345.86237</ele>
        <time>2022-10-04T12:32:44.000Z</time>
      </trkpt>
      <trkpt lat="45.88004" lon="4.55975">
        <ele>345.78751</ele>
        <time>2022-10-04T12:32:46.000Z</time>
      </trkpt>
      <trkpt lat="45.88004" lon="4.55973">
        <ele>345.93756</ele>
        <time>2022-10-04T12:33:29.000Z</time>
      </trkpt>
      <trkpt lat="45.88005" lon="4.5597">
        <ele>346.46933</ele>
        <time>2022-10-04T12:34:02.000Z</time>
      </trkpt>
      <trkpt lat="45.88006" lon="4.55968">
        <ele>347.01761</ele>
        <time>2022-10-04T12:34:16.000Z</time>
      </trkpt>
      <trkpt lat="45.88004" lon="4.55967">
        <ele>347.73575</ele>
        <time>2022-10-04T12:39:20.000Z</time>
      </trkpt>
      <trkpt lat="45.88001" lon="4.55967">
        <ele>348.31635</ele>
        <time>2022-10-04T12:39:22.000Z</time>
      </trkpt>
      <trkpt lat="45.87999" lon="4.55967">
        <ele>348.84943</ele>
        <time>2022-10-04T12:39:23.000Z</time>
      </trkpt>
      <trkpt lat="45.87997" lon="4.55966">
        <ele>349.47211</ele>
        <time>2022-10-04T12:39:24.000Z</time>
      </trkpt>
      <trkpt lat="45.87995" lon="4.55966">
        <ele>350.22464</ele>
        <time>2022-10-04T12:39:25.000Z</time>
      </trkpt>
      <trkpt lat="45.87992" lon="4.55967">
        <ele>351.16202</ele>
        <time>2022-10-04T12:39:26.000Z</time>
      </trkpt>
      <trkpt lat="45.8799" lon="4.55968">
        <ele>352.12018</ele>
        <time>2022-10-04T12:39:27.000Z</time>
      </trkpt>
      <trkpt lat="45.87988" lon="4.55969">
        <ele>352.9975</ele>
        <time>2022-10-04T12:39:28.000Z</time>
      </trkpt>
      <trkpt lat="45.87985" lon="4.55969">
        <ele>353.7818</ele>
        <time>2022-10-04T12:39:29.000Z</time>
      </trkpt>
      <trkpt lat="45.87983" lon="4.55969">
        <ele>354.50931</ele>
        <time>2022-10-04T12:39:30.000Z</time>
      </trkpt>
      <trkpt lat="45.87981" lon="4.55968">
        <ele>355.24945</ele>
        <time>2022-10-04T12:39:31.000Z</time>
      </trkpt>
      <trkpt lat="45.87979" lon="4.55967">
        <ele>356.36325</ele>
        <time>2022-10-04T12:39:32.000Z</time>
      </trkpt>
      <trkpt lat="45.87976" lon="4.55966">
        <ele>357.43744</ele>
        <time>2022-10-04T12:39:33.000Z</time>
      </trkpt>
      <trkpt lat="45.87974" lon="4.55966">
        <ele>358.4942</ele>
        <time>2022-10-04T12:39:34.000Z</time>
      </trkpt>
      <trkpt lat="45.87972" lon="4.55967">
        <ele>359.60254</ele>
        <time>2022-10-04T12:39:35.000Z</time>
      </trkpt>
      <trkpt lat="45.8797" lon="4.55969">
        <ele>360.56314</ele>
        <time>2022-10-04T12:39:36.000Z</time>
      </trkpt>
      <trkpt lat="45.87968" lon="4.5597">
        <ele>361.51151</ele>
        <time>2022-10-04T12:39:37.000Z</time>
      </trkpt>
      <trkpt lat="45.87966" lon="4.5597">
        <ele>362.16437</ele>
        <time>2022-10-04T12:39:38.000Z</time>
      </trkpt>
      <trkpt lat="45.87964" lon="4.5597">
        <ele>362.34866</ele>
        <time>2022-10-04T12:39:39.000Z</time>
      </trkpt>
      <trkpt lat="45.87963" lon="4.55969">
        <ele>362.54352</ele>
        <time>2022-10-04T12:39:40.000Z</time>
      </trkpt>
      <trkpt lat="45.87961" lon="4.55967">
        <ele>362.59198</ele>
        <time>2022-10-04T12:39:41.000Z</time>
      </trkpt>
      <trkpt lat="45.87959" lon="4.55965">
        <ele>362.73431</ele>
        <time>2022-10-04T12:39:42.000Z</time>
      </trkpt>
      <trkpt lat="45.87957" lon="4.55963">
        <ele>362.83725</ele>
        <time>2022-10-04T12:39:43.000Z</time>
      </trkpt>
      <trkpt lat="45.87956" lon="4.55961">
        <ele>362.86713</ele>
        <time>2022-10-04T12:39:44.000Z</time>
      </trkpt>
      <trkpt lat="45.87954" lon="4.55958">
        <ele>362.77097</ele>
        <time>2022-10-04T12:39:45.000Z</time>
      </trkpt>
      <trkpt lat="45.87953" lon="4.55956">
        <ele>362.58063</ele>
        <time>2022-10-04T12:39:46.000Z</time>
      </trkpt>
      <trkpt lat="45.87951" lon="4.55955">
        <ele>362.31403</ele>
        <time>2022-10-04T12:39:48.000Z</time>
      </trkpt>
      <trkpt lat="45.87951" lon="4.55958">
        <ele>362.12479</ele>
        <time>2022-10-04T12:39:54.000Z</time>
      </trkpt>
      <trkpt lat="45.87949" lon="4.55958">
        <ele>361.92596</ele>
        <time>2022-10-04T12:40:48.000Z</time>
      </trkpt>
      <trkpt lat="45.87946" lon="4.55959">
        <ele>361.75726</ele>
        <time>2022-10-04T12:40:50.000Z</time>
      </trkpt>
      <trkpt lat="45.87945" lon="4.55962">
        <ele>361.52719</ele>
        <time>2022-10-04T12:40:51.000Z</time>
      </trkpt>
      <trkpt lat="45.87945" lon="4.55965">
        <ele>361.21783</ele>
        <time>2022-10-04T12:40:52.000Z</time>
      </trkpt>
      <trkpt lat="45.87946" lon="4.55968">
        <ele>360.98453</ele>
        <time>2022-10-04T12:40:53.000Z</time>
      </trkpt>
      <trkpt lat="45.87948" lon="4.5597">
        <ele>360.77148</ele>
        <time>2022-10-04T12:40:54.000Z</time>
      </trkpt>
      <trkpt lat="45.8795" lon="4.55973">
        <ele>360.48312</ele>
        <time>2022-10-04T12:40:55.000Z</time>
      </trkpt>
      <trkpt lat="45.87952" lon="4.55975">
        <ele>360.23163</ele>
        <time>2022-10-04T12:40:56.000Z</time>
      </trkpt>
      <trkpt lat="45.87954" lon="4.55978">
        <ele>359.93793</ele>
        <time>2022-10-04T12:40:57.000Z</time>
      </trkpt>
      <trkpt lat="45.87956" lon="4.5598">
        <ele>359.69144</ele>
        <time>2022-10-04T12:40:58.000Z</time>
      </trkpt>
      <trkpt lat="45.87959" lon="4.55983">
        <ele>359.49002</ele>
        <time>2022-10-04T12:40:59.000Z</time>
      </trkpt>
      <trkpt lat="45.87961" lon="4.55985">
        <ele>359.23999</ele>
        <time>2022-10-04T12:41:00.000Z</time>
      </trkpt>
      <trkpt lat="45.87964" lon="4.55987">
        <ele>358.99399</ele>
        <time>2022-10-04T12:41:01.000Z</time>
      </trkpt>
      <trkpt lat="45.87966" lon="4.5599">
        <ele>358.71149</ele>
        <time>2022-10-04T12:41:02.000Z</time>
      </trkpt>
      <trkpt lat="45.87969" lon="4.55993">
        <ele>358.3877</ele>
        <time>2022-10-04T12:41:03.000Z</time>
      </trkpt>
      <trkpt lat="45.87971" lon="4.55996">
        <ele>358.11172</ele>
        <time>2022-10-04T12:41:04.000Z</time>
      </trkpt>
      <trkpt lat="45.87974" lon="4.55999">
        <ele>357.90671</ele>
        <time>2022-10-04T12:41:05.000Z</time>
      </trkpt>
      <trkpt lat="45.87976" lon="4.56002">
        <ele>357.69141</ele>
        <time>2022-10-04T12:41:06.000Z</time>
      </trkpt>
      <trkpt lat="45.87978" lon="4.56005">
        <ele>357.56833</ele>
        <time>2022-10-04T12:41:07.000Z</time>
      </trkpt>
      <trkpt lat="45.87981" lon="4.56008">
        <ele>357.36386</ele>
        <time>2022-10-04T12:41:08.000Z</time>
      </trkpt>
      <trkpt lat="45.87984" lon="4.5601">
        <ele>357.26556</ele>
        <time>2022-10-04T12:41:09.000Z</time>
      </trkpt>
      <trkpt lat="45.87987" lon="4.56012">
        <ele>357.16757</ele>
        <time>2022-10-04T12:41:10.000Z</time>
      </trkpt>
      <trkpt lat="45.87991" lon="4.56013">
        <ele>357.24927</ele>
        <time>2022-10-04T12:41:11.000Z</time>
      </trkpt>
      <trkpt lat="45.87994" lon="4.56015">
        <ele>357.35416</ele>
        <time>2022-10-04T12:41:12.000Z</time>
      </trkpt>
      <trkpt lat="45.87998" lon="4.56017">
        <ele>357.42139</ele>
        <time>2022-10-04T12:41:13.000Z</time>
      </trkpt>
      <trkpt lat="45.88002" lon="4.56018">
        <ele>357.54913</ele>
        <time>2022-10-04T12:41:14.000Z</time>
      </trkpt>
      <trkpt lat="45.88006" lon="4.56018">
        <ele>357.84875</ele>
        <time>2022-10-04T12:41:15.000Z</time>
      </trkpt>
      <trkpt lat="45.88011" lon="4.56018">
        <ele>358.12363</ele>
        <time>2022-10-04T12:41:16.000Z</time>
      </trkpt>
      <trkpt lat="45.88016" lon="4.56019">
        <ele>358.5</ele>
        <time>2022-10-04T12:41:17.000Z</time>
      </trkpt>
      <trkpt lat="45.8802" lon="4.56019">
        <ele>358.9191</ele>
        <time>2022-10-04T12:41:18.000Z</time>
      </trkpt>
      <trkpt lat="45.88025" lon="4.56019">
        <ele>359.42068</ele>
        <time>2022-10-04T12:41:19.000Z</time>
      </trkpt>
      <trkpt lat="45.88029" lon="4.56019">
        <ele>359.99942</ele>
        <time>2022-10-04T12:41:20.000Z</time>
      </trkpt>
      <trkpt lat="45.88034" lon="4.5602">
        <ele>360.5817</ele>
        <time>2022-10-04T12:41:21.000Z</time>
      </trkpt>
      <trkpt lat="45.88041" lon="4.56021">
        <ele>361.21957</ele>
        <time>2022-10-04T12:41:22.000Z</time>
      </trkpt>
      <trkpt lat="45.88046" lon="4.56025">
        <ele>361.81723</ele>
        <time>2022-10-04T12:41:23.000Z</time>
      </trkpt>
      <trkpt lat="45.88052" lon="4.56027">
        <ele>362.27042</ele>
        <time>2022-10-04T12:41:24.000Z</time>
      </trkpt>
      <trkpt lat="45.88057" lon="4.56029">
        <ele>362.70621</ele>
        <time>2022-10-04T12:41:25.000Z</time>
      </trkpt>
      <trkpt lat="45.88061" lon="4.56031">
        <ele>363.19577</ele>
        <time>2022-10-04T12:41:26.000Z</time>
      </trkpt>
      <trkpt lat="45.88067" lon="4.56031">
        <ele>363.62299</ele>
        <time>2022-10-04T12:41:27.000Z</time>
      </trkpt>
      <trkpt lat="45.8807" lon="4.56033">
        <ele>364.00226</ele>
        <time>2022-10-04T12:41:28.000Z</time>
      </trkpt>
      <trkpt lat="45.88074" lon="4.56035">
        <ele>364.375</ele>
        <time>2022-10-04T12:41:29.000Z</time>
      </trkpt>
      <trkpt lat="45.88077" lon="4.56038">
        <ele>364.84821</ele>
        <time>2022-10-04T12:41:30.000Z</time>
      </trkpt>
      <trkpt lat="45.88081" lon="4.5604">
        <ele>365.22845</ele>
        <time>2022-10-04T12:41:31.000Z</time>
      </trkpt>
      <trkpt lat="45.88084" lon="4.56043">
        <ele>365.64423</ele>
        <time>2022-10-04T12:41:32.000Z</time>
      </trkpt>
      <trkpt lat="45.88088" lon="4.56045">
        <ele>366.08389</ele>
        <time>2022-10-04T12:41:33.000Z</time>
      </trkpt>
      <trkpt lat="45.88092" lon="4.56047">
        <ele>366.44193</ele>
        <time>2022-10-04T12:41:34.000Z</time>
      </trkpt>
      <trkpt lat="45.88095" lon="4.56049">
        <ele>366.62451</ele>
        <time>2022-10-04T12:41:35.000Z</time>
      </trkpt>
      <trkpt lat="45.88098" lon="4.56053">
        <ele>366.83099</ele>
        <time>2022-10-04T12:41:36.000Z</time>
      </trkpt>
      <trkpt lat="45.88101" lon="4.56055">
        <ele>366.86206</ele>
        <time>2022-10-04T12:41:37.000Z</time>
      </trkpt>
      <trkpt lat="45.88105" lon="4.56058">
        <ele>366.84546</ele>
        <time>2022-10-04T12:41:38.000Z</time>
      </trkpt>
      <trkpt lat="45.88107" lon="4.56062">
        <ele>366.8107</ele>
        <time>2022-10-04T12:41:39.000Z</time>
      </trkpt>
      <trkpt lat="45.8811" lon="4.56066">
        <ele>366.68329</ele>
        <time>2022-10-04T12:41:40.000Z</time>
      </trkpt>
      <trkpt lat="45.88112" lon="4.56069">
        <ele>366.51141</ele>
        <time>2022-10-04T12:41:41.000Z</time>
      </trkpt>
      <trkpt lat="45.88114" lon="4.56073">
        <ele>366.27289</ele>
        <time>2022-10-04T12:41:42.000Z</time>
      </trkpt>
      <trkpt lat="45.88117" lon="4.56077">
        <ele>366.13129</ele>
        <time>2022-10-04T12:41:43.000Z</time>
      </trkpt>
      <trkpt lat="45.88119" lon="4.56081">
        <ele>366.07062</ele>
        <time>2022-10-04T12:41:44.000Z</time>
      </trkpt>
      <trkpt lat="45.88121" lon="4.56085">
        <ele>365.99112</ele>
        <time>2022-10-04T12:41:45.000Z</time>
      </trkpt>
      <trkpt lat="45.88123" lon="4.56089">
        <ele>365.89609</ele>
        <time>2022-10-04T12:41:46.000Z</time>
      </trkpt>
      <trkpt lat="45.88125" lon="4.56093">
        <ele>365.85223</ele>
        <time>2022-10-04T12:41:47.000Z</time>
      </trkpt>
      <trkpt lat="45.88127" lon="4.56097">
        <ele>365.9053</ele>
        <time>2022-10-04T12:41:48.000Z</time>
      </trkpt>
      <trkpt lat="45.88129" lon="4.56101">
        <ele>365.94098</ele>
        <time>2022-10-04T12:41:49.000Z</time>
      </trkpt>
      <trkpt lat="45.88131" lon="4.56105">
        <ele>365.9552</ele>
        <time>2022-10-04T12:41:50.000Z</time>
      </trkpt>
      <trkpt lat="45.88133" lon="4.56109">
        <ele>365.96017</ele>
        <time>2022-10-04T12:41:51.000Z</time>
      </trkpt>
      <trkpt lat="45.88136" lon="4.56113">
        <ele>365.98911</ele>
        <time>2022-10-04T12:41:52.000Z</time>
      </trkpt>
      <trkpt lat="45.88138" lon="4.56118">
        <ele>365.98538</ele>
        <time>2022-10-04T12:41:53.000Z</time>
      </trkpt>
      <trkpt lat="45.8814" lon="4.56122">
        <ele>366.03217</ele>
        <time>2022-10-04T12:41:54.000Z</time>
      </trkpt>
      <trkpt lat="45.88142" lon="4.56127">
        <ele>366.08014</ele>
        <time>2022-10-04T12:41:55.000Z</time>
      </trkpt>
      <trkpt lat="45.88143" lon="4.56131">
        <ele>366.11923</ele>
        <time>2022-10-04T12:41:56.000Z</time>
      </trkpt>
      <trkpt lat="45.88144" lon="4.56136">
        <ele>366.23087</ele>
        <time>2022-10-04T12:41:57.000Z</time>
      </trkpt>
      <trkpt lat="45.88145" lon="4.56141">
        <ele>366.25638</ele>
        <time>2022-10-04T12:41:58.000Z</time>
      </trkpt>
      <trkpt lat="45.88145" lon="4.56146">
        <ele>366.30609</ele>
        <time>2022-10-04T12:41:59.000Z</time>
      </trkpt>
      <trkpt lat="45.88146" lon="4.56151">
        <ele>366.40887</ele>
        <time>2022-10-04T12:42:00.000Z</time>
      </trkpt>
      <trkpt lat="45.88146" lon="4.56156">
        <ele>366.56012</ele>
        <time>2022-10-04T12:42:01.000Z</time>
      </trkpt>
      <trkpt lat="45.88145" lon="4.56162">
        <ele>366.7533</ele>
        <time>2022-10-04T12:42:02.000Z</time>
      </trkpt>
      <trkpt lat="45.88144" lon="4.56168">
        <ele>367.02045</ele>
        <time>2022-10-04T12:42:03.000Z</time>
      </trkpt>
      <trkpt lat="45.88143" lon="4.56174">
        <ele>367.2348</ele>
        <time>2022-10-04T12:42:04.000Z</time>
      </trkpt>
      <trkpt lat="45.88141" lon="4.5618">
        <ele>367.50058</ele>
        <time>2022-10-04T12:42:05.000Z</time>
      </trkpt>
      <trkpt lat="45.88139" lon="4.56185">
        <ele>367.74524</ele>
        <time>2022-10-04T12:42:06.000Z</time>
      </trkpt>
      <trkpt lat="45.88137" lon="4.56189">
        <ele>368.01157</ele>
        <time>2022-10-04T12:42:07.000Z</time>
      </trkpt>
      <trkpt lat="45.88134" lon="4.56194">
        <ele>368.31909</ele>
        <time>2022-10-04T12:42:08.000Z</time>
      </trkpt>
      <trkpt lat="45.88132" lon="4.56198">
        <ele>368.62897</ele>
        <time>2022-10-04T12:42:09.000Z</time>
      </trkpt>
      <trkpt lat="45.88129" lon="4.56202">
        <ele>368.86957</ele>
        <time>2022-10-04T12:42:10.000Z</time>
      </trkpt>
      <trkpt lat="45.88127" lon="4.56206">
        <ele>369.14395</ele>
        <time>2022-10-04T12:42:11.000Z</time>
      </trkpt>
      <trkpt lat="45.88124" lon="4.56209">
        <ele>369.31198</ele>
        <time>2022-10-04T12:42:12.000Z</time>
      </trkpt>
      <trkpt lat="45.88121" lon="4.56212">
        <ele>369.39145</ele>
        <time>2022-10-04T12:42:13.000Z</time>
      </trkpt>
      <trkpt lat="45.88118" lon="4.56216">
        <ele>369.45114</ele>
        <time>2022-10-04T12:42:14.000Z</time>
      </trkpt>
      <trkpt lat="45.88115" lon="4.56219">
        <ele>369.4743</ele>
        <time>2022-10-04T12:42:15.000Z</time>
      </trkpt>
      <trkpt lat="45.88111" lon="4.56221">
        <ele>369.51468</ele>
        <time>2022-10-04T12:42:16.000Z</time>
      </trkpt>
      <trkpt lat="45.88108" lon="4.56223">
        <ele>369.60916</ele>
        <time>2022-10-04T12:42:17.000Z</time>
      </trkpt>
      <trkpt lat="45.88105" lon="4.56226">
        <ele>369.77734</ele>
        <time>2022-10-04T12:42:18.000Z</time>
      </trkpt>
      <trkpt lat="45.88102" lon="4.56228">
        <ele>369.85236</ele>
        <time>2022-10-04T12:42:19.000Z</time>
      </trkpt>
      <trkpt lat="45.88099" lon="4.56231">
        <ele>369.79657</ele>
        <time>2022-10-04T12:42:20.000Z</time>
      </trkpt>
      <trkpt lat="45.88096" lon="4.56234">
        <ele>369.74521</ele>
        <time>2022-10-04T12:42:21.000Z</time>
      </trkpt>
      <trkpt lat="45.88093" lon="4.56237">
        <ele>369.71188</ele>
        <time>2022-10-04T12:42:22.000Z</time>
      </trkpt>
      <trkpt lat="45.88091" lon="4.56241">
        <ele>369.62912</ele>
        <time>2022-10-04T12:42:23.000Z</time>
      </trkpt>
      <trkpt lat="45.88088" lon="4.56244">
        <ele>369.63324</ele>
        <time>2022-10-04T12:42:24.000Z</time>
      </trkpt>
      <trkpt lat="45.88086" lon="4.56247">
        <ele>369.58185</ele>
        <time>2022-10-04T12:42:25.000Z</time>
      </trkpt>
      <trkpt lat="45.88083" lon="4.56251">
        <ele>369.56094</ele>
        <time>2022-10-04T12:42:26.000Z</time>
      </trkpt>
      <trkpt lat="45.88081" lon="4.56254">
        <ele>369.45071</ele>
        <time>2022-10-04T12:42:27.000Z</time>
      </trkpt>
      <trkpt lat="45.88079" lon="4.56257">
        <ele>369.25687</ele>
        <time>2022-10-04T12:42:28.000Z</time>
      </trkpt>
      <trkpt lat="45.88076" lon="4.5626">
        <ele>369.07953</ele>
        <time>2022-10-04T12:42:29.000Z</time>
      </trkpt>
      <trkpt lat="45.88074" lon="4.56263">
        <ele>368.90961</ele>
        <time>2022-10-04T12:42:30.000Z</time>
      </trkpt>
      <trkpt lat="45.88072" lon="4.56266">
        <ele>368.76941</ele>
        <time>2022-10-04T12:42:31.000Z</time>
      </trkpt>
      <trkpt lat="45.88069" lon="4.56269">
        <ele>368.67276</ele>
        <time>2022-10-04T12:42:32.000Z</time>
      </trkpt>
      <trkpt lat="45.88067" lon="4.56273">
        <ele>368.65689</ele>
        <time>2022-10-04T12:42:33.000Z</time>
      </trkpt>
      <trkpt lat="45.88065" lon="4.56276">
        <ele>368.61984</ele>
        <time>2022-10-04T12:42:34.000Z</time>
      </trkpt>
      <trkpt lat="45.88062" lon="4.56279">
        <ele>368.60382</ele>
        <time>2022-10-04T12:42:35.000Z</time>
      </trkpt>
      <trkpt lat="45.8806" lon="4.56282">
        <ele>368.6022</ele>
        <time>2022-10-04T12:42:36.000Z</time>
      </trkpt>
      <trkpt lat="45.88057" lon="4.56285">
        <ele>368.52411</ele>
        <time>2022-10-04T12:42:37.000Z</time>
      </trkpt>
      <trkpt lat="45.88054" lon="4.56288">
        <ele>368.47128</ele>
        <time>2022-10-04T12:42:38.000Z</time>
      </trkpt>
      <trkpt lat="45.88051" lon="4.5629">
        <ele>368.48672</ele>
        <time>2022-10-04T12:42:39.000Z</time>
      </trkpt>
      <trkpt lat="45.88048" lon="4.56293">
        <ele>368.59796</ele>
        <time>2022-10-04T12:42:40.000Z</time>
      </trkpt>
      <trkpt lat="45.88045" lon="4.56296">
        <ele>368.66959</ele>
        <time>2022-10-04T12:42:41.000Z</time>
      </trkpt>
      <trkpt lat="45.88042" lon="4.56299">
        <ele>368.76636</ele>
        <time>2022-10-04T12:42:42.000Z</time>
      </trkpt>
      <trkpt lat="45.8804" lon="4.56302">
        <ele>368.82037</ele>
        <time>2022-10-04T12:42:43.000Z</time>
      </trkpt>
      <trkpt lat="45.88037" lon="4.56305">
        <ele>368.81683</ele>
        <time>2022-10-04T12:42:44.000Z</time>
      </trkpt>
      <trkpt lat="45.88034" lon="4.56308">
        <ele>368.86227</ele>
        <time>2022-10-04T12:42:45.000Z</time>
      </trkpt>
      <trkpt lat="45.88031" lon="4.56311">
        <ele>368.88922</ele>
        <time>2022-10-04T12:42:46.000Z</time>
      </trkpt>
      <trkpt lat="45.88028" lon="4.56314">
        <ele>368.99667</ele>
        <time>2022-10-04T12:42:47.000Z</time>
      </trkpt>
      <trkpt lat="45.88025" lon="4.56317">
        <ele>369.10706</ele>
        <time>2022-10-04T12:42:48.000Z</time>
      </trkpt>
      <trkpt lat="45.88022" lon="4.5632">
        <ele>369.17499</ele>
        <time>2022-10-04T12:42:49.000Z</time>
      </trkpt>
      <trkpt lat="45.88018" lon="4.56323">
        <ele>369.22064</ele>
        <time>2022-10-04T12:42:50.000Z</time>
      </trkpt>
      <trkpt lat="45.88015" lon="4.56325">
        <ele>369.25632</ele>
        <time>2022-10-04T12:42:51.000Z</time>
      </trkpt>
      <trkpt lat="45.88011" lon="4.56328">
        <ele>369.35214</ele>
        <time>2022-10-04T12:42:52.000Z</time>
      </trkpt>
      <trkpt lat="45.88008" lon="4.5633">
        <ele>369.46271</ele>
        <time>2022-10-04T12:42:53.000Z</time>
      </trkpt>
      <trkpt lat="45.88004" lon="4.56332">
        <ele>369.52887</ele>
        <time>2022-10-04T12:42:54.000Z</time>
      </trkpt>
      <trkpt lat="45.88" lon="4.56334">
        <ele>369.61224</ele>
        <time>2022-10-04T12:42:55.000Z</time>
      </trkpt>
      <trkpt lat="45.87997" lon="4.56336">
        <ele>369.71429</ele>
        <time>2022-10-04T12:42:56.000Z</time>
      </trkpt>
      <trkpt lat="45.87993" lon="4.56338">
        <ele>369.85562</ele>
        <time>2022-10-04T12:42:57.000Z</time>
      </trkpt>
      <trkpt lat="45.87989" lon="4.56339">
        <ele>369.95844</ele>
        <time>2022-10-04T12:42:58.000Z</time>
      </trkpt>
      <trkpt lat="45.87984" lon="4.56341">
        <ele>369.92487</ele>
        <time>2022-10-04T12:42:59.000Z</time>
      </trkpt>
      <trkpt lat="45.8798" lon="4.56342">
        <ele>369.89194</ele>
        <time>2022-10-04T12:43:00.000Z</time>
      </trkpt>
      <trkpt lat="45.87976" lon="4.56343">
        <ele>369.97894</ele>
        <time>2022-10-04T12:43:01.000Z</time>
      </trkpt>
      <trkpt lat="45.87972" lon="4.56344">
        <ele>370.02618</ele>
        <time>2022-10-04T12:43:02.000Z</time>
      </trkpt>
      <trkpt lat="45.87968" lon="4.56345">
        <ele>370.14072</ele>
        <time>2022-10-04T12:43:03.000Z</time>
      </trkpt>
      <trkpt lat="45.87964" lon="4.56345">
        <ele>370.42203</ele>
        <time>2022-10-04T12:43:04.000Z</time>
      </trkpt>
      <trkpt lat="45.8796" lon="4.56346">
        <ele>370.6709</ele>
        <time>2022-10-04T12:43:05.000Z</time>
      </trkpt>
      <trkpt lat="45.87955" lon="4.56346">
        <ele>370.9751</ele>
        <time>2022-10-04T12:43:06.000Z</time>
      </trkpt>
      <trkpt lat="45.87951" lon="4.56347">
        <ele>371.24658</ele>
        <time>2022-10-04T12:43:07.000Z</time>
      </trkpt>
      <trkpt lat="45.87947" lon="4.56348">
        <ele>371.54224</ele>
        <time>2022-10-04T12:43:08.000Z</time>
      </trkpt>
      <trkpt lat="45.87943" lon="4.56348">
        <ele>371.81885</ele>
        <time>2022-10-04T12:43:09.000Z</time>
      </trkpt>
      <trkpt lat="45.87939" lon="4.56349">
        <ele>372.14883</ele>
        <time>2022-10-04T12:43:10.000Z</time>
      </trkpt>
      <trkpt lat="45.87935" lon="4.5635">
        <ele>372.41971</ele>
        <time>2022-10-04T12:43:11.000Z</time>
      </trkpt>
      <trkpt lat="45.87931" lon="4.56351">
        <ele>372.68207</ele>
        <time>2022-10-04T12:43:12.000Z</time>
      </trkpt>
      <trkpt lat="45.87927" lon="4.56351">
        <ele>372.95331</ele>
        <time>2022-10-04T12:43:13.000Z</time>
      </trkpt>
      <trkpt lat="45.87923" lon="4.56352">
        <ele>373.29291</ele>
        <time>2022-10-04T12:43:14.000Z</time>
      </trkpt>
      <trkpt lat="45.87919" lon="4.56353">
        <ele>373.69083</ele>
        <time>2022-10-04T12:43:15.000Z</time>
      </trkpt>
      <trkpt lat="45.87915" lon="4.56353">
        <ele>373.99686</ele>
        <time>2022-10-04T12:43:16.000Z</time>
      </trkpt>
      <trkpt lat="45.87911" lon="4.56354">
        <ele>374.23703</ele>
        <time>2022-10-04T12:43:17.000Z</time>
      </trkpt>
      <trkpt lat="45.87907" lon="4.56355">
        <ele>374.43182</ele>
        <time>2022-10-04T12:43:18.000Z</time>
      </trkpt>
      <trkpt lat="45.87903" lon="4.56356">
        <ele>374.71454</ele>
        <time>2022-10-04T12:43:19.000Z</time>
      </trkpt>
      <trkpt lat="45.87899" lon="4.56357">
        <ele>374.95386</ele>
        <time>2022-10-04T12:43:20.000Z</time>
      </trkpt>
      <trkpt lat="45.87895" lon="4.56359">
        <ele>375.05362</ele>
        <time>2022-10-04T12:43:21.000Z</time>
      </trkpt>
      <trkpt lat="45.87891" lon="4.5636">
        <ele>375.15341</ele>
        <time>2022-10-04T12:43:22.000Z</time>
      </trkpt>
      <trkpt lat="45.87888" lon="4.56361">
        <ele>375.16861</ele>
        <time>2022-10-04T12:43:23.000Z</time>
      </trkpt>
      <trkpt lat="45.87884" lon="4.56361">
        <ele>375.08279</ele>
        <time>2022-10-04T12:43:24.000Z</time>
      </trkpt>
      <trkpt lat="45.8788" lon="4.56362">
        <ele>375.02158</ele>
        <time>2022-10-04T12:43:25.000Z</time>
      </trkpt>
      <trkpt lat="45.87876" lon="4.56363">
        <ele>375.01077</ele>
        <time>2022-10-04T12:43:26.000Z</time>
      </trkpt>
      <trkpt lat="45.87872" lon="4.56364">
        <ele>375.00946</ele>
        <time>2022-10-04T12:43:27.000Z</time>
      </trkpt>
      <trkpt lat="45.87869" lon="4.56365">
        <ele>374.92914</ele>
        <time>2022-10-04T12:43:28.000Z</time>
      </trkpt>
      <trkpt lat="45.87865" lon="4.56366">
        <ele>374.84979</ele>
        <time>2022-10-04T12:43:29.000Z</time>
      </trkpt>
      <trkpt lat="45.87861" lon="4.56367">
        <ele>374.798</ele>
        <time>2022-10-04T12:43:30.000Z</time>
      </trkpt>
      <trkpt lat="45.87858" lon="4.56368">
        <ele>374.76996</ele>
        <time>2022-10-04T12:43:31.000Z</time>
      </trkpt>
      <trkpt lat="45.87854" lon="4.56369">
        <ele>374.65948</ele>
        <time>2022-10-04T12:43:32.000Z</time>
      </trkpt>
      <trkpt lat="45.8785" lon="4.5637">
        <ele>374.51242</ele>
        <time>2022-10-04T12:43:33.000Z</time>
      </trkpt>
      <trkpt lat="45.87846" lon="4.56371">
        <ele>374.33655</ele>
        <time>2022-10-04T12:43:34.000Z</time>
      </trkpt>
      <trkpt lat="45.87843" lon="4.56372">
        <ele>374.11896</ele>
        <time>2022-10-04T12:43:35.000Z</time>
      </trkpt>
      <trkpt lat="45.87839" lon="4.56374">
        <ele>373.93076</ele>
        <time>2022-10-04T12:43:36.000Z</time>
      </trkpt>
      <trkpt lat="45.87835" lon="4.56375">
        <ele>373.81757</ele>
        <time>2022-10-04T12:43:37.000Z</time>
      </trkpt>
      <trkpt lat="45.87831" lon="4.56376">
        <ele>373.70587</ele>
        <time>2022-10-04T12:43:38.000Z</time>
      </trkpt>
      <trkpt lat="45.87828" lon="4.56377">
        <ele>373.65878</ele>
        <time>2022-10-04T12:43:39.000Z</time>
      </trkpt>
      <trkpt lat="45.87824" lon="4.56378">
        <ele>373.71954</ele>
        <time>2022-10-04T12:43:40.000Z</time>
      </trkpt>
      <trkpt lat="45.8782" lon="4.5638">
        <ele>373.87372</ele>
        <time>2022-10-04T12:43:41.000Z</time>
      </trkpt>
      <trkpt lat="45.87816" lon="4.56382">
        <ele>374.03595</ele>
        <time>2022-10-04T12:43:42.000Z</time>
      </trkpt>
      <trkpt lat="45.87813" lon="4.56384">
        <ele>374.20737</ele>
        <time>2022-10-04T12:43:43.000Z</time>
      </trkpt>
      <trkpt lat="45.87809" lon="4.56387">
        <ele>374.34052</ele>
        <time>2022-10-04T12:43:44.000Z</time>
      </trkpt>
      <trkpt lat="45.87806" lon="4.56389">
        <ele>374.50897</ele>
        <time>2022-10-04T12:43:45.000Z</time>
      </trkpt>
      <trkpt lat="45.87802" lon="4.5639">
        <ele>374.62421</ele>
        <time>2022-10-04T12:43:46.000Z</time>
      </trkpt>
      <trkpt lat="45.87799" lon="4.56392">
        <ele>374.75638</ele>
        <time>2022-10-04T12:43:47.000Z</time>
      </trkpt>
      <trkpt lat="45.87795" lon="4.56393">
        <ele>374.93976</ele>
        <time>2022-10-04T12:43:48.000Z</time>
      </trkpt>
      <trkpt lat="45.87792" lon="4.56395">
        <ele>375.16501</ele>
        <time>2022-10-04T12:43:49.000Z</time>
      </trkpt>
      <trkpt lat="45.87789" lon="4.56397">
        <ele>375.2782</ele>
        <time>2022-10-04T12:43:50.000Z</time>
      </trkpt>
      <trkpt lat="45.87786" lon="4.56399">
        <ele>375.44119</ele>
        <time>2022-10-04T12:43:51.000Z</time>
      </trkpt>
      <trkpt lat="45.87783" lon="4.56401">
        <ele>375.66913</ele>
        <time>2022-10-04T12:43:52.000Z</time>
      </trkpt>
      <trkpt lat="45.8778" lon="4.56403">
        <ele>375.90613</ele>
        <time>2022-10-04T12:43:53.000Z</time>
      </trkpt>
      <trkpt lat="45.87777" lon="4.56405">
        <ele>376.11877</ele>
        <time>2022-10-04T12:43:54.000Z</time>
      </trkpt>
      <trkpt lat="45.87774" lon="4.56407">
        <ele>376.32263</ele>
        <time>2022-10-04T12:43:55.000Z</time>
      </trkpt>
      <trkpt lat="45.87771" lon="4.56409">
        <ele>376.46796</ele>
        <time>2022-10-04T12:43:56.000Z</time>
      </trkpt>
      <trkpt lat="45.87768" lon="4.56412">
        <ele>376.59784</ele>
        <time>2022-10-04T12:43:57.000Z</time>
      </trkpt>
      <trkpt lat="45.87765" lon="4.56414">
        <ele>376.81061</ele>
        <time>2022-10-04T12:43:58.000Z</time>
      </trkpt>
      <trkpt lat="45.87762" lon="4.56416">
        <ele>377.03998</ele>
        <time>2022-10-04T12:43:59.000Z</time>
      </trkpt>
      <trkpt lat="45.87759" lon="4.56418">
        <ele>377.23578</ele>
        <time>2022-10-04T12:44:00.000Z</time>
      </trkpt>
      <trkpt lat="45.87756" lon="4.5642">
        <ele>377.35709</ele>
        <time>2022-10-04T12:44:01.000Z</time>
      </trkpt>
      <trkpt lat="45.87752" lon="4.56422">
        <ele>377.47134</ele>
        <time>2022-10-04T12:44:02.000Z</time>
      </trkpt>
      <trkpt lat="45.87749" lon="4.56424">
        <ele>377.55347</ele>
        <time>2022-10-04T12:44:03.000Z</time>
      </trkpt>
      <trkpt lat="45.87746" lon="4.56426">
        <ele>377.7023</ele>
        <time>2022-10-04T12:44:04.000Z</time>
      </trkpt>
      <trkpt lat="45.87743" lon="4.56428">
        <ele>377.73547</ele>
        <time>2022-10-04T12:44:05.000Z</time>
      </trkpt>
      <trkpt lat="45.87739" lon="4.5643">
        <ele>377.77899</ele>
        <time>2022-10-04T12:44:06.000Z</time>
      </trkpt>
      <trkpt lat="45.87736" lon="4.56432">
        <ele>377.82043</ele>
        <time>2022-10-04T12:44:07.000Z</time>
      </trkpt>
      <trkpt lat="45.87732" lon="4.56434">
        <ele>377.86664</ele>
        <time>2022-10-04T12:44:08.000Z</time>
      </trkpt>
      <trkpt lat="45.87729" lon="4.56436">
        <ele>377.91531</ele>
        <time>2022-10-04T12:44:09.000Z</time>
      </trkpt>
      <trkpt lat="45.87725" lon="4.56438">
        <ele>378.02658</ele>
        <time>2022-10-04T12:44:10.000Z</time>
      </trkpt>
      <trkpt lat="45.87722" lon="4.5644">
        <ele>378.07672</ele>
        <time>2022-10-04T12:44:11.000Z</time>
      </trkpt>
      <trkpt lat="45.87719" lon="4.56442">
        <ele>378.11542</ele>
        <time>2022-10-04T12:44:12.000Z</time>
      </trkpt>
      <trkpt lat="45.87716" lon="4.56444">
        <ele>378.11102</ele>
        <time>2022-10-04T12:44:13.000Z</time>
      </trkpt>
      <trkpt lat="45.87713" lon="4.56446">
        <ele>378.12781</ele>
        <time>2022-10-04T12:44:14.000Z</time>
      </trkpt>
      <trkpt lat="45.8771" lon="4.56448">
        <ele>378.2002</ele>
        <time>2022-10-04T12:44:15.000Z</time>
      </trkpt>
      <trkpt lat="45.87707" lon="4.5645">
        <ele>378.29672</ele>
        <time>2022-10-04T12:44:16.000Z</time>
      </trkpt>
      <trkpt lat="45.87704" lon="4.56453">
        <ele>378.39331</ele>
        <time>2022-10-04T12:44:17.000Z</time>
      </trkpt>
      <trkpt lat="45.87701" lon="4.56456">
        <ele>378.48059</ele>
        <time>2022-10-04T12:44:18.000Z</time>
      </trkpt>
      <trkpt lat="45.87698" lon="4.56459">
        <ele>378.54642</ele>
        <time>2022-10-04T12:44:19.000Z</time>
      </trkpt>
      <trkpt lat="45.87695" lon="4.56463">
        <ele>378.61063</ele>
        <time>2022-10-04T12:44:20.000Z</time>
      </trkpt>
      <trkpt lat="45.87693" lon="4.56467">
        <ele>378.69656</ele>
        <time>2022-10-04T12:44:21.000Z</time>
      </trkpt>
      <trkpt lat="45.87692" lon="4.56471">
        <ele>378.85315</ele>
        <time>2022-10-04T12:44:22.000Z</time>
      </trkpt>
      <trkpt lat="45.87691" lon="4.56476">
        <ele>379.07159</ele>
        <time>2022-10-04T12:44:23.000Z</time>
      </trkpt>
      <trkpt lat="45.8769" lon="4.56481">
        <ele>379.19907</ele>
        <time>2022-10-04T12:44:24.000Z</time>
      </trkpt>
      <trkpt lat="45.8769" lon="4.56485">
        <ele>379.26276</ele>
        <time>2022-10-04T12:44:25.000Z</time>
      </trkpt>
      <trkpt lat="45.8769" lon="4.5649">
        <ele>379.27325</ele>
        <time>2022-10-04T12:44:26.000Z</time>
      </trkpt>
      <trkpt lat="45.8769" lon="4.56494">
        <ele>379.29843</ele>
        <time>2022-10-04T12:44:27.000Z</time>
      </trkpt>
      <trkpt lat="45.8769" lon="4.56498">
        <ele>379.38651</ele>
        <time>2022-10-04T12:44:28.000Z</time>
      </trkpt>
      <trkpt lat="45.8769" lon="4.56502">
        <ele>379.55768</ele>
        <time>2022-10-04T12:44:29.000Z</time>
      </trkpt>
      <trkpt lat="45.8769" lon="4.56505">
        <ele>379.80972</ele>
        <time>2022-10-04T12:44:30.000Z</time>
      </trkpt>
      <trkpt lat="45.8769" lon="4.56509">
        <ele>380.02667</ele>
        <time>2022-10-04T12:44:31.000Z</time>
      </trkpt>
      <trkpt lat="45.8769" lon="4.56512">
        <ele>380.21796</ele>
        <time>2022-10-04T12:44:32.000Z</time>
      </trkpt>
      <trkpt lat="45.8769" lon="4.56516">
        <ele>380.54364</ele>
        <time>2022-10-04T12:44:33.000Z</time>
      </trkpt>
      <trkpt lat="45.87689" lon="4.56519">
        <ele>380.8847</ele>
        <time>2022-10-04T12:44:34.000Z</time>
      </trkpt>
      <trkpt lat="45.87689" lon="4.56523">
        <ele>381.20401</ele>
        <time>2022-10-04T12:44:35.000Z</time>
      </trkpt>
      <trkpt lat="45.87689" lon="4.56527">
        <ele>381.61639</ele>
        <time>2022-10-04T12:44:36.000Z</time>
      </trkpt>
      <trkpt lat="45.87688" lon="4.5653">
        <ele>381.98666</ele>
        <time>2022-10-04T12:44:37.000Z</time>
      </trkpt>
      <trkpt lat="45.87688" lon="4.56533">
        <ele>382.38351</ele>
        <time>2022-10-04T12:44:38.000Z</time>
      </trkpt>
      <trkpt lat="45.87687" lon="4.56536">
        <ele>382.74213</ele>
        <time>2022-10-04T12:44:39.000Z</time>
      </trkpt>
      <trkpt lat="45.87687" lon="4.5654">
        <ele>383.1373</ele>
        <time>2022-10-04T12:44:40.000Z</time>
      </trkpt>
      <trkpt lat="45.87686" lon="4.56543">
        <ele>383.53302</ele>
        <time>2022-10-04T12:44:41.000Z</time>
      </trkpt>
      <trkpt lat="45.87685" lon="4.56546">
        <ele>383.91266</ele>
        <time>2022-10-04T12:44:42.000Z</time>
      </trkpt>
      <trkpt lat="45.87684" lon="4.56549">
        <ele>384.31207</ele>
        <time>2022-10-04T12:44:43.000Z</time>
      </trkpt>
      <trkpt lat="45.87683" lon="4.56552">
        <ele>384.78189</ele>
        <time>2022-10-04T12:44:44.000Z</time>
      </trkpt>
      <trkpt lat="45.87682" lon="4.56556">
        <ele>385.42169</ele>
        <time>2022-10-04T12:44:45.000Z</time>
      </trkpt>
      <trkpt lat="45.8768" lon="4.56559">
        <ele>386.09177</ele>
        <time>2022-10-04T12:44:46.000Z</time>
      </trkpt>
      <trkpt lat="45.87679" lon="4.56562">
        <ele>386.70392</ele>
        <time>2022-10-04T12:44:47.000Z</time>
      </trkpt>
      <trkpt lat="45.87677" lon="4.56566">
        <ele>387.25433</ele>
        <time>2022-10-04T12:44:48.000Z</time>
      </trkpt>
      <trkpt lat="45.87676" lon="4.56569">
        <ele>387.74338</ele>
        <time>2022-10-04T12:44:49.000Z</time>
      </trkpt>
      <trkpt lat="45.87674" lon="4.56573">
        <ele>388.17035</ele>
        <time>2022-10-04T12:44:50.000Z</time>
      </trkpt>
      <trkpt lat="45.87673" lon="4.56577">
        <ele>388.634</ele>
        <time>2022-10-04T12:44:51.000Z</time>
      </trkpt>
      <trkpt lat="45.87671" lon="4.56581">
        <ele>389.11505</ele>
        <time>2022-10-04T12:44:52.000Z</time>
      </trkpt>
      <trkpt lat="45.8767" lon="4.56585">
        <ele>389.50348</ele>
        <time>2022-10-04T12:44:53.000Z</time>
      </trkpt>
      <trkpt lat="45.87668" lon="4.56589">
        <ele>389.85028</ele>
        <time>2022-10-04T12:44:54.000Z</time>
      </trkpt>
      <trkpt lat="45.87666" lon="4.56594">
        <ele>390.09921</ele>
        <time>2022-10-04T12:44:55.000Z</time>
      </trkpt>
      <trkpt lat="45.87665" lon="4.56598">
        <ele>390.29385</ele>
        <time>2022-10-04T12:44:56.000Z</time>
      </trkpt>
      <trkpt lat="45.87663" lon="4.56602">
        <ele>390.55243</ele>
        <time>2022-10-04T12:44:57.000Z</time>
      </trkpt>
      <trkpt lat="45.87661" lon="4.56607">
        <ele>390.63583</ele>
        <time>2022-10-04T12:44:58.000Z</time>
      </trkpt>
      <trkpt lat="45.87659" lon="4.56612">
        <ele>390.63733</ele>
        <time>2022-10-04T12:44:59.000Z</time>
      </trkpt>
      <trkpt lat="45.87657" lon="4.56617">
        <ele>390.68045</ele>
        <time>2022-10-04T12:45:00.000Z</time>
      </trkpt>
      <trkpt lat="45.87656" lon="4.56622">
        <ele>390.68823</ele>
        <time>2022-10-04T12:45:01.000Z</time>
      </trkpt>
      <trkpt lat="45.87654" lon="4.56627">
        <ele>390.66821</ele>
        <time>2022-10-04T12:45:02.000Z</time>
      </trkpt>
      <trkpt lat="45.87652" lon="4.56631">
        <ele>390.61166</ele>
        <time>2022-10-04T12:45:03.000Z</time>
      </trkpt>
      <trkpt lat="45.8765" lon="4.56636">
        <ele>390.51181</ele>
        <time>2022-10-04T12:45:04.000Z</time>
      </trkpt>
      <trkpt lat="45.87648" lon="4.5664">
        <ele>390.46783</ele>
        <time>2022-10-04T12:45:05.000Z</time>
      </trkpt>
      <trkpt lat="45.87647" lon="4.56644">
        <ele>390.48587</ele>
        <time>2022-10-04T12:45:06.000Z</time>
      </trkpt>
      <trkpt lat="45.87646" lon="4.56648">
        <ele>390.52225</ele>
        <time>2022-10-04T12:45:07.000Z</time>
      </trkpt>
      <trkpt lat="45.87644" lon="4.56651">
        <ele>390.55164</ele>
        <time>2022-10-04T12:45:08.000Z</time>
      </trkpt>
      <trkpt lat="45.87643" lon="4.56655">
        <ele>390.55951</ele>
        <time>2022-10-04T12:45:09.000Z</time>
      </trkpt>
      <trkpt lat="45.87642" lon="4.56659">
        <ele>390.44781</ele>
        <time>2022-10-04T12:45:10.000Z</time>
      </trkpt>
      <trkpt lat="45.87641" lon="4.56662">
        <ele>390.37784</ele>
        <time>2022-10-04T12:45:11.000Z</time>
      </trkpt>
      <trkpt lat="45.87639" lon="4.56666">
        <ele>390.24933</ele>
        <time>2022-10-04T12:45:12.000Z</time>
      </trkpt>
      <trkpt lat="45.87637" lon="4.5667">
        <ele>390.04169</ele>
        <time>2022-10-04T12:45:13.000Z</time>
      </trkpt>
      <trkpt lat="45.87635" lon="4.56673">
        <ele>389.85529</ele>
        <time>2022-10-04T12:45:14.000Z</time>
      </trkpt>
      <trkpt lat="45.87634" lon="4.56677">
        <ele>389.7287</ele>
        <time>2022-10-04T12:45:15.000Z</time>
      </trkpt>
      <trkpt lat="45.87632" lon="4.56681">
        <ele>389.64227</ele>
        <time>2022-10-04T12:45:16.000Z</time>
      </trkpt>
      <trkpt lat="45.8763" lon="4.56684">
        <ele>389.50455</ele>
        <time>2022-10-04T12:45:17.000Z</time>
      </trkpt>
      <trkpt lat="45.87629" lon="4.56688">
        <ele>389.46417</ele>
        <time>2022-10-04T12:45:18.000Z</time>
      </trkpt>
      <trkpt lat="45.87627" lon="4.56692">
        <ele>389.52451</ele>
        <time>2022-10-04T12:45:19.000Z</time>
      </trkpt>
      <trkpt lat="45.87625" lon="4.56696">
        <ele>389.48972</ele>
        <time>2022-10-04T12:45:20.000Z</time>
      </trkpt>
      <trkpt lat="45.87624" lon="4.56699">
        <ele>389.45703</ele>
        <time>2022-10-04T12:45:21.000Z</time>
      </trkpt>
      <trkpt lat="45.87623" lon="4.56703">
        <ele>389.38831</ele>
        <time>2022-10-04T12:45:22.000Z</time>
      </trkpt>
      <trkpt lat="45.87621" lon="4.56707">
        <ele>389.37354</ele>
        <time>2022-10-04T12:45:23.000Z</time>
      </trkpt>
      <trkpt lat="45.8762" lon="4.5671">
        <ele>389.36847</ele>
        <time>2022-10-04T12:45:24.000Z</time>
      </trkpt>
      <trkpt lat="45.87619" lon="4.56714">
        <ele>389.25519</ele>
        <time>2022-10-04T12:45:25.000Z</time>
      </trkpt>
      <trkpt lat="45.87618" lon="4.56719">
        <ele>389.07297</ele>
        <time>2022-10-04T12:45:26.000Z</time>
      </trkpt>
      <trkpt lat="45.87616" lon="4.56723">
        <ele>388.89771</ele>
        <time>2022-10-04T12:45:27.000Z</time>
      </trkpt>
      <trkpt lat="45.87615" lon="4.56727">
        <ele>388.73935</ele>
        <time>2022-10-04T12:45:28.000Z</time>
      </trkpt>
      <trkpt lat="45.87613" lon="4.56731">
        <ele>388.53906</ele>
        <time>2022-10-04T12:45:29.000Z</time>
      </trkpt>
      <trkpt lat="45.87612" lon="4.56734">
        <ele>388.39508</ele>
        <time>2022-10-04T12:45:30.000Z</time>
      </trkpt>
      <trkpt lat="45.8761" lon="4.56738">
        <ele>388.23511</ele>
        <time>2022-10-04T12:45:31.000Z</time>
      </trkpt>
      <trkpt lat="45.87609" lon="4.56741">
        <ele>388.20374</ele>
        <time>2022-10-04T12:45:32.000Z</time>
      </trkpt>
      <trkpt lat="45.87608" lon="4.56745">
        <ele>388.2088</ele>
        <time>2022-10-04T12:45:33.000Z</time>
      </trkpt>
      <trkpt lat="45.87607" lon="4.56748">
        <ele>388.29678</ele>
        <time>2022-10-04T12:45:34.000Z</time>
      </trkpt>
      <trkpt lat="45.87606" lon="4.56752">
        <ele>388.36359</ele>
        <time>2022-10-04T12:45:35.000Z</time>
      </trkpt>
      <trkpt lat="45.87605" lon="4.56755">
        <ele>388.35529</ele>
        <time>2022-10-04T12:45:36.000Z</time>
      </trkpt>
      <trkpt lat="45.87603" lon="4.56759">
        <ele>388.3591</ele>
        <time>2022-10-04T12:45:37.000Z</time>
      </trkpt>
      <trkpt lat="45.87602" lon="4.56762">
        <ele>388.31296</ele>
        <time>2022-10-04T12:45:38.000Z</time>
      </trkpt>
      <trkpt lat="45.876" lon="4.56766">
        <ele>388.25925</ele>
        <time>2022-10-04T12:45:39.000Z</time>
      </trkpt>
      <trkpt lat="45.87599" lon="4.56769">
        <ele>388.2243</ele>
        <time>2022-10-04T12:45:40.000Z</time>
      </trkpt>
      <trkpt lat="45.87598" lon="4.56773">
        <ele>388.21707</ele>
        <time>2022-10-04T12:45:41.000Z</time>
      </trkpt>
      <trkpt lat="45.87596" lon="4.56776">
        <ele>388.20993</ele>
        <time>2022-10-04T12:45:42.000Z</time>
      </trkpt>
      <trkpt lat="45.87595" lon="4.56779">
        <ele>388.15656</ele>
        <time>2022-10-04T12:45:43.000Z</time>
      </trkpt>
      <trkpt lat="45.87593" lon="4.56783">
        <ele>388.16251</ele>
        <time>2022-10-04T12:45:44.000Z</time>
      </trkpt>
      <trkpt lat="45.87592" lon="4.56787">
        <ele>388.16852</ele>
        <time>2022-10-04T12:45:45.000Z</time>
      </trkpt>
      <trkpt lat="45.8759" lon="4.56791">
        <ele>388.1994</ele>
        <time>2022-10-04T12:45:46.000Z</time>
      </trkpt>
      <trkpt lat="45.87589" lon="4.56794">
        <ele>388.26904</ele>
        <time>2022-10-04T12:45:47.000Z</time>
      </trkpt>
      <trkpt lat="45.87588" lon="4.56798">
        <ele>388.27673</ele>
        <time>2022-10-04T12:45:48.000Z</time>
      </trkpt>
      <trkpt lat="45.87586" lon="4.56802">
        <ele>388.29266</ele>
        <time>2022-10-04T12:45:49.000Z</time>
      </trkpt>
      <trkpt lat="45.87585" lon="4.56805">
        <ele>388.34747</ele>
        <time>2022-10-04T12:45:50.000Z</time>
      </trkpt>
      <trkpt lat="45.87584" lon="4.56809">
        <ele>388.37946</ele>
        <time>2022-10-04T12:45:51.000Z</time>
      </trkpt>
      <trkpt lat="45.87582" lon="4.56813">
        <ele>388.26959</ele>
        <time>2022-10-04T12:45:52.000Z</time>
      </trkpt>
      <trkpt lat="45.87581" lon="4.56816">
        <ele>388.16183</ele>
        <time>2022-10-04T12:45:53.000Z</time>
      </trkpt>
      <trkpt lat="45.87579" lon="4.56819">
        <ele>388.04294</ele>
        <time>2022-10-04T12:45:54.000Z</time>
      </trkpt>
      <trkpt lat="45.87578" lon="4.56822">
        <ele>387.9527</ele>
        <time>2022-10-04T12:45:55.000Z</time>
      </trkpt>
      <trkpt lat="45.87576" lon="4.56825">
        <ele>387.84729</ele>
        <time>2022-10-04T12:45:56.000Z</time>
      </trkpt>
      <trkpt lat="45.87575" lon="4.56827">
        <ele>387.71545</ele>
        <time>2022-10-04T12:45:57.000Z</time>
      </trkpt>
      <trkpt lat="45.87573" lon="4.5683">
        <ele>387.6929</ele>
        <time>2022-10-04T12:45:58.000Z</time>
      </trkpt>
      <trkpt lat="45.87571" lon="4.56833">
        <ele>387.65405</ele>
        <time>2022-10-04T12:45:59.000Z</time>
      </trkpt>
      <trkpt lat="45.8757" lon="4.56837">
        <ele>387.64197</ele>
        <time>2022-10-04T12:46:00.000Z</time>
      </trkpt>
      <trkpt lat="45.8757" lon="4.56839">
        <ele>387.68027</ele>
        <time>2022-10-04T12:46:01.000Z</time>
      </trkpt>
      <trkpt lat="45.87569" lon="4.56842">
        <ele>387.74799</ele>
        <time>2022-10-04T12:46:02.000Z</time>
      </trkpt>
      <trkpt lat="45.87568" lon="4.56845">
        <ele>387.82672</ele>
        <time>2022-10-04T12:46:03.000Z</time>
      </trkpt>
      <trkpt lat="45.87568" lon="4.56848">
        <ele>387.79449</ele>
        <time>2022-10-04T12:46:04.000Z</time>
      </trkpt>
      <trkpt lat="45.87567" lon="4.56851">
        <ele>387.80817</ele>
        <time>2022-10-04T12:46:05.000Z</time>
      </trkpt>
      <trkpt lat="45.87566" lon="4.56854">
        <ele>387.86404</ele>
        <time>2022-10-04T12:46:06.000Z</time>
      </trkpt>
      <trkpt lat="45.87564" lon="4.56857">
        <ele>387.92441</ele>
        <time>2022-10-04T12:46:07.000Z</time>
      </trkpt>
      <trkpt lat="45.87562" lon="4.5686">
        <ele>388.07751</ele>
        <time>2022-10-04T12:46:08.000Z</time>
      </trkpt>
      <trkpt lat="45.8756" lon="4.56862">
        <ele>388.24966</ele>
        <time>2022-10-04T12:46:09.000Z</time>
      </trkpt>
      <trkpt lat="45.87558" lon="4.56865">
        <ele>388.42081</ele>
        <time>2022-10-04T12:46:10.000Z</time>
      </trkpt>
      <trkpt lat="45.87557" lon="4.56868">
        <ele>388.54578</ele>
        <time>2022-10-04T12:46:11.000Z</time>
      </trkpt>
      <trkpt lat="45.87556" lon="4.5687">
        <ele>388.69589</ele>
        <time>2022-10-04T12:46:12.000Z</time>
      </trkpt>
      <trkpt lat="45.87554" lon="4.56873">
        <ele>388.87863</ele>
        <time>2022-10-04T12:46:13.000Z</time>
      </trkpt>
      <trkpt lat="45.87553" lon="4.56876">
        <ele>389.05923</ele>
        <time>2022-10-04T12:46:14.000Z</time>
      </trkpt>
      <trkpt lat="45.87552" lon="4.56879">
        <ele>389.21674</ele>
        <time>2022-10-04T12:46:15.000Z</time>
      </trkpt>
      <trkpt lat="45.87551" lon="4.56881">
        <ele>389.38049</ele>
        <time>2022-10-04T12:46:16.000Z</time>
      </trkpt>
      <trkpt lat="45.8755" lon="4.56884">
        <ele>389.50586</ele>
        <time>2022-10-04T12:46:17.000Z</time>
      </trkpt>
      <trkpt lat="45.87549" lon="4.56887">
        <ele>389.66364</ele>
        <time>2022-10-04T12:46:18.000Z</time>
      </trkpt>
      <trkpt lat="45.87548" lon="4.56889">
        <ele>389.79172</ele>
        <time>2022-10-04T12:46:19.000Z</time>
      </trkpt>
      <trkpt lat="45.87546" lon="4.56891">
        <ele>389.85931</ele>
        <time>2022-10-04T12:46:20.000Z</time>
      </trkpt>
      <trkpt lat="45.87545" lon="4.56893">
        <ele>389.96103</ele>
        <time>2022-10-04T12:46:21.000Z</time>
      </trkpt>
      <trkpt lat="45.87544" lon="4.56896">
        <ele>390.0174</ele>
        <time>2022-10-04T12:46:22.000Z</time>
      </trkpt>
      <trkpt lat="45.87543" lon="4.56898">
        <ele>390.10339</ele>
        <time>2022-10-04T12:46:23.000Z</time>
      </trkpt>
      <trkpt lat="45.87542" lon="4.56901">
        <ele>390.22272</ele>
        <time>2022-10-04T12:46:24.000Z</time>
      </trkpt>
      <trkpt lat="45.87541" lon="4.56904">
        <ele>390.34219</ele>
        <time>2022-10-04T12:46:25.000Z</time>
      </trkpt>
      <trkpt lat="45.87541" lon="4.56907">
        <ele>390.40137</ele>
        <time>2022-10-04T12:46:26.000Z</time>
      </trkpt>
      <trkpt lat="45.87539" lon="4.56909">
        <ele>390.39816</ele>
        <time>2022-10-04T12:46:27.000Z</time>
      </trkpt>
      <trkpt lat="45.87537" lon="4.56911">
        <ele>390.34296</ele>
        <time>2022-10-04T12:46:28.000Z</time>
      </trkpt>
      <trkpt lat="45.87537" lon="4.56914">
        <ele>390.27985</ele>
        <time>2022-10-04T12:46:29.000Z</time>
      </trkpt>
      <trkpt lat="45.87537" lon="4.56917">
        <ele>390.22797</ele>
        <time>2022-10-04T12:46:30.000Z</time>
      </trkpt>
      <trkpt lat="45.87536" lon="4.5692">
        <ele>390.18088</ele>
        <time>2022-10-04T12:46:31.000Z</time>
      </trkpt>
      <trkpt lat="45.87535" lon="4.56922">
        <ele>390.16629</ele>
        <time>2022-10-04T12:46:32.000Z</time>
      </trkpt>
      <trkpt lat="45.87533" lon="4.56925">
        <ele>390.12933</ele>
        <time>2022-10-04T12:46:33.000Z</time>
      </trkpt>
      <trkpt lat="45.87531" lon="4.56927">
        <ele>390.08429</ele>
        <time>2022-10-04T12:46:34.000Z</time>
      </trkpt>
      <trkpt lat="45.8753" lon="4.56929">
        <ele>390.07901</ele>
        <time>2022-10-04T12:46:35.000Z</time>
      </trkpt>
      <trkpt lat="45.87528" lon="4.56932">
        <ele>390.13766</ele>
        <time>2022-10-04T12:46:36.000Z</time>
      </trkpt>
      <trkpt lat="45.87527" lon="4.56934">
        <ele>390.29587</ele>
        <time>2022-10-04T12:46:37.000Z</time>
      </trkpt>
      <trkpt lat="45.87525" lon="4.56936">
        <ele>390.47678</ele>
        <time>2022-10-04T12:46:38.000Z</time>
      </trkpt>
      <trkpt lat="45.87524" lon="4.56938">
        <ele>390.73077</ele>
        <time>2022-10-04T12:46:39.000Z</time>
      </trkpt>
      <trkpt lat="45.87523" lon="4.56941">
        <ele>390.99371</ele>
        <time>2022-10-04T12:46:40.000Z</time>
      </trkpt>
      <trkpt lat="45.87522" lon="4.56943">
        <ele>391.20743</ele>
        <time>2022-10-04T12:46:41.000Z</time>
      </trkpt>
      <trkpt lat="45.87522" lon="4.56946">
        <ele>391.51758</ele>
        <time>2022-10-04T12:46:42.000Z</time>
      </trkpt>
      <trkpt lat="45.87521" lon="4.56948">
        <ele>391.79059</ele>
        <time>2022-10-04T12:46:43.000Z</time>
      </trkpt>
      <trkpt lat="45.87519" lon="4.56953">
        <ele>392.14841</ele>
        <time>2022-10-04T12:46:45.000Z</time>
      </trkpt>
      <trkpt lat="45.87519" lon="4.56955">
        <ele>392.46841</ele>
        <time>2022-10-04T12:46:46.000Z</time>
      </trkpt>
      <trkpt lat="45.87518" lon="4.56958">
        <ele>392.7894</ele>
        <time>2022-10-04T12:46:47.000Z</time>
      </trkpt>
      <trkpt lat="45.87517" lon="4.56961">
        <ele>393.13644</ele>
        <time>2022-10-04T12:46:48.000Z</time>
      </trkpt>
      <trkpt lat="45.87517" lon="4.56963">
        <ele>393.52533</ele>
        <time>2022-10-04T12:46:49.000Z</time>
      </trkpt>
      <trkpt lat="45.87516" lon="4.56966">
        <ele>393.93875</ele>
        <time>2022-10-04T12:46:50.000Z</time>
      </trkpt>
      <trkpt lat="45.87515" lon="4.56968">
        <ele>394.37372</ele>
        <time>2022-10-04T12:46:51.000Z</time>
      </trkpt>
      <trkpt lat="45.87513" lon="4.56973">
        <ele>394.87509</ele>
        <time>2022-10-04T12:46:53.000Z</time>
      </trkpt>
      <trkpt lat="45.87512" lon="4.56975">
        <ele>395.46997</ele>
        <time>2022-10-04T12:46:54.000Z</time>
      </trkpt>
      <trkpt lat="45.87512" lon="4.56978">
        <ele>396.1268</ele>
        <time>2022-10-04T12:46:55.000Z</time>
      </trkpt>
      <trkpt lat="45.87511" lon="4.56981">
        <ele>396.73297</ele>
        <time>2022-10-04T12:46:56.000Z</time>
      </trkpt>
      <trkpt lat="45.8751" lon="4.56984">
        <ele>397.34125</ele>
        <time>2022-10-04T12:46:57.000Z</time>
      </trkpt>
      <trkpt lat="45.87509" lon="4.56986">
        <ele>397.85223</ele>
        <time>2022-10-04T12:46:58.000Z</time>
      </trkpt>
      <trkpt lat="45.87509" lon="4.56989">
        <ele>398.41248</ele>
        <time>2022-10-04T12:46:59.000Z</time>
      </trkpt>
      <trkpt lat="45.87508" lon="4.56992">
        <ele>398.87073</ele>
        <time>2022-10-04T12:47:00.000Z</time>
      </trkpt>
      <trkpt lat="45.87507" lon="4.56995">
        <ele>399.34814</ele>
        <time>2022-10-04T12:47:01.000Z</time>
      </trkpt>
      <trkpt lat="45.87506" lon="4.56998">
        <ele>399.89651</ele>
        <time>2022-10-04T12:47:02.000Z</time>
      </trkpt>
      <trkpt lat="45.87505" lon="4.57001">
        <ele>400.39474</ele>
        <time>2022-10-04T12:47:03.000Z</time>
      </trkpt>
      <trkpt lat="45.87505" lon="4.57005">
        <ele>400.80911</ele>
        <time>2022-10-04T12:47:04.000Z</time>
      </trkpt>
      <trkpt lat="45.87505" lon="4.57008">
        <ele>401.26868</ele>
        <time>2022-10-04T12:47:05.000Z</time>
      </trkpt>
      <trkpt lat="45.87505" lon="4.57013">
        <ele>401.65665</ele>
        <time>2022-10-04T12:47:07.000Z</time>
      </trkpt>
      <trkpt lat="45.87504" lon="4.57016">
        <ele>402.21115</ele>
        <time>2022-10-04T12:47:08.000Z</time>
      </trkpt>
      <trkpt lat="45.87505" lon="4.5702">
        <ele>402.76114</ele>
        <time>2022-10-04T12:47:09.000Z</time>
      </trkpt>
      <trkpt lat="45.87505" lon="4.57023">
        <ele>403.21896</ele>
        <time>2022-10-04T12:47:10.000Z</time>
      </trkpt>
      <trkpt lat="45.87504" lon="4.57026">
        <ele>403.61142</ele>
        <time>2022-10-04T12:47:11.000Z</time>
      </trkpt>
      <trkpt lat="45.87504" lon="4.57029">
        <ele>403.8443</ele>
        <time>2022-10-04T12:47:12.000Z</time>
      </trkpt>
      <trkpt lat="45.87505" lon="4.57033">
        <ele>404.16144</ele>
        <time>2022-10-04T12:47:13.000Z</time>
      </trkpt>
      <trkpt lat="45.87505" lon="4.57036">
        <ele>404.5249</ele>
        <time>2022-10-04T12:47:14.000Z</time>
      </trkpt>
      <trkpt lat="45.87506" lon="4.57039">
        <ele>404.69238</ele>
        <time>2022-10-04T12:47:15.000Z</time>
      </trkpt>
      <trkpt lat="45.87506" lon="4.57042">
        <ele>404.74817</ele>
        <time>2022-10-04T12:47:16.000Z</time>
      </trkpt>
      <trkpt lat="45.87506" lon="4.57045">
        <ele>404.79352</ele>
        <time>2022-10-04T12:47:17.000Z</time>
      </trkpt>
      <trkpt lat="45.87506" lon="4.57048">
        <ele>404.81317</ele>
        <time>2022-10-04T12:47:18.000Z</time>
      </trkpt>
      <trkpt lat="45.87506" lon="4.57052">
        <ele>404.88858</ele>
        <time>2022-10-04T12:47:20.000Z</time>
      </trkpt>
      <trkpt lat="45.87506" lon="4.57055">
        <ele>404.89984</ele>
        <time>2022-10-04T12:47:22.000Z</time>
      </trkpt>
      <trkpt lat="45.87505" lon="4.57053">
        <ele>405.00479</ele>
        <time>2022-10-04T12:47:26.000Z</time>
      </trkpt>
      <trkpt lat="45.87504" lon="4.57051">
        <ele>405.14429</ele>
        <time>2022-10-04T12:47:32.000Z</time>
      </trkpt>
      <trkpt lat="45.87504" lon="4.57054">
        <ele>405.26071</ele>
        <time>2022-10-04T12:57:27.000Z</time>
      </trkpt>
      <trkpt lat="45.87506" lon="4.57055">
        <ele>405.42117</ele>
        <time>2022-10-04T12:57:30.000Z</time>
      </trkpt>
      <trkpt lat="45.87506" lon="4.57057">
        <ele>405.58783</ele>
        <time>2022-10-04T12:57:50.000Z</time>
      </trkpt>
      <trkpt lat="45.87508" lon="4.57062">
        <ele>405.67609</ele>
        <time>2022-10-04T12:57:52.000Z</time>
      </trkpt>
      <trkpt lat="45.87509" lon="4.57064">
        <ele>405.78864</ele>
        <time>2022-10-04T12:57:53.000Z</time>
      </trkpt>
      <trkpt lat="45.8751" lon="4.57067">
        <ele>405.75922</ele>
        <time>2022-10-04T12:57:54.000Z</time>
      </trkpt>
      <trkpt lat="45.87511" lon="4.5707">
        <ele>405.74164</ele>
        <time>2022-10-04T12:57:55.000Z</time>
      </trkpt>
      <trkpt lat="45.87513" lon="4.57073">
        <ele>405.84647</ele>
        <time>2022-10-04T12:57:56.000Z</time>
      </trkpt>
      <trkpt lat="45.87515" lon="4.57077">
        <ele>405.93591</ele>
        <time>2022-10-04T12:57:57.000Z</time>
      </trkpt>
      <trkpt lat="45.87518" lon="4.57081">
        <ele>406.13855</ele>
        <time>2022-10-04T12:57:58.000Z</time>
      </trkpt>
      <trkpt lat="45.8752" lon="4.57085">
        <ele>406.24188</ele>
        <time>2022-10-04T12:57:59.000Z</time>
      </trkpt>
      <trkpt lat="45.87522" lon="4.57088">
        <ele>406.23993</ele>
        <time>2022-10-04T12:58:00.000Z</time>
      </trkpt>
      <trkpt lat="45.87525" lon="4.57092">
        <ele>406.33405</ele>
        <time>2022-10-04T12:58:01.000Z</time>
      </trkpt>
      <trkpt lat="45.87528" lon="4.57096">
        <ele>406.45773</ele>
        <time>2022-10-04T12:58:02.000Z</time>
      </trkpt>
      <trkpt lat="45.87531" lon="4.571">
        <ele>406.604</ele>
        <time>2022-10-04T12:58:03.000Z</time>
      </trkpt>
      <trkpt lat="45.87535" lon="4.57105">
        <ele>406.66595</ele>
        <time>2022-10-04T12:58:04.000Z</time>
      </trkpt>
      <trkpt lat="45.87538" lon="4.5711">
        <ele>406.77646</ele>
        <time>2022-10-04T12:58:05.000Z</time>
      </trkpt>
      <trkpt lat="45.87543" lon="4.57117">
        <ele>406.84326</ele>
        <time>2022-10-04T12:58:06.000Z</time>
      </trkpt>
      <trkpt lat="45.87546" lon="4.57122">
        <ele>406.79568</ele>
        <time>2022-10-04T12:58:07.000Z</time>
      </trkpt>
      <trkpt lat="45.87549" lon="4.57127">
        <ele>406.72955</ele>
        <time>2022-10-04T12:58:08.000Z</time>
      </trkpt>
      <trkpt lat="45.87551" lon="4.57133">
        <ele>406.62143</ele>
        <time>2022-10-04T12:58:09.000Z</time>
      </trkpt>
      <trkpt lat="45.87554" lon="4.57138">
        <ele>406.43683</ele>
        <time>2022-10-04T12:58:10.000Z</time>
      </trkpt>
      <trkpt lat="45.87556" lon="4.57144">
        <ele>406.2467</ele>
        <time>2022-10-04T12:58:11.000Z</time>
      </trkpt>
      <trkpt lat="45.87559" lon="4.5715">
        <ele>406.15372</ele>
        <time>2022-10-04T12:58:12.000Z</time>
      </trkpt>
      <trkpt lat="45.87562" lon="4.57156">
        <ele>405.93701</ele>
        <time>2022-10-04T12:58:13.000Z</time>
      </trkpt>
      <trkpt lat="45.87564" lon="4.57163">
        <ele>405.72351</ele>
        <time>2022-10-04T12:58:14.000Z</time>
      </trkpt>
      <trkpt lat="45.87566" lon="4.57172">
        <ele>405.48392</ele>
        <time>2022-10-04T12:58:15.000Z</time>
      </trkpt>
      <trkpt lat="45.87567" lon="4.57179">
        <ele>405.23599</ele>
        <time>2022-10-04T12:58:16.000Z</time>
      </trkpt>
      <trkpt lat="45.87568" lon="4.57186">
        <ele>405.00378</ele>
        <time>2022-10-04T12:58:17.000Z</time>
      </trkpt>
      <trkpt lat="45.87568" lon="4.57195">
        <ele>404.84906</ele>
        <time>2022-10-04T12:58:18.000Z</time>
      </trkpt>
      <trkpt lat="45.87569" lon="4.57204">
        <ele>404.73975</ele>
        <time>2022-10-04T12:58:19.000Z</time>
      </trkpt>
      <trkpt lat="45.87571" lon="4.57213">
        <ele>404.60794</ele>
        <time>2022-10-04T12:58:20.000Z</time>
      </trkpt>
      <trkpt lat="45.87573" lon="4.57221">
        <ele>404.40079</ele>
        <time>2022-10-04T12:58:21.000Z</time>
      </trkpt>
      <trkpt lat="45.87575" lon="4.57229">
        <ele>404.24872</ele>
        <time>2022-10-04T12:58:22.000Z</time>
      </trkpt>
      <trkpt lat="45.87577" lon="4.57239">
        <ele>404.06976</ele>
        <time>2022-10-04T12:58:23.000Z</time>
      </trkpt>
      <trkpt lat="45.87578" lon="4.57248">
        <ele>403.88226</ele>
        <time>2022-10-04T12:58:24.000Z</time>
      </trkpt>
      <trkpt lat="45.87579" lon="4.57258">
        <ele>403.6499</ele>
        <time>2022-10-04T12:58:25.000Z</time>
      </trkpt>
      <trkpt lat="45.8758" lon="4.57268">
        <ele>403.44186</ele>
        <time>2022-10-04T12:58:26.000Z</time>
      </trkpt>
      <trkpt lat="45.87581" lon="4.57279">
        <ele>403.30515</ele>
        <time>2022-10-04T12:58:27.000Z</time>
      </trkpt>
      <trkpt lat="45.87581" lon="4.57289">
        <ele>403.07794</ele>
        <time>2022-10-04T12:58:28.000Z</time>
      </trkpt>
      <trkpt lat="45.87582" lon="4.57301">
        <ele>402.87476</ele>
        <time>2022-10-04T12:58:29.000Z</time>
      </trkpt>
      <trkpt lat="45.87583" lon="4.57313">
        <ele>402.7215</ele>
        <time>2022-10-04T12:58:30.000Z</time>
      </trkpt>
      <trkpt lat="45.87584" lon="4.57325">
        <ele>402.5722</ele>
        <time>2022-10-04T12:58:31.000Z</time>
      </trkpt>
      <trkpt lat="45.87586" lon="4.57337">
        <ele>402.25403</ele>
        <time>2022-10-04T12:58:32.000Z</time>
      </trkpt>
      <trkpt lat="45.87588" lon="4.57348">
        <ele>401.99725</ele>
        <time>2022-10-04T12:58:33.000Z</time>
      </trkpt>
      <trkpt lat="45.87588" lon="4.57358">
        <ele>401.70575</ele>
        <time>2022-10-04T12:58:34.000Z</time>
      </trkpt>
      <trkpt lat="45.87589" lon="4.57369">
        <ele>401.45413</ele>
        <time>2022-10-04T12:58:35.000Z</time>
      </trkpt>
      <trkpt lat="45.87589" lon="4.5738">
        <ele>401.12759</ele>
        <time>2022-10-04T12:58:36.000Z</time>
      </trkpt>
      <trkpt lat="45.87589" lon="4.57392">
        <ele>400.80103</ele>
        <time>2022-10-04T12:58:37.000Z</time>
      </trkpt>
      <trkpt lat="45.87589" lon="4.57403">
        <ele>400.43024</ele>
        <time>2022-10-04T12:58:38.000Z</time>
      </trkpt>
      <trkpt lat="45.8759" lon="4.57412">
        <ele>399.93729</ele>
        <time>2022-10-04T12:58:39.000Z</time>
      </trkpt>
      <trkpt lat="45.87589" lon="4.57423">
        <ele>399.49677</ele>
        <time>2022-10-04T12:58:40.000Z</time>
      </trkpt>
      <trkpt lat="45.8759" lon="4.57435">
        <ele>399.14734</ele>
        <time>2022-10-04T12:58:41.000Z</time>
      </trkpt>
      <trkpt lat="45.87591" lon="4.57445">
        <ele>398.82025</ele>
        <time>2022-10-04T12:58:42.000Z</time>
      </trkpt>
      <trkpt lat="45.87591" lon="4.57455">
        <ele>398.47519</ele>
        <time>2022-10-04T12:58:43.000Z</time>
      </trkpt>
      <trkpt lat="45.87592" lon="4.57466">
        <ele>398.26215</ele>
        <time>2022-10-04T12:58:44.000Z</time>
      </trkpt>
      <trkpt lat="45.87594" lon="4.57475">
        <ele>398.08411</ele>
        <time>2022-10-04T12:58:45.000Z</time>
      </trkpt>
      <trkpt lat="45.87594" lon="4.57485">
        <ele>397.94626</ele>
        <time>2022-10-04T12:58:46.000Z</time>
      </trkpt>
      <trkpt lat="45.87594" lon="4.57495">
        <ele>397.77936</ele>
        <time>2022-10-04T12:58:47.000Z</time>
      </trkpt>
      <trkpt lat="45.87595" lon="4.57503">
        <ele>397.59869</ele>
        <time>2022-10-04T12:58:48.000Z</time>
      </trkpt>
      <trkpt lat="45.87595" lon="4.57512">
        <ele>397.32788</ele>
        <time>2022-10-04T12:58:49.000Z</time>
      </trkpt>
      <trkpt lat="45.87595" lon="4.57519">
        <ele>397.01682</ele>
        <time>2022-10-04T12:58:50.000Z</time>
      </trkpt>
      <trkpt lat="45.87595" lon="4.57527">
        <ele>396.69058</ele>
        <time>2022-10-04T12:58:51.000Z</time>
      </trkpt>
      <trkpt lat="45.87595" lon="4.57535">
        <ele>396.46295</ele>
        <time>2022-10-04T12:58:52.000Z</time>
      </trkpt>
      <trkpt lat="45.87595" lon="4.57543">
        <ele>396.31274</ele>
        <time>2022-10-04T12:58:53.000Z</time>
      </trkpt>
      <trkpt lat="45.87595" lon="4.57551">
        <ele>396.15582</ele>
        <time>2022-10-04T12:58:54.000Z</time>
      </trkpt>
      <trkpt lat="45.87596" lon="4.57559">
        <ele>395.98465</ele>
        <time>2022-10-04T12:58:55.000Z</time>
      </trkpt>
      <trkpt lat="45.87596" lon="4.57566">
        <ele>395.81296</ele>
        <time>2022-10-04T12:58:56.000Z</time>
      </trkpt>
      <trkpt lat="45.87596" lon="4.57574">
        <ele>395.66104</ele>
        <time>2022-10-04T12:58:57.000Z</time>
      </trkpt>
      <trkpt lat="45.87597" lon="4.57582">
        <ele>395.50345</ele>
        <time>2022-10-04T12:58:58.000Z</time>
      </trkpt>
      <trkpt lat="45.87598" lon="4.57589">
        <ele>395.38611</ele>
        <time>2022-10-04T12:58:59.000Z</time>
      </trkpt>
      <trkpt lat="45.87598" lon="4.57596">
        <ele>395.35297</ele>
        <time>2022-10-04T12:59:00.000Z</time>
      </trkpt>
      <trkpt lat="45.87599" lon="4.57603">
        <ele>395.35327</ele>
        <time>2022-10-04T12:59:01.000Z</time>
      </trkpt>
      <trkpt lat="45.87599" lon="4.5761">
        <ele>395.34854</ele>
        <time>2022-10-04T12:59:02.000Z</time>
      </trkpt>
      <trkpt lat="45.876" lon="4.57617">
        <ele>395.42047</ele>
        <time>2022-10-04T12:59:03.000Z</time>
      </trkpt>
      <trkpt lat="45.876" lon="4.57623">
        <ele>395.44843</ele>
        <time>2022-10-04T12:59:04.000Z</time>
      </trkpt>
      <trkpt lat="45.876" lon="4.5763">
        <ele>395.50302</ele>
        <time>2022-10-04T12:59:05.000Z</time>
      </trkpt>
      <trkpt lat="45.87601" lon="4.57637">
        <ele>395.54602</ele>
        <time>2022-10-04T12:59:06.000Z</time>
      </trkpt>
      <trkpt lat="45.87601" lon="4.57644">
        <ele>395.61465</ele>
        <time>2022-10-04T12:59:07.000Z</time>
      </trkpt>
      <trkpt lat="45.876" lon="4.57651">
        <ele>395.72037</ele>
        <time>2022-10-04T12:59:08.000Z</time>
      </trkpt>
      <trkpt lat="45.876" lon="4.57657">
        <ele>395.82611</ele>
        <time>2022-10-04T12:59:09.000Z</time>
      </trkpt>
      <trkpt lat="45.87599" lon="4.57663">
        <ele>395.98233</ele>
        <time>2022-10-04T12:59:10.000Z</time>
      </trkpt>
      <trkpt lat="45.87599" lon="4.57669">
        <ele>396.12637</ele>
        <time>2022-10-04T12:59:11.000Z</time>
      </trkpt>
      <trkpt lat="45.87599" lon="4.57675">
        <ele>396.29364</ele>
        <time>2022-10-04T12:59:12.000Z</time>
      </trkpt>
      <trkpt lat="45.87598" lon="4.57681">
        <ele>396.41779</ele>
        <time>2022-10-04T12:59:13.000Z</time>
      </trkpt>
      <trkpt lat="45.87598" lon="4.57688">
        <ele>396.57782</ele>
        <time>2022-10-04T12:59:14.000Z</time>
      </trkpt>
      <trkpt lat="45.87597" lon="4.57695">
        <ele>396.75177</ele>
        <time>2022-10-04T12:59:15.000Z</time>
      </trkpt>
      <trkpt lat="45.87596" lon="4.577">
        <ele>396.98883</ele>
        <time>2022-10-04T12:59:16.000Z</time>
      </trkpt>
      <trkpt lat="45.87595" lon="4.57706">
        <ele>397.17841</ele>
        <time>2022-10-04T12:59:17.000Z</time>
      </trkpt>
      <trkpt lat="45.87594" lon="4.57713">
        <ele>397.32355</ele>
        <time>2022-10-04T12:59:18.000Z</time>
      </trkpt>
      <trkpt lat="45.87594" lon="4.5772">
        <ele>397.60202</ele>
        <time>2022-10-04T12:59:19.000Z</time>
      </trkpt>
      <trkpt lat="45.87593" lon="4.57727">
        <ele>397.81757</ele>
        <time>2022-10-04T12:59:20.000Z</time>
      </trkpt>
      <trkpt lat="45.87593" lon="4.57733">
        <ele>397.9953</ele>
        <time>2022-10-04T12:59:21.000Z</time>
      </trkpt>
      <trkpt lat="45.87592" lon="4.57739">
        <ele>398.13361</ele>
        <time>2022-10-04T12:59:22.000Z</time>
      </trkpt>
      <trkpt lat="45.87591" lon="4.57745">
        <ele>398.24011</ele>
        <time>2022-10-04T12:59:23.000Z</time>
      </trkpt>
      <trkpt lat="45.8759" lon="4.57751">
        <ele>398.42343</ele>
        <time>2022-10-04T12:59:24.000Z</time>
      </trkpt>
      <trkpt lat="45.8759" lon="4.57757">
        <ele>398.58466</ele>
        <time>2022-10-04T12:59:25.000Z</time>
      </trkpt>
      <trkpt lat="45.87589" lon="4.57763">
        <ele>398.71979</ele>
        <time>2022-10-04T12:59:26.000Z</time>
      </trkpt>
      <trkpt lat="45.87589" lon="4.57768">
        <ele>398.81207</ele>
        <time>2022-10-04T12:59:27.000Z</time>
      </trkpt>
      <trkpt lat="45.87588" lon="4.57774">
        <ele>398.90707</ele>
        <time>2022-10-04T12:59:28.000Z</time>
      </trkpt>
      <trkpt lat="45.87587" lon="4.5778">
        <ele>399.22067</ele>
        <time>2022-10-04T12:59:29.000Z</time>
      </trkpt>
      <trkpt lat="45.87586" lon="4.57785">
        <ele>399.52408</ele>
        <time>2022-10-04T12:59:30.000Z</time>
      </trkpt>
      <trkpt lat="45.87586" lon="4.5779">
        <ele>399.76944</ele>
        <time>2022-10-04T12:59:31.000Z</time>
      </trkpt>
      <trkpt lat="45.87585" lon="4.57795">
        <ele>400.03204</ele>
        <time>2022-10-04T12:59:32.000Z</time>
      </trkpt>
      <trkpt lat="45.87584" lon="4.578">
        <ele>400.26703</ele>
        <time>2022-10-04T12:59:33.000Z</time>
      </trkpt>
      <trkpt lat="45.87583" lon="4.57805">
        <ele>400.49243</ele>
        <time>2022-10-04T12:59:34.000Z</time>
      </trkpt>
      <trkpt lat="45.87582" lon="4.5781">
        <ele>400.70221</ele>
        <time>2022-10-04T12:59:35.000Z</time>
      </trkpt>
      <trkpt lat="45.8758" lon="4.57816">
        <ele>400.86392</ele>
        <time>2022-10-04T12:59:36.000Z</time>
      </trkpt>
      <trkpt lat="45.87579" lon="4.57822">
        <ele>401.0556</ele>
        <time>2022-10-04T12:59:37.000Z</time>
      </trkpt>
      <trkpt lat="45.87577" lon="4.57828">
        <ele>401.30307</ele>
        <time>2022-10-04T12:59:38.000Z</time>
      </trkpt>
      <trkpt lat="45.87575" lon="4.57834">
        <ele>401.36072</ele>
        <time>2022-10-04T12:59:39.000Z</time>
      </trkpt>
      <trkpt lat="45.87572" lon="4.57841">
        <ele>401.34348</ele>
        <time>2022-10-04T12:59:40.000Z</time>
      </trkpt>
      <trkpt lat="45.87569" lon="4.57847">
        <ele>401.30392</ele>
        <time>2022-10-04T12:59:41.000Z</time>
      </trkpt>
      <trkpt lat="45.87566" lon="4.57852">
        <ele>401.27646</ele>
        <time>2022-10-04T12:59:42.000Z</time>
      </trkpt>
      <trkpt lat="45.87563" lon="4.57857">
        <ele>401.2193</ele>
        <time>2022-10-04T12:59:43.000Z</time>
      </trkpt>
      <trkpt lat="45.87561" lon="4.57864">
        <ele>401.1181</ele>
        <time>2022-10-04T12:59:44.000Z</time>
      </trkpt>
      <trkpt lat="45.87557" lon="4.5787">
        <ele>400.98935</ele>
        <time>2022-10-04T12:59:45.000Z</time>
      </trkpt>
      <trkpt lat="45.87555" lon="4.57875">
        <ele>400.79413</ele>
        <time>2022-10-04T12:59:46.000Z</time>
      </trkpt>
      <trkpt lat="45.87551" lon="4.57881">
        <ele>400.52985</ele>
        <time>2022-10-04T12:59:47.000Z</time>
      </trkpt>
      <trkpt lat="45.87548" lon="4.57888">
        <ele>400.26251</ele>
        <time>2022-10-04T12:59:48.000Z</time>
      </trkpt>
      <trkpt lat="45.87545" lon="4.57895">
        <ele>399.84772</ele>
        <time>2022-10-04T12:59:49.000Z</time>
      </trkpt>
      <trkpt lat="45.87543" lon="4.57901">
        <ele>399.4444</ele>
        <time>2022-10-04T12:59:50.000Z</time>
      </trkpt>
      <trkpt lat="45.87542" lon="4.57908">
        <ele>399.03448</ele>
        <time>2022-10-04T12:59:51.000Z</time>
      </trkpt>
      <trkpt lat="45.87539" lon="4.57915">
        <ele>398.56482</ele>
        <time>2022-10-04T12:59:52.000Z</time>
      </trkpt>
      <trkpt lat="45.87537" lon="4.57922">
        <ele>398.03387</ele>
        <time>2022-10-04T12:59:53.000Z</time>
      </trkpt>
      <trkpt lat="45.87535" lon="4.5793">
        <ele>397.48383</ele>
        <time>2022-10-04T12:59:54.000Z</time>
      </trkpt>
      <trkpt lat="45.87534" lon="4.57937">
        <ele>396.80429</ele>
        <time>2022-10-04T12:59:55.000Z</time>
      </trkpt>
      <trkpt lat="45.87532" lon="4.57945">
        <ele>396.19324</ele>
        <time>2022-10-04T12:59:56.000Z</time>
      </trkpt>
      <trkpt lat="45.87529" lon="4.57954">
        <ele>395.54477</ele>
        <time>2022-10-04T12:59:57.000Z</time>
      </trkpt>
      <trkpt lat="45.87529" lon="4.57962">
        <ele>394.94449</ele>
        <time>2022-10-04T12:59:58.000Z</time>
      </trkpt>
      <trkpt lat="45.87529" lon="4.5797">
        <ele>394.42197</ele>
        <time>2022-10-04T12:59:59.000Z</time>
      </trkpt>
      <trkpt lat="45.87529" lon="4.57977">
        <ele>393.93314</ele>
        <time>2022-10-04T13:00:00.000Z</time>
      </trkpt>
      <trkpt lat="45.87528" lon="4.57985">
        <ele>393.45734</ele>
        <time>2022-10-04T13:00:01.000Z</time>
      </trkpt>
      <trkpt lat="45.87529" lon="4.57992">
        <ele>393.02344</ele>
        <time>2022-10-04T13:00:02.000Z</time>
      </trkpt>
      <trkpt lat="45.8753" lon="4.57997">
        <ele>392.74329</ele>
        <time>2022-10-04T13:00:03.000Z</time>
      </trkpt>
      <trkpt lat="45.8753" lon="4.58004">
        <ele>392.55414</ele>
        <time>2022-10-04T13:00:04.000Z</time>
      </trkpt>
      <trkpt lat="45.8753" lon="4.58012">
        <ele>392.35452</ele>
        <time>2022-10-04T13:00:05.000Z</time>
      </trkpt>
      <trkpt lat="45.8753" lon="4.58021">
        <ele>392.20703</ele>
        <time>2022-10-04T13:00:06.000Z</time>
      </trkpt>
      <trkpt lat="45.87528" lon="4.5803">
        <ele>392.08838</ele>
        <time>2022-10-04T13:00:07.000Z</time>
      </trkpt>
      <trkpt lat="45.87529" lon="4.58037">
        <ele>391.95477</ele>
        <time>2022-10-04T13:00:08.000Z</time>
      </trkpt>
      <trkpt lat="45.8753" lon="4.58043">
        <ele>391.92377</ele>
        <time>2022-10-04T13:00:09.000Z</time>
      </trkpt>
      <trkpt lat="45.87531" lon="4.58052">
        <ele>391.85068</ele>
        <time>2022-10-04T13:00:10.000Z</time>
      </trkpt>
      <trkpt lat="45.87532" lon="4.58059">
        <ele>391.96729</ele>
        <time>2022-10-04T13:00:11.000Z</time>
      </trkpt>
      <trkpt lat="45.87532" lon="4.58066">
        <ele>392.09308</ele>
        <time>2022-10-04T13:00:12.000Z</time>
      </trkpt>
      <trkpt lat="45.87533" lon="4.58073">
        <ele>392.26532</ele>
        <time>2022-10-04T13:00:13.000Z</time>
      </trkpt>
      <trkpt lat="45.87533" lon="4.5808">
        <ele>392.45383</ele>
        <time>2022-10-04T13:00:14.000Z</time>
      </trkpt>
      <trkpt lat="45.87535" lon="4.58088">
        <ele>392.67084</ele>
        <time>2022-10-04T13:00:15.000Z</time>
      </trkpt>
      <trkpt lat="45.87535" lon="4.58095">
        <ele>392.89032</ele>
        <time>2022-10-04T13:00:16.000Z</time>
      </trkpt>
      <trkpt lat="45.87535" lon="4.58102">
        <ele>393.14487</ele>
        <time>2022-10-04T13:00:17.000Z</time>
      </trkpt>
      <trkpt lat="45.87534" lon="4.58109">
        <ele>393.30231</ele>
        <time>2022-10-04T13:00:18.000Z</time>
      </trkpt>
      <trkpt lat="45.87534" lon="4.58117">
        <ele>393.45551</ele>
        <time>2022-10-04T13:00:19.000Z</time>
      </trkpt>
      <trkpt lat="45.87535" lon="4.58124">
        <ele>393.67316</ele>
        <time>2022-10-04T13:00:20.000Z</time>
      </trkpt>
      <trkpt lat="45.87534" lon="4.58131">
        <ele>393.9805</ele>
        <time>2022-10-04T13:00:21.000Z</time>
      </trkpt>
      <trkpt lat="45.87535" lon="4.58139">
        <ele>394.29697</ele>
        <time>2022-10-04T13:00:22.000Z</time>
      </trkpt>
      <trkpt lat="45.87534" lon="4.58146">
        <ele>394.44473</ele>
        <time>2022-10-04T13:00:23.000Z</time>
      </trkpt>
      <trkpt lat="45.87532" lon="4.58153">
        <ele>394.38437</ele>
        <time>2022-10-04T13:00:24.000Z</time>
      </trkpt>
      <trkpt lat="45.87533" lon="4.5816">
        <ele>394.31073</ele>
        <time>2022-10-04T13:00:25.000Z</time>
      </trkpt>
      <trkpt lat="45.87532" lon="4.58167">
        <ele>394.27261</ele>
        <time>2022-10-04T13:00:26.000Z</time>
      </trkpt>
      <trkpt lat="45.87531" lon="4.58174">
        <ele>394.25055</ele>
        <time>2022-10-04T13:00:27.000Z</time>
      </trkpt>
      <trkpt lat="45.87532" lon="4.58179">
        <ele>394.37762</ele>
        <time>2022-10-04T13:00:28.000Z</time>
      </trkpt>
      <trkpt lat="45.87532" lon="4.58186">
        <ele>394.45337</ele>
        <time>2022-10-04T13:00:29.000Z</time>
      </trkpt>
      <trkpt lat="45.87533" lon="4.58194">
        <ele>394.67581</ele>
        <time>2022-10-04T13:00:30.000Z</time>
      </trkpt>
      <trkpt lat="45.87533" lon="4.58201">
        <ele>394.82495</ele>
        <time>2022-10-04T13:00:31.000Z</time>
      </trkpt>
      <trkpt lat="45.87531" lon="4.58206">
        <ele>394.88892</ele>
        <time>2022-10-04T13:00:32.000Z</time>
      </trkpt>
      <trkpt lat="45.87531" lon="4.58213">
        <ele>395.05688</ele>
        <time>2022-10-04T13:00:33.000Z</time>
      </trkpt>
      <trkpt lat="45.87531" lon="4.58219">
        <ele>395.24283</ele>
        <time>2022-10-04T13:00:34.000Z</time>
      </trkpt>
      <trkpt lat="45.8753" lon="4.58226">
        <ele>395.51047</ele>
        <time>2022-10-04T13:00:35.000Z</time>
      </trkpt>
      <trkpt lat="45.87529" lon="4.58233">
        <ele>395.70551</ele>
        <time>2022-10-04T13:00:36.000Z</time>
      </trkpt>
      <trkpt lat="45.87531" lon="4.58264">
        <ele>395.95502</ele>
        <time>2022-10-04T13:00:42.000Z</time>
      </trkpt>
      <trkpt lat="45.87531" lon="4.58268">
        <ele>396.2301</ele>
        <time>2022-10-04T13:00:43.000Z</time>
      </trkpt>
      <trkpt lat="45.87532" lon="4.58273">
        <ele>396.51825</ele>
        <time>2022-10-04T13:00:44.000Z</time>
      </trkpt>
      <trkpt lat="45.87533" lon="4.58277">
        <ele>396.76263</ele>
        <time>2022-10-04T13:00:45.000Z</time>
      </trkpt>
      <trkpt lat="45.87533" lon="4.58282">
        <ele>396.953</ele>
        <time>2022-10-04T13:00:46.000Z</time>
      </trkpt>
      <trkpt lat="45.87534" lon="4.58287">
        <ele>397.13312</ele>
        <time>2022-10-04T13:00:47.000Z</time>
      </trkpt>
      <trkpt lat="45.87535" lon="4.58292">
        <ele>397.35059</ele>
        <time>2022-10-04T13:00:48.000Z</time>
      </trkpt>
      <trkpt lat="45.87536" lon="4.58296">
        <ele>397.67709</ele>
        <time>2022-10-04T13:00:49.000Z</time>
      </trkpt>
      <trkpt lat="45.87537" lon="4.58301">
        <ele>398.04095</ele>
        <time>2022-10-04T13:00:50.000Z</time>
      </trkpt>
      <trkpt lat="45.87539" lon="4.58305">
        <ele>398.37518</ele>
        <time>2022-10-04T13:00:51.000Z</time>
      </trkpt>
      <trkpt lat="45.8754" lon="4.5831">
        <ele>398.76917</ele>
        <time>2022-10-04T13:00:52.000Z</time>
      </trkpt>
      <trkpt lat="45.87542" lon="4.58314">
        <ele>398.99274</ele>
        <time>2022-10-04T13:00:53.000Z</time>
      </trkpt>
      <trkpt lat="45.87545" lon="4.58317">
        <ele>399.22476</ele>
        <time>2022-10-04T13:00:54.000Z</time>
      </trkpt>
      <trkpt lat="45.87547" lon="4.5832">
        <ele>399.32629</ele>
        <time>2022-10-04T13:00:55.000Z</time>
      </trkpt>
      <trkpt lat="45.8755" lon="4.58323">
        <ele>399.41101</ele>
        <time>2022-10-04T13:00:56.000Z</time>
      </trkpt>
      <trkpt lat="45.87553" lon="4.58326">
        <ele>399.59857</ele>
        <time>2022-10-04T13:00:57.000Z</time>
      </trkpt>
      <trkpt lat="45.87555" lon="4.58329">
        <ele>399.70486</ele>
        <time>2022-10-04T13:00:58.000Z</time>
      </trkpt>
      <trkpt lat="45.87558" lon="4.58332">
        <ele>399.75702</ele>
        <time>2022-10-04T13:00:59.000Z</time>
      </trkpt>
      <trkpt lat="45.87561" lon="4.58336">
        <ele>399.74078</ele>
        <time>2022-10-04T13:01:00.000Z</time>
      </trkpt>
      <trkpt lat="45.87565" lon="4.5834">
        <ele>399.74384</ele>
        <time>2022-10-04T13:01:01.000Z</time>
      </trkpt>
      <trkpt lat="45.87568" lon="4.58344">
        <ele>399.71527</ele>
        <time>2022-10-04T13:01:02.000Z</time>
      </trkpt>
      <trkpt lat="45.87571" lon="4.58349">
        <ele>399.70667</ele>
        <time>2022-10-04T13:01:03.000Z</time>
      </trkpt>
      <trkpt lat="45.87575" lon="4.58356">
        <ele>399.68982</ele>
        <time>2022-10-04T13:01:04.000Z</time>
      </trkpt>
      <trkpt lat="45.87576" lon="4.58362">
        <ele>399.67413</ele>
        <time>2022-10-04T13:01:05.000Z</time>
      </trkpt>
      <trkpt lat="45.87578" lon="4.58369">
        <ele>399.61884</ele>
        <time>2022-10-04T13:01:06.000Z</time>
      </trkpt>
      <trkpt lat="45.8758" lon="4.58376">
        <ele>399.50543</ele>
        <time>2022-10-04T13:01:07.000Z</time>
      </trkpt>
      <trkpt lat="45.87582" lon="4.58384">
        <ele>399.38043</ele>
        <time>2022-10-04T13:01:08.000Z</time>
      </trkpt>
      <trkpt lat="45.87582" lon="4.58392">
        <ele>399.23318</ele>
        <time>2022-10-04T13:01:09.000Z</time>
      </trkpt>
      <trkpt lat="45.87582" lon="4.584">
        <ele>399.03607</ele>
        <time>2022-10-04T13:01:10.000Z</time>
      </trkpt>
      <trkpt lat="45.87582" lon="4.58408">
        <ele>398.8761</ele>
        <time>2022-10-04T13:01:11.000Z</time>
      </trkpt>
      <trkpt lat="45.8758" lon="4.58417">
        <ele>398.65866</ele>
        <time>2022-10-04T13:01:12.000Z</time>
      </trkpt>
      <trkpt lat="45.87579" lon="4.58423">
        <ele>398.50525</ele>
        <time>2022-10-04T13:01:13.000Z</time>
      </trkpt>
      <trkpt lat="45.87577" lon="4.58429">
        <ele>398.31473</ele>
        <time>2022-10-04T13:01:14.000Z</time>
      </trkpt>
      <trkpt lat="45.87575" lon="4.58435">
        <ele>398.1517</ele>
        <time>2022-10-04T13:01:15.000Z</time>
      </trkpt>
      <trkpt lat="45.87573" lon="4.58439">
        <ele>397.98557</ele>
        <time>2022-10-04T13:01:16.000Z</time>
      </trkpt>
      <trkpt lat="45.8757" lon="4.58442">
        <ele>397.80988</ele>
        <time>2022-10-04T13:01:17.000Z</time>
      </trkpt>
      <trkpt lat="45.87566" lon="4.58447">
        <ele>397.64853</ele>
        <time>2022-10-04T13:01:18.000Z</time>
      </trkpt>
      <trkpt lat="45.87562" lon="4.58451">
        <ele>397.4743</ele>
        <time>2022-10-04T13:01:19.000Z</time>
      </trkpt>
      <trkpt lat="45.87557" lon="4.58452">
        <ele>397.31815</ele>
        <time>2022-10-04T13:01:20.000Z</time>
      </trkpt>
      <trkpt lat="45.87552" lon="4.58455">
        <ele>397.14294</ele>
        <time>2022-10-04T13:01:21.000Z</time>
      </trkpt>
      <trkpt lat="45.87547" lon="4.58457">
        <ele>396.90775</ele>
        <time>2022-10-04T13:01:22.000Z</time>
      </trkpt>
      <trkpt lat="45.87542" lon="4.58458">
        <ele>396.73346</ele>
        <time>2022-10-04T13:01:23.000Z</time>
      </trkpt>
      <trkpt lat="45.87537" lon="4.58458">
        <ele>396.56378</ele>
        <time>2022-10-04T13:01:24.000Z</time>
      </trkpt>
      <trkpt lat="45.87532" lon="4.5846">
        <ele>396.3421</ele>
        <time>2022-10-04T13:01:25.000Z</time>
      </trkpt>
      <trkpt lat="45.87526" lon="4.58459">
        <ele>396.11011</ele>
        <time>2022-10-04T13:01:26.000Z</time>
      </trkpt>
      <trkpt lat="45.8752" lon="4.58458">
        <ele>395.87552</ele>
        <time>2022-10-04T13:01:27.000Z</time>
      </trkpt>
      <trkpt lat="45.87514" lon="4.58459">
        <ele>395.66284</ele>
        <time>2022-10-04T13:01:28.000Z</time>
      </trkpt>
      <trkpt lat="45.87508" lon="4.5846">
        <ele>395.45654</ele>
        <time>2022-10-04T13:01:29.000Z</time>
      </trkpt>
      <trkpt lat="45.87503" lon="4.58462">
        <ele>395.27252</ele>
        <time>2022-10-04T13:01:30.000Z</time>
      </trkpt>
      <trkpt lat="45.87497" lon="4.58463">
        <ele>395.09662</ele>
        <time>2022-10-04T13:01:31.000Z</time>
      </trkpt>
      <trkpt lat="45.87492" lon="4.58468">
        <ele>394.89008</ele>
        <time>2022-10-04T13:01:32.000Z</time>
      </trkpt>
      <trkpt lat="45.87487" lon="4.5847">
        <ele>394.63077</ele>
        <time>2022-10-04T13:01:33.000Z</time>
      </trkpt>
      <trkpt lat="45.87483" lon="4.58473">
        <ele>394.32278</ele>
        <time>2022-10-04T13:01:34.000Z</time>
      </trkpt>
      <trkpt lat="45.87479" lon="4.58475">
        <ele>394.02945</ele>
        <time>2022-10-04T13:01:35.000Z</time>
      </trkpt>
      <trkpt lat="45.87475" lon="4.58478">
        <ele>393.76825</ele>
        <time>2022-10-04T13:01:36.000Z</time>
      </trkpt>
      <trkpt lat="45.8747" lon="4.58482">
        <ele>393.45184</ele>
        <time>2022-10-04T13:01:37.000Z</time>
      </trkpt>
      <trkpt lat="45.87465" lon="4.58485">
        <ele>393.0386</ele>
        <time>2022-10-04T13:01:38.000Z</time>
      </trkpt>
      <trkpt lat="45.87461" lon="4.58489">
        <ele>392.64551</ele>
        <time>2022-10-04T13:01:39.000Z</time>
      </trkpt>
      <trkpt lat="45.87456" lon="4.58491">
        <ele>392.32144</ele>
        <time>2022-10-04T13:01:40.000Z</time>
      </trkpt>
      <trkpt lat="45.87451" lon="4.58493">
        <ele>392.00543</ele>
        <time>2022-10-04T13:01:41.000Z</time>
      </trkpt>
      <trkpt lat="45.87448" lon="4.58496">
        <ele>391.71216</ele>
        <time>2022-10-04T13:01:42.000Z</time>
      </trkpt>
      <trkpt lat="45.87443" lon="4.58498">
        <ele>391.32843</ele>
        <time>2022-10-04T13:01:43.000Z</time>
      </trkpt>
      <trkpt lat="45.87438" lon="4.585">
        <ele>390.91837</ele>
        <time>2022-10-04T13:01:44.000Z</time>
      </trkpt>
      <trkpt lat="45.87432" lon="4.58503">
        <ele>390.56125</ele>
        <time>2022-10-04T13:01:45.000Z</time>
      </trkpt>
      <trkpt lat="45.87428" lon="4.58504">
        <ele>390.34055</ele>
        <time>2022-10-04T13:01:46.000Z</time>
      </trkpt>
      <trkpt lat="45.87423" lon="4.58506">
        <ele>390.05927</ele>
        <time>2022-10-04T13:01:47.000Z</time>
      </trkpt>
      <trkpt lat="45.87418" lon="4.58508">
        <ele>389.72293</ele>
        <time>2022-10-04T13:01:48.000Z</time>
      </trkpt>
      <trkpt lat="45.87413" lon="4.58509">
        <ele>389.40546</ele>
        <time>2022-10-04T13:01:49.000Z</time>
      </trkpt>
      <trkpt lat="45.87408" lon="4.5851">
        <ele>389.13309</ele>
        <time>2022-10-04T13:01:50.000Z</time>
      </trkpt>
      <trkpt lat="45.87402" lon="4.58511">
        <ele>388.79224</ele>
        <time>2022-10-04T13:01:51.000Z</time>
      </trkpt>
      <trkpt lat="45.87396" lon="4.58513">
        <ele>388.49713</ele>
        <time>2022-10-04T13:01:52.000Z</time>
      </trkpt>
      <trkpt lat="45.8739" lon="4.58513">
        <ele>388.21149</ele>
        <time>2022-10-04T13:01:53.000Z</time>
      </trkpt>
      <trkpt lat="45.87384" lon="4.58514">
        <ele>387.96918</ele>
        <time>2022-10-04T13:01:54.000Z</time>
      </trkpt>
      <trkpt lat="45.87379" lon="4.58514">
        <ele>387.70428</ele>
        <time>2022-10-04T13:01:55.000Z</time>
      </trkpt>
      <trkpt lat="45.87371" lon="4.58518">
        <ele>387.37311</ele>
        <time>2022-10-04T13:01:56.000Z</time>
      </trkpt>
      <trkpt lat="45.87365" lon="4.5852">
        <ele>387.1026</ele>
        <time>2022-10-04T13:01:57.000Z</time>
      </trkpt>
      <trkpt lat="45.87362" lon="4.5852">
        <ele>386.77866</ele>
        <time>2022-10-04T13:01:58.000Z</time>
      </trkpt>
      <trkpt lat="45.87356" lon="4.58519">
        <ele>386.40738</ele>
        <time>2022-10-04T13:01:59.000Z</time>
      </trkpt>
      <trkpt lat="45.87353" lon="4.58518">
        <ele>386.04596</ele>
        <time>2022-10-04T13:02:00.000Z</time>
      </trkpt>
      <trkpt lat="45.87348" lon="4.5852">
        <ele>385.75238</ele>
        <time>2022-10-04T13:02:01.000Z</time>
      </trkpt>
      <trkpt lat="45.87343" lon="4.58522">
        <ele>385.46454</ele>
        <time>2022-10-04T13:02:02.000Z</time>
      </trkpt>
      <trkpt lat="45.87337" lon="4.58524">
        <ele>385.22229</ele>
        <time>2022-10-04T13:02:03.000Z</time>
      </trkpt>
      <trkpt lat="45.87333" lon="4.58527">
        <ele>385.06989</ele>
        <time>2022-10-04T13:02:04.000Z</time>
      </trkpt>
      <trkpt lat="45.87328" lon="4.58528">
        <ele>385.0007</ele>
        <time>2022-10-04T13:02:05.000Z</time>
      </trkpt>
      <trkpt lat="45.87323" lon="4.5853">
        <ele>384.84222</ele>
        <time>2022-10-04T13:02:06.000Z</time>
      </trkpt>
      <trkpt lat="45.87317" lon="4.58532">
        <ele>384.71429</ele>
        <time>2022-10-04T13:02:07.000Z</time>
      </trkpt>
      <trkpt lat="45.87312" lon="4.58535">
        <ele>384.63605</ele>
        <time>2022-10-04T13:02:08.000Z</time>
      </trkpt>
      <trkpt lat="45.87309" lon="4.58538">
        <ele>384.44754</ele>
        <time>2022-10-04T13:02:09.000Z</time>
      </trkpt>
      <trkpt lat="45.87303" lon="4.5854">
        <ele>384.15869</ele>
        <time>2022-10-04T13:02:10.000Z</time>
      </trkpt>
      <trkpt lat="45.87298" lon="4.58543">
        <ele>383.93539</ele>
        <time>2022-10-04T13:02:11.000Z</time>
      </trkpt>
      <trkpt lat="45.87293" lon="4.58546">
        <ele>383.7634</ele>
        <time>2022-10-04T13:02:12.000Z</time>
      </trkpt>
      <trkpt lat="45.87287" lon="4.5855">
        <ele>383.4173</ele>
        <time>2022-10-04T13:02:13.000Z</time>
      </trkpt>
      <trkpt lat="45.87282" lon="4.58553">
        <ele>382.99493</ele>
        <time>2022-10-04T13:02:14.000Z</time>
      </trkpt>
      <trkpt lat="45.87277" lon="4.58557">
        <ele>382.54834</ele>
        <time>2022-10-04T13:02:15.000Z</time>
      </trkpt>
      <trkpt lat="45.87273" lon="4.58561">
        <ele>382.11609</ele>
        <time>2022-10-04T13:02:16.000Z</time>
      </trkpt>
      <trkpt lat="45.87269" lon="4.58566">
        <ele>381.72626</ele>
        <time>2022-10-04T13:02:17.000Z</time>
      </trkpt>
      <trkpt lat="45.87264" lon="4.58571">
        <ele>381.52618</ele>
        <time>2022-10-04T13:02:18.000Z</time>
      </trkpt>
      <trkpt lat="45.87259" lon="4.58576">
        <ele>381.34039</ele>
        <time>2022-10-04T13:02:19.000Z</time>
      </trkpt>
      <trkpt lat="45.87255" lon="4.58581">
        <ele>381.05048</ele>
        <time>2022-10-04T13:02:20.000Z</time>
      </trkpt>
      <trkpt lat="45.8725" lon="4.58586">
        <ele>380.6954</ele>
        <time>2022-10-04T13:02:21.000Z</time>
      </trkpt>
      <trkpt lat="45.87246" lon="4.58592">
        <ele>380.36639</ele>
        <time>2022-10-04T13:02:22.000Z</time>
      </trkpt>
      <trkpt lat="45.87241" lon="4.58598">
        <ele>379.99298</ele>
        <time>2022-10-04T13:02:23.000Z</time>
      </trkpt>
      <trkpt lat="45.87237" lon="4.58605">
        <ele>379.53519</ele>
        <time>2022-10-04T13:02:24.000Z</time>
      </trkpt>
      <trkpt lat="45.87233" lon="4.58612">
        <ele>379.00858</ele>
        <time>2022-10-04T13:02:25.000Z</time>
      </trkpt>
      <trkpt lat="45.87229" lon="4.58619">
        <ele>378.47989</ele>
        <time>2022-10-04T13:02:26.000Z</time>
      </trkpt>
      <trkpt lat="45.87225" lon="4.58627">
        <ele>378.056</ele>
        <time>2022-10-04T13:02:27.000Z</time>
      </trkpt>
      <trkpt lat="45.87221" lon="4.58634">
        <ele>377.63837</ele>
        <time>2022-10-04T13:02:28.000Z</time>
      </trkpt>
      <trkpt lat="45.87219" lon="4.5864">
        <ele>377.30255</ele>
        <time>2022-10-04T13:02:29.000Z</time>
      </trkpt>
      <trkpt lat="45.87215" lon="4.58647">
        <ele>377.04599</ele>
        <time>2022-10-04T13:02:30.000Z</time>
      </trkpt>
      <trkpt lat="45.87211" lon="4.58655">
        <ele>376.79404</ele>
        <time>2022-10-04T13:02:31.000Z</time>
      </trkpt>
      <trkpt lat="45.87207" lon="4.58662">
        <ele>376.50168</ele>
        <time>2022-10-04T13:02:32.000Z</time>
      </trkpt>
      <trkpt lat="45.87204" lon="4.5867">
        <ele>376.40732</ele>
        <time>2022-10-04T13:02:33.000Z</time>
      </trkpt>
      <trkpt lat="45.87202" lon="4.58677">
        <ele>376.34686</ele>
        <time>2022-10-04T13:02:34.000Z</time>
      </trkpt>
      <trkpt lat="45.87199" lon="4.58683">
        <ele>376.32916</ele>
        <time>2022-10-04T13:02:35.000Z</time>
      </trkpt>
      <trkpt lat="45.87196" lon="4.58691">
        <ele>376.34741</ele>
        <time>2022-10-04T13:02:36.000Z</time>
      </trkpt>
      <trkpt lat="45.87192" lon="4.58699">
        <ele>376.29376</ele>
        <time>2022-10-04T13:02:37.000Z</time>
      </trkpt>
      <trkpt lat="45.87189" lon="4.58707">
        <ele>376.16193</ele>
        <time>2022-10-04T13:02:38.000Z</time>
      </trkpt>
      <trkpt lat="45.87185" lon="4.58714">
        <ele>376.10001</ele>
        <time>2022-10-04T13:02:39.000Z</time>
      </trkpt>
      <trkpt lat="45.87182" lon="4.58722">
        <ele>376.10577</ele>
        <time>2022-10-04T13:02:40.000Z</time>
      </trkpt>
      <trkpt lat="45.87178" lon="4.58729">
        <ele>376.13428</ele>
        <time>2022-10-04T13:02:41.000Z</time>
      </trkpt>
      <trkpt lat="45.87176" lon="4.58734">
        <ele>376.11456</ele>
        <time>2022-10-04T13:02:42.000Z</time>
      </trkpt>
      <trkpt lat="45.87173" lon="4.58742">
        <ele>376.12799</ele>
        <time>2022-10-04T13:02:43.000Z</time>
      </trkpt>
      <trkpt lat="45.87169" lon="4.5875">
        <ele>376.1951</ele>
        <time>2022-10-04T13:02:44.000Z</time>
      </trkpt>
      <trkpt lat="45.87167" lon="4.58757">
        <ele>376.15533</ele>
        <time>2022-10-04T13:02:45.000Z</time>
      </trkpt>
      <trkpt lat="45.87164" lon="4.58765">
        <ele>376.13815</ele>
        <time>2022-10-04T13:02:46.000Z</time>
      </trkpt>
      <trkpt lat="45.8716" lon="4.58772">
        <ele>376.02249</ele>
        <time>2022-10-04T13:02:47.000Z</time>
      </trkpt>
      <trkpt lat="45.87158" lon="4.5878">
        <ele>375.93845</ele>
        <time>2022-10-04T13:02:48.000Z</time>
      </trkpt>
      <trkpt lat="45.87155" lon="4.58787">
        <ele>375.87775</ele>
        <time>2022-10-04T13:02:49.000Z</time>
      </trkpt>
      <trkpt lat="45.87152" lon="4.58794">
        <ele>375.83997</ele>
        <time>2022-10-04T13:02:50.000Z</time>
      </trkpt>
      <trkpt lat="45.87147" lon="4.58801">
        <ele>375.66827</ele>
        <time>2022-10-04T13:02:51.000Z</time>
      </trkpt>
      <trkpt lat="45.87144" lon="4.58808">
        <ele>375.49634</ele>
        <time>2022-10-04T13:02:52.000Z</time>
      </trkpt>
      <trkpt lat="45.87141" lon="4.58816">
        <ele>375.32306</ele>
        <time>2022-10-04T13:02:53.000Z</time>
      </trkpt>
      <trkpt lat="45.87138" lon="4.58823">
        <ele>375.19785</ele>
        <time>2022-10-04T13:02:54.000Z</time>
      </trkpt>
      <trkpt lat="45.87135" lon="4.5883">
        <ele>375.07013</ele>
        <time>2022-10-04T13:02:55.000Z</time>
      </trkpt>
      <trkpt lat="45.87131" lon="4.58836">
        <ele>374.93686</ele>
        <time>2022-10-04T13:02:56.000Z</time>
      </trkpt>
      <trkpt lat="45.87129" lon="4.58843">
        <ele>374.81415</ele>
        <time>2022-10-04T13:02:57.000Z</time>
      </trkpt>
      <trkpt lat="45.87125" lon="4.58852">
        <ele>374.75388</ele>
        <time>2022-10-04T13:02:58.000Z</time>
      </trkpt>
      <trkpt lat="45.87122" lon="4.58859">
        <ele>374.62033</ele>
        <time>2022-10-04T13:02:59.000Z</time>
      </trkpt>
      <trkpt lat="45.87118" lon="4.58867">
        <ele>374.42975</ele>
        <time>2022-10-04T13:03:00.000Z</time>
      </trkpt>
      <trkpt lat="45.87115" lon="4.58874">
        <ele>374.29123</ele>
        <time>2022-10-04T13:03:01.000Z</time>
      </trkpt>
      <trkpt lat="45.87113" lon="4.5888">
        <ele>374.23471</ele>
        <time>2022-10-04T13:03:02.000Z</time>
      </trkpt>
      <trkpt lat="45.8711" lon="4.58886">
        <ele>374.18924</ele>
        <time>2022-10-04T13:03:03.000Z</time>
      </trkpt>
      <trkpt lat="45.87108" lon="4.58892">
        <ele>374.13351</ele>
        <time>2022-10-04T13:03:04.000Z</time>
      </trkpt>
      <trkpt lat="45.87105" lon="4.58898">
        <ele>374.16922</ele>
        <time>2022-10-04T13:03:05.000Z</time>
      </trkpt>
      <trkpt lat="45.87103" lon="4.58905">
        <ele>374.20956</ele>
        <time>2022-10-04T13:03:06.000Z</time>
      </trkpt>
      <trkpt lat="45.87101" lon="4.58911">
        <ele>374.24805</ele>
        <time>2022-10-04T13:03:07.000Z</time>
      </trkpt>
      <trkpt lat="45.871" lon="4.58916">
        <ele>374.27344</ele>
        <time>2022-10-04T13:03:08.000Z</time>
      </trkpt>
      <trkpt lat="45.87095" lon="4.58922">
        <ele>374.21451</ele>
        <time>2022-10-04T13:03:09.000Z</time>
      </trkpt>
      <trkpt lat="45.87092" lon="4.58928">
        <ele>374.09637</ele>
        <time>2022-10-04T13:03:10.000Z</time>
      </trkpt>
      <trkpt lat="45.87089" lon="4.58933">
        <ele>374.06216</ele>
        <time>2022-10-04T13:03:11.000Z</time>
      </trkpt>
      <trkpt lat="45.87087" lon="4.58938">
        <ele>373.96994</ele>
        <time>2022-10-04T13:03:12.000Z</time>
      </trkpt>
      <trkpt lat="45.87085" lon="4.58945">
        <ele>373.7991</ele>
        <time>2022-10-04T13:03:13.000Z</time>
      </trkpt>
      <trkpt lat="45.87082" lon="4.5895">
        <ele>373.62384</ele>
        <time>2022-10-04T13:03:14.000Z</time>
      </trkpt>
      <trkpt lat="45.87078" lon="4.58955">
        <ele>373.47165</ele>
        <time>2022-10-04T13:03:15.000Z</time>
      </trkpt>
      <trkpt lat="45.87075" lon="4.5896">
        <ele>373.271</ele>
        <time>2022-10-04T13:03:16.000Z</time>
      </trkpt>
      <trkpt lat="45.87073" lon="4.58964">
        <ele>372.99356</ele>
        <time>2022-10-04T13:03:17.000Z</time>
      </trkpt>
      <trkpt lat="45.87071" lon="4.58973">
        <ele>372.67517</ele>
        <time>2022-10-04T13:03:18.000Z</time>
      </trkpt>
      <trkpt lat="45.87068" lon="4.5898">
        <ele>372.39545</ele>
        <time>2022-10-04T13:03:19.000Z</time>
      </trkpt>
      <trkpt lat="45.87065" lon="4.58987">
        <ele>372.19263</ele>
        <time>2022-10-04T13:03:20.000Z</time>
      </trkpt>
      <trkpt lat="45.87061" lon="4.58992">
        <ele>371.96823</ele>
        <time>2022-10-04T13:03:21.000Z</time>
      </trkpt>
      <trkpt lat="45.87057" lon="4.58997">
        <ele>371.67291</ele>
        <time>2022-10-04T13:03:22.000Z</time>
      </trkpt>
      <trkpt lat="45.87053" lon="4.59003">
        <ele>371.20728</ele>
        <time>2022-10-04T13:03:23.000Z</time>
      </trkpt>
      <trkpt lat="45.87049" lon="4.5901">
        <ele>370.65952</ele>
        <time>2022-10-04T13:03:24.000Z</time>
      </trkpt>
      <trkpt lat="45.87046" lon="4.59016">
        <ele>369.897</ele>
        <time>2022-10-04T13:03:25.000Z</time>
      </trkpt>
      <trkpt lat="45.87043" lon="4.59023">
        <ele>369.10345</ele>
        <time>2022-10-04T13:03:26.000Z</time>
      </trkpt>
      <trkpt lat="45.87039" lon="4.59029">
        <ele>368.34796</ele>
        <time>2022-10-04T13:03:27.000Z</time>
      </trkpt>
      <trkpt lat="45.87035" lon="4.59036">
        <ele>367.6098</ele>
        <time>2022-10-04T13:03:28.000Z</time>
      </trkpt>
      <trkpt lat="45.87031" lon="4.59042">
        <ele>366.81085</ele>
        <time>2022-10-04T13:03:29.000Z</time>
      </trkpt>
      <trkpt lat="45.87026" lon="4.59049">
        <ele>366.03973</ele>
        <time>2022-10-04T13:03:30.000Z</time>
      </trkpt>
      <trkpt lat="45.87021" lon="4.59056">
        <ele>365.29694</ele>
        <time>2022-10-04T13:03:31.000Z</time>
      </trkpt>
      <trkpt lat="45.87017" lon="4.59065">
        <ele>364.57068</ele>
        <time>2022-10-04T13:03:32.000Z</time>
      </trkpt>
      <trkpt lat="45.87011" lon="4.59073">
        <ele>363.85455</ele>
        <time>2022-10-04T13:03:33.000Z</time>
      </trkpt>
      <trkpt lat="45.87005" lon="4.59079">
        <ele>363.13928</ele>
        <time>2022-10-04T13:03:34.000Z</time>
      </trkpt>
      <trkpt lat="45.86999" lon="4.59086">
        <ele>362.36804</ele>
        <time>2022-10-04T13:03:35.000Z</time>
      </trkpt>
      <trkpt lat="45.86993" lon="4.59094">
        <ele>361.65509</ele>
        <time>2022-10-04T13:03:36.000Z</time>
      </trkpt>
      <trkpt lat="45.86988" lon="4.59101">
        <ele>361.07123</ele>
        <time>2022-10-04T13:03:37.000Z</time>
      </trkpt>
      <trkpt lat="45.86981" lon="4.59109">
        <ele>360.56183</ele>
        <time>2022-10-04T13:03:38.000Z</time>
      </trkpt>
      <trkpt lat="45.86976" lon="4.59118">
        <ele>360.02731</ele>
        <time>2022-10-04T13:03:39.000Z</time>
      </trkpt>
      <trkpt lat="45.86969" lon="4.59126">
        <ele>359.45938</ele>
        <time>2022-10-04T13:03:40.000Z</time>
      </trkpt>
      <trkpt lat="45.86963" lon="4.59135">
        <ele>358.83521</ele>
        <time>2022-10-04T13:03:41.000Z</time>
      </trkpt>
      <trkpt lat="45.86958" lon="4.59142">
        <ele>358.22525</ele>
        <time>2022-10-04T13:03:42.000Z</time>
      </trkpt>
      <trkpt lat="45.86951" lon="4.59151">
        <ele>357.66367</ele>
        <time>2022-10-04T13:03:43.000Z</time>
      </trkpt>
      <trkpt lat="45.86945" lon="4.59161">
        <ele>357.10632</ele>
        <time>2022-10-04T13:03:44.000Z</time>
      </trkpt>
      <trkpt lat="45.86938" lon="4.59168">
        <ele>356.79047</ele>
        <time>2022-10-04T13:03:45.000Z</time>
      </trkpt>
      <trkpt lat="45.86932" lon="4.59175">
        <ele>356.43533</ele>
        <time>2022-10-04T13:03:46.000Z</time>
      </trkpt>
      <trkpt lat="45.86925" lon="4.59182">
        <ele>356.08514</ele>
        <time>2022-10-04T13:03:47.000Z</time>
      </trkpt>
      <trkpt lat="45.86917" lon="4.5919">
        <ele>355.65988</ele>
        <time>2022-10-04T13:03:48.000Z</time>
      </trkpt>
      <trkpt lat="45.86911" lon="4.59198">
        <ele>355.34775</ele>
        <time>2022-10-04T13:03:49.000Z</time>
      </trkpt>
      <trkpt lat="45.86907" lon="4.59205">
        <ele>354.98871</ele>
        <time>2022-10-04T13:03:50.000Z</time>
      </trkpt>
      <trkpt lat="45.86901" lon="4.59214">
        <ele>354.61749</ele>
        <time>2022-10-04T13:03:51.000Z</time>
      </trkpt>
      <trkpt lat="45.86894" lon="4.59222">
        <ele>354.242</ele>
        <time>2022-10-04T13:03:52.000Z</time>
      </trkpt>
      <trkpt lat="45.86888" lon="4.59229">
        <ele>353.97824</ele>
        <time>2022-10-04T13:03:53.000Z</time>
      </trkpt>
      <trkpt lat="45.86882" lon="4.59237">
        <ele>353.72275</ele>
        <time>2022-10-04T13:03:54.000Z</time>
      </trkpt>
      <trkpt lat="45.86876" lon="4.59245">
        <ele>353.4614</ele>
        <time>2022-10-04T13:03:55.000Z</time>
      </trkpt>
      <trkpt lat="45.8687" lon="4.59253">
        <ele>353.14197</ele>
        <time>2022-10-04T13:03:56.000Z</time>
      </trkpt>
      <trkpt lat="45.86866" lon="4.5926">
        <ele>352.83139</ele>
        <time>2022-10-04T13:03:57.000Z</time>
      </trkpt>
      <trkpt lat="45.86859" lon="4.59267">
        <ele>352.47635</ele>
        <time>2022-10-04T13:03:58.000Z</time>
      </trkpt>
      <trkpt lat="45.86853" lon="4.59273">
        <ele>352.10065</ele>
        <time>2022-10-04T13:03:59.000Z</time>
      </trkpt>
      <trkpt lat="45.86846" lon="4.59279">
        <ele>351.65338</ele>
        <time>2022-10-04T13:04:00.000Z</time>
      </trkpt>
      <trkpt lat="45.8684" lon="4.59285">
        <ele>351.17523</ele>
        <time>2022-10-04T13:04:01.000Z</time>
      </trkpt>
      <trkpt lat="45.86835" lon="4.59293">
        <ele>350.66907</ele>
        <time>2022-10-04T13:04:02.000Z</time>
      </trkpt>
      <trkpt lat="45.8683" lon="4.59301">
        <ele>350.27368</ele>
        <time>2022-10-04T13:04:03.000Z</time>
      </trkpt>
      <trkpt lat="45.86824" lon="4.59308">
        <ele>349.94232</ele>
        <time>2022-10-04T13:04:04.000Z</time>
      </trkpt>
      <trkpt lat="45.8682" lon="4.59315">
        <ele>349.57828</ele>
        <time>2022-10-04T13:04:05.000Z</time>
      </trkpt>
      <trkpt lat="45.86816" lon="4.59325">
        <ele>349.2261</ele>
        <time>2022-10-04T13:04:06.000Z</time>
      </trkpt>
      <trkpt lat="45.86812" lon="4.59332">
        <ele>348.89178</ele>
        <time>2022-10-04T13:04:07.000Z</time>
      </trkpt>
      <trkpt lat="45.86808" lon="4.59339">
        <ele>348.55634</ele>
        <time>2022-10-04T13:04:08.000Z</time>
      </trkpt>
      <trkpt lat="45.86807" lon="4.59347">
        <ele>348.33954</ele>
        <time>2022-10-04T13:04:09.000Z</time>
      </trkpt>
      <trkpt lat="45.86804" lon="4.59356">
        <ele>348.17105</ele>
        <time>2022-10-04T13:04:10.000Z</time>
      </trkpt>
      <trkpt lat="45.86801" lon="4.59365">
        <ele>348.01379</ele>
        <time>2022-10-04T13:04:11.000Z</time>
      </trkpt>
      <trkpt lat="45.86798" lon="4.59374">
        <ele>347.85605</ele>
        <time>2022-10-04T13:04:12.000Z</time>
      </trkpt>
      <trkpt lat="45.86795" lon="4.59382">
        <ele>347.59766</ele>
        <time>2022-10-04T13:04:13.000Z</time>
      </trkpt>
      <trkpt lat="45.86794" lon="4.59389">
        <ele>347.28986</ele>
        <time>2022-10-04T13:04:14.000Z</time>
      </trkpt>
      <trkpt lat="45.86792" lon="4.59396">
        <ele>346.97238</ele>
        <time>2022-10-04T13:04:15.000Z</time>
      </trkpt>
      <trkpt lat="45.86789" lon="4.59405">
        <ele>346.67719</ele>
        <time>2022-10-04T13:04:16.000Z</time>
      </trkpt>
      <trkpt lat="45.86786" lon="4.59413">
        <ele>346.33304</ele>
        <time>2022-10-04T13:04:17.000Z</time>
      </trkpt>
      <trkpt lat="45.86784" lon="4.59422">
        <ele>345.99304</ele>
        <time>2022-10-04T13:04:18.000Z</time>
      </trkpt>
      <trkpt lat="45.86781" lon="4.59429">
        <ele>345.73203</ele>
        <time>2022-10-04T13:04:19.000Z</time>
      </trkpt>
      <trkpt lat="45.86779" lon="4.59436">
        <ele>345.57242</ele>
        <time>2022-10-04T13:04:20.000Z</time>
      </trkpt>
      <trkpt lat="45.86776" lon="4.59444">
        <ele>345.48563</ele>
        <time>2022-10-04T13:04:21.000Z</time>
      </trkpt>
      <trkpt lat="45.86774" lon="4.59452">
        <ele>345.48285</ele>
        <time>2022-10-04T13:04:22.000Z</time>
      </trkpt>
      <trkpt lat="45.86772" lon="4.59461">
        <ele>345.67239</ele>
        <time>2022-10-04T13:04:23.000Z</time>
      </trkpt>
      <trkpt lat="45.86769" lon="4.59469">
        <ele>345.86142</ele>
        <time>2022-10-04T13:04:24.000Z</time>
      </trkpt>
      <trkpt lat="45.86768" lon="4.59475">
        <ele>346.0661</ele>
        <time>2022-10-04T13:04:25.000Z</time>
      </trkpt>
      <trkpt lat="45.86766" lon="4.59483">
        <ele>346.24948</ele>
        <time>2022-10-04T13:04:26.000Z</time>
      </trkpt>
      <trkpt lat="45.86765" lon="4.59491">
        <ele>346.3045</ele>
        <time>2022-10-04T13:04:27.000Z</time>
      </trkpt>
      <trkpt lat="45.86762" lon="4.59498">
        <ele>346.36203</ele>
        <time>2022-10-04T13:04:28.000Z</time>
      </trkpt>
      <trkpt lat="45.86759" lon="4.59505">
        <ele>346.26425</ele>
        <time>2022-10-04T13:04:29.000Z</time>
      </trkpt>
      <trkpt lat="45.86756" lon="4.59511">
        <ele>346.07181</ele>
        <time>2022-10-04T13:04:30.000Z</time>
      </trkpt>
      <trkpt lat="45.86754" lon="4.59518">
        <ele>345.90967</ele>
        <time>2022-10-04T13:04:31.000Z</time>
      </trkpt>
      <trkpt lat="45.86752" lon="4.59525">
        <ele>345.84631</ele>
        <time>2022-10-04T13:04:32.000Z</time>
      </trkpt>
      <trkpt lat="45.86749" lon="4.59531">
        <ele>345.84396</ele>
        <time>2022-10-04T13:04:33.000Z</time>
      </trkpt>
      <trkpt lat="45.86747" lon="4.59539">
        <ele>345.88412</ele>
        <time>2022-10-04T13:04:34.000Z</time>
      </trkpt>
      <trkpt lat="45.86744" lon="4.59546">
        <ele>346.00443</ele>
        <time>2022-10-04T13:04:35.000Z</time>
      </trkpt>
      <trkpt lat="45.86742" lon="4.59553">
        <ele>346.13159</ele>
        <time>2022-10-04T13:04:36.000Z</time>
      </trkpt>
      <trkpt lat="45.8674" lon="4.59559">
        <ele>346.28833</ele>
        <time>2022-10-04T13:04:37.000Z</time>
      </trkpt>
      <trkpt lat="45.86738" lon="4.59565">
        <ele>346.41595</ele>
        <time>2022-10-04T13:04:38.000Z</time>
      </trkpt>
      <trkpt lat="45.86736" lon="4.59572">
        <ele>346.55991</ele>
        <time>2022-10-04T13:04:39.000Z</time>
      </trkpt>
      <trkpt lat="45.86733" lon="4.59578">
        <ele>346.71356</ele>
        <time>2022-10-04T13:04:40.000Z</time>
      </trkpt>
      <trkpt lat="45.86731" lon="4.59586">
        <ele>346.9079</ele>
        <time>2022-10-04T13:04:41.000Z</time>
      </trkpt>
      <trkpt lat="45.86729" lon="4.59594">
        <ele>347.08359</ele>
        <time>2022-10-04T13:04:42.000Z</time>
      </trkpt>
      <trkpt lat="45.86727" lon="4.596">
        <ele>347.05792</ele>
        <time>2022-10-04T13:04:43.000Z</time>
      </trkpt>
      <trkpt lat="45.86725" lon="4.59607">
        <ele>347.04865</ele>
        <time>2022-10-04T13:04:44.000Z</time>
      </trkpt>
      <trkpt lat="45.86723" lon="4.59613">
        <ele>347.01093</ele>
        <time>2022-10-04T13:04:45.000Z</time>
      </trkpt>
      <trkpt lat="45.86721" lon="4.59619">
        <ele>347.04376</ele>
        <time>2022-10-04T13:04:46.000Z</time>
      </trkpt>
      <trkpt lat="45.86719" lon="4.59625">
        <ele>347.21786</ele>
        <time>2022-10-04T13:04:47.000Z</time>
      </trkpt>
      <trkpt lat="45.86718" lon="4.59632">
        <ele>347.44833</ele>
        <time>2022-10-04T13:04:48.000Z</time>
      </trkpt>
      <trkpt lat="45.86715" lon="4.59638">
        <ele>347.74417</ele>
        <time>2022-10-04T13:04:49.000Z</time>
      </trkpt>
      <trkpt lat="45.86714" lon="4.59643">
        <ele>348.11179</ele>
        <time>2022-10-04T13:04:50.000Z</time>
      </trkpt>
      <trkpt lat="45.86712" lon="4.5965">
        <ele>348.42932</ele>
        <time>2022-10-04T13:04:51.000Z</time>
      </trkpt>
      <trkpt lat="45.86711" lon="4.59659">
        <ele>348.69464</ele>
        <time>2022-10-04T13:04:52.000Z</time>
      </trkpt>
      <trkpt lat="45.8671" lon="4.59662">
        <ele>349.14841</ele>
        <time>2022-10-04T13:04:53.000Z</time>
      </trkpt>
      <trkpt lat="45.86708" lon="4.59667">
        <ele>349.58096</ele>
        <time>2022-10-04T13:04:54.000Z</time>
      </trkpt>
      <trkpt lat="45.86705" lon="4.59674">
        <ele>349.97269</ele>
        <time>2022-10-04T13:04:55.000Z</time>
      </trkpt>
      <trkpt lat="45.86702" lon="4.59683">
        <ele>350.22968</ele>
        <time>2022-10-04T13:04:56.000Z</time>
      </trkpt>
      <trkpt lat="45.86699" lon="4.59689">
        <ele>350.43216</ele>
        <time>2022-10-04T13:04:57.000Z</time>
      </trkpt>
      <trkpt lat="45.86696" lon="4.59695">
        <ele>350.66483</ele>
        <time>2022-10-04T13:04:58.000Z</time>
      </trkpt>
      <trkpt lat="45.86693" lon="4.597">
        <ele>350.97736</ele>
        <time>2022-10-04T13:04:59.000Z</time>
      </trkpt>
      <trkpt lat="45.86689" lon="4.59706">
        <ele>351.34506</ele>
        <time>2022-10-04T13:05:00.000Z</time>
      </trkpt>
      <trkpt lat="45.86685" lon="4.5971">
        <ele>351.72964</ele>
        <time>2022-10-04T13:05:01.000Z</time>
      </trkpt>
      <trkpt lat="45.86682" lon="4.59714">
        <ele>352.08499</ele>
        <time>2022-10-04T13:05:02.000Z</time>
      </trkpt>
      <trkpt lat="45.86678" lon="4.5972">
        <ele>352.45721</ele>
        <time>2022-10-04T13:05:03.000Z</time>
      </trkpt>
      <trkpt lat="45.86675" lon="4.59726">
        <ele>352.74646</ele>
        <time>2022-10-04T13:05:04.000Z</time>
      </trkpt>
      <trkpt lat="45.86672" lon="4.59732">
        <ele>353.03741</ele>
        <time>2022-10-04T13:05:05.000Z</time>
      </trkpt>
      <trkpt lat="45.86669" lon="4.59739">
        <ele>353.28983</ele>
        <time>2022-10-04T13:05:06.000Z</time>
      </trkpt>
      <trkpt lat="45.86667" lon="4.59745">
        <ele>353.55371</ele>
        <time>2022-10-04T13:05:07.000Z</time>
      </trkpt>
      <trkpt lat="45.86666" lon="4.59751">
        <ele>353.78577</ele>
        <time>2022-10-04T13:05:08.000Z</time>
      </trkpt>
      <trkpt lat="45.86667" lon="4.59757">
        <ele>353.89029</ele>
        <time>2022-10-04T13:05:09.000Z</time>
      </trkpt>
      <trkpt lat="45.86669" lon="4.59763">
        <ele>354.02728</ele>
        <time>2022-10-04T13:05:10.000Z</time>
      </trkpt>
      <trkpt lat="45.86671" lon="4.59768">
        <ele>354.17682</ele>
        <time>2022-10-04T13:05:11.000Z</time>
      </trkpt>
      <trkpt lat="45.86672" lon="4.59774">
        <ele>354.39691</ele>
        <time>2022-10-04T13:05:12.000Z</time>
      </trkpt>
      <trkpt lat="45.86674" lon="4.59779">
        <ele>354.41962</ele>
        <time>2022-10-04T13:05:13.000Z</time>
      </trkpt>
      <trkpt lat="45.86675" lon="4.59784">
        <ele>354.47296</ele>
        <time>2022-10-04T13:05:14.000Z</time>
      </trkpt>
      <trkpt lat="45.86676" lon="4.59789">
        <ele>354.52216</ele>
        <time>2022-10-04T13:05:15.000Z</time>
      </trkpt>
      <trkpt lat="45.86677" lon="4.59795">
        <ele>354.76727</ele>
        <time>2022-10-04T13:05:16.000Z</time>
      </trkpt>
      <trkpt lat="45.86678" lon="4.59799">
        <ele>355.06796</ele>
        <time>2022-10-04T13:05:17.000Z</time>
      </trkpt>
      <trkpt lat="45.86679" lon="4.59805">
        <ele>355.35431</ele>
        <time>2022-10-04T13:05:18.000Z</time>
      </trkpt>
      <trkpt lat="45.8668" lon="4.59811">
        <ele>355.5358</ele>
        <time>2022-10-04T13:05:19.000Z</time>
      </trkpt>
      <trkpt lat="45.86682" lon="4.59815">
        <ele>355.62531</ele>
        <time>2022-10-04T13:05:20.000Z</time>
      </trkpt>
      <trkpt lat="45.86683" lon="4.5982">
        <ele>355.65695</ele>
        <time>2022-10-04T13:05:21.000Z</time>
      </trkpt>
      <trkpt lat="45.86684" lon="4.59825">
        <ele>355.71527</ele>
        <time>2022-10-04T13:05:22.000Z</time>
      </trkpt>
      <trkpt lat="45.86685" lon="4.5983">
        <ele>355.7608</ele>
        <time>2022-10-04T13:05:23.000Z</time>
      </trkpt>
      <trkpt lat="45.86686" lon="4.59835">
        <ele>355.88052</ele>
        <time>2022-10-04T13:05:24.000Z</time>
      </trkpt>
      <trkpt lat="45.86686" lon="4.5984">
        <ele>356.00317</ele>
        <time>2022-10-04T13:05:25.000Z</time>
      </trkpt>
      <trkpt lat="45.86686" lon="4.59846">
        <ele>356.16986</ele>
        <time>2022-10-04T13:05:26.000Z</time>
      </trkpt>
      <trkpt lat="45.86687" lon="4.59851">
        <ele>356.22485</ele>
        <time>2022-10-04T13:05:27.000Z</time>
      </trkpt>
      <trkpt lat="45.86687" lon="4.59857">
        <ele>356.30856</ele>
        <time>2022-10-04T13:05:28.000Z</time>
      </trkpt>
      <trkpt lat="45.86688" lon="4.59863">
        <ele>356.50998</ele>
        <time>2022-10-04T13:05:29.000Z</time>
      </trkpt>
      <trkpt lat="45.86688" lon="4.59869">
        <ele>356.71811</ele>
        <time>2022-10-04T13:05:30.000Z</time>
      </trkpt>
      <trkpt lat="45.86688" lon="4.59875">
        <ele>356.93912</ele>
        <time>2022-10-04T13:05:31.000Z</time>
      </trkpt>
      <trkpt lat="45.86689" lon="4.59881">
        <ele>357.11652</ele>
        <time>2022-10-04T13:05:32.000Z</time>
      </trkpt>
      <trkpt lat="45.86689" lon="4.59888">
        <ele>357.37201</ele>
        <time>2022-10-04T13:05:33.000Z</time>
      </trkpt>
      <trkpt lat="45.8669" lon="4.59893">
        <ele>357.6026</ele>
        <time>2022-10-04T13:05:34.000Z</time>
      </trkpt>
      <trkpt lat="45.8669" lon="4.59899">
        <ele>357.84494</ele>
        <time>2022-10-04T13:05:35.000Z</time>
      </trkpt>
      <trkpt lat="45.86691" lon="4.59905">
        <ele>358.03662</ele>
        <time>2022-10-04T13:05:36.000Z</time>
      </trkpt>
      <trkpt lat="45.86692" lon="4.5991">
        <ele>358.21588</ele>
        <time>2022-10-04T13:05:37.000Z</time>
      </trkpt>
      <trkpt lat="45.86693" lon="4.59916">
        <ele>358.43387</ele>
        <time>2022-10-04T13:05:38.000Z</time>
      </trkpt>
      <trkpt lat="45.86694" lon="4.59921">
        <ele>358.60675</ele>
        <time>2022-10-04T13:05:39.000Z</time>
      </trkpt>
      <trkpt lat="45.86695" lon="4.59926">
        <ele>358.83908</ele>
        <time>2022-10-04T13:05:40.000Z</time>
      </trkpt>
      <trkpt lat="45.86695" lon="4.59932">
        <ele>359.08539</ele>
        <time>2022-10-04T13:05:41.000Z</time>
      </trkpt>
      <trkpt lat="45.86696" lon="4.59937">
        <ele>359.34906</ele>
        <time>2022-10-04T13:05:42.000Z</time>
      </trkpt>
      <trkpt lat="45.86696" lon="4.59942">
        <ele>359.57224</ele>
        <time>2022-10-04T13:05:43.000Z</time>
      </trkpt>
      <trkpt lat="45.86697" lon="4.59947">
        <ele>359.83765</ele>
        <time>2022-10-04T13:05:44.000Z</time>
      </trkpt>
      <trkpt lat="45.86697" lon="4.59952">
        <ele>360.14453</ele>
        <time>2022-10-04T13:05:45.000Z</time>
      </trkpt>
      <trkpt lat="45.86698" lon="4.59957">
        <ele>360.41885</ele>
        <time>2022-10-04T13:05:46.000Z</time>
      </trkpt>
      <trkpt lat="45.86698" lon="4.59962">
        <ele>360.76935</ele>
        <time>2022-10-04T13:05:47.000Z</time>
      </trkpt>
      <trkpt lat="45.86699" lon="4.59967">
        <ele>361.08856</ele>
        <time>2022-10-04T13:05:48.000Z</time>
      </trkpt>
      <trkpt lat="45.867" lon="4.59972">
        <ele>361.46545</ele>
        <time>2022-10-04T13:05:49.000Z</time>
      </trkpt>
      <trkpt lat="45.86704" lon="4.60001">
        <ele>361.94278</ele>
        <time>2022-10-04T13:05:55.000Z</time>
      </trkpt>
      <trkpt lat="45.86704" lon="4.60006">
        <ele>362.51089</ele>
        <time>2022-10-04T13:05:56.000Z</time>
      </trkpt>
      <trkpt lat="45.86705" lon="4.60011">
        <ele>363.07236</ele>
        <time>2022-10-04T13:05:57.000Z</time>
      </trkpt>
      <trkpt lat="45.86706" lon="4.60015">
        <ele>363.66315</ele>
        <time>2022-10-04T13:05:58.000Z</time>
      </trkpt>
      <trkpt lat="45.86707" lon="4.6002">
        <ele>364.336</ele>
        <time>2022-10-04T13:05:59.000Z</time>
      </trkpt>
      <trkpt lat="45.86708" lon="4.60024">
        <ele>365.00793</ele>
        <time>2022-10-04T13:06:00.000Z</time>
      </trkpt>
      <trkpt lat="45.86708" lon="4.60028">
        <ele>365.62613</ele>
        <time>2022-10-04T13:06:01.000Z</time>
      </trkpt>
      <trkpt lat="45.86709" lon="4.60032">
        <ele>366.20493</ele>
        <time>2022-10-04T13:06:02.000Z</time>
      </trkpt>
      <trkpt lat="45.86709" lon="4.60036">
        <ele>366.77411</ele>
        <time>2022-10-04T13:06:03.000Z</time>
      </trkpt>
      <trkpt lat="45.8671" lon="4.60039">
        <ele>367.40204</ele>
        <time>2022-10-04T13:06:04.000Z</time>
      </trkpt>
      <trkpt lat="45.86711" lon="4.60043">
        <ele>368.00595</ele>
        <time>2022-10-04T13:06:05.000Z</time>
      </trkpt>
      <trkpt lat="45.86712" lon="4.60047">
        <ele>368.59506</ele>
        <time>2022-10-04T13:06:06.000Z</time>
      </trkpt>
      <trkpt lat="45.86713" lon="4.60051">
        <ele>369.1922</ele>
        <time>2022-10-04T13:06:07.000Z</time>
      </trkpt>
      <trkpt lat="45.86715" lon="4.60055">
        <ele>369.87091</ele>
        <time>2022-10-04T13:06:08.000Z</time>
      </trkpt>
      <trkpt lat="45.86716" lon="4.60059">
        <ele>370.49774</ele>
        <time>2022-10-04T13:06:09.000Z</time>
      </trkpt>
      <trkpt lat="45.86717" lon="4.60062">
        <ele>371.0889</ele>
        <time>2022-10-04T13:06:10.000Z</time>
      </trkpt>
      <trkpt lat="45.86719" lon="4.60066">
        <ele>371.68439</ele>
        <time>2022-10-04T13:06:11.000Z</time>
      </trkpt>
      <trkpt lat="45.8672" lon="4.6007">
        <ele>372.24615</ele>
        <time>2022-10-04T13:06:12.000Z</time>
      </trkpt>
      <trkpt lat="45.86721" lon="4.60073">
        <ele>372.81293</ele>
        <time>2022-10-04T13:06:13.000Z</time>
      </trkpt>
      <trkpt lat="45.86722" lon="4.60076">
        <ele>373.31842</ele>
        <time>2022-10-04T13:06:14.000Z</time>
      </trkpt>
      <trkpt lat="45.86723" lon="4.6008">
        <ele>373.72656</ele>
        <time>2022-10-04T13:06:15.000Z</time>
      </trkpt>
      <trkpt lat="45.86724" lon="4.60083">
        <ele>374.00562</ele>
        <time>2022-10-04T13:06:16.000Z</time>
      </trkpt>
      <trkpt lat="45.86725" lon="4.60087">
        <ele>374.29739</ele>
        <time>2022-10-04T13:06:17.000Z</time>
      </trkpt>
      <trkpt lat="45.86726" lon="4.6009">
        <ele>374.48196</ele>
        <time>2022-10-04T13:06:18.000Z</time>
      </trkpt>
      <trkpt lat="45.86727" lon="4.60094">
        <ele>374.58789</ele>
        <time>2022-10-04T13:06:19.000Z</time>
      </trkpt>
      <trkpt lat="45.86728" lon="4.60097">
        <ele>374.61725</ele>
        <time>2022-10-04T13:06:20.000Z</time>
      </trkpt>
      <trkpt lat="45.86729" lon="4.601">
        <ele>374.73013</ele>
        <time>2022-10-04T13:06:21.000Z</time>
      </trkpt>
      <trkpt lat="45.8673" lon="4.60103">
        <ele>374.83279</ele>
        <time>2022-10-04T13:06:22.000Z</time>
      </trkpt>
      <trkpt lat="45.86731" lon="4.60106">
        <ele>374.95844</ele>
        <time>2022-10-04T13:06:23.000Z</time>
      </trkpt>
      <trkpt lat="45.86732" lon="4.60109">
        <ele>375.06232</ele>
        <time>2022-10-04T13:06:24.000Z</time>
      </trkpt>
      <trkpt lat="45.86734" lon="4.60112">
        <ele>375.14209</ele>
        <time>2022-10-04T13:06:25.000Z</time>
      </trkpt>
      <trkpt lat="45.86735" lon="4.60116">
        <ele>375.22656</ele>
        <time>2022-10-04T13:06:26.000Z</time>
      </trkpt>
      <trkpt lat="45.86736" lon="4.60119">
        <ele>375.26813</ele>
        <time>2022-10-04T13:06:27.000Z</time>
      </trkpt>
      <trkpt lat="45.86737" lon="4.60123">
        <ele>375.23782</ele>
        <time>2022-10-04T13:06:28.000Z</time>
      </trkpt>
      <trkpt lat="45.86738" lon="4.60127">
        <ele>375.20978</ele>
        <time>2022-10-04T13:06:29.000Z</time>
      </trkpt>
      <trkpt lat="45.86739" lon="4.60131">
        <ele>375.16504</ele>
        <time>2022-10-04T13:06:30.000Z</time>
      </trkpt>
      <trkpt lat="45.8674" lon="4.60135">
        <ele>375.08011</ele>
        <time>2022-10-04T13:06:31.000Z</time>
      </trkpt>
      <trkpt lat="45.86741" lon="4.60139">
        <ele>375.0351</ele>
        <time>2022-10-04T13:06:32.000Z</time>
      </trkpt>
      <trkpt lat="45.86742" lon="4.60144">
        <ele>374.99359</ele>
        <time>2022-10-04T13:06:33.000Z</time>
      </trkpt>
      <trkpt lat="45.86743" lon="4.60149">
        <ele>374.97861</ele>
        <time>2022-10-04T13:06:34.000Z</time>
      </trkpt>
      <trkpt lat="45.86744" lon="4.60154">
        <ele>374.83054</ele>
        <time>2022-10-04T13:06:35.000Z</time>
      </trkpt>
      <trkpt lat="45.86745" lon="4.6016">
        <ele>374.70193</ele>
        <time>2022-10-04T13:06:36.000Z</time>
      </trkpt>
      <trkpt lat="45.86747" lon="4.60166">
        <ele>374.55969</ele>
        <time>2022-10-04T13:06:37.000Z</time>
      </trkpt>
      <trkpt lat="45.86748" lon="4.60172">
        <ele>374.47388</ele>
        <time>2022-10-04T13:06:38.000Z</time>
      </trkpt>
      <trkpt lat="45.86749" lon="4.60178">
        <ele>374.38443</ele>
        <time>2022-10-04T13:06:39.000Z</time>
      </trkpt>
      <trkpt lat="45.86751" lon="4.60184">
        <ele>374.27917</ele>
        <time>2022-10-04T13:06:40.000Z</time>
      </trkpt>
      <trkpt lat="45.86752" lon="4.60191">
        <ele>374.10519</ele>
        <time>2022-10-04T13:06:41.000Z</time>
      </trkpt>
      <trkpt lat="45.86753" lon="4.60198">
        <ele>373.96844</ele>
        <time>2022-10-04T13:06:42.000Z</time>
      </trkpt>
      <trkpt lat="45.86754" lon="4.60205">
        <ele>373.77734</ele>
        <time>2022-10-04T13:06:43.000Z</time>
      </trkpt>
      <trkpt lat="45.86754" lon="4.60213">
        <ele>373.55045</ele>
        <time>2022-10-04T13:06:44.000Z</time>
      </trkpt>
      <trkpt lat="45.86756" lon="4.60219">
        <ele>373.29745</ele>
        <time>2022-10-04T13:06:45.000Z</time>
      </trkpt>
      <trkpt lat="45.86758" lon="4.60226">
        <ele>373.04819</ele>
        <time>2022-10-04T13:06:46.000Z</time>
      </trkpt>
      <trkpt lat="45.8676" lon="4.60234">
        <ele>372.76886</ele>
        <time>2022-10-04T13:06:47.000Z</time>
      </trkpt>
      <trkpt lat="45.86762" lon="4.6024">
        <ele>372.49536</ele>
        <time>2022-10-04T13:06:48.000Z</time>
      </trkpt>
      <trkpt lat="45.86764" lon="4.60248">
        <ele>372.20364</ele>
        <time>2022-10-04T13:06:49.000Z</time>
      </trkpt>
      <trkpt lat="45.86766" lon="4.60255">
        <ele>371.91687</ele>
        <time>2022-10-04T13:06:50.000Z</time>
      </trkpt>
      <trkpt lat="45.86768" lon="4.60263">
        <ele>371.66422</ele>
        <time>2022-10-04T13:06:51.000Z</time>
      </trkpt>
      <trkpt lat="45.86769" lon="4.60271">
        <ele>371.42871</ele>
        <time>2022-10-04T13:06:52.000Z</time>
      </trkpt>
      <trkpt lat="45.8677" lon="4.60279">
        <ele>371.17053</ele>
        <time>2022-10-04T13:06:53.000Z</time>
      </trkpt>
      <trkpt lat="45.86771" lon="4.60287">
        <ele>370.9006</ele>
        <time>2022-10-04T13:06:54.000Z</time>
      </trkpt>
      <trkpt lat="45.86773" lon="4.60294">
        <ele>370.7619</ele>
        <time>2022-10-04T13:06:55.000Z</time>
      </trkpt>
      <trkpt lat="45.86773" lon="4.603">
        <ele>370.60852</ele>
        <time>2022-10-04T13:06:56.000Z</time>
      </trkpt>
      <trkpt lat="45.86774" lon="4.60308">
        <ele>370.44827</ele>
        <time>2022-10-04T13:06:57.000Z</time>
      </trkpt>
      <trkpt lat="45.86776" lon="4.60315">
        <ele>370.27582</ele>
        <time>2022-10-04T13:06:58.000Z</time>
      </trkpt>
      <trkpt lat="45.86776" lon="4.60322">
        <ele>370.10272</ele>
        <time>2022-10-04T13:06:59.000Z</time>
      </trkpt>
      <trkpt lat="45.86776" lon="4.60329">
        <ele>369.98358</ele>
        <time>2022-10-04T13:07:00.000Z</time>
      </trkpt>
      <trkpt lat="45.86776" lon="4.60337">
        <ele>369.91339</ele>
        <time>2022-10-04T13:07:01.000Z</time>
      </trkpt>
      <trkpt lat="45.86776" lon="4.60344">
        <ele>369.84061</ele>
        <time>2022-10-04T13:07:02.000Z</time>
      </trkpt>
      <trkpt lat="45.86776" lon="4.60351">
        <ele>369.75436</ele>
        <time>2022-10-04T13:07:03.000Z</time>
      </trkpt>
      <trkpt lat="45.86776" lon="4.60358">
        <ele>369.68552</ele>
        <time>2022-10-04T13:07:04.000Z</time>
      </trkpt>
      <trkpt lat="45.86776" lon="4.60365">
        <ele>369.66071</ele>
        <time>2022-10-04T13:07:05.000Z</time>
      </trkpt>
      <trkpt lat="45.86775" lon="4.60372">
        <ele>369.61697</ele>
        <time>2022-10-04T13:07:06.000Z</time>
      </trkpt>
      <trkpt lat="45.86775" lon="4.6038">
        <ele>369.58124</ele>
        <time>2022-10-04T13:07:07.000Z</time>
      </trkpt>
      <trkpt lat="45.86773" lon="4.60386">
        <ele>369.57779</ele>
        <time>2022-10-04T13:07:08.000Z</time>
      </trkpt>
      <trkpt lat="45.86771" lon="4.60391">
        <ele>369.58408</ele>
        <time>2022-10-04T13:07:09.000Z</time>
      </trkpt>
      <trkpt lat="45.8677" lon="4.60403">
        <ele>369.56622</ele>
        <time>2022-10-04T13:07:10.000Z</time>
      </trkpt>
      <trkpt lat="45.86769" lon="4.60407">
        <ele>369.58328</ele>
        <time>2022-10-04T13:07:11.000Z</time>
      </trkpt>
      <trkpt lat="45.86767" lon="4.60414">
        <ele>369.59079</ele>
        <time>2022-10-04T13:07:12.000Z</time>
      </trkpt>
      <trkpt lat="45.86767" lon="4.60429">
        <ele>369.58627</ele>
        <time>2022-10-04T13:07:13.000Z</time>
      </trkpt>
      <trkpt lat="45.86766" lon="4.60442">
        <ele>369.51208</ele>
        <time>2022-10-04T13:07:14.000Z</time>
      </trkpt>
      <trkpt lat="45.86766" lon="4.60447">
        <ele>369.43896</ele>
        <time>2022-10-04T13:07:15.000Z</time>
      </trkpt>
      <trkpt lat="45.86765" lon="4.60451">
        <ele>369.38974</ele>
        <time>2022-10-04T13:07:16.000Z</time>
      </trkpt>
      <trkpt lat="45.86764" lon="4.60456">
        <ele>369.36319</ele>
        <time>2022-10-04T13:07:17.000Z</time>
      </trkpt>
      <trkpt lat="45.86763" lon="4.60463">
        <ele>369.21375</ele>
        <time>2022-10-04T13:07:18.000Z</time>
      </trkpt>
      <trkpt lat="45.86763" lon="4.60467">
        <ele>369.0517</ele>
        <time>2022-10-04T13:07:19.000Z</time>
      </trkpt>
      <trkpt lat="45.86762" lon="4.60478">
        <ele>368.66754</ele>
        <time>2022-10-04T13:07:20.000Z</time>
      </trkpt>
      <trkpt lat="45.86761" lon="4.6048">
        <ele>368.22632</ele>
        <time>2022-10-04T13:07:21.000Z</time>
      </trkpt>
      <trkpt lat="45.8676" lon="4.60484">
        <ele>367.74854</ele>
        <time>2022-10-04T13:07:22.000Z</time>
      </trkpt>
      <trkpt lat="45.86759" lon="4.60491">
        <ele>367.2439</ele>
        <time>2022-10-04T13:07:23.000Z</time>
      </trkpt>
      <trkpt lat="45.86757" lon="4.60493">
        <ele>366.75287</ele>
        <time>2022-10-04T13:07:24.000Z</time>
      </trkpt>
      <trkpt lat="45.86757" lon="4.60498">
        <ele>366.24023</ele>
        <time>2022-10-04T13:07:25.000Z</time>
      </trkpt>
      <trkpt lat="45.86758" lon="4.60503">
        <ele>365.73352</ele>
        <time>2022-10-04T13:07:26.000Z</time>
      </trkpt>
      <trkpt lat="45.86758" lon="4.60506">
        <ele>365.15701</ele>
        <time>2022-10-04T13:07:27.000Z</time>
      </trkpt>
      <trkpt lat="45.86758" lon="4.60509">
        <ele>364.48047</ele>
        <time>2022-10-04T13:07:28.000Z</time>
      </trkpt>
      <trkpt lat="45.86757" lon="4.60511">
        <ele>363.76407</ele>
        <time>2022-10-04T13:07:30.000Z</time>
      </trkpt>
      <trkpt lat="45.86757" lon="4.60514">
        <ele>363.33124</ele>
        <time>2022-10-04T13:07:37.000Z</time>
      </trkpt>
      <trkpt lat="45.86756" lon="4.60517">
        <ele>362.86575</ele>
        <time>2022-10-04T13:07:38.000Z</time>
      </trkpt>
      <trkpt lat="45.86756" lon="4.60519">
        <ele>362.4028</ele>
        <time>2022-10-04T13:07:39.000Z</time>
      </trkpt>
      <trkpt lat="45.86755" lon="4.60523">
        <ele>361.99393</ele>
        <time>2022-10-04T13:07:40.000Z</time>
      </trkpt>
      <trkpt lat="45.86754" lon="4.60527">
        <ele>361.66718</ele>
        <time>2022-10-04T13:07:41.000Z</time>
      </trkpt>
      <trkpt lat="45.86754" lon="4.60532">
        <ele>361.23239</ele>
        <time>2022-10-04T13:07:42.000Z</time>
      </trkpt>
      <trkpt lat="45.86754" lon="4.60537">
        <ele>360.81577</ele>
        <time>2022-10-04T13:07:43.000Z</time>
      </trkpt>
      <trkpt lat="45.86754" lon="4.60542">
        <ele>360.35779</ele>
        <time>2022-10-04T13:07:44.000Z</time>
      </trkpt>
      <trkpt lat="45.86754" lon="4.60547">
        <ele>359.97922</ele>
        <time>2022-10-04T13:07:45.000Z</time>
      </trkpt>
      <trkpt lat="45.86754" lon="4.60552">
        <ele>359.58905</ele>
        <time>2022-10-04T13:07:46.000Z</time>
      </trkpt>
      <trkpt lat="45.86754" lon="4.60557">
        <ele>359.44302</ele>
        <time>2022-10-04T13:07:47.000Z</time>
      </trkpt>
      <trkpt lat="45.86753" lon="4.60562">
        <ele>359.39053</ele>
        <time>2022-10-04T13:07:48.000Z</time>
      </trkpt>
      <trkpt lat="45.86753" lon="4.60567">
        <ele>359.38605</ele>
        <time>2022-10-04T13:07:49.000Z</time>
      </trkpt>
      <trkpt lat="45.86753" lon="4.60572">
        <ele>359.41452</ele>
        <time>2022-10-04T13:07:50.000Z</time>
      </trkpt>
      <trkpt lat="45.86752" lon="4.60576">
        <ele>359.48114</ele>
        <time>2022-10-04T13:07:51.000Z</time>
      </trkpt>
      <trkpt lat="45.86752" lon="4.60581">
        <ele>359.5636</ele>
        <time>2022-10-04T13:07:52.000Z</time>
      </trkpt>
      <trkpt lat="45.86751" lon="4.60586">
        <ele>359.63745</ele>
        <time>2022-10-04T13:07:53.000Z</time>
      </trkpt>
      <trkpt lat="45.8675" lon="4.60592">
        <ele>359.74203</ele>
        <time>2022-10-04T13:07:54.000Z</time>
      </trkpt>
      <trkpt lat="45.86749" lon="4.60599">
        <ele>359.95227</ele>
        <time>2022-10-04T13:07:55.000Z</time>
      </trkpt>
      <trkpt lat="45.86749" lon="4.60605">
        <ele>360.26447</ele>
        <time>2022-10-04T13:07:56.000Z</time>
      </trkpt>
      <trkpt lat="45.86749" lon="4.60612">
        <ele>360.4512</ele>
        <time>2022-10-04T13:07:57.000Z</time>
      </trkpt>
      <trkpt lat="45.86749" lon="4.60618">
        <ele>360.65671</ele>
        <time>2022-10-04T13:07:58.000Z</time>
      </trkpt>
      <trkpt lat="45.86751" lon="4.60624">
        <ele>360.85779</ele>
        <time>2022-10-04T13:07:59.000Z</time>
      </trkpt>
      <trkpt lat="45.8675" lon="4.60632">
        <ele>360.99857</ele>
        <time>2022-10-04T13:08:00.000Z</time>
      </trkpt>
      <trkpt lat="45.86749" lon="4.6064">
        <ele>361.10623</ele>
        <time>2022-10-04T13:08:01.000Z</time>
      </trkpt>
      <trkpt lat="45.8675" lon="4.60647">
        <ele>361.24866</ele>
        <time>2022-10-04T13:08:02.000Z</time>
      </trkpt>
      <trkpt lat="45.86749" lon="4.60654">
        <ele>361.34607</ele>
        <time>2022-10-04T13:08:03.000Z</time>
      </trkpt>
      <trkpt lat="45.86749" lon="4.60659">
        <ele>361.47565</ele>
        <time>2022-10-04T13:08:04.000Z</time>
      </trkpt>
      <trkpt lat="45.86748" lon="4.60664">
        <ele>361.63483</ele>
        <time>2022-10-04T13:08:05.000Z</time>
      </trkpt>
      <trkpt lat="45.86747" lon="4.60673">
        <ele>361.76407</ele>
        <time>2022-10-04T13:08:06.000Z</time>
      </trkpt>
      <trkpt lat="45.86749" lon="4.6068">
        <ele>361.888</ele>
        <time>2022-10-04T13:08:07.000Z</time>
      </trkpt>
      <trkpt lat="45.86749" lon="4.60686">
        <ele>361.88678</ele>
        <time>2022-10-04T13:08:08.000Z</time>
      </trkpt>
      <trkpt lat="45.86748" lon="4.60692">
        <ele>361.88641</ele>
        <time>2022-10-04T13:08:09.000Z</time>
      </trkpt>
      <trkpt lat="45.86748" lon="4.60698">
        <ele>361.87384</ele>
        <time>2022-10-04T13:08:10.000Z</time>
      </trkpt>
      <trkpt lat="45.86747" lon="4.60703">
        <ele>361.81635</ele>
        <time>2022-10-04T13:08:11.000Z</time>
      </trkpt>
      <trkpt lat="45.86747" lon="4.60709">
        <ele>361.71625</ele>
        <time>2022-10-04T13:08:12.000Z</time>
      </trkpt>
      <trkpt lat="45.86747" lon="4.60714">
        <ele>361.62283</ele>
        <time>2022-10-04T13:08:13.000Z</time>
      </trkpt>
      <trkpt lat="45.86746" lon="4.6072">
        <ele>361.60703</ele>
        <time>2022-10-04T13:08:14.000Z</time>
      </trkpt>
      <trkpt lat="45.86747" lon="4.60727">
        <ele>361.6037</ele>
        <time>2022-10-04T13:08:15.000Z</time>
      </trkpt>
      <trkpt lat="45.86745" lon="4.60734">
        <ele>361.40314</ele>
        <time>2022-10-04T13:08:16.000Z</time>
      </trkpt>
      <trkpt lat="45.86745" lon="4.60741">
        <ele>360.98267</ele>
        <time>2022-10-04T13:08:17.000Z</time>
      </trkpt>
      <trkpt lat="45.86745" lon="4.60748">
        <ele>360.56161</ele>
        <time>2022-10-04T13:08:18.000Z</time>
      </trkpt>
      <trkpt lat="45.86744" lon="4.60754">
        <ele>360.16284</ele>
        <time>2022-10-04T13:08:19.000Z</time>
      </trkpt>
      <trkpt lat="45.86742" lon="4.60759">
        <ele>359.71802</ele>
        <time>2022-10-04T13:08:20.000Z</time>
      </trkpt>
      <trkpt lat="45.86741" lon="4.60765">
        <ele>359.3089</ele>
        <time>2022-10-04T13:08:21.000Z</time>
      </trkpt>
      <trkpt lat="45.86741" lon="4.60773">
        <ele>358.93292</ele>
        <time>2022-10-04T13:08:22.000Z</time>
      </trkpt>
      <trkpt lat="45.86739" lon="4.60779">
        <ele>358.51062</ele>
        <time>2022-10-04T13:08:23.000Z</time>
      </trkpt>
      <trkpt lat="45.86738" lon="4.60786">
        <ele>358.01053</ele>
        <time>2022-10-04T13:08:24.000Z</time>
      </trkpt>
      <trkpt lat="45.86737" lon="4.60791">
        <ele>357.45407</ele>
        <time>2022-10-04T13:08:25.000Z</time>
      </trkpt>
      <trkpt lat="45.86738" lon="4.60796">
        <ele>356.98108</ele>
        <time>2022-10-04T13:08:26.000Z</time>
      </trkpt>
      <trkpt lat="45.86737" lon="4.608">
        <ele>356.47455</ele>
        <time>2022-10-04T13:08:27.000Z</time>
      </trkpt>
      <trkpt lat="45.86737" lon="4.60805">
        <ele>356.02228</ele>
        <time>2022-10-04T13:08:28.000Z</time>
      </trkpt>
      <trkpt lat="45.86737" lon="4.60814">
        <ele>355.53839</ele>
        <time>2022-10-04T13:08:29.000Z</time>
      </trkpt>
      <trkpt lat="45.86737" lon="4.60821">
        <ele>355.11935</ele>
        <time>2022-10-04T13:08:30.000Z</time>
      </trkpt>
      <trkpt lat="45.86737" lon="4.60827">
        <ele>354.66446</ele>
        <time>2022-10-04T13:08:31.000Z</time>
      </trkpt>
      <trkpt lat="45.86737" lon="4.60836">
        <ele>354.24689</ele>
        <time>2022-10-04T13:08:32.000Z</time>
      </trkpt>
      <trkpt lat="45.86737" lon="4.60842">
        <ele>353.87204</ele>
        <time>2022-10-04T13:08:33.000Z</time>
      </trkpt>
      <trkpt lat="45.86736" lon="4.60847">
        <ele>353.548</ele>
        <time>2022-10-04T13:08:34.000Z</time>
      </trkpt>
      <trkpt lat="45.86736" lon="4.60852">
        <ele>353.25781</ele>
        <time>2022-10-04T13:08:35.000Z</time>
      </trkpt>
      <trkpt lat="45.86735" lon="4.60859">
        <ele>353.08469</ele>
        <time>2022-10-04T13:08:36.000Z</time>
      </trkpt>
      <trkpt lat="45.86734" lon="4.60865">
        <ele>352.97324</ele>
        <time>2022-10-04T13:08:37.000Z</time>
      </trkpt>
      <trkpt lat="45.86733" lon="4.60871">
        <ele>352.79419</ele>
        <time>2022-10-04T13:08:38.000Z</time>
      </trkpt>
      <trkpt lat="45.86733" lon="4.60876">
        <ele>352.56259</ele>
        <time>2022-10-04T13:08:39.000Z</time>
      </trkpt>
      <trkpt lat="45.86732" lon="4.60882">
        <ele>352.4115</ele>
        <time>2022-10-04T13:08:40.000Z</time>
      </trkpt>
      <trkpt lat="45.86732" lon="4.60888">
        <ele>352.25055</ele>
        <time>2022-10-04T13:08:41.000Z</time>
      </trkpt>
      <trkpt lat="45.86732" lon="4.60894">
        <ele>352.06055</ele>
        <time>2022-10-04T13:08:42.000Z</time>
      </trkpt>
      <trkpt lat="45.86731" lon="4.60899">
        <ele>351.7767</ele>
        <time>2022-10-04T13:08:43.000Z</time>
      </trkpt>
      <trkpt lat="45.8673" lon="4.60905">
        <ele>351.52347</ele>
        <time>2022-10-04T13:08:44.000Z</time>
      </trkpt>
      <trkpt lat="45.8673" lon="4.6091">
        <ele>351.27292</ele>
        <time>2022-10-04T13:08:45.000Z</time>
      </trkpt>
      <trkpt lat="45.86729" lon="4.60915">
        <ele>350.98602</ele>
        <time>2022-10-04T13:08:46.000Z</time>
      </trkpt>
      <trkpt lat="45.86728" lon="4.6092">
        <ele>350.7576</ele>
        <time>2022-10-04T13:08:47.000Z</time>
      </trkpt>
      <trkpt lat="45.86728" lon="4.60926">
        <ele>350.57831</ele>
        <time>2022-10-04T13:08:48.000Z</time>
      </trkpt>
      <trkpt lat="45.86727" lon="4.60931">
        <ele>350.41666</ele>
        <time>2022-10-04T13:08:49.000Z</time>
      </trkpt>
      <trkpt lat="45.86726" lon="4.60936">
        <ele>350.11017</ele>
        <time>2022-10-04T13:08:50.000Z</time>
      </trkpt>
      <trkpt lat="45.86726" lon="4.60942">
        <ele>349.86655</ele>
        <time>2022-10-04T13:08:51.000Z</time>
      </trkpt>
      <trkpt lat="45.86725" lon="4.60947">
        <ele>349.64264</ele>
        <time>2022-10-04T13:08:52.000Z</time>
      </trkpt>
      <trkpt lat="45.86724" lon="4.60952">
        <ele>349.39517</ele>
        <time>2022-10-04T13:08:53.000Z</time>
      </trkpt>
      <trkpt lat="45.86723" lon="4.60958">
        <ele>349.10162</ele>
        <time>2022-10-04T13:08:54.000Z</time>
      </trkpt>
      <trkpt lat="45.86723" lon="4.60964">
        <ele>348.71738</ele>
        <time>2022-10-04T13:08:55.000Z</time>
      </trkpt>
      <trkpt lat="45.86722" lon="4.6097">
        <ele>348.35443</ele>
        <time>2022-10-04T13:08:56.000Z</time>
      </trkpt>
      <trkpt lat="45.86721" lon="4.60976">
        <ele>348.07297</ele>
        <time>2022-10-04T13:08:57.000Z</time>
      </trkpt>
      <trkpt lat="45.86721" lon="4.60981">
        <ele>347.74625</ele>
        <time>2022-10-04T13:08:58.000Z</time>
      </trkpt>
      <trkpt lat="45.8672" lon="4.60987">
        <ele>347.42841</ele>
        <time>2022-10-04T13:08:59.000Z</time>
      </trkpt>
      <trkpt lat="45.86719" lon="4.60993">
        <ele>347.13211</ele>
        <time>2022-10-04T13:09:00.000Z</time>
      </trkpt>
      <trkpt lat="45.86718" lon="4.60999">
        <ele>346.82281</ele>
        <time>2022-10-04T13:09:01.000Z</time>
      </trkpt>
      <trkpt lat="45.86717" lon="4.61005">
        <ele>346.58685</ele>
        <time>2022-10-04T13:09:02.000Z</time>
      </trkpt>
      <trkpt lat="45.86717" lon="4.61011">
        <ele>346.51282</ele>
        <time>2022-10-04T13:09:03.000Z</time>
      </trkpt>
      <trkpt lat="45.86715" lon="4.61015">
        <ele>346.47302</ele>
        <time>2022-10-04T13:09:04.000Z</time>
      </trkpt>
      <trkpt lat="45.86714" lon="4.61019">
        <ele>346.56619</ele>
        <time>2022-10-04T13:09:05.000Z</time>
      </trkpt>
      <trkpt lat="45.86714" lon="4.61026">
        <ele>346.66232</ele>
        <time>2022-10-04T13:09:06.000Z</time>
      </trkpt>
      <trkpt lat="45.86713" lon="4.61032">
        <ele>346.74396</ele>
        <time>2022-10-04T13:09:07.000Z</time>
      </trkpt>
      <trkpt lat="45.86712" lon="4.61042">
        <ele>346.72449</ele>
        <time>2022-10-04T13:09:08.000Z</time>
      </trkpt>
      <trkpt lat="45.86712" lon="4.61048">
        <ele>346.75446</ele>
        <time>2022-10-04T13:09:09.000Z</time>
      </trkpt>
      <trkpt lat="45.86711" lon="4.61057">
        <ele>346.879</ele>
        <time>2022-10-04T13:09:10.000Z</time>
      </trkpt>
      <trkpt lat="45.8671" lon="4.61064">
        <ele>346.99628</ele>
        <time>2022-10-04T13:09:11.000Z</time>
      </trkpt>
      <trkpt lat="45.86709" lon="4.61071">
        <ele>347.07794</ele>
        <time>2022-10-04T13:09:12.000Z</time>
      </trkpt>
      <trkpt lat="45.86708" lon="4.61078">
        <ele>347.13361</ele>
        <time>2022-10-04T13:09:13.000Z</time>
      </trkpt>
      <trkpt lat="45.86708" lon="4.61085">
        <ele>347.11603</ele>
        <time>2022-10-04T13:09:14.000Z</time>
      </trkpt>
      <trkpt lat="45.86709" lon="4.61091">
        <ele>347.12329</ele>
        <time>2022-10-04T13:09:15.000Z</time>
      </trkpt>
      <trkpt lat="45.86709" lon="4.61098">
        <ele>347.08594</ele>
        <time>2022-10-04T13:09:16.000Z</time>
      </trkpt>
      <trkpt lat="45.8671" lon="4.61104">
        <ele>346.98407</ele>
        <time>2022-10-04T13:09:17.000Z</time>
      </trkpt>
      <trkpt lat="45.86709" lon="4.61112">
        <ele>346.98483</ele>
        <time>2022-10-04T13:09:18.000Z</time>
      </trkpt>
      <trkpt lat="45.86708" lon="4.6112">
        <ele>346.98883</ele>
        <time>2022-10-04T13:09:19.000Z</time>
      </trkpt>
      <trkpt lat="45.86706" lon="4.61127">
        <ele>347.02219</ele>
        <time>2022-10-04T13:09:20.000Z</time>
      </trkpt>
      <trkpt lat="45.86705" lon="4.61135">
        <ele>347.05563</ele>
        <time>2022-10-04T13:09:21.000Z</time>
      </trkpt>
      <trkpt lat="45.86705" lon="4.61141">
        <ele>347.02609</ele>
        <time>2022-10-04T13:09:22.000Z</time>
      </trkpt>
      <trkpt lat="45.86703" lon="4.61148">
        <ele>347.01889</ele>
        <time>2022-10-04T13:09:23.000Z</time>
      </trkpt>
      <trkpt lat="45.86702" lon="4.61154">
        <ele>347.01904</ele>
        <time>2022-10-04T13:09:24.000Z</time>
      </trkpt>
      <trkpt lat="45.86699" lon="4.6116">
        <ele>346.87198</ele>
        <time>2022-10-04T13:09:25.000Z</time>
      </trkpt>
      <trkpt lat="45.86695" lon="4.61167">
        <ele>346.66229</ele>
        <time>2022-10-04T13:09:26.000Z</time>
      </trkpt>
      <trkpt lat="45.86694" lon="4.61171">
        <ele>346.44162</ele>
        <time>2022-10-04T13:09:27.000Z</time>
      </trkpt>
      <trkpt lat="45.86691" lon="4.61179">
        <ele>346.29056</ele>
        <time>2022-10-04T13:09:28.000Z</time>
      </trkpt>
      <trkpt lat="45.86688" lon="4.61189">
        <ele>346.11893</ele>
        <time>2022-10-04T13:09:29.000Z</time>
      </trkpt>
      <trkpt lat="45.86687" lon="4.61197">
        <ele>346.02448</ele>
        <time>2022-10-04T13:09:30.000Z</time>
      </trkpt>
      <trkpt lat="45.86685" lon="4.61205">
        <ele>345.91058</ele>
        <time>2022-10-04T13:09:31.000Z</time>
      </trkpt>
      <trkpt lat="45.86683" lon="4.61213">
        <ele>345.74677</ele>
        <time>2022-10-04T13:09:32.000Z</time>
      </trkpt>
      <trkpt lat="45.86683" lon="4.61221">
        <ele>345.60617</ele>
        <time>2022-10-04T13:09:33.000Z</time>
      </trkpt>
      <trkpt lat="45.86682" lon="4.6123">
        <ele>345.54807</ele>
        <time>2022-10-04T13:09:34.000Z</time>
      </trkpt>
      <trkpt lat="45.86682" lon="4.61239">
        <ele>345.52155</ele>
        <time>2022-10-04T13:09:35.000Z</time>
      </trkpt>
      <trkpt lat="45.86681" lon="4.61246">
        <ele>345.47995</ele>
        <time>2022-10-04T13:09:36.000Z</time>
      </trkpt>
      <trkpt lat="45.8668" lon="4.61254">
        <ele>345.45337</ele>
        <time>2022-10-04T13:09:37.000Z</time>
      </trkpt>
      <trkpt lat="45.86679" lon="4.6126">
        <ele>345.42456</ele>
        <time>2022-10-04T13:09:38.000Z</time>
      </trkpt>
      <trkpt lat="45.86679" lon="4.61267">
        <ele>345.40848</ele>
        <time>2022-10-04T13:09:39.000Z</time>
      </trkpt>
      <trkpt lat="45.86678" lon="4.61274">
        <ele>345.33905</ele>
        <time>2022-10-04T13:09:40.000Z</time>
      </trkpt>
      <trkpt lat="45.86677" lon="4.61282">
        <ele>345.34177</ele>
        <time>2022-10-04T13:09:41.000Z</time>
      </trkpt>
      <trkpt lat="45.86677" lon="4.61289">
        <ele>345.48502</ele>
        <time>2022-10-04T13:09:42.000Z</time>
      </trkpt>
      <trkpt lat="45.86677" lon="4.61295">
        <ele>345.71805</ele>
        <time>2022-10-04T13:09:43.000Z</time>
      </trkpt>
      <trkpt lat="45.86677" lon="4.61302">
        <ele>345.92899</ele>
        <time>2022-10-04T13:09:44.000Z</time>
      </trkpt>
      <trkpt lat="45.86676" lon="4.61309">
        <ele>346.1329</ele>
        <time>2022-10-04T13:09:45.000Z</time>
      </trkpt>
      <trkpt lat="45.86674" lon="4.6132">
        <ele>346.23691</ele>
        <time>2022-10-04T13:09:46.000Z</time>
      </trkpt>
      <trkpt lat="45.86673" lon="4.61329">
        <ele>346.25568</ele>
        <time>2022-10-04T13:09:47.000Z</time>
      </trkpt>
      <trkpt lat="45.86673" lon="4.61338">
        <ele>346.263</ele>
        <time>2022-10-04T13:09:48.000Z</time>
      </trkpt>
      <trkpt lat="45.86671" lon="4.61347">
        <ele>346.18066</ele>
        <time>2022-10-04T13:09:49.000Z</time>
      </trkpt>
      <trkpt lat="45.86671" lon="4.61355">
        <ele>346.06049</ele>
        <time>2022-10-04T13:09:50.000Z</time>
      </trkpt>
      <trkpt lat="45.86671" lon="4.61362">
        <ele>345.90628</ele>
        <time>2022-10-04T13:09:51.000Z</time>
      </trkpt>
      <trkpt lat="45.8667" lon="4.61371">
        <ele>345.79645</ele>
        <time>2022-10-04T13:09:52.000Z</time>
      </trkpt>
      <trkpt lat="45.86669" lon="4.6138">
        <ele>345.69437</ele>
        <time>2022-10-04T13:09:53.000Z</time>
      </trkpt>
      <trkpt lat="45.86669" lon="4.61387">
        <ele>345.71057</ele>
        <time>2022-10-04T13:09:54.000Z</time>
      </trkpt>
      <trkpt lat="45.8667" lon="4.61393">
        <ele>345.7756</ele>
        <time>2022-10-04T13:09:55.000Z</time>
      </trkpt>
      <trkpt lat="45.86668" lon="4.61398">
        <ele>345.8139</ele>
        <time>2022-10-04T13:09:56.000Z</time>
      </trkpt>
      <trkpt lat="45.86667" lon="4.61406">
        <ele>345.82584</ele>
        <time>2022-10-04T13:09:57.000Z</time>
      </trkpt>
      <trkpt lat="45.86666" lon="4.61416">
        <ele>345.78998</ele>
        <time>2022-10-04T13:09:58.000Z</time>
      </trkpt>
      <trkpt lat="45.86665" lon="4.61425">
        <ele>345.66299</ele>
        <time>2022-10-04T13:09:59.000Z</time>
      </trkpt>
      <trkpt lat="45.86665" lon="4.61432">
        <ele>345.46317</ele>
        <time>2022-10-04T13:10:00.000Z</time>
      </trkpt>
      <trkpt lat="45.86665" lon="4.61441">
        <ele>345.17676</ele>
        <time>2022-10-04T13:10:01.000Z</time>
      </trkpt>
      <trkpt lat="45.86666" lon="4.6145">
        <ele>344.80414</ele>
        <time>2022-10-04T13:10:02.000Z</time>
      </trkpt>
      <trkpt lat="45.86664" lon="4.61458">
        <ele>344.30377</ele>
        <time>2022-10-04T13:10:03.000Z</time>
      </trkpt>
      <trkpt lat="45.86662" lon="4.61467">
        <ele>343.87662</ele>
        <time>2022-10-04T13:10:04.000Z</time>
      </trkpt>
      <trkpt lat="45.86661" lon="4.61476">
        <ele>343.5</ele>
        <time>2022-10-04T13:10:05.000Z</time>
      </trkpt>
      <trkpt lat="45.86659" lon="4.61483">
        <ele>343.19043</ele>
        <time>2022-10-04T13:10:06.000Z</time>
      </trkpt>
      <trkpt lat="45.86658" lon="4.61493">
        <ele>342.86078</ele>
        <time>2022-10-04T13:10:07.000Z</time>
      </trkpt>
      <trkpt lat="45.86658" lon="4.61501">
        <ele>342.43057</ele>
        <time>2022-10-04T13:10:08.000Z</time>
      </trkpt>
      <trkpt lat="45.86658" lon="4.61509">
        <ele>342.05429</ele>
        <time>2022-10-04T13:10:09.000Z</time>
      </trkpt>
      <trkpt lat="45.86659" lon="4.61515">
        <ele>341.63867</ele>
        <time>2022-10-04T13:10:10.000Z</time>
      </trkpt>
      <trkpt lat="45.86658" lon="4.61521">
        <ele>341.26672</ele>
        <time>2022-10-04T13:10:11.000Z</time>
      </trkpt>
      <trkpt lat="45.86657" lon="4.61528">
        <ele>340.84454</ele>
        <time>2022-10-04T13:10:12.000Z</time>
      </trkpt>
      <trkpt lat="45.86655" lon="4.61534">
        <ele>340.39832</ele>
        <time>2022-10-04T13:10:13.000Z</time>
      </trkpt>
      <trkpt lat="45.86654" lon="4.61541">
        <ele>339.76932</ele>
        <time>2022-10-04T13:10:14.000Z</time>
      </trkpt>
      <trkpt lat="45.86654" lon="4.61548">
        <ele>339.02643</ele>
        <time>2022-10-04T13:10:15.000Z</time>
      </trkpt>
      <trkpt lat="45.86653" lon="4.61555">
        <ele>338.39517</ele>
        <time>2022-10-04T13:10:16.000Z</time>
      </trkpt>
      <trkpt lat="45.86653" lon="4.61563">
        <ele>337.70233</ele>
        <time>2022-10-04T13:10:17.000Z</time>
      </trkpt>
      <trkpt lat="45.86652" lon="4.61571">
        <ele>337.00491</ele>
        <time>2022-10-04T13:10:18.000Z</time>
      </trkpt>
      <trkpt lat="45.8665" lon="4.61578">
        <ele>336.39572</ele>
        <time>2022-10-04T13:10:19.000Z</time>
      </trkpt>
      <trkpt lat="45.8665" lon="4.61586">
        <ele>335.84656</ele>
        <time>2022-10-04T13:10:20.000Z</time>
      </trkpt>
      <trkpt lat="45.8665" lon="4.61593">
        <ele>335.31686</ele>
        <time>2022-10-04T13:10:21.000Z</time>
      </trkpt>
      <trkpt lat="45.8665" lon="4.61602">
        <ele>334.67349</ele>
        <time>2022-10-04T13:10:22.000Z</time>
      </trkpt>
      <trkpt lat="45.8665" lon="4.6161">
        <ele>334.05508</ele>
        <time>2022-10-04T13:10:23.000Z</time>
      </trkpt>
      <trkpt lat="45.86649" lon="4.61619">
        <ele>333.3967</ele>
        <time>2022-10-04T13:10:24.000Z</time>
      </trkpt>
      <trkpt lat="45.8665" lon="4.61629">
        <ele>332.62079</ele>
        <time>2022-10-04T13:10:25.000Z</time>
      </trkpt>
      <trkpt lat="45.86651" lon="4.61638">
        <ele>331.88492</ele>
        <time>2022-10-04T13:10:26.000Z</time>
      </trkpt>
      <trkpt lat="45.86652" lon="4.61646">
        <ele>331.2153</ele>
        <time>2022-10-04T13:10:27.000Z</time>
      </trkpt>
      <trkpt lat="45.86653" lon="4.61655">
        <ele>330.62076</ele>
        <time>2022-10-04T13:10:28.000Z</time>
      </trkpt>
      <trkpt lat="45.86653" lon="4.61665">
        <ele>330.04968</ele>
        <time>2022-10-04T13:10:29.000Z</time>
      </trkpt>
      <trkpt lat="45.86654" lon="4.61674">
        <ele>329.35037</ele>
        <time>2022-10-04T13:10:30.000Z</time>
      </trkpt>
      <trkpt lat="45.86656" lon="4.61683">
        <ele>328.61655</ele>
        <time>2022-10-04T13:10:31.000Z</time>
      </trkpt>
      <trkpt lat="45.86657" lon="4.61694">
        <ele>327.89264</ele>
        <time>2022-10-04T13:10:32.000Z</time>
      </trkpt>
      <trkpt lat="45.86658" lon="4.61705">
        <ele>327.21863</ele>
        <time>2022-10-04T13:10:33.000Z</time>
      </trkpt>
      <trkpt lat="45.8666" lon="4.61715">
        <ele>326.54022</ele>
        <time>2022-10-04T13:10:34.000Z</time>
      </trkpt>
      <trkpt lat="45.86661" lon="4.61724">
        <ele>325.93918</ele>
        <time>2022-10-04T13:10:35.000Z</time>
      </trkpt>
      <trkpt lat="45.86662" lon="4.61732">
        <ele>325.27393</ele>
        <time>2022-10-04T13:10:36.000Z</time>
      </trkpt>
      <trkpt lat="45.86663" lon="4.61738">
        <ele>324.83276</ele>
        <time>2022-10-04T13:10:37.000Z</time>
      </trkpt>
      <trkpt lat="45.86663" lon="4.61746">
        <ele>324.45779</ele>
        <time>2022-10-04T13:10:38.000Z</time>
      </trkpt>
      <trkpt lat="45.86662" lon="4.61753">
        <ele>324.05786</ele>
        <time>2022-10-04T13:10:39.000Z</time>
      </trkpt>
      <trkpt lat="45.86658" lon="4.6176">
        <ele>323.70291</ele>
        <time>2022-10-04T13:10:40.000Z</time>
      </trkpt>
      <trkpt lat="45.86653" lon="4.61766">
        <ele>323.34912</ele>
        <time>2022-10-04T13:10:41.000Z</time>
      </trkpt>
      <trkpt lat="45.86649" lon="4.61772">
        <ele>323.13559</ele>
        <time>2022-10-04T13:10:42.000Z</time>
      </trkpt>
      <trkpt lat="45.86647" lon="4.61783">
        <ele>322.94806</ele>
        <time>2022-10-04T13:10:43.000Z</time>
      </trkpt>
      <trkpt lat="45.86646" lon="4.61792">
        <ele>322.7106</ele>
        <time>2022-10-04T13:10:44.000Z</time>
      </trkpt>
      <trkpt lat="45.86645" lon="4.61803">
        <ele>322.53848</ele>
        <time>2022-10-04T13:10:45.000Z</time>
      </trkpt>
      <trkpt lat="45.86643" lon="4.61815">
        <ele>322.41626</ele>
        <time>2022-10-04T13:10:46.000Z</time>
      </trkpt>
      <trkpt lat="45.86643" lon="4.61826">
        <ele>322.36371</ele>
        <time>2022-10-04T13:10:47.000Z</time>
      </trkpt>
      <trkpt lat="45.86642" lon="4.61835">
        <ele>322.38327</ele>
        <time>2022-10-04T13:10:48.000Z</time>
      </trkpt>
      <trkpt lat="45.86642" lon="4.61846">
        <ele>322.3999</ele>
        <time>2022-10-04T13:10:49.000Z</time>
      </trkpt>
      <trkpt lat="45.86641" lon="4.61856">
        <ele>322.51114</ele>
        <time>2022-10-04T13:10:50.000Z</time>
      </trkpt>
      <trkpt lat="45.8664" lon="4.61866">
        <ele>322.62637</ele>
        <time>2022-10-04T13:10:51.000Z</time>
      </trkpt>
      <trkpt lat="45.8664" lon="4.61879">
        <ele>322.77582</ele>
        <time>2022-10-04T13:10:52.000Z</time>
      </trkpt>
      <trkpt lat="45.86638" lon="4.6189">
        <ele>322.83844</ele>
        <time>2022-10-04T13:10:53.000Z</time>
      </trkpt>
      <trkpt lat="45.86637" lon="4.619">
        <ele>322.93814</ele>
        <time>2022-10-04T13:10:54.000Z</time>
      </trkpt>
      <trkpt lat="45.86637" lon="4.61909">
        <ele>322.97751</ele>
        <time>2022-10-04T13:10:55.000Z</time>
      </trkpt>
      <trkpt lat="45.86636" lon="4.61916">
        <ele>322.98846</ele>
        <time>2022-10-04T13:10:56.000Z</time>
      </trkpt>
      <trkpt lat="45.86635" lon="4.61924">
        <ele>322.82806</ele>
        <time>2022-10-04T13:10:57.000Z</time>
      </trkpt>
      <trkpt lat="45.86635" lon="4.61931">
        <ele>322.62747</ele>
        <time>2022-10-04T13:10:58.000Z</time>
      </trkpt>
      <trkpt lat="45.86633" lon="4.61937">
        <ele>322.35736</ele>
        <time>2022-10-04T13:10:59.000Z</time>
      </trkpt>
      <trkpt lat="45.86632" lon="4.61942">
        <ele>321.97845</ele>
        <time>2022-10-04T13:11:00.000Z</time>
      </trkpt>
      <trkpt lat="45.86632" lon="4.61946">
        <ele>321.58643</ele>
        <time>2022-10-04T13:11:01.000Z</time>
      </trkpt>
      <trkpt lat="45.86632" lon="4.6195">
        <ele>321.17413</ele>
        <time>2022-10-04T13:11:02.000Z</time>
      </trkpt>
      <trkpt lat="45.86631" lon="4.61953">
        <ele>320.6889</ele>
        <time>2022-10-04T13:11:03.000Z</time>
      </trkpt>
      <trkpt lat="45.86633" lon="4.61955">
        <ele>320.1937</ele>
        <time>2022-10-04T13:11:06.000Z</time>
      </trkpt>
      <trkpt lat="45.86632" lon="4.61958">
        <ele>319.65384</ele>
        <time>2022-10-04T13:11:15.000Z</time>
      </trkpt>
      <trkpt lat="45.8663" lon="4.61957">
        <ele>319.02762</ele>
        <time>2022-10-04T13:11:19.000Z</time>
      </trkpt>
      <trkpt lat="45.86628" lon="4.61959">
        <ele>318.26001</ele>
        <time>2022-10-04T13:11:31.000Z</time>
      </trkpt>
      <trkpt lat="45.86626" lon="4.61956">
        <ele>317.46875</ele>
        <time>2022-10-04T13:11:38.000Z</time>
      </trkpt>
      <trkpt lat="45.86625" lon="4.61953">
        <ele>316.75189</ele>
        <time>2022-10-04T13:11:39.000Z</time>
      </trkpt>
      <trkpt lat="45.86628" lon="4.61951">
        <ele>315.93701</ele>
        <time>2022-10-04T13:12:24.000Z</time>
      </trkpt>
      <trkpt lat="45.8663" lon="4.61952">
        <ele>315.14847</ele>
        <time>2022-10-04T13:12:25.000Z</time>
      </trkpt>
      <trkpt lat="45.86633" lon="4.61952">
        <ele>314.49286</ele>
        <time>2022-10-04T13:12:26.000Z</time>
      </trkpt>
      <trkpt lat="45.86636" lon="4.61953">
        <ele>313.88937</ele>
        <time>2022-10-04T13:12:27.000Z</time>
      </trkpt>
      <trkpt lat="45.86639" lon="4.61954">
        <ele>313.29733</ele>
        <time>2022-10-04T13:12:28.000Z</time>
      </trkpt>
      <trkpt lat="45.86642" lon="4.61955">
        <ele>312.54895</ele>
        <time>2022-10-04T13:12:29.000Z</time>
      </trkpt>
      <trkpt lat="45.86645" lon="4.61957">
        <ele>311.84964</ele>
        <time>2022-10-04T13:12:30.000Z</time>
      </trkpt>
      <trkpt lat="45.86648" lon="4.61959">
        <ele>311.17947</ele>
        <time>2022-10-04T13:12:31.000Z</time>
      </trkpt>
      <trkpt lat="45.86651" lon="4.61961">
        <ele>310.56543</ele>
        <time>2022-10-04T13:12:32.000Z</time>
      </trkpt>
      <trkpt lat="45.86654" lon="4.61963">
        <ele>310.06891</ele>
        <time>2022-10-04T13:12:33.000Z</time>
      </trkpt>
      <trkpt lat="45.86657" lon="4.61966">
        <ele>309.67542</ele>
        <time>2022-10-04T13:12:34.000Z</time>
      </trkpt>
      <trkpt lat="45.8666" lon="4.61968">
        <ele>309.2955</ele>
        <time>2022-10-04T13:12:35.000Z</time>
      </trkpt>
      <trkpt lat="45.86662" lon="4.6197">
        <ele>308.89923</ele>
        <time>2022-10-04T13:12:36.000Z</time>
      </trkpt>
      <trkpt lat="45.86665" lon="4.61972">
        <ele>308.58359</ele>
        <time>2022-10-04T13:12:37.000Z</time>
      </trkpt>
      <trkpt lat="45.86668" lon="4.61974">
        <ele>308.31439</ele>
        <time>2022-10-04T13:12:38.000Z</time>
      </trkpt>
      <trkpt lat="45.86671" lon="4.61976">
        <ele>308.09222</ele>
        <time>2022-10-04T13:12:39.000Z</time>
      </trkpt>
      <trkpt lat="45.86674" lon="4.61977">
        <ele>307.92963</ele>
        <time>2022-10-04T13:12:40.000Z</time>
      </trkpt>
      <trkpt lat="45.86677" lon="4.61978">
        <ele>307.90201</ele>
        <time>2022-10-04T13:12:41.000Z</time>
      </trkpt>
      <trkpt lat="45.86681" lon="4.61979">
        <ele>307.87402</ele>
        <time>2022-10-04T13:12:42.000Z</time>
      </trkpt>
      <trkpt lat="45.86684" lon="4.6198">
        <ele>307.74716</ele>
        <time>2022-10-04T13:12:43.000Z</time>
      </trkpt>
      <trkpt lat="45.86687" lon="4.61981">
        <ele>307.79681</ele>
        <time>2022-10-04T13:12:44.000Z</time>
      </trkpt>
      <trkpt lat="45.86691" lon="4.61983">
        <ele>308.07025</ele>
        <time>2022-10-04T13:12:45.000Z</time>
      </trkpt>
      <trkpt lat="45.86694" lon="4.61985">
        <ele>308.27618</ele>
        <time>2022-10-04T13:12:46.000Z</time>
      </trkpt>
      <trkpt lat="45.86696" lon="4.61988">
        <ele>308.54861</ele>
        <time>2022-10-04T13:12:47.000Z</time>
      </trkpt>
      <trkpt lat="45.86697" lon="4.61992">
        <ele>308.84412</ele>
        <time>2022-10-04T13:12:48.000Z</time>
      </trkpt>
      <trkpt lat="45.86697" lon="4.61996">
        <ele>309.33688</ele>
        <time>2022-10-04T13:12:49.000Z</time>
      </trkpt>
      <trkpt lat="45.86697" lon="4.62">
        <ele>309.81952</ele>
        <time>2022-10-04T13:12:50.000Z</time>
      </trkpt>
      <trkpt lat="45.86697" lon="4.62005">
        <ele>310.36041</ele>
        <time>2022-10-04T13:12:51.000Z</time>
      </trkpt>
      <trkpt lat="45.86696" lon="4.62009">
        <ele>310.78595</ele>
        <time>2022-10-04T13:12:52.000Z</time>
      </trkpt>
      <trkpt lat="45.86696" lon="4.62013">
        <ele>311.19003</ele>
        <time>2022-10-04T13:12:53.000Z</time>
      </trkpt>
      <trkpt lat="45.86696" lon="4.62018">
        <ele>311.56506</ele>
        <time>2022-10-04T13:12:54.000Z</time>
      </trkpt>
      <trkpt lat="45.86697" lon="4.62023">
        <ele>311.97299</ele>
        <time>2022-10-04T13:12:55.000Z</time>
      </trkpt>
      <trkpt lat="45.86697" lon="4.62028">
        <ele>312.39084</ele>
        <time>2022-10-04T13:12:56.000Z</time>
      </trkpt>
      <trkpt lat="45.86698" lon="4.62033">
        <ele>312.72025</ele>
        <time>2022-10-04T13:12:57.000Z</time>
      </trkpt>
      <trkpt lat="45.86698" lon="4.62037">
        <ele>313.01559</ele>
        <time>2022-10-04T13:12:58.000Z</time>
      </trkpt>
      <trkpt lat="45.86699" lon="4.62041">
        <ele>313.34036</ele>
        <time>2022-10-04T13:12:59.000Z</time>
      </trkpt>
      <trkpt lat="45.86699" lon="4.62046">
        <ele>313.67764</ele>
        <time>2022-10-04T13:13:00.000Z</time>
      </trkpt>
      <trkpt lat="45.86698" lon="4.62051">
        <ele>313.931</ele>
        <time>2022-10-04T13:13:01.000Z</time>
      </trkpt>
      <trkpt lat="45.86698" lon="4.62056">
        <ele>314.21841</ele>
        <time>2022-10-04T13:13:02.000Z</time>
      </trkpt>
      <trkpt lat="45.86699" lon="4.62062">
        <ele>314.52045</ele>
        <time>2022-10-04T13:13:03.000Z</time>
      </trkpt>
      <trkpt lat="45.867" lon="4.62067">
        <ele>314.83331</ele>
        <time>2022-10-04T13:13:04.000Z</time>
      </trkpt>
      <trkpt lat="45.867" lon="4.62072">
        <ele>314.91122</ele>
        <time>2022-10-04T13:13:05.000Z</time>
      </trkpt>
      <trkpt lat="45.86701" lon="4.62077">
        <ele>314.89764</ele>
        <time>2022-10-04T13:13:06.000Z</time>
      </trkpt>
      <trkpt lat="45.86702" lon="4.62082">
        <ele>314.80963</ele>
        <time>2022-10-04T13:13:07.000Z</time>
      </trkpt>
      <trkpt lat="45.86702" lon="4.62088">
        <ele>314.72641</ele>
        <time>2022-10-04T13:13:08.000Z</time>
      </trkpt>
      <trkpt lat="45.86702" lon="4.62094">
        <ele>314.60251</ele>
        <time>2022-10-04T13:13:09.000Z</time>
      </trkpt>
      <trkpt lat="45.86703" lon="4.62099">
        <ele>314.5033</ele>
        <time>2022-10-04T13:13:10.000Z</time>
      </trkpt>
      <trkpt lat="45.86704" lon="4.62104">
        <ele>314.35519</ele>
        <time>2022-10-04T13:13:11.000Z</time>
      </trkpt>
      <trkpt lat="45.86705" lon="4.6211">
        <ele>314.26324</ele>
        <time>2022-10-04T13:13:12.000Z</time>
      </trkpt>
      <trkpt lat="45.86706" lon="4.62115">
        <ele>314.08075</ele>
        <time>2022-10-04T13:13:13.000Z</time>
      </trkpt>
      <trkpt lat="45.86708" lon="4.62121">
        <ele>313.91058</ele>
        <time>2022-10-04T13:13:14.000Z</time>
      </trkpt>
      <trkpt lat="45.86709" lon="4.62127">
        <ele>313.72116</ele>
        <time>2022-10-04T13:13:15.000Z</time>
      </trkpt>
      <trkpt lat="45.8671" lon="4.62133">
        <ele>313.48331</ele>
        <time>2022-10-04T13:13:16.000Z</time>
      </trkpt>
      <trkpt lat="45.8671" lon="4.62139">
        <ele>313.33127</ele>
        <time>2022-10-04T13:13:17.000Z</time>
      </trkpt>
      <trkpt lat="45.86711" lon="4.62145">
        <ele>313.25992</ele>
        <time>2022-10-04T13:13:18.000Z</time>
      </trkpt>
      <trkpt lat="45.86713" lon="4.62152">
        <ele>313.21539</ele>
        <time>2022-10-04T13:13:19.000Z</time>
      </trkpt>
      <trkpt lat="45.86714" lon="4.62158">
        <ele>313.26306</ele>
        <time>2022-10-04T13:13:20.000Z</time>
      </trkpt>
      <trkpt lat="45.86714" lon="4.62165">
        <ele>313.35574</ele>
        <time>2022-10-04T13:13:21.000Z</time>
      </trkpt>
      <trkpt lat="45.86716" lon="4.62173">
        <ele>313.43933</ele>
        <time>2022-10-04T13:13:22.000Z</time>
      </trkpt>
      <trkpt lat="45.86717" lon="4.6218">
        <ele>313.53143</ele>
        <time>2022-10-04T13:13:23.000Z</time>
      </trkpt>
      <trkpt lat="45.86718" lon="4.62188">
        <ele>313.54916</ele>
        <time>2022-10-04T13:13:24.000Z</time>
      </trkpt>
      <trkpt lat="45.86718" lon="4.62195">
        <ele>313.54831</ele>
        <time>2022-10-04T13:13:25.000Z</time>
      </trkpt>
      <trkpt lat="45.86718" lon="4.62202">
        <ele>313.56647</ele>
        <time>2022-10-04T13:13:26.000Z</time>
      </trkpt>
      <trkpt lat="45.86719" lon="4.62209">
        <ele>313.60114</ele>
        <time>2022-10-04T13:13:27.000Z</time>
      </trkpt>
      <trkpt lat="45.86721" lon="4.62216">
        <ele>313.58237</ele>
        <time>2022-10-04T13:13:28.000Z</time>
      </trkpt>
      <trkpt lat="45.86722" lon="4.62224">
        <ele>313.57559</ele>
        <time>2022-10-04T13:13:29.000Z</time>
      </trkpt>
      <trkpt lat="45.86724" lon="4.62233">
        <ele>313.56482</ele>
        <time>2022-10-04T13:13:30.000Z</time>
      </trkpt>
      <trkpt lat="45.86724" lon="4.6224">
        <ele>313.52829</ele>
        <time>2022-10-04T13:13:31.000Z</time>
      </trkpt>
      <trkpt lat="45.86725" lon="4.62248">
        <ele>313.51227</ele>
        <time>2022-10-04T13:13:32.000Z</time>
      </trkpt>
      <trkpt lat="45.86725" lon="4.62255">
        <ele>313.54904</ele>
        <time>2022-10-04T13:13:33.000Z</time>
      </trkpt>
      <trkpt lat="45.86725" lon="4.62263">
        <ele>313.58661</ele>
        <time>2022-10-04T13:13:34.000Z</time>
      </trkpt>
      <trkpt lat="45.86725" lon="4.62271">
        <ele>313.58911</ele>
        <time>2022-10-04T13:13:35.000Z</time>
      </trkpt>
      <trkpt lat="45.86725" lon="4.6228">
        <ele>313.66025</ele>
        <time>2022-10-04T13:13:36.000Z</time>
      </trkpt>
      <trkpt lat="45.86725" lon="4.62288">
        <ele>313.69781</ele>
        <time>2022-10-04T13:13:37.000Z</time>
      </trkpt>
      <trkpt lat="45.86726" lon="4.62296">
        <ele>313.7149</ele>
        <time>2022-10-04T13:13:38.000Z</time>
      </trkpt>
      <trkpt lat="45.86727" lon="4.62304">
        <ele>313.72211</ele>
        <time>2022-10-04T13:13:39.000Z</time>
      </trkpt>
      <trkpt lat="45.86727" lon="4.62312">
        <ele>313.65289</ele>
        <time>2022-10-04T13:13:40.000Z</time>
      </trkpt>
      <trkpt lat="45.86726" lon="4.6232">
        <ele>313.59018</ele>
        <time>2022-10-04T13:13:41.000Z</time>
      </trkpt>
      <trkpt lat="45.86727" lon="4.62327">
        <ele>313.50702</ele>
        <time>2022-10-04T13:13:42.000Z</time>
      </trkpt>
      <trkpt lat="45.86726" lon="4.62335">
        <ele>313.40332</ele>
        <time>2022-10-04T13:13:43.000Z</time>
      </trkpt>
      <trkpt lat="45.86726" lon="4.62342">
        <ele>313.34747</ele>
        <time>2022-10-04T13:13:44.000Z</time>
      </trkpt>
      <trkpt lat="45.86728" lon="4.62348">
        <ele>313.32861</ele>
        <time>2022-10-04T13:13:45.000Z</time>
      </trkpt>
      <trkpt lat="45.86728" lon="4.62356">
        <ele>313.34305</ele>
        <time>2022-10-04T13:13:46.000Z</time>
      </trkpt>
      <trkpt lat="45.86727" lon="4.62362">
        <ele>313.33789</ele>
        <time>2022-10-04T13:13:47.000Z</time>
      </trkpt>
      <trkpt lat="45.86728" lon="4.62367">
        <ele>313.33636</ele>
        <time>2022-10-04T13:13:48.000Z</time>
      </trkpt>
      <trkpt lat="45.86729" lon="4.62372">
        <ele>313.32706</ele>
        <time>2022-10-04T13:13:49.000Z</time>
      </trkpt>
      <trkpt lat="45.86728" lon="4.62379">
        <ele>313.30069</ele>
        <time>2022-10-04T13:13:50.000Z</time>
      </trkpt>
      <trkpt lat="45.8673" lon="4.62386">
        <ele>313.42145</ele>
        <time>2022-10-04T13:13:51.000Z</time>
      </trkpt>
      <trkpt lat="45.8673" lon="4.62393">
        <ele>313.45804</ele>
        <time>2022-10-04T13:13:52.000Z</time>
      </trkpt>
      <trkpt lat="45.8673" lon="4.62399">
        <ele>313.47867</ele>
        <time>2022-10-04T13:13:53.000Z</time>
      </trkpt>
      <trkpt lat="45.8673" lon="4.62406">
        <ele>313.43842</ele>
        <time>2022-10-04T13:13:54.000Z</time>
      </trkpt>
      <trkpt lat="45.8673" lon="4.62412">
        <ele>313.3934</ele>
        <time>2022-10-04T13:13:55.000Z</time>
      </trkpt>
      <trkpt lat="45.8673" lon="4.6242">
        <ele>313.31076</ele>
        <time>2022-10-04T13:13:56.000Z</time>
      </trkpt>
      <trkpt lat="45.86731" lon="4.62426">
        <ele>313.28214</ele>
        <time>2022-10-04T13:13:57.000Z</time>
      </trkpt>
      <trkpt lat="45.8673" lon="4.62431">
        <ele>313.19153</ele>
        <time>2022-10-04T13:13:58.000Z</time>
      </trkpt>
      <trkpt lat="45.86731" lon="4.62438">
        <ele>313.07547</ele>
        <time>2022-10-04T13:13:59.000Z</time>
      </trkpt>
      <trkpt lat="45.86731" lon="4.62445">
        <ele>313.02029</ele>
        <time>2022-10-04T13:14:00.000Z</time>
      </trkpt>
      <trkpt lat="45.8673" lon="4.62452">
        <ele>312.82953</ele>
        <time>2022-10-04T13:14:01.000Z</time>
      </trkpt>
      <trkpt lat="45.86731" lon="4.62457">
        <ele>312.6048</ele>
        <time>2022-10-04T13:14:02.000Z</time>
      </trkpt>
      <trkpt lat="45.86731" lon="4.62463">
        <ele>312.39563</ele>
        <time>2022-10-04T13:14:03.000Z</time>
      </trkpt>
      <trkpt lat="45.86731" lon="4.62468">
        <ele>312.24466</ele>
        <time>2022-10-04T13:14:04.000Z</time>
      </trkpt>
      <trkpt lat="45.86731" lon="4.62474">
        <ele>312.07965</ele>
        <time>2022-10-04T13:14:05.000Z</time>
      </trkpt>
      <trkpt lat="45.86732" lon="4.6248">
        <ele>311.89429</ele>
        <time>2022-10-04T13:14:06.000Z</time>
      </trkpt>
      <trkpt lat="45.86733" lon="4.62486">
        <ele>311.68829</ele>
        <time>2022-10-04T13:14:07.000Z</time>
      </trkpt>
      <trkpt lat="45.86733" lon="4.62492">
        <ele>311.52295</ele>
        <time>2022-10-04T13:14:08.000Z</time>
      </trkpt>
      <trkpt lat="45.86734" lon="4.62498">
        <ele>311.37869</ele>
        <time>2022-10-04T13:14:09.000Z</time>
      </trkpt>
      <trkpt lat="45.86735" lon="4.62504">
        <ele>311.2757</ele>
        <time>2022-10-04T13:14:10.000Z</time>
      </trkpt>
      <trkpt lat="45.86735" lon="4.62511">
        <ele>311.04034</ele>
        <time>2022-10-04T13:14:11.000Z</time>
      </trkpt>
      <trkpt lat="45.86736" lon="4.62517">
        <ele>310.89813</ele>
        <time>2022-10-04T13:14:12.000Z</time>
      </trkpt>
      <trkpt lat="45.86737" lon="4.62525">
        <ele>310.78888</ele>
        <time>2022-10-04T13:14:13.000Z</time>
      </trkpt>
      <trkpt lat="45.86737" lon="4.62533">
        <ele>310.71686</ele>
        <time>2022-10-04T13:14:14.000Z</time>
      </trkpt>
      <trkpt lat="45.86737" lon="4.6254">
        <ele>310.62955</ele>
        <time>2022-10-04T13:14:15.000Z</time>
      </trkpt>
      <trkpt lat="45.86737" lon="4.62547">
        <ele>310.58023</ele>
        <time>2022-10-04T13:14:16.000Z</time>
      </trkpt>
      <trkpt lat="45.86737" lon="4.62555">
        <ele>310.50015</ele>
        <time>2022-10-04T13:14:17.000Z</time>
      </trkpt>
      <trkpt lat="45.86737" lon="4.62562">
        <ele>310.41641</ele>
        <time>2022-10-04T13:14:18.000Z</time>
      </trkpt>
      <trkpt lat="45.86738" lon="4.62569">
        <ele>310.37531</ele>
        <time>2022-10-04T13:14:19.000Z</time>
      </trkpt>
      <trkpt lat="45.86737" lon="4.62576">
        <ele>310.2269</ele>
        <time>2022-10-04T13:14:20.000Z</time>
      </trkpt>
      <trkpt lat="45.86735" lon="4.62584">
        <ele>310.17422</ele>
        <time>2022-10-04T13:14:21.000Z</time>
      </trkpt>
      <trkpt lat="45.86735" lon="4.62592">
        <ele>310.11346</ele>
        <time>2022-10-04T13:14:22.000Z</time>
      </trkpt>
      <trkpt lat="45.86734" lon="4.626">
        <ele>310.0965</ele>
        <time>2022-10-04T13:14:23.000Z</time>
      </trkpt>
      <trkpt lat="45.86734" lon="4.62609">
        <ele>309.96671</ele>
        <time>2022-10-04T13:14:24.000Z</time>
      </trkpt>
      <trkpt lat="45.86735" lon="4.62616">
        <ele>309.80545</ele>
        <time>2022-10-04T13:14:25.000Z</time>
      </trkpt>
      <trkpt lat="45.86734" lon="4.62623">
        <ele>309.7392</ele>
        <time>2022-10-04T13:14:26.000Z</time>
      </trkpt>
      <trkpt lat="45.86732" lon="4.62629">
        <ele>309.66165</ele>
        <time>2022-10-04T13:14:27.000Z</time>
      </trkpt>
      <trkpt lat="45.86733" lon="4.62637">
        <ele>309.57315</ele>
        <time>2022-10-04T13:14:28.000Z</time>
      </trkpt>
      <trkpt lat="45.86732" lon="4.62644">
        <ele>309.40063</ele>
        <time>2022-10-04T13:14:29.000Z</time>
      </trkpt>
      <trkpt lat="45.86731" lon="4.62652">
        <ele>309.21701</ele>
        <time>2022-10-04T13:14:30.000Z</time>
      </trkpt>
      <trkpt lat="45.8673" lon="4.62658">
        <ele>309.01013</ele>
        <time>2022-10-04T13:14:31.000Z</time>
      </trkpt>
      <trkpt lat="45.8673" lon="4.62667">
        <ele>308.85312</ele>
        <time>2022-10-04T13:14:32.000Z</time>
      </trkpt>
      <trkpt lat="45.86731" lon="4.62675">
        <ele>308.71942</ele>
        <time>2022-10-04T13:14:33.000Z</time>
      </trkpt>
      <trkpt lat="45.8673" lon="4.62683">
        <ele>308.55197</ele>
        <time>2022-10-04T13:14:34.000Z</time>
      </trkpt>
      <trkpt lat="45.86729" lon="4.62689">
        <ele>308.43127</ele>
        <time>2022-10-04T13:14:35.000Z</time>
      </trkpt>
      <trkpt lat="45.86729" lon="4.62699">
        <ele>308.18246</ele>
        <time>2022-10-04T13:14:36.000Z</time>
      </trkpt>
      <trkpt lat="45.86731" lon="4.62707">
        <ele>307.92712</ele>
        <time>2022-10-04T13:14:37.000Z</time>
      </trkpt>
      <trkpt lat="45.8673" lon="4.62713">
        <ele>307.68512</ele>
        <time>2022-10-04T13:14:38.000Z</time>
      </trkpt>
      <trkpt lat="45.86732" lon="4.62719">
        <ele>307.42526</ele>
        <time>2022-10-04T13:14:39.000Z</time>
      </trkpt>
      <trkpt lat="45.86731" lon="4.62724">
        <ele>307.19885</ele>
        <time>2022-10-04T13:14:40.000Z</time>
      </trkpt>
      <trkpt lat="45.8673" lon="4.62733">
        <ele>306.89349</ele>
        <time>2022-10-04T13:14:41.000Z</time>
      </trkpt>
      <trkpt lat="45.86731" lon="4.62738">
        <ele>306.61993</ele>
        <time>2022-10-04T13:14:42.000Z</time>
      </trkpt>
      <trkpt lat="45.86732" lon="4.62743">
        <ele>306.20193</ele>
        <time>2022-10-04T13:14:43.000Z</time>
      </trkpt>
      <trkpt lat="45.86732" lon="4.62749">
        <ele>305.72498</ele>
        <time>2022-10-04T13:14:44.000Z</time>
      </trkpt>
      <trkpt lat="45.86732" lon="4.62756">
        <ele>305.15314</ele>
        <time>2022-10-04T13:14:45.000Z</time>
      </trkpt>
      <trkpt lat="45.86731" lon="4.62762">
        <ele>304.46484</ele>
        <time>2022-10-04T13:14:46.000Z</time>
      </trkpt>
      <trkpt lat="45.8673" lon="4.62768">
        <ele>303.83127</ele>
        <time>2022-10-04T13:14:47.000Z</time>
      </trkpt>
      <trkpt lat="45.86728" lon="4.62772">
        <ele>303.18756</ele>
        <time>2022-10-04T13:14:48.000Z</time>
      </trkpt>
      <trkpt lat="45.86728" lon="4.62777">
        <ele>302.65216</ele>
        <time>2022-10-04T13:14:49.000Z</time>
      </trkpt>
      <trkpt lat="45.86727" lon="4.62785">
        <ele>302.0907</ele>
        <time>2022-10-04T13:14:50.000Z</time>
      </trkpt>
      <trkpt lat="45.86726" lon="4.62794">
        <ele>301.59485</ele>
        <time>2022-10-04T13:14:51.000Z</time>
      </trkpt>
      <trkpt lat="45.86726" lon="4.62802">
        <ele>301.1438</ele>
        <time>2022-10-04T13:14:52.000Z</time>
      </trkpt>
      <trkpt lat="45.86725" lon="4.62811">
        <ele>300.69733</ele>
        <time>2022-10-04T13:14:53.000Z</time>
      </trkpt>
      <trkpt lat="45.86723" lon="4.62819">
        <ele>300.29034</ele>
        <time>2022-10-04T13:14:54.000Z</time>
      </trkpt>
      <trkpt lat="45.86721" lon="4.62829">
        <ele>299.83765</ele>
        <time>2022-10-04T13:14:55.000Z</time>
      </trkpt>
      <trkpt lat="45.8672" lon="4.62836">
        <ele>299.42426</ele>
        <time>2022-10-04T13:14:56.000Z</time>
      </trkpt>
      <trkpt lat="45.86719" lon="4.62844">
        <ele>298.92618</ele>
        <time>2022-10-04T13:14:57.000Z</time>
      </trkpt>
      <trkpt lat="45.86718" lon="4.62852">
        <ele>298.45822</ele>
        <time>2022-10-04T13:14:58.000Z</time>
      </trkpt>
      <trkpt lat="45.86717" lon="4.6286">
        <ele>297.98999</ele>
        <time>2022-10-04T13:14:59.000Z</time>
      </trkpt>
      <trkpt lat="45.86716" lon="4.62869">
        <ele>297.54611</ele>
        <time>2022-10-04T13:15:00.000Z</time>
      </trkpt>
      <trkpt lat="45.86715" lon="4.62877">
        <ele>297.28436</ele>
        <time>2022-10-04T13:15:01.000Z</time>
      </trkpt>
      <trkpt lat="45.86714" lon="4.62886">
        <ele>297.0307</ele>
        <time>2022-10-04T13:15:02.000Z</time>
      </trkpt>
      <trkpt lat="45.86713" lon="4.62895">
        <ele>296.84497</ele>
        <time>2022-10-04T13:15:03.000Z</time>
      </trkpt>
      <trkpt lat="45.86712" lon="4.62904">
        <ele>296.73987</ele>
        <time>2022-10-04T13:15:04.000Z</time>
      </trkpt>
      <trkpt lat="45.8671" lon="4.62913">
        <ele>296.70538</ele>
        <time>2022-10-04T13:15:05.000Z</time>
      </trkpt>
      <trkpt lat="45.86708" lon="4.62922">
        <ele>296.72488</ele>
        <time>2022-10-04T13:15:06.000Z</time>
      </trkpt>
      <trkpt lat="45.86708" lon="4.6293">
        <ele>296.65109</ele>
        <time>2022-10-04T13:15:07.000Z</time>
      </trkpt>
      <trkpt lat="45.86706" lon="4.62939">
        <ele>296.57477</ele>
        <time>2022-10-04T13:15:08.000Z</time>
      </trkpt>
      <trkpt lat="45.86704" lon="4.62948">
        <ele>296.39285</ele>
        <time>2022-10-04T13:15:09.000Z</time>
      </trkpt>
      <trkpt lat="45.86703" lon="4.62957">
        <ele>296.15909</ele>
        <time>2022-10-04T13:15:10.000Z</time>
      </trkpt>
      <trkpt lat="45.86703" lon="4.62965">
        <ele>295.91647</ele>
        <time>2022-10-04T13:15:11.000Z</time>
      </trkpt>
      <trkpt lat="45.86702" lon="4.62973">
        <ele>295.53632</ele>
        <time>2022-10-04T13:15:12.000Z</time>
      </trkpt>
      <trkpt lat="45.86701" lon="4.62981">
        <ele>295.09543</ele>
        <time>2022-10-04T13:15:13.000Z</time>
      </trkpt>
      <trkpt lat="45.867" lon="4.62989">
        <ele>294.60059</ele>
        <time>2022-10-04T13:15:14.000Z</time>
      </trkpt>
      <trkpt lat="45.86699" lon="4.62998">
        <ele>294.13095</ele>
        <time>2022-10-04T13:15:15.000Z</time>
      </trkpt>
      <trkpt lat="45.86698" lon="4.63006">
        <ele>293.74319</ele>
        <time>2022-10-04T13:15:16.000Z</time>
      </trkpt>
      <trkpt lat="45.86696" lon="4.63014">
        <ele>293.40955</ele>
        <time>2022-10-04T13:15:17.000Z</time>
      </trkpt>
      <trkpt lat="45.86695" lon="4.63021">
        <ele>293.03088</ele>
        <time>2022-10-04T13:15:18.000Z</time>
      </trkpt>
      <trkpt lat="45.86696" lon="4.63028">
        <ele>292.68536</ele>
        <time>2022-10-04T13:15:19.000Z</time>
      </trkpt>
      <trkpt lat="45.86696" lon="4.63036">
        <ele>292.33716</ele>
        <time>2022-10-04T13:15:20.000Z</time>
      </trkpt>
      <trkpt lat="45.86696" lon="4.63043">
        <ele>291.93735</ele>
        <time>2022-10-04T13:15:21.000Z</time>
      </trkpt>
      <trkpt lat="45.86695" lon="4.6305">
        <ele>291.51001</ele>
        <time>2022-10-04T13:15:22.000Z</time>
      </trkpt>
      <trkpt lat="45.86693" lon="4.63059">
        <ele>291.11102</ele>
        <time>2022-10-04T13:15:23.000Z</time>
      </trkpt>
      <trkpt lat="45.86692" lon="4.63066">
        <ele>290.6907</ele>
        <time>2022-10-04T13:15:24.000Z</time>
      </trkpt>
      <trkpt lat="45.86691" lon="4.63074">
        <ele>290.35345</ele>
        <time>2022-10-04T13:15:25.000Z</time>
      </trkpt>
      <trkpt lat="45.86689" lon="4.63081">
        <ele>290.00568</ele>
        <time>2022-10-04T13:15:26.000Z</time>
      </trkpt>
      <trkpt lat="45.86688" lon="4.63088">
        <ele>289.7132</ele>
        <time>2022-10-04T13:15:27.000Z</time>
      </trkpt>
      <trkpt lat="45.86685" lon="4.63096">
        <ele>289.37473</ele>
        <time>2022-10-04T13:15:28.000Z</time>
      </trkpt>
      <trkpt lat="45.86682" lon="4.63103">
        <ele>289.08557</ele>
        <time>2022-10-04T13:15:29.000Z</time>
      </trkpt>
      <trkpt lat="45.86681" lon="4.63112">
        <ele>288.87228</ele>
        <time>2022-10-04T13:15:30.000Z</time>
      </trkpt>
      <trkpt lat="45.86679" lon="4.6312">
        <ele>288.59787</ele>
        <time>2022-10-04T13:15:31.000Z</time>
      </trkpt>
      <trkpt lat="45.86677" lon="4.63129">
        <ele>288.39478</ele>
        <time>2022-10-04T13:15:32.000Z</time>
      </trkpt>
      <trkpt lat="45.86674" lon="4.63138">
        <ele>288.2392</ele>
        <time>2022-10-04T13:15:33.000Z</time>
      </trkpt>
      <trkpt lat="45.86673" lon="4.63146">
        <ele>288.09265</ele>
        <time>2022-10-04T13:15:34.000Z</time>
      </trkpt>
      <trkpt lat="45.86671" lon="4.63155">
        <ele>287.94415</ele>
        <time>2022-10-04T13:15:35.000Z</time>
      </trkpt>
      <trkpt lat="45.8667" lon="4.63164">
        <ele>287.79932</ele>
        <time>2022-10-04T13:15:36.000Z</time>
      </trkpt>
      <trkpt lat="45.86669" lon="4.63173">
        <ele>287.65814</ele>
        <time>2022-10-04T13:15:37.000Z</time>
      </trkpt>
      <trkpt lat="45.86666" lon="4.63183">
        <ele>287.50662</ele>
        <time>2022-10-04T13:15:38.000Z</time>
      </trkpt>
      <trkpt lat="45.86664" lon="4.63192">
        <ele>287.32715</ele>
        <time>2022-10-04T13:15:39.000Z</time>
      </trkpt>
      <trkpt lat="45.86663" lon="4.63201">
        <ele>287.1452</ele>
        <time>2022-10-04T13:15:40.000Z</time>
      </trkpt>
      <trkpt lat="45.8666" lon="4.6321">
        <ele>286.94937</ele>
        <time>2022-10-04T13:15:41.000Z</time>
      </trkpt>
      <trkpt lat="45.86659" lon="4.63219">
        <ele>286.7934</ele>
        <time>2022-10-04T13:15:42.000Z</time>
      </trkpt>
      <trkpt lat="45.86658" lon="4.63227">
        <ele>286.66324</ele>
        <time>2022-10-04T13:15:43.000Z</time>
      </trkpt>
      <trkpt lat="45.86658" lon="4.63235">
        <ele>286.56744</ele>
        <time>2022-10-04T13:15:44.000Z</time>
      </trkpt>
      <trkpt lat="45.86655" lon="4.63244">
        <ele>286.41968</ele>
        <time>2022-10-04T13:15:45.000Z</time>
      </trkpt>
      <trkpt lat="45.86654" lon="4.63252">
        <ele>286.20499</ele>
        <time>2022-10-04T13:15:46.000Z</time>
      </trkpt>
      <trkpt lat="45.86653" lon="4.63261">
        <ele>285.96115</ele>
        <time>2022-10-04T13:15:47.000Z</time>
      </trkpt>
      <trkpt lat="45.86652" lon="4.6327">
        <ele>285.77191</ele>
        <time>2022-10-04T13:15:48.000Z</time>
      </trkpt>
      <trkpt lat="45.86651" lon="4.63277">
        <ele>285.59967</ele>
        <time>2022-10-04T13:15:49.000Z</time>
      </trkpt>
      <trkpt lat="45.86649" lon="4.63287">
        <ele>285.4342</ele>
        <time>2022-10-04T13:15:50.000Z</time>
      </trkpt>
      <trkpt lat="45.86648" lon="4.63294">
        <ele>285.3331</ele>
        <time>2022-10-04T13:15:51.000Z</time>
      </trkpt>
      <trkpt lat="45.86647" lon="4.63302">
        <ele>285.21326</ele>
        <time>2022-10-04T13:15:52.000Z</time>
      </trkpt>
      <trkpt lat="45.86645" lon="4.6331">
        <ele>285.08609</ele>
        <time>2022-10-04T13:15:53.000Z</time>
      </trkpt>
      <trkpt lat="45.86643" lon="4.63317">
        <ele>285.01373</ele>
        <time>2022-10-04T13:15:54.000Z</time>
      </trkpt>
      <trkpt lat="45.86641" lon="4.63324">
        <ele>284.9975</ele>
        <time>2022-10-04T13:15:55.000Z</time>
      </trkpt>
      <trkpt lat="45.8664" lon="4.63331">
        <ele>284.98553</ele>
        <time>2022-10-04T13:15:56.000Z</time>
      </trkpt>
      <trkpt lat="45.86638" lon="4.63338">
        <ele>284.94931</ele>
        <time>2022-10-04T13:15:57.000Z</time>
      </trkpt>
      <trkpt lat="45.86636" lon="4.63345">
        <ele>285.01053</ele>
        <time>2022-10-04T13:15:58.000Z</time>
      </trkpt>
      <trkpt lat="45.86635" lon="4.63351">
        <ele>285.0318</ele>
        <time>2022-10-04T13:15:59.000Z</time>
      </trkpt>
      <trkpt lat="45.86633" lon="4.63358">
        <ele>285.05597</ele>
        <time>2022-10-04T13:16:00.000Z</time>
      </trkpt>
      <trkpt lat="45.8663" lon="4.63364">
        <ele>285.16171</ele>
        <time>2022-10-04T13:16:01.000Z</time>
      </trkpt>
      <trkpt lat="45.86627" lon="4.63371">
        <ele>285.25946</ele>
        <time>2022-10-04T13:16:02.000Z</time>
      </trkpt>
      <trkpt lat="45.86625" lon="4.63377">
        <ele>285.3299</ele>
        <time>2022-10-04T13:16:03.000Z</time>
      </trkpt>
      <trkpt lat="45.86624" lon="4.63384">
        <ele>285.4028</ele>
        <time>2022-10-04T13:16:04.000Z</time>
      </trkpt>
      <trkpt lat="45.86622" lon="4.6339">
        <ele>285.5257</ele>
        <time>2022-10-04T13:16:05.000Z</time>
      </trkpt>
      <trkpt lat="45.86621" lon="4.63397">
        <ele>285.68686</ele>
        <time>2022-10-04T13:16:06.000Z</time>
      </trkpt>
      <trkpt lat="45.8662" lon="4.63404">
        <ele>285.8743</ele>
        <time>2022-10-04T13:16:07.000Z</time>
      </trkpt>
      <trkpt lat="45.8662" lon="4.63411">
        <ele>286.04361</ele>
        <time>2022-10-04T13:16:08.000Z</time>
      </trkpt>
      <trkpt lat="45.86618" lon="4.63418">
        <ele>286.26596</ele>
        <time>2022-10-04T13:16:09.000Z</time>
      </trkpt>
      <trkpt lat="45.86617" lon="4.63425">
        <ele>286.46176</ele>
        <time>2022-10-04T13:16:10.000Z</time>
      </trkpt>
      <trkpt lat="45.86615" lon="4.63433">
        <ele>286.65491</ele>
        <time>2022-10-04T13:16:11.000Z</time>
      </trkpt>
      <trkpt lat="45.86613" lon="4.63439">
        <ele>286.82031</ele>
        <time>2022-10-04T13:16:12.000Z</time>
      </trkpt>
      <trkpt lat="45.86611" lon="4.63446">
        <ele>286.98938</ele>
        <time>2022-10-04T13:16:13.000Z</time>
      </trkpt>
      <trkpt lat="45.86609" lon="4.63452">
        <ele>287.14328</ele>
        <time>2022-10-04T13:16:14.000Z</time>
      </trkpt>
      <trkpt lat="45.86607" lon="4.63459">
        <ele>287.20685</ele>
        <time>2022-10-04T13:16:15.000Z</time>
      </trkpt>
      <trkpt lat="45.86605" lon="4.63465">
        <ele>287.2244</ele>
        <time>2022-10-04T13:16:16.000Z</time>
      </trkpt>
      <trkpt lat="45.86602" lon="4.63472">
        <ele>287.21817</ele>
        <time>2022-10-04T13:16:17.000Z</time>
      </trkpt>
      <trkpt lat="45.866" lon="4.63479">
        <ele>287.13998</ele>
        <time>2022-10-04T13:16:18.000Z</time>
      </trkpt>
      <trkpt lat="45.86596" lon="4.63488">
        <ele>287.08548</ele>
        <time>2022-10-04T13:16:19.000Z</time>
      </trkpt>
      <trkpt lat="45.86595" lon="4.63493">
        <ele>287.00323</ele>
        <time>2022-10-04T13:16:20.000Z</time>
      </trkpt>
      <trkpt lat="45.86593" lon="4.63501">
        <ele>286.84976</ele>
        <time>2022-10-04T13:16:21.000Z</time>
      </trkpt>
      <trkpt lat="45.86591" lon="4.63507">
        <ele>286.67178</ele>
        <time>2022-10-04T13:16:22.000Z</time>
      </trkpt>
      <trkpt lat="45.86589" lon="4.63513">
        <ele>286.44083</ele>
        <time>2022-10-04T13:16:23.000Z</time>
      </trkpt>
      <trkpt lat="45.86587" lon="4.63521">
        <ele>286.15048</ele>
        <time>2022-10-04T13:16:24.000Z</time>
      </trkpt>
      <trkpt lat="45.86585" lon="4.63528">
        <ele>285.8324</ele>
        <time>2022-10-04T13:16:25.000Z</time>
      </trkpt>
      <trkpt lat="45.86585" lon="4.63533">
        <ele>285.52612</ele>
        <time>2022-10-04T13:16:26.000Z</time>
      </trkpt>
      <trkpt lat="45.86583" lon="4.6354">
        <ele>285.29559</ele>
        <time>2022-10-04T13:16:27.000Z</time>
      </trkpt>
      <trkpt lat="45.86581" lon="4.63545">
        <ele>285.11234</ele>
        <time>2022-10-04T13:16:28.000Z</time>
      </trkpt>
      <trkpt lat="45.86579" lon="4.63551">
        <ele>284.84863</ele>
        <time>2022-10-04T13:16:29.000Z</time>
      </trkpt>
      <trkpt lat="45.86577" lon="4.63558">
        <ele>284.69476</ele>
        <time>2022-10-04T13:16:30.000Z</time>
      </trkpt>
      <trkpt lat="45.86576" lon="4.63563">
        <ele>284.48822</ele>
        <time>2022-10-04T13:16:31.000Z</time>
      </trkpt>
      <trkpt lat="45.86576" lon="4.6357">
        <ele>284.37805</ele>
        <time>2022-10-04T13:16:32.000Z</time>
      </trkpt>
      <trkpt lat="45.86573" lon="4.63575">
        <ele>284.2063</ele>
        <time>2022-10-04T13:16:33.000Z</time>
      </trkpt>
      <trkpt lat="45.8657" lon="4.63584">
        <ele>283.96829</ele>
        <time>2022-10-04T13:16:34.000Z</time>
      </trkpt>
      <trkpt lat="45.86567" lon="4.6359">
        <ele>283.7486</ele>
        <time>2022-10-04T13:16:35.000Z</time>
      </trkpt>
      <trkpt lat="45.86565" lon="4.63598">
        <ele>283.52432</ele>
        <time>2022-10-04T13:16:36.000Z</time>
      </trkpt>
      <trkpt lat="45.86563" lon="4.63605">
        <ele>283.33633</ele>
        <time>2022-10-04T13:16:37.000Z</time>
      </trkpt>
      <trkpt lat="45.86561" lon="4.6361">
        <ele>283.08542</ele>
        <time>2022-10-04T13:16:38.000Z</time>
      </trkpt>
      <trkpt lat="45.86559" lon="4.63617">
        <ele>282.83661</ele>
        <time>2022-10-04T13:16:39.000Z</time>
      </trkpt>
      <trkpt lat="45.86557" lon="4.63621">
        <ele>282.57343</ele>
        <time>2022-10-04T13:16:40.000Z</time>
      </trkpt>
      <trkpt lat="45.86556" lon="4.63626">
        <ele>282.31238</ele>
        <time>2022-10-04T13:16:41.000Z</time>
      </trkpt>
      <trkpt lat="45.86554" lon="4.63631">
        <ele>282.01855</ele>
        <time>2022-10-04T13:16:42.000Z</time>
      </trkpt>
      <trkpt lat="45.8655" lon="4.63639">
        <ele>281.78253</ele>
        <time>2022-10-04T13:16:43.000Z</time>
      </trkpt>
      <trkpt lat="45.86548" lon="4.63646">
        <ele>281.66644</ele>
        <time>2022-10-04T13:16:44.000Z</time>
      </trkpt>
      <trkpt lat="45.86546" lon="4.63652">
        <ele>281.57269</ele>
        <time>2022-10-04T13:16:45.000Z</time>
      </trkpt>
      <trkpt lat="45.86545" lon="4.63658">
        <ele>281.60471</ele>
        <time>2022-10-04T13:16:46.000Z</time>
      </trkpt>
      <trkpt lat="45.86542" lon="4.63666">
        <ele>281.59079</ele>
        <time>2022-10-04T13:16:47.000Z</time>
      </trkpt>
      <trkpt lat="45.86538" lon="4.63674">
        <ele>281.45911</ele>
        <time>2022-10-04T13:16:48.000Z</time>
      </trkpt>
      <trkpt lat="45.86536" lon="4.63682">
        <ele>281.32477</ele>
        <time>2022-10-04T13:16:49.000Z</time>
      </trkpt>
      <trkpt lat="45.86533" lon="4.63689">
        <ele>281.04855</ele>
        <time>2022-10-04T13:16:50.000Z</time>
      </trkpt>
      <trkpt lat="45.86529" lon="4.63696">
        <ele>280.88568</ele>
        <time>2022-10-04T13:16:51.000Z</time>
      </trkpt>
      <trkpt lat="45.86525" lon="4.63702">
        <ele>280.65536</ele>
        <time>2022-10-04T13:16:52.000Z</time>
      </trkpt>
      <trkpt lat="45.86521" lon="4.6371">
        <ele>280.49979</ele>
        <time>2022-10-04T13:16:53.000Z</time>
      </trkpt>
      <trkpt lat="45.86519" lon="4.63716">
        <ele>280.35202</ele>
        <time>2022-10-04T13:16:54.000Z</time>
      </trkpt>
      <trkpt lat="45.86515" lon="4.63722">
        <ele>280.17676</ele>
        <time>2022-10-04T13:16:55.000Z</time>
      </trkpt>
      <trkpt lat="45.86512" lon="4.63728">
        <ele>280.04422</ele>
        <time>2022-10-04T13:16:56.000Z</time>
      </trkpt>
      <trkpt lat="45.86508" lon="4.63735">
        <ele>279.81287</ele>
        <time>2022-10-04T13:16:57.000Z</time>
      </trkpt>
      <trkpt lat="45.86507" lon="4.63741">
        <ele>279.59711</ele>
        <time>2022-10-04T13:16:58.000Z</time>
      </trkpt>
      <trkpt lat="45.86504" lon="4.63749">
        <ele>279.43494</ele>
        <time>2022-10-04T13:16:59.000Z</time>
      </trkpt>
      <trkpt lat="45.86502" lon="4.63756">
        <ele>279.31714</ele>
        <time>2022-10-04T13:17:00.000Z</time>
      </trkpt>
      <trkpt lat="45.86498" lon="4.63764">
        <ele>279.25974</ele>
        <time>2022-10-04T13:17:01.000Z</time>
      </trkpt>
      <trkpt lat="45.86495" lon="4.6377">
        <ele>279.29041</ele>
        <time>2022-10-04T13:17:02.000Z</time>
      </trkpt>
      <trkpt lat="45.86494" lon="4.63778">
        <ele>279.30682</ele>
        <time>2022-10-04T13:17:03.000Z</time>
      </trkpt>
      <trkpt lat="45.86492" lon="4.63786">
        <ele>279.29907</ele>
        <time>2022-10-04T13:17:04.000Z</time>
      </trkpt>
      <trkpt lat="45.86489" lon="4.63794">
        <ele>279.30524</ele>
        <time>2022-10-04T13:17:05.000Z</time>
      </trkpt>
      <trkpt lat="45.86486" lon="4.63803">
        <ele>279.16315</ele>
        <time>2022-10-04T13:17:06.000Z</time>
      </trkpt>
      <trkpt lat="45.86481" lon="4.63812">
        <ele>279.07535</ele>
        <time>2022-10-04T13:17:07.000Z</time>
      </trkpt>
      <trkpt lat="45.86478" lon="4.6382">
        <ele>279.15274</ele>
        <time>2022-10-04T13:17:08.000Z</time>
      </trkpt>
      <trkpt lat="45.86475" lon="4.63829">
        <ele>279.24683</ele>
        <time>2022-10-04T13:17:09.000Z</time>
      </trkpt>
      <trkpt lat="45.86472" lon="4.63837">
        <ele>279.39789</ele>
        <time>2022-10-04T13:17:10.000Z</time>
      </trkpt>
      <trkpt lat="45.86469" lon="4.63844">
        <ele>279.41507</ele>
        <time>2022-10-04T13:17:11.000Z</time>
      </trkpt>
      <trkpt lat="45.86465" lon="4.63852">
        <ele>279.37637</ele>
        <time>2022-10-04T13:17:12.000Z</time>
      </trkpt>
      <trkpt lat="45.86462" lon="4.63859">
        <ele>279.30402</ele>
        <time>2022-10-04T13:17:13.000Z</time>
      </trkpt>
      <trkpt lat="45.86459" lon="4.63866">
        <ele>279.25467</ele>
        <time>2022-10-04T13:17:14.000Z</time>
      </trkpt>
      <trkpt lat="45.86456" lon="4.63873">
        <ele>279.26346</ele>
        <time>2022-10-04T13:17:15.000Z</time>
      </trkpt>
      <trkpt lat="45.86452" lon="4.6388">
        <ele>279.27704</ele>
        <time>2022-10-04T13:17:16.000Z</time>
      </trkpt>
      <trkpt lat="45.86448" lon="4.63888">
        <ele>279.40857</ele>
        <time>2022-10-04T13:17:17.000Z</time>
      </trkpt>
      <trkpt lat="45.86445" lon="4.63895">
        <ele>279.61566</ele>
        <time>2022-10-04T13:17:18.000Z</time>
      </trkpt>
      <trkpt lat="45.86441" lon="4.63901">
        <ele>279.74915</ele>
        <time>2022-10-04T13:17:19.000Z</time>
      </trkpt>
      <trkpt lat="45.86439" lon="4.63908">
        <ele>279.79202</ele>
        <time>2022-10-04T13:17:20.000Z</time>
      </trkpt>
      <trkpt lat="45.86435" lon="4.63914">
        <ele>279.80743</ele>
        <time>2022-10-04T13:17:21.000Z</time>
      </trkpt>
      <trkpt lat="45.86432" lon="4.63918">
        <ele>279.75171</ele>
        <time>2022-10-04T13:17:22.000Z</time>
      </trkpt>
      <trkpt lat="45.86429" lon="4.63921">
        <ele>279.6861</ele>
        <time>2022-10-04T13:17:23.000Z</time>
      </trkpt>
      <trkpt lat="45.86428" lon="4.63924">
        <ele>279.58289</ele>
        <time>2022-10-04T13:17:24.000Z</time>
      </trkpt>
      <trkpt lat="45.86426" lon="4.63927">
        <ele>279.40546</ele>
        <time>2022-10-04T13:17:25.000Z</time>
      </trkpt>
      <trkpt lat="45.86425" lon="4.6393">
        <ele>279.28055</ele>
        <time>2022-10-04T13:17:26.000Z</time>
      </trkpt>
      <trkpt lat="45.86423" lon="4.63935">
        <ele>279.07492</ele>
        <time>2022-10-04T13:17:27.000Z</time>
      </trkpt>
      <trkpt lat="45.86422" lon="4.6394">
        <ele>278.76926</ele>
        <time>2022-10-04T13:17:28.000Z</time>
      </trkpt>
      <trkpt lat="45.86421" lon="4.63946">
        <ele>278.47992</ele>
        <time>2022-10-04T13:17:29.000Z</time>
      </trkpt>
      <trkpt lat="45.86419" lon="4.63952">
        <ele>278.19171</ele>
        <time>2022-10-04T13:17:30.000Z</time>
      </trkpt>
      <trkpt lat="45.86417" lon="4.63956">
        <ele>277.96155</ele>
        <time>2022-10-04T13:17:31.000Z</time>
      </trkpt>
      <trkpt lat="45.86415" lon="4.63961">
        <ele>277.79221</ele>
        <time>2022-10-04T13:17:32.000Z</time>
      </trkpt>
      <trkpt lat="45.86413" lon="4.63965">
        <ele>277.61218</ele>
        <time>2022-10-04T13:17:33.000Z</time>
      </trkpt>
      <trkpt lat="45.86411" lon="4.6397">
        <ele>277.49258</ele>
        <time>2022-10-04T13:17:34.000Z</time>
      </trkpt>
      <trkpt lat="45.86409" lon="4.63974">
        <ele>277.34573</ele>
        <time>2022-10-04T13:17:35.000Z</time>
      </trkpt>
      <trkpt lat="45.86407" lon="4.63979">
        <ele>277.15558</ele>
        <time>2022-10-04T13:17:36.000Z</time>
      </trkpt>
      <trkpt lat="45.86405" lon="4.63984">
        <ele>276.93036</ele>
        <time>2022-10-04T13:17:37.000Z</time>
      </trkpt>
      <trkpt lat="45.86402" lon="4.63989">
        <ele>276.66837</ele>
        <time>2022-10-04T13:17:38.000Z</time>
      </trkpt>
      <trkpt lat="45.864" lon="4.63995">
        <ele>276.42804</ele>
        <time>2022-10-04T13:17:39.000Z</time>
      </trkpt>
      <trkpt lat="45.86396" lon="4.64002">
        <ele>276.27377</ele>
        <time>2022-10-04T13:17:40.000Z</time>
      </trkpt>
      <trkpt lat="45.86393" lon="4.64007">
        <ele>276.06821</ele>
        <time>2022-10-04T13:17:41.000Z</time>
      </trkpt>
      <trkpt lat="45.8639" lon="4.64012">
        <ele>275.9118</ele>
        <time>2022-10-04T13:17:42.000Z</time>
      </trkpt>
      <trkpt lat="45.86389" lon="4.64018">
        <ele>275.75943</ele>
        <time>2022-10-04T13:17:43.000Z</time>
      </trkpt>
      <trkpt lat="45.86386" lon="4.64022">
        <ele>275.62631</ele>
        <time>2022-10-04T13:17:44.000Z</time>
      </trkpt>
      <trkpt lat="45.86384" lon="4.64028">
        <ele>275.49347</ele>
        <time>2022-10-04T13:17:45.000Z</time>
      </trkpt>
      <trkpt lat="45.86382" lon="4.64034">
        <ele>275.33148</ele>
        <time>2022-10-04T13:17:46.000Z</time>
      </trkpt>
      <trkpt lat="45.86379" lon="4.6404">
        <ele>275.16754</ele>
        <time>2022-10-04T13:17:47.000Z</time>
      </trkpt>
      <trkpt lat="45.86377" lon="4.64046">
        <ele>275.00336</ele>
        <time>2022-10-04T13:17:48.000Z</time>
      </trkpt>
      <trkpt lat="45.86376" lon="4.64052">
        <ele>274.82916</ele>
        <time>2022-10-04T13:17:49.000Z</time>
      </trkpt>
      <trkpt lat="45.86374" lon="4.64058">
        <ele>274.66827</ele>
        <time>2022-10-04T13:17:50.000Z</time>
      </trkpt>
      <trkpt lat="45.86372" lon="4.64063">
        <ele>274.50055</ele>
        <time>2022-10-04T13:17:51.000Z</time>
      </trkpt>
      <trkpt lat="45.8637" lon="4.64069">
        <ele>274.27844</ele>
        <time>2022-10-04T13:17:52.000Z</time>
      </trkpt>
      <trkpt lat="45.8637" lon="4.64075">
        <ele>274.12079</ele>
        <time>2022-10-04T13:17:53.000Z</time>
      </trkpt>
      <trkpt lat="45.86368" lon="4.64081">
        <ele>273.91666</ele>
        <time>2022-10-04T13:17:54.000Z</time>
      </trkpt>
      <trkpt lat="45.86366" lon="4.64088">
        <ele>273.72647</ele>
        <time>2022-10-04T13:17:55.000Z</time>
      </trkpt>
      <trkpt lat="45.86364" lon="4.64095">
        <ele>273.45471</ele>
        <time>2022-10-04T13:17:56.000Z</time>
      </trkpt>
      <trkpt lat="45.86363" lon="4.64101">
        <ele>273.20743</ele>
        <time>2022-10-04T13:17:57.000Z</time>
      </trkpt>
      <trkpt lat="45.86362" lon="4.64106">
        <ele>273.10071</ele>
        <time>2022-10-04T13:17:58.000Z</time>
      </trkpt>
      <trkpt lat="45.8636" lon="4.64114">
        <ele>273.03949</ele>
        <time>2022-10-04T13:17:59.000Z</time>
      </trkpt>
      <trkpt lat="45.8636" lon="4.64123">
        <ele>272.93817</ele>
        <time>2022-10-04T13:18:00.000Z</time>
      </trkpt>
      <trkpt lat="45.86358" lon="4.64131">
        <ele>272.92148</ele>
        <time>2022-10-04T13:18:01.000Z</time>
      </trkpt>
      <trkpt lat="45.86356" lon="4.64138">
        <ele>272.81607</ele>
        <time>2022-10-04T13:18:02.000Z</time>
      </trkpt>
      <trkpt lat="45.86354" lon="4.64145">
        <ele>272.73608</ele>
        <time>2022-10-04T13:18:03.000Z</time>
      </trkpt>
      <trkpt lat="45.86352" lon="4.64153">
        <ele>272.56256</ele>
        <time>2022-10-04T13:18:04.000Z</time>
      </trkpt>
      <trkpt lat="45.8635" lon="4.6416">
        <ele>272.49979</ele>
        <time>2022-10-04T13:18:05.000Z</time>
      </trkpt>
      <trkpt lat="45.86348" lon="4.64168">
        <ele>272.44833</ele>
        <time>2022-10-04T13:18:06.000Z</time>
      </trkpt>
      <trkpt lat="45.86348" lon="4.64173">
        <ele>272.41638</ele>
        <time>2022-10-04T13:18:07.000Z</time>
      </trkpt>
      <trkpt lat="45.86346" lon="4.6418">
        <ele>272.39917</ele>
        <time>2022-10-04T13:18:08.000Z</time>
      </trkpt>
      <trkpt lat="45.86344" lon="4.64188">
        <ele>272.30234</ele>
        <time>2022-10-04T13:18:09.000Z</time>
      </trkpt>
      <trkpt lat="45.86341" lon="4.64196">
        <ele>272.04962</ele>
        <time>2022-10-04T13:18:10.000Z</time>
      </trkpt>
      <trkpt lat="45.86341" lon="4.64203">
        <ele>271.74911</ele>
        <time>2022-10-04T13:18:11.000Z</time>
      </trkpt>
      <trkpt lat="45.86339" lon="4.64208">
        <ele>271.42838</ele>
        <time>2022-10-04T13:18:12.000Z</time>
      </trkpt>
      <trkpt lat="45.86339" lon="4.64212">
        <ele>271.09784</ele>
        <time>2022-10-04T13:18:13.000Z</time>
      </trkpt>
      <trkpt lat="45.86337" lon="4.64219">
        <ele>270.81598</ele>
        <time>2022-10-04T13:18:14.000Z</time>
      </trkpt>
      <trkpt lat="45.86336" lon="4.64225">
        <ele>270.56918</ele>
        <time>2022-10-04T13:18:15.000Z</time>
      </trkpt>
      <trkpt lat="45.86334" lon="4.64233">
        <ele>270.40158</ele>
        <time>2022-10-04T13:18:16.000Z</time>
      </trkpt>
      <trkpt lat="45.86331" lon="4.64241">
        <ele>270.23059</ele>
        <time>2022-10-04T13:18:17.000Z</time>
      </trkpt>
      <trkpt lat="45.8633" lon="4.64248">
        <ele>270.05603</ele>
        <time>2022-10-04T13:18:18.000Z</time>
      </trkpt>
      <trkpt lat="45.86328" lon="4.64254">
        <ele>269.82553</ele>
        <time>2022-10-04T13:18:19.000Z</time>
      </trkpt>
      <trkpt lat="45.86326" lon="4.64261">
        <ele>269.65985</ele>
        <time>2022-10-04T13:18:20.000Z</time>
      </trkpt>
      <trkpt lat="45.86325" lon="4.64268">
        <ele>269.45282</ele>
        <time>2022-10-04T13:18:21.000Z</time>
      </trkpt>
      <trkpt lat="45.86324" lon="4.64275">
        <ele>269.29755</ele>
        <time>2022-10-04T13:18:22.000Z</time>
      </trkpt>
      <trkpt lat="45.86324" lon="4.64282">
        <ele>269.18539</ele>
        <time>2022-10-04T13:18:23.000Z</time>
      </trkpt>
      <trkpt lat="45.86323" lon="4.64288">
        <ele>269.18445</ele>
        <time>2022-10-04T13:18:24.000Z</time>
      </trkpt>
      <trkpt lat="45.86323" lon="4.64295">
        <ele>269.18857</ele>
        <time>2022-10-04T13:18:25.000Z</time>
      </trkpt>
      <trkpt lat="45.86322" lon="4.64302">
        <ele>269.13126</ele>
        <time>2022-10-04T13:18:26.000Z</time>
      </trkpt>
      <trkpt lat="45.86321" lon="4.64309">
        <ele>269.091</ele>
        <time>2022-10-04T13:18:27.000Z</time>
      </trkpt>
      <trkpt lat="45.86321" lon="4.64317">
        <ele>269.05643</ele>
        <time>2022-10-04T13:18:28.000Z</time>
      </trkpt>
      <trkpt lat="45.8632" lon="4.64324">
        <ele>269.0744</ele>
        <time>2022-10-04T13:18:29.000Z</time>
      </trkpt>
      <trkpt lat="45.8632" lon="4.64332">
        <ele>269.20282</ele>
        <time>2022-10-04T13:18:30.000Z</time>
      </trkpt>
      <trkpt lat="45.86321" lon="4.64337">
        <ele>269.4426</ele>
        <time>2022-10-04T13:18:31.000Z</time>
      </trkpt>
      <trkpt lat="45.8632" lon="4.64343">
        <ele>269.69208</ele>
        <time>2022-10-04T13:18:32.000Z</time>
      </trkpt>
      <trkpt lat="45.86319" lon="4.64349">
        <ele>269.89404</ele>
        <time>2022-10-04T13:18:33.000Z</time>
      </trkpt>
      <trkpt lat="45.8632" lon="4.64355">
        <ele>270.13608</ele>
        <time>2022-10-04T13:18:34.000Z</time>
      </trkpt>
      <trkpt lat="45.86323" lon="4.64361">
        <ele>270.41339</ele>
        <time>2022-10-04T13:18:35.000Z</time>
      </trkpt>
      <trkpt lat="45.86325" lon="4.64367">
        <ele>270.72943</ele>
        <time>2022-10-04T13:18:36.000Z</time>
      </trkpt>
      <trkpt lat="45.8633" lon="4.64371">
        <ele>271.0134</ele>
        <time>2022-10-04T13:18:37.000Z</time>
      </trkpt>
      <trkpt lat="45.86333" lon="4.64374">
        <ele>271.16324</ele>
        <time>2022-10-04T13:18:38.000Z</time>
      </trkpt>
      <trkpt lat="45.86338" lon="4.64376">
        <ele>271.28201</ele>
        <time>2022-10-04T13:18:39.000Z</time>
      </trkpt>
      <trkpt lat="45.86341" lon="4.64379">
        <ele>271.39609</ele>
        <time>2022-10-04T13:18:40.000Z</time>
      </trkpt>
      <trkpt lat="45.86345" lon="4.64382">
        <ele>271.48724</ele>
        <time>2022-10-04T13:18:41.000Z</time>
      </trkpt>
      <trkpt lat="45.86348" lon="4.64389">
        <ele>271.63678</ele>
        <time>2022-10-04T13:18:42.000Z</time>
      </trkpt>
      <trkpt lat="45.8635" lon="4.64394">
        <ele>271.72946</ele>
        <time>2022-10-04T13:18:43.000Z</time>
      </trkpt>
      <trkpt lat="45.86351" lon="4.64399">
        <ele>271.84198</ele>
        <time>2022-10-04T13:18:44.000Z</time>
      </trkpt>
      <trkpt lat="45.86351" lon="4.64405">
        <ele>271.89597</ele>
        <time>2022-10-04T13:18:45.000Z</time>
      </trkpt>
      <trkpt lat="45.86349" lon="4.6441">
        <ele>271.9863</ele>
        <time>2022-10-04T13:18:46.000Z</time>
      </trkpt>
      <trkpt lat="45.86349" lon="4.64416">
        <ele>272.07095</ele>
        <time>2022-10-04T13:18:47.000Z</time>
      </trkpt>
      <trkpt lat="45.86349" lon="4.64422">
        <ele>272.13019</ele>
        <time>2022-10-04T13:18:48.000Z</time>
      </trkpt>
      <trkpt lat="45.86349" lon="4.64427">
        <ele>272.29266</ele>
        <time>2022-10-04T13:18:49.000Z</time>
      </trkpt>
      <trkpt lat="45.86349" lon="4.64433">
        <ele>272.42474</ele>
        <time>2022-10-04T13:18:50.000Z</time>
      </trkpt>
      <trkpt lat="45.86349" lon="4.64439">
        <ele>272.49094</ele>
        <time>2022-10-04T13:18:51.000Z</time>
      </trkpt>
      <trkpt lat="45.86349" lon="4.64444">
        <ele>272.57391</ele>
        <time>2022-10-04T13:18:52.000Z</time>
      </trkpt>
      <trkpt lat="45.86349" lon="4.6445">
        <ele>272.63947</ele>
        <time>2022-10-04T13:18:53.000Z</time>
      </trkpt>
      <trkpt lat="45.86349" lon="4.64456">
        <ele>272.62927</ele>
        <time>2022-10-04T13:18:54.000Z</time>
      </trkpt>
      <trkpt lat="45.86349" lon="4.64462">
        <ele>272.48972</ele>
        <time>2022-10-04T13:18:55.000Z</time>
      </trkpt>
      <trkpt lat="45.86349" lon="4.64468">
        <ele>272.31049</ele>
        <time>2022-10-04T13:18:56.000Z</time>
      </trkpt>
      <trkpt lat="45.86349" lon="4.64473">
        <ele>272.25104</ele>
        <time>2022-10-04T13:18:57.000Z</time>
      </trkpt>
      <trkpt lat="45.86348" lon="4.64478">
        <ele>272.17734</ele>
        <time>2022-10-04T13:18:58.000Z</time>
      </trkpt>
      <trkpt lat="45.86349" lon="4.64486">
        <ele>272.10944</ele>
        <time>2022-10-04T13:18:59.000Z</time>
      </trkpt>
      <trkpt lat="45.86349" lon="4.64492">
        <ele>272.0119</ele>
        <time>2022-10-04T13:19:00.000Z</time>
      </trkpt>
      <trkpt lat="45.8635" lon="4.645">
        <ele>272.02872</ele>
        <time>2022-10-04T13:19:01.000Z</time>
      </trkpt>
      <trkpt lat="45.86351" lon="4.64508">
        <ele>272.01675</ele>
        <time>2022-10-04T13:19:02.000Z</time>
      </trkpt>
      <trkpt lat="45.86351" lon="4.64516">
        <ele>272.01089</ele>
        <time>2022-10-04T13:19:03.000Z</time>
      </trkpt>
      <trkpt lat="45.8635" lon="4.64524">
        <ele>271.89178</ele>
        <time>2022-10-04T13:19:04.000Z</time>
      </trkpt>
      <trkpt lat="45.8635" lon="4.64531">
        <ele>271.76202</ele>
        <time>2022-10-04T13:19:05.000Z</time>
      </trkpt>
      <trkpt lat="45.8635" lon="4.64538">
        <ele>271.61288</ele>
        <time>2022-10-04T13:19:06.000Z</time>
      </trkpt>
      <trkpt lat="45.86351" lon="4.64544">
        <ele>271.47028</ele>
        <time>2022-10-04T13:19:07.000Z</time>
      </trkpt>
      <trkpt lat="45.86352" lon="4.64551">
        <ele>271.36322</ele>
        <time>2022-10-04T13:19:08.000Z</time>
      </trkpt>
      <trkpt lat="45.86352" lon="4.64558">
        <ele>271.18469</ele>
        <time>2022-10-04T13:19:09.000Z</time>
      </trkpt>
      <trkpt lat="45.86353" lon="4.64564">
        <ele>270.99847</ele>
        <time>2022-10-04T13:19:10.000Z</time>
      </trkpt>
      <trkpt lat="45.86353" lon="4.64569">
        <ele>270.83087</ele>
        <time>2022-10-04T13:19:11.000Z</time>
      </trkpt>
      <trkpt lat="45.86355" lon="4.64575">
        <ele>270.69476</ele>
        <time>2022-10-04T13:19:12.000Z</time>
      </trkpt>
      <trkpt lat="45.86356" lon="4.64583">
        <ele>270.6026</ele>
        <time>2022-10-04T13:19:13.000Z</time>
      </trkpt>
      <trkpt lat="45.86356" lon="4.64591">
        <ele>270.54288</ele>
        <time>2022-10-04T13:19:14.000Z</time>
      </trkpt>
      <trkpt lat="45.86356" lon="4.64596">
        <ele>270.52292</ele>
        <time>2022-10-04T13:19:15.000Z</time>
      </trkpt>
      <trkpt lat="45.86357" lon="4.64603">
        <ele>270.49738</ele>
        <time>2022-10-04T13:19:16.000Z</time>
      </trkpt>
      <trkpt lat="45.86358" lon="4.64609">
        <ele>270.44104</ele>
        <time>2022-10-04T13:19:17.000Z</time>
      </trkpt>
      <trkpt lat="45.8636" lon="4.64613">
        <ele>270.46698</ele>
        <time>2022-10-04T13:19:18.000Z</time>
      </trkpt>
      <trkpt lat="45.86361" lon="4.64618">
        <ele>270.53668</ele>
        <time>2022-10-04T13:19:19.000Z</time>
      </trkpt>
      <trkpt lat="45.86362" lon="4.64623">
        <ele>270.6124</ele>
        <time>2022-10-04T13:19:20.000Z</time>
      </trkpt>
      <trkpt lat="45.86363" lon="4.64628">
        <ele>270.57532</ele>
        <time>2022-10-04T13:19:21.000Z</time>
      </trkpt>
      <trkpt lat="45.86365" lon="4.64633">
        <ele>270.53574</ele>
        <time>2022-10-04T13:19:22.000Z</time>
      </trkpt>
      <trkpt lat="45.86367" lon="4.64638">
        <ele>270.57391</ele>
        <time>2022-10-04T13:19:23.000Z</time>
      </trkpt>
      <trkpt lat="45.86369" lon="4.64643">
        <ele>270.68451</ele>
        <time>2022-10-04T13:19:24.000Z</time>
      </trkpt>
      <trkpt lat="45.8637" lon="4.6465">
        <ele>270.77563</ele>
        <time>2022-10-04T13:19:25.000Z</time>
      </trkpt>
      <trkpt lat="45.86371" lon="4.64655">
        <ele>270.9082</ele>
        <time>2022-10-04T13:19:26.000Z</time>
      </trkpt>
      <trkpt lat="45.86373" lon="4.64661">
        <ele>271.02563</ele>
        <time>2022-10-04T13:19:27.000Z</time>
      </trkpt>
      <trkpt lat="45.86374" lon="4.64667">
        <ele>271.10156</ele>
        <time>2022-10-04T13:19:28.000Z</time>
      </trkpt>
      <trkpt lat="45.86375" lon="4.64672">
        <ele>271.16034</ele>
        <time>2022-10-04T13:19:29.000Z</time>
      </trkpt>
      <trkpt lat="45.86376" lon="4.64678">
        <ele>271.22437</ele>
        <time>2022-10-04T13:19:30.000Z</time>
      </trkpt>
      <trkpt lat="45.86378" lon="4.64683">
        <ele>271.2363</ele>
        <time>2022-10-04T13:19:31.000Z</time>
      </trkpt>
      <trkpt lat="45.8638" lon="4.64688">
        <ele>271.19388</ele>
        <time>2022-10-04T13:19:32.000Z</time>
      </trkpt>
      <trkpt lat="45.86382" lon="4.64693">
        <ele>271.12115</ele>
        <time>2022-10-04T13:19:33.000Z</time>
      </trkpt>
      <trkpt lat="45.86385" lon="4.64699">
        <ele>271.03156</ele>
        <time>2022-10-04T13:19:34.000Z</time>
      </trkpt>
      <trkpt lat="45.86387" lon="4.64704">
        <ele>270.92038</ele>
        <time>2022-10-04T13:19:35.000Z</time>
      </trkpt>
      <trkpt lat="45.86389" lon="4.6471">
        <ele>270.83847</ele>
        <time>2022-10-04T13:19:36.000Z</time>
      </trkpt>
      <trkpt lat="45.86391" lon="4.64716">
        <ele>270.7319</ele>
        <time>2022-10-04T13:19:37.000Z</time>
      </trkpt>
      <trkpt lat="45.86393" lon="4.64721">
        <ele>270.61334</ele>
        <time>2022-10-04T13:19:38.000Z</time>
      </trkpt>
      <trkpt lat="45.86394" lon="4.64727">
        <ele>270.48062</ele>
        <time>2022-10-04T13:19:39.000Z</time>
      </trkpt>
      <trkpt lat="45.86396" lon="4.64732">
        <ele>270.29965</ele>
        <time>2022-10-04T13:19:40.000Z</time>
      </trkpt>
      <trkpt lat="45.86398" lon="4.64738">
        <ele>270.15109</ele>
        <time>2022-10-04T13:19:41.000Z</time>
      </trkpt>
      <trkpt lat="45.864" lon="4.64743">
        <ele>269.99243</ele>
        <time>2022-10-04T13:19:42.000Z</time>
      </trkpt>
      <trkpt lat="45.86402" lon="4.64749">
        <ele>269.76459</ele>
        <time>2022-10-04T13:19:43.000Z</time>
      </trkpt>
      <trkpt lat="45.86404" lon="4.64755">
        <ele>269.48041</ele>
        <time>2022-10-04T13:19:44.000Z</time>
      </trkpt>
      <trkpt lat="45.86406" lon="4.6476">
        <ele>269.24323</ele>
        <time>2022-10-04T13:19:45.000Z</time>
      </trkpt>
      <trkpt lat="45.86407" lon="4.64766">
        <ele>269.03256</ele>
        <time>2022-10-04T13:19:46.000Z</time>
      </trkpt>
      <trkpt lat="45.86409" lon="4.64771">
        <ele>268.80515</ele>
        <time>2022-10-04T13:19:47.000Z</time>
      </trkpt>
      <trkpt lat="45.86411" lon="4.64776">
        <ele>268.57626</ele>
        <time>2022-10-04T13:19:48.000Z</time>
      </trkpt>
      <trkpt lat="45.86412" lon="4.64781">
        <ele>268.4118</ele>
        <time>2022-10-04T13:19:49.000Z</time>
      </trkpt>
      <trkpt lat="45.86414" lon="4.64786">
        <ele>268.3194</ele>
        <time>2022-10-04T13:19:50.000Z</time>
      </trkpt>
      <trkpt lat="45.86416" lon="4.64791">
        <ele>268.22137</ele>
        <time>2022-10-04T13:19:51.000Z</time>
      </trkpt>
      <trkpt lat="45.86418" lon="4.64796">
        <ele>268.15607</ele>
        <time>2022-10-04T13:19:52.000Z</time>
      </trkpt>
      <trkpt lat="45.8642" lon="4.64802">
        <ele>268.1319</ele>
        <time>2022-10-04T13:19:53.000Z</time>
      </trkpt>
      <trkpt lat="45.86422" lon="4.64807">
        <ele>268.08398</ele>
        <time>2022-10-04T13:19:54.000Z</time>
      </trkpt>
      <trkpt lat="45.86424" lon="4.64812">
        <ele>268.05426</ele>
        <time>2022-10-04T13:19:55.000Z</time>
      </trkpt>
      <trkpt lat="45.86426" lon="4.64817">
        <ele>268.02188</ele>
        <time>2022-10-04T13:19:56.000Z</time>
      </trkpt>
      <trkpt lat="45.86428" lon="4.64823">
        <ele>268.06918</ele>
        <time>2022-10-04T13:19:57.000Z</time>
      </trkpt>
      <trkpt lat="45.8643" lon="4.64828">
        <ele>268.07864</ele>
        <time>2022-10-04T13:19:58.000Z</time>
      </trkpt>
      <trkpt lat="45.86432" lon="4.64833">
        <ele>268.10522</ele>
        <time>2022-10-04T13:19:59.000Z</time>
      </trkpt>
      <trkpt lat="45.86435" lon="4.64838">
        <ele>268.18463</ele>
        <time>2022-10-04T13:20:00.000Z</time>
      </trkpt>
      <trkpt lat="45.86437" lon="4.64843">
        <ele>268.26572</ele>
        <time>2022-10-04T13:20:01.000Z</time>
      </trkpt>
      <trkpt lat="45.86439" lon="4.64848">
        <ele>268.32318</ele>
        <time>2022-10-04T13:20:02.000Z</time>
      </trkpt>
      <trkpt lat="45.86441" lon="4.64853">
        <ele>268.2673</ele>
        <time>2022-10-04T13:20:03.000Z</time>
      </trkpt>
      <trkpt lat="45.86443" lon="4.64858">
        <ele>268.25336</ele>
        <time>2022-10-04T13:20:04.000Z</time>
      </trkpt>
      <trkpt lat="45.86445" lon="4.64863">
        <ele>268.21515</ele>
        <time>2022-10-04T13:20:05.000Z</time>
      </trkpt>
      <trkpt lat="45.86447" lon="4.64869">
        <ele>268.10138</ele>
        <time>2022-10-04T13:20:06.000Z</time>
      </trkpt>
      <trkpt lat="45.86449" lon="4.64874">
        <ele>268.00528</ele>
        <time>2022-10-04T13:20:07.000Z</time>
      </trkpt>
      <trkpt lat="45.86451" lon="4.6488">
        <ele>267.94247</ele>
        <time>2022-10-04T13:20:08.000Z</time>
      </trkpt>
      <trkpt lat="45.86452" lon="4.64885">
        <ele>267.8017</ele>
        <time>2022-10-04T13:20:09.000Z</time>
      </trkpt>
      <trkpt lat="45.86454" lon="4.6489">
        <ele>267.64566</ele>
        <time>2022-10-04T13:20:10.000Z</time>
      </trkpt>
      <trkpt lat="45.86455" lon="4.64895">
        <ele>267.5733</ele>
        <time>2022-10-04T13:20:11.000Z</time>
      </trkpt>
      <trkpt lat="45.86457" lon="4.64901">
        <ele>267.54221</ele>
        <time>2022-10-04T13:20:12.000Z</time>
      </trkpt>
      <trkpt lat="45.86459" lon="4.64906">
        <ele>267.48178</ele>
        <time>2022-10-04T13:20:13.000Z</time>
      </trkpt>
      <trkpt lat="45.8646" lon="4.64911">
        <ele>267.44727</ele>
        <time>2022-10-04T13:20:14.000Z</time>
      </trkpt>
      <trkpt lat="45.86462" lon="4.64916">
        <ele>267.49176</ele>
        <time>2022-10-04T13:20:15.000Z</time>
      </trkpt>
      <trkpt lat="45.86464" lon="4.64921">
        <ele>267.52826</ele>
        <time>2022-10-04T13:20:16.000Z</time>
      </trkpt>
      <trkpt lat="45.86466" lon="4.64925">
        <ele>267.48889</ele>
        <time>2022-10-04T13:20:17.000Z</time>
      </trkpt>
      <trkpt lat="45.86469" lon="4.6493">
        <ele>267.47919</ele>
        <time>2022-10-04T13:20:18.000Z</time>
      </trkpt>
      <trkpt lat="45.8647" lon="4.64936">
        <ele>267.41302</ele>
        <time>2022-10-04T13:20:19.000Z</time>
      </trkpt>
      <trkpt lat="45.86472" lon="4.64942">
        <ele>267.37592</ele>
        <time>2022-10-04T13:20:20.000Z</time>
      </trkpt>
      <trkpt lat="45.86474" lon="4.64947">
        <ele>267.35101</ele>
        <time>2022-10-04T13:20:21.000Z</time>
      </trkpt>
      <trkpt lat="45.86475" lon="4.64953">
        <ele>267.3476</ele>
        <time>2022-10-04T13:20:22.000Z</time>
      </trkpt>
      <trkpt lat="45.86477" lon="4.64958">
        <ele>267.43735</ele>
        <time>2022-10-04T13:20:23.000Z</time>
      </trkpt>
      <trkpt lat="45.86479" lon="4.64963">
        <ele>267.53888</ele>
        <time>2022-10-04T13:20:24.000Z</time>
      </trkpt>
      <trkpt lat="45.8648" lon="4.64968">
        <ele>267.67737</ele>
        <time>2022-10-04T13:20:25.000Z</time>
      </trkpt>
      <trkpt lat="45.86481" lon="4.6497">
        <ele>267.78119</ele>
        <time>2022-10-04T13:20:26.000Z</time>
      </trkpt>
      <trkpt lat="45.86481" lon="4.64973">
        <ele>267.99405</ele>
        <time>2022-10-04T13:20:27.000Z</time>
      </trkpt>
      <trkpt lat="45.8648" lon="4.64977">
        <ele>268.19183</ele>
        <time>2022-10-04T13:20:28.000Z</time>
      </trkpt>
      <trkpt lat="45.86478" lon="4.6498">
        <ele>268.40546</ele>
        <time>2022-10-04T13:20:29.000Z</time>
      </trkpt>
      <trkpt lat="45.86476" lon="4.64984">
        <ele>268.69904</ele>
        <time>2022-10-04T13:20:30.000Z</time>
      </trkpt>
      <trkpt lat="45.86473" lon="4.64987">
        <ele>268.99979</ele>
        <time>2022-10-04T13:20:31.000Z</time>
      </trkpt>
      <trkpt lat="45.8647" lon="4.64991">
        <ele>269.22314</ele>
        <time>2022-10-04T13:20:32.000Z</time>
      </trkpt>
      <trkpt lat="45.86467" lon="4.64994">
        <ele>269.44238</ele>
        <time>2022-10-04T13:20:33.000Z</time>
      </trkpt>
      <trkpt lat="45.86464" lon="4.64998">
        <ele>269.63785</ele>
        <time>2022-10-04T13:20:34.000Z</time>
      </trkpt>
      <trkpt lat="45.8646" lon="4.65002">
        <ele>269.70026</ele>
        <time>2022-10-04T13:20:35.000Z</time>
      </trkpt>
      <trkpt lat="45.86457" lon="4.65005">
        <ele>269.78442</ele>
        <time>2022-10-04T13:20:36.000Z</time>
      </trkpt>
      <trkpt lat="45.86454" lon="4.65009">
        <ele>269.7959</ele>
        <time>2022-10-04T13:20:37.000Z</time>
      </trkpt>
      <trkpt lat="45.86451" lon="4.65013">
        <ele>269.81088</ele>
        <time>2022-10-04T13:20:38.000Z</time>
      </trkpt>
      <trkpt lat="45.86449" lon="4.65017">
        <ele>269.81122</ele>
        <time>2022-10-04T13:20:39.000Z</time>
      </trkpt>
      <trkpt lat="45.86447" lon="4.65021">
        <ele>269.73578</ele>
        <time>2022-10-04T13:20:40.000Z</time>
      </trkpt>
      <trkpt lat="45.86445" lon="4.65025">
        <ele>269.63266</ele>
        <time>2022-10-04T13:20:41.000Z</time>
      </trkpt>
      <trkpt lat="45.86443" lon="4.65029">
        <ele>269.51227</ele>
        <time>2022-10-04T13:20:42.000Z</time>
      </trkpt>
      <trkpt lat="45.8644" lon="4.65034">
        <ele>269.39511</ele>
        <time>2022-10-04T13:20:43.000Z</time>
      </trkpt>
      <trkpt lat="45.86438" lon="4.65037">
        <ele>269.29205</ele>
        <time>2022-10-04T13:20:44.000Z</time>
      </trkpt>
      <trkpt lat="45.86435" lon="4.65042">
        <ele>269.14105</ele>
        <time>2022-10-04T13:20:45.000Z</time>
      </trkpt>
      <trkpt lat="45.86433" lon="4.65046">
        <ele>269.02869</ele>
        <time>2022-10-04T13:20:46.000Z</time>
      </trkpt>
      <trkpt lat="45.8643" lon="4.65051">
        <ele>268.72546</ele>
        <time>2022-10-04T13:20:47.000Z</time>
      </trkpt>
      <trkpt lat="45.86427" lon="4.65055">
        <ele>268.45575</ele>
        <time>2022-10-04T13:20:48.000Z</time>
      </trkpt>
      <trkpt lat="45.86425" lon="4.6506">
        <ele>268.33115</ele>
        <time>2022-10-04T13:20:49.000Z</time>
      </trkpt>
      <trkpt lat="45.86422" lon="4.65064">
        <ele>268.04028</ele>
        <time>2022-10-04T13:20:50.000Z</time>
      </trkpt>
      <trkpt lat="45.86419" lon="4.65068">
        <ele>267.71622</ele>
        <time>2022-10-04T13:20:51.000Z</time>
      </trkpt>
      <trkpt lat="45.86417" lon="4.65073">
        <ele>267.3974</ele>
        <time>2022-10-04T13:20:52.000Z</time>
      </trkpt>
      <trkpt lat="45.86415" lon="4.65077">
        <ele>267.07626</ele>
        <time>2022-10-04T13:20:53.000Z</time>
      </trkpt>
      <trkpt lat="45.86413" lon="4.65081">
        <ele>266.74164</ele>
        <time>2022-10-04T13:20:54.000Z</time>
      </trkpt>
      <trkpt lat="45.86412" lon="4.65087">
        <ele>266.51831</ele>
        <time>2022-10-04T13:20:55.000Z</time>
      </trkpt>
      <trkpt lat="45.86412" lon="4.65092">
        <ele>266.31061</ele>
        <time>2022-10-04T13:20:56.000Z</time>
      </trkpt>
      <trkpt lat="45.86411" lon="4.65097">
        <ele>266.15753</ele>
        <time>2022-10-04T13:20:57.000Z</time>
      </trkpt>
      <trkpt lat="45.8641" lon="4.65101">
        <ele>265.96722</ele>
        <time>2022-10-04T13:20:58.000Z</time>
      </trkpt>
      <trkpt lat="45.86409" lon="4.65105">
        <ele>265.76154</ele>
        <time>2022-10-04T13:20:59.000Z</time>
      </trkpt>
      <trkpt lat="45.86408" lon="4.65109">
        <ele>265.5668</ele>
        <time>2022-10-04T13:21:00.000Z</time>
      </trkpt>
      <trkpt lat="45.86406" lon="4.65115">
        <ele>265.32608</ele>
        <time>2022-10-04T13:21:01.000Z</time>
      </trkpt>
      <trkpt lat="45.86404" lon="4.6512">
        <ele>265.02875</ele>
        <time>2022-10-04T13:21:02.000Z</time>
      </trkpt>
      <trkpt lat="45.864" lon="4.65128">
        <ele>264.73489</ele>
        <time>2022-10-04T13:21:03.000Z</time>
      </trkpt>
      <trkpt lat="45.86398" lon="4.65134">
        <ele>264.43024</ele>
        <time>2022-10-04T13:21:04.000Z</time>
      </trkpt>
      <trkpt lat="45.86396" lon="4.65138">
        <ele>264.12308</ele>
        <time>2022-10-04T13:21:05.000Z</time>
      </trkpt>
      <trkpt lat="45.86394" lon="4.65146">
        <ele>263.78714</ele>
        <time>2022-10-04T13:21:06.000Z</time>
      </trkpt>
      <trkpt lat="45.86392" lon="4.65152">
        <ele>263.51907</ele>
        <time>2022-10-04T13:21:07.000Z</time>
      </trkpt>
      <trkpt lat="45.8639" lon="4.65159">
        <ele>263.2056</ele>
        <time>2022-10-04T13:21:08.000Z</time>
      </trkpt>
      <trkpt lat="45.86388" lon="4.65165">
        <ele>262.78284</ele>
        <time>2022-10-04T13:21:09.000Z</time>
      </trkpt>
      <trkpt lat="45.86385" lon="4.65172">
        <ele>262.44781</ele>
        <time>2022-10-04T13:21:10.000Z</time>
      </trkpt>
      <trkpt lat="45.86382" lon="4.65182">
        <ele>261.98724</ele>
        <time>2022-10-04T13:21:11.000Z</time>
      </trkpt>
      <trkpt lat="45.8638" lon="4.65191">
        <ele>261.60602</ele>
        <time>2022-10-04T13:21:12.000Z</time>
      </trkpt>
      <trkpt lat="45.86377" lon="4.65199">
        <ele>261.19998</ele>
        <time>2022-10-04T13:21:13.000Z</time>
      </trkpt>
      <trkpt lat="45.86374" lon="4.65205">
        <ele>260.79932</ele>
        <time>2022-10-04T13:21:14.000Z</time>
      </trkpt>
      <trkpt lat="45.86372" lon="4.65214">
        <ele>260.40704</ele>
        <time>2022-10-04T13:21:15.000Z</time>
      </trkpt>
      <trkpt lat="45.86369" lon="4.65223">
        <ele>259.96075</ele>
        <time>2022-10-04T13:21:16.000Z</time>
      </trkpt>
      <trkpt lat="45.86366" lon="4.65231">
        <ele>259.54245</ele>
        <time>2022-10-04T13:21:17.000Z</time>
      </trkpt>
      <trkpt lat="45.86365" lon="4.6524">
        <ele>259.18607</ele>
        <time>2022-10-04T13:21:18.000Z</time>
      </trkpt>
      <trkpt lat="45.86362" lon="4.65247">
        <ele>258.91302</ele>
        <time>2022-10-04T13:21:19.000Z</time>
      </trkpt>
      <trkpt lat="45.86361" lon="4.65255">
        <ele>258.74445</ele>
        <time>2022-10-04T13:21:20.000Z</time>
      </trkpt>
      <trkpt lat="45.86359" lon="4.65265">
        <ele>258.62476</ele>
        <time>2022-10-04T13:21:21.000Z</time>
      </trkpt>
      <trkpt lat="45.86357" lon="4.65273">
        <ele>258.59174</ele>
        <time>2022-10-04T13:21:22.000Z</time>
      </trkpt>
      <trkpt lat="45.86357" lon="4.65283">
        <ele>258.57928</ele>
        <time>2022-10-04T13:21:23.000Z</time>
      </trkpt>
      <trkpt lat="45.86354" lon="4.65291">
        <ele>258.55829</ele>
        <time>2022-10-04T13:21:24.000Z</time>
      </trkpt>
      <trkpt lat="45.86352" lon="4.65298">
        <ele>258.52875</ele>
        <time>2022-10-04T13:21:25.000Z</time>
      </trkpt>
      <trkpt lat="45.86351" lon="4.65304">
        <ele>258.51782</ele>
        <time>2022-10-04T13:21:26.000Z</time>
      </trkpt>
      <trkpt lat="45.86349" lon="4.65311">
        <ele>258.52094</ele>
        <time>2022-10-04T13:21:27.000Z</time>
      </trkpt>
      <trkpt lat="45.86348" lon="4.65318">
        <ele>258.55713</ele>
        <time>2022-10-04T13:21:28.000Z</time>
      </trkpt>
      <trkpt lat="45.86345" lon="4.65328">
        <ele>258.58746</ele>
        <time>2022-10-04T13:21:29.000Z</time>
      </trkpt>
      <trkpt lat="45.86345" lon="4.65335">
        <ele>258.72473</ele>
        <time>2022-10-04T13:21:30.000Z</time>
      </trkpt>
      <trkpt lat="45.86343" lon="4.65342">
        <ele>258.95953</ele>
        <time>2022-10-04T13:21:31.000Z</time>
      </trkpt>
      <trkpt lat="45.8634" lon="4.65349">
        <ele>259.17325</ele>
        <time>2022-10-04T13:21:32.000Z</time>
      </trkpt>
      <trkpt lat="45.86338" lon="4.65355">
        <ele>259.42468</ele>
        <time>2022-10-04T13:21:33.000Z</time>
      </trkpt>
      <trkpt lat="45.86337" lon="4.6536">
        <ele>259.62592</ele>
        <time>2022-10-04T13:21:34.000Z</time>
      </trkpt>
      <trkpt lat="45.86334" lon="4.65367">
        <ele>259.7829</ele>
        <time>2022-10-04T13:21:35.000Z</time>
      </trkpt>
      <trkpt lat="45.86332" lon="4.65373">
        <ele>259.98187</ele>
        <time>2022-10-04T13:21:36.000Z</time>
      </trkpt>
      <trkpt lat="45.8633" lon="4.6538">
        <ele>260.17743</ele>
        <time>2022-10-04T13:21:37.000Z</time>
      </trkpt>
      <trkpt lat="45.86328" lon="4.65386">
        <ele>260.36725</ele>
        <time>2022-10-04T13:21:38.000Z</time>
      </trkpt>
      <trkpt lat="45.86327" lon="4.65394">
        <ele>260.56659</ele>
        <time>2022-10-04T13:21:39.000Z</time>
      </trkpt>
      <trkpt lat="45.86326" lon="4.65401">
        <ele>260.66174</ele>
        <time>2022-10-04T13:21:40.000Z</time>
      </trkpt>
      <trkpt lat="45.86322" lon="4.65409">
        <ele>260.63556</ele>
        <time>2022-10-04T13:21:41.000Z</time>
      </trkpt>
      <trkpt lat="45.8632" lon="4.65415">
        <ele>260.62408</ele>
        <time>2022-10-04T13:21:42.000Z</time>
      </trkpt>
      <trkpt lat="45.86319" lon="4.65422">
        <ele>260.6524</ele>
        <time>2022-10-04T13:21:43.000Z</time>
      </trkpt>
      <trkpt lat="45.86318" lon="4.65427">
        <ele>260.62946</ele>
        <time>2022-10-04T13:21:44.000Z</time>
      </trkpt>
      <trkpt lat="45.86317" lon="4.65432">
        <ele>260.6763</ele>
        <time>2022-10-04T13:21:45.000Z</time>
      </trkpt>
      <trkpt lat="45.86317" lon="4.65437">
        <ele>260.72195</ele>
        <time>2022-10-04T13:21:46.000Z</time>
      </trkpt>
      <trkpt lat="45.86316" lon="4.65442">
        <ele>260.85806</ele>
        <time>2022-10-04T13:21:47.000Z</time>
      </trkpt>
      <trkpt lat="45.86314" lon="4.65447">
        <ele>261.16119</ele>
        <time>2022-10-04T13:21:48.000Z</time>
      </trkpt>
      <trkpt lat="45.86313" lon="4.65454">
        <ele>261.42767</ele>
        <time>2022-10-04T13:21:49.000Z</time>
      </trkpt>
      <trkpt lat="45.86312" lon="4.65461">
        <ele>261.51675</ele>
        <time>2022-10-04T13:21:50.000Z</time>
      </trkpt>
      <trkpt lat="45.8631" lon="4.65467">
        <ele>261.63577</ele>
        <time>2022-10-04T13:21:51.000Z</time>
      </trkpt>
      <trkpt lat="45.86309" lon="4.65472">
        <ele>261.82028</ele>
        <time>2022-10-04T13:21:52.000Z</time>
      </trkpt>
      <trkpt lat="45.86308" lon="4.65478">
        <ele>261.94614</ele>
        <time>2022-10-04T13:21:53.000Z</time>
      </trkpt>
      <trkpt lat="45.86307" lon="4.65484">
        <ele>262.16693</ele>
        <time>2022-10-04T13:21:54.000Z</time>
      </trkpt>
      <trkpt lat="45.86306" lon="4.65491">
        <ele>262.36371</ele>
        <time>2022-10-04T13:21:55.000Z</time>
      </trkpt>
      <trkpt lat="45.86303" lon="4.65496">
        <ele>262.56305</ele>
        <time>2022-10-04T13:21:56.000Z</time>
      </trkpt>
      <trkpt lat="45.86301" lon="4.65503">
        <ele>262.84036</ele>
        <time>2022-10-04T13:21:57.000Z</time>
      </trkpt>
      <trkpt lat="45.86299" lon="4.65505">
        <ele>263.01898</ele>
        <time>2022-10-04T13:21:58.000Z</time>
      </trkpt>
      <trkpt lat="45.86297" lon="4.6551">
        <ele>263.27924</ele>
        <time>2022-10-04T13:21:59.000Z</time>
      </trkpt>
      <trkpt lat="45.86295" lon="4.65516">
        <ele>263.51102</ele>
        <time>2022-10-04T13:22:00.000Z</time>
      </trkpt>
      <trkpt lat="45.86293" lon="4.65521">
        <ele>263.8826</ele>
        <time>2022-10-04T13:22:01.000Z</time>
      </trkpt>
      <trkpt lat="45.86291" lon="4.65526">
        <ele>264.27261</ele>
        <time>2022-10-04T13:22:02.000Z</time>
      </trkpt>
      <trkpt lat="45.86289" lon="4.65531">
        <ele>264.56683</ele>
        <time>2022-10-04T13:22:03.000Z</time>
      </trkpt>
      <trkpt lat="45.86287" lon="4.65537">
        <ele>264.8959</ele>
        <time>2022-10-04T13:22:04.000Z</time>
      </trkpt>
      <trkpt lat="45.86285" lon="4.65543">
        <ele>265.15161</ele>
        <time>2022-10-04T13:22:05.000Z</time>
      </trkpt>
      <trkpt lat="45.86284" lon="4.65547">
        <ele>265.37012</ele>
        <time>2022-10-04T13:22:06.000Z</time>
      </trkpt>
      <trkpt lat="45.86283" lon="4.65554">
        <ele>265.53937</ele>
        <time>2022-10-04T13:22:07.000Z</time>
      </trkpt>
      <trkpt lat="45.86281" lon="4.6556">
        <ele>265.51022</ele>
        <time>2022-10-04T13:22:08.000Z</time>
      </trkpt>
      <trkpt lat="45.86281" lon="4.65565">
        <ele>265.56305</ele>
        <time>2022-10-04T13:22:09.000Z</time>
      </trkpt>
      <trkpt lat="45.8628" lon="4.6557">
        <ele>265.80872</ele>
        <time>2022-10-04T13:22:10.000Z</time>
      </trkpt>
      <trkpt lat="45.86279" lon="4.65574">
        <ele>266.04025</ele>
        <time>2022-10-04T13:22:11.000Z</time>
      </trkpt>
      <trkpt lat="45.86278" lon="4.65579">
        <ele>266.16763</ele>
        <time>2022-10-04T13:22:12.000Z</time>
      </trkpt>
      <trkpt lat="45.86277" lon="4.65582">
        <ele>266.35904</ele>
        <time>2022-10-04T13:22:13.000Z</time>
      </trkpt>
      <trkpt lat="45.86275" lon="4.65587">
        <ele>266.53134</ele>
        <time>2022-10-04T13:22:14.000Z</time>
      </trkpt>
      <trkpt lat="45.86272" lon="4.65592">
        <ele>266.69644</ele>
        <time>2022-10-04T13:22:15.000Z</time>
      </trkpt>
      <trkpt lat="45.86272" lon="4.65595">
        <ele>266.81549</ele>
        <time>2022-10-04T13:22:16.000Z</time>
      </trkpt>
      <trkpt lat="45.86271" lon="4.65599">
        <ele>266.80222</ele>
        <time>2022-10-04T13:22:17.000Z</time>
      </trkpt>
      <trkpt lat="45.86269" lon="4.65604">
        <ele>266.82898</ele>
        <time>2022-10-04T13:22:18.000Z</time>
      </trkpt>
      <trkpt lat="45.86266" lon="4.65609">
        <ele>266.71552</ele>
        <time>2022-10-04T13:22:19.000Z</time>
      </trkpt>
      <trkpt lat="45.86263" lon="4.65615">
        <ele>266.67224</ele>
        <time>2022-10-04T13:22:20.000Z</time>
      </trkpt>
      <trkpt lat="45.86261" lon="4.65621">
        <ele>266.57306</ele>
        <time>2022-10-04T13:22:21.000Z</time>
      </trkpt>
      <trkpt lat="45.86257" lon="4.65628">
        <ele>266.45273</ele>
        <time>2022-10-04T13:22:22.000Z</time>
      </trkpt>
      <trkpt lat="45.86255" lon="4.65633">
        <ele>266.38754</ele>
        <time>2022-10-04T13:22:23.000Z</time>
      </trkpt>
      <trkpt lat="45.86253" lon="4.65639">
        <ele>266.38522</ele>
        <time>2022-10-04T13:22:24.000Z</time>
      </trkpt>
      <trkpt lat="45.86251" lon="4.65643">
        <ele>266.38876</ele>
        <time>2022-10-04T13:22:25.000Z</time>
      </trkpt>
      <trkpt lat="45.86248" lon="4.65649">
        <ele>266.44382</ele>
        <time>2022-10-04T13:22:26.000Z</time>
      </trkpt>
      <trkpt lat="45.86246" lon="4.65656">
        <ele>266.43893</ele>
        <time>2022-10-04T13:22:27.000Z</time>
      </trkpt>
      <trkpt lat="45.86242" lon="4.65664">
        <ele>266.38754</ele>
        <time>2022-10-04T13:22:28.000Z</time>
      </trkpt>
      <trkpt lat="45.86241" lon="4.6567">
        <ele>266.2674</ele>
        <time>2022-10-04T13:22:29.000Z</time>
      </trkpt>
      <trkpt lat="45.86239" lon="4.65677">
        <ele>266.05673</ele>
        <time>2022-10-04T13:22:30.000Z</time>
      </trkpt>
      <trkpt lat="45.86237" lon="4.65683">
        <ele>265.75763</ele>
        <time>2022-10-04T13:22:31.000Z</time>
      </trkpt>
      <trkpt lat="45.86233" lon="4.65689">
        <ele>265.48059</ele>
        <time>2022-10-04T13:22:32.000Z</time>
      </trkpt>
      <trkpt lat="45.8623" lon="4.65695">
        <ele>265.17535</ele>
        <time>2022-10-04T13:22:33.000Z</time>
      </trkpt>
      <trkpt lat="45.86227" lon="4.65702">
        <ele>264.73834</ele>
        <time>2022-10-04T13:22:34.000Z</time>
      </trkpt>
      <trkpt lat="45.86227" lon="4.65706">
        <ele>264.39246</ele>
        <time>2022-10-04T13:22:35.000Z</time>
      </trkpt>
      <trkpt lat="45.86224" lon="4.65711">
        <ele>264.03418</ele>
        <time>2022-10-04T13:22:36.000Z</time>
      </trkpt>
      <trkpt lat="45.86221" lon="4.65717">
        <ele>263.66464</ele>
        <time>2022-10-04T13:22:37.000Z</time>
      </trkpt>
      <trkpt lat="45.86218" lon="4.65724">
        <ele>263.29156</ele>
        <time>2022-10-04T13:22:38.000Z</time>
      </trkpt>
      <trkpt lat="45.86215" lon="4.6573">
        <ele>262.91638</ele>
        <time>2022-10-04T13:22:39.000Z</time>
      </trkpt>
      <trkpt lat="45.86211" lon="4.6574">
        <ele>262.47708</ele>
        <time>2022-10-04T13:22:40.000Z</time>
      </trkpt>
      <trkpt lat="45.86208" lon="4.65747">
        <ele>262.11465</ele>
        <time>2022-10-04T13:22:41.000Z</time>
      </trkpt>
      <trkpt lat="45.86205" lon="4.65755">
        <ele>261.71494</ele>
        <time>2022-10-04T13:22:42.000Z</time>
      </trkpt>
      <trkpt lat="45.86202" lon="4.65761">
        <ele>261.31741</ele>
        <time>2022-10-04T13:22:43.000Z</time>
      </trkpt>
      <trkpt lat="45.862" lon="4.65767">
        <ele>260.97876</ele>
        <time>2022-10-04T13:22:44.000Z</time>
      </trkpt>
      <trkpt lat="45.86196" lon="4.65773">
        <ele>260.71869</ele>
        <time>2022-10-04T13:22:45.000Z</time>
      </trkpt>
      <trkpt lat="45.86194" lon="4.65778">
        <ele>260.59845</ele>
        <time>2022-10-04T13:22:46.000Z</time>
      </trkpt>
      <trkpt lat="45.86192" lon="4.65784">
        <ele>260.46243</ele>
        <time>2022-10-04T13:22:47.000Z</time>
      </trkpt>
      <trkpt lat="45.8619" lon="4.6579">
        <ele>260.38098</ele>
        <time>2022-10-04T13:22:48.000Z</time>
      </trkpt>
      <trkpt lat="45.86186" lon="4.65797">
        <ele>260.35864</ele>
        <time>2022-10-04T13:22:49.000Z</time>
      </trkpt>
      <trkpt lat="45.86183" lon="4.65802">
        <ele>260.29254</ele>
        <time>2022-10-04T13:22:50.000Z</time>
      </trkpt>
      <trkpt lat="45.86181" lon="4.65809">
        <ele>260.27618</ele>
        <time>2022-10-04T13:22:51.000Z</time>
      </trkpt>
      <trkpt lat="45.86179" lon="4.65815">
        <ele>260.22711</ele>
        <time>2022-10-04T13:22:52.000Z</time>
      </trkpt>
      <trkpt lat="45.86176" lon="4.65822">
        <ele>260.21182</ele>
        <time>2022-10-04T13:22:53.000Z</time>
      </trkpt>
      <trkpt lat="45.86173" lon="4.65828">
        <ele>260.30051</ele>
        <time>2022-10-04T13:22:54.000Z</time>
      </trkpt>
      <trkpt lat="45.8617" lon="4.65835">
        <ele>260.32571</ele>
        <time>2022-10-04T13:22:55.000Z</time>
      </trkpt>
      <trkpt lat="45.86166" lon="4.65841">
        <ele>260.41977</ele>
        <time>2022-10-04T13:22:56.000Z</time>
      </trkpt>
      <trkpt lat="45.86163" lon="4.65849">
        <ele>260.54227</ele>
        <time>2022-10-04T13:22:57.000Z</time>
      </trkpt>
      <trkpt lat="45.8616" lon="4.65856">
        <ele>260.72244</ele>
        <time>2022-10-04T13:22:58.000Z</time>
      </trkpt>
      <trkpt lat="45.86157" lon="4.65862">
        <ele>260.92181</ele>
        <time>2022-10-04T13:22:59.000Z</time>
      </trkpt>
      <trkpt lat="45.86154" lon="4.65869">
        <ele>261.20111</ele>
        <time>2022-10-04T13:23:00.000Z</time>
      </trkpt>
      <trkpt lat="45.86152" lon="4.65875">
        <ele>261.42236</ele>
        <time>2022-10-04T13:23:01.000Z</time>
      </trkpt>
      <trkpt lat="45.86149" lon="4.65882">
        <ele>261.65897</ele>
        <time>2022-10-04T13:23:02.000Z</time>
      </trkpt>
      <trkpt lat="45.86146" lon="4.65889">
        <ele>261.85696</ele>
        <time>2022-10-04T13:23:03.000Z</time>
      </trkpt>
      <trkpt lat="45.86145" lon="4.65893">
        <ele>261.93253</ele>
        <time>2022-10-04T13:23:04.000Z</time>
      </trkpt>
      <trkpt lat="45.86142" lon="4.65902">
        <ele>261.81699</ele>
        <time>2022-10-04T13:23:05.000Z</time>
      </trkpt>
      <trkpt lat="45.86138" lon="4.65909">
        <ele>261.58673</ele>
        <time>2022-10-04T13:23:06.000Z</time>
      </trkpt>
      <trkpt lat="45.86135" lon="4.65916">
        <ele>261.40097</ele>
        <time>2022-10-04T13:23:07.000Z</time>
      </trkpt>
      <trkpt lat="45.86132" lon="4.65922">
        <ele>261.2067</ele>
        <time>2022-10-04T13:23:08.000Z</time>
      </trkpt>
      <trkpt lat="45.86128" lon="4.65929">
        <ele>260.90524</ele>
        <time>2022-10-04T13:23:09.000Z</time>
      </trkpt>
      <trkpt lat="45.86125" lon="4.65937">
        <ele>260.58575</ele>
        <time>2022-10-04T13:23:10.000Z</time>
      </trkpt>
      <trkpt lat="45.86122" lon="4.65943">
        <ele>260.28448</ele>
        <time>2022-10-04T13:23:11.000Z</time>
      </trkpt>
      <trkpt lat="45.86118" lon="4.65952">
        <ele>259.98337</ele>
        <time>2022-10-04T13:23:12.000Z</time>
      </trkpt>
      <trkpt lat="45.86115" lon="4.65958">
        <ele>259.70581</ele>
        <time>2022-10-04T13:23:13.000Z</time>
      </trkpt>
      <trkpt lat="45.86113" lon="4.65964">
        <ele>259.45685</ele>
        <time>2022-10-04T13:23:14.000Z</time>
      </trkpt>
      <trkpt lat="45.86109" lon="4.65972">
        <ele>259.22211</ele>
        <time>2022-10-04T13:23:15.000Z</time>
      </trkpt>
      <trkpt lat="45.86106" lon="4.65978">
        <ele>258.96039</ele>
        <time>2022-10-04T13:23:16.000Z</time>
      </trkpt>
      <trkpt lat="45.86102" lon="4.65986">
        <ele>258.68417</ele>
        <time>2022-10-04T13:23:17.000Z</time>
      </trkpt>
      <trkpt lat="45.86099" lon="4.65993">
        <ele>258.38638</ele>
        <time>2022-10-04T13:23:18.000Z</time>
      </trkpt>
      <trkpt lat="45.86096" lon="4.65999">
        <ele>258.14081</ele>
        <time>2022-10-04T13:23:19.000Z</time>
      </trkpt>
      <trkpt lat="45.86093" lon="4.66006">
        <ele>257.82159</ele>
        <time>2022-10-04T13:23:20.000Z</time>
      </trkpt>
      <trkpt lat="45.8609" lon="4.66015">
        <ele>257.46011</ele>
        <time>2022-10-04T13:23:21.000Z</time>
      </trkpt>
      <trkpt lat="45.86088" lon="4.66021">
        <ele>257.00089</ele>
        <time>2022-10-04T13:23:22.000Z</time>
      </trkpt>
      <trkpt lat="45.86085" lon="4.66027">
        <ele>256.52643</ele>
        <time>2022-10-04T13:23:23.000Z</time>
      </trkpt>
      <trkpt lat="45.86084" lon="4.66032">
        <ele>256.03687</ele>
        <time>2022-10-04T13:23:24.000Z</time>
      </trkpt>
      <trkpt lat="45.86082" lon="4.66037">
        <ele>255.69788</ele>
        <time>2022-10-04T13:23:25.000Z</time>
      </trkpt>
      <trkpt lat="45.86081" lon="4.66043">
        <ele>255.41647</ele>
        <time>2022-10-04T13:23:26.000Z</time>
      </trkpt>
      <trkpt lat="45.8608" lon="4.66047">
        <ele>255.18962</ele>
        <time>2022-10-04T13:23:27.000Z</time>
      </trkpt>
      <trkpt lat="45.86078" lon="4.66052">
        <ele>254.97896</ele>
        <time>2022-10-04T13:23:28.000Z</time>
      </trkpt>
      <trkpt lat="45.86075" lon="4.66058">
        <ele>254.84433</ele>
        <time>2022-10-04T13:23:29.000Z</time>
      </trkpt>
      <trkpt lat="45.86072" lon="4.66064">
        <ele>254.74101</ele>
        <time>2022-10-04T13:23:30.000Z</time>
      </trkpt>
      <trkpt lat="45.8607" lon="4.66069">
        <ele>254.65442</ele>
        <time>2022-10-04T13:23:31.000Z</time>
      </trkpt>
      <trkpt lat="45.86069" lon="4.66073">
        <ele>254.64209</ele>
        <time>2022-10-04T13:23:32.000Z</time>
      </trkpt>
      <trkpt lat="45.86064" lon="4.66079">
        <ele>254.67435</ele>
        <time>2022-10-04T13:23:33.000Z</time>
      </trkpt>
      <trkpt lat="45.86061" lon="4.66083">
        <ele>254.88496</ele>
        <time>2022-10-04T13:23:34.000Z</time>
      </trkpt>
      <trkpt lat="45.86058" lon="4.66088">
        <ele>255.10745</ele>
        <time>2022-10-04T13:23:35.000Z</time>
      </trkpt>
      <trkpt lat="45.86055" lon="4.66092">
        <ele>255.36369</ele>
        <time>2022-10-04T13:23:36.000Z</time>
      </trkpt>
      <trkpt lat="45.86049" lon="4.66098">
        <ele>255.60718</ele>
        <time>2022-10-04T13:23:37.000Z</time>
      </trkpt>
      <trkpt lat="45.86045" lon="4.661">
        <ele>255.84749</ele>
        <time>2022-10-04T13:23:38.000Z</time>
      </trkpt>
      <trkpt lat="45.8604" lon="4.66103">
        <ele>256.15933</ele>
        <time>2022-10-04T13:23:39.000Z</time>
      </trkpt>
      <trkpt lat="45.86037" lon="4.66106">
        <ele>256.51593</ele>
        <time>2022-10-04T13:23:40.000Z</time>
      </trkpt>
      <trkpt lat="45.86032" lon="4.66109">
        <ele>256.90414</ele>
        <time>2022-10-04T13:23:41.000Z</time>
      </trkpt>
      <trkpt lat="45.86029" lon="4.66113">
        <ele>257.36188</ele>
        <time>2022-10-04T13:23:42.000Z</time>
      </trkpt>
      <trkpt lat="45.86024" lon="4.66116">
        <ele>257.82959</ele>
        <time>2022-10-04T13:23:43.000Z</time>
      </trkpt>
      <trkpt lat="45.8602" lon="4.6612">
        <ele>258.32266</ele>
        <time>2022-10-04T13:23:44.000Z</time>
      </trkpt>
      <trkpt lat="45.86016" lon="4.66123">
        <ele>258.80109</ele>
        <time>2022-10-04T13:23:45.000Z</time>
      </trkpt>
      <trkpt lat="45.86012" lon="4.66127">
        <ele>259.23825</ele>
        <time>2022-10-04T13:23:46.000Z</time>
      </trkpt>
      <trkpt lat="45.8601" lon="4.66129">
        <ele>259.61288</ele>
        <time>2022-10-04T13:23:47.000Z</time>
      </trkpt>
      <trkpt lat="45.86007" lon="4.66132">
        <ele>260.01584</ele>
        <time>2022-10-04T13:23:48.000Z</time>
      </trkpt>
      <trkpt lat="45.86005" lon="4.66135">
        <ele>260.43979</ele>
        <time>2022-10-04T13:23:49.000Z</time>
      </trkpt>
      <trkpt lat="45.86002" lon="4.6614">
        <ele>260.83398</ele>
        <time>2022-10-04T13:23:50.000Z</time>
      </trkpt>
      <trkpt lat="45.85999" lon="4.66144">
        <ele>261.35764</ele>
        <time>2022-10-04T13:23:51.000Z</time>
      </trkpt>
      <trkpt lat="45.85997" lon="4.66147">
        <ele>261.97235</ele>
        <time>2022-10-04T13:23:52.000Z</time>
      </trkpt>
      <trkpt lat="45.85994" lon="4.66151">
        <ele>262.47476</ele>
        <time>2022-10-04T13:23:53.000Z</time>
      </trkpt>
      <trkpt lat="45.8599" lon="4.66155">
        <ele>262.80441</ele>
        <time>2022-10-04T13:23:54.000Z</time>
      </trkpt>
      <trkpt lat="45.85987" lon="4.6616">
        <ele>263.11685</ele>
        <time>2022-10-04T13:23:55.000Z</time>
      </trkpt>
      <trkpt lat="45.85983" lon="4.66163">
        <ele>263.40634</ele>
        <time>2022-10-04T13:23:56.000Z</time>
      </trkpt>
      <trkpt lat="45.85981" lon="4.66168">
        <ele>263.71442</ele>
        <time>2022-10-04T13:23:57.000Z</time>
      </trkpt>
      <trkpt lat="45.85977" lon="4.66174">
        <ele>263.97351</ele>
        <time>2022-10-04T13:23:58.000Z</time>
      </trkpt>
      <trkpt lat="45.85974" lon="4.6618">
        <ele>264.14984</ele>
        <time>2022-10-04T13:23:59.000Z</time>
      </trkpt>
      <trkpt lat="45.85971" lon="4.66185">
        <ele>264.31744</ele>
        <time>2022-10-04T13:24:00.000Z</time>
      </trkpt>
      <trkpt lat="45.8597" lon="4.66188">
        <ele>264.63019</ele>
        <time>2022-10-04T13:24:01.000Z</time>
      </trkpt>
      <trkpt lat="45.85968" lon="4.66195">
        <ele>264.91058</ele>
        <time>2022-10-04T13:24:02.000Z</time>
      </trkpt>
      <trkpt lat="45.85969" lon="4.66199">
        <ele>265.26086</ele>
        <time>2022-10-04T13:24:03.000Z</time>
      </trkpt>
      <trkpt lat="45.85966" lon="4.66203">
        <ele>265.53693</ele>
        <time>2022-10-04T13:24:04.000Z</time>
      </trkpt>
      <trkpt lat="45.85963" lon="4.66207">
        <ele>265.8006</ele>
        <time>2022-10-04T13:24:05.000Z</time>
      </trkpt>
      <trkpt lat="45.85961" lon="4.6621">
        <ele>266.08646</ele>
        <time>2022-10-04T13:24:06.000Z</time>
      </trkpt>
      <trkpt lat="45.85959" lon="4.66214">
        <ele>266.39288</ele>
        <time>2022-10-04T13:24:07.000Z</time>
      </trkpt>
      <trkpt lat="45.85957" lon="4.66218">
        <ele>266.71552</ele>
        <time>2022-10-04T13:24:08.000Z</time>
      </trkpt>
      <trkpt lat="45.85955" lon="4.66222">
        <ele>267.04352</ele>
        <time>2022-10-04T13:24:09.000Z</time>
      </trkpt>
      <trkpt lat="45.85953" lon="4.66227">
        <ele>267.36697</ele>
        <time>2022-10-04T13:24:10.000Z</time>
      </trkpt>
      <trkpt lat="45.85951" lon="4.66232">
        <ele>267.49396</ele>
        <time>2022-10-04T13:24:11.000Z</time>
      </trkpt>
      <trkpt lat="45.85949" lon="4.66237">
        <ele>267.45688</ele>
        <time>2022-10-04T13:24:12.000Z</time>
      </trkpt>
      <trkpt lat="45.85946" lon="4.66241">
        <ele>267.5578</ele>
        <time>2022-10-04T13:24:13.000Z</time>
      </trkpt>
      <trkpt lat="45.85944" lon="4.66245">
        <ele>267.70547</ele>
        <time>2022-10-04T13:24:14.000Z</time>
      </trkpt>
      <trkpt lat="45.85942" lon="4.6625">
        <ele>267.80078</ele>
        <time>2022-10-04T13:24:15.000Z</time>
      </trkpt>
      <trkpt lat="45.85939" lon="4.66254">
        <ele>267.86115</ele>
        <time>2022-10-04T13:24:16.000Z</time>
      </trkpt>
      <trkpt lat="45.85937" lon="4.66259">
        <ele>267.96552</ele>
        <time>2022-10-04T13:24:17.000Z</time>
      </trkpt>
      <trkpt lat="45.85934" lon="4.66263">
        <ele>268.0766</ele>
        <time>2022-10-04T13:24:18.000Z</time>
      </trkpt>
      <trkpt lat="45.85932" lon="4.66267">
        <ele>268.22473</ele>
        <time>2022-10-04T13:24:19.000Z</time>
      </trkpt>
      <trkpt lat="45.85929" lon="4.66271">
        <ele>268.32706</ele>
        <time>2022-10-04T13:24:20.000Z</time>
      </trkpt>
      <trkpt lat="45.85927" lon="4.66275">
        <ele>268.30682</ele>
        <time>2022-10-04T13:24:21.000Z</time>
      </trkpt>
      <trkpt lat="45.85925" lon="4.66279">
        <ele>268.29208</ele>
        <time>2022-10-04T13:24:22.000Z</time>
      </trkpt>
      <trkpt lat="45.85922" lon="4.66283">
        <ele>268.25012</ele>
        <time>2022-10-04T13:24:23.000Z</time>
      </trkpt>
      <trkpt lat="45.8592" lon="4.66287">
        <ele>268.2977</ele>
        <time>2022-10-04T13:24:24.000Z</time>
      </trkpt>
      <trkpt lat="45.85918" lon="4.66291">
        <ele>268.43027</ele>
        <time>2022-10-04T13:24:25.000Z</time>
      </trkpt>
      <trkpt lat="45.85916" lon="4.66295">
        <ele>268.57132</ele>
        <time>2022-10-04T13:24:26.000Z</time>
      </trkpt>
      <trkpt lat="45.85913" lon="4.66299">
        <ele>268.6236</ele>
        <time>2022-10-04T13:24:27.000Z</time>
      </trkpt>
      <trkpt lat="45.85911" lon="4.66303">
        <ele>268.61508</ele>
        <time>2022-10-04T13:24:28.000Z</time>
      </trkpt>
      <trkpt lat="45.85909" lon="4.66308">
        <ele>268.48483</ele>
        <time>2022-10-04T13:24:29.000Z</time>
      </trkpt>
      <trkpt lat="45.85907" lon="4.66312">
        <ele>268.35794</ele>
        <time>2022-10-04T13:24:30.000Z</time>
      </trkpt>
      <trkpt lat="45.85905" lon="4.66317">
        <ele>268.28241</ele>
        <time>2022-10-04T13:24:31.000Z</time>
      </trkpt>
      <trkpt lat="45.85903" lon="4.66321">
        <ele>268.31296</ele>
        <time>2022-10-04T13:24:32.000Z</time>
      </trkpt>
      <trkpt lat="45.85901" lon="4.66326">
        <ele>268.24213</ele>
        <time>2022-10-04T13:24:33.000Z</time>
      </trkpt>
      <trkpt lat="45.85899" lon="4.66332">
        <ele>268.10736</ele>
        <time>2022-10-04T13:24:34.000Z</time>
      </trkpt>
      <trkpt lat="45.85896" lon="4.66337">
        <ele>268.02261</ele>
        <time>2022-10-04T13:24:35.000Z</time>
      </trkpt>
      <trkpt lat="45.85894" lon="4.66342">
        <ele>267.90982</ele>
        <time>2022-10-04T13:24:36.000Z</time>
      </trkpt>
      <trkpt lat="45.85892" lon="4.66348">
        <ele>267.69885</ele>
        <time>2022-10-04T13:24:37.000Z</time>
      </trkpt>
      <trkpt lat="45.8589" lon="4.66354">
        <ele>267.50583</ele>
        <time>2022-10-04T13:24:38.000Z</time>
      </trkpt>
      <trkpt lat="45.85888" lon="4.6636">
        <ele>267.23502</ele>
        <time>2022-10-04T13:24:39.000Z</time>
      </trkpt>
      <trkpt lat="45.85886" lon="4.66367">
        <ele>267.02884</ele>
        <time>2022-10-04T13:24:40.000Z</time>
      </trkpt>
      <trkpt lat="45.85884" lon="4.66374">
        <ele>266.83426</ele>
        <time>2022-10-04T13:24:41.000Z</time>
      </trkpt>
      <trkpt lat="45.85882" lon="4.66381">
        <ele>266.65579</ele>
        <time>2022-10-04T13:24:42.000Z</time>
      </trkpt>
      <trkpt lat="45.8588" lon="4.66388">
        <ele>266.39941</ele>
        <time>2022-10-04T13:24:43.000Z</time>
      </trkpt>
      <trkpt lat="45.85878" lon="4.66398">
        <ele>265.9899</ele>
        <time>2022-10-04T13:24:44.000Z</time>
      </trkpt>
      <trkpt lat="45.85875" lon="4.66406">
        <ele>265.40985</ele>
        <time>2022-10-04T13:24:45.000Z</time>
      </trkpt>
      <trkpt lat="45.85873" lon="4.66415">
        <ele>264.80191</ele>
        <time>2022-10-04T13:24:46.000Z</time>
      </trkpt>
      <trkpt lat="45.85871" lon="4.66425">
        <ele>264.24155</ele>
        <time>2022-10-04T13:24:47.000Z</time>
      </trkpt>
      <trkpt lat="45.85869" lon="4.66434">
        <ele>263.70627</ele>
        <time>2022-10-04T13:24:48.000Z</time>
      </trkpt>
      <trkpt lat="45.85867" lon="4.66444">
        <ele>263.23196</ele>
        <time>2022-10-04T13:24:49.000Z</time>
      </trkpt>
      <trkpt lat="45.85865" lon="4.66455">
        <ele>262.75647</ele>
        <time>2022-10-04T13:24:50.000Z</time>
      </trkpt>
      <trkpt lat="45.85862" lon="4.66465">
        <ele>262.21509</ele>
        <time>2022-10-04T13:24:51.000Z</time>
      </trkpt>
      <trkpt lat="45.8586" lon="4.66475">
        <ele>261.57648</ele>
        <time>2022-10-04T13:24:52.000Z</time>
      </trkpt>
      <trkpt lat="45.85858" lon="4.66485">
        <ele>260.97345</ele>
        <time>2022-10-04T13:24:53.000Z</time>
      </trkpt>
      <trkpt lat="45.85855" lon="4.66495">
        <ele>260.37314</ele>
        <time>2022-10-04T13:24:54.000Z</time>
      </trkpt>
      <trkpt lat="45.85853" lon="4.66503">
        <ele>259.81567</ele>
        <time>2022-10-04T13:24:55.000Z</time>
      </trkpt>
      <trkpt lat="45.85852" lon="4.6651">
        <ele>259.2608</ele>
        <time>2022-10-04T13:24:56.000Z</time>
      </trkpt>
      <trkpt lat="45.85851" lon="4.66516">
        <ele>258.76996</ele>
        <time>2022-10-04T13:24:57.000Z</time>
      </trkpt>
      <trkpt lat="45.85849" lon="4.66524">
        <ele>258.23868</ele>
        <time>2022-10-04T13:24:58.000Z</time>
      </trkpt>
      <trkpt lat="45.8585" lon="4.66529">
        <ele>257.83719</ele>
        <time>2022-10-04T13:24:59.000Z</time>
      </trkpt>
      <trkpt lat="45.85849" lon="4.66533">
        <ele>257.47162</ele>
        <time>2022-10-04T13:25:00.000Z</time>
      </trkpt>
      <trkpt lat="45.85847" lon="4.66538">
        <ele>257.07858</ele>
        <time>2022-10-04T13:25:01.000Z</time>
      </trkpt>
      <trkpt lat="45.85844" lon="4.66543">
        <ele>256.81351</ele>
        <time>2022-10-04T13:25:02.000Z</time>
      </trkpt>
      <trkpt lat="45.85843" lon="4.66548">
        <ele>256.69208</ele>
        <time>2022-10-04T13:25:03.000Z</time>
      </trkpt>
      <trkpt lat="45.85842" lon="4.66552">
        <ele>256.72101</ele>
        <time>2022-10-04T13:25:04.000Z</time>
      </trkpt>
      <trkpt lat="45.85841" lon="4.66556">
        <ele>256.78778</ele>
        <time>2022-10-04T13:25:05.000Z</time>
      </trkpt>
      <trkpt lat="45.85839" lon="4.66561">
        <ele>256.83295</ele>
        <time>2022-10-04T13:25:06.000Z</time>
      </trkpt>
      <trkpt lat="45.85836" lon="4.66566">
        <ele>256.82751</ele>
        <time>2022-10-04T13:25:07.000Z</time>
      </trkpt>
      <trkpt lat="45.85835" lon="4.66571">
        <ele>256.7258</ele>
        <time>2022-10-04T13:25:08.000Z</time>
      </trkpt>
      <trkpt lat="45.85833" lon="4.66576">
        <ele>256.64658</ele>
        <time>2022-10-04T13:25:09.000Z</time>
      </trkpt>
      <trkpt lat="45.85831" lon="4.66581">
        <ele>256.51422</ele>
        <time>2022-10-04T13:25:10.000Z</time>
      </trkpt>
      <trkpt lat="45.85829" lon="4.66585">
        <ele>256.45367</ele>
        <time>2022-10-04T13:25:11.000Z</time>
      </trkpt>
      <trkpt lat="45.85827" lon="4.66589">
        <ele>256.35574</ele>
        <time>2022-10-04T13:25:12.000Z</time>
      </trkpt>
      <trkpt lat="45.85825" lon="4.66594">
        <ele>256.23407</ele>
        <time>2022-10-04T13:25:13.000Z</time>
      </trkpt>
      <trkpt lat="45.85824" lon="4.666">
        <ele>256.06851</ele>
        <time>2022-10-04T13:25:14.000Z</time>
      </trkpt>
      <trkpt lat="45.85824" lon="4.66605">
        <ele>255.78922</ele>
        <time>2022-10-04T13:25:15.000Z</time>
      </trkpt>
      <trkpt lat="45.85826" lon="4.66609">
        <ele>255.40324</ele>
        <time>2022-10-04T13:25:16.000Z</time>
      </trkpt>
      <trkpt lat="45.85828" lon="4.66614">
        <ele>254.98599</ele>
        <time>2022-10-04T13:25:17.000Z</time>
      </trkpt>
      <trkpt lat="45.85832" lon="4.66619">
        <ele>254.5983</ele>
        <time>2022-10-04T13:25:18.000Z</time>
      </trkpt>
      <trkpt lat="45.85837" lon="4.66626">
        <ele>254.02637</ele>
        <time>2022-10-04T13:25:19.000Z</time>
      </trkpt>
      <trkpt lat="45.85839" lon="4.6663">
        <ele>253.41373</ele>
        <time>2022-10-04T13:25:20.000Z</time>
      </trkpt>
      <trkpt lat="45.85841" lon="4.66635">
        <ele>252.76123</ele>
        <time>2022-10-04T13:25:21.000Z</time>
      </trkpt>
      <trkpt lat="45.85845" lon="4.66639">
        <ele>252.05289</ele>
        <time>2022-10-04T13:25:22.000Z</time>
      </trkpt>
      <trkpt lat="45.8585" lon="4.66642">
        <ele>251.17639</ele>
        <time>2022-10-04T13:25:23.000Z</time>
      </trkpt>
      <trkpt lat="45.85853" lon="4.66646">
        <ele>250.27713</ele>
        <time>2022-10-04T13:25:24.000Z</time>
      </trkpt>
      <trkpt lat="45.85857" lon="4.66649">
        <ele>249.43169</ele>
        <time>2022-10-04T13:25:25.000Z</time>
      </trkpt>
      <trkpt lat="45.8586" lon="4.66652">
        <ele>248.51468</ele>
        <time>2022-10-04T13:25:26.000Z</time>
      </trkpt>
      <trkpt lat="45.85863" lon="4.66657">
        <ele>247.57816</ele>
        <time>2022-10-04T13:25:27.000Z</time>
      </trkpt>
      <trkpt lat="45.85867" lon="4.66659">
        <ele>246.71919</ele>
        <time>2022-10-04T13:25:28.000Z</time>
      </trkpt>
      <trkpt lat="45.85873" lon="4.66661">
        <ele>245.715</ele>
        <time>2022-10-04T13:25:29.000Z</time>
      </trkpt>
      <trkpt lat="45.85875" lon="4.66663">
        <ele>244.75371</ele>
        <time>2022-10-04T13:25:30.000Z</time>
      </trkpt>
      <trkpt lat="45.85878" lon="4.66667">
        <ele>243.71323</ele>
        <time>2022-10-04T13:25:31.000Z</time>
      </trkpt>
      <trkpt lat="45.85879" lon="4.66674">
        <ele>242.73532</ele>
        <time>2022-10-04T13:25:32.000Z</time>
      </trkpt>
      <trkpt lat="45.85878" lon="4.66681">
        <ele>241.72913</ele>
        <time>2022-10-04T13:25:33.000Z</time>
      </trkpt>
      <trkpt lat="45.85876" lon="4.66685">
        <ele>240.72287</ele>
        <time>2022-10-04T13:25:34.000Z</time>
      </trkpt>
      <trkpt lat="45.85872" lon="4.6669">
        <ele>239.74117</ele>
        <time>2022-10-04T13:25:35.000Z</time>
      </trkpt>
      <trkpt lat="45.85869" lon="4.66694">
        <ele>238.90039</ele>
        <time>2022-10-04T13:25:36.000Z</time>
      </trkpt>
      <trkpt lat="45.85863" lon="4.66697">
        <ele>238.11089</ele>
        <time>2022-10-04T13:25:37.000Z</time>
      </trkpt>
      <trkpt lat="45.85858" lon="4.66698">
        <ele>237.40251</ele>
        <time>2022-10-04T13:25:38.000Z</time>
      </trkpt>
      <trkpt lat="45.85852" lon="4.667">
        <ele>236.84196</ele>
        <time>2022-10-04T13:25:39.000Z</time>
      </trkpt>
      <trkpt lat="45.85845" lon="4.66703">
        <ele>236.19858</ele>
        <time>2022-10-04T13:25:40.000Z</time>
      </trkpt>
      <trkpt lat="45.8584" lon="4.66706">
        <ele>235.70923</ele>
        <time>2022-10-04T13:25:41.000Z</time>
      </trkpt>
      <trkpt lat="45.85833" lon="4.66705">
        <ele>235.10201</ele>
        <time>2022-10-04T13:25:42.000Z</time>
      </trkpt>
      <trkpt lat="45.85827" lon="4.66708">
        <ele>234.58713</ele>
        <time>2022-10-04T13:25:43.000Z</time>
      </trkpt>
      <trkpt lat="45.85822" lon="4.66709">
        <ele>234.07718</ele>
        <time>2022-10-04T13:25:44.000Z</time>
      </trkpt>
      <trkpt lat="45.85816" lon="4.66713">
        <ele>233.47368</ele>
        <time>2022-10-04T13:25:45.000Z</time>
      </trkpt>
      <trkpt lat="45.8581" lon="4.66718">
        <ele>232.86353</ele>
        <time>2022-10-04T13:25:46.000Z</time>
      </trkpt>
      <trkpt lat="45.85805" lon="4.66725">
        <ele>232.20084</ele>
        <time>2022-10-04T13:25:47.000Z</time>
      </trkpt>
      <trkpt lat="45.85801" lon="4.66733">
        <ele>231.48079</ele>
        <time>2022-10-04T13:25:48.000Z</time>
      </trkpt>
      <trkpt lat="45.85798" lon="4.66743">
        <ele>230.89713</ele>
        <time>2022-10-04T13:25:49.000Z</time>
      </trkpt>
      <trkpt lat="45.85796" lon="4.6675">
        <ele>230.44028</ele>
        <time>2022-10-04T13:25:50.000Z</time>
      </trkpt>
      <trkpt lat="45.85793" lon="4.6676">
        <ele>230.12007</ele>
        <time>2022-10-04T13:25:51.000Z</time>
      </trkpt>
      <trkpt lat="45.85793" lon="4.66766">
        <ele>229.7883</ele>
        <time>2022-10-04T13:25:52.000Z</time>
      </trkpt>
      <trkpt lat="45.8579" lon="4.66775">
        <ele>229.4772</ele>
        <time>2022-10-04T13:25:53.000Z</time>
      </trkpt>
      <trkpt lat="45.85787" lon="4.66781">
        <ele>229.2883</ele>
        <time>2022-10-04T13:25:54.000Z</time>
      </trkpt>
      <trkpt lat="45.85785" lon="4.6679">
        <ele>229.09042</ele>
        <time>2022-10-04T13:25:55.000Z</time>
      </trkpt>
      <trkpt lat="45.85784" lon="4.66796">
        <ele>228.89285</ele>
        <time>2022-10-04T13:25:56.000Z</time>
      </trkpt>
      <trkpt lat="45.85781" lon="4.66804">
        <ele>228.651</ele>
        <time>2022-10-04T13:25:57.000Z</time>
      </trkpt>
      <trkpt lat="45.85777" lon="4.66813">
        <ele>228.27205</ele>
        <time>2022-10-04T13:25:58.000Z</time>
      </trkpt>
      <trkpt lat="45.85771" lon="4.6682">
        <ele>227.84091</ele>
        <time>2022-10-04T13:25:59.000Z</time>
      </trkpt>
      <trkpt lat="45.85763" lon="4.66825">
        <ele>227.46941</ele>
        <time>2022-10-04T13:26:00.000Z</time>
      </trkpt>
      <trkpt lat="45.85754" lon="4.6683">
        <ele>226.93747</ele>
        <time>2022-10-04T13:26:01.000Z</time>
      </trkpt>
      <trkpt lat="45.85745" lon="4.66832">
        <ele>226.47037</ele>
        <time>2022-10-04T13:26:02.000Z</time>
      </trkpt>
      <trkpt lat="45.85737" lon="4.66833">
        <ele>225.96919</ele>
        <time>2022-10-04T13:26:03.000Z</time>
      </trkpt>
      <trkpt lat="45.85728" lon="4.66833">
        <ele>225.4248</ele>
        <time>2022-10-04T13:26:04.000Z</time>
      </trkpt>
      <trkpt lat="45.85719" lon="4.66832">
        <ele>224.85965</ele>
        <time>2022-10-04T13:26:05.000Z</time>
      </trkpt>
      <trkpt lat="45.85711" lon="4.66832">
        <ele>224.25925</ele>
        <time>2022-10-04T13:26:06.000Z</time>
      </trkpt>
      <trkpt lat="45.85702" lon="4.66832">
        <ele>223.67172</ele>
        <time>2022-10-04T13:26:07.000Z</time>
      </trkpt>
      <trkpt lat="45.85695" lon="4.66834">
        <ele>223.12192</ele>
        <time>2022-10-04T13:26:08.000Z</time>
      </trkpt>
      <trkpt lat="45.85691" lon="4.66836">
        <ele>222.61499</ele>
        <time>2022-10-04T13:26:09.000Z</time>
      </trkpt>
      <trkpt lat="45.85688" lon="4.66841">
        <ele>221.95747</ele>
        <time>2022-10-04T13:26:10.000Z</time>
      </trkpt>
      <trkpt lat="45.85685" lon="4.66846">
        <ele>221.22356</ele>
        <time>2022-10-04T13:26:11.000Z</time>
      </trkpt>
      <trkpt lat="45.85683" lon="4.6685">
        <ele>220.49702</ele>
        <time>2022-10-04T13:26:12.000Z</time>
      </trkpt>
      <trkpt lat="45.85681" lon="4.66852">
        <ele>219.71542</ele>
        <time>2022-10-04T13:26:13.000Z</time>
      </trkpt>
      <trkpt lat="45.8568" lon="4.66856">
        <ele>218.8907</ele>
        <time>2022-10-04T13:26:14.000Z</time>
      </trkpt>
      <trkpt lat="45.85679" lon="4.66859">
        <ele>218.13571</ele>
        <time>2022-10-04T13:26:15.000Z</time>
      </trkpt>
      <trkpt lat="45.85678" lon="4.66864">
        <ele>217.35857</ele>
        <time>2022-10-04T13:26:16.000Z</time>
      </trkpt>
      <trkpt lat="45.85679" lon="4.66869">
        <ele>216.61069</ele>
        <time>2022-10-04T13:26:17.000Z</time>
      </trkpt>
      <trkpt lat="45.8568" lon="4.66871">
        <ele>215.90027</ele>
        <time>2022-10-04T13:26:18.000Z</time>
      </trkpt>
      <trkpt lat="45.85682" lon="4.66874">
        <ele>215.12839</ele>
        <time>2022-10-04T13:26:19.000Z</time>
      </trkpt>
      <trkpt lat="45.85684" lon="4.66877">
        <ele>214.35147</ele>
        <time>2022-10-04T13:26:20.000Z</time>
      </trkpt>
      <trkpt lat="45.85687" lon="4.66881">
        <ele>213.61372</ele>
        <time>2022-10-04T13:26:21.000Z</time>
      </trkpt>
      <trkpt lat="45.85688" lon="4.66885">
        <ele>212.8591</ele>
        <time>2022-10-04T13:26:22.000Z</time>
      </trkpt>
      <trkpt lat="45.85689" lon="4.6689">
        <ele>212.11966</ele>
        <time>2022-10-04T13:26:23.000Z</time>
      </trkpt>
      <trkpt lat="45.8569" lon="4.66895">
        <ele>211.40154</ele>
        <time>2022-10-04T13:26:24.000Z</time>
      </trkpt>
      <trkpt lat="45.85689" lon="4.66899">
        <ele>210.77087</ele>
        <time>2022-10-04T13:26:25.000Z</time>
      </trkpt>
      <trkpt lat="45.85687" lon="4.66904">
        <ele>210.25017</ele>
        <time>2022-10-04T13:26:26.000Z</time>
      </trkpt>
      <trkpt lat="45.85684" lon="4.66907">
        <ele>209.88638</ele>
        <time>2022-10-04T13:26:27.000Z</time>
      </trkpt>
      <trkpt lat="45.8568" lon="4.66909">
        <ele>209.49699</ele>
        <time>2022-10-04T13:26:28.000Z</time>
      </trkpt>
      <trkpt lat="45.85675" lon="4.6691">
        <ele>209.1403</ele>
        <time>2022-10-04T13:26:29.000Z</time>
      </trkpt>
      <trkpt lat="45.8567" lon="4.6691">
        <ele>208.80612</ele>
        <time>2022-10-04T13:26:30.000Z</time>
      </trkpt>
      <trkpt lat="45.85663" lon="4.66907">
        <ele>208.49284</ele>
        <time>2022-10-04T13:26:31.000Z</time>
      </trkpt>
      <trkpt lat="45.85659" lon="4.6691">
        <ele>208.12247</ele>
        <time>2022-10-04T13:26:32.000Z</time>
      </trkpt>
      <trkpt lat="45.85652" lon="4.66913">
        <ele>207.78287</ele>
        <time>2022-10-04T13:26:33.000Z</time>
      </trkpt>
      <trkpt lat="45.85646" lon="4.66914">
        <ele>207.42712</ele>
        <time>2022-10-04T13:26:34.000Z</time>
      </trkpt>
      <trkpt lat="45.8564" lon="4.66914">
        <ele>207.04305</ele>
        <time>2022-10-04T13:26:35.000Z</time>
      </trkpt>
      <trkpt lat="45.85634" lon="4.66917">
        <ele>206.66089</ele>
        <time>2022-10-04T13:26:36.000Z</time>
      </trkpt>
      <trkpt lat="45.85628" lon="4.66919">
        <ele>206.40796</ele>
        <time>2022-10-04T13:26:37.000Z</time>
      </trkpt>
      <trkpt lat="45.85621" lon="4.66923">
        <ele>206.05899</ele>
        <time>2022-10-04T13:26:38.000Z</time>
      </trkpt>
      <trkpt lat="45.85614" lon="4.66926">
        <ele>205.76328</ele>
        <time>2022-10-04T13:26:39.000Z</time>
      </trkpt>
      <trkpt lat="45.85607" lon="4.66929">
        <ele>205.47966</ele>
        <time>2022-10-04T13:26:40.000Z</time>
      </trkpt>
      <trkpt lat="45.856" lon="4.66932">
        <ele>205.20496</ele>
        <time>2022-10-04T13:26:41.000Z</time>
      </trkpt>
      <trkpt lat="45.85591" lon="4.66933">
        <ele>204.95183</ele>
        <time>2022-10-04T13:26:42.000Z</time>
      </trkpt>
      <trkpt lat="45.85586" lon="4.66938">
        <ele>204.8022</ele>
        <time>2022-10-04T13:26:43.000Z</time>
      </trkpt>
      <trkpt lat="45.8558" lon="4.66939">
        <ele>204.62766</ele>
        <time>2022-10-04T13:26:44.000Z</time>
      </trkpt>
      <trkpt lat="45.85574" lon="4.66941">
        <ele>204.6481</ele>
        <time>2022-10-04T13:26:45.000Z</time>
      </trkpt>
      <trkpt lat="45.85568" lon="4.66943">
        <ele>204.67239</ele>
        <time>2022-10-04T13:26:46.000Z</time>
      </trkpt>
      <trkpt lat="45.85562" lon="4.66943">
        <ele>204.60713</ele>
        <time>2022-10-04T13:26:47.000Z</time>
      </trkpt>
      <trkpt lat="45.85556" lon="4.66946">
        <ele>204.52774</ele>
        <time>2022-10-04T13:26:48.000Z</time>
      </trkpt>
      <trkpt lat="45.8555" lon="4.66947">
        <ele>204.35995</ele>
        <time>2022-10-04T13:26:49.000Z</time>
      </trkpt>
      <trkpt lat="45.85545" lon="4.66947">
        <ele>204.31741</ele>
        <time>2022-10-04T13:26:50.000Z</time>
      </trkpt>
      <trkpt lat="45.85542" lon="4.66948">
        <ele>204.27147</ele>
        <time>2022-10-04T13:26:51.000Z</time>
      </trkpt>
      <trkpt lat="45.85537" lon="4.66948">
        <ele>204.26176</ele>
        <time>2022-10-04T13:26:52.000Z</time>
      </trkpt>
      <trkpt lat="45.85536" lon="4.6695">
        <ele>204.32425</ele>
        <time>2022-10-04T13:26:53.000Z</time>
      </trkpt>
      <trkpt lat="45.85534" lon="4.66955">
        <ele>204.38492</ele>
        <time>2022-10-04T13:26:54.000Z</time>
      </trkpt>
      <trkpt lat="45.85534" lon="4.6696">
        <ele>204.50644</ele>
        <time>2022-10-04T13:26:55.000Z</time>
      </trkpt>
      <trkpt lat="45.85537" lon="4.66966">
        <ele>204.57275</ele>
        <time>2022-10-04T13:26:57.000Z</time>
      </trkpt>
      <trkpt lat="45.85537" lon="4.66969">
        <ele>204.56554</ele>
        <time>2022-10-04T13:26:58.000Z</time>
      </trkpt>
      <trkpt lat="45.85538" lon="4.66972">
        <ele>204.61044</ele>
        <time>2022-10-04T13:26:59.000Z</time>
      </trkpt>
      <trkpt lat="45.8554" lon="4.66974">
        <ele>204.71689</ele>
        <time>2022-10-04T13:27:00.000Z</time>
      </trkpt>
      <trkpt lat="45.85542" lon="4.66977">
        <ele>204.81424</ele>
        <time>2022-10-04T13:27:01.000Z</time>
      </trkpt>
      <trkpt lat="45.85544" lon="4.6698">
        <ele>204.93132</ele>
        <time>2022-10-04T13:27:02.000Z</time>
      </trkpt>
      <trkpt lat="45.85545" lon="4.66983">
        <ele>205.0343</ele>
        <time>2022-10-04T13:27:03.000Z</time>
      </trkpt>
      <trkpt lat="45.85546" lon="4.66986">
        <ele>205.0527</ele>
        <time>2022-10-04T13:27:04.000Z</time>
      </trkpt>
      <trkpt lat="45.85547" lon="4.6699">
        <ele>205.18359</ele>
        <time>2022-10-04T13:27:05.000Z</time>
      </trkpt>
      <trkpt lat="45.85547" lon="4.66993">
        <ele>205.16826</ele>
        <time>2022-10-04T13:27:06.000Z</time>
      </trkpt>
      <trkpt lat="45.85549" lon="4.66997">
        <ele>205.20425</ele>
        <time>2022-10-04T13:27:07.000Z</time>
      </trkpt>
      <trkpt lat="45.8555" lon="4.67001">
        <ele>205.2749</ele>
        <time>2022-10-04T13:27:08.000Z</time>
      </trkpt>
      <trkpt lat="45.85551" lon="4.67005">
        <ele>205.42644</ele>
        <time>2022-10-04T13:27:09.000Z</time>
      </trkpt>
      <trkpt lat="45.85552" lon="4.67009">
        <ele>205.58342</ele>
        <time>2022-10-04T13:27:10.000Z</time>
      </trkpt>
      <trkpt lat="45.85553" lon="4.67014">
        <ele>205.58798</ele>
        <time>2022-10-04T13:27:11.000Z</time>
      </trkpt>
      <trkpt lat="45.85554" lon="4.6702">
        <ele>205.56584</ele>
        <time>2022-10-04T13:27:12.000Z</time>
      </trkpt>
      <trkpt lat="45.85556" lon="4.67025">
        <ele>205.56021</ele>
        <time>2022-10-04T13:27:13.000Z</time>
      </trkpt>
      <trkpt lat="45.85557" lon="4.6703">
        <ele>205.51315</ele>
        <time>2022-10-04T13:27:14.000Z</time>
      </trkpt>
      <trkpt lat="45.85559" lon="4.67035">
        <ele>205.4399</ele>
        <time>2022-10-04T13:27:15.000Z</time>
      </trkpt>
      <trkpt lat="45.8556" lon="4.67039">
        <ele>205.31812</ele>
        <time>2022-10-04T13:27:16.000Z</time>
      </trkpt>
      <trkpt lat="45.85561" lon="4.67044">
        <ele>205.24838</ele>
        <time>2022-10-04T13:27:17.000Z</time>
      </trkpt>
      <trkpt lat="45.85562" lon="4.67049">
        <ele>205.05527</ele>
        <time>2022-10-04T13:27:18.000Z</time>
      </trkpt>
      <trkpt lat="45.85563" lon="4.67053">
        <ele>204.89478</ele>
        <time>2022-10-04T13:27:19.000Z</time>
      </trkpt>
      <trkpt lat="45.85565" lon="4.67057">
        <ele>204.63074</ele>
        <time>2022-10-04T13:27:20.000Z</time>
      </trkpt>
      <trkpt lat="45.85566" lon="4.67061">
        <ele>204.38074</ele>
        <time>2022-10-04T13:27:21.000Z</time>
      </trkpt>
      <trkpt lat="45.85567" lon="4.67065">
        <ele>204.11459</ele>
        <time>2022-10-04T13:27:22.000Z</time>
      </trkpt>
      <trkpt lat="45.85569" lon="4.67069">
        <ele>203.89589</ele>
        <time>2022-10-04T13:27:23.000Z</time>
      </trkpt>
      <trkpt lat="45.8557" lon="4.67073">
        <ele>203.66107</ele>
        <time>2022-10-04T13:27:24.000Z</time>
      </trkpt>
      <trkpt lat="45.85572" lon="4.67077">
        <ele>203.44951</ele>
        <time>2022-10-04T13:27:25.000Z</time>
      </trkpt>
      <trkpt lat="45.85574" lon="4.67082">
        <ele>203.20743</ele>
        <time>2022-10-04T13:27:26.000Z</time>
      </trkpt>
      <trkpt lat="45.85576" lon="4.67086">
        <ele>202.90251</ele>
        <time>2022-10-04T13:27:27.000Z</time>
      </trkpt>
      <trkpt lat="45.85577" lon="4.67091">
        <ele>202.5533</ele>
        <time>2022-10-04T13:27:28.000Z</time>
      </trkpt>
      <trkpt lat="45.85579" lon="4.67097">
        <ele>202.16666</ele>
        <time>2022-10-04T13:27:29.000Z</time>
      </trkpt>
      <trkpt lat="45.85581" lon="4.67102">
        <ele>201.76318</ele>
        <time>2022-10-04T13:27:30.000Z</time>
      </trkpt>
      <trkpt lat="45.85583" lon="4.67107">
        <ele>201.37021</ele>
        <time>2022-10-04T13:27:31.000Z</time>
      </trkpt>
      <trkpt lat="45.85585" lon="4.67112">
        <ele>201.03397</ele>
        <time>2022-10-04T13:27:32.000Z</time>
      </trkpt>
      <trkpt lat="45.85587" lon="4.67117">
        <ele>200.70895</ele>
        <time>2022-10-04T13:27:33.000Z</time>
      </trkpt>
      <trkpt lat="45.85588" lon="4.67121">
        <ele>200.36198</ele>
        <time>2022-10-04T13:27:34.000Z</time>
      </trkpt>
      <trkpt lat="45.85589" lon="4.67126">
        <ele>199.99431</ele>
        <time>2022-10-04T13:27:35.000Z</time>
      </trkpt>
      <trkpt lat="45.8559" lon="4.6713">
        <ele>199.60373</ele>
        <time>2022-10-04T13:27:36.000Z</time>
      </trkpt>
      <trkpt lat="45.85592" lon="4.67134">
        <ele>199.34151</ele>
        <time>2022-10-04T13:27:37.000Z</time>
      </trkpt>
      <trkpt lat="45.85594" lon="4.67138">
        <ele>199.18735</ele>
        <time>2022-10-04T13:27:38.000Z</time>
      </trkpt>
      <trkpt lat="45.85596" lon="4.67141">
        <ele>199.07332</ele>
        <time>2022-10-04T13:27:39.000Z</time>
      </trkpt>
      <trkpt lat="45.85599" lon="4.67145">
        <ele>199.00049</ele>
        <time>2022-10-04T13:27:40.000Z</time>
      </trkpt>
      <trkpt lat="45.85601" lon="4.67149">
        <ele>198.93015</ele>
        <time>2022-10-04T13:27:41.000Z</time>
      </trkpt>
      <trkpt lat="45.85603" lon="4.67153">
        <ele>198.81621</ele>
        <time>2022-10-04T13:27:42.000Z</time>
      </trkpt>
      <trkpt lat="45.85605" lon="4.67157">
        <ele>198.67068</ele>
        <time>2022-10-04T13:27:43.000Z</time>
      </trkpt>
      <trkpt lat="45.85606" lon="4.67161">
        <ele>198.48154</ele>
        <time>2022-10-04T13:27:44.000Z</time>
      </trkpt>
      <trkpt lat="45.85607" lon="4.67165">
        <ele>198.17641</ele>
        <time>2022-10-04T13:27:45.000Z</time>
      </trkpt>
      <trkpt lat="45.85608" lon="4.67168">
        <ele>197.91125</ele>
        <time>2022-10-04T13:27:46.000Z</time>
      </trkpt>
      <trkpt lat="45.85609" lon="4.67171">
        <ele>197.67038</ele>
        <time>2022-10-04T13:27:47.000Z</time>
      </trkpt>
      <trkpt lat="45.85611" lon="4.67173">
        <ele>197.42393</ele>
        <time>2022-10-04T13:27:48.000Z</time>
      </trkpt>
      <trkpt lat="45.85612" lon="4.67177">
        <ele>197.12416</ele>
        <time>2022-10-04T13:27:49.000Z</time>
      </trkpt>
      <trkpt lat="45.85614" lon="4.67181">
        <ele>196.93274</ele>
        <time>2022-10-04T13:27:50.000Z</time>
      </trkpt>
      <trkpt lat="45.85615" lon="4.67185">
        <ele>196.75108</ele>
        <time>2022-10-04T13:27:51.000Z</time>
      </trkpt>
      <trkpt lat="45.85618" lon="4.67189">
        <ele>196.57333</ele>
        <time>2022-10-04T13:27:52.000Z</time>
      </trkpt>
      <trkpt lat="45.8562" lon="4.67193">
        <ele>196.41685</ele>
        <time>2022-10-04T13:27:53.000Z</time>
      </trkpt>
      <trkpt lat="45.85622" lon="4.67197">
        <ele>196.28232</ele>
        <time>2022-10-04T13:27:54.000Z</time>
      </trkpt>
      <trkpt lat="45.85624" lon="4.67201">
        <ele>196.2027</ele>
        <time>2022-10-04T13:27:55.000Z</time>
      </trkpt>
      <trkpt lat="45.85626" lon="4.67204">
        <ele>196.11331</ele>
        <time>2022-10-04T13:27:56.000Z</time>
      </trkpt>
      <trkpt lat="45.85628" lon="4.67207">
        <ele>195.89726</ele>
        <time>2022-10-04T13:27:57.000Z</time>
      </trkpt>
      <trkpt lat="45.85629" lon="4.6721">
        <ele>195.68089</ele>
        <time>2022-10-04T13:27:58.000Z</time>
      </trkpt>
      <trkpt lat="45.85631" lon="4.67213">
        <ele>195.49876</ele>
        <time>2022-10-04T13:27:59.000Z</time>
      </trkpt>
      <trkpt lat="45.85633" lon="4.67216">
        <ele>195.25262</ele>
        <time>2022-10-04T13:28:00.000Z</time>
      </trkpt>
      <trkpt lat="45.85635" lon="4.67219">
        <ele>194.99075</ele>
        <time>2022-10-04T13:28:01.000Z</time>
      </trkpt>
      <trkpt lat="45.85638" lon="4.67223">
        <ele>194.73985</ele>
        <time>2022-10-04T13:28:02.000Z</time>
      </trkpt>
      <trkpt lat="45.85641" lon="4.67227">
        <ele>194.52237</ele>
        <time>2022-10-04T13:28:03.000Z</time>
      </trkpt>
      <trkpt lat="45.85644" lon="4.67231">
        <ele>194.39247</ele>
        <time>2022-10-04T13:28:04.000Z</time>
      </trkpt>
      <trkpt lat="45.85647" lon="4.67235">
        <ele>194.36029</ele>
        <time>2022-10-04T13:28:05.000Z</time>
      </trkpt>
      <trkpt lat="45.85651" lon="4.67238">
        <ele>194.35289</ele>
        <time>2022-10-04T13:28:06.000Z</time>
      </trkpt>
      <trkpt lat="45.85655" lon="4.67241">
        <ele>194.2975</ele>
        <time>2022-10-04T13:28:07.000Z</time>
      </trkpt>
      <trkpt lat="45.85659" lon="4.67243">
        <ele>194.28012</ele>
        <time>2022-10-04T13:28:08.000Z</time>
      </trkpt>
      <trkpt lat="45.85663" lon="4.67247">
        <ele>194.23917</ele>
        <time>2022-10-04T13:28:09.000Z</time>
      </trkpt>
      <trkpt lat="45.85667" lon="4.6725">
        <ele>194.08136</ele>
        <time>2022-10-04T13:28:10.000Z</time>
      </trkpt>
      <trkpt lat="45.85671" lon="4.67254">
        <ele>193.83435</ele>
        <time>2022-10-04T13:28:11.000Z</time>
      </trkpt>
      <trkpt lat="45.85676" lon="4.67257">
        <ele>193.64368</ele>
        <time>2022-10-04T13:28:12.000Z</time>
      </trkpt>
      <trkpt lat="45.8568" lon="4.67261">
        <ele>193.40591</ele>
        <time>2022-10-04T13:28:13.000Z</time>
      </trkpt>
      <trkpt lat="45.85685" lon="4.67263">
        <ele>193.21809</ele>
        <time>2022-10-04T13:28:14.000Z</time>
      </trkpt>
      <trkpt lat="45.85694" lon="4.67267">
        <ele>192.98598</ele>
        <time>2022-10-04T13:28:15.000Z</time>
      </trkpt>
      <trkpt lat="45.85699" lon="4.67268">
        <ele>192.88091</ele>
        <time>2022-10-04T13:28:16.000Z</time>
      </trkpt>
      <trkpt lat="45.85705" lon="4.67271">
        <ele>192.78868</ele>
        <time>2022-10-04T13:28:17.000Z</time>
      </trkpt>
      <trkpt lat="45.8571" lon="4.67273">
        <ele>192.74605</ele>
        <time>2022-10-04T13:28:18.000Z</time>
      </trkpt>
      <trkpt lat="45.85715" lon="4.67276">
        <ele>192.73087</ele>
        <time>2022-10-04T13:28:19.000Z</time>
      </trkpt>
      <trkpt lat="45.85719" lon="4.67281">
        <ele>192.67737</ele>
        <time>2022-10-04T13:28:20.000Z</time>
      </trkpt>
      <trkpt lat="45.85724" lon="4.67282">
        <ele>192.6759</ele>
        <time>2022-10-04T13:28:21.000Z</time>
      </trkpt>
      <trkpt lat="45.85727" lon="4.67288">
        <ele>192.65163</ele>
        <time>2022-10-04T13:28:22.000Z</time>
      </trkpt>
      <trkpt lat="45.85731" lon="4.67291">
        <ele>192.61496</ele>
        <time>2022-10-04T13:28:23.000Z</time>
      </trkpt>
      <trkpt lat="45.85734" lon="4.67295">
        <ele>192.47617</ele>
        <time>2022-10-04T13:28:24.000Z</time>
      </trkpt>
      <trkpt lat="45.85738" lon="4.67298">
        <ele>192.27328</ele>
        <time>2022-10-04T13:28:25.000Z</time>
      </trkpt>
      <trkpt lat="45.85742" lon="4.67302">
        <ele>191.97684</ele>
        <time>2022-10-04T13:28:26.000Z</time>
      </trkpt>
      <trkpt lat="45.85746" lon="4.67306">
        <ele>191.70253</ele>
        <time>2022-10-04T13:28:27.000Z</time>
      </trkpt>
      <trkpt lat="45.8575" lon="4.67308">
        <ele>191.52348</ele>
        <time>2022-10-04T13:28:28.000Z</time>
      </trkpt>
      <trkpt lat="45.85752" lon="4.67309">
        <ele>191.5153</ele>
        <time>2022-10-04T13:28:29.000Z</time>
      </trkpt>
      <trkpt lat="45.85756" lon="4.67313">
        <ele>191.53004</ele>
        <time>2022-10-04T13:28:30.000Z</time>
      </trkpt>
      <trkpt lat="45.8576" lon="4.67315">
        <ele>191.68423</ele>
        <time>2022-10-04T13:28:31.000Z</time>
      </trkpt>
      <trkpt lat="45.85765" lon="4.67318">
        <ele>191.75821</ele>
        <time>2022-10-04T13:28:32.000Z</time>
      </trkpt>
      <trkpt lat="45.85766" lon="4.67323">
        <ele>191.90488</ele>
        <time>2022-10-04T13:28:33.000Z</time>
      </trkpt>
      <trkpt lat="45.85768" lon="4.67326">
        <ele>191.9736</ele>
        <time>2022-10-04T13:28:34.000Z</time>
      </trkpt>
      <trkpt lat="45.8577" lon="4.67328">
        <ele>192.1221</ele>
        <time>2022-10-04T13:28:35.000Z</time>
      </trkpt>
      <trkpt lat="45.85771" lon="4.67332">
        <ele>192.19234</ele>
        <time>2022-10-04T13:28:36.000Z</time>
      </trkpt>
      <trkpt lat="45.85773" lon="4.67335">
        <ele>192.26895</ele>
        <time>2022-10-04T13:28:37.000Z</time>
      </trkpt>
      <trkpt lat="45.85775" lon="4.67338">
        <ele>192.30661</ele>
        <time>2022-10-04T13:28:38.000Z</time>
      </trkpt>
      <trkpt lat="45.85775" lon="4.67341">
        <ele>192.32124</ele>
        <time>2022-10-04T13:28:39.000Z</time>
      </trkpt>
      <trkpt lat="45.85775" lon="4.67345">
        <ele>192.38829</ele>
        <time>2022-10-04T13:28:40.000Z</time>
      </trkpt>
      <trkpt lat="45.85775" lon="4.67349">
        <ele>192.42096</ele>
        <time>2022-10-04T13:28:41.000Z</time>
      </trkpt>
      <trkpt lat="45.85775" lon="4.67353">
        <ele>192.47202</ele>
        <time>2022-10-04T13:28:42.000Z</time>
      </trkpt>
      <trkpt lat="45.85775" lon="4.67357">
        <ele>192.57614</ele>
        <time>2022-10-04T13:28:43.000Z</time>
      </trkpt>
      <trkpt lat="45.85775" lon="4.6736">
        <ele>192.77014</ele>
        <time>2022-10-04T13:28:44.000Z</time>
      </trkpt>
      <trkpt lat="45.85776" lon="4.67364">
        <ele>192.94736</ele>
        <time>2022-10-04T13:28:45.000Z</time>
      </trkpt>
      <trkpt lat="45.85776" lon="4.67367">
        <ele>193.15602</ele>
        <time>2022-10-04T13:28:46.000Z</time>
      </trkpt>
      <trkpt lat="45.85774" lon="4.67371">
        <ele>193.30704</ele>
        <time>2022-10-04T13:28:48.000Z</time>
      </trkpt>
      <trkpt lat="45.85772" lon="4.67372">
        <ele>193.42976</ele>
        <time>2022-10-04T13:28:49.000Z</time>
      </trkpt>
      <trkpt lat="45.8577" lon="4.67373">
        <ele>193.45824</ele>
        <time>2022-10-04T13:28:50.000Z</time>
      </trkpt>
      <trkpt lat="45.85768" lon="4.67374">
        <ele>193.54123</ele>
        <time>2022-10-04T13:28:51.000Z</time>
      </trkpt>
      <trkpt lat="45.85766" lon="4.67376">
        <ele>193.68619</ele>
        <time>2022-10-04T13:28:52.000Z</time>
      </trkpt>
      <trkpt lat="45.85765" lon="4.67378">
        <ele>193.84177</ele>
        <time>2022-10-04T13:28:53.000Z</time>
      </trkpt>
      <trkpt lat="45.85763" lon="4.67382">
        <ele>194.00815</ele>
        <time>2022-10-04T13:28:55.000Z</time>
      </trkpt>
      <trkpt lat="45.85762" lon="4.67385">
        <ele>194.23106</ele>
        <time>2022-10-04T13:28:56.000Z</time>
      </trkpt>
      <trkpt lat="45.85761" lon="4.67388">
        <ele>194.4567</ele>
        <time>2022-10-04T13:28:57.000Z</time>
      </trkpt>
      <trkpt lat="45.85761" lon="4.67391">
        <ele>194.67532</ele>
        <time>2022-10-04T13:28:58.000Z</time>
      </trkpt>
      <trkpt lat="45.85759" lon="4.67394">
        <ele>194.83957</ele>
        <time>2022-10-04T13:28:59.000Z</time>
      </trkpt>
      <trkpt lat="45.85758" lon="4.67396">
        <ele>194.98779</ele>
        <time>2022-10-04T13:29:00.000Z</time>
      </trkpt>
      <trkpt lat="45.85757" lon="4.67398">
        <ele>195.13513</ele>
        <time>2022-10-04T13:29:01.000Z</time>
      </trkpt>
      <trkpt lat="45.85755" lon="4.674">
        <ele>195.336</ele>
        <time>2022-10-04T13:29:02.000Z</time>
      </trkpt>
      <trkpt lat="45.85754" lon="4.67403">
        <ele>195.58972</ele>
        <time>2022-10-04T13:29:03.000Z</time>
      </trkpt>
      <trkpt lat="45.85753" lon="4.67406">
        <ele>195.86008</ele>
        <time>2022-10-04T13:29:04.000Z</time>
      </trkpt>
      <trkpt lat="45.85751" lon="4.67409">
        <ele>196.15192</ele>
        <time>2022-10-04T13:29:05.000Z</time>
      </trkpt>
      <trkpt lat="45.8575" lon="4.67412">
        <ele>196.42355</ele>
        <time>2022-10-04T13:29:06.000Z</time>
      </trkpt>
      <trkpt lat="45.85749" lon="4.67415">
        <ele>196.62848</ele>
        <time>2022-10-04T13:29:07.000Z</time>
      </trkpt>
      <trkpt lat="45.85748" lon="4.67418">
        <ele>196.82578</ele>
        <time>2022-10-04T13:29:08.000Z</time>
      </trkpt>
      <trkpt lat="45.85747" lon="4.6742">
        <ele>197.12888</ele>
        <time>2022-10-04T13:29:09.000Z</time>
      </trkpt>
      <trkpt lat="45.85746" lon="4.67423">
        <ele>197.41238</ele>
        <time>2022-10-04T13:29:10.000Z</time>
      </trkpt>
      <trkpt lat="45.85746" lon="4.67426">
        <ele>197.64215</ele>
        <time>2022-10-04T13:29:11.000Z</time>
      </trkpt>
      <trkpt lat="45.85744" lon="4.67429">
        <ele>197.84396</ele>
        <time>2022-10-04T13:29:12.000Z</time>
      </trkpt>
      <trkpt lat="45.85743" lon="4.67432">
        <ele>197.99832</ele>
        <time>2022-10-04T13:29:13.000Z</time>
      </trkpt>
      <trkpt lat="45.85742" lon="4.67435">
        <ele>198.18375</ele>
        <time>2022-10-04T13:29:14.000Z</time>
      </trkpt>
      <trkpt lat="45.8574" lon="4.67438">
        <ele>198.33212</ele>
        <time>2022-10-04T13:29:15.000Z</time>
      </trkpt>
      <trkpt lat="45.85739" lon="4.67441">
        <ele>198.46115</ele>
        <time>2022-10-04T13:29:16.000Z</time>
      </trkpt>
      <trkpt lat="45.85737" lon="4.67444">
        <ele>198.45166</ele>
        <time>2022-10-04T13:29:17.000Z</time>
      </trkpt>
      <trkpt lat="45.85735" lon="4.67447">
        <ele>198.42715</ele>
        <time>2022-10-04T13:29:18.000Z</time>
      </trkpt>
      <trkpt lat="45.85733" lon="4.67449">
        <ele>198.47208</ele>
        <time>2022-10-04T13:29:19.000Z</time>
      </trkpt>
      <trkpt lat="45.85731" lon="4.67452">
        <ele>198.49066</ele>
        <time>2022-10-04T13:29:20.000Z</time>
      </trkpt>
      <trkpt lat="45.8573" lon="4.67455">
        <ele>198.48163</ele>
        <time>2022-10-04T13:29:21.000Z</time>
      </trkpt>
      <trkpt lat="45.85727" lon="4.67458">
        <ele>198.47812</ele>
        <time>2022-10-04T13:29:22.000Z</time>
      </trkpt>
      <trkpt lat="45.85725" lon="4.6746">
        <ele>198.41924</ele>
        <time>2022-10-04T13:29:23.000Z</time>
      </trkpt>
      <trkpt lat="45.85724" lon="4.67464">
        <ele>198.34335</ele>
        <time>2022-10-04T13:29:24.000Z</time>
      </trkpt>
      <trkpt lat="45.85722" lon="4.67467">
        <ele>198.18286</ele>
        <time>2022-10-04T13:29:25.000Z</time>
      </trkpt>
      <trkpt lat="45.85719" lon="4.6747">
        <ele>198.0466</ele>
        <time>2022-10-04T13:29:26.000Z</time>
      </trkpt>
      <trkpt lat="45.85717" lon="4.67474">
        <ele>197.99075</ele>
        <time>2022-10-04T13:29:27.000Z</time>
      </trkpt>
      <trkpt lat="45.85715" lon="4.67477">
        <ele>197.96996</ele>
        <time>2022-10-04T13:29:28.000Z</time>
      </trkpt>
      <trkpt lat="45.85712" lon="4.67481">
        <ele>197.96852</ele>
        <time>2022-10-04T13:29:29.000Z</time>
      </trkpt>
      <trkpt lat="45.8571" lon="4.67485">
        <ele>197.93985</ele>
        <time>2022-10-04T13:29:30.000Z</time>
      </trkpt>
      <trkpt lat="45.85707" lon="4.67488">
        <ele>198.02174</ele>
        <time>2022-10-04T13:29:31.000Z</time>
      </trkpt>
      <trkpt lat="45.85705" lon="4.67492">
        <ele>198.07507</ele>
        <time>2022-10-04T13:29:32.000Z</time>
      </trkpt>
      <trkpt lat="45.85703" lon="4.67495">
        <ele>198.0947</ele>
        <time>2022-10-04T13:29:33.000Z</time>
      </trkpt>
      <trkpt lat="45.857" lon="4.67499">
        <ele>198.0556</ele>
        <time>2022-10-04T13:29:34.000Z</time>
      </trkpt>
      <trkpt lat="45.85698" lon="4.67503">
        <ele>198.007</ele>
        <time>2022-10-04T13:29:35.000Z</time>
      </trkpt>
      <trkpt lat="45.85696" lon="4.67507">
        <ele>197.94151</ele>
        <time>2022-10-04T13:29:36.000Z</time>
      </trkpt>
      <trkpt lat="45.85693" lon="4.6751">
        <ele>197.88377</ele>
        <time>2022-10-04T13:29:37.000Z</time>
      </trkpt>
      <trkpt lat="45.8569" lon="4.67514">
        <ele>197.85037</ele>
        <time>2022-10-04T13:29:38.000Z</time>
      </trkpt>
      <trkpt lat="45.85688" lon="4.67517">
        <ele>197.83972</ele>
        <time>2022-10-04T13:29:39.000Z</time>
      </trkpt>
      <trkpt lat="45.85685" lon="4.6752">
        <ele>197.82796</ele>
        <time>2022-10-04T13:29:40.000Z</time>
      </trkpt>
      <trkpt lat="45.85682" lon="4.67523">
        <ele>197.79012</ele>
        <time>2022-10-04T13:29:41.000Z</time>
      </trkpt>
      <trkpt lat="45.8568" lon="4.67527">
        <ele>197.66306</ele>
        <time>2022-10-04T13:29:42.000Z</time>
      </trkpt>
      <trkpt lat="45.85677" lon="4.6753">
        <ele>197.57614</ele>
        <time>2022-10-04T13:29:43.000Z</time>
      </trkpt>
      <trkpt lat="45.85674" lon="4.67533">
        <ele>197.50092</ele>
        <time>2022-10-04T13:29:44.000Z</time>
      </trkpt>
      <trkpt lat="45.8567" lon="4.67537">
        <ele>197.43037</ele>
        <time>2022-10-04T13:29:45.000Z</time>
      </trkpt>
      <trkpt lat="45.85667" lon="4.67541">
        <ele>197.30069</ele>
        <time>2022-10-04T13:29:46.000Z</time>
      </trkpt>
      <trkpt lat="45.85664" lon="4.67544">
        <ele>197.17717</ele>
        <time>2022-10-04T13:29:47.000Z</time>
      </trkpt>
      <trkpt lat="45.8566" lon="4.67548">
        <ele>196.92957</ele>
        <time>2022-10-04T13:29:48.000Z</time>
      </trkpt>
      <trkpt lat="45.85657" lon="4.67551">
        <ele>196.62399</ele>
        <time>2022-10-04T13:29:49.000Z</time>
      </trkpt>
      <trkpt lat="45.85653" lon="4.67555">
        <ele>196.32152</ele>
        <time>2022-10-04T13:29:50.000Z</time>
      </trkpt>
      <trkpt lat="45.8565" lon="4.67559">
        <ele>196.05247</ele>
        <time>2022-10-04T13:29:51.000Z</time>
      </trkpt>
      <trkpt lat="45.85647" lon="4.67562">
        <ele>195.8118</ele>
        <time>2022-10-04T13:29:52.000Z</time>
      </trkpt>
      <trkpt lat="45.85643" lon="4.67566">
        <ele>195.57065</ele>
        <time>2022-10-04T13:29:53.000Z</time>
      </trkpt>
      <trkpt lat="45.8564" lon="4.67569">
        <ele>195.41275</ele>
        <time>2022-10-04T13:29:54.000Z</time>
      </trkpt>
      <trkpt lat="45.85636" lon="4.67573">
        <ele>195.24503</ele>
        <time>2022-10-04T13:29:55.000Z</time>
      </trkpt>
      <trkpt lat="45.85632" lon="4.67576">
        <ele>195.04878</ele>
        <time>2022-10-04T13:29:56.000Z</time>
      </trkpt>
      <trkpt lat="45.85628" lon="4.67581">
        <ele>194.96756</ele>
        <time>2022-10-04T13:29:57.000Z</time>
      </trkpt>
      <trkpt lat="45.85625" lon="4.67584">
        <ele>194.90408</ele>
        <time>2022-10-04T13:29:58.000Z</time>
      </trkpt>
      <trkpt lat="45.85621" lon="4.67588">
        <ele>194.79068</ele>
        <time>2022-10-04T13:29:59.000Z</time>
      </trkpt>
      <trkpt lat="45.85617" lon="4.67592">
        <ele>194.64952</ele>
        <time>2022-10-04T13:30:00.000Z</time>
      </trkpt>
      <trkpt lat="45.85613" lon="4.67596">
        <ele>194.50476</ele>
        <time>2022-10-04T13:30:01.000Z</time>
      </trkpt>
      <trkpt lat="45.85608" lon="4.67598">
        <ele>194.49519</ele>
        <time>2022-10-04T13:30:02.000Z</time>
      </trkpt>
      <trkpt lat="45.85605" lon="4.67604">
        <ele>194.46333</ele>
        <time>2022-10-04T13:30:03.000Z</time>
      </trkpt>
      <trkpt lat="45.85601" lon="4.67606">
        <ele>194.47809</ele>
        <time>2022-10-04T13:30:04.000Z</time>
      </trkpt>
      <trkpt lat="45.85597" lon="4.67611">
        <ele>194.46593</ele>
        <time>2022-10-04T13:30:05.000Z</time>
      </trkpt>
      <trkpt lat="45.85593" lon="4.67614">
        <ele>194.47552</ele>
        <time>2022-10-04T13:30:06.000Z</time>
      </trkpt>
      <trkpt lat="45.8559" lon="4.67618">
        <ele>194.52736</ele>
        <time>2022-10-04T13:30:07.000Z</time>
      </trkpt>
      <trkpt lat="45.85586" lon="4.67622">
        <ele>194.70755</ele>
        <time>2022-10-04T13:30:08.000Z</time>
      </trkpt>
      <trkpt lat="45.85582" lon="4.67627">
        <ele>194.892</ele>
        <time>2022-10-04T13:30:09.000Z</time>
      </trkpt>
      <trkpt lat="45.8558" lon="4.6763">
        <ele>195.1698</ele>
        <time>2022-10-04T13:30:10.000Z</time>
      </trkpt>
      <trkpt lat="45.85576" lon="4.67634">
        <ele>195.48862</ele>
        <time>2022-10-04T13:30:11.000Z</time>
      </trkpt>
      <trkpt lat="45.85573" lon="4.67639">
        <ele>195.76614</ele>
        <time>2022-10-04T13:30:12.000Z</time>
      </trkpt>
      <trkpt lat="45.8557" lon="4.67644">
        <ele>196.02357</ele>
        <time>2022-10-04T13:30:13.000Z</time>
      </trkpt>
      <trkpt lat="45.85566" lon="4.67647">
        <ele>196.22296</ele>
        <time>2022-10-04T13:30:14.000Z</time>
      </trkpt>
      <trkpt lat="45.85564" lon="4.67651">
        <ele>196.54149</ele>
        <time>2022-10-04T13:30:15.000Z</time>
      </trkpt>
      <trkpt lat="45.8556" lon="4.67655">
        <ele>196.8757</ele>
        <time>2022-10-04T13:30:16.000Z</time>
      </trkpt>
      <trkpt lat="45.85556" lon="4.67659">
        <ele>197.1131</ele>
        <time>2022-10-04T13:30:17.000Z</time>
      </trkpt>
      <trkpt lat="45.85552" lon="4.67662">
        <ele>197.37288</ele>
        <time>2022-10-04T13:30:18.000Z</time>
      </trkpt>
      <trkpt lat="45.85547" lon="4.67665">
        <ele>197.61455</ele>
        <time>2022-10-04T13:30:19.000Z</time>
      </trkpt>
      <trkpt lat="45.85544" lon="4.67671">
        <ele>197.8492</ele>
        <time>2022-10-04T13:30:20.000Z</time>
      </trkpt>
      <trkpt lat="45.85539" lon="4.67676">
        <ele>198.06482</ele>
        <time>2022-10-04T13:30:21.000Z</time>
      </trkpt>
      <trkpt lat="45.85535" lon="4.67681">
        <ele>198.23528</ele>
        <time>2022-10-04T13:30:22.000Z</time>
      </trkpt>
      <trkpt lat="45.85531" lon="4.67687">
        <ele>198.39565</ele>
        <time>2022-10-04T13:30:23.000Z</time>
      </trkpt>
      <trkpt lat="45.85528" lon="4.67692">
        <ele>198.5883</ele>
        <time>2022-10-04T13:30:24.000Z</time>
      </trkpt>
      <trkpt lat="45.85524" lon="4.67697">
        <ele>198.83595</ele>
        <time>2022-10-04T13:30:25.000Z</time>
      </trkpt>
      <trkpt lat="45.85522" lon="4.67702">
        <ele>199.13928</ele>
        <time>2022-10-04T13:30:26.000Z</time>
      </trkpt>
      <trkpt lat="45.85519" lon="4.67709">
        <ele>199.36954</ele>
        <time>2022-10-04T13:30:27.000Z</time>
      </trkpt>
      <trkpt lat="45.85516" lon="4.67714">
        <ele>199.54192</ele>
        <time>2022-10-04T13:30:28.000Z</time>
      </trkpt>
      <trkpt lat="45.85513" lon="4.6772">
        <ele>199.72421</ele>
        <time>2022-10-04T13:30:29.000Z</time>
      </trkpt>
      <trkpt lat="45.8551" lon="4.67724">
        <ele>199.79741</ele>
        <time>2022-10-04T13:30:30.000Z</time>
      </trkpt>
      <trkpt lat="45.85507" lon="4.6773">
        <ele>199.77533</ele>
        <time>2022-10-04T13:30:31.000Z</time>
      </trkpt>
      <trkpt lat="45.85505" lon="4.67735">
        <ele>199.82693</ele>
        <time>2022-10-04T13:30:32.000Z</time>
      </trkpt>
      <trkpt lat="45.85503" lon="4.67742">
        <ele>199.95883</ele>
        <time>2022-10-04T13:30:33.000Z</time>
      </trkpt>
      <trkpt lat="45.85501" lon="4.67747">
        <ele>200.08981</ele>
        <time>2022-10-04T13:30:34.000Z</time>
      </trkpt>
      <trkpt lat="45.85499" lon="4.67752">
        <ele>200.13058</ele>
        <time>2022-10-04T13:30:35.000Z</time>
      </trkpt>
      <trkpt lat="45.85495" lon="4.67757">
        <ele>200.19345</ele>
        <time>2022-10-04T13:30:36.000Z</time>
      </trkpt>
      <trkpt lat="45.85493" lon="4.67762">
        <ele>200.27942</ele>
        <time>2022-10-04T13:30:37.000Z</time>
      </trkpt>
      <trkpt lat="45.85491" lon="4.67769">
        <ele>200.25848</ele>
        <time>2022-10-04T13:30:38.000Z</time>
      </trkpt>
      <trkpt lat="45.8549" lon="4.67774">
        <ele>200.3394</ele>
        <time>2022-10-04T13:30:39.000Z</time>
      </trkpt>
      <trkpt lat="45.85489" lon="4.67778">
        <ele>200.48361</ele>
        <time>2022-10-04T13:30:40.000Z</time>
      </trkpt>
      <trkpt lat="45.85488" lon="4.67784">
        <ele>200.65245</ele>
        <time>2022-10-04T13:30:41.000Z</time>
      </trkpt>
      <trkpt lat="45.85488" lon="4.67789">
        <ele>200.83072</ele>
        <time>2022-10-04T13:30:42.000Z</time>
      </trkpt>
      <trkpt lat="45.85488" lon="4.67795">
        <ele>200.98337</ele>
        <time>2022-10-04T13:30:43.000Z</time>
      </trkpt>
      <trkpt lat="45.85488" lon="4.67802">
        <ele>201.08055</ele>
        <time>2022-10-04T13:30:44.000Z</time>
      </trkpt>
      <trkpt lat="45.85489" lon="4.67807">
        <ele>201.14365</ele>
        <time>2022-10-04T13:30:45.000Z</time>
      </trkpt>
      <trkpt lat="45.8549" lon="4.67812">
        <ele>201.10088</ele>
        <time>2022-10-04T13:30:46.000Z</time>
      </trkpt>
      <trkpt lat="45.85492" lon="4.67817">
        <ele>201.08363</ele>
        <time>2022-10-04T13:30:47.000Z</time>
      </trkpt>
      <trkpt lat="45.85493" lon="4.67823">
        <ele>201.08745</ele>
        <time>2022-10-04T13:30:48.000Z</time>
      </trkpt>
      <trkpt lat="45.85495" lon="4.67829">
        <ele>201.1544</ele>
        <time>2022-10-04T13:30:49.000Z</time>
      </trkpt>
      <trkpt lat="45.85497" lon="4.67834">
        <ele>201.22487</ele>
        <time>2022-10-04T13:30:50.000Z</time>
      </trkpt>
      <trkpt lat="45.85498" lon="4.6784">
        <ele>201.26468</ele>
        <time>2022-10-04T13:30:51.000Z</time>
      </trkpt>
      <trkpt lat="45.855" lon="4.67846">
        <ele>201.23149</ele>
        <time>2022-10-04T13:30:52.000Z</time>
      </trkpt>
      <trkpt lat="45.85501" lon="4.67852">
        <ele>201.16516</ele>
        <time>2022-10-04T13:30:53.000Z</time>
      </trkpt>
      <trkpt lat="45.85502" lon="4.67858">
        <ele>201.08876</ele>
        <time>2022-10-04T13:30:54.000Z</time>
      </trkpt>
      <trkpt lat="45.85503" lon="4.67864">
        <ele>201.02789</ele>
        <time>2022-10-04T13:30:55.000Z</time>
      </trkpt>
      <trkpt lat="45.85504" lon="4.67869">
        <ele>200.92435</ele>
        <time>2022-10-04T13:30:56.000Z</time>
      </trkpt>
      <trkpt lat="45.85506" lon="4.67875">
        <ele>200.89862</ele>
        <time>2022-10-04T13:30:57.000Z</time>
      </trkpt>
      <trkpt lat="45.85507" lon="4.67881">
        <ele>200.97557</ele>
        <time>2022-10-04T13:30:58.000Z</time>
      </trkpt>
      <trkpt lat="45.85508" lon="4.67887">
        <ele>200.91696</ele>
        <time>2022-10-04T13:30:59.000Z</time>
      </trkpt>
      <trkpt lat="45.85509" lon="4.67892">
        <ele>200.79782</ele>
        <time>2022-10-04T13:31:00.000Z</time>
      </trkpt>
      <trkpt lat="45.8551" lon="4.67897">
        <ele>200.66763</ele>
        <time>2022-10-04T13:31:01.000Z</time>
      </trkpt>
      <trkpt lat="45.85511" lon="4.67902">
        <ele>200.53142</ele>
        <time>2022-10-04T13:31:02.000Z</time>
      </trkpt>
      <trkpt lat="45.85512" lon="4.67906">
        <ele>200.41277</ele>
        <time>2022-10-04T13:31:03.000Z</time>
      </trkpt>
      <trkpt lat="45.85513" lon="4.6791">
        <ele>200.30585</ele>
        <time>2022-10-04T13:31:04.000Z</time>
      </trkpt>
      <trkpt lat="45.85514" lon="4.67913">
        <ele>200.25558</ele>
        <time>2022-10-04T13:31:05.000Z</time>
      </trkpt>
      <trkpt lat="45.85515" lon="4.67916">
        <ele>200.19872</ele>
        <time>2022-10-04T13:31:06.000Z</time>
      </trkpt>
      <trkpt lat="45.85516" lon="4.67919">
        <ele>200.13742</ele>
        <time>2022-10-04T13:31:07.000Z</time>
      </trkpt>
      <trkpt lat="45.85518" lon="4.67922">
        <ele>200.11234</ele>
        <time>2022-10-04T13:31:08.000Z</time>
      </trkpt>
      <trkpt lat="45.8552" lon="4.67925">
        <ele>200.04219</ele>
        <time>2022-10-04T13:31:09.000Z</time>
      </trkpt>
      <trkpt lat="45.85522" lon="4.67929">
        <ele>200.02835</ele>
        <time>2022-10-04T13:31:10.000Z</time>
      </trkpt>
      <trkpt lat="45.85524" lon="4.67933">
        <ele>200.00473</ele>
        <time>2022-10-04T13:31:11.000Z</time>
      </trkpt>
      <trkpt lat="45.85525" lon="4.67937">
        <ele>199.99788</ele>
        <time>2022-10-04T13:31:12.000Z</time>
      </trkpt>
      <trkpt lat="45.85528" lon="4.67941">
        <ele>199.98595</ele>
        <time>2022-10-04T13:31:13.000Z</time>
      </trkpt>
      <trkpt lat="45.8553" lon="4.67946">
        <ele>199.97327</ele>
        <time>2022-10-04T13:31:14.000Z</time>
      </trkpt>
      <trkpt lat="45.85532" lon="4.6795">
        <ele>199.99649</ele>
        <time>2022-10-04T13:31:15.000Z</time>
      </trkpt>
      <trkpt lat="45.85534" lon="4.67955">
        <ele>200.03928</ele>
        <time>2022-10-04T13:31:16.000Z</time>
      </trkpt>
      <trkpt lat="45.85535" lon="4.6796">
        <ele>199.99985</ele>
        <time>2022-10-04T13:31:17.000Z</time>
      </trkpt>
      <trkpt lat="45.85533" lon="4.67964">
        <ele>199.89828</ele>
        <time>2022-10-04T13:31:18.000Z</time>
      </trkpt>
      <trkpt lat="45.85529" lon="4.67967">
        <ele>199.86075</ele>
        <time>2022-10-04T13:31:19.000Z</time>
      </trkpt>
      <trkpt lat="45.85524" lon="4.67969">
        <ele>199.84024</ele>
        <time>2022-10-04T13:31:20.000Z</time>
      </trkpt>
      <trkpt lat="45.8552" lon="4.67971">
        <ele>199.79813</ele>
        <time>2022-10-04T13:31:21.000Z</time>
      </trkpt>
      <trkpt lat="45.85515" lon="4.67973">
        <ele>199.76004</ele>
        <time>2022-10-04T13:31:22.000Z</time>
      </trkpt>
      <trkpt lat="45.8551" lon="4.67975">
        <ele>199.65208</ele>
        <time>2022-10-04T13:31:23.000Z</time>
      </trkpt>
      <trkpt lat="45.85506" lon="4.67977">
        <ele>199.5621</ele>
        <time>2022-10-04T13:31:24.000Z</time>
      </trkpt>
      <trkpt lat="45.85502" lon="4.6798">
        <ele>199.39247</ele>
        <time>2022-10-04T13:31:25.000Z</time>
      </trkpt>
      <trkpt lat="45.85498" lon="4.67984">
        <ele>199.28815</ele>
        <time>2022-10-04T13:31:26.000Z</time>
      </trkpt>
      <trkpt lat="45.85495" lon="4.67987">
        <ele>199.2003</ele>
        <time>2022-10-04T13:31:27.000Z</time>
      </trkpt>
      <trkpt lat="45.85491" lon="4.67991">
        <ele>199.15756</ele>
        <time>2022-10-04T13:31:28.000Z</time>
      </trkpt>
      <trkpt lat="45.85487" lon="4.67995">
        <ele>199.13184</ele>
        <time>2022-10-04T13:31:29.000Z</time>
      </trkpt>
      <trkpt lat="45.85484" lon="4.67998">
        <ele>199.07101</ele>
        <time>2022-10-04T13:31:30.000Z</time>
      </trkpt>
      <trkpt lat="45.8548" lon="4.68">
        <ele>199.03551</ele>
        <time>2022-10-04T13:31:31.000Z</time>
      </trkpt>
      <trkpt lat="45.85477" lon="4.68002">
        <ele>199.04593</ele>
        <time>2022-10-04T13:31:32.000Z</time>
      </trkpt>
      <trkpt lat="45.85473" lon="4.68005">
        <ele>198.98087</ele>
        <time>2022-10-04T13:31:33.000Z</time>
      </trkpt>
      <trkpt lat="45.85469" lon="4.68007">
        <ele>198.99345</ele>
        <time>2022-10-04T13:31:34.000Z</time>
      </trkpt>
      <trkpt lat="45.85465" lon="4.6801">
        <ele>198.92358</ele>
        <time>2022-10-04T13:31:35.000Z</time>
      </trkpt>
      <trkpt lat="45.85462" lon="4.68013">
        <ele>198.7966</ele>
        <time>2022-10-04T13:31:36.000Z</time>
      </trkpt>
      <trkpt lat="45.85459" lon="4.68016">
        <ele>198.75012</ele>
        <time>2022-10-04T13:31:37.000Z</time>
      </trkpt>
      <trkpt lat="45.85456" lon="4.6802">
        <ele>198.84525</ele>
        <time>2022-10-04T13:31:38.000Z</time>
      </trkpt>
      <trkpt lat="45.85454" lon="4.68025">
        <ele>199.22052</ele>
        <time>2022-10-04T13:31:39.000Z</time>
      </trkpt>
      <trkpt lat="45.85453" lon="4.68029">
        <ele>199.5287</ele>
        <time>2022-10-04T13:31:40.000Z</time>
      </trkpt>
      <trkpt lat="45.85451" lon="4.68032">
        <ele>199.92345</ele>
        <time>2022-10-04T13:31:41.000Z</time>
      </trkpt>
      <trkpt lat="45.85449" lon="4.68036">
        <ele>200.33127</ele>
        <time>2022-10-04T13:31:42.000Z</time>
      </trkpt>
      <trkpt lat="45.85447" lon="4.6804">
        <ele>200.7975</ele>
        <time>2022-10-04T13:31:43.000Z</time>
      </trkpt>
      <trkpt lat="45.85445" lon="4.68043">
        <ele>201.24295</ele>
        <time>2022-10-04T13:31:44.000Z</time>
      </trkpt>
      <trkpt lat="45.85443" lon="4.68046">
        <ele>201.69627</ele>
        <time>2022-10-04T13:31:45.000Z</time>
      </trkpt>
      <trkpt lat="45.85441" lon="4.68049">
        <ele>202.22441</ele>
        <time>2022-10-04T13:31:46.000Z</time>
      </trkpt>
      <trkpt lat="45.85439" lon="4.68051">
        <ele>202.71451</ele>
        <time>2022-10-04T13:31:47.000Z</time>
      </trkpt>
      <trkpt lat="45.85436" lon="4.68055">
        <ele>203.0591</ele>
        <time>2022-10-04T13:31:48.000Z</time>
      </trkpt>
      <trkpt lat="45.85434" lon="4.68057">
        <ele>203.43422</ele>
        <time>2022-10-04T13:31:49.000Z</time>
      </trkpt>
      <trkpt lat="45.85432" lon="4.6806">
        <ele>203.82458</ele>
        <time>2022-10-04T13:31:50.000Z</time>
      </trkpt>
      <trkpt lat="45.8543" lon="4.68062">
        <ele>204.19937</ele>
        <time>2022-10-04T13:31:51.000Z</time>
      </trkpt>
      <trkpt lat="45.85427" lon="4.68064">
        <ele>204.45526</ele>
        <time>2022-10-04T13:31:52.000Z</time>
      </trkpt>
      <trkpt lat="45.85424" lon="4.68066">
        <ele>204.75125</ele>
        <time>2022-10-04T13:31:53.000Z</time>
      </trkpt>
      <trkpt lat="45.85422" lon="4.68068">
        <ele>205.08574</ele>
        <time>2022-10-04T13:31:54.000Z</time>
      </trkpt>
      <trkpt lat="45.8542" lon="4.68071">
        <ele>205.44524</ele>
        <time>2022-10-04T13:31:55.000Z</time>
      </trkpt>
      <trkpt lat="45.85417" lon="4.68074">
        <ele>205.88106</ele>
        <time>2022-10-04T13:31:56.000Z</time>
      </trkpt>
      <trkpt lat="45.85414" lon="4.68077">
        <ele>206.3479</ele>
        <time>2022-10-04T13:31:57.000Z</time>
      </trkpt>
      <trkpt lat="45.8541" lon="4.6808">
        <ele>206.68709</ele>
        <time>2022-10-04T13:31:58.000Z</time>
      </trkpt>
      <trkpt lat="45.85407" lon="4.68083">
        <ele>206.7366</ele>
        <time>2022-10-04T13:31:59.000Z</time>
      </trkpt>
      <trkpt lat="45.85404" lon="4.68085">
        <ele>206.86307</ele>
        <time>2022-10-04T13:32:00.000Z</time>
      </trkpt>
      <trkpt lat="45.85401" lon="4.68088">
        <ele>206.9906</ele>
        <time>2022-10-04T13:32:01.000Z</time>
      </trkpt>
      <trkpt lat="45.85398" lon="4.6809">
        <ele>207.02722</ele>
        <time>2022-10-04T13:32:02.000Z</time>
      </trkpt>
      <trkpt lat="45.85396" lon="4.68092">
        <ele>207.14946</ele>
        <time>2022-10-04T13:32:03.000Z</time>
      </trkpt>
      <trkpt lat="45.85393" lon="4.68094">
        <ele>207.2399</ele>
        <time>2022-10-04T13:32:04.000Z</time>
      </trkpt>
      <trkpt lat="45.85391" lon="4.68097">
        <ele>207.36069</ele>
        <time>2022-10-04T13:32:05.000Z</time>
      </trkpt>
      <trkpt lat="45.85388" lon="4.68099">
        <ele>207.47568</ele>
        <time>2022-10-04T13:32:06.000Z</time>
      </trkpt>
      <trkpt lat="45.85386" lon="4.68102">
        <ele>207.60806</ele>
        <time>2022-10-04T13:32:07.000Z</time>
      </trkpt>
      <trkpt lat="45.85384" lon="4.68104">
        <ele>207.78719</ele>
        <time>2022-10-04T13:32:08.000Z</time>
      </trkpt>
      <trkpt lat="45.85381" lon="4.68106">
        <ele>207.86148</ele>
        <time>2022-10-04T13:32:09.000Z</time>
      </trkpt>
      <trkpt lat="45.85379" lon="4.68108">
        <ele>207.95313</ele>
        <time>2022-10-04T13:32:10.000Z</time>
      </trkpt>
      <trkpt lat="45.85377" lon="4.6811">
        <ele>208.02328</ele>
        <time>2022-10-04T13:32:11.000Z</time>
      </trkpt>
      <trkpt lat="45.85374" lon="4.68112">
        <ele>208.18542</ele>
        <time>2022-10-04T13:32:12.000Z</time>
      </trkpt>
      <trkpt lat="45.85372" lon="4.68115">
        <ele>208.34013</ele>
        <time>2022-10-04T13:32:13.000Z</time>
      </trkpt>
      <trkpt lat="45.8537" lon="4.68118">
        <ele>208.36259</ele>
        <time>2022-10-04T13:32:14.000Z</time>
      </trkpt>
      <trkpt lat="45.85368" lon="4.68121">
        <ele>208.38335</ele>
        <time>2022-10-04T13:32:15.000Z</time>
      </trkpt>
      <trkpt lat="45.85366" lon="4.68123">
        <ele>208.43253</ele>
        <time>2022-10-04T13:32:16.000Z</time>
      </trkpt>
      <trkpt lat="45.85364" lon="4.68125">
        <ele>208.44576</ele>
        <time>2022-10-04T13:32:17.000Z</time>
      </trkpt>
      <trkpt lat="45.85361" lon="4.68128">
        <ele>208.44009</ele>
        <time>2022-10-04T13:32:18.000Z</time>
      </trkpt>
      <trkpt lat="45.85358" lon="4.6813">
        <ele>208.42407</ele>
        <time>2022-10-04T13:32:19.000Z</time>
      </trkpt>
      <trkpt lat="45.85356" lon="4.68133">
        <ele>208.40105</ele>
        <time>2022-10-04T13:32:20.000Z</time>
      </trkpt>
      <trkpt lat="45.85354" lon="4.68136">
        <ele>208.3219</ele>
        <time>2022-10-04T13:32:21.000Z</time>
      </trkpt>
      <trkpt lat="45.85351" lon="4.68139">
        <ele>208.21204</ele>
        <time>2022-10-04T13:32:22.000Z</time>
      </trkpt>
      <trkpt lat="45.85349" lon="4.68142">
        <ele>208.03752</ele>
        <time>2022-10-04T13:32:23.000Z</time>
      </trkpt>
      <trkpt lat="45.85347" lon="4.68145">
        <ele>207.94681</ele>
        <time>2022-10-04T13:32:24.000Z</time>
      </trkpt>
      <trkpt lat="45.85344" lon="4.68148">
        <ele>207.8634</ele>
        <time>2022-10-04T13:32:25.000Z</time>
      </trkpt>
      <trkpt lat="45.85342" lon="4.68151">
        <ele>207.82385</ele>
        <time>2022-10-04T13:32:26.000Z</time>
      </trkpt>
      <trkpt lat="45.8534" lon="4.68154">
        <ele>207.80367</ele>
        <time>2022-10-04T13:32:27.000Z</time>
      </trkpt>
      <trkpt lat="45.85338" lon="4.68156">
        <ele>207.90652</ele>
        <time>2022-10-04T13:32:28.000Z</time>
      </trkpt>
      <trkpt lat="45.85336" lon="4.68158">
        <ele>208.0629</ele>
        <time>2022-10-04T13:32:29.000Z</time>
      </trkpt>
      <trkpt lat="45.85333" lon="4.68161">
        <ele>208.17981</ele>
        <time>2022-10-04T13:32:30.000Z</time>
      </trkpt>
      <trkpt lat="45.85331" lon="4.68164">
        <ele>208.40292</ele>
        <time>2022-10-04T13:32:31.000Z</time>
      </trkpt>
      <trkpt lat="45.85328" lon="4.68167">
        <ele>208.66109</ele>
        <time>2022-10-04T13:32:32.000Z</time>
      </trkpt>
      <trkpt lat="45.85325" lon="4.6817">
        <ele>208.92935</ele>
        <time>2022-10-04T13:32:33.000Z</time>
      </trkpt>
      <trkpt lat="45.85323" lon="4.68173">
        <ele>209.24112</ele>
        <time>2022-10-04T13:32:34.000Z</time>
      </trkpt>
      <trkpt lat="45.85307" lon="4.68192">
        <ele>209.60258</ele>
        <time>2022-10-04T13:32:40.000Z</time>
      </trkpt>
      <trkpt lat="45.85304" lon="4.68196">
        <ele>209.91269</ele>
        <time>2022-10-04T13:32:41.000Z</time>
      </trkpt>
      <trkpt lat="45.85302" lon="4.68199">
        <ele>210.26004</ele>
        <time>2022-10-04T13:32:42.000Z</time>
      </trkpt>
      <trkpt lat="45.85299" lon="4.68203">
        <ele>210.47562</ele>
        <time>2022-10-04T13:32:43.000Z</time>
      </trkpt>
      <trkpt lat="45.85297" lon="4.68207">
        <ele>210.7034</ele>
        <time>2022-10-04T13:32:44.000Z</time>
      </trkpt>
      <trkpt lat="45.85296" lon="4.68211">
        <ele>210.82597</ele>
        <time>2022-10-04T13:32:45.000Z</time>
      </trkpt>
      <trkpt lat="45.85294" lon="4.68215">
        <ele>211.00095</ele>
        <time>2022-10-04T13:32:46.000Z</time>
      </trkpt>
      <trkpt lat="45.85292" lon="4.68219">
        <ele>211.21622</ele>
        <time>2022-10-04T13:32:47.000Z</time>
      </trkpt>
      <trkpt lat="45.8529" lon="4.68222">
        <ele>211.40388</ele>
        <time>2022-10-04T13:32:48.000Z</time>
      </trkpt>
      <trkpt lat="45.85288" lon="4.68225">
        <ele>211.56522</ele>
        <time>2022-10-04T13:32:49.000Z</time>
      </trkpt>
      <trkpt lat="45.85286" lon="4.68228">
        <ele>211.66824</ele>
        <time>2022-10-04T13:32:50.000Z</time>
      </trkpt>
      <trkpt lat="45.85284" lon="4.68231">
        <ele>211.62085</ele>
        <time>2022-10-04T13:32:51.000Z</time>
      </trkpt>
      <trkpt lat="45.85281" lon="4.68234">
        <ele>211.56165</ele>
        <time>2022-10-04T13:32:52.000Z</time>
      </trkpt>
      <trkpt lat="45.85279" lon="4.68237">
        <ele>211.44792</ele>
        <time>2022-10-04T13:32:53.000Z</time>
      </trkpt>
      <trkpt lat="45.85277" lon="4.6824">
        <ele>211.35837</ele>
        <time>2022-10-04T13:32:54.000Z</time>
      </trkpt>
      <trkpt lat="45.85275" lon="4.68243">
        <ele>211.37552</ele>
        <time>2022-10-04T13:32:55.000Z</time>
      </trkpt>
      <trkpt lat="45.85273" lon="4.68246">
        <ele>211.38164</ele>
        <time>2022-10-04T13:32:56.000Z</time>
      </trkpt>
      <trkpt lat="45.85271" lon="4.68249">
        <ele>211.33403</ele>
        <time>2022-10-04T13:32:57.000Z</time>
      </trkpt>
      <trkpt lat="45.85269" lon="4.68252">
        <ele>211.37292</ele>
        <time>2022-10-04T13:32:58.000Z</time>
      </trkpt>
      <trkpt lat="45.85266" lon="4.68255">
        <ele>211.37582</ele>
        <time>2022-10-04T13:32:59.000Z</time>
      </trkpt>
      <trkpt lat="45.85264" lon="4.68258">
        <ele>211.28508</ele>
        <time>2022-10-04T13:33:00.000Z</time>
      </trkpt>
      <trkpt lat="45.85262" lon="4.68261">
        <ele>211.19495</ele>
        <time>2022-10-04T13:33:01.000Z</time>
      </trkpt>
      <trkpt lat="45.8526" lon="4.68263">
        <ele>211.052</ele>
        <time>2022-10-04T13:33:02.000Z</time>
      </trkpt>
      <trkpt lat="45.85258" lon="4.68266">
        <ele>211.04465</ele>
        <time>2022-10-04T13:33:03.000Z</time>
      </trkpt>
      <trkpt lat="45.85256" lon="4.6827">
        <ele>211.04578</ele>
        <time>2022-10-04T13:33:04.000Z</time>
      </trkpt>
      <trkpt lat="45.85254" lon="4.68273">
        <ele>211.22603</ele>
        <time>2022-10-04T13:33:05.000Z</time>
      </trkpt>
      <trkpt lat="45.85252" lon="4.68276">
        <ele>211.38181</ele>
        <time>2022-10-04T13:33:06.000Z</time>
      </trkpt>
      <trkpt lat="45.85249" lon="4.6828">
        <ele>211.62549</ele>
        <time>2022-10-04T13:33:07.000Z</time>
      </trkpt>
      <trkpt lat="45.85247" lon="4.68283">
        <ele>211.87935</ele>
        <time>2022-10-04T13:33:08.000Z</time>
      </trkpt>
      <trkpt lat="45.85245" lon="4.68287">
        <ele>212.13933</ele>
        <time>2022-10-04T13:33:09.000Z</time>
      </trkpt>
      <trkpt lat="45.85243" lon="4.6829">
        <ele>212.399</ele>
        <time>2022-10-04T13:33:10.000Z</time>
      </trkpt>
      <trkpt lat="45.85241" lon="4.68294">
        <ele>212.70645</ele>
        <time>2022-10-04T13:33:11.000Z</time>
      </trkpt>
      <trkpt lat="45.85239" lon="4.68298">
        <ele>213.06441</ele>
        <time>2022-10-04T13:33:12.000Z</time>
      </trkpt>
      <trkpt lat="45.85237" lon="4.68302">
        <ele>213.38652</ele>
        <time>2022-10-04T13:33:13.000Z</time>
      </trkpt>
      <trkpt lat="45.85235" lon="4.68307">
        <ele>213.69157</ele>
        <time>2022-10-04T13:33:14.000Z</time>
      </trkpt>
      <trkpt lat="45.85233" lon="4.68311">
        <ele>213.83582</ele>
        <time>2022-10-04T13:33:15.000Z</time>
      </trkpt>
      <trkpt lat="45.85231" lon="4.68315">
        <ele>213.95235</ele>
        <time>2022-10-04T13:33:16.000Z</time>
      </trkpt>
      <trkpt lat="45.85229" lon="4.68318">
        <ele>214.08467</ele>
        <time>2022-10-04T13:33:17.000Z</time>
      </trkpt>
      <trkpt lat="45.85227" lon="4.68322">
        <ele>214.13199</ele>
        <time>2022-10-04T13:33:18.000Z</time>
      </trkpt>
      <trkpt lat="45.85225" lon="4.68326">
        <ele>214.22229</ele>
        <time>2022-10-04T13:33:19.000Z</time>
      </trkpt>
      <trkpt lat="45.85222" lon="4.6833">
        <ele>214.39401</ele>
        <time>2022-10-04T13:33:20.000Z</time>
      </trkpt>
      <trkpt lat="45.8522" lon="4.68334">
        <ele>214.64792</ele>
        <time>2022-10-04T13:33:21.000Z</time>
      </trkpt>
      <trkpt lat="45.85218" lon="4.68337">
        <ele>214.85347</ele>
        <time>2022-10-04T13:33:22.000Z</time>
      </trkpt>
      <trkpt lat="45.85216" lon="4.6834">
        <ele>215.08536</ele>
        <time>2022-10-04T13:33:23.000Z</time>
      </trkpt>
      <trkpt lat="45.85214" lon="4.68343">
        <ele>215.32669</ele>
        <time>2022-10-04T13:33:24.000Z</time>
      </trkpt>
      <trkpt lat="45.85212" lon="4.68347">
        <ele>215.50061</ele>
        <time>2022-10-04T13:33:25.000Z</time>
      </trkpt>
      <trkpt lat="45.85209" lon="4.68351">
        <ele>215.64136</ele>
        <time>2022-10-04T13:33:26.000Z</time>
      </trkpt>
      <trkpt lat="45.85207" lon="4.68353">
        <ele>215.75285</ele>
        <time>2022-10-04T13:33:27.000Z</time>
      </trkpt>
      <trkpt lat="45.85204" lon="4.68356">
        <ele>215.8652</ele>
        <time>2022-10-04T13:33:28.000Z</time>
      </trkpt>
      <trkpt lat="45.85202" lon="4.68359">
        <ele>215.98506</ele>
        <time>2022-10-04T13:33:29.000Z</time>
      </trkpt>
      <trkpt lat="45.852" lon="4.68363">
        <ele>216.08003</ele>
        <time>2022-10-04T13:33:30.000Z</time>
      </trkpt>
      <trkpt lat="45.85198" lon="4.68366">
        <ele>216.12491</ele>
        <time>2022-10-04T13:33:31.000Z</time>
      </trkpt>
      <trkpt lat="45.85196" lon="4.68369">
        <ele>215.99893</ele>
        <time>2022-10-04T13:33:32.000Z</time>
      </trkpt>
      <trkpt lat="45.85194" lon="4.68372">
        <ele>215.86365</ele>
        <time>2022-10-04T13:33:33.000Z</time>
      </trkpt>
      <trkpt lat="45.85192" lon="4.68375">
        <ele>215.65012</ele>
        <time>2022-10-04T13:33:34.000Z</time>
      </trkpt>
      <trkpt lat="45.8519" lon="4.68378">
        <ele>215.49821</ele>
        <time>2022-10-04T13:33:35.000Z</time>
      </trkpt>
      <trkpt lat="45.85187" lon="4.68381">
        <ele>215.26541</ele>
        <time>2022-10-04T13:33:36.000Z</time>
      </trkpt>
      <trkpt lat="45.85185" lon="4.68384">
        <ele>215.04428</ele>
        <time>2022-10-04T13:33:37.000Z</time>
      </trkpt>
      <trkpt lat="45.85183" lon="4.68388">
        <ele>214.84045</ele>
        <time>2022-10-04T13:33:38.000Z</time>
      </trkpt>
      <trkpt lat="45.8518" lon="4.68392">
        <ele>214.61848</ele>
        <time>2022-10-04T13:33:39.000Z</time>
      </trkpt>
      <trkpt lat="45.85178" lon="4.68395">
        <ele>214.31636</ele>
        <time>2022-10-04T13:33:40.000Z</time>
      </trkpt>
      <trkpt lat="45.85176" lon="4.68399">
        <ele>213.94199</ele>
        <time>2022-10-04T13:33:41.000Z</time>
      </trkpt>
      <trkpt lat="45.85173" lon="4.68403">
        <ele>213.5988</ele>
        <time>2022-10-04T13:33:42.000Z</time>
      </trkpt>
      <trkpt lat="45.85171" lon="4.68407">
        <ele>213.31441</ele>
        <time>2022-10-04T13:33:43.000Z</time>
      </trkpt>
      <trkpt lat="45.85169" lon="4.68411">
        <ele>212.97466</ele>
        <time>2022-10-04T13:33:44.000Z</time>
      </trkpt>
      <trkpt lat="45.85167" lon="4.68415">
        <ele>212.60962</ele>
        <time>2022-10-04T13:33:45.000Z</time>
      </trkpt>
      <trkpt lat="45.85165" lon="4.68419">
        <ele>212.23869</ele>
        <time>2022-10-04T13:33:46.000Z</time>
      </trkpt>
      <trkpt lat="45.85162" lon="4.68423">
        <ele>211.87817</ele>
        <time>2022-10-04T13:33:47.000Z</time>
      </trkpt>
      <trkpt lat="45.8516" lon="4.68427">
        <ele>211.5157</ele>
        <time>2022-10-04T13:33:48.000Z</time>
      </trkpt>
      <trkpt lat="45.85158" lon="4.68431">
        <ele>211.14319</ele>
        <time>2022-10-04T13:33:49.000Z</time>
      </trkpt>
      <trkpt lat="45.85156" lon="4.68434">
        <ele>210.89177</ele>
        <time>2022-10-04T13:33:50.000Z</time>
      </trkpt>
      <trkpt lat="45.85154" lon="4.68438">
        <ele>210.70972</ele>
        <time>2022-10-04T13:33:51.000Z</time>
      </trkpt>
      <trkpt lat="45.85151" lon="4.68442">
        <ele>210.62988</ele>
        <time>2022-10-04T13:33:52.000Z</time>
      </trkpt>
      <trkpt lat="45.85148" lon="4.68445">
        <ele>210.55698</ele>
        <time>2022-10-04T13:33:53.000Z</time>
      </trkpt>
      <trkpt lat="45.85146" lon="4.6845">
        <ele>210.53714</ele>
        <time>2022-10-04T13:33:54.000Z</time>
      </trkpt>
      <trkpt lat="45.85143" lon="4.68454">
        <ele>210.52605</ele>
        <time>2022-10-04T13:33:55.000Z</time>
      </trkpt>
      <trkpt lat="45.8514" lon="4.68458">
        <ele>210.58725</ele>
        <time>2022-10-04T13:33:56.000Z</time>
      </trkpt>
      <trkpt lat="45.85138" lon="4.68463">
        <ele>210.6593</ele>
        <time>2022-10-04T13:33:57.000Z</time>
      </trkpt>
      <trkpt lat="45.85135" lon="4.68467">
        <ele>210.79141</ele>
        <time>2022-10-04T13:33:58.000Z</time>
      </trkpt>
      <trkpt lat="45.85133" lon="4.68471">
        <ele>210.91052</ele>
        <time>2022-10-04T13:33:59.000Z</time>
      </trkpt>
      <trkpt lat="45.8513" lon="4.68475">
        <ele>211.02974</ele>
        <time>2022-10-04T13:34:00.000Z</time>
      </trkpt>
      <trkpt lat="45.85128" lon="4.68479">
        <ele>211.17676</ele>
        <time>2022-10-04T13:34:01.000Z</time>
      </trkpt>
      <trkpt lat="45.85125" lon="4.68483">
        <ele>211.38094</ele>
        <time>2022-10-04T13:34:02.000Z</time>
      </trkpt>
      <trkpt lat="45.85123" lon="4.68487">
        <ele>211.57089</ele>
        <time>2022-10-04T13:34:03.000Z</time>
      </trkpt>
      <trkpt lat="45.8512" lon="4.68491">
        <ele>211.81831</ele>
        <time>2022-10-04T13:34:04.000Z</time>
      </trkpt>
      <trkpt lat="45.85117" lon="4.68495">
        <ele>212.08943</ele>
        <time>2022-10-04T13:34:05.000Z</time>
      </trkpt>
      <trkpt lat="45.85115" lon="4.685">
        <ele>212.45657</ele>
        <time>2022-10-04T13:34:06.000Z</time>
      </trkpt>
      <trkpt lat="45.85112" lon="4.68504">
        <ele>212.81438</ele>
        <time>2022-10-04T13:34:07.000Z</time>
      </trkpt>
      <trkpt lat="45.8511" lon="4.68508">
        <ele>213.19971</ele>
        <time>2022-10-04T13:34:08.000Z</time>
      </trkpt>
      <trkpt lat="45.85107" lon="4.68512">
        <ele>213.53923</ele>
        <time>2022-10-04T13:34:09.000Z</time>
      </trkpt>
      <trkpt lat="45.85105" lon="4.68516">
        <ele>213.80229</ele>
        <time>2022-10-04T13:34:10.000Z</time>
      </trkpt>
      <trkpt lat="45.85102" lon="4.6852">
        <ele>214.01262</ele>
        <time>2022-10-04T13:34:11.000Z</time>
      </trkpt>
      <trkpt lat="45.851" lon="4.68524">
        <ele>214.34067</ele>
        <time>2022-10-04T13:34:12.000Z</time>
      </trkpt>
      <trkpt lat="45.85098" lon="4.68529">
        <ele>214.69943</ele>
        <time>2022-10-04T13:34:13.000Z</time>
      </trkpt>
      <trkpt lat="45.85096" lon="4.68533">
        <ele>215.02092</ele>
        <time>2022-10-04T13:34:14.000Z</time>
      </trkpt>
      <trkpt lat="45.85093" lon="4.68537">
        <ele>215.39087</ele>
        <time>2022-10-04T13:34:15.000Z</time>
      </trkpt>
      <trkpt lat="45.85091" lon="4.68542">
        <ele>215.70866</ele>
        <time>2022-10-04T13:34:16.000Z</time>
      </trkpt>
      <trkpt lat="45.85089" lon="4.68546">
        <ele>216.04805</ele>
        <time>2022-10-04T13:34:17.000Z</time>
      </trkpt>
      <trkpt lat="45.85088" lon="4.6855">
        <ele>216.32886</ele>
        <time>2022-10-04T13:34:18.000Z</time>
      </trkpt>
      <trkpt lat="45.85086" lon="4.68554">
        <ele>216.64246</ele>
        <time>2022-10-04T13:34:19.000Z</time>
      </trkpt>
      <trkpt lat="45.85084" lon="4.68558">
        <ele>216.96822</ele>
        <time>2022-10-04T13:34:20.000Z</time>
      </trkpt>
      <trkpt lat="45.85082" lon="4.68562">
        <ele>217.29907</ele>
        <time>2022-10-04T13:34:21.000Z</time>
      </trkpt>
      <trkpt lat="45.8508" lon="4.68567">
        <ele>217.51677</ele>
        <time>2022-10-04T13:34:22.000Z</time>
      </trkpt>
      <trkpt lat="45.85079" lon="4.68571">
        <ele>217.73398</ele>
        <time>2022-10-04T13:34:23.000Z</time>
      </trkpt>
      <trkpt lat="45.85077" lon="4.68575">
        <ele>217.97173</ele>
        <time>2022-10-04T13:34:24.000Z</time>
      </trkpt>
      <trkpt lat="45.85075" lon="4.6858">
        <ele>218.19144</ele>
        <time>2022-10-04T13:34:25.000Z</time>
      </trkpt>
      <trkpt lat="45.85074" lon="4.68584">
        <ele>218.37793</ele>
        <time>2022-10-04T13:34:26.000Z</time>
      </trkpt>
      <trkpt lat="45.85072" lon="4.68589">
        <ele>218.5325</ele>
        <time>2022-10-04T13:34:27.000Z</time>
      </trkpt>
      <trkpt lat="45.8507" lon="4.68594">
        <ele>218.6843</ele>
        <time>2022-10-04T13:34:28.000Z</time>
      </trkpt>
      <trkpt lat="45.85067" lon="4.686">
        <ele>218.87337</ele>
        <time>2022-10-04T13:34:29.000Z</time>
      </trkpt>
      <trkpt lat="45.85065" lon="4.68606">
        <ele>219.05342</ele>
        <time>2022-10-04T13:34:30.000Z</time>
      </trkpt>
      <trkpt lat="45.85064" lon="4.68611">
        <ele>219.20195</ele>
        <time>2022-10-04T13:34:31.000Z</time>
      </trkpt>
      <trkpt lat="45.8506" lon="4.68616">
        <ele>219.18591</ele>
        <time>2022-10-04T13:34:32.000Z</time>
      </trkpt>
      <trkpt lat="45.85058" lon="4.68622">
        <ele>219.11398</ele>
        <time>2022-10-04T13:34:33.000Z</time>
      </trkpt>
      <trkpt lat="45.85055" lon="4.6863">
        <ele>219.04483</ele>
        <time>2022-10-04T13:34:34.000Z</time>
      </trkpt>
      <trkpt lat="45.85054" lon="4.68637">
        <ele>218.85901</ele>
        <time>2022-10-04T13:34:35.000Z</time>
      </trkpt>
      <trkpt lat="45.85052" lon="4.68643">
        <ele>218.77524</ele>
        <time>2022-10-04T13:34:36.000Z</time>
      </trkpt>
      <trkpt lat="45.8505" lon="4.68652">
        <ele>218.60164</ele>
        <time>2022-10-04T13:34:37.000Z</time>
      </trkpt>
      <trkpt lat="45.85049" lon="4.68659">
        <ele>218.42203</ele>
        <time>2022-10-04T13:34:38.000Z</time>
      </trkpt>
      <trkpt lat="45.85047" lon="4.68666">
        <ele>218.30276</ele>
        <time>2022-10-04T13:34:39.000Z</time>
      </trkpt>
      <trkpt lat="45.85045" lon="4.6867">
        <ele>218.10083</ele>
        <time>2022-10-04T13:34:40.000Z</time>
      </trkpt>
      <trkpt lat="45.85043" lon="4.68676">
        <ele>217.8931</ele>
        <time>2022-10-04T13:34:41.000Z</time>
      </trkpt>
      <trkpt lat="45.85041" lon="4.68685">
        <ele>217.74362</ele>
        <time>2022-10-04T13:34:42.000Z</time>
      </trkpt>
      <trkpt lat="45.85038" lon="4.68691">
        <ele>217.51965</ele>
        <time>2022-10-04T13:34:43.000Z</time>
      </trkpt>
      <trkpt lat="45.85034" lon="4.68699">
        <ele>217.2679</ele>
        <time>2022-10-04T13:34:44.000Z</time>
      </trkpt>
      <trkpt lat="45.85032" lon="4.68707">
        <ele>216.98691</ele>
        <time>2022-10-04T13:34:45.000Z</time>
      </trkpt>
      <trkpt lat="45.85028" lon="4.68714">
        <ele>216.72359</ele>
        <time>2022-10-04T13:34:46.000Z</time>
      </trkpt>
      <trkpt lat="45.85024" lon="4.68722">
        <ele>216.42493</ele>
        <time>2022-10-04T13:34:47.000Z</time>
      </trkpt>
      <trkpt lat="45.85021" lon="4.68731">
        <ele>216.13704</ele>
        <time>2022-10-04T13:34:48.000Z</time>
      </trkpt>
      <trkpt lat="45.85017" lon="4.6874">
        <ele>215.70622</ele>
        <time>2022-10-04T13:34:49.000Z</time>
      </trkpt>
      <trkpt lat="45.85013" lon="4.68747">
        <ele>215.29178</ele>
        <time>2022-10-04T13:34:50.000Z</time>
      </trkpt>
      <trkpt lat="45.85009" lon="4.68755">
        <ele>214.90234</ele>
        <time>2022-10-04T13:34:51.000Z</time>
      </trkpt>
      <trkpt lat="45.85005" lon="4.68763">
        <ele>214.6451</ele>
        <time>2022-10-04T13:34:52.000Z</time>
      </trkpt>
      <trkpt lat="45.85001" lon="4.6877">
        <ele>214.46768</ele>
        <time>2022-10-04T13:34:53.000Z</time>
      </trkpt>
      <trkpt lat="45.84997" lon="4.68777">
        <ele>214.26241</ele>
        <time>2022-10-04T13:34:54.000Z</time>
      </trkpt>
      <trkpt lat="45.84993" lon="4.68784">
        <ele>214.12053</ele>
        <time>2022-10-04T13:34:55.000Z</time>
      </trkpt>
      <trkpt lat="45.84988" lon="4.68789">
        <ele>213.87622</ele>
        <time>2022-10-04T13:34:56.000Z</time>
      </trkpt>
      <trkpt lat="45.84985" lon="4.68795">
        <ele>213.62663</ele>
        <time>2022-10-04T13:34:57.000Z</time>
      </trkpt>
      <trkpt lat="45.84981" lon="4.688">
        <ele>213.39905</ele>
        <time>2022-10-04T13:34:58.000Z</time>
      </trkpt>
      <trkpt lat="45.84978" lon="4.68805">
        <ele>213.2366</ele>
        <time>2022-10-04T13:34:59.000Z</time>
      </trkpt>
      <trkpt lat="45.84974" lon="4.68812">
        <ele>213.22371</ele>
        <time>2022-10-04T13:35:00.000Z</time>
      </trkpt>
      <trkpt lat="45.84971" lon="4.68816">
        <ele>213.21109</ele>
        <time>2022-10-04T13:35:01.000Z</time>
      </trkpt>
      <trkpt lat="45.84966" lon="4.6882">
        <ele>213.2242</ele>
        <time>2022-10-04T13:35:02.000Z</time>
      </trkpt>
      <trkpt lat="45.84961" lon="4.68824">
        <ele>213.19279</ele>
        <time>2022-10-04T13:35:03.000Z</time>
      </trkpt>
      <trkpt lat="45.84958" lon="4.68828">
        <ele>213.13684</ele>
        <time>2022-10-04T13:35:04.000Z</time>
      </trkpt>
      <trkpt lat="45.84953" lon="4.68831">
        <ele>213.06636</ele>
        <time>2022-10-04T13:35:05.000Z</time>
      </trkpt>
      <trkpt lat="45.84949" lon="4.68836">
        <ele>213.01823</ele>
        <time>2022-10-04T13:35:06.000Z</time>
      </trkpt>
      <trkpt lat="45.84944" lon="4.68839">
        <ele>213.07727</ele>
        <time>2022-10-04T13:35:07.000Z</time>
      </trkpt>
      <trkpt lat="45.84941" lon="4.68843">
        <ele>213.12253</ele>
        <time>2022-10-04T13:35:08.000Z</time>
      </trkpt>
      <trkpt lat="45.84937" lon="4.68847">
        <ele>213.25146</ele>
        <time>2022-10-04T13:35:09.000Z</time>
      </trkpt>
      <trkpt lat="45.84933" lon="4.68851">
        <ele>213.41052</ele>
        <time>2022-10-04T13:35:10.000Z</time>
      </trkpt>
      <trkpt lat="45.84928" lon="4.68857">
        <ele>213.65714</ele>
        <time>2022-10-04T13:35:11.000Z</time>
      </trkpt>
      <trkpt lat="45.84923" lon="4.68861">
        <ele>213.83122</ele>
        <time>2022-10-04T13:35:12.000Z</time>
      </trkpt>
      <trkpt lat="45.84918" lon="4.68865">
        <ele>213.88115</ele>
        <time>2022-10-04T13:35:13.000Z</time>
      </trkpt>
      <trkpt lat="45.84913" lon="4.68871">
        <ele>214.00247</ele>
        <time>2022-10-04T13:35:14.000Z</time>
      </trkpt>
      <trkpt lat="45.84911" lon="4.68873">
        <ele>214.16702</ele>
        <time>2022-10-04T13:35:15.000Z</time>
      </trkpt>
      <trkpt lat="45.84909" lon="4.68877">
        <ele>214.40178</ele>
        <time>2022-10-04T13:35:16.000Z</time>
      </trkpt>
      <trkpt lat="45.84907" lon="4.68882">
        <ele>214.71716</ele>
        <time>2022-10-04T13:35:17.000Z</time>
      </trkpt>
      <trkpt lat="45.84905" lon="4.68887">
        <ele>215.02576</ele>
        <time>2022-10-04T13:35:18.000Z</time>
      </trkpt>
      <trkpt lat="45.84903" lon="4.68891">
        <ele>215.20523</ele>
        <time>2022-10-04T13:35:19.000Z</time>
      </trkpt>
      <trkpt lat="45.84903" lon="4.68895">
        <ele>215.40604</ele>
        <time>2022-10-04T13:35:20.000Z</time>
      </trkpt>
      <trkpt lat="45.84901" lon="4.68899">
        <ele>215.61311</ele>
        <time>2022-10-04T13:35:21.000Z</time>
      </trkpt>
      <trkpt lat="45.84899" lon="4.68902">
        <ele>215.79219</ele>
        <time>2022-10-04T13:35:22.000Z</time>
      </trkpt>
      <trkpt lat="45.84899" lon="4.68905">
        <ele>216.06657</ele>
        <time>2022-10-04T13:35:23.000Z</time>
      </trkpt>
      <trkpt lat="45.849" lon="4.68908">
        <ele>216.37349</ele>
        <time>2022-10-04T13:35:24.000Z</time>
      </trkpt>
      <trkpt lat="45.849" lon="4.68912">
        <ele>216.82043</ele>
        <time>2022-10-04T13:35:25.000Z</time>
      </trkpt>
      <trkpt lat="45.84901" lon="4.68914">
        <ele>217.23169</ele>
        <time>2022-10-04T13:35:26.000Z</time>
      </trkpt>
      <trkpt lat="45.84901" lon="4.68917">
        <ele>217.41187</ele>
        <time>2022-10-04T13:35:41.000Z</time>
      </trkpt>
      <trkpt lat="45.84901" lon="4.6892">
        <ele>217.53928</ele>
        <time>2022-10-04T13:35:42.000Z</time>
      </trkpt>
      <trkpt lat="45.84901" lon="4.68923">
        <ele>217.60371</ele>
        <time>2022-10-04T13:35:43.000Z</time>
      </trkpt>
      <trkpt lat="45.84902" lon="4.68926">
        <ele>217.71428</ele>
        <time>2022-10-04T13:35:44.000Z</time>
      </trkpt>
      <trkpt lat="45.84903" lon="4.68929">
        <ele>217.70845</ele>
        <time>2022-10-04T13:35:45.000Z</time>
      </trkpt>
      <trkpt lat="45.84904" lon="4.68933">
        <ele>217.6895</ele>
        <time>2022-10-04T13:35:46.000Z</time>
      </trkpt>
      <trkpt lat="45.84905" lon="4.68937">
        <ele>217.74666</ele>
        <time>2022-10-04T13:35:47.000Z</time>
      </trkpt>
      <trkpt lat="45.84906" lon="4.68942">
        <ele>217.79036</ele>
        <time>2022-10-04T13:35:48.000Z</time>
      </trkpt>
      <trkpt lat="45.84907" lon="4.68946">
        <ele>217.81584</ele>
        <time>2022-10-04T13:35:49.000Z</time>
      </trkpt>
      <trkpt lat="45.84909" lon="4.68951">
        <ele>217.81656</ele>
        <time>2022-10-04T13:35:50.000Z</time>
      </trkpt>
      <trkpt lat="45.8491" lon="4.68955">
        <ele>217.82719</ele>
        <time>2022-10-04T13:35:51.000Z</time>
      </trkpt>
      <trkpt lat="45.84912" lon="4.6896">
        <ele>217.83952</ele>
        <time>2022-10-04T13:35:52.000Z</time>
      </trkpt>
      <trkpt lat="45.84913" lon="4.68965">
        <ele>217.78938</ele>
        <time>2022-10-04T13:35:53.000Z</time>
      </trkpt>
      <trkpt lat="45.84915" lon="4.68969">
        <ele>217.67886</ele>
        <time>2022-10-04T13:35:54.000Z</time>
      </trkpt>
      <trkpt lat="45.84916" lon="4.68974">
        <ele>217.5428</ele>
        <time>2022-10-04T13:35:55.000Z</time>
      </trkpt>
      <trkpt lat="45.84918" lon="4.68979">
        <ele>217.43343</ele>
        <time>2022-10-04T13:35:56.000Z</time>
      </trkpt>
      <trkpt lat="45.84919" lon="4.68983">
        <ele>217.29257</ele>
        <time>2022-10-04T13:35:57.000Z</time>
      </trkpt>
      <trkpt lat="45.84921" lon="4.68988">
        <ele>217.11755</ele>
        <time>2022-10-04T13:35:58.000Z</time>
      </trkpt>
      <trkpt lat="45.84922" lon="4.68992">
        <ele>216.86821</ele>
        <time>2022-10-04T13:35:59.000Z</time>
      </trkpt>
      <trkpt lat="45.84924" lon="4.68996">
        <ele>216.6019</ele>
        <time>2022-10-04T13:36:00.000Z</time>
      </trkpt>
      <trkpt lat="45.84926" lon="4.69001">
        <ele>216.52979</ele>
        <time>2022-10-04T13:36:01.000Z</time>
      </trkpt>
      <trkpt lat="45.84928" lon="4.69005">
        <ele>216.52071</ele>
        <time>2022-10-04T13:36:02.000Z</time>
      </trkpt>
      <trkpt lat="45.8493" lon="4.69009">
        <ele>216.6434</ele>
        <time>2022-10-04T13:36:03.000Z</time>
      </trkpt>
      <trkpt lat="45.84932" lon="4.69014">
        <ele>216.68509</ele>
        <time>2022-10-04T13:36:04.000Z</time>
      </trkpt>
      <trkpt lat="45.84933" lon="4.69019">
        <ele>216.77847</ele>
        <time>2022-10-04T13:36:05.000Z</time>
      </trkpt>
      <trkpt lat="45.84935" lon="4.69024">
        <ele>216.90073</ele>
        <time>2022-10-04T13:36:06.000Z</time>
      </trkpt>
      <trkpt lat="45.84936" lon="4.69029">
        <ele>217.02519</ele>
        <time>2022-10-04T13:36:07.000Z</time>
      </trkpt>
      <trkpt lat="45.84937" lon="4.69034">
        <ele>217.17526</ele>
        <time>2022-10-04T13:36:08.000Z</time>
      </trkpt>
      <trkpt lat="45.84938" lon="4.6904">
        <ele>217.32608</ele>
        <time>2022-10-04T13:36:09.000Z</time>
      </trkpt>
      <trkpt lat="45.8494" lon="4.69045">
        <ele>217.45703</ele>
        <time>2022-10-04T13:36:10.000Z</time>
      </trkpt>
      <trkpt lat="45.84941" lon="4.6905">
        <ele>217.53308</ele>
        <time>2022-10-04T13:36:11.000Z</time>
      </trkpt>
      <trkpt lat="45.84943" lon="4.69055">
        <ele>217.62724</ele>
        <time>2022-10-04T13:36:12.000Z</time>
      </trkpt>
      <trkpt lat="45.84944" lon="4.6906">
        <ele>217.73213</ele>
        <time>2022-10-04T13:36:13.000Z</time>
      </trkpt>
      <trkpt lat="45.84946" lon="4.69065">
        <ele>217.81779</ele>
        <time>2022-10-04T13:36:14.000Z</time>
      </trkpt>
      <trkpt lat="45.84947" lon="4.6907">
        <ele>217.95525</ele>
        <time>2022-10-04T13:36:15.000Z</time>
      </trkpt>
      <trkpt lat="45.84949" lon="4.69075">
        <ele>218.0312</ele>
        <time>2022-10-04T13:36:16.000Z</time>
      </trkpt>
      <trkpt lat="45.8495" lon="4.6908">
        <ele>218.07608</ele>
        <time>2022-10-04T13:36:17.000Z</time>
      </trkpt>
      <trkpt lat="45.84951" lon="4.69085">
        <ele>218.186</ele>
        <time>2022-10-04T13:36:18.000Z</time>
      </trkpt>
      <trkpt lat="45.84953" lon="4.69089">
        <ele>218.29016</ele>
        <time>2022-10-04T13:36:19.000Z</time>
      </trkpt>
      <trkpt lat="45.84954" lon="4.69094">
        <ele>218.35249</ele>
        <time>2022-10-04T13:36:20.000Z</time>
      </trkpt>
      <trkpt lat="45.84956" lon="4.69099">
        <ele>218.40718</ele>
        <time>2022-10-04T13:36:21.000Z</time>
      </trkpt>
      <trkpt lat="45.84957" lon="4.69103">
        <ele>218.41618</ele>
        <time>2022-10-04T13:36:22.000Z</time>
      </trkpt>
      <trkpt lat="45.84958" lon="4.69108">
        <ele>218.45891</ele>
        <time>2022-10-04T13:36:23.000Z</time>
      </trkpt>
      <trkpt lat="45.84959" lon="4.69112">
        <ele>218.52043</ele>
        <time>2022-10-04T13:36:24.000Z</time>
      </trkpt>
      <trkpt lat="45.84961" lon="4.69117">
        <ele>218.63432</ele>
        <time>2022-10-04T13:36:25.000Z</time>
      </trkpt>
      <trkpt lat="45.84962" lon="4.69122">
        <ele>218.76192</ele>
        <time>2022-10-04T13:36:26.000Z</time>
      </trkpt>
      <trkpt lat="45.84963" lon="4.69127">
        <ele>218.93326</ele>
        <time>2022-10-04T13:36:27.000Z</time>
      </trkpt>
      <trkpt lat="45.84965" lon="4.69132">
        <ele>219.0883</ele>
        <time>2022-10-04T13:36:28.000Z</time>
      </trkpt>
      <trkpt lat="45.84966" lon="4.69137">
        <ele>219.19902</ele>
        <time>2022-10-04T13:36:29.000Z</time>
      </trkpt>
      <trkpt lat="45.84968" lon="4.69142">
        <ele>219.33231</ele>
        <time>2022-10-04T13:36:30.000Z</time>
      </trkpt>
      <trkpt lat="45.84969" lon="4.69147">
        <ele>219.45877</ele>
        <time>2022-10-04T13:36:31.000Z</time>
      </trkpt>
      <trkpt lat="45.84971" lon="4.69152">
        <ele>219.52478</ele>
        <time>2022-10-04T13:36:32.000Z</time>
      </trkpt>
      <trkpt lat="45.84973" lon="4.69158">
        <ele>219.63184</ele>
        <time>2022-10-04T13:36:33.000Z</time>
      </trkpt>
      <trkpt lat="45.84974" lon="4.69162">
        <ele>219.73174</ele>
        <time>2022-10-04T13:36:34.000Z</time>
      </trkpt>
      <trkpt lat="45.84976" lon="4.69167">
        <ele>219.81721</ele>
        <time>2022-10-04T13:36:35.000Z</time>
      </trkpt>
      <trkpt lat="45.84977" lon="4.69172">
        <ele>219.9646</ele>
        <time>2022-10-04T13:36:36.000Z</time>
      </trkpt>
      <trkpt lat="45.84979" lon="4.69176">
        <ele>220.1488</ele>
        <time>2022-10-04T13:36:37.000Z</time>
      </trkpt>
      <trkpt lat="45.8498" lon="4.69181">
        <ele>220.24612</ele>
        <time>2022-10-04T13:36:38.000Z</time>
      </trkpt>
      <trkpt lat="45.84982" lon="4.69186">
        <ele>220.35571</ele>
        <time>2022-10-04T13:36:39.000Z</time>
      </trkpt>
      <trkpt lat="45.84983" lon="4.69191">
        <ele>220.48843</ele>
        <time>2022-10-04T13:36:40.000Z</time>
      </trkpt>
      <trkpt lat="45.84985" lon="4.69197">
        <ele>220.58635</ele>
        <time>2022-10-04T13:36:41.000Z</time>
      </trkpt>
      <trkpt lat="45.84986" lon="4.69202">
        <ele>220.66402</ele>
        <time>2022-10-04T13:36:42.000Z</time>
      </trkpt>
      <trkpt lat="45.84988" lon="4.69207">
        <ele>220.67508</ele>
        <time>2022-10-04T13:36:43.000Z</time>
      </trkpt>
      <trkpt lat="45.84989" lon="4.69213">
        <ele>220.67734</ele>
        <time>2022-10-04T13:36:44.000Z</time>
      </trkpt>
      <trkpt lat="45.84991" lon="4.69218">
        <ele>220.65474</ele>
        <time>2022-10-04T13:36:45.000Z</time>
      </trkpt>
      <trkpt lat="45.84992" lon="4.69223">
        <ele>220.60274</ele>
        <time>2022-10-04T13:36:46.000Z</time>
      </trkpt>
      <trkpt lat="45.84993" lon="4.69228">
        <ele>220.52551</ele>
        <time>2022-10-04T13:36:47.000Z</time>
      </trkpt>
      <trkpt lat="45.84994" lon="4.69233">
        <ele>220.4482</ele>
        <time>2022-10-04T13:36:48.000Z</time>
      </trkpt>
      <trkpt lat="45.84995" lon="4.69237">
        <ele>220.37045</ele>
        <time>2022-10-04T13:36:49.000Z</time>
      </trkpt>
      <trkpt lat="45.84996" lon="4.69242">
        <ele>220.32027</ele>
        <time>2022-10-04T13:36:50.000Z</time>
      </trkpt>
      <trkpt lat="45.84997" lon="4.69247">
        <ele>220.33994</ele>
        <time>2022-10-04T13:36:51.000Z</time>
      </trkpt>
      <trkpt lat="45.84998" lon="4.69252">
        <ele>220.39645</ele>
        <time>2022-10-04T13:36:52.000Z</time>
      </trkpt>
      <trkpt lat="45.84999" lon="4.69256">
        <ele>220.46895</ele>
        <time>2022-10-04T13:36:53.000Z</time>
      </trkpt>
      <trkpt lat="45.85" lon="4.69261">
        <ele>220.55391</ele>
        <time>2022-10-04T13:36:54.000Z</time>
      </trkpt>
      <trkpt lat="45.85001" lon="4.69266">
        <ele>220.61429</ele>
        <time>2022-10-04T13:36:55.000Z</time>
      </trkpt>
      <trkpt lat="45.85002" lon="4.69271">
        <ele>220.66585</ele>
        <time>2022-10-04T13:36:56.000Z</time>
      </trkpt>
      <trkpt lat="45.85002" lon="4.69276">
        <ele>220.70406</ele>
        <time>2022-10-04T13:36:57.000Z</time>
      </trkpt>
      <trkpt lat="45.85003" lon="4.69281">
        <ele>220.79765</ele>
        <time>2022-10-04T13:36:58.000Z</time>
      </trkpt>
      <trkpt lat="45.85003" lon="4.69286">
        <ele>220.86934</ele>
        <time>2022-10-04T13:36:59.000Z</time>
      </trkpt>
      <trkpt lat="45.85003" lon="4.69291">
        <ele>220.92171</ele>
        <time>2022-10-04T13:37:00.000Z</time>
      </trkpt>
      <trkpt lat="45.85004" lon="4.69295">
        <ele>220.97757</ele>
        <time>2022-10-04T13:37:01.000Z</time>
      </trkpt>
      <trkpt lat="45.85004" lon="4.693">
        <ele>221.09709</ele>
        <time>2022-10-04T13:37:02.000Z</time>
      </trkpt>
      <trkpt lat="45.85005" lon="4.69305">
        <ele>221.24451</ele>
        <time>2022-10-04T13:37:03.000Z</time>
      </trkpt>
      <trkpt lat="45.85006" lon="4.69309">
        <ele>221.42998</ele>
        <time>2022-10-04T13:37:04.000Z</time>
      </trkpt>
      <trkpt lat="45.85006" lon="4.69313">
        <ele>221.61179</ele>
        <time>2022-10-04T13:37:05.000Z</time>
      </trkpt>
      <trkpt lat="45.85007" lon="4.69318">
        <ele>221.79758</ele>
        <time>2022-10-04T13:37:06.000Z</time>
      </trkpt>
      <trkpt lat="45.85007" lon="4.69322">
        <ele>222.04155</ele>
        <time>2022-10-04T13:37:07.000Z</time>
      </trkpt>
      <trkpt lat="45.85007" lon="4.69326">
        <ele>222.27922</ele>
        <time>2022-10-04T13:37:08.000Z</time>
      </trkpt>
      <trkpt lat="45.85007" lon="4.69329">
        <ele>222.56857</ele>
        <time>2022-10-04T13:37:09.000Z</time>
      </trkpt>
      <trkpt lat="45.85006" lon="4.69333">
        <ele>222.81882</ele>
        <time>2022-10-04T13:37:10.000Z</time>
      </trkpt>
      <trkpt lat="45.85005" lon="4.69337">
        <ele>223.00662</ele>
        <time>2022-10-04T13:37:11.000Z</time>
      </trkpt>
      <trkpt lat="45.85004" lon="4.6934">
        <ele>223.17075</ele>
        <time>2022-10-04T13:37:12.000Z</time>
      </trkpt>
      <trkpt lat="45.85003" lon="4.69344">
        <ele>223.28946</ele>
        <time>2022-10-04T13:37:13.000Z</time>
      </trkpt>
      <trkpt lat="45.85003" lon="4.69347">
        <ele>223.38432</ele>
        <time>2022-10-04T13:37:14.000Z</time>
      </trkpt>
      <trkpt lat="45.85002" lon="4.6935">
        <ele>223.48079</ele>
        <time>2022-10-04T13:37:15.000Z</time>
      </trkpt>
      <trkpt lat="45.85001" lon="4.69353">
        <ele>223.56453</ele>
        <time>2022-10-04T13:37:16.000Z</time>
      </trkpt>
      <trkpt lat="45.84999" lon="4.69356">
        <ele>223.64584</ele>
        <time>2022-10-04T13:37:17.000Z</time>
      </trkpt>
      <trkpt lat="45.84998" lon="4.69359">
        <ele>223.68794</ele>
        <time>2022-10-04T13:37:18.000Z</time>
      </trkpt>
      <trkpt lat="45.84997" lon="4.69363">
        <ele>223.71777</ele>
        <time>2022-10-04T13:37:19.000Z</time>
      </trkpt>
      <trkpt lat="45.84997" lon="4.69367">
        <ele>223.76237</ele>
        <time>2022-10-04T13:37:20.000Z</time>
      </trkpt>
      <trkpt lat="45.84996" lon="4.69371">
        <ele>223.83452</ele>
        <time>2022-10-04T13:37:21.000Z</time>
      </trkpt>
      <trkpt lat="45.84996" lon="4.69375">
        <ele>223.94571</ele>
        <time>2022-10-04T13:37:22.000Z</time>
      </trkpt>
      <trkpt lat="45.84996" lon="4.69378">
        <ele>224.04245</ele>
        <time>2022-10-04T13:37:23.000Z</time>
      </trkpt>
      <trkpt lat="45.84995" lon="4.69383">
        <ele>224.00993</ele>
        <time>2022-10-04T13:37:24.000Z</time>
      </trkpt>
      <trkpt lat="45.84994" lon="4.69387">
        <ele>223.91345</ele>
        <time>2022-10-04T13:37:25.000Z</time>
      </trkpt>
      <trkpt lat="45.84992" lon="4.69391">
        <ele>223.86995</ele>
        <time>2022-10-04T13:37:26.000Z</time>
      </trkpt>
      <trkpt lat="45.84991" lon="4.69396">
        <ele>223.7437</ele>
        <time>2022-10-04T13:37:27.000Z</time>
      </trkpt>
      <trkpt lat="45.84989" lon="4.694">
        <ele>223.58936</ele>
        <time>2022-10-04T13:37:28.000Z</time>
      </trkpt>
      <trkpt lat="45.84988" lon="4.69404">
        <ele>223.4238</ele>
        <time>2022-10-04T13:37:29.000Z</time>
      </trkpt>
      <trkpt lat="45.84986" lon="4.69408">
        <ele>223.27641</ele>
        <time>2022-10-04T13:37:30.000Z</time>
      </trkpt>
      <trkpt lat="45.84985" lon="4.69413">
        <ele>223.09448</ele>
        <time>2022-10-04T13:37:31.000Z</time>
      </trkpt>
      <trkpt lat="45.84984" lon="4.69416">
        <ele>222.93071</ele>
        <time>2022-10-04T13:37:32.000Z</time>
      </trkpt>
      <trkpt lat="45.84982" lon="4.6942">
        <ele>222.80582</ele>
        <time>2022-10-04T13:37:33.000Z</time>
      </trkpt>
      <trkpt lat="45.84981" lon="4.69423">
        <ele>222.7384</ele>
        <time>2022-10-04T13:37:34.000Z</time>
      </trkpt>
      <trkpt lat="45.8498" lon="4.69427">
        <ele>222.66977</ele>
        <time>2022-10-04T13:37:35.000Z</time>
      </trkpt>
      <trkpt lat="45.84978" lon="4.69432">
        <ele>222.60547</ele>
        <time>2022-10-04T13:37:36.000Z</time>
      </trkpt>
      <trkpt lat="45.84977" lon="4.69436">
        <ele>222.53206</ele>
        <time>2022-10-04T13:37:37.000Z</time>
      </trkpt>
      <trkpt lat="45.84976" lon="4.6944">
        <ele>222.46606</ele>
        <time>2022-10-04T13:37:38.000Z</time>
      </trkpt>
      <trkpt lat="45.84974" lon="4.69444">
        <ele>222.43877</ele>
        <time>2022-10-04T13:37:39.000Z</time>
      </trkpt>
      <trkpt lat="45.84972" lon="4.69447">
        <ele>222.43753</ele>
        <time>2022-10-04T13:37:40.000Z</time>
      </trkpt>
      <trkpt lat="45.8497" lon="4.69451">
        <ele>222.44177</ele>
        <time>2022-10-04T13:37:41.000Z</time>
      </trkpt>
      <trkpt lat="45.84968" lon="4.69454">
        <ele>222.4581</ele>
        <time>2022-10-04T13:37:42.000Z</time>
      </trkpt>
      <trkpt lat="45.84967" lon="4.69458">
        <ele>222.4762</ele>
        <time>2022-10-04T13:37:43.000Z</time>
      </trkpt>
      <trkpt lat="45.84965" lon="4.69461">
        <ele>222.63712</ele>
        <time>2022-10-04T13:37:44.000Z</time>
      </trkpt>
      <trkpt lat="45.84964" lon="4.69465">
        <ele>222.69141</ele>
        <time>2022-10-04T13:37:45.000Z</time>
      </trkpt>
      <trkpt lat="45.84962" lon="4.69469">
        <ele>222.70871</ele>
        <time>2022-10-04T13:37:46.000Z</time>
      </trkpt>
      <trkpt lat="45.8496" lon="4.69473">
        <ele>222.75711</ele>
        <time>2022-10-04T13:37:47.000Z</time>
      </trkpt>
      <trkpt lat="45.84958" lon="4.69476">
        <ele>222.88028</ele>
        <time>2022-10-04T13:37:48.000Z</time>
      </trkpt>
      <trkpt lat="45.84956" lon="4.69479">
        <ele>223.02036</ele>
        <time>2022-10-04T13:37:49.000Z</time>
      </trkpt>
      <trkpt lat="45.84954" lon="4.69482">
        <ele>223.17061</ele>
        <time>2022-10-04T13:37:50.000Z</time>
      </trkpt>
      <trkpt lat="45.84953" lon="4.69485">
        <ele>223.38779</ele>
        <time>2022-10-04T13:37:51.000Z</time>
      </trkpt>
      <trkpt lat="45.84951" lon="4.69488">
        <ele>223.60767</ele>
        <time>2022-10-04T13:37:52.000Z</time>
      </trkpt>
      <trkpt lat="45.84948" lon="4.69491">
        <ele>223.80887</ele>
        <time>2022-10-04T13:37:53.000Z</time>
      </trkpt>
      <trkpt lat="45.84947" lon="4.69493">
        <ele>223.94612</ele>
        <time>2022-10-04T13:37:54.000Z</time>
      </trkpt>
      <trkpt lat="45.84945" lon="4.69496">
        <ele>224.08054</ele>
        <time>2022-10-04T13:37:55.000Z</time>
      </trkpt>
      <trkpt lat="45.84944" lon="4.69499">
        <ele>224.26994</ele>
        <time>2022-10-04T13:37:56.000Z</time>
      </trkpt>
      <trkpt lat="45.84942" lon="4.69502">
        <ele>224.46317</ele>
        <time>2022-10-04T13:37:57.000Z</time>
      </trkpt>
      <trkpt lat="45.84941" lon="4.69505">
        <ele>224.69031</ele>
        <time>2022-10-04T13:37:58.000Z</time>
      </trkpt>
      <trkpt lat="45.84939" lon="4.69507">
        <ele>224.93925</ele>
        <time>2022-10-04T13:37:59.000Z</time>
      </trkpt>
      <trkpt lat="45.84938" lon="4.6951">
        <ele>225.08318</ele>
        <time>2022-10-04T13:38:00.000Z</time>
      </trkpt>
      <trkpt lat="45.84936" lon="4.69513">
        <ele>225.15891</ele>
        <time>2022-10-04T13:38:01.000Z</time>
      </trkpt>
      <trkpt lat="45.84935" lon="4.69516">
        <ele>225.13142</ele>
        <time>2022-10-04T13:38:02.000Z</time>
      </trkpt>
      <trkpt lat="45.84933" lon="4.69519">
        <ele>225.14209</ele>
        <time>2022-10-04T13:38:03.000Z</time>
      </trkpt>
      <trkpt lat="45.84931" lon="4.69521">
        <ele>225.24907</ele>
        <time>2022-10-04T13:38:04.000Z</time>
      </trkpt>
      <trkpt lat="45.84929" lon="4.69523">
        <ele>225.50415</ele>
        <time>2022-10-04T13:38:05.000Z</time>
      </trkpt>
      <trkpt lat="45.84927" lon="4.69527">
        <ele>225.72592</ele>
        <time>2022-10-04T13:38:06.000Z</time>
      </trkpt>
      <trkpt lat="45.84925" lon="4.69531">
        <ele>225.93045</ele>
        <time>2022-10-04T13:38:07.000Z</time>
      </trkpt>
      <trkpt lat="45.84924" lon="4.69535">
        <ele>226.22668</ele>
        <time>2022-10-04T13:38:08.000Z</time>
      </trkpt>
      <trkpt lat="45.84923" lon="4.69538">
        <ele>226.49466</ele>
        <time>2022-10-04T13:38:09.000Z</time>
      </trkpt>
      <trkpt lat="45.84921" lon="4.69541">
        <ele>226.74194</ele>
        <time>2022-10-04T13:38:10.000Z</time>
      </trkpt>
      <trkpt lat="45.84919" lon="4.69544">
        <ele>227.01907</ele>
        <time>2022-10-04T13:38:11.000Z</time>
      </trkpt>
      <trkpt lat="45.84917" lon="4.69547">
        <ele>227.26663</ele>
        <time>2022-10-04T13:38:12.000Z</time>
      </trkpt>
      <trkpt lat="45.84915" lon="4.69549">
        <ele>227.51888</ele>
        <time>2022-10-04T13:38:13.000Z</time>
      </trkpt>
      <trkpt lat="45.84913" lon="4.69552">
        <ele>227.83369</ele>
        <time>2022-10-04T13:38:14.000Z</time>
      </trkpt>
      <trkpt lat="45.84911" lon="4.69554">
        <ele>228.16292</ele>
        <time>2022-10-04T13:38:15.000Z</time>
      </trkpt>
      <trkpt lat="45.84909" lon="4.69557">
        <ele>228.43477</ele>
        <time>2022-10-04T13:38:16.000Z</time>
      </trkpt>
      <trkpt lat="45.84907" lon="4.6956">
        <ele>228.7811</ele>
        <time>2022-10-04T13:38:17.000Z</time>
      </trkpt>
      <trkpt lat="45.84905" lon="4.69564">
        <ele>229.14822</ele>
        <time>2022-10-04T13:38:18.000Z</time>
      </trkpt>
      <trkpt lat="45.84903" lon="4.69567">
        <ele>229.45761</ele>
        <time>2022-10-04T13:38:19.000Z</time>
      </trkpt>
      <trkpt lat="45.84901" lon="4.6957">
        <ele>229.87488</ele>
        <time>2022-10-04T13:38:20.000Z</time>
      </trkpt>
      <trkpt lat="45.84899" lon="4.69572">
        <ele>230.34702</ele>
        <time>2022-10-04T13:38:21.000Z</time>
      </trkpt>
      <trkpt lat="45.84897" lon="4.69575">
        <ele>230.95264</ele>
        <time>2022-10-04T13:38:22.000Z</time>
      </trkpt>
      <trkpt lat="45.84895" lon="4.69577">
        <ele>231.45903</ele>
        <time>2022-10-04T13:38:23.000Z</time>
      </trkpt>
      <trkpt lat="45.84893" lon="4.69578">
        <ele>231.81133</ele>
        <time>2022-10-04T13:38:24.000Z</time>
      </trkpt>
      <trkpt lat="45.84891" lon="4.6958">
        <ele>232.16544</ele>
        <time>2022-10-04T13:38:25.000Z</time>
      </trkpt>
      <trkpt lat="45.84888" lon="4.69581">
        <ele>232.59966</ele>
        <time>2022-10-04T13:38:26.000Z</time>
      </trkpt>
      <trkpt lat="45.84886" lon="4.69582">
        <ele>233.04556</ele>
        <time>2022-10-04T13:38:27.000Z</time>
      </trkpt>
      <trkpt lat="45.84884" lon="4.69583">
        <ele>233.3678</ele>
        <time>2022-10-04T13:38:28.000Z</time>
      </trkpt>
      <trkpt lat="45.84882" lon="4.69584">
        <ele>233.68343</ele>
        <time>2022-10-04T13:38:29.000Z</time>
      </trkpt>
      <trkpt lat="45.84879" lon="4.69586">
        <ele>233.98308</ele>
        <time>2022-10-04T13:38:30.000Z</time>
      </trkpt>
      <trkpt lat="45.84877" lon="4.69587">
        <ele>234.20784</ele>
        <time>2022-10-04T13:38:31.000Z</time>
      </trkpt>
      <trkpt lat="45.84876" lon="4.69589">
        <ele>234.52446</ele>
        <time>2022-10-04T13:38:32.000Z</time>
      </trkpt>
      <trkpt lat="45.84875" lon="4.69592">
        <ele>234.79678</ele>
        <time>2022-10-04T13:38:33.000Z</time>
      </trkpt>
      <trkpt lat="45.84876" lon="4.69594">
        <ele>234.99869</ele>
        <time>2022-10-04T13:38:34.000Z</time>
      </trkpt>
      <trkpt lat="45.84879" lon="4.69596">
        <ele>235.20987</ele>
        <time>2022-10-04T13:38:35.000Z</time>
      </trkpt>
      <trkpt lat="45.84882" lon="4.69595">
        <ele>235.49529</ele>
        <time>2022-10-04T13:38:36.000Z</time>
      </trkpt>
      <trkpt lat="45.84883" lon="4.69591">
        <ele>235.72632</ele>
        <time>2022-10-04T13:38:37.000Z</time>
      </trkpt>
      <trkpt lat="45.84883" lon="4.69587">
        <ele>235.96301</ele>
        <time>2022-10-04T13:38:38.000Z</time>
      </trkpt>
      <trkpt lat="45.84881" lon="4.69584">
        <ele>236.13028</ele>
        <time>2022-10-04T13:38:39.000Z</time>
      </trkpt>
      <trkpt lat="45.84879" lon="4.69583">
        <ele>236.25565</ele>
        <time>2022-10-04T13:38:40.000Z</time>
      </trkpt>
      <trkpt lat="45.84877" lon="4.69582">
        <ele>236.37764</ele>
        <time>2022-10-04T13:38:41.000Z</time>
      </trkpt>
      <trkpt lat="45.84875" lon="4.69581">
        <ele>236.39294</ele>
        <time>2022-10-04T13:38:42.000Z</time>
      </trkpt>
      <trkpt lat="45.84873" lon="4.69581">
        <ele>236.46921</ele>
        <time>2022-10-04T13:38:43.000Z</time>
      </trkpt>
      <trkpt lat="45.84871" lon="4.69583">
        <ele>236.53369</ele>
        <time>2022-10-04T13:38:45.000Z</time>
      </trkpt>
      <trkpt lat="45.84871" lon="4.69588">
        <ele>236.53438</ele>
        <time>2022-10-04T13:41:53.000Z</time>
      </trkpt>
      <trkpt lat="45.8487" lon="4.69591">
        <ele>236.4843</ele>
        <time>2022-10-04T13:41:54.000Z</time>
      </trkpt>
      <trkpt lat="45.84869" lon="4.69593">
        <ele>236.42038</ele>
        <time>2022-10-04T13:41:55.000Z</time>
      </trkpt>
      <trkpt lat="45.84868" lon="4.69595">
        <ele>236.34993</ele>
        <time>2022-10-04T13:41:56.000Z</time>
      </trkpt>
      <trkpt lat="45.84866" lon="4.69596">
        <ele>236.36868</ele>
        <time>2022-10-04T13:41:57.000Z</time>
      </trkpt>
      <trkpt lat="45.84864" lon="4.69597">
        <ele>236.39957</ele>
        <time>2022-10-04T13:41:58.000Z</time>
      </trkpt>
      <trkpt lat="45.84862" lon="4.69597">
        <ele>236.4451</ele>
        <time>2022-10-04T13:41:59.000Z</time>
      </trkpt>
      <trkpt lat="45.84859" lon="4.69597">
        <ele>236.35385</ele>
        <time>2022-10-04T13:42:00.000Z</time>
      </trkpt>
      <trkpt lat="45.84856" lon="4.69597">
        <ele>236.27885</ele>
        <time>2022-10-04T13:42:01.000Z</time>
      </trkpt>
      <trkpt lat="45.84854" lon="4.69598">
        <ele>236.26196</ele>
        <time>2022-10-04T13:42:02.000Z</time>
      </trkpt>
      <trkpt lat="45.84852" lon="4.69599">
        <ele>236.16948</ele>
        <time>2022-10-04T13:42:03.000Z</time>
      </trkpt>
      <trkpt lat="45.84849" lon="4.69599">
        <ele>235.97668</ele>
        <time>2022-10-04T13:42:04.000Z</time>
      </trkpt>
      <trkpt lat="45.84847" lon="4.69599">
        <ele>235.77036</ele>
        <time>2022-10-04T13:42:05.000Z</time>
      </trkpt>
      <trkpt lat="45.84845" lon="4.696">
        <ele>235.49756</ele>
        <time>2022-10-04T13:42:06.000Z</time>
      </trkpt>
      <trkpt lat="45.84843" lon="4.69601">
        <ele>235.25784</ele>
        <time>2022-10-04T13:42:07.000Z</time>
      </trkpt>
      <trkpt lat="45.84841" lon="4.69601">
        <ele>235.11137</ele>
        <time>2022-10-04T13:42:08.000Z</time>
      </trkpt>
      <trkpt lat="45.84839" lon="4.69602">
        <ele>234.94734</ele>
        <time>2022-10-04T13:42:09.000Z</time>
      </trkpt>
      <trkpt lat="45.84837" lon="4.69603">
        <ele>234.76352</ele>
        <time>2022-10-04T13:42:10.000Z</time>
      </trkpt>
      <trkpt lat="45.84834" lon="4.69604">
        <ele>234.56877</ele>
        <time>2022-10-04T13:42:11.000Z</time>
      </trkpt>
      <trkpt lat="45.84832" lon="4.69605">
        <ele>234.28194</ele>
        <time>2022-10-04T13:42:12.000Z</time>
      </trkpt>
      <trkpt lat="45.84829" lon="4.69605">
        <ele>233.93372</ele>
        <time>2022-10-04T13:42:13.000Z</time>
      </trkpt>
      <trkpt lat="45.84826" lon="4.69605">
        <ele>233.48616</ele>
        <time>2022-10-04T13:42:14.000Z</time>
      </trkpt>
      <trkpt lat="45.84824" lon="4.69605">
        <ele>232.93404</ele>
        <time>2022-10-04T13:42:15.000Z</time>
      </trkpt>
      <trkpt lat="45.84821" lon="4.69605">
        <ele>232.35727</ele>
        <time>2022-10-04T13:42:16.000Z</time>
      </trkpt>
      <trkpt lat="45.84819" lon="4.69605">
        <ele>231.66617</ele>
        <time>2022-10-04T13:42:17.000Z</time>
      </trkpt>
      <trkpt lat="45.84816" lon="4.69605">
        <ele>231.01521</ele>
        <time>2022-10-04T13:42:18.000Z</time>
      </trkpt>
      <trkpt lat="45.84814" lon="4.69604">
        <ele>230.39261</ele>
        <time>2022-10-04T13:42:19.000Z</time>
      </trkpt>
      <trkpt lat="45.84811" lon="4.69604">
        <ele>229.83186</ele>
        <time>2022-10-04T13:42:20.000Z</time>
      </trkpt>
      <trkpt lat="45.84809" lon="4.69603">
        <ele>229.26718</ele>
        <time>2022-10-04T13:42:21.000Z</time>
      </trkpt>
      <trkpt lat="45.84807" lon="4.69603">
        <ele>228.68367</ele>
        <time>2022-10-04T13:42:22.000Z</time>
      </trkpt>
      <trkpt lat="45.84804" lon="4.69604">
        <ele>228.19707</ele>
        <time>2022-10-04T13:42:23.000Z</time>
      </trkpt>
      <trkpt lat="45.84801" lon="4.69605">
        <ele>227.79688</ele>
        <time>2022-10-04T13:42:24.000Z</time>
      </trkpt>
      <trkpt lat="45.84799" lon="4.69605">
        <ele>227.40698</ele>
        <time>2022-10-04T13:42:25.000Z</time>
      </trkpt>
      <trkpt lat="45.84796" lon="4.69606">
        <ele>227.08052</ele>
        <time>2022-10-04T13:42:26.000Z</time>
      </trkpt>
      <trkpt lat="45.84794" lon="4.69608">
        <ele>226.87048</ele>
        <time>2022-10-04T13:42:27.000Z</time>
      </trkpt>
      <trkpt lat="45.84792" lon="4.69609">
        <ele>226.59976</ele>
        <time>2022-10-04T13:42:28.000Z</time>
      </trkpt>
      <trkpt lat="45.84789" lon="4.69611">
        <ele>226.40817</ele>
        <time>2022-10-04T13:42:29.000Z</time>
      </trkpt>
      <trkpt lat="45.84787" lon="4.69612">
        <ele>226.33231</ele>
        <time>2022-10-04T13:42:30.000Z</time>
      </trkpt>
      <trkpt lat="45.84785" lon="4.69614">
        <ele>226.21721</ele>
        <time>2022-10-04T13:42:31.000Z</time>
      </trkpt>
      <trkpt lat="45.84783" lon="4.69616">
        <ele>226.1978</ele>
        <time>2022-10-04T13:42:32.000Z</time>
      </trkpt>
      <trkpt lat="45.84781" lon="4.69619">
        <ele>226.2924</ele>
        <time>2022-10-04T13:42:33.000Z</time>
      </trkpt>
      <trkpt lat="45.84779" lon="4.69621">
        <ele>226.49033</ele>
        <time>2022-10-04T13:42:34.000Z</time>
      </trkpt>
      <trkpt lat="45.84777" lon="4.69624">
        <ele>226.84396</ele>
        <time>2022-10-04T13:42:35.000Z</time>
      </trkpt>
      <trkpt lat="45.84776" lon="4.69627">
        <ele>227.24915</ele>
        <time>2022-10-04T13:42:36.000Z</time>
      </trkpt>
      <trkpt lat="45.84774" lon="4.69631">
        <ele>227.65649</ele>
        <time>2022-10-04T13:42:37.000Z</time>
      </trkpt>
      <trkpt lat="45.84773" lon="4.69634">
        <ele>227.99467</ele>
        <time>2022-10-04T13:42:38.000Z</time>
      </trkpt>
      <trkpt lat="45.84771" lon="4.69637">
        <ele>228.35593</ele>
        <time>2022-10-04T13:42:39.000Z</time>
      </trkpt>
      <trkpt lat="45.8477" lon="4.69641">
        <ele>228.73112</ele>
        <time>2022-10-04T13:42:40.000Z</time>
      </trkpt>
      <trkpt lat="45.84769" lon="4.69645">
        <ele>228.9429</ele>
        <time>2022-10-04T13:42:41.000Z</time>
      </trkpt>
      <trkpt lat="45.84768" lon="4.69648">
        <ele>229.15329</ele>
        <time>2022-10-04T13:42:42.000Z</time>
      </trkpt>
      <trkpt lat="45.84767" lon="4.69651">
        <ele>229.33183</ele>
        <time>2022-10-04T13:42:43.000Z</time>
      </trkpt>
      <trkpt lat="45.84766" lon="4.69655">
        <ele>229.54939</ele>
        <time>2022-10-04T13:42:44.000Z</time>
      </trkpt>
      <trkpt lat="45.84765" lon="4.69658">
        <ele>229.7354</ele>
        <time>2022-10-04T13:42:45.000Z</time>
      </trkpt>
      <trkpt lat="45.84765" lon="4.69661">
        <ele>229.92191</ele>
        <time>2022-10-04T13:42:46.000Z</time>
      </trkpt>
      <trkpt lat="45.84764" lon="4.69664">
        <ele>229.9803</ele>
        <time>2022-10-04T13:42:47.000Z</time>
      </trkpt>
      <trkpt lat="45.84762" lon="4.69668">
        <ele>229.88596</ele>
        <time>2022-10-04T13:42:48.000Z</time>
      </trkpt>
      <trkpt lat="45.84761" lon="4.6967">
        <ele>229.62411</ele>
        <time>2022-10-04T13:42:49.000Z</time>
      </trkpt>
      <trkpt lat="45.8476" lon="4.69674">
        <ele>229.36292</ele>
        <time>2022-10-04T13:42:50.000Z</time>
      </trkpt>
      <trkpt lat="45.84759" lon="4.69676">
        <ele>229.2291</ele>
        <time>2022-10-04T13:42:51.000Z</time>
      </trkpt>
      <trkpt lat="45.84758" lon="4.69679">
        <ele>229.09872</ele>
        <time>2022-10-04T13:42:52.000Z</time>
      </trkpt>
      <trkpt lat="45.84757" lon="4.69683">
        <ele>228.90335</ele>
        <time>2022-10-04T13:42:53.000Z</time>
      </trkpt>
      <trkpt lat="45.84756" lon="4.69686">
        <ele>228.6563</ele>
        <time>2022-10-04T13:42:54.000Z</time>
      </trkpt>
      <trkpt lat="45.84754" lon="4.6969">
        <ele>228.35201</ele>
        <time>2022-10-04T13:42:55.000Z</time>
      </trkpt>
      <trkpt lat="45.84754" lon="4.69693">
        <ele>228.04443</ele>
        <time>2022-10-04T13:42:56.000Z</time>
      </trkpt>
      <trkpt lat="45.84753" lon="4.69696">
        <ele>227.76981</ele>
        <time>2022-10-04T13:42:57.000Z</time>
      </trkpt>
      <trkpt lat="45.84752" lon="4.69699">
        <ele>227.55022</ele>
        <time>2022-10-04T13:42:58.000Z</time>
      </trkpt>
      <trkpt lat="45.8475" lon="4.69702">
        <ele>227.25964</ele>
        <time>2022-10-04T13:42:59.000Z</time>
      </trkpt>
      <trkpt lat="45.84749" lon="4.69705">
        <ele>226.93286</ele>
        <time>2022-10-04T13:43:00.000Z</time>
      </trkpt>
      <trkpt lat="45.84747" lon="4.69709">
        <ele>226.79971</ele>
        <time>2022-10-04T13:43:01.000Z</time>
      </trkpt>
      <trkpt lat="45.84745" lon="4.69713">
        <ele>226.69331</ele>
        <time>2022-10-04T13:43:02.000Z</time>
      </trkpt>
      <trkpt lat="45.84743" lon="4.69716">
        <ele>226.61588</ele>
        <time>2022-10-04T13:43:03.000Z</time>
      </trkpt>
      <trkpt lat="45.84741" lon="4.69719">
        <ele>226.4913</ele>
        <time>2022-10-04T13:43:04.000Z</time>
      </trkpt>
      <trkpt lat="45.84739" lon="4.69722">
        <ele>226.46774</ele>
        <time>2022-10-04T13:43:05.000Z</time>
      </trkpt>
      <trkpt lat="45.84736" lon="4.69725">
        <ele>226.39063</ele>
        <time>2022-10-04T13:43:06.000Z</time>
      </trkpt>
      <trkpt lat="45.84734" lon="4.69727">
        <ele>226.32288</ele>
        <time>2022-10-04T13:43:07.000Z</time>
      </trkpt>
      <trkpt lat="45.84732" lon="4.6973">
        <ele>226.42654</ele>
        <time>2022-10-04T13:43:08.000Z</time>
      </trkpt>
      <trkpt lat="45.84729" lon="4.69732">
        <ele>226.64249</ele>
        <time>2022-10-04T13:43:09.000Z</time>
      </trkpt>
      <trkpt lat="45.84727" lon="4.69734">
        <ele>226.76981</ele>
        <time>2022-10-04T13:43:10.000Z</time>
      </trkpt>
      <trkpt lat="45.84725" lon="4.69737">
        <ele>226.79085</ele>
        <time>2022-10-04T13:43:11.000Z</time>
      </trkpt>
      <trkpt lat="45.84723" lon="4.69738">
        <ele>226.89597</ele>
        <time>2022-10-04T13:43:12.000Z</time>
      </trkpt>
      <trkpt lat="45.84721" lon="4.69739">
        <ele>227.08167</ele>
        <time>2022-10-04T13:43:13.000Z</time>
      </trkpt>
      <trkpt lat="45.8472" lon="4.6974">
        <ele>227.31892</ele>
        <time>2022-10-04T13:43:14.000Z</time>
      </trkpt>
      <trkpt lat="45.84717" lon="4.69741">
        <ele>227.58684</ele>
        <time>2022-10-04T13:43:15.000Z</time>
      </trkpt>
      <trkpt lat="45.84716" lon="4.69742">
        <ele>227.84363</ele>
        <time>2022-10-04T13:43:16.000Z</time>
      </trkpt>
      <trkpt lat="45.84714" lon="4.69742">
        <ele>228.12674</ele>
        <time>2022-10-04T13:43:17.000Z</time>
      </trkpt>
      <trkpt lat="45.84711" lon="4.69742">
        <ele>228.40202</ele>
        <time>2022-10-04T13:43:18.000Z</time>
      </trkpt>
      <trkpt lat="45.84709" lon="4.69743">
        <ele>228.67847</ele>
        <time>2022-10-04T13:43:19.000Z</time>
      </trkpt>
      <trkpt lat="45.84706" lon="4.69743">
        <ele>229.01387</ele>
        <time>2022-10-04T13:43:20.000Z</time>
      </trkpt>
      <trkpt lat="45.84703" lon="4.69743">
        <ele>229.3187</ele>
        <time>2022-10-04T13:43:21.000Z</time>
      </trkpt>
      <trkpt lat="45.84701" lon="4.69744">
        <ele>229.59976</ele>
        <time>2022-10-04T13:43:22.000Z</time>
      </trkpt>
      <trkpt lat="45.84698" lon="4.69744">
        <ele>229.89407</ele>
        <time>2022-10-04T13:43:23.000Z</time>
      </trkpt>
      <trkpt lat="45.84695" lon="4.69743">
        <ele>230.17859</ele>
        <time>2022-10-04T13:43:24.000Z</time>
      </trkpt>
      <trkpt lat="45.84692" lon="4.69743">
        <ele>230.43359</ele>
        <time>2022-10-04T13:43:25.000Z</time>
      </trkpt>
      <trkpt lat="45.84689" lon="4.69743">
        <ele>230.78642</ele>
        <time>2022-10-04T13:43:26.000Z</time>
      </trkpt>
      <trkpt lat="45.84686" lon="4.69743">
        <ele>231.23604</ele>
        <time>2022-10-04T13:43:27.000Z</time>
      </trkpt>
      <trkpt lat="45.84683" lon="4.69743">
        <ele>231.68637</ele>
        <time>2022-10-04T13:43:28.000Z</time>
      </trkpt>
      <trkpt lat="45.84681" lon="4.69742">
        <ele>232.13461</ele>
        <time>2022-10-04T13:43:29.000Z</time>
      </trkpt>
      <trkpt lat="45.84679" lon="4.69742">
        <ele>232.59053</ele>
        <time>2022-10-04T13:43:30.000Z</time>
      </trkpt>
      <trkpt lat="45.84677" lon="4.69741">
        <ele>233.05391</ele>
        <time>2022-10-04T13:43:31.000Z</time>
      </trkpt>
      <trkpt lat="45.84673" lon="4.69741">
        <ele>233.49438</ele>
        <time>2022-10-04T13:43:32.000Z</time>
      </trkpt>
      <trkpt lat="45.8467" lon="4.6974">
        <ele>233.95938</ele>
        <time>2022-10-04T13:43:33.000Z</time>
      </trkpt>
      <trkpt lat="45.84667" lon="4.69739">
        <ele>234.4521</ele>
        <time>2022-10-04T13:43:34.000Z</time>
      </trkpt>
      <trkpt lat="45.84664" lon="4.69739">
        <ele>234.9061</ele>
        <time>2022-10-04T13:43:35.000Z</time>
      </trkpt>
      <trkpt lat="45.84661" lon="4.69738">
        <ele>235.40091</ele>
        <time>2022-10-04T13:43:36.000Z</time>
      </trkpt>
      <trkpt lat="45.84658" lon="4.69737">
        <ele>235.80795</ele>
        <time>2022-10-04T13:43:37.000Z</time>
      </trkpt>
      <trkpt lat="45.84656" lon="4.69737">
        <ele>236.23759</ele>
        <time>2022-10-04T13:43:38.000Z</time>
      </trkpt>
      <trkpt lat="45.84654" lon="4.69736">
        <ele>236.76741</ele>
        <time>2022-10-04T13:43:39.000Z</time>
      </trkpt>
      <trkpt lat="45.84651" lon="4.69736">
        <ele>237.26474</ele>
        <time>2022-10-04T13:43:40.000Z</time>
      </trkpt>
      <trkpt lat="45.84649" lon="4.69736">
        <ele>237.8438</ele>
        <time>2022-10-04T13:43:41.000Z</time>
      </trkpt>
      <trkpt lat="45.84646" lon="4.69736">
        <ele>238.38016</ele>
        <time>2022-10-04T13:43:42.000Z</time>
      </trkpt>
      <trkpt lat="45.84644" lon="4.69736">
        <ele>238.82504</ele>
        <time>2022-10-04T13:43:43.000Z</time>
      </trkpt>
      <trkpt lat="45.84641" lon="4.69736">
        <ele>239.17517</ele>
        <time>2022-10-04T13:43:44.000Z</time>
      </trkpt>
      <trkpt lat="45.84639" lon="4.69736">
        <ele>239.56355</ele>
        <time>2022-10-04T13:43:45.000Z</time>
      </trkpt>
      <trkpt lat="45.84637" lon="4.69736">
        <ele>239.79541</ele>
        <time>2022-10-04T13:43:46.000Z</time>
      </trkpt>
      <trkpt lat="45.84634" lon="4.69735">
        <ele>240.02861</ele>
        <time>2022-10-04T13:43:47.000Z</time>
      </trkpt>
      <trkpt lat="45.84631" lon="4.69736">
        <ele>240.08521</ele>
        <time>2022-10-04T13:43:48.000Z</time>
      </trkpt>
      <trkpt lat="45.84628" lon="4.69737">
        <ele>240.14595</ele>
        <time>2022-10-04T13:43:49.000Z</time>
      </trkpt>
      <trkpt lat="45.84625" lon="4.69737">
        <ele>240.21921</ele>
        <time>2022-10-04T13:43:50.000Z</time>
      </trkpt>
      <trkpt lat="45.84622" lon="4.69737">
        <ele>240.25627</ele>
        <time>2022-10-04T13:43:51.000Z</time>
      </trkpt>
      <trkpt lat="45.84619" lon="4.69737">
        <ele>240.27185</ele>
        <time>2022-10-04T13:43:52.000Z</time>
      </trkpt>
      <trkpt lat="45.84617" lon="4.69737">
        <ele>240.16924</ele>
        <time>2022-10-04T13:43:53.000Z</time>
      </trkpt>
      <trkpt lat="45.84614" lon="4.69737">
        <ele>240.13013</ele>
        <time>2022-10-04T13:43:54.000Z</time>
      </trkpt>
      <trkpt lat="45.84611" lon="4.69737">
        <ele>240.16101</ele>
        <time>2022-10-04T13:43:55.000Z</time>
      </trkpt>
      <trkpt lat="45.84608" lon="4.69737">
        <ele>240.08847</ele>
        <time>2022-10-04T13:43:56.000Z</time>
      </trkpt>
      <trkpt lat="45.84606" lon="4.69737">
        <ele>240.04716</ele>
        <time>2022-10-04T13:43:57.000Z</time>
      </trkpt>
      <trkpt lat="45.84603" lon="4.69737">
        <ele>240.00554</ele>
        <time>2022-10-04T13:43:58.000Z</time>
      </trkpt>
      <trkpt lat="45.84601" lon="4.69738">
        <ele>239.91267</ele>
        <time>2022-10-04T13:43:59.000Z</time>
      </trkpt>
      <trkpt lat="45.84598" lon="4.69738">
        <ele>239.81381</ele>
        <time>2022-10-04T13:44:00.000Z</time>
      </trkpt>
      <trkpt lat="45.84596" lon="4.69738">
        <ele>239.62312</ele>
        <time>2022-10-04T13:44:01.000Z</time>
      </trkpt>
      <trkpt lat="45.84594" lon="4.69739">
        <ele>239.51103</ele>
        <time>2022-10-04T13:44:02.000Z</time>
      </trkpt>
      <trkpt lat="45.84592" lon="4.69739">
        <ele>239.45268</ele>
        <time>2022-10-04T13:44:03.000Z</time>
      </trkpt>
      <trkpt lat="45.84589" lon="4.6974">
        <ele>239.48819</ele>
        <time>2022-10-04T13:44:04.000Z</time>
      </trkpt>
      <trkpt lat="45.84586" lon="4.69741">
        <ele>239.46318</ele>
        <time>2022-10-04T13:44:05.000Z</time>
      </trkpt>
      <trkpt lat="45.84583" lon="4.69742">
        <ele>239.54922</ele>
        <time>2022-10-04T13:44:06.000Z</time>
      </trkpt>
      <trkpt lat="45.8458" lon="4.69743">
        <ele>239.61636</ele>
        <time>2022-10-04T13:44:07.000Z</time>
      </trkpt>
      <trkpt lat="45.84578" lon="4.69745">
        <ele>239.85184</ele>
        <time>2022-10-04T13:44:08.000Z</time>
      </trkpt>
      <trkpt lat="45.84575" lon="4.69746">
        <ele>240.09042</ele>
        <time>2022-10-04T13:44:09.000Z</time>
      </trkpt>
      <trkpt lat="45.84572" lon="4.69746">
        <ele>240.28983</ele>
        <time>2022-10-04T13:44:10.000Z</time>
      </trkpt>
      <trkpt lat="45.84569" lon="4.69747">
        <ele>240.56235</ele>
        <time>2022-10-04T13:44:11.000Z</time>
      </trkpt>
      <trkpt lat="45.84566" lon="4.69747">
        <ele>240.74072</ele>
        <time>2022-10-04T13:44:12.000Z</time>
      </trkpt>
      <trkpt lat="45.84564" lon="4.69747">
        <ele>241.06531</ele>
        <time>2022-10-04T13:44:13.000Z</time>
      </trkpt>
      <trkpt lat="45.84561" lon="4.69748">
        <ele>241.25574</ele>
        <time>2022-10-04T13:44:14.000Z</time>
      </trkpt>
      <trkpt lat="45.84557" lon="4.69748">
        <ele>241.37419</ele>
        <time>2022-10-04T13:44:15.000Z</time>
      </trkpt>
      <trkpt lat="45.84554" lon="4.69748">
        <ele>241.54446</ele>
        <time>2022-10-04T13:44:16.000Z</time>
      </trkpt>
      <trkpt lat="45.84551" lon="4.69748">
        <ele>241.74841</ele>
        <time>2022-10-04T13:44:17.000Z</time>
      </trkpt>
      <trkpt lat="45.84549" lon="4.69748">
        <ele>241.88516</ele>
        <time>2022-10-04T13:44:18.000Z</time>
      </trkpt>
      <trkpt lat="45.84546" lon="4.69748">
        <ele>242.05515</ele>
        <time>2022-10-04T13:44:19.000Z</time>
      </trkpt>
      <trkpt lat="45.84544" lon="4.69748">
        <ele>242.23904</ele>
        <time>2022-10-04T13:44:20.000Z</time>
      </trkpt>
      <trkpt lat="45.84541" lon="4.69748">
        <ele>242.42049</ele>
        <time>2022-10-04T13:44:21.000Z</time>
      </trkpt>
      <trkpt lat="45.84539" lon="4.69748">
        <ele>242.54329</ele>
        <time>2022-10-04T13:44:22.000Z</time>
      </trkpt>
      <trkpt lat="45.84536" lon="4.69748">
        <ele>242.63347</ele>
        <time>2022-10-04T13:44:23.000Z</time>
      </trkpt>
      <trkpt lat="45.84532" lon="4.69748">
        <ele>242.65967</ele>
        <time>2022-10-04T13:44:24.000Z</time>
      </trkpt>
      <trkpt lat="45.84527" lon="4.69749">
        <ele>242.70071</ele>
        <time>2022-10-04T13:44:25.000Z</time>
      </trkpt>
      <trkpt lat="45.84524" lon="4.6975">
        <ele>242.72983</ele>
        <time>2022-10-04T13:44:26.000Z</time>
      </trkpt>
      <trkpt lat="45.8452" lon="4.69751">
        <ele>242.74043</ele>
        <time>2022-10-04T13:44:27.000Z</time>
      </trkpt>
      <trkpt lat="45.84516" lon="4.69752">
        <ele>242.76973</ele>
        <time>2022-10-04T13:44:28.000Z</time>
      </trkpt>
      <trkpt lat="45.84513" lon="4.69753">
        <ele>242.85318</ele>
        <time>2022-10-04T13:44:29.000Z</time>
      </trkpt>
      <trkpt lat="45.8451" lon="4.69753">
        <ele>242.9838</ele>
        <time>2022-10-04T13:44:30.000Z</time>
      </trkpt>
      <trkpt lat="45.84507" lon="4.69754">
        <ele>243.09396</ele>
        <time>2022-10-04T13:44:31.000Z</time>
      </trkpt>
      <trkpt lat="45.84504" lon="4.69755">
        <ele>243.25745</ele>
        <time>2022-10-04T13:44:32.000Z</time>
      </trkpt>
      <trkpt lat="45.84501" lon="4.69754">
        <ele>243.36621</ele>
        <time>2022-10-04T13:44:33.000Z</time>
      </trkpt>
      <trkpt lat="45.84498" lon="4.69754">
        <ele>243.52304</ele>
        <time>2022-10-04T13:44:34.000Z</time>
      </trkpt>
      <trkpt lat="45.84495" lon="4.69754">
        <ele>243.66731</ele>
        <time>2022-10-04T13:44:35.000Z</time>
      </trkpt>
      <trkpt lat="45.84493" lon="4.69754">
        <ele>243.83968</ele>
        <time>2022-10-04T13:44:36.000Z</time>
      </trkpt>
      <trkpt lat="45.8449" lon="4.69754">
        <ele>244.05766</ele>
        <time>2022-10-04T13:44:37.000Z</time>
      </trkpt>
      <trkpt lat="45.84487" lon="4.69754">
        <ele>244.32895</ele>
        <time>2022-10-04T13:44:38.000Z</time>
      </trkpt>
      <trkpt lat="45.84485" lon="4.69754">
        <ele>244.49467</ele>
        <time>2022-10-04T13:44:39.000Z</time>
      </trkpt>
      <trkpt lat="45.84483" lon="4.69754">
        <ele>244.66553</ele>
        <time>2022-10-04T13:44:40.000Z</time>
      </trkpt>
      <trkpt lat="45.84481" lon="4.69754">
        <ele>244.87537</ele>
        <time>2022-10-04T13:44:41.000Z</time>
      </trkpt>
      <trkpt lat="45.84479" lon="4.69754">
        <ele>245.13257</ele>
        <time>2022-10-04T13:44:42.000Z</time>
      </trkpt>
      <trkpt lat="45.84477" lon="4.69754">
        <ele>245.44304</ele>
        <time>2022-10-04T13:44:43.000Z</time>
      </trkpt>
      <trkpt lat="45.84475" lon="4.69754">
        <ele>245.79761</ele>
        <time>2022-10-04T13:44:44.000Z</time>
      </trkpt>
      <trkpt lat="45.84472" lon="4.69754">
        <ele>246.17297</ele>
        <time>2022-10-04T13:44:45.000Z</time>
      </trkpt>
      <trkpt lat="45.8447" lon="4.69754">
        <ele>246.47246</ele>
        <time>2022-10-04T13:44:46.000Z</time>
      </trkpt>
      <trkpt lat="45.84467" lon="4.69755">
        <ele>246.73466</ele>
        <time>2022-10-04T13:44:47.000Z</time>
      </trkpt>
      <trkpt lat="45.84465" lon="4.69755">
        <ele>246.95029</ele>
        <time>2022-10-04T13:44:48.000Z</time>
      </trkpt>
      <trkpt lat="45.84462" lon="4.69756">
        <ele>247.14136</ele>
        <time>2022-10-04T13:44:49.000Z</time>
      </trkpt>
      <trkpt lat="45.8446" lon="4.69757">
        <ele>247.31665</ele>
        <time>2022-10-04T13:44:50.000Z</time>
      </trkpt>
      <trkpt lat="45.84457" lon="4.69757">
        <ele>247.5155</ele>
        <time>2022-10-04T13:44:51.000Z</time>
      </trkpt>
      <trkpt lat="45.84454" lon="4.69757">
        <ele>247.72942</ele>
        <time>2022-10-04T13:44:52.000Z</time>
      </trkpt>
      <trkpt lat="45.84451" lon="4.69758">
        <ele>247.96455</ele>
        <time>2022-10-04T13:44:53.000Z</time>
      </trkpt>
      <trkpt lat="45.84448" lon="4.69758">
        <ele>248.1385</ele>
        <time>2022-10-04T13:44:54.000Z</time>
      </trkpt>
      <trkpt lat="45.84445" lon="4.69759">
        <ele>248.28711</ele>
        <time>2022-10-04T13:44:55.000Z</time>
      </trkpt>
      <trkpt lat="45.84443" lon="4.69759">
        <ele>248.36491</ele>
        <time>2022-10-04T13:44:56.000Z</time>
      </trkpt>
      <trkpt lat="45.8444" lon="4.69759">
        <ele>248.40288</ele>
        <time>2022-10-04T13:44:57.000Z</time>
      </trkpt>
      <trkpt lat="45.84437" lon="4.69759">
        <ele>248.36638</ele>
        <time>2022-10-04T13:44:58.000Z</time>
      </trkpt>
      <trkpt lat="45.84434" lon="4.6976">
        <ele>248.44577</ele>
        <time>2022-10-04T13:44:59.000Z</time>
      </trkpt>
      <trkpt lat="45.84432" lon="4.6976">
        <ele>248.48172</ele>
        <time>2022-10-04T13:45:00.000Z</time>
      </trkpt>
      <trkpt lat="45.8443" lon="4.69761">
        <ele>248.51163</ele>
        <time>2022-10-04T13:45:01.000Z</time>
      </trkpt>
      <trkpt lat="45.84427" lon="4.69761">
        <ele>248.52087</ele>
        <time>2022-10-04T13:45:02.000Z</time>
      </trkpt>
      <trkpt lat="45.84425" lon="4.69762">
        <ele>248.54221</ele>
        <time>2022-10-04T13:45:03.000Z</time>
      </trkpt>
      <trkpt lat="45.84423" lon="4.69763">
        <ele>248.59358</ele>
        <time>2022-10-04T13:45:04.000Z</time>
      </trkpt>
      <trkpt lat="45.8442" lon="4.69764">
        <ele>248.61882</ele>
        <time>2022-10-04T13:45:05.000Z</time>
      </trkpt>
      <trkpt lat="45.84418" lon="4.69765">
        <ele>248.68845</ele>
        <time>2022-10-04T13:45:06.000Z</time>
      </trkpt>
      <trkpt lat="45.84415" lon="4.69765">
        <ele>248.814</ele>
        <time>2022-10-04T13:45:07.000Z</time>
      </trkpt>
      <trkpt lat="45.84411" lon="4.69767">
        <ele>248.93864</ele>
        <time>2022-10-04T13:45:08.000Z</time>
      </trkpt>
      <trkpt lat="45.84408" lon="4.69768">
        <ele>248.98962</ele>
        <time>2022-10-04T13:45:09.000Z</time>
      </trkpt>
      <trkpt lat="45.84405" lon="4.6977">
        <ele>248.944</ele>
        <time>2022-10-04T13:45:10.000Z</time>
      </trkpt>
      <trkpt lat="45.84402" lon="4.6977">
        <ele>248.86604</ele>
        <time>2022-10-04T13:45:11.000Z</time>
      </trkpt>
      <trkpt lat="45.84399" lon="4.69771">
        <ele>248.79749</ele>
        <time>2022-10-04T13:45:12.000Z</time>
      </trkpt>
      <trkpt lat="45.84395" lon="4.69772">
        <ele>248.70183</ele>
        <time>2022-10-04T13:45:13.000Z</time>
      </trkpt>
      <trkpt lat="45.84392" lon="4.69773">
        <ele>248.66365</ele>
        <time>2022-10-04T13:45:14.000Z</time>
      </trkpt>
      <trkpt lat="45.84389" lon="4.69775">
        <ele>248.54282</ele>
        <time>2022-10-04T13:45:15.000Z</time>
      </trkpt>
      <trkpt lat="45.84385" lon="4.69776">
        <ele>248.4043</ele>
        <time>2022-10-04T13:45:16.000Z</time>
      </trkpt>
      <trkpt lat="45.84382" lon="4.69778">
        <ele>248.25606</ele>
        <time>2022-10-04T13:45:17.000Z</time>
      </trkpt>
      <trkpt lat="45.8438" lon="4.6978">
        <ele>248.16577</ele>
        <time>2022-10-04T13:45:18.000Z</time>
      </trkpt>
      <trkpt lat="45.84377" lon="4.69782">
        <ele>248.04802</ele>
        <time>2022-10-04T13:45:19.000Z</time>
      </trkpt>
      <trkpt lat="45.84375" lon="4.69784">
        <ele>247.92477</ele>
        <time>2022-10-04T13:45:20.000Z</time>
      </trkpt>
      <trkpt lat="45.84372" lon="4.69786">
        <ele>247.76144</ele>
        <time>2022-10-04T13:45:21.000Z</time>
      </trkpt>
      <trkpt lat="45.8437" lon="4.69788">
        <ele>247.62271</ele>
        <time>2022-10-04T13:45:22.000Z</time>
      </trkpt>
      <trkpt lat="45.84368" lon="4.6979">
        <ele>247.47232</ele>
        <time>2022-10-04T13:45:23.000Z</time>
      </trkpt>
      <trkpt lat="45.84366" lon="4.69792">
        <ele>247.34074</ele>
        <time>2022-10-04T13:45:24.000Z</time>
      </trkpt>
      <trkpt lat="45.84364" lon="4.69795">
        <ele>247.1658</ele>
        <time>2022-10-04T13:45:25.000Z</time>
      </trkpt>
      <trkpt lat="45.84361" lon="4.69797">
        <ele>247.0522</ele>
        <time>2022-10-04T13:45:26.000Z</time>
      </trkpt>
      <trkpt lat="45.84359" lon="4.69799">
        <ele>246.94327</ele>
        <time>2022-10-04T13:45:27.000Z</time>
      </trkpt>
      <trkpt lat="45.84356" lon="4.69801">
        <ele>246.90878</ele>
        <time>2022-10-04T13:45:28.000Z</time>
      </trkpt>
      <trkpt lat="45.84353" lon="4.69803">
        <ele>246.90063</ele>
        <time>2022-10-04T13:45:29.000Z</time>
      </trkpt>
      <trkpt lat="45.84351" lon="4.69805">
        <ele>247.04158</ele>
        <time>2022-10-04T13:45:30.000Z</time>
      </trkpt>
      <trkpt lat="45.84348" lon="4.69807">
        <ele>247.17831</ele>
        <time>2022-10-04T13:45:31.000Z</time>
      </trkpt>
      <trkpt lat="45.84345" lon="4.69809">
        <ele>247.26506</ele>
        <time>2022-10-04T13:45:32.000Z</time>
      </trkpt>
      <trkpt lat="45.84343" lon="4.69811">
        <ele>247.40561</ele>
        <time>2022-10-04T13:45:33.000Z</time>
      </trkpt>
      <trkpt lat="45.84341" lon="4.69812">
        <ele>247.48238</ele>
        <time>2022-10-04T13:45:34.000Z</time>
      </trkpt>
      <trkpt lat="45.84339" lon="4.69815">
        <ele>247.70708</ele>
        <time>2022-10-04T13:45:35.000Z</time>
      </trkpt>
      <trkpt lat="45.84337" lon="4.69817">
        <ele>248.00066</ele>
        <time>2022-10-04T13:45:36.000Z</time>
      </trkpt>
      <trkpt lat="45.84335" lon="4.69819">
        <ele>248.22095</ele>
        <time>2022-10-04T13:45:37.000Z</time>
      </trkpt>
      <trkpt lat="45.84333" lon="4.69821">
        <ele>248.44453</ele>
        <time>2022-10-04T13:45:38.000Z</time>
      </trkpt>
      <trkpt lat="45.8433" lon="4.69823">
        <ele>248.6259</ele>
        <time>2022-10-04T13:45:39.000Z</time>
      </trkpt>
      <trkpt lat="45.84328" lon="4.69825">
        <ele>248.87349</ele>
        <time>2022-10-04T13:45:40.000Z</time>
      </trkpt>
      <trkpt lat="45.84325" lon="4.69826">
        <ele>249.23584</ele>
        <time>2022-10-04T13:45:41.000Z</time>
      </trkpt>
      <trkpt lat="45.84323" lon="4.69826">
        <ele>249.56546</ele>
        <time>2022-10-04T13:45:42.000Z</time>
      </trkpt>
      <trkpt lat="45.84321" lon="4.69826">
        <ele>249.87277</ele>
        <time>2022-10-04T13:45:43.000Z</time>
      </trkpt>
      <trkpt lat="45.84318" lon="4.69827">
        <ele>250.15129</ele>
        <time>2022-10-04T13:45:44.000Z</time>
      </trkpt>
      <trkpt lat="45.84315" lon="4.69827">
        <ele>250.45081</ele>
        <time>2022-10-04T13:45:45.000Z</time>
      </trkpt>
      <trkpt lat="45.84312" lon="4.69827">
        <ele>250.77649</ele>
        <time>2022-10-04T13:45:46.000Z</time>
      </trkpt>
      <trkpt lat="45.8431" lon="4.69827">
        <ele>251.14243</ele>
        <time>2022-10-04T13:45:47.000Z</time>
      </trkpt>
      <trkpt lat="45.84307" lon="4.69827">
        <ele>251.43327</ele>
        <time>2022-10-04T13:45:48.000Z</time>
      </trkpt>
      <trkpt lat="45.84303" lon="4.69827">
        <ele>251.74243</ele>
        <time>2022-10-04T13:45:49.000Z</time>
      </trkpt>
      <trkpt lat="45.843" lon="4.69827">
        <ele>252.00027</ele>
        <time>2022-10-04T13:45:50.000Z</time>
      </trkpt>
      <trkpt lat="45.84297" lon="4.69826">
        <ele>252.28806</ele>
        <time>2022-10-04T13:45:51.000Z</time>
      </trkpt>
      <trkpt lat="45.84294" lon="4.69825">
        <ele>252.65434</ele>
        <time>2022-10-04T13:45:52.000Z</time>
      </trkpt>
      <trkpt lat="45.84292" lon="4.69823">
        <ele>252.97896</ele>
        <time>2022-10-04T13:45:53.000Z</time>
      </trkpt>
      <trkpt lat="45.8429" lon="4.69822">
        <ele>253.33769</ele>
        <time>2022-10-04T13:45:54.000Z</time>
      </trkpt>
      <trkpt lat="45.84288" lon="4.69821">
        <ele>253.63737</ele>
        <time>2022-10-04T13:45:55.000Z</time>
      </trkpt>
      <trkpt lat="45.84286" lon="4.69819">
        <ele>253.99873</ele>
        <time>2022-10-04T13:45:56.000Z</time>
      </trkpt>
      <trkpt lat="45.84284" lon="4.69816">
        <ele>254.42961</ele>
        <time>2022-10-04T13:45:57.000Z</time>
      </trkpt>
      <trkpt lat="45.84282" lon="4.69813">
        <ele>254.85161</ele>
        <time>2022-10-04T13:45:58.000Z</time>
      </trkpt>
      <trkpt lat="45.8428" lon="4.6981">
        <ele>255.29001</ele>
        <time>2022-10-04T13:45:59.000Z</time>
      </trkpt>
      <trkpt lat="45.84278" lon="4.69806">
        <ele>255.6619</ele>
        <time>2022-10-04T13:46:00.000Z</time>
      </trkpt>
      <trkpt lat="45.84276" lon="4.69804">
        <ele>255.94987</ele>
        <time>2022-10-04T13:46:01.000Z</time>
      </trkpt>
      <trkpt lat="45.84274" lon="4.69803">
        <ele>256.26312</ele>
        <time>2022-10-04T13:46:02.000Z</time>
      </trkpt>
      <trkpt lat="45.84272" lon="4.69801">
        <ele>256.60489</ele>
        <time>2022-10-04T13:46:03.000Z</time>
      </trkpt>
      <trkpt lat="45.84269" lon="4.698">
        <ele>257.00851</ele>
        <time>2022-10-04T13:46:05.000Z</time>
      </trkpt>
      <trkpt lat="45.84267" lon="4.69799">
        <ele>257.41611</ele>
        <time>2022-10-04T13:46:06.000Z</time>
      </trkpt>
      <trkpt lat="45.84266" lon="4.69798">
        <ele>257.77399</ele>
        <time>2022-10-04T13:46:07.000Z</time>
      </trkpt>
      <trkpt lat="45.84264" lon="4.69798">
        <ele>258.00388</ele>
        <time>2022-10-04T13:46:08.000Z</time>
      </trkpt>
      <trkpt lat="45.84261" lon="4.69798">
        <ele>258.22882</ele>
        <time>2022-10-04T13:46:09.000Z</time>
      </trkpt>
      <trkpt lat="45.84259" lon="4.69798">
        <ele>258.4267</ele>
        <time>2022-10-04T13:46:10.000Z</time>
      </trkpt>
      <trkpt lat="45.84256" lon="4.69799">
        <ele>258.54785</ele>
        <time>2022-10-04T13:46:11.000Z</time>
      </trkpt>
      <trkpt lat="45.84254" lon="4.698">
        <ele>258.62592</ele>
        <time>2022-10-04T13:46:12.000Z</time>
      </trkpt>
      <trkpt lat="45.8425" lon="4.69802">
        <ele>258.64343</ele>
        <time>2022-10-04T13:46:13.000Z</time>
      </trkpt>
      <trkpt lat="45.84248" lon="4.69803">
        <ele>258.45169</ele>
        <time>2022-10-04T13:46:14.000Z</time>
      </trkpt>
      <trkpt lat="45.84245" lon="4.69804">
        <ele>258.21674</ele>
        <time>2022-10-04T13:46:15.000Z</time>
      </trkpt>
      <trkpt lat="45.84243" lon="4.69806">
        <ele>258.013</ele>
        <time>2022-10-04T13:46:16.000Z</time>
      </trkpt>
      <trkpt lat="45.84241" lon="4.6981">
        <ele>257.7132</ele>
        <time>2022-10-04T13:46:18.000Z</time>
      </trkpt>
      <trkpt lat="45.84239" lon="4.69812">
        <ele>257.40659</ele>
        <time>2022-10-04T13:46:19.000Z</time>
      </trkpt>
      <trkpt lat="45.84238" lon="4.69815">
        <ele>257.08307</ele>
        <time>2022-10-04T13:46:20.000Z</time>
      </trkpt>
      <trkpt lat="45.84237" lon="4.69817">
        <ele>256.77075</ele>
        <time>2022-10-04T13:46:21.000Z</time>
      </trkpt>
      <trkpt lat="45.84236" lon="4.69819">
        <ele>256.55759</ele>
        <time>2022-10-04T13:46:22.000Z</time>
      </trkpt>
      <trkpt lat="45.84235" lon="4.69824">
        <ele>256.35794</ele>
        <time>2022-10-04T13:46:24.000Z</time>
      </trkpt>
      <trkpt lat="45.84234" lon="4.69828">
        <ele>256.1879</ele>
        <time>2022-10-04T13:46:25.000Z</time>
      </trkpt>
      <trkpt lat="45.84233" lon="4.69832">
        <ele>256.03772</ele>
        <time>2022-10-04T13:46:26.000Z</time>
      </trkpt>
      <trkpt lat="45.84232" lon="4.69837">
        <ele>255.83713</ele>
        <time>2022-10-04T13:46:27.000Z</time>
      </trkpt>
      <trkpt lat="45.8423" lon="4.69841">
        <ele>255.6281</ele>
        <time>2022-10-04T13:46:28.000Z</time>
      </trkpt>
      <trkpt lat="45.84229" lon="4.69845">
        <ele>255.39673</ele>
        <time>2022-10-04T13:46:29.000Z</time>
      </trkpt>
      <trkpt lat="45.84227" lon="4.69848">
        <ele>255.25188</ele>
        <time>2022-10-04T13:46:30.000Z</time>
      </trkpt>
      <trkpt lat="45.84226" lon="4.69851">
        <ele>255.14218</ele>
        <time>2022-10-04T13:46:31.000Z</time>
      </trkpt>
      <trkpt lat="45.84224" lon="4.69854">
        <ele>255.0583</ele>
        <time>2022-10-04T13:46:32.000Z</time>
      </trkpt>
      <trkpt lat="45.84222" lon="4.69857">
        <ele>255.03137</ele>
        <time>2022-10-04T13:46:33.000Z</time>
      </trkpt>
      <trkpt lat="45.84221" lon="4.6986">
        <ele>255.00394</ele>
        <time>2022-10-04T13:46:34.000Z</time>
      </trkpt>
      <trkpt lat="45.84219" lon="4.69863">
        <ele>254.9729</ele>
        <time>2022-10-04T13:46:35.000Z</time>
      </trkpt>
      <trkpt lat="45.84217" lon="4.69866">
        <ele>255.14804</ele>
        <time>2022-10-04T13:46:36.000Z</time>
      </trkpt>
      <trkpt lat="45.84214" lon="4.69869">
        <ele>255.41882</ele>
        <time>2022-10-04T13:46:37.000Z</time>
      </trkpt>
      <trkpt lat="45.84212" lon="4.69872">
        <ele>255.71753</ele>
        <time>2022-10-04T13:46:38.000Z</time>
      </trkpt>
      <trkpt lat="45.8421" lon="4.69875">
        <ele>256.02283</ele>
        <time>2022-10-04T13:46:39.000Z</time>
      </trkpt>
      <trkpt lat="45.84207" lon="4.69877">
        <ele>256.39221</ele>
        <time>2022-10-04T13:46:40.000Z</time>
      </trkpt>
      <trkpt lat="45.84204" lon="4.69879">
        <ele>256.81827</ele>
        <time>2022-10-04T13:46:41.000Z</time>
      </trkpt>
      <trkpt lat="45.84202" lon="4.69881">
        <ele>257.24844</ele>
        <time>2022-10-04T13:46:42.000Z</time>
      </trkpt>
      <trkpt lat="45.84199" lon="4.69882">
        <ele>257.53857</ele>
        <time>2022-10-04T13:46:43.000Z</time>
      </trkpt>
      <trkpt lat="45.84197" lon="4.69884">
        <ele>257.80185</ele>
        <time>2022-10-04T13:46:44.000Z</time>
      </trkpt>
      <trkpt lat="45.84194" lon="4.69885">
        <ele>258.00546</ele>
        <time>2022-10-04T13:46:45.000Z</time>
      </trkpt>
      <trkpt lat="45.84191" lon="4.69885">
        <ele>258.13507</ele>
        <time>2022-10-04T13:46:46.000Z</time>
      </trkpt>
      <trkpt lat="45.84189" lon="4.69886">
        <ele>258.28815</ele>
        <time>2022-10-04T13:46:47.000Z</time>
      </trkpt>
      <trkpt lat="45.84187" lon="4.69886">
        <ele>258.47037</ele>
        <time>2022-10-04T13:46:48.000Z</time>
      </trkpt>
      <trkpt lat="45.84184" lon="4.69887">
        <ele>258.60168</ele>
        <time>2022-10-04T13:46:49.000Z</time>
      </trkpt>
      <trkpt lat="45.84181" lon="4.69887">
        <ele>258.79236</ele>
        <time>2022-10-04T13:46:50.000Z</time>
      </trkpt>
      <trkpt lat="45.84179" lon="4.69888">
        <ele>258.92355</ele>
        <time>2022-10-04T13:46:51.000Z</time>
      </trkpt>
      <trkpt lat="45.84176" lon="4.69889">
        <ele>259.02023</ele>
        <time>2022-10-04T13:46:52.000Z</time>
      </trkpt>
      <trkpt lat="45.84173" lon="4.6989">
        <ele>259.10126</ele>
        <time>2022-10-04T13:46:53.000Z</time>
      </trkpt>
      <trkpt lat="45.84171" lon="4.6989">
        <ele>259.19583</ele>
        <time>2022-10-04T13:46:54.000Z</time>
      </trkpt>
      <trkpt lat="45.84168" lon="4.69891">
        <ele>259.34247</ele>
        <time>2022-10-04T13:46:55.000Z</time>
      </trkpt>
      <trkpt lat="45.84166" lon="4.69892">
        <ele>259.50345</ele>
        <time>2022-10-04T13:46:56.000Z</time>
      </trkpt>
      <trkpt lat="45.84163" lon="4.69892">
        <ele>259.63519</ele>
        <time>2022-10-04T13:46:57.000Z</time>
      </trkpt>
      <trkpt lat="45.84161" lon="4.69893">
        <ele>259.77054</ele>
        <time>2022-10-04T13:46:58.000Z</time>
      </trkpt>
      <trkpt lat="45.84158" lon="4.69893">
        <ele>259.92902</ele>
        <time>2022-10-04T13:46:59.000Z</time>
      </trkpt>
      <trkpt lat="45.84156" lon="4.69893">
        <ele>260.0199</ele>
        <time>2022-10-04T13:47:00.000Z</time>
      </trkpt>
      <trkpt lat="45.84154" lon="4.69894">
        <ele>260.08099</ele>
        <time>2022-10-04T13:47:01.000Z</time>
      </trkpt>
      <trkpt lat="45.84152" lon="4.69894">
        <ele>260.12558</ele>
        <time>2022-10-04T13:47:02.000Z</time>
      </trkpt>
      <trkpt lat="45.84149" lon="4.69895">
        <ele>260.23004</ele>
        <time>2022-10-04T13:47:03.000Z</time>
      </trkpt>
      <trkpt lat="45.84147" lon="4.69895">
        <ele>260.3515</ele>
        <time>2022-10-04T13:47:04.000Z</time>
      </trkpt>
      <trkpt lat="45.84144" lon="4.69895">
        <ele>260.38815</ele>
        <time>2022-10-04T13:47:05.000Z</time>
      </trkpt>
      <trkpt lat="45.84142" lon="4.69895">
        <ele>260.47668</ele>
        <time>2022-10-04T13:47:06.000Z</time>
      </trkpt>
      <trkpt lat="45.84139" lon="4.69895">
        <ele>260.48978</ele>
        <time>2022-10-04T13:47:07.000Z</time>
      </trkpt>
      <trkpt lat="45.84136" lon="4.69896">
        <ele>260.41586</ele>
        <time>2022-10-04T13:47:08.000Z</time>
      </trkpt>
      <trkpt lat="45.84134" lon="4.69897">
        <ele>260.40039</ele>
        <time>2022-10-04T13:47:09.000Z</time>
      </trkpt>
      <trkpt lat="45.84131" lon="4.69898">
        <ele>260.34735</ele>
        <time>2022-10-04T13:47:10.000Z</time>
      </trkpt>
      <trkpt lat="45.84128" lon="4.699">
        <ele>260.31671</ele>
        <time>2022-10-04T13:47:11.000Z</time>
      </trkpt>
      <trkpt lat="45.84125" lon="4.69902">
        <ele>260.3378</ele>
        <time>2022-10-04T13:47:12.000Z</time>
      </trkpt>
      <trkpt lat="45.84122" lon="4.69903">
        <ele>260.42123</ele>
        <time>2022-10-04T13:47:13.000Z</time>
      </trkpt>
      <trkpt lat="45.84119" lon="4.69905">
        <ele>260.49722</ele>
        <time>2022-10-04T13:47:14.000Z</time>
      </trkpt>
      <trkpt lat="45.84116" lon="4.69907">
        <ele>260.54233</ele>
        <time>2022-10-04T13:47:15.000Z</time>
      </trkpt>
      <trkpt lat="45.84113" lon="4.6991">
        <ele>260.55804</ele>
        <time>2022-10-04T13:47:16.000Z</time>
      </trkpt>
      <trkpt lat="45.8411" lon="4.69912">
        <ele>260.54367</ele>
        <time>2022-10-04T13:47:17.000Z</time>
      </trkpt>
      <trkpt lat="45.84107" lon="4.69913">
        <ele>260.46164</ele>
        <time>2022-10-04T13:47:18.000Z</time>
      </trkpt>
      <trkpt lat="45.84104" lon="4.69914">
        <ele>260.26996</ele>
        <time>2022-10-04T13:47:19.000Z</time>
      </trkpt>
      <trkpt lat="45.84102" lon="4.69915">
        <ele>259.94528</ele>
        <time>2022-10-04T13:47:20.000Z</time>
      </trkpt>
      <trkpt lat="45.84099" lon="4.69916">
        <ele>259.65521</ele>
        <time>2022-10-04T13:47:21.000Z</time>
      </trkpt>
      <trkpt lat="45.84097" lon="4.69917">
        <ele>259.33307</ele>
        <time>2022-10-04T13:47:22.000Z</time>
      </trkpt>
      <trkpt lat="45.84095" lon="4.69918">
        <ele>259.05371</ele>
        <time>2022-10-04T13:47:23.000Z</time>
      </trkpt>
      <trkpt lat="45.84092" lon="4.69919">
        <ele>258.75809</ele>
        <time>2022-10-04T13:47:24.000Z</time>
      </trkpt>
      <trkpt lat="45.8409" lon="4.6992">
        <ele>258.5354</ele>
        <time>2022-10-04T13:47:25.000Z</time>
      </trkpt>
      <trkpt lat="45.84087" lon="4.69922">
        <ele>258.29507</ele>
        <time>2022-10-04T13:47:26.000Z</time>
      </trkpt>
      <trkpt lat="45.84085" lon="4.69923">
        <ele>257.97476</ele>
        <time>2022-10-04T13:47:27.000Z</time>
      </trkpt>
      <trkpt lat="45.84082" lon="4.69925">
        <ele>257.69241</ele>
        <time>2022-10-04T13:47:28.000Z</time>
      </trkpt>
      <trkpt lat="45.8408" lon="4.69927">
        <ele>257.38773</ele>
        <time>2022-10-04T13:47:29.000Z</time>
      </trkpt>
      <trkpt lat="45.84077" lon="4.69928">
        <ele>257.07806</ele>
        <time>2022-10-04T13:47:30.000Z</time>
      </trkpt>
      <trkpt lat="45.84074" lon="4.6993">
        <ele>256.80679</ele>
        <time>2022-10-04T13:47:31.000Z</time>
      </trkpt>
      <trkpt lat="45.84072" lon="4.69932">
        <ele>256.52051</ele>
        <time>2022-10-04T13:47:32.000Z</time>
      </trkpt>
      <trkpt lat="45.84069" lon="4.69934">
        <ele>256.21704</ele>
        <time>2022-10-04T13:47:33.000Z</time>
      </trkpt>
      <trkpt lat="45.84067" lon="4.69936">
        <ele>255.89859</ele>
        <time>2022-10-04T13:47:34.000Z</time>
      </trkpt>
      <trkpt lat="45.84065" lon="4.69938">
        <ele>255.54684</ele>
        <time>2022-10-04T13:47:35.000Z</time>
      </trkpt>
      <trkpt lat="45.84062" lon="4.69939">
        <ele>255.22945</ele>
        <time>2022-10-04T13:47:36.000Z</time>
      </trkpt>
      <trkpt lat="45.8406" lon="4.69941">
        <ele>254.92349</ele>
        <time>2022-10-04T13:47:37.000Z</time>
      </trkpt>
      <trkpt lat="45.84057" lon="4.69942">
        <ele>254.66</ele>
        <time>2022-10-04T13:47:38.000Z</time>
      </trkpt>
      <trkpt lat="45.84055" lon="4.69944">
        <ele>254.56619</ele>
        <time>2022-10-04T13:47:39.000Z</time>
      </trkpt>
      <trkpt lat="45.84052" lon="4.69946">
        <ele>254.60603</ele>
        <time>2022-10-04T13:47:40.000Z</time>
      </trkpt>
      <trkpt lat="45.8405" lon="4.69948">
        <ele>254.59067</ele>
        <time>2022-10-04T13:47:41.000Z</time>
      </trkpt>
      <trkpt lat="45.84047" lon="4.69949">
        <ele>254.63057</ele>
        <time>2022-10-04T13:47:42.000Z</time>
      </trkpt>
      <trkpt lat="45.84044" lon="4.69951">
        <ele>254.64558</ele>
        <time>2022-10-04T13:47:43.000Z</time>
      </trkpt>
      <trkpt lat="45.84042" lon="4.69953">
        <ele>254.70261</ele>
        <time>2022-10-04T13:47:44.000Z</time>
      </trkpt>
      <trkpt lat="45.8404" lon="4.69955">
        <ele>254.72908</ele>
        <time>2022-10-04T13:47:45.000Z</time>
      </trkpt>
      <trkpt lat="45.84038" lon="4.69958">
        <ele>254.71455</ele>
        <time>2022-10-04T13:47:46.000Z</time>
      </trkpt>
      <trkpt lat="45.84036" lon="4.6996">
        <ele>254.79041</ele>
        <time>2022-10-04T13:47:47.000Z</time>
      </trkpt>
      <trkpt lat="45.84034" lon="4.69962">
        <ele>254.91174</ele>
        <time>2022-10-04T13:47:48.000Z</time>
      </trkpt>
      <trkpt lat="45.84031" lon="4.69964">
        <ele>255.06143</ele>
        <time>2022-10-04T13:47:49.000Z</time>
      </trkpt>
      <trkpt lat="45.84029" lon="4.69966">
        <ele>255.1613</ele>
        <time>2022-10-04T13:47:50.000Z</time>
      </trkpt>
      <trkpt lat="45.84027" lon="4.69968">
        <ele>255.26009</ele>
        <time>2022-10-04T13:47:51.000Z</time>
      </trkpt>
      <trkpt lat="45.84024" lon="4.69971">
        <ele>255.37784</ele>
        <time>2022-10-04T13:47:52.000Z</time>
      </trkpt>
      <trkpt lat="45.84022" lon="4.69973">
        <ele>255.5123</ele>
        <time>2022-10-04T13:47:53.000Z</time>
      </trkpt>
      <trkpt lat="45.8402" lon="4.69975">
        <ele>255.6729</ele>
        <time>2022-10-04T13:47:54.000Z</time>
      </trkpt>
      <trkpt lat="45.84017" lon="4.69977">
        <ele>255.85794</ele>
        <time>2022-10-04T13:47:55.000Z</time>
      </trkpt>
      <trkpt lat="45.84015" lon="4.69979">
        <ele>256.01498</ele>
        <time>2022-10-04T13:47:56.000Z</time>
      </trkpt>
      <trkpt lat="45.84012" lon="4.69981">
        <ele>256.18497</ele>
        <time>2022-10-04T13:47:57.000Z</time>
      </trkpt>
      <trkpt lat="45.84009" lon="4.69982">
        <ele>256.41125</ele>
        <time>2022-10-04T13:47:58.000Z</time>
      </trkpt>
      <trkpt lat="45.84007" lon="4.69984">
        <ele>256.55176</ele>
        <time>2022-10-04T13:47:59.000Z</time>
      </trkpt>
      <trkpt lat="45.84005" lon="4.69986">
        <ele>256.70215</ele>
        <time>2022-10-04T13:48:00.000Z</time>
      </trkpt>
      <trkpt lat="45.84003" lon="4.69988">
        <ele>256.83453</ele>
        <time>2022-10-04T13:48:01.000Z</time>
      </trkpt>
      <trkpt lat="45.84001" lon="4.6999">
        <ele>256.94263</ele>
        <time>2022-10-04T13:48:02.000Z</time>
      </trkpt>
      <trkpt lat="45.83999" lon="4.69992">
        <ele>257.05756</ele>
        <time>2022-10-04T13:48:03.000Z</time>
      </trkpt>
      <trkpt lat="45.83997" lon="4.69993">
        <ele>257.15329</ele>
        <time>2022-10-04T13:48:04.000Z</time>
      </trkpt>
      <trkpt lat="45.83995" lon="4.69995">
        <ele>257.31015</ele>
        <time>2022-10-04T13:48:05.000Z</time>
      </trkpt>
      <trkpt lat="45.83994" lon="4.69997">
        <ele>257.51328</ele>
        <time>2022-10-04T13:48:06.000Z</time>
      </trkpt>
      <trkpt lat="45.83992" lon="4.69998">
        <ele>257.66473</ele>
        <time>2022-10-04T13:48:07.000Z</time>
      </trkpt>
      <trkpt lat="45.8399" lon="4.7">
        <ele>257.81543</ele>
        <time>2022-10-04T13:48:08.000Z</time>
      </trkpt>
      <trkpt lat="45.83988" lon="4.70002">
        <ele>257.98923</ele>
        <time>2022-10-04T13:48:09.000Z</time>
      </trkpt>
      <trkpt lat="45.83986" lon="4.70003">
        <ele>258.16089</ele>
        <time>2022-10-04T13:48:10.000Z</time>
      </trkpt>
      <trkpt lat="45.83984" lon="4.70005">
        <ele>258.30743</ele>
        <time>2022-10-04T13:48:11.000Z</time>
      </trkpt>
      <trkpt lat="45.83982" lon="4.70006">
        <ele>258.41138</ele>
        <time>2022-10-04T13:48:12.000Z</time>
      </trkpt>
      <trkpt lat="45.8398" lon="4.70008">
        <ele>258.50201</ele>
        <time>2022-10-04T13:48:13.000Z</time>
      </trkpt>
      <trkpt lat="45.83978" lon="4.7001">
        <ele>258.49274</ele>
        <time>2022-10-04T13:48:14.000Z</time>
      </trkpt>
      <trkpt lat="45.83976" lon="4.70013">
        <ele>258.53629</ele>
        <time>2022-10-04T13:48:15.000Z</time>
      </trkpt>
      <trkpt lat="45.83974" lon="4.70015">
        <ele>258.51208</ele>
        <time>2022-10-04T13:48:16.000Z</time>
      </trkpt>
      <trkpt lat="45.83972" lon="4.70017">
        <ele>258.49725</ele>
        <time>2022-10-04T13:48:17.000Z</time>
      </trkpt>
      <trkpt lat="45.8397" lon="4.70019">
        <ele>258.44495</ele>
        <time>2022-10-04T13:48:18.000Z</time>
      </trkpt>
      <trkpt lat="45.83968" lon="4.7002">
        <ele>258.4248</ele>
        <time>2022-10-04T13:48:19.000Z</time>
      </trkpt>
      <trkpt lat="45.83966" lon="4.70022">
        <ele>258.36948</ele>
        <time>2022-10-04T13:48:20.000Z</time>
      </trkpt>
      <trkpt lat="45.83964" lon="4.70025">
        <ele>258.34317</ele>
        <time>2022-10-04T13:48:21.000Z</time>
      </trkpt>
      <trkpt lat="45.83962" lon="4.70027">
        <ele>258.29401</ele>
        <time>2022-10-04T13:48:22.000Z</time>
      </trkpt>
      <trkpt lat="45.8396" lon="4.70029">
        <ele>258.2738</ele>
        <time>2022-10-04T13:48:23.000Z</time>
      </trkpt>
      <trkpt lat="45.83958" lon="4.70031">
        <ele>258.2438</ele>
        <time>2022-10-04T13:48:24.000Z</time>
      </trkpt>
      <trkpt lat="45.83956" lon="4.70032">
        <ele>258.21124</ele>
        <time>2022-10-04T13:48:25.000Z</time>
      </trkpt>
      <trkpt lat="45.83954" lon="4.70034">
        <ele>258.14661</ele>
        <time>2022-10-04T13:48:26.000Z</time>
      </trkpt>
      <trkpt lat="45.83952" lon="4.70036">
        <ele>258.14545</ele>
        <time>2022-10-04T13:48:27.000Z</time>
      </trkpt>
      <trkpt lat="45.8395" lon="4.70037">
        <ele>258.13806</ele>
        <time>2022-10-04T13:48:28.000Z</time>
      </trkpt>
      <trkpt lat="45.83937" lon="4.70055">
        <ele>257.96579</ele>
        <time>2022-10-04T13:48:35.000Z</time>
      </trkpt>
      <trkpt lat="45.83935" lon="4.70057">
        <ele>257.82883</ele>
        <time>2022-10-04T13:48:36.000Z</time>
      </trkpt>
      <trkpt lat="45.83933" lon="4.70059">
        <ele>257.70123</ele>
        <time>2022-10-04T13:48:37.000Z</time>
      </trkpt>
      <trkpt lat="45.83931" lon="4.70061">
        <ele>257.60434</ele>
        <time>2022-10-04T13:48:38.000Z</time>
      </trkpt>
      <trkpt lat="45.83929" lon="4.70063">
        <ele>257.45154</ele>
        <time>2022-10-04T13:48:39.000Z</time>
      </trkpt>
      <trkpt lat="45.83928" lon="4.70064">
        <ele>257.40778</ele>
        <time>2022-10-04T13:48:40.000Z</time>
      </trkpt>
      <trkpt lat="45.83926" lon="4.70066">
        <ele>257.31375</ele>
        <time>2022-10-04T13:48:41.000Z</time>
      </trkpt>
      <trkpt lat="45.83925" lon="4.70068">
        <ele>257.34674</ele>
        <time>2022-10-04T13:48:42.000Z</time>
      </trkpt>
      <trkpt lat="45.83923" lon="4.7007">
        <ele>257.35947</ele>
        <time>2022-10-04T13:48:43.000Z</time>
      </trkpt>
      <trkpt lat="45.83921" lon="4.70072">
        <ele>257.32419</ele>
        <time>2022-10-04T13:48:44.000Z</time>
      </trkpt>
      <trkpt lat="45.8392" lon="4.70075">
        <ele>257.30743</ele>
        <time>2022-10-04T13:48:45.000Z</time>
      </trkpt>
      <trkpt lat="45.83918" lon="4.70077">
        <ele>257.36847</ele>
        <time>2022-10-04T13:48:46.000Z</time>
      </trkpt>
      <trkpt lat="45.83917" lon="4.7008">
        <ele>257.43155</ele>
        <time>2022-10-04T13:48:48.000Z</time>
      </trkpt>
      <trkpt lat="45.83914" lon="4.7008">
        <ele>257.39276</ele>
        <time>2022-10-04T13:48:51.000Z</time>
      </trkpt>
      <trkpt lat="45.83913" lon="4.70079">
        <ele>257.45221</ele>
        <time>2022-10-04T13:49:03.000Z</time>
      </trkpt>
      <trkpt lat="45.83911" lon="4.70078">
        <ele>257.55402</ele>
        <time>2022-10-04T13:50:19.000Z</time>
      </trkpt>
      <trkpt lat="45.83909" lon="4.70077">
        <ele>257.64642</ele>
        <time>2022-10-04T13:50:20.000Z</time>
      </trkpt>
      <trkpt lat="45.83906" lon="4.70076">
        <ele>257.65399</ele>
        <time>2022-10-04T13:50:21.000Z</time>
      </trkpt>
      <trkpt lat="45.83904" lon="4.70075">
        <ele>257.71985</ele>
        <time>2022-10-04T13:50:22.000Z</time>
      </trkpt>
      <trkpt lat="45.83902" lon="4.70074">
        <ele>257.84662</ele>
        <time>2022-10-04T13:50:23.000Z</time>
      </trkpt>
      <trkpt lat="45.83899" lon="4.70073">
        <ele>258.08609</ele>
        <time>2022-10-04T13:50:24.000Z</time>
      </trkpt>
      <trkpt lat="45.83897" lon="4.70072">
        <ele>258.3494</ele>
        <time>2022-10-04T13:50:25.000Z</time>
      </trkpt>
      <trkpt lat="45.83894" lon="4.70071">
        <ele>258.62726</ele>
        <time>2022-10-04T13:50:26.000Z</time>
      </trkpt>
      <trkpt lat="45.83892" lon="4.70071">
        <ele>258.8754</ele>
        <time>2022-10-04T13:50:27.000Z</time>
      </trkpt>
      <trkpt lat="45.8389" lon="4.70071">
        <ele>259.01337</ele>
        <time>2022-10-04T13:50:28.000Z</time>
      </trkpt>
      <trkpt lat="45.83888" lon="4.70071">
        <ele>259.15961</ele>
        <time>2022-10-04T13:50:29.000Z</time>
      </trkpt>
      <trkpt lat="45.83886" lon="4.70071">
        <ele>259.15399</ele>
        <time>2022-10-04T13:50:30.000Z</time>
      </trkpt>
      <trkpt lat="45.83884" lon="4.7007">
        <ele>259.10593</ele>
        <time>2022-10-04T13:50:31.000Z</time>
      </trkpt>
      <trkpt lat="45.83882" lon="4.7007">
        <ele>259.07904</ele>
        <time>2022-10-04T13:50:32.000Z</time>
      </trkpt>
      <trkpt lat="45.8388" lon="4.70071">
        <ele>259.05014</ele>
        <time>2022-10-04T13:50:33.000Z</time>
      </trkpt>
      <trkpt lat="45.83878" lon="4.70071">
        <ele>258.94592</ele>
        <time>2022-10-04T13:50:34.000Z</time>
      </trkpt>
      <trkpt lat="45.83876" lon="4.70072">
        <ele>258.8812</ele>
        <time>2022-10-04T13:50:35.000Z</time>
      </trkpt>
      <trkpt lat="45.83874" lon="4.70072">
        <ele>258.75143</ele>
        <time>2022-10-04T13:50:36.000Z</time>
      </trkpt>
      <trkpt lat="45.83872" lon="4.70073">
        <ele>258.74442</ele>
        <time>2022-10-04T13:50:37.000Z</time>
      </trkpt>
      <trkpt lat="45.83869" lon="4.70073">
        <ele>258.58728</ele>
        <time>2022-10-04T13:50:38.000Z</time>
      </trkpt>
      <trkpt lat="45.83867" lon="4.70073">
        <ele>258.40457</ele>
        <time>2022-10-04T13:50:39.000Z</time>
      </trkpt>
      <trkpt lat="45.83865" lon="4.70073">
        <ele>258.21741</ele>
        <time>2022-10-04T13:50:40.000Z</time>
      </trkpt>
      <trkpt lat="45.83863" lon="4.70073">
        <ele>258.1571</ele>
        <time>2022-10-04T13:50:41.000Z</time>
      </trkpt>
      <trkpt lat="45.83861" lon="4.70072">
        <ele>258.0256</ele>
        <time>2022-10-04T13:50:42.000Z</time>
      </trkpt>
      <trkpt lat="45.83859" lon="4.70072">
        <ele>257.84717</ele>
        <time>2022-10-04T13:50:44.000Z</time>
      </trkpt>
      <trkpt lat="45.8386" lon="4.70075">
        <ele>257.73758</ele>
        <time>2022-10-04T13:50:49.000Z</time>
      </trkpt>
      <trkpt lat="45.8386" lon="4.70078">
        <ele>257.6633</ele>
        <time>2022-10-04T13:50:52.000Z</time>
      </trkpt>
      <trkpt lat="45.83861" lon="4.7008">
        <ele>257.6601</ele>
        <time>2022-10-04T13:50:55.000Z</time>
      </trkpt>
      <trkpt lat="45.8386" lon="4.70078">
        <ele>257.85831</ele>
        <time>2022-10-04T13:55:14.000Z</time>
      </trkpt>
      <trkpt lat="45.8386" lon="4.70075">
        <ele>258.27026</ele>
        <time>2022-10-04T13:56:33.000Z</time>
      </trkpt>
      <trkpt lat="45.83858" lon="4.70074">
        <ele>258.77142</ele>
        <time>2022-10-04T13:56:51.000Z</time>
      </trkpt>
      <trkpt lat="45.83857" lon="4.70077">
        <ele>259.58801</ele>
        <time>2022-10-04T14:01:09.000Z</time>
      </trkpt>
      <trkpt lat="45.83857" lon="4.70081">
        <ele>260.49704</ele>
        <time>2022-10-04T14:01:11.000Z</time>
      </trkpt>
      <trkpt lat="45.83857" lon="4.70086">
        <ele>261.23175</ele>
        <time>2022-10-04T14:01:13.000Z</time>
      </trkpt>
      <trkpt lat="45.83856" lon="4.70089">
        <ele>261.96722</ele>
        <time>2022-10-04T14:01:14.000Z</time>
      </trkpt>
      <trkpt lat="45.83856" lon="4.70093">
        <ele>262.62958</ele>
        <time>2022-10-04T14:01:15.000Z</time>
      </trkpt>
      <trkpt lat="45.83856" lon="4.70097">
        <ele>263.19748</ele>
        <time>2022-10-04T14:01:16.000Z</time>
      </trkpt>
      <trkpt lat="45.83856" lon="4.70101">
        <ele>263.8205</ele>
        <time>2022-10-04T14:01:17.000Z</time>
      </trkpt>
      <trkpt lat="45.83855" lon="4.70106">
        <ele>264.46378</ele>
        <time>2022-10-04T14:01:18.000Z</time>
      </trkpt>
      <trkpt lat="45.83855" lon="4.7011">
        <ele>265.04929</ele>
        <time>2022-10-04T14:01:19.000Z</time>
      </trkpt>
      <trkpt lat="45.83854" lon="4.70115">
        <ele>265.5885</ele>
        <time>2022-10-04T14:01:20.000Z</time>
      </trkpt>
      <trkpt lat="45.83853" lon="4.70119">
        <ele>266.06317</ele>
        <time>2022-10-04T14:01:21.000Z</time>
      </trkpt>
      <trkpt lat="45.83852" lon="4.70124">
        <ele>266.63126</ele>
        <time>2022-10-04T14:01:22.000Z</time>
      </trkpt>
      <trkpt lat="45.83851" lon="4.70128">
        <ele>267.18475</ele>
        <time>2022-10-04T14:01:23.000Z</time>
      </trkpt>
      <trkpt lat="45.8385" lon="4.70132">
        <ele>267.69049</ele>
        <time>2022-10-04T14:01:24.000Z</time>
      </trkpt>
      <trkpt lat="45.83848" lon="4.70136">
        <ele>268.12396</ele>
        <time>2022-10-04T14:01:25.000Z</time>
      </trkpt>
      <trkpt lat="45.83846" lon="4.70139">
        <ele>268.45654</ele>
        <time>2022-10-04T14:01:26.000Z</time>
      </trkpt>
      <trkpt lat="45.83845" lon="4.70143">
        <ele>268.61563</ele>
        <time>2022-10-04T14:01:27.000Z</time>
      </trkpt>
      <trkpt lat="45.83843" lon="4.70146">
        <ele>268.5849</ele>
        <time>2022-10-04T14:01:28.000Z</time>
      </trkpt>
      <trkpt lat="45.83841" lon="4.7015">
        <ele>268.40878</ele>
        <time>2022-10-04T14:01:29.000Z</time>
      </trkpt>
      <trkpt lat="45.83839" lon="4.70155">
        <ele>268.08292</ele>
        <time>2022-10-04T14:01:30.000Z</time>
      </trkpt>
      <trkpt lat="45.83838" lon="4.70159">
        <ele>267.55295</ele>
        <time>2022-10-04T14:01:31.000Z</time>
      </trkpt>
      <trkpt lat="45.83837" lon="4.70162">
        <ele>266.84445</ele>
        <time>2022-10-04T14:01:32.000Z</time>
      </trkpt>
      <trkpt lat="45.83836" lon="4.70164">
        <ele>266.28134</ele>
        <time>2022-10-04T14:01:33.000Z</time>
      </trkpt>
      <trkpt lat="45.83835" lon="4.70167">
        <ele>265.66101</ele>
        <time>2022-10-04T14:01:34.000Z</time>
      </trkpt>
      <trkpt lat="45.83834" lon="4.70169">
        <ele>265.17935</ele>
        <time>2022-10-04T14:01:35.000Z</time>
      </trkpt>
      <trkpt lat="45.83833" lon="4.70172">
        <ele>264.69843</ele>
        <time>2022-10-04T14:01:36.000Z</time>
      </trkpt>
      <trkpt lat="45.83832" lon="4.70175">
        <ele>264.11334</ele>
        <time>2022-10-04T14:01:37.000Z</time>
      </trkpt>
      <trkpt lat="45.83831" lon="4.70177">
        <ele>263.50995</ele>
        <time>2022-10-04T14:01:38.000Z</time>
      </trkpt>
      <trkpt lat="45.83829" lon="4.7018">
        <ele>262.9292</ele>
        <time>2022-10-04T14:01:39.000Z</time>
      </trkpt>
      <trkpt lat="45.83827" lon="4.70182">
        <ele>262.38385</ele>
        <time>2022-10-04T14:01:40.000Z</time>
      </trkpt>
      <trkpt lat="45.83826" lon="4.70183">
        <ele>261.93774</ele>
        <time>2022-10-04T14:01:41.000Z</time>
      </trkpt>
      <trkpt lat="45.83824" lon="4.70185">
        <ele>261.41055</ele>
        <time>2022-10-04T14:01:42.000Z</time>
      </trkpt>
      <trkpt lat="45.83822" lon="4.70186">
        <ele>260.93539</ele>
        <time>2022-10-04T14:01:43.000Z</time>
      </trkpt>
      <trkpt lat="45.8382" lon="4.70188">
        <ele>260.46509</ele>
        <time>2022-10-04T14:01:44.000Z</time>
      </trkpt>
      <trkpt lat="45.83818" lon="4.7019">
        <ele>260.01575</ele>
        <time>2022-10-04T14:01:45.000Z</time>
      </trkpt>
      <trkpt lat="45.83815" lon="4.70191">
        <ele>259.595</ele>
        <time>2022-10-04T14:01:47.000Z</time>
      </trkpt>
      <trkpt lat="45.83813" lon="4.70193">
        <ele>259.27789</ele>
        <time>2022-10-04T14:01:49.000Z</time>
      </trkpt>
      <trkpt lat="45.83811" lon="4.70192">
        <ele>259.16611</ele>
        <time>2022-10-04T14:01:57.000Z</time>
      </trkpt>
      <trkpt lat="45.83809" lon="4.70194">
        <ele>259.26511</ele>
        <time>2022-10-04T14:02:20.000Z</time>
      </trkpt>
      <trkpt lat="45.83808" lon="4.70198">
        <ele>259.43439</ele>
        <time>2022-10-04T14:02:22.000Z</time>
      </trkpt>
      <trkpt lat="45.83807" lon="4.70201">
        <ele>259.69217</ele>
        <time>2022-10-04T14:02:23.000Z</time>
      </trkpt>
      <trkpt lat="45.83807" lon="4.70204">
        <ele>259.95465</ele>
        <time>2022-10-04T14:02:24.000Z</time>
      </trkpt>
      <trkpt lat="45.83807" lon="4.70207">
        <ele>260.25229</ele>
        <time>2022-10-04T14:02:25.000Z</time>
      </trkpt>
      <trkpt lat="45.83807" lon="4.7021">
        <ele>260.66956</ele>
        <time>2022-10-04T14:02:26.000Z</time>
      </trkpt>
      <trkpt lat="45.83807" lon="4.70214">
        <ele>261.10562</ele>
        <time>2022-10-04T14:02:27.000Z</time>
      </trkpt>
      <trkpt lat="45.83807" lon="4.70218">
        <ele>261.56119</ele>
        <time>2022-10-04T14:02:28.000Z</time>
      </trkpt>
      <trkpt lat="45.83807" lon="4.70221">
        <ele>262.14319</ele>
        <time>2022-10-04T14:02:29.000Z</time>
      </trkpt>
      <trkpt lat="45.83806" lon="4.70226">
        <ele>262.6366</ele>
        <time>2022-10-04T14:02:31.000Z</time>
      </trkpt>
      <trkpt lat="45.83806" lon="4.7023">
        <ele>263.27063</ele>
        <time>2022-10-04T14:02:33.000Z</time>
      </trkpt>
      <trkpt lat="45.83807" lon="4.70235">
        <ele>263.96683</ele>
        <time>2022-10-04T14:02:35.000Z</time>
      </trkpt>
      <trkpt lat="45.83807" lon="4.70239">
        <ele>264.5383</ele>
        <time>2022-10-04T14:02:37.000Z</time>
      </trkpt>
      <trkpt lat="45.83808" lon="4.70243">
        <ele>265.11642</ele>
        <time>2022-10-04T14:02:39.000Z</time>
      </trkpt>
      <trkpt lat="45.83809" lon="4.70247">
        <ele>265.63303</ele>
        <time>2022-10-04T14:02:41.000Z</time>
      </trkpt>
      <trkpt lat="45.8381" lon="4.7025">
        <ele>266.12323</ele>
        <time>2022-10-04T14:02:42.000Z</time>
      </trkpt>
      <trkpt lat="45.83811" lon="4.70254">
        <ele>266.54749</ele>
        <time>2022-10-04T14:02:43.000Z</time>
      </trkpt>
      <trkpt lat="45.83812" lon="4.70257">
        <ele>267.00458</ele>
        <time>2022-10-04T14:02:44.000Z</time>
      </trkpt>
      <trkpt lat="45.83812" lon="4.70261">
        <ele>267.46667</ele>
        <time>2022-10-04T14:02:45.000Z</time>
      </trkpt>
      <trkpt lat="45.83813" lon="4.70266">
        <ele>267.71063</ele>
        <time>2022-10-04T14:02:46.000Z</time>
      </trkpt>
      <trkpt lat="45.83813" lon="4.7027">
        <ele>267.80911</ele>
        <time>2022-10-04T14:02:47.000Z</time>
      </trkpt>
      <trkpt lat="45.83813" lon="4.70275">
        <ele>267.91251</ele>
        <time>2022-10-04T14:02:48.000Z</time>
      </trkpt>
      <trkpt lat="45.83813" lon="4.70279">
        <ele>268.03195</ele>
        <time>2022-10-04T14:02:49.000Z</time>
      </trkpt>
      <trkpt lat="45.83813" lon="4.70283">
        <ele>268.28796</ele>
        <time>2022-10-04T14:02:50.000Z</time>
      </trkpt>
      <trkpt lat="45.83813" lon="4.70287">
        <ele>268.59344</ele>
        <time>2022-10-04T14:02:51.000Z</time>
      </trkpt>
      <trkpt lat="45.83814" lon="4.7029">
        <ele>268.9328</ele>
        <time>2022-10-04T14:02:52.000Z</time>
      </trkpt>
      <trkpt lat="45.83815" lon="4.70293">
        <ele>269.3197</ele>
        <time>2022-10-04T14:02:53.000Z</time>
      </trkpt>
      <trkpt lat="45.83816" lon="4.70296">
        <ele>269.78583</ele>
        <time>2022-10-04T14:02:54.000Z</time>
      </trkpt>
      <trkpt lat="45.83817" lon="4.70299">
        <ele>270.29758</ele>
        <time>2022-10-04T14:02:55.000Z</time>
      </trkpt>
      <trkpt lat="45.83818" lon="4.70302">
        <ele>270.85684</ele>
        <time>2022-10-04T14:02:56.000Z</time>
      </trkpt>
      <trkpt lat="45.8382" lon="4.70304">
        <ele>271.41086</ele>
        <time>2022-10-04T14:02:57.000Z</time>
      </trkpt>
      <trkpt lat="45.83822" lon="4.70307">
        <ele>271.93011</ele>
        <time>2022-10-04T14:02:58.000Z</time>
      </trkpt>
      <trkpt lat="45.83823" lon="4.70309">
        <ele>272.58051</ele>
        <time>2022-10-04T14:02:59.000Z</time>
      </trkpt>
      <trkpt lat="45.83824" lon="4.70313">
        <ele>273.22122</ele>
        <time>2022-10-04T14:03:01.000Z</time>
      </trkpt>
      <trkpt lat="45.83825" lon="4.70318">
        <ele>273.93005</ele>
        <time>2022-10-04T14:03:03.000Z</time>
      </trkpt>
      <trkpt lat="45.83827" lon="4.70323">
        <ele>274.73022</ele>
        <time>2022-10-04T14:03:05.000Z</time>
      </trkpt>
      <trkpt lat="45.83828" lon="4.70326">
        <ele>275.63757</ele>
        <time>2022-10-04T14:03:06.000Z</time>
      </trkpt>
      <trkpt lat="45.83829" lon="4.70328">
        <ele>276.48056</ele>
        <time>2022-10-04T14:03:07.000Z</time>
      </trkpt>
      <trkpt lat="45.83829" lon="4.70331">
        <ele>277.32504</ele>
        <time>2022-10-04T14:03:08.000Z</time>
      </trkpt>
      <trkpt lat="45.8383" lon="4.70336">
        <ele>278.18771</ele>
        <time>2022-10-04T14:03:10.000Z</time>
      </trkpt>
      <trkpt lat="45.8383" lon="4.70339">
        <ele>279.01639</ele>
        <time>2022-10-04T14:03:11.000Z</time>
      </trkpt>
      <trkpt lat="45.8383" lon="4.70341">
        <ele>279.83588</ele>
        <time>2022-10-04T14:03:12.000Z</time>
      </trkpt>
      <trkpt lat="45.83831" lon="4.70345">
        <ele>280.56976</ele>
        <time>2022-10-04T14:03:14.000Z</time>
      </trkpt>
      <trkpt lat="45.83833" lon="4.70348">
        <ele>281.39368</ele>
        <time>2022-10-04T14:03:16.000Z</time>
      </trkpt>
      <trkpt lat="45.83835" lon="4.70351">
        <ele>282.19846</ele>
        <time>2022-10-04T14:03:18.000Z</time>
      </trkpt>
      <trkpt lat="45.83837" lon="4.70354">
        <ele>283.00128</ele>
        <time>2022-10-04T14:03:20.000Z</time>
      </trkpt>
      <trkpt lat="45.83838" lon="4.70357">
        <ele>283.65802</ele>
        <time>2022-10-04T14:03:22.000Z</time>
      </trkpt>
      <trkpt lat="45.83838" lon="4.70361">
        <ele>284.14056</ele>
        <time>2022-10-04T14:03:24.000Z</time>
      </trkpt>
      <trkpt lat="45.8384" lon="4.70365">
        <ele>284.67346</ele>
        <time>2022-10-04T14:03:26.000Z</time>
      </trkpt>
      <trkpt lat="45.83841" lon="4.70369">
        <ele>285.20697</ele>
        <time>2022-10-04T14:03:28.000Z</time>
      </trkpt>
      <trkpt lat="45.83841" lon="4.70374">
        <ele>285.68918</ele>
        <time>2022-10-04T14:03:30.000Z</time>
      </trkpt>
      <trkpt lat="45.83843" lon="4.70378">
        <ele>286.13419</ele>
        <time>2022-10-04T14:03:32.000Z</time>
      </trkpt>
      <trkpt lat="45.83845" lon="4.70382">
        <ele>286.5018</ele>
        <time>2022-10-04T14:03:34.000Z</time>
      </trkpt>
      <trkpt lat="45.83846" lon="4.70387">
        <ele>286.8432</ele>
        <time>2022-10-04T14:03:36.000Z</time>
      </trkpt>
      <trkpt lat="45.83846" lon="4.70392">
        <ele>287.11035</ele>
        <time>2022-10-04T14:03:38.000Z</time>
      </trkpt>
      <trkpt lat="45.83846" lon="4.70394">
        <ele>287.32309</ele>
        <time>2022-10-04T14:03:39.000Z</time>
      </trkpt>
      <trkpt lat="45.83847" lon="4.704">
        <ele>287.54315</ele>
        <time>2022-10-04T14:03:41.000Z</time>
      </trkpt>
      <trkpt lat="45.83848" lon="4.70402">
        <ele>287.77399</ele>
        <time>2022-10-04T14:03:42.000Z</time>
      </trkpt>
      <trkpt lat="45.83848" lon="4.70405">
        <ele>287.95148</ele>
        <time>2022-10-04T14:03:43.000Z</time>
      </trkpt>
      <trkpt lat="45.83849" lon="4.70408">
        <ele>288.12006</ele>
        <time>2022-10-04T14:03:44.000Z</time>
      </trkpt>
      <trkpt lat="45.83849" lon="4.70411">
        <ele>288.27014</ele>
        <time>2022-10-04T14:03:45.000Z</time>
      </trkpt>
      <trkpt lat="45.8385" lon="4.70414">
        <ele>288.37985</ele>
        <time>2022-10-04T14:03:46.000Z</time>
      </trkpt>
      <trkpt lat="45.8385" lon="4.70416">
        <ele>288.45258</ele>
        <time>2022-10-04T14:03:47.000Z</time>
      </trkpt>
      <trkpt lat="45.83851" lon="4.70419">
        <ele>288.3692</ele>
        <time>2022-10-04T14:03:48.000Z</time>
      </trkpt>
      <trkpt lat="45.83852" lon="4.70424">
        <ele>288.21136</ele>
        <time>2022-10-04T14:03:50.000Z</time>
      </trkpt>
      <trkpt lat="45.83852" lon="4.70427">
        <ele>288.06305</ele>
        <time>2022-10-04T14:03:51.000Z</time>
      </trkpt>
      <trkpt lat="45.83853" lon="4.70429">
        <ele>287.96063</ele>
        <time>2022-10-04T14:03:52.000Z</time>
      </trkpt>
      <trkpt lat="45.83853" lon="4.70432">
        <ele>288.00424</ele>
        <time>2022-10-04T14:03:53.000Z</time>
      </trkpt>
      <trkpt lat="45.83854" lon="4.70435">
        <ele>287.94089</ele>
        <time>2022-10-04T14:03:54.000Z</time>
      </trkpt>
      <trkpt lat="45.83855" lon="4.70438">
        <ele>287.91797</ele>
        <time>2022-10-04T14:03:55.000Z</time>
      </trkpt>
      <trkpt lat="45.83856" lon="4.70441">
        <ele>287.83942</ele>
        <time>2022-10-04T14:03:56.000Z</time>
      </trkpt>
      <trkpt lat="45.83857" lon="4.70443">
        <ele>287.75601</ele>
        <time>2022-10-04T14:03:57.000Z</time>
      </trkpt>
      <trkpt lat="45.83858" lon="4.70446">
        <ele>287.65323</ele>
        <time>2022-10-04T14:03:58.000Z</time>
      </trkpt>
      <trkpt lat="45.83858" lon="4.70449">
        <ele>287.50421</ele>
        <time>2022-10-04T14:03:59.000Z</time>
      </trkpt>
      <trkpt lat="45.83859" lon="4.70452">
        <ele>287.34808</ele>
        <time>2022-10-04T14:04:00.000Z</time>
      </trkpt>
      <trkpt lat="45.83859" lon="4.70455">
        <ele>287.17572</ele>
        <time>2022-10-04T14:04:01.000Z</time>
      </trkpt>
      <trkpt lat="45.8386" lon="4.70458">
        <ele>286.90952</ele>
        <time>2022-10-04T14:04:02.000Z</time>
      </trkpt>
      <trkpt lat="45.83861" lon="4.70461">
        <ele>286.73776</ele>
        <time>2022-10-04T14:04:03.000Z</time>
      </trkpt>
      <trkpt lat="45.83862" lon="4.70464">
        <ele>286.61127</ele>
        <time>2022-10-04T14:04:04.000Z</time>
      </trkpt>
      <trkpt lat="45.83862" lon="4.70467">
        <ele>286.49051</ele>
        <time>2022-10-04T14:04:05.000Z</time>
      </trkpt>
      <trkpt lat="45.83863" lon="4.7047">
        <ele>286.37628</ele>
        <time>2022-10-04T14:04:06.000Z</time>
      </trkpt>
      <trkpt lat="45.83864" lon="4.70473">
        <ele>286.28674</ele>
        <time>2022-10-04T14:04:07.000Z</time>
      </trkpt>
      <trkpt lat="45.83865" lon="4.70475">
        <ele>286.26508</ele>
        <time>2022-10-04T14:04:08.000Z</time>
      </trkpt>
      <trkpt lat="45.83865" lon="4.7048">
        <ele>286.23358</ele>
        <time>2022-10-04T14:04:10.000Z</time>
      </trkpt>
      <trkpt lat="45.83866" lon="4.70484">
        <ele>286.2291</ele>
        <time>2022-10-04T14:04:12.000Z</time>
      </trkpt>
      <trkpt lat="45.83866" lon="4.70489">
        <ele>286.12689</ele>
        <time>2022-10-04T14:04:14.000Z</time>
      </trkpt>
      <trkpt lat="45.83866" lon="4.70492">
        <ele>285.88977</ele>
        <time>2022-10-04T14:04:15.000Z</time>
      </trkpt>
      <trkpt lat="45.83866" lon="4.70495">
        <ele>285.43777</ele>
        <time>2022-10-04T14:04:16.000Z</time>
      </trkpt>
      <trkpt lat="45.83866" lon="4.70499">
        <ele>284.98459</ele>
        <time>2022-10-04T14:04:18.000Z</time>
      </trkpt>
      <trkpt lat="45.83866" lon="4.70502">
        <ele>284.52921</ele>
        <time>2022-10-04T14:04:20.000Z</time>
      </trkpt>
      <trkpt lat="45.83864" lon="4.70504">
        <ele>284.12811</ele>
        <time>2022-10-04T14:04:24.000Z</time>
      </trkpt>
      <trkpt lat="45.83864" lon="4.70507">
        <ele>283.82181</ele>
        <time>2022-10-04T14:05:10.000Z</time>
      </trkpt>
      <trkpt lat="45.83862" lon="4.7051">
        <ele>283.38446</ele>
        <time>2022-10-04T14:05:12.000Z</time>
      </trkpt>
      <trkpt lat="45.8386" lon="4.70511">
        <ele>282.96381</ele>
        <time>2022-10-04T14:05:13.000Z</time>
      </trkpt>
      <trkpt lat="45.83858" lon="4.70513">
        <ele>282.59644</ele>
        <time>2022-10-04T14:05:14.000Z</time>
      </trkpt>
      <trkpt lat="45.83856" lon="4.70514">
        <ele>282.23871</ele>
        <time>2022-10-04T14:05:15.000Z</time>
      </trkpt>
      <trkpt lat="45.83855" lon="4.70516">
        <ele>281.92026</ele>
        <time>2022-10-04T14:05:16.000Z</time>
      </trkpt>
      <trkpt lat="45.83853" lon="4.70517">
        <ele>281.54865</ele>
        <time>2022-10-04T14:05:17.000Z</time>
      </trkpt>
      <trkpt lat="45.83851" lon="4.70518">
        <ele>281.16974</ele>
        <time>2022-10-04T14:05:18.000Z</time>
      </trkpt>
      <trkpt lat="45.83849" lon="4.7052">
        <ele>280.80029</ele>
        <time>2022-10-04T14:05:19.000Z</time>
      </trkpt>
      <trkpt lat="45.83847" lon="4.70521">
        <ele>280.51666</ele>
        <time>2022-10-04T14:05:20.000Z</time>
      </trkpt>
      <trkpt lat="45.83845" lon="4.70522">
        <ele>280.25677</ele>
        <time>2022-10-04T14:05:21.000Z</time>
      </trkpt>
      <trkpt lat="45.83843" lon="4.70523">
        <ele>280.02618</ele>
        <time>2022-10-04T14:05:22.000Z</time>
      </trkpt>
      <trkpt lat="45.83841" lon="4.70525">
        <ele>279.83722</ele>
        <time>2022-10-04T14:05:23.000Z</time>
      </trkpt>
      <trkpt lat="45.83839" lon="4.70527">
        <ele>279.68198</ele>
        <time>2022-10-04T14:05:24.000Z</time>
      </trkpt>
      <trkpt lat="45.83837" lon="4.70529">
        <ele>279.56772</ele>
        <time>2022-10-04T14:05:25.000Z</time>
      </trkpt>
      <trkpt lat="45.83835" lon="4.70531">
        <ele>279.63269</ele>
        <time>2022-10-04T14:05:26.000Z</time>
      </trkpt>
      <trkpt lat="45.83834" lon="4.70533">
        <ele>279.84119</ele>
        <time>2022-10-04T14:05:27.000Z</time>
      </trkpt>
      <trkpt lat="45.83832" lon="4.70535">
        <ele>280.05911</ele>
        <time>2022-10-04T14:05:28.000Z</time>
      </trkpt>
      <trkpt lat="45.8383" lon="4.70537">
        <ele>280.29282</ele>
        <time>2022-10-04T14:05:29.000Z</time>
      </trkpt>
      <trkpt lat="45.83828" lon="4.70539">
        <ele>280.50452</ele>
        <time>2022-10-04T14:05:30.000Z</time>
      </trkpt>
      <trkpt lat="45.83827" lon="4.70541">
        <ele>280.59479</ele>
        <time>2022-10-04T14:05:31.000Z</time>
      </trkpt>
      <trkpt lat="45.83825" lon="4.70543">
        <ele>280.88904</ele>
        <time>2022-10-04T14:05:32.000Z</time>
      </trkpt>
      <trkpt lat="45.83823" lon="4.70545">
        <ele>281.20715</ele>
        <time>2022-10-04T14:05:33.000Z</time>
      </trkpt>
      <trkpt lat="45.83821" lon="4.70546">
        <ele>281.48947</ele>
        <time>2022-10-04T14:05:34.000Z</time>
      </trkpt>
      <trkpt lat="45.83818" lon="4.70548">
        <ele>281.76669</ele>
        <time>2022-10-04T14:05:35.000Z</time>
      </trkpt>
      <trkpt lat="45.83816" lon="4.70549">
        <ele>282.05475</ele>
        <time>2022-10-04T14:05:36.000Z</time>
      </trkpt>
      <trkpt lat="45.83814" lon="4.7055">
        <ele>282.29504</ele>
        <time>2022-10-04T14:05:37.000Z</time>
      </trkpt>
      <trkpt lat="45.83811" lon="4.70551">
        <ele>282.49197</ele>
        <time>2022-10-04T14:05:38.000Z</time>
      </trkpt>
      <trkpt lat="45.83809" lon="4.70553">
        <ele>282.67398</ele>
        <time>2022-10-04T14:05:39.000Z</time>
      </trkpt>
      <trkpt lat="45.83807" lon="4.70555">
        <ele>282.81464</ele>
        <time>2022-10-04T14:05:40.000Z</time>
      </trkpt>
      <trkpt lat="45.83804" lon="4.70556">
        <ele>282.90277</ele>
        <time>2022-10-04T14:05:41.000Z</time>
      </trkpt>
      <trkpt lat="45.83802" lon="4.70557">
        <ele>282.95599</ele>
        <time>2022-10-04T14:05:42.000Z</time>
      </trkpt>
      <trkpt lat="45.838" lon="4.70559">
        <ele>282.99823</ele>
        <time>2022-10-04T14:05:43.000Z</time>
      </trkpt>
      <trkpt lat="45.83797" lon="4.7056">
        <ele>283.00705</ele>
        <time>2022-10-04T14:05:44.000Z</time>
      </trkpt>
      <trkpt lat="45.83795" lon="4.70562">
        <ele>283.05313</ele>
        <time>2022-10-04T14:05:45.000Z</time>
      </trkpt>
      <trkpt lat="45.83793" lon="4.70563">
        <ele>283.09317</ele>
        <time>2022-10-04T14:05:46.000Z</time>
      </trkpt>
      <trkpt lat="45.8379" lon="4.70565">
        <ele>283.12259</ele>
        <time>2022-10-04T14:05:47.000Z</time>
      </trkpt>
      <trkpt lat="45.83787" lon="4.70567">
        <ele>283.10712</ele>
        <time>2022-10-04T14:05:48.000Z</time>
      </trkpt>
      <trkpt lat="45.83785" lon="4.70569">
        <ele>283.06711</ele>
        <time>2022-10-04T14:05:49.000Z</time>
      </trkpt>
      <trkpt lat="45.83782" lon="4.70571">
        <ele>283.04187</ele>
        <time>2022-10-04T14:05:50.000Z</time>
      </trkpt>
      <trkpt lat="45.83779" lon="4.70573">
        <ele>283.06641</ele>
        <time>2022-10-04T14:05:51.000Z</time>
      </trkpt>
      <trkpt lat="45.83777" lon="4.70575">
        <ele>283.04556</ele>
        <time>2022-10-04T14:05:52.000Z</time>
      </trkpt>
      <trkpt lat="45.83774" lon="4.70576">
        <ele>283.03839</ele>
        <time>2022-10-04T14:05:53.000Z</time>
      </trkpt>
      <trkpt lat="45.83771" lon="4.70578">
        <ele>283.02457</ele>
        <time>2022-10-04T14:05:54.000Z</time>
      </trkpt>
      <trkpt lat="45.83768" lon="4.7058">
        <ele>283.04779</ele>
        <time>2022-10-04T14:05:55.000Z</time>
      </trkpt>
      <trkpt lat="45.83765" lon="4.70582">
        <ele>283.03891</ele>
        <time>2022-10-04T14:05:56.000Z</time>
      </trkpt>
      <trkpt lat="45.83762" lon="4.70584">
        <ele>283.06363</ele>
        <time>2022-10-04T14:05:57.000Z</time>
      </trkpt>
      <trkpt lat="45.83758" lon="4.70585">
        <ele>283.1106</ele>
        <time>2022-10-04T14:05:58.000Z</time>
      </trkpt>
      <trkpt lat="45.83755" lon="4.70587">
        <ele>283.12759</ele>
        <time>2022-10-04T14:05:59.000Z</time>
      </trkpt>
      <trkpt lat="45.83752" lon="4.70589">
        <ele>283.16193</ele>
        <time>2022-10-04T14:06:00.000Z</time>
      </trkpt>
      <trkpt lat="45.83749" lon="4.7059">
        <ele>283.2291</ele>
        <time>2022-10-04T14:06:01.000Z</time>
      </trkpt>
      <trkpt lat="45.83745" lon="4.70592">
        <ele>283.31433</ele>
        <time>2022-10-04T14:06:02.000Z</time>
      </trkpt>
      <trkpt lat="45.83742" lon="4.70593">
        <ele>283.41144</ele>
        <time>2022-10-04T14:06:03.000Z</time>
      </trkpt>
      <trkpt lat="45.83739" lon="4.70594">
        <ele>283.4725</ele>
        <time>2022-10-04T14:06:04.000Z</time>
      </trkpt>
      <trkpt lat="45.83735" lon="4.70595">
        <ele>283.43536</ele>
        <time>2022-10-04T14:06:05.000Z</time>
      </trkpt>
      <trkpt lat="45.83732" lon="4.70596">
        <ele>283.39697</ele>
        <time>2022-10-04T14:06:06.000Z</time>
      </trkpt>
      <trkpt lat="45.83729" lon="4.70597">
        <ele>283.38046</ele>
        <time>2022-10-04T14:06:07.000Z</time>
      </trkpt>
      <trkpt lat="45.83725" lon="4.70598">
        <ele>283.39557</ele>
        <time>2022-10-04T14:06:08.000Z</time>
      </trkpt>
      <trkpt lat="45.83722" lon="4.70598">
        <ele>283.41794</ele>
        <time>2022-10-04T14:06:09.000Z</time>
      </trkpt>
      <trkpt lat="45.83719" lon="4.70598">
        <ele>283.45648</ele>
        <time>2022-10-04T14:06:10.000Z</time>
      </trkpt>
      <trkpt lat="45.83715" lon="4.70598">
        <ele>283.51865</ele>
        <time>2022-10-04T14:06:11.000Z</time>
      </trkpt>
      <trkpt lat="45.83712" lon="4.70599">
        <ele>283.61591</ele>
        <time>2022-10-04T14:06:12.000Z</time>
      </trkpt>
      <trkpt lat="45.83708" lon="4.706">
        <ele>283.66907</ele>
        <time>2022-10-04T14:06:13.000Z</time>
      </trkpt>
      <trkpt lat="45.83705" lon="4.706">
        <ele>283.67783</ele>
        <time>2022-10-04T14:06:14.000Z</time>
      </trkpt>
      <trkpt lat="45.83701" lon="4.70601">
        <ele>283.711</ele>
        <time>2022-10-04T14:06:15.000Z</time>
      </trkpt>
      <trkpt lat="45.83698" lon="4.70602">
        <ele>283.74872</ele>
        <time>2022-10-04T14:06:16.000Z</time>
      </trkpt>
      <trkpt lat="45.83695" lon="4.70603">
        <ele>283.8349</ele>
        <time>2022-10-04T14:06:17.000Z</time>
      </trkpt>
      <trkpt lat="45.83692" lon="4.70604">
        <ele>283.99042</ele>
        <time>2022-10-04T14:06:18.000Z</time>
      </trkpt>
      <trkpt lat="45.83689" lon="4.70605">
        <ele>284.26199</ele>
        <time>2022-10-04T14:06:19.000Z</time>
      </trkpt>
      <trkpt lat="45.83687" lon="4.70606">
        <ele>284.53558</ele>
        <time>2022-10-04T14:06:20.000Z</time>
      </trkpt>
      <trkpt lat="45.83684" lon="4.70606">
        <ele>284.82993</ele>
        <time>2022-10-04T14:06:21.000Z</time>
      </trkpt>
      <trkpt lat="45.83681" lon="4.70607">
        <ele>285.11511</ele>
        <time>2022-10-04T14:06:22.000Z</time>
      </trkpt>
      <trkpt lat="45.83677" lon="4.70608">
        <ele>285.41699</ele>
        <time>2022-10-04T14:06:23.000Z</time>
      </trkpt>
      <trkpt lat="45.83674" lon="4.70609">
        <ele>285.77319</ele>
        <time>2022-10-04T14:06:24.000Z</time>
      </trkpt>
      <trkpt lat="45.83671" lon="4.7061">
        <ele>286.27032</ele>
        <time>2022-10-04T14:06:25.000Z</time>
      </trkpt>
      <trkpt lat="45.83668" lon="4.70612">
        <ele>286.73544</ele>
        <time>2022-10-04T14:06:26.000Z</time>
      </trkpt>
      <trkpt lat="45.83664" lon="4.70614">
        <ele>287.2565</ele>
        <time>2022-10-04T14:06:27.000Z</time>
      </trkpt>
      <trkpt lat="45.83661" lon="4.70616">
        <ele>287.77365</ele>
        <time>2022-10-04T14:06:28.000Z</time>
      </trkpt>
      <trkpt lat="45.83657" lon="4.70618">
        <ele>288.29889</ele>
        <time>2022-10-04T14:06:29.000Z</time>
      </trkpt>
      <trkpt lat="45.83654" lon="4.70619">
        <ele>288.78595</ele>
        <time>2022-10-04T14:06:30.000Z</time>
      </trkpt>
      <trkpt lat="45.83651" lon="4.7062">
        <ele>289.24493</ele>
        <time>2022-10-04T14:06:31.000Z</time>
      </trkpt>
      <trkpt lat="45.83647" lon="4.70621">
        <ele>289.78357</ele>
        <time>2022-10-04T14:06:32.000Z</time>
      </trkpt>
      <trkpt lat="45.83644" lon="4.70622">
        <ele>290.36182</ele>
        <time>2022-10-04T14:06:33.000Z</time>
      </trkpt>
      <trkpt lat="45.83641" lon="4.70624">
        <ele>291.02643</ele>
        <time>2022-10-04T14:06:34.000Z</time>
      </trkpt>
      <trkpt lat="45.83639" lon="4.70626">
        <ele>291.63092</ele>
        <time>2022-10-04T14:06:35.000Z</time>
      </trkpt>
      <trkpt lat="45.83636" lon="4.70627">
        <ele>292.20081</ele>
        <time>2022-10-04T14:06:36.000Z</time>
      </trkpt>
      <trkpt lat="45.83634" lon="4.70629">
        <ele>292.78677</ele>
        <time>2022-10-04T14:06:37.000Z</time>
      </trkpt>
      <trkpt lat="45.83631" lon="4.7063">
        <ele>293.34503</ele>
        <time>2022-10-04T14:06:38.000Z</time>
      </trkpt>
      <trkpt lat="45.83628" lon="4.70631">
        <ele>293.78729</ele>
        <time>2022-10-04T14:06:39.000Z</time>
      </trkpt>
      <trkpt lat="45.83625" lon="4.70632">
        <ele>294.18521</ele>
        <time>2022-10-04T14:06:40.000Z</time>
      </trkpt>
      <trkpt lat="45.83622" lon="4.70631">
        <ele>294.60614</ele>
        <time>2022-10-04T14:06:41.000Z</time>
      </trkpt>
      <trkpt lat="45.83619" lon="4.7063">
        <ele>295.04956</ele>
        <time>2022-10-04T14:06:42.000Z</time>
      </trkpt>
      <trkpt lat="45.83615" lon="4.70629">
        <ele>295.43417</ele>
        <time>2022-10-04T14:06:43.000Z</time>
      </trkpt>
      <trkpt lat="45.83612" lon="4.70628">
        <ele>295.80865</ele>
        <time>2022-10-04T14:06:44.000Z</time>
      </trkpt>
      <trkpt lat="45.83609" lon="4.70627">
        <ele>296.08746</ele>
        <time>2022-10-04T14:06:45.000Z</time>
      </trkpt>
      <trkpt lat="45.83606" lon="4.70626">
        <ele>296.31586</ele>
        <time>2022-10-04T14:06:46.000Z</time>
      </trkpt>
      <trkpt lat="45.83604" lon="4.70624">
        <ele>296.48953</ele>
        <time>2022-10-04T14:06:47.000Z</time>
      </trkpt>
      <trkpt lat="45.83601" lon="4.70623">
        <ele>296.62891</ele>
        <time>2022-10-04T14:06:48.000Z</time>
      </trkpt>
      <trkpt lat="45.83598" lon="4.70622">
        <ele>296.71078</ele>
        <time>2022-10-04T14:06:49.000Z</time>
      </trkpt>
      <trkpt lat="45.83595" lon="4.7062">
        <ele>296.78738</ele>
        <time>2022-10-04T14:06:50.000Z</time>
      </trkpt>
      <trkpt lat="45.83591" lon="4.70619">
        <ele>296.83453</ele>
        <time>2022-10-04T14:06:51.000Z</time>
      </trkpt>
      <trkpt lat="45.83588" lon="4.70618">
        <ele>296.79123</ele>
        <time>2022-10-04T14:06:52.000Z</time>
      </trkpt>
      <trkpt lat="45.83566" lon="4.70614">
        <ele>296.72296</ele>
        <time>2022-10-04T14:06:58.000Z</time>
      </trkpt>
      <trkpt lat="45.83563" lon="4.70614">
        <ele>296.633</ele>
        <time>2022-10-04T14:06:59.000Z</time>
      </trkpt>
      <trkpt lat="45.83559" lon="4.70614">
        <ele>296.56915</ele>
        <time>2022-10-04T14:07:00.000Z</time>
      </trkpt>
      <trkpt lat="45.83556" lon="4.70613">
        <ele>296.57245</ele>
        <time>2022-10-04T14:07:01.000Z</time>
      </trkpt>
      <trkpt lat="45.83552" lon="4.70613">
        <ele>296.49249</ele>
        <time>2022-10-04T14:07:02.000Z</time>
      </trkpt>
      <trkpt lat="45.83548" lon="4.70613">
        <ele>296.3718</ele>
        <time>2022-10-04T14:07:03.000Z</time>
      </trkpt>
      <trkpt lat="45.83544" lon="4.70613">
        <ele>296.21121</ele>
        <time>2022-10-04T14:07:04.000Z</time>
      </trkpt>
      <trkpt lat="45.83541" lon="4.70614">
        <ele>295.98425</ele>
        <time>2022-10-04T14:07:05.000Z</time>
      </trkpt>
      <trkpt lat="45.83537" lon="4.70614">
        <ele>295.69318</ele>
        <time>2022-10-04T14:07:06.000Z</time>
      </trkpt>
      <trkpt lat="45.83533" lon="4.70614">
        <ele>295.37677</ele>
        <time>2022-10-04T14:07:07.000Z</time>
      </trkpt>
      <trkpt lat="45.8353" lon="4.70615">
        <ele>295.06992</ele>
        <time>2022-10-04T14:07:08.000Z</time>
      </trkpt>
      <trkpt lat="45.83526" lon="4.70615">
        <ele>294.7514</ele>
        <time>2022-10-04T14:07:09.000Z</time>
      </trkpt>
      <trkpt lat="45.83523" lon="4.70616">
        <ele>294.40164</ele>
        <time>2022-10-04T14:07:10.000Z</time>
      </trkpt>
      <trkpt lat="45.83519" lon="4.70617">
        <ele>294.10443</ele>
        <time>2022-10-04T14:07:11.000Z</time>
      </trkpt>
      <trkpt lat="45.83516" lon="4.70618">
        <ele>293.83664</ele>
        <time>2022-10-04T14:07:12.000Z</time>
      </trkpt>
      <trkpt lat="45.83513" lon="4.70618">
        <ele>293.6041</ele>
        <time>2022-10-04T14:07:13.000Z</time>
      </trkpt>
      <trkpt lat="45.8351" lon="4.70619">
        <ele>293.37585</ele>
        <time>2022-10-04T14:07:14.000Z</time>
      </trkpt>
      <trkpt lat="45.83507" lon="4.7062">
        <ele>293.17059</ele>
        <time>2022-10-04T14:07:15.000Z</time>
      </trkpt>
      <trkpt lat="45.83504" lon="4.70621">
        <ele>293.0159</ele>
        <time>2022-10-04T14:07:16.000Z</time>
      </trkpt>
      <trkpt lat="45.835" lon="4.70622">
        <ele>292.88556</ele>
        <time>2022-10-04T14:07:17.000Z</time>
      </trkpt>
      <trkpt lat="45.83497" lon="4.70623">
        <ele>292.73361</ele>
        <time>2022-10-04T14:07:18.000Z</time>
      </trkpt>
      <trkpt lat="45.83494" lon="4.70623">
        <ele>292.5755</ele>
        <time>2022-10-04T14:07:19.000Z</time>
      </trkpt>
      <trkpt lat="45.83491" lon="4.70624">
        <ele>292.44879</ele>
        <time>2022-10-04T14:07:20.000Z</time>
      </trkpt>
      <trkpt lat="45.83488" lon="4.70624">
        <ele>292.31818</ele>
        <time>2022-10-04T14:07:21.000Z</time>
      </trkpt>
      <trkpt lat="45.83485" lon="4.70624">
        <ele>292.19943</ele>
        <time>2022-10-04T14:07:22.000Z</time>
      </trkpt>
      <trkpt lat="45.83483" lon="4.70624">
        <ele>292.08795</ele>
        <time>2022-10-04T14:07:23.000Z</time>
      </trkpt>
      <trkpt lat="45.8348" lon="4.70624">
        <ele>292.06818</ele>
        <time>2022-10-04T14:07:24.000Z</time>
      </trkpt>
      <trkpt lat="45.83478" lon="4.70624">
        <ele>292.13681</ele>
        <time>2022-10-04T14:07:25.000Z</time>
      </trkpt>
      <trkpt lat="45.83476" lon="4.70624">
        <ele>292.19864</ele>
        <time>2022-10-04T14:07:26.000Z</time>
      </trkpt>
      <trkpt lat="45.83474" lon="4.70624">
        <ele>292.25189</ele>
        <time>2022-10-04T14:07:27.000Z</time>
      </trkpt>
      <trkpt lat="45.83471" lon="4.70625">
        <ele>292.28665</ele>
        <time>2022-10-04T14:07:28.000Z</time>
      </trkpt>
      <trkpt lat="45.83468" lon="4.70624">
        <ele>292.35614</ele>
        <time>2022-10-04T14:07:29.000Z</time>
      </trkpt>
      <trkpt lat="45.83466" lon="4.70624">
        <ele>292.47147</ele>
        <time>2022-10-04T14:07:30.000Z</time>
      </trkpt>
      <trkpt lat="45.83463" lon="4.70624">
        <ele>292.60669</ele>
        <time>2022-10-04T14:07:31.000Z</time>
      </trkpt>
      <trkpt lat="45.8346" lon="4.70623">
        <ele>292.75787</ele>
        <time>2022-10-04T14:07:32.000Z</time>
      </trkpt>
      <trkpt lat="45.83457" lon="4.70623">
        <ele>292.82355</ele>
        <time>2022-10-04T14:07:33.000Z</time>
      </trkpt>
      <trkpt lat="45.83454" lon="4.70622">
        <ele>292.9881</ele>
        <time>2022-10-04T14:07:34.000Z</time>
      </trkpt>
      <trkpt lat="45.83451" lon="4.70621">
        <ele>293.1748</ele>
        <time>2022-10-04T14:07:35.000Z</time>
      </trkpt>
      <trkpt lat="45.83448" lon="4.7062">
        <ele>293.34021</ele>
        <time>2022-10-04T14:07:36.000Z</time>
      </trkpt>
      <trkpt lat="45.83446" lon="4.70619">
        <ele>293.53314</ele>
        <time>2022-10-04T14:07:37.000Z</time>
      </trkpt>
      <trkpt lat="45.83444" lon="4.70618">
        <ele>293.75421</ele>
        <time>2022-10-04T14:07:38.000Z</time>
      </trkpt>
      <trkpt lat="45.83441" lon="4.70617">
        <ele>293.99313</ele>
        <time>2022-10-04T14:07:39.000Z</time>
      </trkpt>
      <trkpt lat="45.83438" lon="4.70616">
        <ele>294.17728</ele>
        <time>2022-10-04T14:07:40.000Z</time>
      </trkpt>
      <trkpt lat="45.83435" lon="4.70616">
        <ele>294.39197</ele>
        <time>2022-10-04T14:07:41.000Z</time>
      </trkpt>
      <trkpt lat="45.83432" lon="4.70614">
        <ele>294.54712</ele>
        <time>2022-10-04T14:07:42.000Z</time>
      </trkpt>
      <trkpt lat="45.83429" lon="4.70614">
        <ele>294.64923</ele>
        <time>2022-10-04T14:07:43.000Z</time>
      </trkpt>
      <trkpt lat="45.83426" lon="4.70613">
        <ele>294.71881</ele>
        <time>2022-10-04T14:07:44.000Z</time>
      </trkpt>
      <trkpt lat="45.83423" lon="4.70612">
        <ele>294.79428</ele>
        <time>2022-10-04T14:07:45.000Z</time>
      </trkpt>
      <trkpt lat="45.8342" lon="4.70611">
        <ele>294.87714</ele>
        <time>2022-10-04T14:07:46.000Z</time>
      </trkpt>
      <trkpt lat="45.83418" lon="4.7061">
        <ele>294.96454</ele>
        <time>2022-10-04T14:07:47.000Z</time>
      </trkpt>
      <trkpt lat="45.83415" lon="4.70608">
        <ele>295.10968</ele>
        <time>2022-10-04T14:07:48.000Z</time>
      </trkpt>
      <trkpt lat="45.83413" lon="4.70608">
        <ele>295.27051</ele>
        <time>2022-10-04T14:07:49.000Z</time>
      </trkpt>
      <trkpt lat="45.8341" lon="4.70608">
        <ele>295.43134</ele>
        <time>2022-10-04T14:07:50.000Z</time>
      </trkpt>
      <trkpt lat="45.83408" lon="4.70609">
        <ele>295.57898</ele>
        <time>2022-10-04T14:07:51.000Z</time>
      </trkpt>
      <trkpt lat="45.83405" lon="4.70609">
        <ele>295.71384</ele>
        <time>2022-10-04T14:07:52.000Z</time>
      </trkpt>
      <trkpt lat="45.83403" lon="4.70609">
        <ele>295.84668</ele>
        <time>2022-10-04T14:07:53.000Z</time>
      </trkpt>
      <trkpt lat="45.834" lon="4.70609">
        <ele>295.94113</ele>
        <time>2022-10-04T14:07:54.000Z</time>
      </trkpt>
      <trkpt lat="45.83397" lon="4.70609">
        <ele>295.97589</ele>
        <time>2022-10-04T14:07:55.000Z</time>
      </trkpt>
      <trkpt lat="45.83395" lon="4.70609">
        <ele>296.0108</ele>
        <time>2022-10-04T14:07:56.000Z</time>
      </trkpt>
      <trkpt lat="45.83393" lon="4.70609">
        <ele>296.01483</ele>
        <time>2022-10-04T14:07:57.000Z</time>
      </trkpt>
      <trkpt lat="45.8339" lon="4.70608">
        <ele>296.01849</ele>
        <time>2022-10-04T14:07:58.000Z</time>
      </trkpt>
      <trkpt lat="45.83388" lon="4.70607">
        <ele>296.02258</ele>
        <time>2022-10-04T14:07:59.000Z</time>
      </trkpt>
      <trkpt lat="45.83386" lon="4.70606">
        <ele>295.97772</ele>
        <time>2022-10-04T14:08:00.000Z</time>
      </trkpt>
      <trkpt lat="45.83383" lon="4.70604">
        <ele>295.91217</ele>
        <time>2022-10-04T14:08:01.000Z</time>
      </trkpt>
      <trkpt lat="45.83381" lon="4.70603">
        <ele>295.91498</ele>
        <time>2022-10-04T14:08:02.000Z</time>
      </trkpt>
      <trkpt lat="45.83379" lon="4.70602">
        <ele>295.95856</ele>
        <time>2022-10-04T14:08:03.000Z</time>
      </trkpt>
      <trkpt lat="45.83377" lon="4.70601">
        <ele>296.02621</ele>
        <time>2022-10-04T14:08:04.000Z</time>
      </trkpt>
      <trkpt lat="45.83375" lon="4.70601">
        <ele>296.1427</ele>
        <time>2022-10-04T14:08:05.000Z</time>
      </trkpt>
      <trkpt lat="45.83373" lon="4.70601">
        <ele>296.25156</ele>
        <time>2022-10-04T14:08:06.000Z</time>
      </trkpt>
      <trkpt lat="45.83369" lon="4.70602">
        <ele>296.4588</ele>
        <time>2022-10-04T14:08:08.000Z</time>
      </trkpt>
      <trkpt lat="45.83367" lon="4.70603">
        <ele>296.71613</ele>
        <time>2022-10-04T14:08:09.000Z</time>
      </trkpt>
      <trkpt lat="45.83365" lon="4.70603">
        <ele>296.98135</ele>
        <time>2022-10-04T14:08:10.000Z</time>
      </trkpt>
      <trkpt lat="45.83363" lon="4.70604">
        <ele>297.18658</ele>
        <time>2022-10-04T14:08:11.000Z</time>
      </trkpt>
      <trkpt lat="45.83361" lon="4.70604">
        <ele>297.42926</ele>
        <time>2022-10-04T14:08:12.000Z</time>
      </trkpt>
      <trkpt lat="45.83359" lon="4.70604">
        <ele>297.67178</ele>
        <time>2022-10-04T14:08:13.000Z</time>
      </trkpt>
      <trkpt lat="45.83357" lon="4.70604">
        <ele>297.9938</ele>
        <time>2022-10-04T14:08:14.000Z</time>
      </trkpt>
      <trkpt lat="45.83355" lon="4.70604">
        <ele>298.32999</ele>
        <time>2022-10-04T14:08:15.000Z</time>
      </trkpt>
      <trkpt lat="45.83353" lon="4.70605">
        <ele>298.66388</ele>
        <time>2022-10-04T14:08:16.000Z</time>
      </trkpt>
      <trkpt lat="45.8335" lon="4.70607">
        <ele>299.00366</ele>
        <time>2022-10-04T14:08:18.000Z</time>
      </trkpt>
      <trkpt lat="45.83349" lon="4.7061">
        <ele>299.35013</ele>
        <time>2022-10-04T14:08:19.000Z</time>
      </trkpt>
      <trkpt lat="45.83348" lon="4.70613">
        <ele>299.69489</ele>
        <time>2022-10-04T14:08:21.000Z</time>
      </trkpt>
      <trkpt lat="45.83349" lon="4.70617">
        <ele>300.00186</ele>
        <time>2022-10-04T14:08:23.000Z</time>
      </trkpt>
      <trkpt lat="45.8335" lon="4.7062">
        <ele>300.36823</ele>
        <time>2022-10-04T14:08:25.000Z</time>
      </trkpt>
      <trkpt lat="45.83349" lon="4.70625">
        <ele>300.74796</ele>
        <time>2022-10-04T14:08:27.000Z</time>
      </trkpt>
      <trkpt lat="45.8335" lon="4.70629">
        <ele>301.20142</ele>
        <time>2022-10-04T14:08:29.000Z</time>
      </trkpt>
      <trkpt lat="45.83351" lon="4.70633">
        <ele>301.56641</ele>
        <time>2022-10-04T14:08:31.000Z</time>
      </trkpt>
      <trkpt lat="45.83352" lon="4.70636">
        <ele>301.94809</ele>
        <time>2022-10-04T14:08:32.000Z</time>
      </trkpt>
      <trkpt lat="45.83352" lon="4.70639">
        <ele>302.26273</ele>
        <time>2022-10-04T14:08:33.000Z</time>
      </trkpt>
      <trkpt lat="45.83352" lon="4.70642">
        <ele>302.52722</ele>
        <time>2022-10-04T14:08:34.000Z</time>
      </trkpt>
      <trkpt lat="45.83353" lon="4.70645">
        <ele>302.79034</ele>
        <time>2022-10-04T14:08:35.000Z</time>
      </trkpt>
      <trkpt lat="45.83353" lon="4.70648">
        <ele>303.02899</ele>
        <time>2022-10-04T14:08:36.000Z</time>
      </trkpt>
      <trkpt lat="45.83353" lon="4.7065">
        <ele>303.22446</ele>
        <time>2022-10-04T14:08:37.000Z</time>
      </trkpt>
      <trkpt lat="45.83353" lon="4.70653">
        <ele>303.44855</ele>
        <time>2022-10-04T14:08:38.000Z</time>
      </trkpt>
      <trkpt lat="45.83354" lon="4.70656">
        <ele>303.58575</ele>
        <time>2022-10-04T14:08:39.000Z</time>
      </trkpt>
      <trkpt lat="45.83354" lon="4.70659">
        <ele>303.66608</ele>
        <time>2022-10-04T14:08:40.000Z</time>
      </trkpt>
      <trkpt lat="45.83354" lon="4.70662">
        <ele>303.76208</ele>
        <time>2022-10-04T14:08:41.000Z</time>
      </trkpt>
      <trkpt lat="45.83354" lon="4.70666">
        <ele>303.82062</ele>
        <time>2022-10-04T14:08:42.000Z</time>
      </trkpt>
      <trkpt lat="45.83353" lon="4.70669">
        <ele>303.90274</ele>
        <time>2022-10-04T14:08:43.000Z</time>
      </trkpt>
      <trkpt lat="45.83353" lon="4.70672">
        <ele>303.96133</ele>
        <time>2022-10-04T14:08:44.000Z</time>
      </trkpt>
      <trkpt lat="45.83353" lon="4.70675">
        <ele>304.0285</ele>
        <time>2022-10-04T14:08:45.000Z</time>
      </trkpt>
      <trkpt lat="45.83353" lon="4.70678">
        <ele>304.09015</ele>
        <time>2022-10-04T14:08:46.000Z</time>
      </trkpt>
      <trkpt lat="45.83352" lon="4.7068">
        <ele>304.18637</ele>
        <time>2022-10-04T14:08:47.000Z</time>
      </trkpt>
      <trkpt lat="45.83352" lon="4.70683">
        <ele>304.26727</ele>
        <time>2022-10-04T14:08:48.000Z</time>
      </trkpt>
      <trkpt lat="45.83352" lon="4.70686">
        <ele>304.33154</ele>
        <time>2022-10-04T14:08:49.000Z</time>
      </trkpt>
      <trkpt lat="45.83352" lon="4.70689">
        <ele>304.25626</ele>
        <time>2022-10-04T14:08:50.000Z</time>
      </trkpt>
      <trkpt lat="45.83351" lon="4.70691">
        <ele>304.29095</ele>
        <time>2022-10-04T14:08:51.000Z</time>
      </trkpt>
      <trkpt lat="45.8335" lon="4.70694">
        <ele>304.31183</ele>
        <time>2022-10-04T14:08:52.000Z</time>
      </trkpt>
      <trkpt lat="45.8335" lon="4.70697">
        <ele>304.39249</ele>
        <time>2022-10-04T14:08:53.000Z</time>
      </trkpt>
      <trkpt lat="45.8335" lon="4.70701">
        <ele>304.55069</ele>
        <time>2022-10-04T14:08:54.000Z</time>
      </trkpt>
      <trkpt lat="45.83349" lon="4.70703">
        <ele>304.58542</ele>
        <time>2022-10-04T14:08:55.000Z</time>
      </trkpt>
      <trkpt lat="45.83349" lon="4.70706">
        <ele>304.5636</ele>
        <time>2022-10-04T14:08:56.000Z</time>
      </trkpt>
      <trkpt lat="45.83348" lon="4.70709">
        <ele>304.50589</ele>
        <time>2022-10-04T14:08:57.000Z</time>
      </trkpt>
      <trkpt lat="45.83347" lon="4.70712">
        <ele>304.46939</ele>
        <time>2022-10-04T14:08:58.000Z</time>
      </trkpt>
      <trkpt lat="45.83347" lon="4.70717">
        <ele>304.54272</ele>
        <time>2022-10-04T14:09:00.000Z</time>
      </trkpt>
      <trkpt lat="45.83348" lon="4.7072">
        <ele>304.64145</ele>
        <time>2022-10-04T14:09:01.000Z</time>
      </trkpt>
      <trkpt lat="45.83348" lon="4.70722">
        <ele>304.75488</ele>
        <time>2022-10-04T14:09:02.000Z</time>
      </trkpt>
      <trkpt lat="45.83348" lon="4.70726">
        <ele>304.87747</ele>
        <time>2022-10-04T14:09:03.000Z</time>
      </trkpt>
      <trkpt lat="45.83348" lon="4.70729">
        <ele>304.9754</ele>
        <time>2022-10-04T14:09:04.000Z</time>
      </trkpt>
      <trkpt lat="45.83348" lon="4.70732">
        <ele>305.13577</ele>
        <time>2022-10-04T14:09:05.000Z</time>
      </trkpt>
      <trkpt lat="45.83347" lon="4.70736">
        <ele>305.20663</ele>
        <time>2022-10-04T14:09:06.000Z</time>
      </trkpt>
      <trkpt lat="45.83347" lon="4.7074">
        <ele>305.25537</ele>
        <time>2022-10-04T14:09:07.000Z</time>
      </trkpt>
      <trkpt lat="45.83346" lon="4.70744">
        <ele>305.26862</ele>
        <time>2022-10-04T14:09:08.000Z</time>
      </trkpt>
      <trkpt lat="45.83346" lon="4.70747">
        <ele>305.31232</ele>
        <time>2022-10-04T14:09:09.000Z</time>
      </trkpt>
      <trkpt lat="45.83345" lon="4.7075">
        <ele>305.36978</ele>
        <time>2022-10-04T14:09:10.000Z</time>
      </trkpt>
      <trkpt lat="45.83345" lon="4.70754">
        <ele>305.47888</ele>
        <time>2022-10-04T14:09:11.000Z</time>
      </trkpt>
      <trkpt lat="45.83345" lon="4.70757">
        <ele>305.58185</ele>
        <time>2022-10-04T14:09:12.000Z</time>
      </trkpt>
      <trkpt lat="45.83345" lon="4.7076">
        <ele>305.58127</ele>
        <time>2022-10-04T14:09:13.000Z</time>
      </trkpt>
      <trkpt lat="45.83345" lon="4.70764">
        <ele>305.5202</ele>
        <time>2022-10-04T14:09:14.000Z</time>
      </trkpt>
      <trkpt lat="45.83344" lon="4.70767">
        <ele>305.38602</ele>
        <time>2022-10-04T14:09:15.000Z</time>
      </trkpt>
      <trkpt lat="45.83343" lon="4.7077">
        <ele>305.31854</ele>
        <time>2022-10-04T14:09:16.000Z</time>
      </trkpt>
      <trkpt lat="45.83342" lon="4.70773">
        <ele>305.23563</ele>
        <time>2022-10-04T14:09:17.000Z</time>
      </trkpt>
      <trkpt lat="45.83342" lon="4.70776">
        <ele>305.10895</ele>
        <time>2022-10-04T14:09:18.000Z</time>
      </trkpt>
      <trkpt lat="45.83341" lon="4.70778">
        <ele>304.99155</ele>
        <time>2022-10-04T14:09:19.000Z</time>
      </trkpt>
      <trkpt lat="45.83341" lon="4.70781">
        <ele>304.86856</ele>
        <time>2022-10-04T14:09:20.000Z</time>
      </trkpt>
      <trkpt lat="45.83341" lon="4.70784">
        <ele>304.76172</ele>
        <time>2022-10-04T14:09:21.000Z</time>
      </trkpt>
      <trkpt lat="45.83341" lon="4.70789">
        <ele>304.70569</ele>
        <time>2022-10-04T14:09:23.000Z</time>
      </trkpt>
    </trkseg>
  </trk>
</gpx>